<?xml version='1.0' encoding='UTF-8'?><gpx version="1.1" creator="JPX - https://github.com/jenetics/jpx" xmlns="http://www.topografix.com/GPX/1/1"><trk><trkseg><trkpt lat="43.54506578242786" lon="11.316190601079688"><ele>475.00000000000006</ele><time>2026-04-06T14:04:02.999Z</time></trkpt><trkpt lat="43.545001353555094" lon="11.316101054091071"><ele>475.0</ele><time>2026-04-06T14:04:04.999Z</time></trkpt><trkpt lat="43.54494289117613" lon="11.316049521707136"><ele>475.0</ele><time>2026-04-06T14:04:07.999Z</time></trkpt><trkpt lat="43.54484739623052" lon="11.31602261201435"><ele>475.0</ele><time>2026-04-06T14:04:10.999Z</time></trkpt><trkpt lat="43.54478378563482" lon="11.316029786522492"><ele>475.00000000000006</ele><time>2026-04-06T14:04:11.999Z</time></trkpt><trkpt lat="43.544668845038096" lon="11.316058171769052"><ele>475.0</ele><time>2026-04-06T14:04:13.999Z</time></trkpt><trkpt lat="43.54456400041792" lon="11.316084735238006"><ele>474.1666666666667</ele><time>2026-04-06T14:04:15.999Z</time></trkpt><trkpt lat="43.544465313286615" lon="11.316127859937048"><ele>473.33333333333337</ele><time>2026-04-06T14:04:17.999Z</time></trkpt><trkpt lat="43.544394563490044" lon="11.316145833355165"><ele>472.5</ele><time>2026-04-06T14:04:18.999Z</time></trkpt><trkpt lat="43.54432466860338" lon="11.31616671563258"><ele>471.66666666666663</ele><time>2026-04-06T14:04:19.999Z</time></trkpt><trkpt lat="43.54424805882833" lon="11.31618975707063"><ele>470.8333333333333</ele><time>2026-04-06T14:04:20.999Z</time></trkpt><trkpt lat="43.54417337075877" lon="11.31621343102365"><ele>470.0</ele><time>2026-04-06T14:04:21.999Z</time></trkpt><trkpt lat="43.54408932670138" lon="11.316238984819428"><ele>470.0</ele><time>2026-04-06T14:04:22.999Z</time></trkpt><trkpt lat="43.54399960602028" lon="11.316264547537465"><ele>470.0</ele><time>2026-04-06T14:04:23.999Z</time></trkpt><trkpt lat="43.54391119077801" lon="11.316288887818377"><ele>470.0</ele><time>2026-04-06T14:04:24.999Z</time></trkpt><trkpt lat="43.543836417768865" lon="11.316315090692775"><ele>470.0</ele><time>2026-04-06T14:04:25.999Z</time></trkpt><trkpt lat="43.54377330524687" lon="11.316335991435752"><ele>470.0</ele><time>2026-04-06T14:04:26.999Z</time></trkpt><trkpt lat="43.543647118093276" lon="11.3163794206294"><ele>472.2</ele><time>2026-04-06T14:04:28.999Z</time></trkpt><trkpt lat="43.543563238509726" lon="11.316403150281332"><ele>474.4</ele><time>2026-04-06T14:04:29.999Z</time></trkpt><trkpt lat="43.543470059308795" lon="11.316432414252493"><ele>476.6</ele><time>2026-04-06T14:04:30.999Z</time></trkpt><trkpt lat="43.543364955706856" lon="11.31646854657316"><ele>478.8</ele><time>2026-04-06T14:04:31.999Z</time></trkpt><trkpt lat="43.54325060025886" lon="11.316502420583259"><ele>481.0</ele><time>2026-04-06T14:04:32.999Z</time></trkpt><trkpt lat="43.543140583796145" lon="11.316531911391442"><ele>481.0</ele><time>2026-04-06T14:04:33.999Z</time></trkpt><trkpt lat="43.54303264072831" lon="11.316564498366018"><ele>481.0</ele><time>2026-04-06T14:04:34.999Z</time></trkpt><trkpt lat="43.542925151269465" lon="11.31659033108873"><ele>481.0</ele><time>2026-04-06T14:04:35.999Z</time></trkpt><trkpt lat="43.54281586280488" lon="11.316623690919249"><ele>481.0</ele><time>2026-04-06T14:04:36.999Z</time></trkpt><trkpt lat="43.54270939193427" lon="11.316666342935964"><ele>481.0</ele><time>2026-04-06T14:04:37.999Z</time></trkpt><trkpt lat="43.54261069446747" lon="11.316725936966973"><ele>478.6</ele><time>2026-04-06T14:04:38.999Z</time></trkpt><trkpt lat="43.54252879225238" lon="11.31682187520554"><ele>476.20000000000005</ele><time>2026-04-06T14:04:39.999Z</time></trkpt><trkpt lat="43.54244901645469" lon="11.316929903566505"><ele>473.79999999999995</ele><time>2026-04-06T14:04:40.999Z</time></trkpt><trkpt lat="43.54236454143754" lon="11.317030724372868"><ele>471.4</ele><time>2026-04-06T14:04:42Z</time></trkpt><trkpt lat="43.54227770801738" lon="11.317115931813351"><ele>469.0</ele><time>2026-04-06T14:04:43Z</time></trkpt><trkpt lat="43.54218994852516" lon="11.31717369436438"><ele>469.0</ele><time>2026-04-06T14:04:44Z</time></trkpt><trkpt lat="43.542089619321445" lon="11.317198240002375"><ele>469.0</ele><time>2026-04-06T14:04:45Z</time></trkpt><trkpt lat="43.54197082608289" lon="11.317198496093859"><ele>469.0</ele><time>2026-04-06T14:04:46Z</time></trkpt><trkpt lat="43.541845488547835" lon="11.317170351890748"><ele>469.0</ele><time>2026-04-06T14:04:47Z</time></trkpt><trkpt lat="43.541719921466424" lon="11.3171236162168"><ele>465.5</ele><time>2026-04-06T14:04:48Z</time></trkpt><trkpt lat="43.5415915547755" lon="11.317078131676334"><ele>462.0</ele><time>2026-04-06T14:04:49Z</time></trkpt><trkpt lat="43.54145654648958" lon="11.317038527832263"><ele>458.5</ele><time>2026-04-06T14:04:50Z</time></trkpt><trkpt lat="43.541322476862916" lon="11.31699788715331"><ele>455.0</ele><time>2026-04-06T14:04:51Z</time></trkpt><trkpt lat="43.541190031772345" lon="11.316952886947012"><ele>454.5</ele><time>2026-04-06T14:04:52Z</time></trkpt><trkpt lat="43.541070828002404" lon="11.316910866700686"><ele>454.0</ele><time>2026-04-06T14:04:53Z</time></trkpt><trkpt lat="43.540958411376586" lon="11.316882330483093"><ele>453.5</ele><time>2026-04-06T14:04:54Z</time></trkpt><trkpt lat="43.540846741989974" lon="11.316871373527531"><ele>453.0</ele><time>2026-04-06T14:04:55Z</time></trkpt><trkpt lat="43.54072593951058" lon="11.316883594805578"><ele>453.0</ele><time>2026-04-06T14:04:56Z</time></trkpt><trkpt lat="43.540603037416574" lon="11.316928548116964"><ele>453.0</ele><time>2026-04-06T14:04:57Z</time></trkpt><trkpt lat="43.540479539999424" lon="11.317007386222011"><ele>453.0</ele><time>2026-04-06T14:04:58Z</time></trkpt><trkpt lat="43.5403500402514" lon="11.317102234194124"><ele>453.0</ele><time>2026-04-06T14:04:59Z</time></trkpt><trkpt lat="43.540214345507756" lon="11.31718669271885"><ele>454.75</ele><time>2026-04-06T14:05:00Z</time></trkpt><trkpt lat="43.54007745768189" lon="11.317262153239877"><ele>456.5</ele><time>2026-04-06T14:05:01Z</time></trkpt><trkpt lat="43.53994665454064" lon="11.317321179946582"><ele>458.25</ele><time>2026-04-06T14:05:02Z</time></trkpt><trkpt lat="43.53981915048115" lon="11.317351632671182"><ele>460.0</ele><time>2026-04-06T14:05:03Z</time></trkpt><trkpt lat="43.539687419490434" lon="11.317340803426157"><ele>459.33333333333337</ele><time>2026-04-06T14:05:04Z</time></trkpt><trkpt lat="43.53954165027184" lon="11.317294951032318"><ele>458.66666666666663</ele><time>2026-04-06T14:05:05Z</time></trkpt><trkpt lat="43.539380933956124" lon="11.317222518357914"><ele>458.0</ele><time>2026-04-06T14:05:06Z</time></trkpt><trkpt lat="43.53920679525918" lon="11.31714954153375"><ele>453.3333333333333</ele><time>2026-04-06T14:05:07Z</time></trkpt><trkpt lat="43.53902339149269" lon="11.31706875845343"><ele>448.66666666666663</ele><time>2026-04-06T14:05:08Z</time></trkpt><trkpt lat="43.538828396944275" lon="11.316981692380674"><ele>444.0</ele><time>2026-04-06T14:05:09Z</time></trkpt><trkpt lat="43.538640960802525" lon="11.3169056607945"><ele>444.0</ele><time>2026-04-06T14:05:10Z</time></trkpt><trkpt lat="43.538462293184715" lon="11.316837468531832"><ele>444.0</ele><time>2026-04-06T14:05:11Z</time></trkpt><trkpt lat="43.53829617881289" lon="11.31677476851512"><ele>444.0</ele><time>2026-04-06T14:05:12Z</time></trkpt><trkpt lat="43.53813516666219" lon="11.316711489170707"><ele>444.0</ele><time>2026-04-06T14:05:13Z</time></trkpt><trkpt lat="43.53798185844259" lon="11.316647997358464"><ele>444.0</ele><time>2026-04-06T14:05:14Z</time></trkpt><trkpt lat="43.53783823606783" lon="11.316584430214032"><ele>444.0</ele><time>2026-04-06T14:05:15Z</time></trkpt><trkpt lat="43.53770273552681" lon="11.316503060183901"><ele>441.66666666666663</ele><time>2026-04-06T14:05:16Z</time></trkpt><trkpt lat="43.53757232074558" lon="11.31638198696343"><ele>439.3333333333333</ele><time>2026-04-06T14:05:17Z</time></trkpt><trkpt lat="43.537442567618264" lon="11.316231745248052"><ele>437.0</ele><time>2026-04-06T14:05:18Z</time></trkpt><trkpt lat="43.537331336392" lon="11.316045946071675"><ele>437.0</ele><time>2026-04-06T14:05:19Z</time></trkpt><trkpt lat="43.53723596026316" lon="11.31583955364647"><ele>437.0</ele><time>2026-04-06T14:05:20Z</time></trkpt><trkpt lat="43.53715467833998" lon="11.315653883813656"><ele>437.0</ele><time>2026-04-06T14:05:21Z</time></trkpt><trkpt lat="43.53706467846736" lon="11.315470104437038"><ele>437.66666666666663</ele><time>2026-04-06T14:05:22Z</time></trkpt><trkpt lat="43.5369616645735" lon="11.31531614097179"><ele>438.33333333333337</ele><time>2026-04-06T14:05:23Z</time></trkpt><trkpt lat="43.53683966933698" lon="11.315177844450462"><ele>439.0</ele><time>2026-04-06T14:05:24Z</time></trkpt><trkpt lat="43.53671780362232" lon="11.315058707781471"><ele>439.0</ele><time>2026-04-06T14:05:25Z</time></trkpt><trkpt lat="43.536607644095234" lon="11.314937650467916"><ele>439.0</ele><time>2026-04-06T14:05:26Z</time></trkpt><trkpt lat="43.53653254244096" lon="11.314789107971352"><ele>439.0</ele><time>2026-04-06T14:05:27Z</time></trkpt><trkpt lat="43.53645786027716" lon="11.31464224079561"><ele>439.0</ele><time>2026-04-06T14:05:28Z</time></trkpt><trkpt lat="43.53640568365468" lon="11.314479222632366"><ele>438.0</ele><time>2026-04-06T14:05:29Z</time></trkpt><trkpt lat="43.53634789215667" lon="11.314313131581816"><ele>437.0</ele><time>2026-04-06T14:05:30Z</time></trkpt><trkpt lat="43.53627552084022" lon="11.314157563855696"><ele>436.0</ele><time>2026-04-06T14:05:31Z</time></trkpt><trkpt lat="43.53618759768835" lon="11.31400604130242"><ele>435.0</ele><time>2026-04-06T14:05:32Z</time></trkpt><trkpt lat="43.53609097432911" lon="11.313870353756723"><ele>433.0</ele><time>2026-04-06T14:05:33Z</time></trkpt><trkpt lat="43.535995257198934" lon="11.313744864924852"><ele>431.0</ele><time>2026-04-06T14:05:34Z</time></trkpt><trkpt lat="43.535899173136094" lon="11.313616672100633"><ele>429.0</ele><time>2026-04-06T14:05:35Z</time></trkpt><trkpt lat="43.53579980530633" lon="11.313485074600903"><ele>427.0</ele><time>2026-04-06T14:05:36Z</time></trkpt><trkpt lat="43.53570470466575" lon="11.313357720946398"><ele>427.0</ele><time>2026-04-06T14:05:37Z</time></trkpt><trkpt lat="43.53560826324443" lon="11.31322857908359"><ele>427.0</ele><time>2026-04-06T14:05:38Z</time></trkpt><trkpt lat="43.53551200115614" lon="11.313098672179358"><ele>427.0</ele><time>2026-04-06T14:05:39Z</time></trkpt><trkpt lat="43.535416762478185" lon="11.312971618982143"><ele>427.0</ele><time>2026-04-06T14:05:40Z</time></trkpt><trkpt lat="43.535319358336096" lon="11.31284365571804"><ele>428.5</ele><time>2026-04-06T14:05:41Z</time></trkpt><trkpt lat="43.53522293640412" lon="11.312716239184235"><ele>430.0</ele><time>2026-04-06T14:05:41.999Z</time></trkpt><trkpt lat="43.535124411245484" lon="11.312584457079998"><ele>431.5</ele><time>2026-04-06T14:05:42.999Z</time></trkpt><trkpt lat="43.53502505074521" lon="11.312454527257465"><ele>433.0</ele><time>2026-04-06T14:05:43.999Z</time></trkpt><trkpt lat="43.53492719774774" lon="11.312323974195534"><ele>433.75</ele><time>2026-04-06T14:05:44.999Z</time></trkpt><trkpt lat="43.534823954902784" lon="11.31218676381864"><ele>434.5</ele><time>2026-04-06T14:05:45.999Z</time></trkpt><trkpt lat="43.53472513460137" lon="11.312045532357082"><ele>435.25</ele><time>2026-04-06T14:05:46.999Z</time></trkpt><trkpt lat="43.534632541385434" lon="11.311894196155409"><ele>436.0</ele><time>2026-04-06T14:05:47.999Z</time></trkpt><trkpt lat="43.53455348366027" lon="11.311733017605366"><ele>436.0</ele><time>2026-04-06T14:05:48.999Z</time></trkpt><trkpt lat="43.5344925488631" lon="11.311550494903972"><ele>436.0</ele><time>2026-04-06T14:05:49.999Z</time></trkpt><trkpt lat="43.534448960931876" lon="11.31135313012361"><ele>436.0</ele><time>2026-04-06T14:05:50.999Z</time></trkpt><trkpt lat="43.534427744856785" lon="11.311156325438164"><ele>436.0</ele><time>2026-04-06T14:05:51.999Z</time></trkpt><trkpt lat="43.53441165332023" lon="11.310954300707305"><ele>433.33333333333337</ele><time>2026-04-06T14:05:52.999Z</time></trkpt><trkpt lat="43.534389576116965" lon="11.310750054230075"><ele>430.66666666666663</ele><time>2026-04-06T14:05:53.999Z</time></trkpt><trkpt lat="43.534351338966694" lon="11.31055083270239"><ele>428.0</ele><time>2026-04-06T14:05:54.999Z</time></trkpt><trkpt lat="43.53428667353164" lon="11.310361446583444"><ele>424.66666666666663</ele><time>2026-04-06T14:05:55.999Z</time></trkpt><trkpt lat="43.53418838782231" lon="11.310200626323631"><ele>421.33333333333337</ele><time>2026-04-06T14:05:56.999Z</time></trkpt><trkpt lat="43.53406787057589" lon="11.310063984134754"><ele>418.0</ele><time>2026-04-06T14:05:57.999Z</time></trkpt><trkpt lat="43.533932227894056" lon="11.309932567439416"><ele>418.0</ele><time>2026-04-06T14:05:58.999Z</time></trkpt><trkpt lat="43.533790131778005" lon="11.30980215149191"><ele>418.0</ele><time>2026-04-06T14:05:59.999Z</time></trkpt><trkpt lat="43.53363985445712" lon="11.30966484451646"><ele>418.0</ele><time>2026-04-06T14:06:00.999Z</time></trkpt><trkpt lat="43.53349615767024" lon="11.309536381778681"><ele>418.0</ele><time>2026-04-06T14:06:01.999Z</time></trkpt><trkpt lat="43.53335818700037" lon="11.309416737407098"><ele>418.0</ele><time>2026-04-06T14:06:02.999Z</time></trkpt><trkpt lat="43.53321912638591" lon="11.309292994408588"><ele>418.0</ele><time>2026-04-06T14:06:03.999Z</time></trkpt><trkpt lat="43.53309366731034" lon="11.309180767235418"><ele>418.0</ele><time>2026-04-06T14:06:04.999Z</time></trkpt><trkpt lat="43.53296937258561" lon="11.309065058297294"><ele>418.0</ele><time>2026-04-06T14:06:05.999Z</time></trkpt><trkpt lat="43.53285222601381" lon="11.308955474341685"><ele>418.0</ele><time>2026-04-06T14:06:06.999Z</time></trkpt><trkpt lat="43.53274268053054" lon="11.308840325170179"><ele>418.0</ele><time>2026-04-06T14:06:07.999Z</time></trkpt><trkpt lat="43.53265438479278" lon="11.308707448358051"><ele>418.0</ele><time>2026-04-06T14:06:08.999Z</time></trkpt><trkpt lat="43.5325858682056" lon="11.308546704078726"><ele>418.0</ele><time>2026-04-06T14:06:09.999Z</time></trkpt><trkpt lat="43.53253574935273" lon="11.308353382035852"><ele>418.0</ele><time>2026-04-06T14:06:10.999Z</time></trkpt><trkpt lat="43.53250265053086" lon="11.308151993313366"><ele>418.0</ele><time>2026-04-06T14:06:11.999Z</time></trkpt><trkpt lat="43.53246488197597" lon="11.307937481625338"><ele>415.6666666666667</ele><time>2026-04-06T14:06:12.999Z</time></trkpt><trkpt lat="43.532413892450506" lon="11.307722691244475"><ele>413.33333333333337</ele><time>2026-04-06T14:06:13.999Z</time></trkpt><trkpt lat="43.53234000639185" lon="11.307517196067112"><ele>411.0</ele><time>2026-04-06T14:06:14.999Z</time></trkpt><trkpt lat="43.53225221380234" lon="11.307321868729254"><ele>409.0</ele><time>2026-04-06T14:06:15.999Z</time></trkpt><trkpt lat="43.5321576331854" lon="11.30713520694657"><ele>407.0</ele><time>2026-04-06T14:06:16.999Z</time></trkpt><trkpt lat="43.53205834210696" lon="11.30694269345243"><ele>405.0</ele><time>2026-04-06T14:06:17.999Z</time></trkpt><trkpt lat="43.53196518116429" lon="11.306757234299116"><ele>410.0</ele><time>2026-04-06T14:06:18.999Z</time></trkpt><trkpt lat="43.531887734402545" lon="11.30656692225879"><ele>415.0</ele><time>2026-04-06T14:06:19.999Z</time></trkpt><trkpt lat="43.531844710780305" lon="11.306366190984026"><ele>420.0</ele><time>2026-04-06T14:06:20.999Z</time></trkpt><trkpt lat="43.53182793786294" lon="11.306153485225233"><ele>420.0</ele><time>2026-04-06T14:06:21.999Z</time></trkpt><trkpt lat="43.53183061284904" lon="11.305932449175765"><ele>420.0</ele><time>2026-04-06T14:06:22.999Z</time></trkpt><trkpt lat="43.53184274628933" lon="11.305715656376297"><ele>420.0</ele><time>2026-04-06T14:06:23.999Z</time></trkpt><trkpt lat="43.531848897986436" lon="11.305503896651791"><ele>418.75</ele><time>2026-04-06T14:06:24.999Z</time></trkpt><trkpt lat="43.53185556791081" lon="11.305300924150286"><ele>417.5</ele><time>2026-04-06T14:06:25.999Z</time></trkpt><trkpt lat="43.531860714224266" lon="11.305108902008643"><ele>416.25</ele><time>2026-04-06T14:06:26.999Z</time></trkpt><trkpt lat="43.53185563569689" lon="11.304925045639418"><ele>415.0</ele><time>2026-04-06T14:06:27.999Z</time></trkpt><trkpt lat="43.53182795053909" lon="11.304755039257202"><ele>411.5</ele><time>2026-04-06T14:06:28.999Z</time></trkpt><trkpt lat="43.53176543078702" lon="11.304606789923021"><ele>408.0</ele><time>2026-04-06T14:06:29.999Z</time></trkpt><trkpt lat="43.531676501079154" lon="11.30447366255909"><ele>404.5</ele><time>2026-04-06T14:06:30.999Z</time></trkpt><trkpt lat="43.531571077598635" lon="11.304364139761391"><ele>401.0</ele><time>2026-04-06T14:06:31.999Z</time></trkpt><trkpt lat="43.5314584905185" lon="11.304262323952385"><ele>401.0</ele><time>2026-04-06T14:06:32.999Z</time></trkpt><trkpt lat="43.53133730246198" lon="11.304162851322152"><ele>401.0</ele><time>2026-04-06T14:06:33.999Z</time></trkpt><trkpt lat="43.531206916954226" lon="11.304064806689368"><ele>401.0</ele><time>2026-04-06T14:06:34.999Z</time></trkpt><trkpt lat="43.53107230239531" lon="11.303979875097527"><ele>401.0</ele><time>2026-04-06T14:06:35.999Z</time></trkpt><trkpt lat="43.53093196973769" lon="11.303913930237531"><ele>398.0</ele><time>2026-04-06T14:06:36.999Z</time></trkpt><trkpt lat="43.530789571394195" lon="11.303864865996923"><ele>395.0</ele><time>2026-04-06T14:06:37.999Z</time></trkpt><trkpt lat="43.53064870967415" lon="11.30383469152523"><ele>392.0</ele><time>2026-04-06T14:06:38.999Z</time></trkpt><trkpt lat="43.53050320539019" lon="11.303824428139121"><ele>389.0</ele><time>2026-04-06T14:06:39.999Z</time></trkpt><trkpt lat="43.53036420572824" lon="11.303822633481932"><ele>388.75</ele><time>2026-04-06T14:06:40.999Z</time></trkpt><trkpt lat="43.53023469599857" lon="11.303818822406908"><ele>388.5</ele><time>2026-04-06T14:06:41.999Z</time></trkpt><trkpt lat="43.530108055043584" lon="11.303818315804023"><ele>388.25</ele><time>2026-04-06T14:06:42.999Z</time></trkpt><trkpt lat="43.529980809282044" lon="11.303839409347392"><ele>388.0</ele><time>2026-04-06T14:06:43.999Z</time></trkpt><trkpt lat="43.529854898850395" lon="11.303880711785544"><ele>387.25</ele><time>2026-04-06T14:06:44.999Z</time></trkpt><trkpt lat="43.52971967816094" lon="11.303915172628113"><ele>386.5</ele><time>2026-04-06T14:06:45.999Z</time></trkpt><trkpt lat="43.52958300651817" lon="11.30392882030416"><ele>385.75</ele><time>2026-04-06T14:06:46.999Z</time></trkpt><trkpt lat="43.52943978766765" lon="11.30391384326581"><ele>385.0</ele><time>2026-04-06T14:06:48Z</time></trkpt><trkpt lat="43.52930073383815" lon="11.303883276119404"><ele>385.0</ele><time>2026-04-06T14:06:49Z</time></trkpt><trkpt lat="43.529164421670174" lon="11.303852443599993"><ele>385.0</ele><time>2026-04-06T14:06:50Z</time></trkpt><trkpt lat="43.529035115087424" lon="11.303823676421917"><ele>385.0</ele><time>2026-04-06T14:06:51Z</time></trkpt><trkpt lat="43.5289097258135" lon="11.303803296219332"><ele>385.0</ele><time>2026-04-06T14:06:52Z</time></trkpt><trkpt lat="43.528787290040064" lon="11.303797876151302"><ele>384.6</ele><time>2026-04-06T14:06:53Z</time></trkpt><trkpt lat="43.528669685599525" lon="11.30382339800523"><ele>384.2</ele><time>2026-04-06T14:06:54Z</time></trkpt><trkpt lat="43.5285621695395" lon="11.303881798309375"><ele>383.79999999999995</ele><time>2026-04-06T14:06:55Z</time></trkpt><trkpt lat="43.52846256675036" lon="11.303941244173979"><ele>383.4</ele><time>2026-04-06T14:06:56Z</time></trkpt><trkpt lat="43.52836903569756" lon="11.303980074937169"><ele>383.0</ele><time>2026-04-06T14:06:57Z</time></trkpt><trkpt lat="43.52826895029455" lon="11.303981631531975"><ele>383.0</ele><time>2026-04-06T14:06:58Z</time></trkpt><trkpt lat="43.528167222561116" lon="11.30393690549174"><ele>383.0</ele><time>2026-04-06T14:06:59Z</time></trkpt><trkpt lat="43.528079112217334" lon="11.303851479040118"><ele>383.0</ele><time>2026-04-06T14:07:00Z</time></trkpt><trkpt lat="43.52801222180449" lon="11.303729753382326"><ele>383.0</ele><time>2026-04-06T14:07:01Z</time></trkpt><trkpt lat="43.52795650845723" lon="11.303594017530749"><ele>383.0</ele><time>2026-04-06T14:07:02Z</time></trkpt><trkpt lat="43.52789877057798" lon="11.303462305712051"><ele>384.2</ele><time>2026-04-06T14:07:03Z</time></trkpt><trkpt lat="43.527841385537464" lon="11.303350380860314"><ele>385.4</ele><time>2026-04-06T14:07:04Z</time></trkpt><trkpt lat="43.527772748673975" lon="11.303263755482437"><ele>386.59999999999997</ele><time>2026-04-06T14:07:05Z</time></trkpt><trkpt lat="43.527684752715295" lon="11.303204005380689"><ele>387.79999999999995</ele><time>2026-04-06T14:07:06Z</time></trkpt><trkpt lat="43.52758564401611" lon="11.303169409439114"><ele>389.0</ele><time>2026-04-06T14:07:07Z</time></trkpt><trkpt lat="43.52749275225962" lon="11.303143519762887"><ele>389.0</ele><time>2026-04-06T14:07:08Z</time></trkpt><trkpt lat="43.527402516565616" lon="11.303105447907916"><ele>389.0</ele><time>2026-04-06T14:07:09Z</time></trkpt><trkpt lat="43.527313151056966" lon="11.303042107657072"><ele>389.0</ele><time>2026-04-06T14:07:10Z</time></trkpt><trkpt lat="43.527220405406446" lon="11.302951168987843"><ele>389.0</ele><time>2026-04-06T14:07:11Z</time></trkpt><trkpt lat="43.52713288175008" lon="11.302833092645992"><ele>389.0</ele><time>2026-04-06T14:07:12Z</time></trkpt><trkpt lat="43.52705006658706" lon="11.302709543427712"><ele>386.5</ele><time>2026-04-06T14:07:13Z</time></trkpt><trkpt lat="43.52697073189814" lon="11.302591776407064"><ele>384.0</ele><time>2026-04-06T14:07:14Z</time></trkpt><trkpt lat="43.52689048977698" lon="11.302476803458957"><ele>381.5</ele><time>2026-04-06T14:07:15Z</time></trkpt><trkpt lat="43.52681331362407" lon="11.302365860764898"><ele>379.0</ele><time>2026-04-06T14:07:16Z</time></trkpt><trkpt lat="43.52674384069365" lon="11.302248705349905"><ele>378.0</ele><time>2026-04-06T14:07:17Z</time></trkpt><trkpt lat="43.52668783195428" lon="11.302110804253447"><ele>377.0</ele><time>2026-04-06T14:07:18Z</time></trkpt><trkpt lat="43.52666870988633" lon="11.301953736851871"><ele>376.0</ele><time>2026-04-06T14:07:19Z</time></trkpt><trkpt lat="43.52665565414426" lon="11.301785483616385"><ele>375.0</ele><time>2026-04-06T14:07:20Z</time></trkpt><trkpt lat="43.5266416592623" lon="11.301607939129065"><ele>375.0</ele><time>2026-04-06T14:07:21Z</time></trkpt><trkpt lat="43.52661679319687" lon="11.301427245046671"><ele>375.0</ele><time>2026-04-06T14:07:22Z</time></trkpt><trkpt lat="43.52660550694342" lon="11.301251775046131"><ele>375.0</ele><time>2026-04-06T14:07:23Z</time></trkpt><trkpt lat="43.52659282342608" lon="11.301084817930068"><ele>375.0</ele><time>2026-04-06T14:07:24Z</time></trkpt><trkpt lat="43.526574222404165" lon="11.300928782773125"><ele>374.4</ele><time>2026-04-06T14:07:25Z</time></trkpt><trkpt lat="43.52654042449678" lon="11.30078205108385"><ele>373.8</ele><time>2026-04-06T14:07:26Z</time></trkpt><trkpt lat="43.526497305044614" lon="11.300638390893189"><ele>373.20000000000005</ele><time>2026-04-06T14:07:27Z</time></trkpt><trkpt lat="43.52644713868133" lon="11.300510799602636"><ele>372.6</ele><time>2026-04-06T14:07:28Z</time></trkpt><trkpt lat="43.52639904185279" lon="11.300388557247336"><ele>372.0</ele><time>2026-04-06T14:07:29Z</time></trkpt><trkpt lat="43.52635667148909" lon="11.300264870653029"><ele>372.0</ele><time>2026-04-06T14:07:30Z</time></trkpt><trkpt lat="43.52631114680276" lon="11.30014541911489"><ele>372.0</ele><time>2026-04-06T14:07:31Z</time></trkpt><trkpt lat="43.52626273591806" lon="11.30002738548403"><ele>372.0</ele><time>2026-04-06T14:07:32Z</time></trkpt><trkpt lat="43.526204572696216" lon="11.299918567896174"><ele>372.0</ele><time>2026-04-06T14:07:33Z</time></trkpt><trkpt lat="43.52612004860661" lon="11.299825655195889"><ele>372.0</ele><time>2026-04-06T14:07:34Z</time></trkpt><trkpt lat="43.526014172468436" lon="11.299770808965617"><ele>367.25</ele><time>2026-04-06T14:07:35Z</time></trkpt><trkpt lat="43.52589403967457" lon="11.299741025136166"><ele>362.5</ele><time>2026-04-06T14:07:36Z</time></trkpt><trkpt lat="43.52578035875405" lon="11.29972097294499"><ele>357.75</ele><time>2026-04-06T14:07:37Z</time></trkpt><trkpt lat="43.52566686019525" lon="11.299704227372356"><ele>353.0</ele><time>2026-04-06T14:07:38Z</time></trkpt><trkpt lat="43.525560685633835" lon="11.299698850270472"><ele>353.0</ele><time>2026-04-06T14:07:39Z</time></trkpt><trkpt lat="43.525454164469465" lon="11.299697516428322"><ele>353.0</ele><time>2026-04-06T14:07:40Z</time></trkpt><trkpt lat="43.525349994648735" lon="11.299710319645015"><ele>353.0</ele><time>2026-04-06T14:07:41Z</time></trkpt><trkpt lat="43.525253026903314" lon="11.299754736634037"><ele>353.0</ele><time>2026-04-06T14:07:42Z</time></trkpt><trkpt lat="43.52516757025535" lon="11.29982749229141"><ele>353.0</ele><time>2026-04-06T14:07:43Z</time></trkpt><trkpt lat="43.52509350348131" lon="11.299922283690853"><ele>355.0</ele><time>2026-04-06T14:07:44Z</time></trkpt><trkpt lat="43.52504157585008" lon="11.300046280142013"><ele>357.0</ele><time>2026-04-06T14:07:45Z</time></trkpt><trkpt lat="43.525005971315366" lon="11.300185085005555"><ele>359.0</ele><time>2026-04-06T14:07:46Z</time></trkpt><trkpt lat="43.52497806136793" lon="11.300327532962973"><ele>361.0</ele><time>2026-04-06T14:07:47Z</time></trkpt><trkpt lat="43.52494503863384" lon="11.300472006242677"><ele>363.0</ele><time>2026-04-06T14:07:48Z</time></trkpt><trkpt lat="43.52490980149979" lon="11.300607243947171"><ele>363.0</ele><time>2026-04-06T14:07:49Z</time></trkpt><trkpt lat="43.52487594826758" lon="11.3007311007751"><ele>363.0</ele><time>2026-04-06T14:07:50Z</time></trkpt><trkpt lat="43.524853334353054" lon="11.300852581760573"><ele>363.0</ele><time>2026-04-06T14:07:51Z</time></trkpt><trkpt lat="43.52484989660369" lon="11.300975363105108"><ele>363.0</ele><time>2026-04-06T14:07:52Z</time></trkpt><trkpt lat="43.52486585918915" lon="11.301104384217682"><ele>363.0</ele><time>2026-04-06T14:07:53Z</time></trkpt><trkpt lat="43.52490256701649" lon="11.301226577092345"><ele>363.0</ele><time>2026-04-06T14:07:54Z</time></trkpt><trkpt lat="43.524961327099525" lon="11.301338783866607"><ele>363.0</ele><time>2026-04-06T14:07:55Z</time></trkpt><trkpt lat="43.525036751745446" lon="11.301429318464454"><ele>363.0</ele><time>2026-04-06T14:07:56Z</time></trkpt><trkpt lat="43.52511298416076" lon="11.301506545810177"><ele>363.0</ele><time>2026-04-06T14:07:56.999Z</time></trkpt><trkpt lat="43.525183843364786" lon="11.301580763732863"><ele>363.0</ele><time>2026-04-06T14:07:57.999Z</time></trkpt><trkpt lat="43.52524759924409" lon="11.301651579937115"><ele>362.1666666666667</ele><time>2026-04-06T14:07:58.999Z</time></trkpt><trkpt lat="43.52530367945185" lon="11.301716771764227"><ele>361.3333333333333</ele><time>2026-04-06T14:07:59.999Z</time></trkpt><trkpt lat="43.525365837642966" lon="11.30178230298774"><ele>360.5</ele><time>2026-04-06T14:08:00.999Z</time></trkpt><trkpt lat="43.52543641919831" lon="11.301856962882544"><ele>359.66666666666663</ele><time>2026-04-06T14:08:01.999Z</time></trkpt><trkpt lat="43.525503496512414" lon="11.301939880037029"><ele>358.8333333333333</ele><time>2026-04-06T14:08:02.999Z</time></trkpt><trkpt lat="43.525561527067595" lon="11.302034828375355"><ele>358.0</ele><time>2026-04-06T14:08:03.999Z</time></trkpt><trkpt lat="43.52560074808785" lon="11.302148512123658"><ele>359.3333333333333</ele><time>2026-04-06T14:08:04.999Z</time></trkpt><trkpt lat="43.525621888976005" lon="11.3022670803228"><ele>360.66666666666663</ele><time>2026-04-06T14:08:05.999Z</time></trkpt><trkpt lat="43.52562400233089" lon="11.302371529543503"><ele>362.0</ele><time>2026-04-06T14:08:06.999Z</time></trkpt><trkpt lat="43.52561370453143" lon="11.302464210131374"><ele>363.3333333333333</ele><time>2026-04-06T14:08:07.999Z</time></trkpt><trkpt lat="43.52554169537979" lon="11.302596234672116"><ele>364.6666666666667</ele><time>2026-04-06T14:08:09.999Z</time></trkpt><trkpt lat="43.52548338612928" lon="11.302629576838829"><ele>366.0</ele><time>2026-04-06T14:08:10.999Z</time></trkpt><trkpt lat="43.525411341599415" lon="11.302622180989623"><ele>363.8</ele><time>2026-04-06T14:08:11.999Z</time></trkpt><trkpt lat="43.52534701660174" lon="11.302574119662378"><ele>361.6</ele><time>2026-04-06T14:08:12.999Z</time></trkpt><trkpt lat="43.52526143631347" lon="11.302636564437748"><ele>359.4</ele><time>2026-04-06T14:08:13.999Z</time></trkpt><trkpt lat="43.52515928652053" lon="11.30268399084296"><ele>357.2</ele><time>2026-04-06T14:08:14.999Z</time></trkpt><trkpt lat="43.52503241234421" lon="11.302714393111694"><ele>355.0</ele><time>2026-04-06T14:08:15.999Z</time></trkpt><trkpt lat="43.524901734311925" lon="11.302734944251178"><ele>355.0</ele><time>2026-04-06T14:08:16.999Z</time></trkpt><trkpt lat="43.52477545630877" lon="11.302772941922196"><ele>355.0</ele><time>2026-04-06T14:08:17.999Z</time></trkpt><trkpt lat="43.524649832267535" lon="11.302843508293348"><ele>355.0</ele><time>2026-04-06T14:08:18.999Z</time></trkpt><trkpt lat="43.52453024546517" lon="11.302951590695626"><ele>355.0</ele><time>2026-04-06T14:08:19.999Z</time></trkpt><trkpt lat="43.52442189715872" lon="11.303081896547873"><ele>352.5</ele><time>2026-04-06T14:08:20.999Z</time></trkpt><trkpt lat="43.52435299988895" lon="11.303228138579119"><ele>350.0</ele><time>2026-04-06T14:08:21.999Z</time></trkpt><trkpt lat="43.524316171491584" lon="11.303386060560726"><ele>347.5</ele><time>2026-04-06T14:08:22.999Z</time></trkpt><trkpt lat="43.5243299739907" lon="11.303535765253475"><ele>345.0</ele><time>2026-04-06T14:08:23.999Z</time></trkpt><trkpt lat="43.52438455887977" lon="11.303653514094247"><ele>345.0</ele><time>2026-04-06T14:08:24.999Z</time></trkpt><trkpt lat="43.524483360820085" lon="11.303745666470991"><ele>345.0</ele><time>2026-04-06T14:08:25.999Z</time></trkpt><trkpt lat="43.52460375042701" lon="11.303821070168794"><ele>345.0</ele><time>2026-04-06T14:08:26.999Z</time></trkpt><trkpt lat="43.52474929704113" lon="11.30389674922487"><ele>345.0</ele><time>2026-04-06T14:08:27.999Z</time></trkpt><trkpt lat="43.524882739785355" lon="11.303980429756097"><ele>345.75</ele><time>2026-04-06T14:08:28.999Z</time></trkpt><trkpt lat="43.525002653344984" lon="11.304083414220418"><ele>346.5</ele><time>2026-04-06T14:08:29.999Z</time></trkpt><trkpt lat="43.525091073325584" lon="11.304237013876572"><ele>347.25</ele><time>2026-04-06T14:08:30.999Z</time></trkpt><trkpt lat="43.525198491878314" lon="11.304408256659656"><ele>348.0</ele><time>2026-04-06T14:08:31.999Z</time></trkpt><trkpt lat="43.525290736620306" lon="11.304626941397952"><ele>350.0</ele><time>2026-04-06T14:08:32.999Z</time></trkpt><trkpt lat="43.525397980771444" lon="11.304866233447852"><ele>352.0</ele><time>2026-04-06T14:08:33.999Z</time></trkpt><trkpt lat="43.52550190613097" lon="11.305089681377178"><ele>354.0</ele><time>2026-04-06T14:08:34.999Z</time></trkpt><trkpt lat="43.52558803102368" lon="11.305284695293617"><ele>354.0</ele><time>2026-04-06T14:08:35.999Z</time></trkpt><trkpt lat="43.525662230362286" lon="11.30546267409032"><ele>354.0</ele><time>2026-04-06T14:08:36.999Z</time></trkpt><trkpt lat="43.52572209636654" lon="11.305628565741213"><ele>354.0</ele><time>2026-04-06T14:08:37.999Z</time></trkpt><trkpt lat="43.525753867416476" lon="11.30577799052173"><ele>354.0</ele><time>2026-04-06T14:08:38.999Z</time></trkpt><trkpt lat="43.525758239159636" lon="11.30592155439274"><ele>352.6</ele><time>2026-04-06T14:08:39.999Z</time></trkpt><trkpt lat="43.52572396477392" lon="11.306047770579834"><ele>351.2</ele><time>2026-04-06T14:08:40.999Z</time></trkpt><trkpt lat="43.52565002725565" lon="11.306159842398223"><ele>349.8</ele><time>2026-04-06T14:08:41.999Z</time></trkpt><trkpt lat="43.52555123047704" lon="11.306231398974687"><ele>348.40000000000003</ele><time>2026-04-06T14:08:42.999Z</time></trkpt><trkpt lat="43.52543219237508" lon="11.306250264639937"><ele>347.0</ele><time>2026-04-06T14:08:43.999Z</time></trkpt><trkpt lat="43.52530135293654" lon="11.306222416681013"><ele>344.0</ele><time>2026-04-06T14:08:44.999Z</time></trkpt><trkpt lat="43.525154324682575" lon="11.306175601613175"><ele>341.0</ele><time>2026-04-06T14:08:45.999Z</time></trkpt><trkpt lat="43.52499711065075" lon="11.306133884048306"><ele>338.0</ele><time>2026-04-06T14:08:46.999Z</time></trkpt><trkpt lat="43.52484207181675" lon="11.306089525288478"><ele>338.0</ele><time>2026-04-06T14:08:47.999Z</time></trkpt><trkpt lat="43.524681480534305" lon="11.30605438382305"><ele>338.0</ele><time>2026-04-06T14:08:48.999Z</time></trkpt><trkpt lat="43.52436430452391" lon="11.305983730851462"><ele>337.75</ele><time>2026-04-06T14:08:50.999Z</time></trkpt><trkpt lat="43.52421321913573" lon="11.305945354024074"><ele>337.5</ele><time>2026-04-06T14:08:51.999Z</time></trkpt><trkpt lat="43.524066571845125" lon="11.305909537888352"><ele>337.25</ele><time>2026-04-06T14:08:52.999Z</time></trkpt><trkpt lat="43.523922518611606" lon="11.305871856992626"><ele>337.0</ele><time>2026-04-06T14:08:54Z</time></trkpt><trkpt lat="43.52377697609245" lon="11.305829860409844"><ele>336.66666666666663</ele><time>2026-04-06T14:08:55Z</time></trkpt><trkpt lat="43.5236288345372" lon="11.305787971519283"><ele>336.3333333333333</ele><time>2026-04-06T14:08:56Z</time></trkpt><trkpt lat="43.52347628094515" lon="11.305747791306038"><ele>336.0</ele><time>2026-04-06T14:08:57Z</time></trkpt><trkpt lat="43.52332208983096" lon="11.305708726993057"><ele>336.0</ele><time>2026-04-06T14:08:58Z</time></trkpt><trkpt lat="43.5231621352104" lon="11.305665470024604"><ele>336.0</ele><time>2026-04-06T14:08:59Z</time></trkpt><trkpt lat="43.52300995283087" lon="11.30560499415074"><ele>336.0</ele><time>2026-04-06T14:09:00Z</time></trkpt><trkpt lat="43.522864518490124" lon="11.305510996127408"><ele>331.0</ele><time>2026-04-06T14:09:01Z</time></trkpt><trkpt lat="43.52271845950157" lon="11.305392133626118"><ele>326.0</ele><time>2026-04-06T14:09:02Z</time></trkpt><trkpt lat="43.52257478002825" lon="11.305283067987213"><ele>321.0</ele><time>2026-04-06T14:09:03Z</time></trkpt><trkpt lat="43.52243132572343" lon="11.3051841999299"><ele>321.0</ele><time>2026-04-06T14:09:04Z</time></trkpt><trkpt lat="43.52228981771335" lon="11.305104533463696"><ele>321.0</ele><time>2026-04-06T14:09:05Z</time></trkpt><trkpt lat="43.52213468219399" lon="11.305045911753673"><ele>321.0</ele><time>2026-04-06T14:09:06Z</time></trkpt><trkpt lat="43.521986516407374" lon="11.30500633081855"><ele>319.75</ele><time>2026-04-06T14:09:07Z</time></trkpt><trkpt lat="43.52184330633989" lon="11.304970602150245"><ele>318.5</ele><time>2026-04-06T14:09:08Z</time></trkpt><trkpt lat="43.52170253827198" lon="11.304963247621375"><ele>317.25</ele><time>2026-04-06T14:09:09Z</time></trkpt><trkpt lat="43.52156759616575" lon="11.304976542961773"><ele>316.0</ele><time>2026-04-06T14:09:10Z</time></trkpt><trkpt lat="43.521441323507325" lon="11.305004663036446"><ele>316.0</ele><time>2026-04-06T14:09:11Z</time></trkpt><trkpt lat="43.52132268147463" lon="11.30503486092331"><ele>316.0</ele><time>2026-04-06T14:09:12Z</time></trkpt><trkpt lat="43.52121909530025" lon="11.305089145297526"><ele>316.0</ele><time>2026-04-06T14:09:13Z</time></trkpt><trkpt lat="43.52112558790033" lon="11.305181448756702"><ele>316.0</ele><time>2026-04-06T14:09:14Z</time></trkpt><trkpt lat="43.521057469906545" lon="11.30530628505698"><ele>314.25</ele><time>2026-04-06T14:09:15Z</time></trkpt><trkpt lat="43.521016249291975" lon="11.30546450816886"><ele>312.5</ele><time>2026-04-06T14:09:16Z</time></trkpt><trkpt lat="43.52100411061435" lon="11.305637475925703"><ele>310.75</ele><time>2026-04-06T14:09:17Z</time></trkpt><trkpt lat="43.52101183413419" lon="11.305831964365785"><ele>309.0</ele><time>2026-04-06T14:09:18Z</time></trkpt><trkpt lat="43.52103992357297" lon="11.306046904953437"><ele>309.0</ele><time>2026-04-06T14:09:19Z</time></trkpt><trkpt lat="43.521062415158006" lon="11.30624519025411"><ele>309.0</ele><time>2026-04-06T14:09:20Z</time></trkpt><trkpt lat="43.52108126857789" lon="11.306430496310238"><ele>309.0</ele><time>2026-04-06T14:09:21Z</time></trkpt><trkpt lat="43.52109511601427" lon="11.306600984641843"><ele>309.0</ele><time>2026-04-06T14:09:22Z</time></trkpt><trkpt lat="43.52110836631493" lon="11.306766624784972"><ele>308.4</ele><time>2026-04-06T14:09:23Z</time></trkpt><trkpt lat="43.52112237463948" lon="11.306926089369378"><ele>307.79999999999995</ele><time>2026-04-06T14:09:24Z</time></trkpt><trkpt lat="43.52113623845444" lon="11.307082519796841"><ele>307.20000000000005</ele><time>2026-04-06T14:09:25Z</time></trkpt><trkpt lat="43.52114172651724" lon="11.30722100931463"><ele>306.6</ele><time>2026-04-06T14:09:26Z</time></trkpt><trkpt lat="43.521119185132235" lon="11.307348611511186"><ele>306.0</ele><time>2026-04-06T14:09:27Z</time></trkpt><trkpt lat="43.52106304024934" lon="11.307456324266724"><ele>306.0</ele><time>2026-04-06T14:09:28Z</time></trkpt><trkpt lat="43.52098406319661" lon="11.307539007035404"><ele>306.0</ele><time>2026-04-06T14:09:29Z</time></trkpt><trkpt lat="43.52089489610283" lon="11.307588876000368"><ele>306.0</ele><time>2026-04-06T14:09:30Z</time></trkpt><trkpt lat="43.52079976759662" lon="11.30759848303877"><ele>306.0</ele><time>2026-04-06T14:09:31Z</time></trkpt><trkpt lat="43.52070618049196" lon="11.307591294059671"><ele>306.0</ele><time>2026-04-06T14:09:32Z</time></trkpt><trkpt lat="43.520619920227766" lon="11.30761080773585"><ele>306.0</ele><time>2026-04-06T14:09:33Z</time></trkpt><trkpt lat="43.520549805174056" lon="11.307689119239601"><ele>306.0</ele><time>2026-04-06T14:09:34Z</time></trkpt><trkpt lat="43.5204950089705" lon="11.307797329312129"><ele>306.0</ele><time>2026-04-06T14:09:35Z</time></trkpt><trkpt lat="43.52045115104883" lon="11.307929009585884"><ele>306.0</ele><time>2026-04-06T14:09:36Z</time></trkpt><trkpt lat="43.520406789604735" lon="11.308066541710259"><ele>306.0</ele><time>2026-04-06T14:09:37Z</time></trkpt><trkpt lat="43.52035769036975" lon="11.308204435188475"><ele>303.8</ele><time>2026-04-06T14:09:38Z</time></trkpt><trkpt lat="43.52030473312338" lon="11.308343264786936"><ele>301.6</ele><time>2026-04-06T14:09:39Z</time></trkpt><trkpt lat="43.520251969969344" lon="11.308476016793573"><ele>299.4</ele><time>2026-04-06T14:09:40Z</time></trkpt><trkpt lat="43.52020416252189" lon="11.308599842013873"><ele>297.2</ele><time>2026-04-06T14:09:41Z</time></trkpt><trkpt lat="43.52015785697401" lon="11.308720326064297"><ele>295.0</ele><time>2026-04-06T14:09:42Z</time></trkpt><trkpt lat="43.520116574048906" lon="11.308833049424578"><ele>294.6</ele><time>2026-04-06T14:09:43Z</time></trkpt><trkpt lat="43.52008714524477" lon="11.308953312168358"><ele>294.2</ele><time>2026-04-06T14:09:44Z</time></trkpt><trkpt lat="43.520089111461154" lon="11.309089577052564"><ele>293.8</ele><time>2026-04-06T14:09:45Z</time></trkpt><trkpt lat="43.52011816577109" lon="11.309237882941963"><ele>293.4</ele><time>2026-04-06T14:09:46Z</time></trkpt><trkpt lat="43.52015731648505" lon="11.309395476924461"><ele>293.0</ele><time>2026-04-06T14:09:47Z</time></trkpt><trkpt lat="43.52018763237916" lon="11.309560049160025"><ele>293.0</ele><time>2026-04-06T14:09:48Z</time></trkpt><trkpt lat="43.52019717723459" lon="11.309738512273306"><ele>293.0</ele><time>2026-04-06T14:09:49Z</time></trkpt><trkpt lat="43.520193435267686" lon="11.309917608291181"><ele>293.0</ele><time>2026-04-06T14:09:50Z</time></trkpt><trkpt lat="43.52018954402419" lon="11.310095239203186"><ele>293.0</ele><time>2026-04-06T14:09:51Z</time></trkpt><trkpt lat="43.520192741621045" lon="11.310266082833664"><ele>291.5</ele><time>2026-04-06T14:09:52Z</time></trkpt><trkpt lat="43.520195515530766" lon="11.310439473063303"><ele>290.0</ele><time>2026-04-06T14:09:53Z</time></trkpt><trkpt lat="43.520195990699364" lon="11.310606618536601"><ele>288.5</ele><time>2026-04-06T14:09:54Z</time></trkpt><trkpt lat="43.520194125602124" lon="11.310774925543486"><ele>287.0</ele><time>2026-04-06T14:09:55Z</time></trkpt><trkpt lat="43.520192493528725" lon="11.310946479850054"><ele>286.8</ele><time>2026-04-06T14:09:56Z</time></trkpt><trkpt lat="43.520192965307835" lon="11.311110218273717"><ele>286.6</ele><time>2026-04-06T14:09:57Z</time></trkpt><trkpt lat="43.520192491040184" lon="11.311264692642807"><ele>286.40000000000003</ele><time>2026-04-06T14:09:58Z</time></trkpt><trkpt lat="43.520185703665916" lon="11.311406196335378"><ele>286.2</ele><time>2026-04-06T14:09:59Z</time></trkpt><trkpt lat="43.52015807916277" lon="11.311538957750697"><ele>286.0</ele><time>2026-04-06T14:10:00Z</time></trkpt><trkpt lat="43.5201073718719" lon="11.311651968676653"><ele>286.5</ele><time>2026-04-06T14:10:01Z</time></trkpt><trkpt lat="43.52002928646484" lon="11.311755554594102"><ele>287.0</ele><time>2026-04-06T14:10:02Z</time></trkpt><trkpt lat="43.51992785947956" lon="11.311833472592655"><ele>287.5</ele><time>2026-04-06T14:10:03Z</time></trkpt><trkpt lat="43.519815454464" lon="11.31185608911448"><ele>288.0</ele><time>2026-04-06T14:10:04Z</time></trkpt><trkpt lat="43.51970414130457" lon="11.311842644970152"><ele>288.0</ele><time>2026-04-06T14:10:05Z</time></trkpt><trkpt lat="43.51959858870606" lon="11.311798156494236"><ele>288.0</ele><time>2026-04-06T14:10:06Z</time></trkpt><trkpt lat="43.51949892062929" lon="11.311757944834548"><ele>288.0</ele><time>2026-04-06T14:10:07Z</time></trkpt><trkpt lat="43.519406436054325" lon="11.311722791641452"><ele>288.0</ele><time>2026-04-06T14:10:08Z</time></trkpt><trkpt lat="43.5193162100372" lon="11.311696751497008"><ele>288.0</ele><time>2026-04-06T14:10:09Z</time></trkpt><trkpt lat="43.519227960611275" lon="11.311670167643143"><ele>287.4</ele><time>2026-04-06T14:10:10Z</time></trkpt><trkpt lat="43.519143323341275" lon="11.311640542282078"><ele>286.8</ele><time>2026-04-06T14:10:11Z</time></trkpt><trkpt lat="43.51906113834567" lon="11.31161171874026"><ele>286.2</ele><time>2026-04-06T14:10:12Z</time></trkpt><trkpt lat="43.518988631870506" lon="11.311586248410462"><ele>285.6</ele><time>2026-04-06T14:10:13Z</time></trkpt><trkpt lat="43.518920966591054" lon="11.311568436546862"><ele>285.0</ele><time>2026-04-06T14:10:14Z</time></trkpt><trkpt lat="43.518786112670234" lon="11.311557730130275"><ele>285.2</ele><time>2026-04-06T14:10:15.999Z</time></trkpt><trkpt lat="43.51869779569533" lon="11.311575151807391"><ele>285.4</ele><time>2026-04-06T14:10:16.999Z</time></trkpt><trkpt lat="43.51859651813482" lon="11.311608681594448"><ele>285.6</ele><time>2026-04-06T14:10:17.999Z</time></trkpt><trkpt lat="43.51849547740322" lon="11.311648772835193"><ele>285.8</ele><time>2026-04-06T14:10:18.999Z</time></trkpt><trkpt lat="43.518394289901536" lon="11.311695347312186"><ele>286.0</ele><time>2026-04-06T14:10:19.999Z</time></trkpt><trkpt lat="43.518298876400074" lon="11.311738026553746"><ele>286.0</ele><time>2026-04-06T14:10:20.999Z</time></trkpt><trkpt lat="43.518209976051395" lon="11.311781952131232"><ele>286.0</ele><time>2026-04-06T14:10:21.999Z</time></trkpt><trkpt lat="43.518118229297684" lon="11.311824069961892"><ele>286.0</ele><time>2026-04-06T14:10:22.999Z</time></trkpt><trkpt lat="43.51802052544633" lon="11.311865805130385"><ele>286.0</ele><time>2026-04-06T14:10:23.999Z</time></trkpt><trkpt lat="43.51792694021435" lon="11.311904604963248"><ele>286.0</ele><time>2026-04-06T14:10:24.999Z</time></trkpt><trkpt lat="43.51782520409667" lon="11.311947570707478"><ele>285.5</ele><time>2026-04-06T14:10:25.999Z</time></trkpt><trkpt lat="43.51771497979092" lon="11.311993358852746"><ele>285.0</ele><time>2026-04-06T14:10:26.999Z</time></trkpt><trkpt lat="43.51759603200271" lon="11.312045655704376"><ele>284.5</ele><time>2026-04-06T14:10:27.999Z</time></trkpt><trkpt lat="43.51747254815063" lon="11.312102004017335"><ele>284.0</ele><time>2026-04-06T14:10:28.999Z</time></trkpt><trkpt lat="43.517353462520816" lon="11.312152486748667"><ele>284.0</ele><time>2026-04-06T14:10:29.999Z</time></trkpt><trkpt lat="43.51723897207561" lon="11.312199640229542"><ele>284.0</ele><time>2026-04-06T14:10:30.999Z</time></trkpt><trkpt lat="43.51712909799966" lon="11.31224885265713"><ele>284.0</ele><time>2026-04-06T14:10:31.999Z</time></trkpt><trkpt lat="43.51702041409295" lon="11.312295447683724"><ele>284.0</ele><time>2026-04-06T14:10:32.999Z</time></trkpt><trkpt lat="43.516910955108614" lon="11.312343617542151"><ele>284.8</ele><time>2026-04-06T14:10:33.999Z</time></trkpt><trkpt lat="43.516802489204" lon="11.312397135714043"><ele>285.59999999999997</ele><time>2026-04-06T14:10:34.999Z</time></trkpt><trkpt lat="43.51670168732429" lon="11.312469852696823"><ele>286.4</ele><time>2026-04-06T14:10:35.999Z</time></trkpt><trkpt lat="43.51662541625318" lon="11.312573664989833"><ele>287.2</ele><time>2026-04-06T14:10:36.999Z</time></trkpt><trkpt lat="43.51656963410169" lon="11.312700421287891"><ele>288.0</ele><time>2026-04-06T14:10:37.999Z</time></trkpt><trkpt lat="43.51653606278931" lon="11.312844479255073"><ele>288.0</ele><time>2026-04-06T14:10:38.999Z</time></trkpt><trkpt lat="43.51651604153634" lon="11.312999083826236"><ele>288.0</ele><time>2026-04-06T14:10:39.999Z</time></trkpt><trkpt lat="43.51650992998801" lon="11.313157623233046"><ele>288.0</ele><time>2026-04-06T14:10:40.999Z</time></trkpt><trkpt lat="43.516511521960105" lon="11.313314357281651"><ele>288.0</ele><time>2026-04-06T14:10:41.999Z</time></trkpt><trkpt lat="43.516521888637286" lon="11.313460661419859"><ele>288.0</ele><time>2026-04-06T14:10:42.999Z</time></trkpt><trkpt lat="43.516532059790535" lon="11.31359808190729"><ele>289.6</ele><time>2026-04-06T14:10:43.999Z</time></trkpt><trkpt lat="43.516536111707815" lon="11.313739256852138"><ele>291.20000000000005</ele><time>2026-04-06T14:10:44.999Z</time></trkpt><trkpt lat="43.51654187154579" lon="11.313886680291061"><ele>292.8</ele><time>2026-04-06T14:10:45.999Z</time></trkpt><trkpt lat="43.516552739667496" lon="11.314035341514234"><ele>294.40000000000003</ele><time>2026-04-06T14:10:46.999Z</time></trkpt><trkpt lat="43.51656834771858" lon="11.31417745906232"><ele>296.0</ele><time>2026-04-06T14:10:47.999Z</time></trkpt><trkpt lat="43.516579991464255" lon="11.31430456396295"><ele>296.0</ele><time>2026-04-06T14:10:48.999Z</time></trkpt><trkpt lat="43.51658802947509" lon="11.314417149934373"><ele>296.0</ele><time>2026-04-06T14:10:49.999Z</time></trkpt><trkpt lat="43.516596791307165" lon="11.314540080614323"><ele>296.0</ele><time>2026-04-06T14:10:50.999Z</time></trkpt><trkpt lat="43.51659347238621" lon="11.31467688930004"><ele>296.0</ele><time>2026-04-06T14:10:51.999Z</time></trkpt><trkpt lat="43.51657237186094" lon="11.314826800667266"><ele>296.0</ele><time>2026-04-06T14:10:52.999Z</time></trkpt><trkpt lat="43.516530536771306" lon="11.314985639362867"><ele>296.0</ele><time>2026-04-06T14:10:53.999Z</time></trkpt><trkpt lat="43.516478365796615" lon="11.315151157654512"><ele>296.0</ele><time>2026-04-06T14:10:54.999Z</time></trkpt><trkpt lat="43.516415434750385" lon="11.315299930421295"><ele>296.0</ele><time>2026-04-06T14:10:55.999Z</time></trkpt><trkpt lat="43.51635187155039" lon="11.315436747459241"><ele>296.0</ele><time>2026-04-06T14:10:56.999Z</time></trkpt><trkpt lat="43.51629128516666" lon="11.315569688286136"><ele>295.0</ele><time>2026-04-06T14:10:57.999Z</time></trkpt><trkpt lat="43.51621835016111" lon="11.31569668665374"><ele>294.0</ele><time>2026-04-06T14:10:58.999Z</time></trkpt><trkpt lat="43.51612610234358" lon="11.315808444884397"><ele>293.0</ele><time>2026-04-06T14:11:00Z</time></trkpt><trkpt lat="43.516028977821954" lon="11.315910952914233"><ele>292.0</ele><time>2026-04-06T14:11:01Z</time></trkpt><trkpt lat="43.51592869706414" lon="11.316015812703647"><ele>292.0</ele><time>2026-04-06T14:11:02Z</time></trkpt><trkpt lat="43.51583050690819" lon="11.316128753462573"><ele>292.0</ele><time>2026-04-06T14:11:03Z</time></trkpt><trkpt lat="43.51573075077592" lon="11.316261561414876"><ele>292.0</ele><time>2026-04-06T14:11:04Z</time></trkpt><trkpt lat="43.515641633503414" lon="11.316394225636751"><ele>292.0</ele><time>2026-04-06T14:11:05Z</time></trkpt><trkpt lat="43.515560402608024" lon="11.316537004839617"><ele>294.0</ele><time>2026-04-06T14:11:06Z</time></trkpt><trkpt lat="43.51549980104496" lon="11.316707576169012"><ele>296.0</ele><time>2026-04-06T14:11:07Z</time></trkpt><trkpt lat="43.515464753244" lon="11.31688862932024"><ele>298.0</ele><time>2026-04-06T14:11:08Z</time></trkpt><trkpt lat="43.515440581337074" lon="11.317055375958367"><ele>300.0</ele><time>2026-04-06T14:11:09Z</time></trkpt><trkpt lat="43.51541132221345" lon="11.317204888161505"><ele>298.25</ele><time>2026-04-06T14:11:10Z</time></trkpt><trkpt lat="43.51537217974748" lon="11.317347382559722"><ele>296.5</ele><time>2026-04-06T14:11:11Z</time></trkpt><trkpt lat="43.515318100169374" lon="11.317485663017267"><ele>294.75</ele><time>2026-04-06T14:11:12Z</time></trkpt><trkpt lat="43.51524977746778" lon="11.317617649821178"><ele>293.0</ele><time>2026-04-06T14:11:13Z</time></trkpt><trkpt lat="43.515169927003505" lon="11.317736387984086"><ele>293.0</ele><time>2026-04-06T14:11:14Z</time></trkpt><trkpt lat="43.515071601748765" lon="11.317842581055206"><ele>293.0</ele><time>2026-04-06T14:11:15Z</time></trkpt><trkpt lat="43.514963337466114" lon="11.317932009516507"><ele>293.0</ele><time>2026-04-06T14:11:16Z</time></trkpt><trkpt lat="43.51485442110705" lon="11.318008039083608"><ele>293.0</ele><time>2026-04-06T14:11:17Z</time></trkpt><trkpt lat="43.5147518898508" lon="11.318095245176188"><ele>293.4</ele><time>2026-04-06T14:11:18Z</time></trkpt><trkpt lat="43.51467188347093" lon="11.318204681331093"><ele>293.8</ele><time>2026-04-06T14:11:19Z</time></trkpt><trkpt lat="43.51461485111925" lon="11.318333798183795"><ele>294.2</ele><time>2026-04-06T14:11:20Z</time></trkpt><trkpt lat="43.514557324454834" lon="11.318456119421073"><ele>294.6</ele><time>2026-04-06T14:11:21Z</time></trkpt><trkpt lat="43.51449307380984" lon="11.318575148326081"><ele>295.0</ele><time>2026-04-06T14:11:22Z</time></trkpt><trkpt lat="43.5144291698244" lon="11.318695658089522"><ele>295.0</ele><time>2026-04-06T14:11:23Z</time></trkpt><trkpt lat="43.51436533768259" lon="11.318816794080409"><ele>295.0</ele><time>2026-04-06T14:11:24Z</time></trkpt><trkpt lat="43.51429756553844" lon="11.318944424093324"><ele>295.0</ele><time>2026-04-06T14:11:25Z</time></trkpt><trkpt lat="43.51422373434331" lon="11.319080655596355"><ele>295.0</ele><time>2026-04-06T14:11:26Z</time></trkpt><trkpt lat="43.51414309656822" lon="11.319228489796789"><ele>295.75</ele><time>2026-04-06T14:11:27Z</time></trkpt><trkpt lat="43.51406236703621" lon="11.319391072067063"><ele>296.5</ele><time>2026-04-06T14:11:28Z</time></trkpt><trkpt lat="43.513986468590716" lon="11.319540400181157"><ele>297.25</ele><time>2026-04-06T14:11:29Z</time></trkpt><trkpt lat="43.51391331232808" lon="11.319686095859526"><ele>298.0</ele><time>2026-04-06T14:11:30Z</time></trkpt><trkpt lat="43.513845196720176" lon="11.31983768148858"><ele>298.25</ele><time>2026-04-06T14:11:31Z</time></trkpt><trkpt lat="43.51377963437489" lon="11.319990253465988"><ele>298.5</ele><time>2026-04-06T14:11:32Z</time></trkpt><trkpt lat="43.51370346785601" lon="11.320133484619683"><ele>298.75</ele><time>2026-04-06T14:11:33Z</time></trkpt><trkpt lat="43.51361849491269" lon="11.32026878997544"><ele>299.0</ele><time>2026-04-06T14:11:34Z</time></trkpt><trkpt lat="43.51352016436308" lon="11.320391611382279"><ele>299.75</ele><time>2026-04-06T14:11:35Z</time></trkpt><trkpt lat="43.513407950642325" lon="11.320493733070503"><ele>300.5</ele><time>2026-04-06T14:11:36Z</time></trkpt><trkpt lat="43.51329138335891" lon="11.320584334887835"><ele>301.25</ele><time>2026-04-06T14:11:37Z</time></trkpt><trkpt lat="43.51317195630965" lon="11.320668980426976"><ele>302.0</ele><time>2026-04-06T14:11:38Z</time></trkpt><trkpt lat="43.51305537669111" lon="11.320759460847574"><ele>302.0</ele><time>2026-04-06T14:11:39Z</time></trkpt><trkpt lat="43.51293816959101" lon="11.32085423164391"><ele>302.0</ele><time>2026-04-06T14:11:40Z</time></trkpt><trkpt lat="43.5128266057995" lon="11.3209462540925"><ele>302.0</ele><time>2026-04-06T14:11:41Z</time></trkpt><trkpt lat="43.512725682403335" lon="11.321027789444505"><ele>302.0</ele><time>2026-04-06T14:11:42Z</time></trkpt><trkpt lat="43.51262620309479" lon="11.321099319394115"><ele>301.0</ele><time>2026-04-06T14:11:43Z</time></trkpt><trkpt lat="43.512517300185905" lon="11.321160993758642"><ele>300.0</ele><time>2026-04-06T14:11:44Z</time></trkpt><trkpt lat="43.512397000713165" lon="11.32121487889794"><ele>299.0</ele><time>2026-04-06T14:11:45Z</time></trkpt><trkpt lat="43.51226946709657" lon="11.321259553752025"><ele>298.0</ele><time>2026-04-06T14:11:46Z</time></trkpt><trkpt lat="43.51215113506842" lon="11.321301950589769"><ele>299.0</ele><time>2026-04-06T14:11:47Z</time></trkpt><trkpt lat="43.51204004598282" lon="11.321342333015085"><ele>300.0</ele><time>2026-04-06T14:11:48Z</time></trkpt><trkpt lat="43.511930155649644" lon="11.321388852957533"><ele>301.0</ele><time>2026-04-06T14:11:49Z</time></trkpt><trkpt lat="43.51181625487607" lon="11.32145314066055"><ele>302.0</ele><time>2026-04-06T14:11:50Z</time></trkpt><trkpt lat="43.5117045503301" lon="11.321536992912595"><ele>302.0</ele><time>2026-04-06T14:11:51Z</time></trkpt><trkpt lat="43.511591529865385" lon="11.321644806475765"><ele>302.0</ele><time>2026-04-06T14:11:52Z</time></trkpt><trkpt lat="43.51148291425449" lon="11.32176675870647"><ele>302.0</ele><time>2026-04-06T14:11:53Z</time></trkpt><trkpt lat="43.511367390808225" lon="11.321904518806596"><ele>302.0</ele><time>2026-04-06T14:11:54Z</time></trkpt><trkpt lat="43.51125465534087" lon="11.322040961313418"><ele>301.33333333333337</ele><time>2026-04-06T14:11:55Z</time></trkpt><trkpt lat="43.5111410765796" lon="11.322183288609374"><ele>300.6666666666667</ele><time>2026-04-06T14:11:56Z</time></trkpt><trkpt lat="43.51102998198261" lon="11.32232058150662"><ele>300.0</ele><time>2026-04-06T14:11:57Z</time></trkpt><trkpt lat="43.51091836283002" lon="11.322458515410224"><ele>300.0</ele><time>2026-04-06T14:11:58Z</time></trkpt><trkpt lat="43.51080801097783" lon="11.322593263373397"><ele>300.0</ele><time>2026-04-06T14:11:59Z</time></trkpt><trkpt lat="43.51069404501864" lon="11.322728879642407"><ele>300.0</ele><time>2026-04-06T14:12:00Z</time></trkpt><trkpt lat="43.51057984140019" lon="11.322859325006581"><ele>300.0</ele><time>2026-04-06T14:12:01Z</time></trkpt><trkpt lat="43.510466177743304" lon="11.322991160436665"><ele>300.5</ele><time>2026-04-06T14:12:02Z</time></trkpt><trkpt lat="43.51035805771175" lon="11.323125639974808"><ele>301.0</ele><time>2026-04-06T14:12:03Z</time></trkpt><trkpt lat="43.510253226991566" lon="11.323259093610071"><ele>301.5</ele><time>2026-04-06T14:12:04Z</time></trkpt><trkpt lat="43.510148557700916" lon="11.323379987777127"><ele>302.0</ele><time>2026-04-06T14:12:05Z</time></trkpt><trkpt lat="43.51003314409066" lon="11.323484411644726"><ele>302.0</ele><time>2026-04-06T14:12:06Z</time></trkpt><trkpt lat="43.50990917298939" lon="11.323561231413917"><ele>302.0</ele><time>2026-04-06T14:12:07Z</time></trkpt><trkpt lat="43.50978533171505" lon="11.323615547730428"><ele>302.0</ele><time>2026-04-06T14:12:08Z</time></trkpt><trkpt lat="43.50966371267714" lon="11.323662070338065"><ele>302.0</ele><time>2026-04-06T14:12:09Z</time></trkpt><trkpt lat="43.50954415177589" lon="11.323697122277833"><ele>301.5</ele><time>2026-04-06T14:12:10Z</time></trkpt><trkpt lat="43.509422330010935" lon="11.32371846059595"><ele>301.0</ele><time>2026-04-06T14:12:11Z</time></trkpt><trkpt lat="43.509298537643815" lon="11.323723083335532"><ele>300.5</ele><time>2026-04-06T14:12:12Z</time></trkpt><trkpt lat="43.50917690624749" lon="11.323715794171804"><ele>300.0</ele><time>2026-04-06T14:12:13Z</time></trkpt><trkpt lat="43.50906126963199" lon="11.32370520241115"><ele>300.0</ele><time>2026-04-06T14:12:14Z</time></trkpt><trkpt lat="43.508959512546824" lon="11.323697567797657"><ele>300.0</ele><time>2026-04-06T14:12:15Z</time></trkpt><trkpt lat="43.50884718979471" lon="11.323699791271244"><ele>300.0</ele><time>2026-04-06T14:12:16Z</time></trkpt><trkpt lat="43.50872976374494" lon="11.32372093654032"><ele>300.0</ele><time>2026-04-06T14:12:17Z</time></trkpt><trkpt lat="43.50861461526198" lon="11.323760157423132"><ele>300.0</ele><time>2026-04-06T14:12:18Z</time></trkpt><trkpt lat="43.50849832663376" lon="11.323827260525697"><ele>300.0</ele><time>2026-04-06T14:12:19Z</time></trkpt><trkpt lat="43.50838507818334" lon="11.323927634141942"><ele>300.0</ele><time>2026-04-06T14:12:20Z</time></trkpt><trkpt lat="43.50827943265463" lon="11.324039561581007"><ele>300.0</ele><time>2026-04-06T14:12:21Z</time></trkpt><trkpt lat="43.508183303690025" lon="11.32417597006058"><ele>300.75</ele><time>2026-04-06T14:12:22Z</time></trkpt><trkpt lat="43.50809457739335" lon="11.324317517392519"><ele>301.5</ele><time>2026-04-06T14:12:23Z</time></trkpt><trkpt lat="43.50801711422872" lon="11.32446478913329"><ele>302.25</ele><time>2026-04-06T14:12:24Z</time></trkpt><trkpt lat="43.507946101711106" lon="11.32462621781674"><ele>303.0</ele><time>2026-04-06T14:12:25Z</time></trkpt><trkpt lat="43.5078846991556" lon="11.324783823176132"><ele>303.0</ele><time>2026-04-06T14:12:26Z</time></trkpt><trkpt lat="43.50782811943067" lon="11.32495190406479"><ele>303.0</ele><time>2026-04-06T14:12:27Z</time></trkpt><trkpt lat="43.50777776877218" lon="11.325126411494166"><ele>303.0</ele><time>2026-04-06T14:12:27.999Z</time></trkpt><trkpt lat="43.507730647144534" lon="11.325298188613653"><ele>303.0</ele><time>2026-04-06T14:12:28.999Z</time></trkpt><trkpt lat="43.50768749906546" lon="11.325463557434334"><ele>303.5</ele><time>2026-04-06T14:12:29.999Z</time></trkpt><trkpt lat="43.50764694144895" lon="11.325622537864959"><ele>304.0</ele><time>2026-04-06T14:12:30.999Z</time></trkpt><trkpt lat="43.50761009709081" lon="11.32577704019354"><ele>304.5</ele><time>2026-04-06T14:12:31.999Z</time></trkpt><trkpt lat="43.50757820123798" lon="11.325927263463905"><ele>305.0</ele><time>2026-04-06T14:12:32.999Z</time></trkpt><trkpt lat="43.50755381360278" lon="11.326074376041857"><ele>305.0</ele><time>2026-04-06T14:12:33.999Z</time></trkpt><trkpt lat="43.50753140376666" lon="11.326217684977898"><ele>305.0</ele><time>2026-04-06T14:12:34.999Z</time></trkpt><trkpt lat="43.50750793717109" lon="11.326345861542736"><ele>305.0</ele><time>2026-04-06T14:12:35.999Z</time></trkpt><trkpt lat="43.507488744763855" lon="11.326452336757757"><ele>305.0</ele><time>2026-04-06T14:12:36.999Z</time></trkpt><trkpt lat="43.507468058806" lon="11.326553769474561"><ele>305.0</ele><time>2026-04-06T14:12:37.999Z</time></trkpt><trkpt lat="43.50744641561091" lon="11.326646373034395"><ele>305.0</ele><time>2026-04-06T14:12:38.999Z</time></trkpt><trkpt lat="43.50742354261598" lon="11.326729472534167"><ele>305.2</ele><time>2026-04-06T14:12:39.999Z</time></trkpt><trkpt lat="43.507388871982776" lon="11.326846667214287"><ele>305.4</ele><time>2026-04-06T14:12:41.999Z</time></trkpt><trkpt lat="43.50744825561837" lon="11.326939129581707"><ele>305.6</ele><time>2026-04-06T14:12:44.999Z</time></trkpt><trkpt lat="43.50755798729656" lon="11.326986487874523"><ele>305.8</ele><time>2026-04-06T14:12:46.999Z</time></trkpt><trkpt lat="43.507618372853145" lon="11.327012411588997"><ele>306.0</ele><time>2026-04-06T14:12:47.999Z</time></trkpt><trkpt lat="43.50773142593932" lon="11.327077340538082"><ele>306.0</ele><time>2026-04-06T14:12:49.999Z</time></trkpt><trkpt lat="43.50783365072494" lon="11.327127542868185"><ele>306.0</ele><time>2026-04-06T14:12:51.999Z</time></trkpt><trkpt lat="43.50789833548515" lon="11.32714876042449"><ele>306.0</ele><time>2026-04-06T14:12:52.999Z</time></trkpt><trkpt lat="43.50796683488049" lon="11.327218379192146"><ele>306.0</ele><time>2026-04-06T14:12:53.999Z</time></trkpt><trkpt lat="43.50803800757743" lon="11.327249220199718"><ele>306.0</ele><time>2026-04-06T14:12:54.999Z</time></trkpt><trkpt lat="43.508131040755295" lon="11.327328181983612"><ele>306.0</ele><time>2026-04-06T14:12:56.999Z</time></trkpt><trkpt lat="43.508223017151295" lon="11.327437621468535"><ele>307.6</ele><time>2026-04-06T14:12:58.999Z</time></trkpt><trkpt lat="43.50836250909978" lon="11.327509641428357"><ele>309.20000000000005</ele><time>2026-04-06T14:13:00.999Z</time></trkpt><trkpt lat="43.50843771091805" lon="11.32754526813255"><ele>310.79999999999995</ele><time>2026-04-06T14:13:01.999Z</time></trkpt><trkpt lat="43.50850431583638" lon="11.32757587978216"><ele>312.4</ele><time>2026-04-06T14:13:02.999Z</time></trkpt><trkpt lat="43.508588837479564" lon="11.327585776391965"><ele>314.0</ele><time>2026-04-06T14:13:04.999Z</time></trkpt><trkpt lat="43.50866590936571" lon="11.32748707086727"><ele>314.0</ele><time>2026-04-06T14:13:07Z</time></trkpt><trkpt lat="43.50864645193779" lon="11.327311418448263"><ele>314.0</ele><time>2026-04-06T14:13:09Z</time></trkpt><trkpt lat="43.508583978413924" lon="11.327223009803026"><ele>314.0</ele><time>2026-04-06T14:13:10Z</time></trkpt><trkpt lat="43.508481800967004" lon="11.32714684947837"><ele>314.0</ele><time>2026-04-06T14:13:11Z</time></trkpt><trkpt lat="43.508408388277445" lon="11.327068902720999"><ele>314.0</ele><time>2026-04-06T14:13:12Z</time></trkpt><trkpt lat="43.50835407715483" lon="11.326998711629454"><ele>316.79999999999995</ele><time>2026-04-06T14:13:13Z</time></trkpt><trkpt lat="43.508307661345505" lon="11.326935085130964"><ele>319.59999999999997</ele><time>2026-04-06T14:13:14Z</time></trkpt><trkpt lat="43.50826254766994" lon="11.326868887457472"><ele>322.4</ele><time>2026-04-06T14:13:15Z</time></trkpt><trkpt lat="43.50819096961849" lon="11.326741873219564"><ele>325.2</ele><time>2026-04-06T14:13:17Z</time></trkpt><trkpt lat="43.508201914190415" lon="11.32658227906997"><ele>328.0</ele><time>2026-04-06T14:13:19Z</time></trkpt><trkpt lat="43.50824228849592" lon="11.326422225667143"><ele>328.66666666666663</ele><time>2026-04-06T14:13:21Z</time></trkpt><trkpt lat="43.50827037437405" lon="11.326323104516675"><ele>329.3333333333333</ele><time>2026-04-06T14:13:22Z</time></trkpt><trkpt lat="43.508309632392304" lon="11.326212059457223"><ele>330.0</ele><time>2026-04-06T14:13:23Z</time></trkpt><trkpt lat="43.50835352865887" lon="11.32611011220937"><ele>330.6666666666667</ele><time>2026-04-06T14:13:24Z</time></trkpt><trkpt lat="43.508395716028716" lon="11.326021969184797"><ele>331.33333333333337</ele><time>2026-04-06T14:13:25Z</time></trkpt><trkpt lat="43.50843814624425" lon="11.325941647483969"><ele>332.0</ele><time>2026-04-06T14:13:26Z</time></trkpt><trkpt lat="43.5084814012104" lon="11.325868883303738"><ele>332.0</ele><time>2026-04-06T14:13:27Z</time></trkpt><trkpt lat="43.508529172149935" lon="11.325794165921268"><ele>332.0</ele><time>2026-04-06T14:13:28Z</time></trkpt><trkpt lat="43.508594290671525" lon="11.325711018683341"><ele>332.0</ele><time>2026-04-06T14:13:29Z</time></trkpt><trkpt lat="43.508664175337444" lon="11.325641300562928"><ele>332.0</ele><time>2026-04-06T14:13:30Z</time></trkpt><trkpt lat="43.50871711502032" lon="11.325591681570453"><ele>332.0</ele><time>2026-04-06T14:13:31Z</time></trkpt><trkpt lat="43.50884534706996" lon="11.325496424030774"><ele>333.83333333333337</ele><time>2026-04-06T14:13:33Z</time></trkpt><trkpt lat="43.508926371993155" lon="11.325464037040362"><ele>335.6666666666667</ele><time>2026-04-06T14:13:34Z</time></trkpt><trkpt lat="43.50900761286898" lon="11.325432201436719"><ele>337.5</ele><time>2026-04-06T14:13:35Z</time></trkpt><trkpt lat="43.5090835301331" lon="11.325406862473216"><ele>339.3333333333333</ele><time>2026-04-06T14:13:36Z</time></trkpt><trkpt lat="43.50916402557402" lon="11.325413352438794"><ele>341.16666666666663</ele><time>2026-04-06T14:13:37Z</time></trkpt><trkpt lat="43.50923780606605" lon="11.325383580589683"><ele>343.0</ele><time>2026-04-06T14:13:38Z</time></trkpt><trkpt lat="43.50932675206021" lon="11.325371538256332"><ele>343.0</ele><time>2026-04-06T14:13:39Z</time></trkpt><trkpt lat="43.509422629588016" lon="11.325355642836456"><ele>343.0</ele><time>2026-04-06T14:13:40Z</time></trkpt><trkpt lat="43.50952094912605" lon="11.32537397623526"><ele>343.0</ele><time>2026-04-06T14:13:41Z</time></trkpt><trkpt lat="43.50959151826844" lon="11.325375808868477"><ele>343.0</ele><time>2026-04-06T14:13:42Z</time></trkpt><trkpt lat="43.50965528619418" lon="11.325381140795914"><ele>343.0</ele><time>2026-04-06T14:13:43Z</time></trkpt><trkpt lat="43.50978585636751" lon="11.325404372457571"><ele>345.4</ele><time>2026-04-06T14:13:45Z</time></trkpt><trkpt lat="43.50985093615769" lon="11.325409959091944"><ele>347.79999999999995</ele><time>2026-04-06T14:13:46Z</time></trkpt><trkpt lat="43.5099653670114" lon="11.325472760537053"><ele>350.2</ele><time>2026-04-06T14:13:48Z</time></trkpt><trkpt lat="43.51004676397371" lon="11.32551193546071"><ele>352.6</ele><time>2026-04-06T14:13:49Z</time></trkpt><trkpt lat="43.510134753672496" lon="11.325545640414015"><ele>355.0</ele><time>2026-04-06T14:13:50Z</time></trkpt><trkpt lat="43.510235275841595" lon="11.325582535094439"><ele>356.8</ele><time>2026-04-06T14:13:51Z</time></trkpt><trkpt lat="43.51032991938067" lon="11.325621824422852"><ele>358.6</ele><time>2026-04-06T14:13:52Z</time></trkpt><trkpt lat="43.510432991181275" lon="11.32567807516514"><ele>360.4</ele><time>2026-04-06T14:13:53Z</time></trkpt><trkpt lat="43.51054621833405" lon="11.32571215636793"><ele>362.2</ele><time>2026-04-06T14:13:54Z</time></trkpt><trkpt lat="43.510660049992644" lon="11.325714303162806"><ele>364.0</ele><time>2026-04-06T14:13:55Z</time></trkpt><trkpt lat="43.510769316649125" lon="11.325726672472651"><ele>366.2</ele><time>2026-04-06T14:13:56Z</time></trkpt><trkpt lat="43.510868346886575" lon="11.325739197509778"><ele>368.4</ele><time>2026-04-06T14:13:57Z</time></trkpt><trkpt lat="43.5109556892536" lon="11.32574349934882"><ele>370.6</ele><time>2026-04-06T14:13:58Z</time></trkpt><trkpt lat="43.511041948134526" lon="11.325734316644352"><ele>372.8</ele><time>2026-04-06T14:13:59Z</time></trkpt><trkpt lat="43.51113276633112" lon="11.325721443313062"><ele>375.0</ele><time>2026-04-06T14:14:00Z</time></trkpt><trkpt lat="43.511229465411986" lon="11.32571951875283"><ele>377.0</ele><time>2026-04-06T14:14:01Z</time></trkpt><trkpt lat="43.51132301236601" lon="11.325689834389259"><ele>379.0</ele><time>2026-04-06T14:14:02Z</time></trkpt><trkpt lat="43.511409952039386" lon="11.325664053955286"><ele>381.0</ele><time>2026-04-06T14:14:03Z</time></trkpt><trkpt lat="43.51148172478778" lon="11.325643516242776"><ele>383.0</ele><time>2026-04-06T14:14:04Z</time></trkpt><trkpt lat="43.51158497963881" lon="11.325643621010315"><ele>385.0</ele><time>2026-04-06T14:14:06Z</time></trkpt><trkpt lat="43.5116676741463" lon="11.32576399789936"><ele>385.00000000000006</ele><time>2026-04-06T14:14:08Z</time></trkpt><trkpt lat="43.51170143239581" lon="11.325938114147245"><ele>385.0</ele><time>2026-04-06T14:14:10Z</time></trkpt><trkpt lat="43.511714720385605" lon="11.326040063880791"><ele>385.0</ele><time>2026-04-06T14:14:11Z</time></trkpt><trkpt lat="43.51174583921036" lon="11.326179206522488"><ele>385.0</ele><time>2026-04-06T14:14:13Z</time></trkpt><trkpt lat="43.51176884160689" lon="11.326262607247331"><ele>385.00000000000006</ele><time>2026-04-06T14:14:14Z</time></trkpt><trkpt lat="43.51180007160661" lon="11.326340240918656"><ele>385.0</ele><time>2026-04-06T14:14:15Z</time></trkpt><trkpt lat="43.51177111409928" lon="11.326439750595016"><ele>386.83333333333337</ele><time>2026-04-06T14:14:16Z</time></trkpt><trkpt lat="43.51174171404946" lon="11.326531518286417"><ele>388.6666666666667</ele><time>2026-04-06T14:14:17Z</time></trkpt><trkpt lat="43.51170202355525" lon="11.326625446674125"><ele>390.5</ele><time>2026-04-06T14:14:18Z</time></trkpt><trkpt lat="43.51167490930259" lon="11.326712369769956"><ele>392.33333333333337</ele><time>2026-04-06T14:14:19Z</time></trkpt><trkpt lat="43.51166070945637" lon="11.32683306505416"><ele>394.1666666666667</ele><time>2026-04-06T14:14:21Z</time></trkpt><trkpt lat="43.51167649519527" lon="11.32693198201457"><ele>396.0</ele><time>2026-04-06T14:14:23Z</time></trkpt><trkpt lat="43.51170371633357" lon="11.327068828011909"><ele>396.0</ele><time>2026-04-06T14:14:25Z</time></trkpt><trkpt lat="43.5117535095948" lon="11.327206149891381"><ele>396.0</ele><time>2026-04-06T14:14:27Z</time></trkpt><trkpt lat="43.51183470867715" lon="11.32732683421083"><ele>396.0</ele><time>2026-04-06T14:14:29Z</time></trkpt><trkpt lat="43.511904381262454" lon="11.327430766975494"><ele>396.0</ele><time>2026-04-06T14:14:31Z</time></trkpt><trkpt lat="43.51197568885814" lon="11.327552051310896"><ele>396.0</ele><time>2026-04-06T14:14:33Z</time></trkpt><trkpt lat="43.51203321298041" lon="11.327717232426163"><ele>396.3333333333333</ele><time>2026-04-06T14:14:35Z</time></trkpt><trkpt lat="43.512069777976045" lon="11.327817749654788"><ele>396.66666666666663</ele><time>2026-04-06T14:14:36Z</time></trkpt><trkpt lat="43.51210784632273" lon="11.327904778939446"><ele>397.0</ele><time>2026-04-06T14:14:37Z</time></trkpt><trkpt lat="43.5121541051508" lon="11.328005147468224"><ele>397.3333333333333</ele><time>2026-04-06T14:14:38Z</time></trkpt><trkpt lat="43.5122088554908" lon="11.328112086659916"><ele>397.66666666666663</ele><time>2026-04-06T14:14:39Z</time></trkpt><trkpt lat="43.51225949732012" lon="11.32821047785209"><ele>398.0</ele><time>2026-04-06T14:14:40Z</time></trkpt><trkpt lat="43.51231653296809" lon="11.328293217913837"><ele>399.3333333333333</ele><time>2026-04-06T14:14:41Z</time></trkpt><trkpt lat="43.51234428410998" lon="11.328397438999993"><ele>400.66666666666663</ele><time>2026-04-06T14:14:42Z</time></trkpt><trkpt lat="43.512393047173965" lon="11.328475311776199"><ele>402.0</ele><time>2026-04-06T14:14:42.999Z</time></trkpt><trkpt lat="43.51242708604212" lon="11.328554747287352"><ele>403.33333333333337</ele><time>2026-04-06T14:14:43.999Z</time></trkpt><trkpt lat="43.512501939309296" lon="11.328660430514606"><ele>404.6666666666667</ele><time>2026-04-06T14:14:45.999Z</time></trkpt><trkpt lat="43.5126021675145" lon="11.328723250753923"><ele>406.0</ele><time>2026-04-06T14:14:47.999Z</time></trkpt><trkpt lat="43.512669843771555" lon="11.328712044990167"><ele>406.00000000000006</ele><time>2026-04-06T14:14:48.999Z</time></trkpt><trkpt lat="43.51273996030261" lon="11.32868599768885"><ele>406.0</ele><time>2026-04-06T14:14:49.999Z</time></trkpt><trkpt lat="43.51280958787416" lon="11.328657904270205"><ele>406.0</ele><time>2026-04-06T14:14:50.999Z</time></trkpt><trkpt lat="43.51288458128891" lon="11.328630924914512"><ele>406.0</ele><time>2026-04-06T14:14:51.999Z</time></trkpt><trkpt lat="43.512970067051754" lon="11.328611908719251"><ele>406.00000000000006</ele><time>2026-04-06T14:14:52.999Z</time></trkpt><trkpt lat="43.5130656175794" lon="11.328591585970525"><ele>406.0</ele><time>2026-04-06T14:14:53.999Z</time></trkpt><trkpt lat="43.5131616727227" lon="11.32855898459045"><ele>405.50000000000006</ele><time>2026-04-06T14:14:54.999Z</time></trkpt><trkpt lat="43.51325488576486" lon="11.32853790375506"><ele>405.0</ele><time>2026-04-06T14:14:55.999Z</time></trkpt><trkpt lat="43.51333976571666" lon="11.328523032887793"><ele>404.5</ele><time>2026-04-06T14:14:56.999Z</time></trkpt><trkpt lat="43.51342273712372" lon="11.32850557708191"><ele>404.0</ele><time>2026-04-06T14:14:57.999Z</time></trkpt><trkpt lat="43.51350658375939" lon="11.328507893399562"><ele>403.50000000000006</ele><time>2026-04-06T14:14:58.999Z</time></trkpt><trkpt lat="43.51357175288808" lon="11.328485723665981"><ele>403.0</ele><time>2026-04-06T14:14:59.999Z</time></trkpt><trkpt lat="43.513676578362805" lon="11.328433114313032"><ele>403.0</ele><time>2026-04-06T14:15:01.999Z</time></trkpt><trkpt lat="43.51374487172364" lon="11.328408200772076"><ele>403.0</ele><time>2026-04-06T14:15:04.999Z</time></trkpt><trkpt lat="43.51381473067633" lon="11.32839301116864"><ele>403.0</ele><time>2026-04-06T14:15:46Z</time></trkpt><trkpt lat="43.51374964733355" lon="11.328406252127488"><ele>403.0</ele><time>2026-04-06T14:16:06Z</time></trkpt><trkpt lat="43.51367614944765" lon="11.3284352859029"><ele>403.0</ele><time>2026-04-06T14:16:09Z</time></trkpt><trkpt lat="43.5136060307574" lon="11.328469451925345"><ele>403.0</ele><time>2026-04-06T14:16:11Z</time></trkpt><trkpt lat="43.51352408982175" lon="11.328502974538708"><ele>403.0</ele><time>2026-04-06T14:16:13Z</time></trkpt><trkpt lat="43.51344591369053" lon="11.328521753087898"><ele>403.00000000000006</ele><time>2026-04-06T14:16:15Z</time></trkpt><trkpt lat="43.51337278999732" lon="11.328536554492981"><ele>403.0</ele><time>2026-04-06T14:16:17Z</time></trkpt><trkpt lat="43.513268840352914" lon="11.328554353021296"><ele>403.0</ele><time>2026-04-06T14:16:20Z</time></trkpt><trkpt lat="43.51319805039953" lon="11.328566732293094"><ele>403.0</ele><time>2026-04-06T14:16:22Z</time></trkpt><trkpt lat="43.51312427942752" lon="11.328579632790895"><ele>403.00000000000006</ele><time>2026-04-06T14:16:24Z</time></trkpt><trkpt lat="43.51304771027524" lon="11.328595394491478"><ele>403.0</ele><time>2026-04-06T14:16:26Z</time></trkpt><trkpt lat="43.512984128872496" lon="11.328608917564164"><ele>403.50000000000006</ele><time>2026-04-06T14:16:27Z</time></trkpt><trkpt lat="43.512904060698304" lon="11.328625947274183"><ele>404.0</ele><time>2026-04-06T14:16:28Z</time></trkpt><trkpt lat="43.51282763278366" lon="11.328645650321713"><ele>404.5</ele><time>2026-04-06T14:16:29Z</time></trkpt><trkpt lat="43.51275089856853" lon="11.328681586003656"><ele>405.0</ele><time>2026-04-06T14:16:30Z</time></trkpt><trkpt lat="43.51267176325144" lon="11.328708382037355"><ele>405.50000000000006</ele><time>2026-04-06T14:16:31Z</time></trkpt><trkpt lat="43.512565829415664" lon="11.328717984039978"><ele>406.0</ele><time>2026-04-06T14:16:33Z</time></trkpt><trkpt lat="43.512483762712414" lon="11.328670097986313"><ele>406.0</ele><time>2026-04-06T14:16:35Z</time></trkpt><trkpt lat="43.51242637186486" lon="11.328545155762553"><ele>406.0</ele><time>2026-04-06T14:16:37Z</time></trkpt><trkpt lat="43.51235317098964" lon="11.328417861895204"><ele>406.0</ele><time>2026-04-06T14:16:39Z</time></trkpt><trkpt lat="43.51231877185996" lon="11.328338812125839"><ele>406.0</ele><time>2026-04-06T14:16:40Z</time></trkpt><trkpt lat="43.512275527499945" lon="11.3282413925964"><ele>406.0</ele><time>2026-04-06T14:16:41Z</time></trkpt><trkpt lat="43.51224427475219" lon="11.328135755194637"><ele>406.6666666666667</ele><time>2026-04-06T14:16:42Z</time></trkpt><trkpt lat="43.512198599199884" lon="11.328045628652772"><ele>407.33333333333337</ele><time>2026-04-06T14:16:43Z</time></trkpt><trkpt lat="43.51216045285735" lon="11.327960112607865"><ele>408.0</ele><time>2026-04-06T14:16:44Z</time></trkpt><trkpt lat="43.512118223765675" lon="11.327883723080703"><ele>408.66666666666663</ele><time>2026-04-06T14:16:45Z</time></trkpt><trkpt lat="43.51206775015495" lon="11.327768056740481"><ele>409.3333333333333</ele><time>2026-04-06T14:16:47Z</time></trkpt><trkpt lat="43.512037596370625" lon="11.327651871417254"><ele>410.0</ele><time>2026-04-06T14:16:48.999Z</time></trkpt><trkpt lat="43.512001895678694" lon="11.327497346318584"><ele>407.99999999999994</ele><time>2026-04-06T14:16:50.999Z</time></trkpt><trkpt lat="43.51193715150464" lon="11.3274046680386"><ele>406.0</ele><time>2026-04-06T14:16:52.999Z</time></trkpt><trkpt lat="43.51187860839393" lon="11.3273508317679"><ele>404.0</ele><time>2026-04-06T14:16:54.999Z</time></trkpt><trkpt lat="43.51181839003634" lon="11.327285457304077"><ele>402.0</ele><time>2026-04-06T14:16:56.999Z</time></trkpt><trkpt lat="43.51176976596256" lon="11.327189466229392"><ele>399.99999999999994</ele><time>2026-04-06T14:16:58.999Z</time></trkpt><trkpt lat="43.51173020596221" lon="11.32707731410638"><ele>398.0</ele><time>2026-04-06T14:17:00.999Z</time></trkpt><trkpt lat="43.511706422416474" lon="11.326964108736991"><ele>397.59999999999997</ele><time>2026-04-06T14:17:02.998Z</time></trkpt><trkpt lat="43.51169572714137" lon="11.326855677467696"><ele>397.2</ele><time>2026-04-06T14:17:04.998Z</time></trkpt><trkpt lat="43.511710254363074" lon="11.326736605093787"><ele>396.8</ele><time>2026-04-06T14:17:06.998Z</time></trkpt><trkpt lat="43.51175047587177" lon="11.326604083129581"><ele>396.4</ele><time>2026-04-06T14:17:08.998Z</time></trkpt><trkpt lat="43.51180296464745" lon="11.326452247666472"><ele>396.0</ele><time>2026-04-06T14:17:10.998Z</time></trkpt><trkpt lat="43.511823113101045" lon="11.326312610065221"><ele>393.8</ele><time>2026-04-06T14:17:12.998Z</time></trkpt><trkpt lat="43.511806554036106" lon="11.326190862750128"><ele>391.6</ele><time>2026-04-06T14:17:14.998Z</time></trkpt><trkpt lat="43.51176108188783" lon="11.326085546388061"><ele>389.4</ele><time>2026-04-06T14:17:16.998Z</time></trkpt><trkpt lat="43.51173244810464" lon="11.325947660696034"><ele>387.2</ele><time>2026-04-06T14:17:18.999Z</time></trkpt><trkpt lat="43.511725431038485" lon="11.325794351644035"><ele>385.0</ele><time>2026-04-06T14:17:20.999Z</time></trkpt><trkpt lat="43.511671104802126" lon="11.325659378937784"><ele>385.0</ele><time>2026-04-06T14:17:22.999Z</time></trkpt><trkpt lat="43.511560368914665" lon="11.32560945876887"><ele>385.0</ele><time>2026-04-06T14:17:24.999Z</time></trkpt><trkpt lat="43.51143664753686" lon="11.325611736866396"><ele>385.0</ele><time>2026-04-06T14:17:26.999Z</time></trkpt><trkpt lat="43.51136555064686" lon="11.325637842917942"><ele>385.0</ele><time>2026-04-06T14:17:27.999Z</time></trkpt><trkpt lat="43.51128544936755" lon="11.325671234689079"><ele>385.0</ele><time>2026-04-06T14:17:28.999Z</time></trkpt><trkpt lat="43.51121166655678" lon="11.325701025045305"><ele>383.33333333333337</ele><time>2026-04-06T14:17:29.999Z</time></trkpt><trkpt lat="43.511148938135335" lon="11.325716880814761"><ele>381.6666666666667</ele><time>2026-04-06T14:17:30.999Z</time></trkpt><trkpt lat="43.51102425561754" lon="11.325724443871827"><ele>380.0</ele><time>2026-04-06T14:17:32.999Z</time></trkpt><trkpt lat="43.510955311617785" lon="11.325730028213364"><ele>378.33333333333337</ele><time>2026-04-06T14:17:33.999Z</time></trkpt><trkpt lat="43.510876907852904" lon="11.325707016568176"><ele>376.6666666666667</ele><time>2026-04-06T14:17:34.999Z</time></trkpt><trkpt lat="43.51079443617189" lon="11.325722567505826"><ele>375.0</ele><time>2026-04-06T14:17:35.999Z</time></trkpt><trkpt lat="43.51071049240418" lon="11.325708600345685"><ele>375.0</ele><time>2026-04-06T14:17:36.999Z</time></trkpt><trkpt lat="43.51062767184721" lon="11.325693177558424"><ele>375.0</ele><time>2026-04-06T14:17:37.999Z</time></trkpt><trkpt lat="43.51054891836306" lon="11.325673452198675"><ele>375.0</ele><time>2026-04-06T14:17:38.999Z</time></trkpt><trkpt lat="43.510466182056014" lon="11.325652030581686"><ele>375.0</ele><time>2026-04-06T14:17:39.999Z</time></trkpt><trkpt lat="43.51038633020829" lon="11.32562733742419"><ele>375.0</ele><time>2026-04-06T14:17:40.999Z</time></trkpt><trkpt lat="43.51030550476025" lon="11.325599683824299"><ele>375.0</ele><time>2026-04-06T14:17:41.999Z</time></trkpt><trkpt lat="43.51023190379855" lon="11.325576592776201"><ele>371.6666666666667</ele><time>2026-04-06T14:17:42.999Z</time></trkpt><trkpt lat="43.510162575114464" lon="11.32554625957132"><ele>368.3333333333333</ele><time>2026-04-06T14:17:43.999Z</time></trkpt><trkpt lat="43.51009435968095" lon="11.325515494613818"><ele>365.0</ele><time>2026-04-06T14:17:44.999Z</time></trkpt><trkpt lat="43.5100278231458" lon="11.325484306144471"><ele>361.66666666666663</ele><time>2026-04-06T14:17:45.999Z</time></trkpt><trkpt lat="43.50996104531702" lon="11.325451113105746"><ele>358.3333333333333</ele><time>2026-04-06T14:17:46.999Z</time></trkpt><trkpt lat="43.5098959303648" lon="11.325415395218105"><ele>355.0</ele><time>2026-04-06T14:17:47.999Z</time></trkpt><trkpt lat="43.50978655826261" lon="11.32535555312099"><ele>355.0</ele><time>2026-04-06T14:17:49.999Z</time></trkpt><trkpt lat="43.509660278936806" lon="11.325336989936055"><ele>355.0</ele><time>2026-04-06T14:17:51.999Z</time></trkpt><trkpt lat="43.50959627540553" lon="11.325340149418956"><ele>355.0</ele><time>2026-04-06T14:17:52.999Z</time></trkpt><trkpt lat="43.50952445425438" lon="11.325347729198953"><ele>355.0</ele><time>2026-04-06T14:17:53.999Z</time></trkpt><trkpt lat="43.50946007649798" lon="11.325329364929823"><ele>355.0</ele><time>2026-04-06T14:17:54.999Z</time></trkpt><trkpt lat="43.50939541078762" lon="11.325334878102767"><ele>355.0</ele><time>2026-04-06T14:17:55.999Z</time></trkpt><trkpt lat="43.5093309681207" lon="11.325363798189569"><ele>353.0</ele><time>2026-04-06T14:17:56.999Z</time></trkpt><trkpt lat="43.5092108344394" lon="11.325373860933082"><ele>351.0</ele><time>2026-04-06T14:17:58.999Z</time></trkpt><trkpt lat="43.509146930893664" lon="11.32538538548957"><ele>349.0</ele><time>2026-04-06T14:17:59.999Z</time></trkpt><trkpt lat="43.50908383473127" lon="11.325399984104973"><ele>347.0</ele><time>2026-04-06T14:18:00.999Z</time></trkpt><trkpt lat="43.50896705224076" lon="11.325434588508312"><ele>345.0</ele><time>2026-04-06T14:18:02.999Z</time></trkpt><trkpt lat="43.50890255486853" lon="11.325455326791618"><ele>343.0</ele><time>2026-04-06T14:18:03.999Z</time></trkpt><trkpt lat="43.508842788981745" lon="11.32548403922073"><ele>343.0</ele><time>2026-04-06T14:18:04.999Z</time></trkpt><trkpt lat="43.50877738007917" lon="11.325513482580861"><ele>343.0</ele><time>2026-04-06T14:18:05.999Z</time></trkpt><trkpt lat="43.508666443903095" lon="11.325593621180213"><ele>343.0</ele><time>2026-04-06T14:18:07.999Z</time></trkpt><trkpt lat="43.50860529052989" lon="11.32565054194181"><ele>343.0</ele><time>2026-04-06T14:18:08.999Z</time></trkpt><trkpt lat="43.50854636197857" lon="11.325711735354506"><ele>343.0</ele><time>2026-04-06T14:18:09.999Z</time></trkpt><trkpt lat="43.5084924459275" lon="11.325782126244913"><ele>343.0</ele><time>2026-04-06T14:18:10.999Z</time></trkpt><trkpt lat="43.508449079048184" lon="11.325861486199118"><ele>341.42857142857144</ele><time>2026-04-06T14:18:11.999Z</time></trkpt><trkpt lat="43.508408492801884" lon="11.325946109666027"><ele>339.8571428571429</ele><time>2026-04-06T14:18:12.999Z</time></trkpt><trkpt lat="43.50836537158141" lon="11.326037122658457"><ele>338.2857142857143</ele><time>2026-04-06T14:18:13.999Z</time></trkpt><trkpt lat="43.50832622882161" lon="11.32612733385319"><ele>336.7142857142857</ele><time>2026-04-06T14:18:14.999Z</time></trkpt><trkpt lat="43.508291284857926" lon="11.326200923640782"><ele>335.14285714285717</ele><time>2026-04-06T14:18:15.999Z</time></trkpt><trkpt lat="43.50825774466043" lon="11.3262833964444"><ele>333.57142857142856</ele><time>2026-04-06T14:18:16.999Z</time></trkpt><trkpt lat="43.508230906006844" lon="11.32636303694483"><ele>332.0</ele><time>2026-04-06T14:18:17.999Z</time></trkpt><trkpt lat="43.508210961274635" lon="11.326446289966885"><ele>331.33333333333337</ele><time>2026-04-06T14:18:18.999Z</time></trkpt><trkpt lat="43.50819539092639" lon="11.32653752962525"><ele>330.6666666666667</ele><time>2026-04-06T14:18:19.999Z</time></trkpt><trkpt lat="43.50816818083409" lon="11.32662552532955"><ele>330.0</ele><time>2026-04-06T14:18:20.999Z</time></trkpt><trkpt lat="43.5081652551361" lon="11.326721824422911"><ele>329.3333333333333</ele><time>2026-04-06T14:18:21.999Z</time></trkpt><trkpt lat="43.50821916813311" lon="11.326852748729394"><ele>328.66666666666663</ele><time>2026-04-06T14:18:23.999Z</time></trkpt><trkpt lat="43.508276641447246" lon="11.326955868016823"><ele>328.0</ele><time>2026-04-06T14:18:25.999Z</time></trkpt><trkpt lat="43.50834938179572" lon="11.327040209904714"><ele>328.0</ele><time>2026-04-06T14:18:27.999Z</time></trkpt><trkpt lat="43.50843900727266" lon="11.3271360328093"><ele>328.0</ele><time>2026-04-06T14:18:29.999Z</time></trkpt><trkpt lat="43.50852625964035" lon="11.327231011064212"><ele>328.0</ele><time>2026-04-06T14:18:31.999Z</time></trkpt><trkpt lat="43.50859351175521" lon="11.327304942812857"><ele>328.0</ele><time>2026-04-06T14:18:33.999Z</time></trkpt><trkpt lat="43.508635971549815" lon="11.327382595606224"><ele>328.0</ele><time>2026-04-06T14:18:35.999Z</time></trkpt><trkpt lat="43.50862988967762" lon="11.327485745623113"><ele>325.2</ele><time>2026-04-06T14:18:37.999Z</time></trkpt><trkpt lat="43.50856890711598" lon="11.327554337857523"><ele>322.4</ele><time>2026-04-06T14:18:39.999Z</time></trkpt><trkpt lat="43.50848134946112" lon="11.327548812795332"><ele>319.59999999999997</ele><time>2026-04-06T14:18:41.999Z</time></trkpt><trkpt lat="43.5083679237402" lon="11.32748610371925"><ele>316.79999999999995</ele><time>2026-04-06T14:18:43.999Z</time></trkpt><trkpt lat="43.50829578823883" lon="11.32743749741929"><ele>314.0</ele><time>2026-04-06T14:18:44.999Z</time></trkpt><trkpt lat="43.50821519331859" lon="11.3273816468827"><ele>314.0</ele><time>2026-04-06T14:18:45.999Z</time></trkpt><trkpt lat="43.50813600098848" lon="11.327321576285799"><ele>314.0</ele><time>2026-04-06T14:18:46.999Z</time></trkpt><trkpt lat="43.5080577250192" lon="11.327262746782722"><ele>314.0</ele><time>2026-04-06T14:18:47.999Z</time></trkpt><trkpt lat="43.50799826805235" lon="11.327189756276184"><ele>314.0</ele><time>2026-04-06T14:18:48.999Z</time></trkpt><trkpt lat="43.50792845096491" lon="11.327138245362578"><ele>314.0</ele><time>2026-04-06T14:18:49.999Z</time></trkpt><trkpt lat="43.50786091000172" lon="11.32709735570458"><ele>314.0</ele><time>2026-04-06T14:18:50.999Z</time></trkpt><trkpt lat="43.50778894446715" lon="11.327079635579672"><ele>312.6666666666667</ele><time>2026-04-06T14:18:51.999Z</time></trkpt><trkpt lat="43.507725373070464" lon="11.32703876517754"><ele>311.33333333333337</ele><time>2026-04-06T14:18:52.999Z</time></trkpt><trkpt lat="43.50761826943865" lon="11.32698323788064"><ele>310.0</ele><time>2026-04-06T14:18:54.999Z</time></trkpt><trkpt lat="43.50753180623509" lon="11.326932944524692"><ele>308.6666666666667</ele><time>2026-04-06T14:18:56.999Z</time></trkpt><trkpt lat="43.50746722291307" lon="11.326893517154073"><ele>307.3333333333333</ele><time>2026-04-06T14:18:58.999Z</time></trkpt><trkpt lat="43.50738461546286" lon="11.326845967983212"><ele>306.0</ele><time>2026-04-06T14:19:01.999Z</time></trkpt><trkpt lat="43.50732533508191" lon="11.326908139301768"><ele>306.0</ele><time>2026-04-06T14:19:02.999Z</time></trkpt><trkpt lat="43.507260077394996" lon="11.326987033063475"><ele>306.0</ele><time>2026-04-06T14:19:03.999Z</time></trkpt><trkpt lat="43.50719195735715" lon="11.327058782728455"><ele>306.0</ele><time>2026-04-06T14:19:04.999Z</time></trkpt><trkpt lat="43.50710166010952" lon="11.327097790699735"><ele>306.0</ele><time>2026-04-06T14:19:05.999Z</time></trkpt><trkpt lat="43.506990980783456" lon="11.327129651273209"><ele>306.0</ele><time>2026-04-06T14:19:06.999Z</time></trkpt><trkpt lat="43.50687589721948" lon="11.327165749966214"><ele>304.0</ele><time>2026-04-06T14:19:07.999Z</time></trkpt><trkpt lat="43.506753481004544" lon="11.327217024809396"><ele>302.0</ele><time>2026-04-06T14:19:08.998Z</time></trkpt><trkpt lat="43.506615290930526" lon="11.327277502742641"><ele>300.0</ele><time>2026-04-06T14:19:09.998Z</time></trkpt><trkpt lat="43.50647770115373" lon="11.327353798378258"><ele>298.0</ele><time>2026-04-06T14:19:10.998Z</time></trkpt><trkpt lat="43.50634308338453" lon="11.327444106120922"><ele>298.3333333333333</ele><time>2026-04-06T14:19:11.998Z</time></trkpt><trkpt lat="43.50620526901558" lon="11.32754331165475"><ele>298.6666666666667</ele><time>2026-04-06T14:19:12.998Z</time></trkpt><trkpt lat="43.506071068822365" lon="11.327670025431434"><ele>299.0</ele><time>2026-04-06T14:19:13.998Z</time></trkpt><trkpt lat="43.50593543723088" lon="11.327804137163547"><ele>299.0</ele><time>2026-04-06T14:19:14.998Z</time></trkpt><trkpt lat="43.50580318831825" lon="11.327944986866042"><ele>299.0</ele><time>2026-04-06T14:19:15.998Z</time></trkpt><trkpt lat="43.505668988593854" lon="11.328090467024314"><ele>299.0</ele><time>2026-04-06T14:19:16.998Z</time></trkpt><trkpt lat="43.50553185697449" lon="11.328231368564216"><ele>300.6666666666667</ele><time>2026-04-06T14:19:17.998Z</time></trkpt><trkpt lat="43.50539199762565" lon="11.32838337260006"><ele>302.3333333333333</ele><time>2026-04-06T14:19:18.998Z</time></trkpt><trkpt lat="43.505250002448946" lon="11.328530237545465"><ele>304.0</ele><time>2026-04-06T14:19:19.998Z</time></trkpt><trkpt lat="43.505105874129065" lon="11.32865950179913"><ele>304.0</ele><time>2026-04-06T14:19:20.998Z</time></trkpt><trkpt lat="43.50495274577073" lon="11.328781186984363"><ele>304.0</ele><time>2026-04-06T14:19:21.998Z</time></trkpt><trkpt lat="43.504795951383855" lon="11.328891721997941"><ele>304.0</ele><time>2026-04-06T14:19:22.998Z</time></trkpt><trkpt lat="43.50464086233684" lon="11.329000435454235"><ele>304.3333333333333</ele><time>2026-04-06T14:19:23.999Z</time></trkpt><trkpt lat="43.50448761168227" lon="11.32910635320781"><ele>304.6666666666667</ele><time>2026-04-06T14:19:24.999Z</time></trkpt><trkpt lat="43.50433315725592" lon="11.329213231990952"><ele>305.0</ele><time>2026-04-06T14:19:25.999Z</time></trkpt><trkpt lat="43.50417379628601" lon="11.329307225161678"><ele>305.0</ele><time>2026-04-06T14:19:26.999Z</time></trkpt><trkpt lat="43.50401881457588" lon="11.329379458258803"><ele>305.0</ele><time>2026-04-06T14:19:27.999Z</time></trkpt><trkpt lat="43.503871196102004" lon="11.32945508841593"><ele>305.0</ele><time>2026-04-06T14:19:28.999Z</time></trkpt><trkpt lat="43.50373629068893" lon="11.329563660478142"><ele>306.33333333333337</ele><time>2026-04-06T14:19:29.999Z</time></trkpt><trkpt lat="43.50362993261731" lon="11.329719369344653"><ele>307.6666666666667</ele><time>2026-04-06T14:19:30.999Z</time></trkpt><trkpt lat="43.503530448501024" lon="11.329897462667105"><ele>309.0</ele><time>2026-04-06T14:19:31.999Z</time></trkpt><trkpt lat="43.50343802789778" lon="11.33008707883865"><ele>309.0</ele><time>2026-04-06T14:19:32.999Z</time></trkpt><trkpt lat="43.50333762040761" lon="11.330273812529644"><ele>309.0</ele><time>2026-04-06T14:19:33.999Z</time></trkpt><trkpt lat="43.50322356091286" lon="11.330460235528362"><ele>309.0</ele><time>2026-04-06T14:19:34.999Z</time></trkpt><trkpt lat="43.5031017182711" lon="11.330636137742776"><ele>309.6666666666667</ele><time>2026-04-06T14:19:35.999Z</time></trkpt><trkpt lat="43.502972615509954" lon="11.330811494316428"><ele>310.33333333333337</ele><time>2026-04-06T14:19:36.999Z</time></trkpt><trkpt lat="43.50285214286836" lon="11.330973934781499"><ele>311.0</ele><time>2026-04-06T14:19:37.999Z</time></trkpt><trkpt lat="43.502735271439306" lon="11.331137244650554"><ele>311.0</ele><time>2026-04-06T14:19:38.999Z</time></trkpt><trkpt lat="43.502619079126326" lon="11.331302915001022"><ele>311.0</ele><time>2026-04-06T14:19:39.999Z</time></trkpt><trkpt lat="43.50251351016381" lon="11.331470552289037"><ele>311.0</ele><time>2026-04-06T14:19:40.999Z</time></trkpt><trkpt lat="43.50241345323411" lon="11.33164846472044"><ele>309.6666666666667</ele><time>2026-04-06T14:19:41.999Z</time></trkpt><trkpt lat="43.5023079413163" lon="11.331829048494567"><ele>308.3333333333333</ele><time>2026-04-06T14:19:42.999Z</time></trkpt><trkpt lat="43.50218517905944" lon="11.331996497501885"><ele>307.0</ele><time>2026-04-06T14:19:43.999Z</time></trkpt><trkpt lat="43.50204736428216" lon="11.33215224273535"><ele>307.66666666666663</ele><time>2026-04-06T14:19:44.999Z</time></trkpt><trkpt lat="43.501892316065444" lon="11.332292749871709"><ele>308.3333333333333</ele><time>2026-04-06T14:19:45.999Z</time></trkpt><trkpt lat="43.50172198201571" lon="11.332434734956365"><ele>309.0</ele><time>2026-04-06T14:19:46.999Z</time></trkpt><trkpt lat="43.50154543989426" lon="11.332588694197451"><ele>309.0</ele><time>2026-04-06T14:19:47.999Z</time></trkpt><trkpt lat="43.501375843249434" lon="11.332753280504951"><ele>309.0</ele><time>2026-04-06T14:19:48.999Z</time></trkpt><trkpt lat="43.50121338555393" lon="11.332928525786302"><ele>309.0</ele><time>2026-04-06T14:19:49.999Z</time></trkpt><trkpt lat="43.50105458624417" lon="11.333111625698766"><ele>310.3333333333333</ele><time>2026-04-06T14:19:50.999Z</time></trkpt><trkpt lat="43.500898307322615" lon="11.333306386203136"><ele>311.66666666666663</ele><time>2026-04-06T14:19:51.999Z</time></trkpt><trkpt lat="43.50074972531713" lon="11.333519297679597"><ele>313.0</ele><time>2026-04-06T14:19:52.999Z</time></trkpt><trkpt lat="43.500611996111" lon="11.3337499426328"><ele>314.0</ele><time>2026-04-06T14:19:53.999Z</time></trkpt><trkpt lat="43.5004804674258" lon="11.333996475254715"><ele>315.0</ele><time>2026-04-06T14:19:54.999Z</time></trkpt><trkpt lat="43.50036085525996" lon="11.334251750682052"><ele>316.0</ele><time>2026-04-06T14:19:55.999Z</time></trkpt><trkpt lat="43.500242779153545" lon="11.334506505788445"><ele>314.3333333333333</ele><time>2026-04-06T14:19:56.999Z</time></trkpt><trkpt lat="43.50012040860133" lon="11.334766865439091"><ele>312.6666666666667</ele><time>2026-04-06T14:19:57.999Z</time></trkpt><trkpt lat="43.50000514382087" lon="11.33501546311579"><ele>311.0</ele><time>2026-04-06T14:19:58.999Z</time></trkpt><trkpt lat="43.49988756342441" lon="11.335262115677061"><ele>311.0</ele><time>2026-04-06T14:19:59.999Z</time></trkpt><trkpt lat="43.49976621001029" lon="11.335509020878828"><ele>311.0</ele><time>2026-04-06T14:20:00.999Z</time></trkpt><trkpt lat="43.499646788520884" lon="11.335757728086406"><ele>311.0</ele><time>2026-04-06T14:20:01.999Z</time></trkpt><trkpt lat="43.49952843959838" lon="11.336009646339411"><ele>311.33333333333337</ele><time>2026-04-06T14:20:02.999Z</time></trkpt><trkpt lat="43.49941194962771" lon="11.336259818281217"><ele>311.6666666666667</ele><time>2026-04-06T14:20:03.999Z</time></trkpt><trkpt lat="43.49930005358284" lon="11.336494304769483"><ele>312.0</ele><time>2026-04-06T14:20:04.999Z</time></trkpt><trkpt lat="43.49918072104505" lon="11.336723446302223"><ele>312.0</ele><time>2026-04-06T14:20:05.999Z</time></trkpt><trkpt lat="43.49904144405997" lon="11.336941261165316"><ele>312.0</ele><time>2026-04-06T14:20:06.999Z</time></trkpt><trkpt lat="43.49889070618977" lon="11.33714977339675"><ele>312.0</ele><time>2026-04-06T14:20:07.999Z</time></trkpt><trkpt lat="43.498728673971044" lon="11.337357698720384"><ele>315.3333333333333</ele><time>2026-04-06T14:20:08.999Z</time></trkpt><trkpt lat="43.498557969970385" lon="11.337561512889433"><ele>318.66666666666663</ele><time>2026-04-06T14:20:09.999Z</time></trkpt><trkpt lat="43.49838804077088" lon="11.337753569069424"><ele>322.0</ele><time>2026-04-06T14:20:10.999Z</time></trkpt><trkpt lat="43.49822539665669" lon="11.33793586915238"><ele>319.0</ele><time>2026-04-06T14:20:11.999Z</time></trkpt><trkpt lat="43.498067533887856" lon="11.338141031932599"><ele>316.0</ele><time>2026-04-06T14:20:12.999Z</time></trkpt><trkpt lat="43.49792228608574" lon="11.338380464198877"><ele>313.0</ele><time>2026-04-06T14:20:13.999Z</time></trkpt><trkpt lat="43.49779044218852" lon="11.338624923365158"><ele>314.66666666666663</ele><time>2026-04-06T14:20:14.999Z</time></trkpt><trkpt lat="43.49765929995027" lon="11.338865266434194"><ele>316.3333333333333</ele><time>2026-04-06T14:20:15.999Z</time></trkpt><trkpt lat="43.49752603323923" lon="11.339105929202233"><ele>318.0</ele><time>2026-04-06T14:20:16.999Z</time></trkpt><trkpt lat="43.49740138634646" lon="11.339359726914118"><ele>318.0</ele><time>2026-04-06T14:20:17.999Z</time></trkpt><trkpt lat="43.49729940028488" lon="11.339636906957718"><ele>318.0</ele><time>2026-04-06T14:20:18.999Z</time></trkpt><trkpt lat="43.49721137604388" lon="11.33995208670934"><ele>319.0</ele><time>2026-04-06T14:20:19.999Z</time></trkpt><trkpt lat="43.49712479693429" lon="11.340269470280395"><ele>320.0</ele><time>2026-04-06T14:20:20.999Z</time></trkpt><trkpt lat="43.4970395082923" lon="11.340584184851922"><ele>320.0</ele><time>2026-04-06T14:20:21.999Z</time></trkpt><trkpt lat="43.49695486170163" lon="11.34089252834373"><ele>320.0</ele><time>2026-04-06T14:20:22.999Z</time></trkpt><trkpt lat="43.49687262104831" lon="11.34119896567973"><ele>319.6666666666667</ele><time>2026-04-06T14:20:23.999Z</time></trkpt><trkpt lat="43.496791620725936" lon="11.341492847722627"><ele>319.3333333333333</ele><time>2026-04-06T14:20:24.999Z</time></trkpt><trkpt lat="43.496713479166736" lon="11.341765629443596"><ele>319.0</ele><time>2026-04-06T14:20:25.999Z</time></trkpt><trkpt lat="43.496633447643774" lon="11.342018100746031"><ele>319.0</ele><time>2026-04-06T14:20:26.999Z</time></trkpt><trkpt lat="43.49654314010246" lon="11.342256324579798"><ele>319.0</ele><time>2026-04-06T14:20:27.999Z</time></trkpt><trkpt lat="43.496430681295166" lon="11.342474695400973"><ele>319.0</ele><time>2026-04-06T14:20:28.999Z</time></trkpt><trkpt lat="43.49630240544931" lon="11.34268959254386"><ele>319.66666666666663</ele><time>2026-04-06T14:20:29.999Z</time></trkpt><trkpt lat="43.49615148624773" lon="11.342883432426271"><ele>320.3333333333333</ele><time>2026-04-06T14:20:30.999Z</time></trkpt><trkpt lat="43.49598627443333" lon="11.343085973248193"><ele>321.0</ele><time>2026-04-06T14:20:31.999Z</time></trkpt><trkpt lat="43.49583311932928" lon="11.343324477451796"><ele>321.0</ele><time>2026-04-06T14:20:32.999Z</time></trkpt><trkpt lat="43.49569799934391" lon="11.34360086545309"><ele>321.0</ele><time>2026-04-06T14:20:33.999Z</time></trkpt><trkpt lat="43.49557647888266" lon="11.343885627837551"><ele>319.5</ele><time>2026-04-06T14:20:34.999Z</time></trkpt><trkpt lat="43.49545697087383" lon="11.344178766942413"><ele>318.0</ele><time>2026-04-06T14:20:35.999Z</time></trkpt><trkpt lat="43.495338189893694" lon="11.344492083704685"><ele>319.5</ele><time>2026-04-06T14:20:36.999Z</time></trkpt><trkpt lat="43.49522685328169" lon="11.344803321588296"><ele>321.0</ele><time>2026-04-06T14:20:37.999Z</time></trkpt><trkpt lat="43.49511778100482" lon="11.345113219946546"><ele>321.0</ele><time>2026-04-06T14:20:38.999Z</time></trkpt><trkpt lat="43.495010250253316" lon="11.34541188426199"><ele>321.0</ele><time>2026-04-06T14:20:39.999Z</time></trkpt><trkpt lat="43.4949027328799" lon="11.345702088203394"><ele>320.6666666666667</ele><time>2026-04-06T14:20:40.999Z</time></trkpt><trkpt lat="43.49480122339841" lon="11.345982258610032"><ele>320.33333333333337</ele><time>2026-04-06T14:20:41.999Z</time></trkpt><trkpt lat="43.494702418975585" lon="11.34625375701119"><ele>320.0</ele><time>2026-04-06T14:20:42.999Z</time></trkpt><trkpt lat="43.49460976916889" lon="11.346504936976302"><ele>322.0</ele><time>2026-04-06T14:20:43.999Z</time></trkpt><trkpt lat="43.494519696921515" lon="11.346755069741036"><ele>324.0</ele><time>2026-04-06T14:20:44.999Z</time></trkpt><trkpt lat="43.49443348731458" lon="11.34699565994857"><ele>326.0</ele><time>2026-04-06T14:20:45.999Z</time></trkpt><trkpt lat="43.494338688871586" lon="11.34723487631203"><ele>326.0</ele><time>2026-04-06T14:20:46.999Z</time></trkpt><trkpt lat="43.4942326956815" lon="11.347467035286195"><ele>326.0</ele><time>2026-04-06T14:20:47.999Z</time></trkpt><trkpt lat="43.49410823482096" lon="11.347693099142548"><ele>326.0</ele><time>2026-04-06T14:20:48.999Z</time></trkpt><trkpt lat="43.493967656576224" lon="11.34791271189079"><ele>326.0</ele><time>2026-04-06T14:20:49.999Z</time></trkpt><trkpt lat="43.49381973244611" lon="11.348130925663627"><ele>326.0</ele><time>2026-04-06T14:20:50.999Z</time></trkpt><trkpt lat="43.493670993048106" lon="11.348351438298904"><ele>326.0</ele><time>2026-04-06T14:20:51.999Z</time></trkpt><trkpt lat="43.49352153838399" lon="11.348570173213869"><ele>326.0</ele><time>2026-04-06T14:20:52.999Z</time></trkpt><trkpt lat="43.49336598302137" lon="11.348775140966257"><ele>326.0</ele><time>2026-04-06T14:20:53.999Z</time></trkpt><trkpt lat="43.49319971627624" lon="11.348971767726008"><ele>326.0</ele><time>2026-04-06T14:20:54.999Z</time></trkpt><trkpt lat="43.49301914187968" lon="11.34914889388474"><ele>327.33333333333337</ele><time>2026-04-06T14:20:55.999Z</time></trkpt><trkpt lat="43.49282817266723" lon="11.349314566224182"><ele>328.6666666666667</ele><time>2026-04-06T14:20:56.999Z</time></trkpt><trkpt lat="43.49266550662101" lon="11.349510937015069"><ele>330.0</ele><time>2026-04-06T14:20:57.999Z</time></trkpt><trkpt lat="43.492457631263704" lon="11.349643213734636"><ele>331.3333333333333</ele><time>2026-04-06T14:20:58.999Z</time></trkpt><trkpt lat="43.49227715362976" lon="11.349817237957616"><ele>332.66666666666663</ele><time>2026-04-06T14:20:59.999Z</time></trkpt><trkpt lat="43.49210030609074" lon="11.349992755462228"><ele>334.0</ele><time>2026-04-06T14:21:00.999Z</time></trkpt><trkpt lat="43.49192263663931" lon="11.350168827278994"><ele>334.0</ele><time>2026-04-06T14:21:01.999Z</time></trkpt><trkpt lat="43.4917446607718" lon="11.350345358416076"><ele>334.0</ele><time>2026-04-06T14:21:02.999Z</time></trkpt><trkpt lat="43.49157013555256" lon="11.350509593354497"><ele>334.0</ele><time>2026-04-06T14:21:03.999Z</time></trkpt><trkpt lat="43.49140679717137" lon="11.350664349530213"><ele>334.0</ele><time>2026-04-06T14:21:04.999Z</time></trkpt><trkpt lat="43.491259383443136" lon="11.350803492574796"><ele>334.0</ele><time>2026-04-06T14:21:05.999Z</time></trkpt><trkpt lat="43.491115948423776" lon="11.35091825492672"><ele>334.0</ele><time>2026-04-06T14:21:06.999Z</time></trkpt><trkpt lat="43.49096936752913" lon="11.351010407707543"><ele>334.0</ele><time>2026-04-06T14:21:07.999Z</time></trkpt><trkpt lat="43.49082998967412" lon="11.351070545874771"><ele>334.0</ele><time>2026-04-06T14:21:08.999Z</time></trkpt><trkpt lat="43.49069531401746" lon="11.351126548592998"><ele>334.0</ele><time>2026-04-06T14:21:09.999Z</time></trkpt><trkpt lat="43.49057230099627" lon="11.351197052709834"><ele>334.0</ele><time>2026-04-06T14:21:10.999Z</time></trkpt><trkpt lat="43.49046710209587" lon="11.35130056635724"><ele>333.75</ele><time>2026-04-06T14:21:11.999Z</time></trkpt><trkpt lat="43.490370922061146" lon="11.351422857628108"><ele>333.5</ele><time>2026-04-06T14:21:12.999Z</time></trkpt><trkpt lat="43.49029203935057" lon="11.351558286148103"><ele>333.25</ele><time>2026-04-06T14:21:13.999Z</time></trkpt><trkpt lat="43.49023853848161" lon="11.351704602539455"><ele>333.0</ele><time>2026-04-06T14:21:14.999Z</time></trkpt><trkpt lat="43.49021183214764" lon="11.35185068791271"><ele>333.0</ele><time>2026-04-06T14:21:15.999Z</time></trkpt><trkpt lat="43.49021799311511" lon="11.352001554123811"><ele>333.0</ele><time>2026-04-06T14:21:16.999Z</time></trkpt><trkpt lat="43.49024022246691" lon="11.35215803903821"><ele>333.0</ele><time>2026-04-06T14:21:17.999Z</time></trkpt><trkpt lat="43.49028525777233" lon="11.352329494094654"><ele>333.0</ele><time>2026-04-06T14:21:18.999Z</time></trkpt><trkpt lat="43.49034484585429" lon="11.352504353783795"><ele>333.0</ele><time>2026-04-06T14:21:19.999Z</time></trkpt><trkpt lat="43.490415279530374" lon="11.352681492851897"><ele>333.0</ele><time>2026-04-06T14:21:20.999Z</time></trkpt><trkpt lat="43.49048435846689" lon="11.352857340140464"><ele>333.0</ele><time>2026-04-06T14:21:21.999Z</time></trkpt><trkpt lat="43.49055084311221" lon="11.353033344785624"><ele>333.0</ele><time>2026-04-06T14:21:22.999Z</time></trkpt><trkpt lat="43.490605867719324" lon="11.353207036623342"><ele>333.0</ele><time>2026-04-06T14:21:23.999Z</time></trkpt><trkpt lat="43.490644140788085" lon="11.353385102274068"><ele>333.0</ele><time>2026-04-06T14:21:24.999Z</time></trkpt><trkpt lat="43.49066376246454" lon="11.35356540976821"><ele>333.0</ele><time>2026-04-06T14:21:25.999Z</time></trkpt><trkpt lat="43.49067149240554" lon="11.353746484964773"><ele>333.0</ele><time>2026-04-06T14:21:26.999Z</time></trkpt><trkpt lat="43.49068092898153" lon="11.353917847525743"><ele>333.5</ele><time>2026-04-06T14:21:27.999Z</time></trkpt><trkpt lat="43.490711880072055" lon="11.354079166065151"><ele>334.0</ele><time>2026-04-06T14:21:28.999Z</time></trkpt><trkpt lat="43.49076171722934" lon="11.3542219241317"><ele>334.5</ele><time>2026-04-06T14:21:29.999Z</time></trkpt><trkpt lat="43.490837559574175" lon="11.354342432998024"><ele>335.0</ele><time>2026-04-06T14:21:30.999Z</time></trkpt><trkpt lat="43.490916428705994" lon="11.35443101499276"><ele>335.0</ele><time>2026-04-06T14:21:31.999Z</time></trkpt><trkpt lat="43.49097965798547" lon="11.354513309459925"><ele>335.0</ele><time>2026-04-06T14:21:32.999Z</time></trkpt><trkpt lat="43.4910099658617" lon="11.354611616478612"><ele>335.0</ele><time>2026-04-06T14:21:33.999Z</time></trkpt><trkpt lat="43.49100310271636" lon="11.354712248700334"><ele>335.0</ele><time>2026-04-06T14:21:34.999Z</time></trkpt><trkpt lat="43.49096253474011" lon="11.354831593748447"><ele>335.0</ele><time>2026-04-06T14:21:35.999Z</time></trkpt><trkpt lat="43.49089897179284" lon="11.354945009078708"><ele>335.0</ele><time>2026-04-06T14:21:36.999Z</time></trkpt><trkpt lat="43.49081990162897" lon="11.355060343871468"><ele>336.5</ele><time>2026-04-06T14:21:37.999Z</time></trkpt><trkpt lat="43.490718741103656" lon="11.355177442652316"><ele>338.0</ele><time>2026-04-06T14:21:38.999Z</time></trkpt><trkpt lat="43.49060168796447" lon="11.355271309724966"><ele>339.5</ele><time>2026-04-06T14:21:39.999Z</time></trkpt><trkpt lat="43.4904757801203" lon="11.355340213758549"><ele>341.0</ele><time>2026-04-06T14:21:40.999Z</time></trkpt><trkpt lat="43.490347495556016" lon="11.355408184851765"><ele>343.0</ele><time>2026-04-06T14:21:41.999Z</time></trkpt><trkpt lat="43.49021606504013" lon="11.355478315481232"><ele>345.0</ele><time>2026-04-06T14:21:42.999Z</time></trkpt><trkpt lat="43.49008784156455" lon="11.35554217306401"><ele>347.0</ele><time>2026-04-06T14:21:43.999Z</time></trkpt><trkpt lat="43.48996849007723" lon="11.355597315097588"><ele>349.0</ele><time>2026-04-06T14:21:44.999Z</time></trkpt><trkpt lat="43.48988256046639" lon="11.35563812764001"><ele>349.79999999999995</ele><time>2026-04-06T14:21:45.999Z</time></trkpt><trkpt lat="43.4898216719403" lon="11.355729562623484"><ele>350.59999999999997</ele><time>2026-04-06T14:21:47.999Z</time></trkpt><trkpt lat="43.48989535360188" lon="11.355874877117158"><ele>351.4</ele><time>2026-04-06T14:21:49.999Z</time></trkpt><trkpt lat="43.48998745568638" lon="11.355938750700586"><ele>352.2</ele><time>2026-04-06T14:21:50.999Z</time></trkpt><trkpt lat="43.490086470144355" lon="11.355995848600926"><ele>353.0</ele><time>2026-04-06T14:21:51.999Z</time></trkpt><trkpt lat="43.49014826360825" lon="11.356059625812494"><ele>353.0</ele><time>2026-04-06T14:21:52.999Z</time></trkpt><trkpt lat="43.4901766761574" lon="11.356149583959947"><ele>353.0</ele><time>2026-04-06T14:21:53.999Z</time></trkpt><trkpt lat="43.490169456685365" lon="11.35624595467256"><ele>353.0</ele><time>2026-04-06T14:21:54.999Z</time></trkpt><trkpt lat="43.490130998433415" lon="11.356325280194438"><ele>353.0</ele><time>2026-04-06T14:21:55.999Z</time></trkpt><trkpt lat="43.49006221179979" lon="11.356401074720843"><ele>353.0</ele><time>2026-04-06T14:21:56.999Z</time></trkpt><trkpt lat="43.489970779998075" lon="11.356477723396926"><ele>353.0</ele><time>2026-04-06T14:21:57.999Z</time></trkpt><trkpt lat="43.489871265225766" lon="11.356562407960237"><ele>356.25</ele><time>2026-04-06T14:21:58.999Z</time></trkpt><trkpt lat="43.48977140363033" lon="11.35665879104953"><ele>359.5</ele><time>2026-04-06T14:21:59.999Z</time></trkpt><trkpt lat="43.4896805088877" lon="11.35675444074139"><ele>362.75</ele><time>2026-04-06T14:22:00.999Z</time></trkpt><trkpt lat="43.48959031822621" lon="11.356864854667627"><ele>366.0</ele><time>2026-04-06T14:22:01.999Z</time></trkpt><trkpt lat="43.48949726697806" lon="11.356986725410177"><ele>366.5</ele><time>2026-04-06T14:22:02.999Z</time></trkpt><trkpt lat="43.48940404184885" lon="11.357116448819916"><ele>367.0</ele><time>2026-04-06T14:22:03.999Z</time></trkpt><trkpt lat="43.489310742446335" lon="11.357266619254393"><ele>367.5</ele><time>2026-04-06T14:22:04.999Z</time></trkpt><trkpt lat="43.48921573509871" lon="11.35744620640466"><ele>368.0</ele><time>2026-04-06T14:22:05.999Z</time></trkpt><trkpt lat="43.489138212787594" lon="11.35763072011845"><ele>371.33333333333337</ele><time>2026-04-06T14:22:06.999Z</time></trkpt><trkpt lat="43.48908375467584" lon="11.35782951260597"><ele>374.6666666666667</ele><time>2026-04-06T14:22:07.999Z</time></trkpt><trkpt lat="43.4890372014605" lon="11.358042533502445"><ele>378.0</ele><time>2026-04-06T14:22:08.999Z</time></trkpt><trkpt lat="43.48899824594515" lon="11.358288640901089"><ele>382.66666666666663</ele><time>2026-04-06T14:22:09.999Z</time></trkpt><trkpt lat="43.48896241524881" lon="11.358525453584534"><ele>387.3333333333333</ele><time>2026-04-06T14:22:10.999Z</time></trkpt><trkpt lat="43.488927299582336" lon="11.358770038728348"><ele>392.0</ele><time>2026-04-06T14:22:11.999Z</time></trkpt><trkpt lat="43.48889556329366" lon="11.358993422054166"><ele>394.3333333333333</ele><time>2026-04-06T14:22:12.999Z</time></trkpt><trkpt lat="43.488840193113745" lon="11.359208276315002"><ele>396.66666666666663</ele><time>2026-04-06T14:22:13.999Z</time></trkpt><trkpt lat="43.488811499242274" lon="11.359420018847484"><ele>399.0</ele><time>2026-04-06T14:22:14.999Z</time></trkpt><trkpt lat="43.4887468815214" lon="11.359633876574552"><ele>402.33333333333337</ele><time>2026-04-06T14:22:15.999Z</time></trkpt><trkpt lat="43.48865657314083" lon="11.359868095640453"><ele>405.6666666666667</ele><time>2026-04-06T14:22:16.999Z</time></trkpt><trkpt lat="43.48855433363407" lon="11.360108146981391"><ele>409.0</ele><time>2026-04-06T14:22:17.999Z</time></trkpt><trkpt lat="43.4884630299223" lon="11.360330947291644"><ele>409.0</ele><time>2026-04-06T14:22:18.999Z</time></trkpt><trkpt lat="43.48838531107448" lon="11.36051481316361"><ele>409.0</ele><time>2026-04-06T14:22:19.999Z</time></trkpt><trkpt lat="43.48831617796868" lon="11.36067429913649"><ele>409.0</ele><time>2026-04-06T14:22:20.999Z</time></trkpt><trkpt lat="43.48824864440053" lon="11.360819764075023"><ele>409.0</ele><time>2026-04-06T14:22:21.999Z</time></trkpt><trkpt lat="43.488189647142384" lon="11.360937615240253"><ele>411.75</ele><time>2026-04-06T14:22:22.999Z</time></trkpt><trkpt lat="43.488140889590234" lon="11.36103378600663"><ele>414.5</ele><time>2026-04-06T14:22:23.999Z</time></trkpt><trkpt lat="43.4881285918098" lon="11.361186020139305"><ele>417.25</ele><time>2026-04-06T14:22:25.999Z</time></trkpt><trkpt lat="43.48826153611761" lon="11.361301899636322"><ele>420.0</ele><time>2026-04-06T14:22:27.999Z</time></trkpt><trkpt lat="43.48835693900379" lon="11.361355961430007"><ele>423.2</ele><time>2026-04-06T14:22:28.999Z</time></trkpt><trkpt lat="43.48842637552264" lon="11.361393796165592"><ele>426.4</ele><time>2026-04-06T14:22:29.999Z</time></trkpt><trkpt lat="43.48847831074971" lon="11.361482034126118"><ele>429.6</ele><time>2026-04-06T14:22:31.999Z</time></trkpt><trkpt lat="43.48840840240795" lon="11.361616887496185"><ele>432.8</ele><time>2026-04-06T14:22:33.999Z</time></trkpt><trkpt lat="43.488326368115196" lon="11.361682361937666"><ele>436.0</ele><time>2026-04-06T14:22:34.999Z</time></trkpt><trkpt lat="43.48822713308797" lon="11.361743845582513"><ele>436.0</ele><time>2026-04-06T14:22:35.999Z</time></trkpt><trkpt lat="43.48812540669934" lon="11.36182377090679"><ele>436.0</ele><time>2026-04-06T14:22:36.999Z</time></trkpt><trkpt lat="43.488042095302504" lon="11.361925686115839"><ele>436.0</ele><time>2026-04-06T14:22:37.999Z</time></trkpt><trkpt lat="43.48798241796757" lon="11.36206026715936"><ele>436.0</ele><time>2026-04-06T14:22:38.999Z</time></trkpt><trkpt lat="43.4879428815658" lon="11.362225555265788"><ele>438.25</ele><time>2026-04-06T14:22:39.999Z</time></trkpt><trkpt lat="43.48790968109167" lon="11.362384549927592"><ele>440.5</ele><time>2026-04-06T14:22:40.999Z</time></trkpt><trkpt lat="43.48786134562957" lon="11.36255474335157"><ele>442.75</ele><time>2026-04-06T14:22:41.999Z</time></trkpt><trkpt lat="43.48780713108256" lon="11.362727153530523"><ele>445.0</ele><time>2026-04-06T14:22:42.999Z</time></trkpt><trkpt lat="43.487757384817385" lon="11.36289289955189"><ele>446.5</ele><time>2026-04-06T14:22:43.999Z</time></trkpt><trkpt lat="43.48770333933413" lon="11.363045012955327"><ele>448.0</ele><time>2026-04-06T14:22:44.999Z</time></trkpt><trkpt lat="43.487632847152085" lon="11.363172576118178"><ele>449.5</ele><time>2026-04-06T14:22:45.999Z</time></trkpt><trkpt lat="43.487542326178826" lon="11.363285901236045"><ele>451.0</ele><time>2026-04-06T14:22:46.999Z</time></trkpt><trkpt lat="43.487431700340956" lon="11.363385779286196"><ele>451.0</ele><time>2026-04-06T14:22:47.999Z</time></trkpt><trkpt lat="43.487298635324464" lon="11.363497560929584"><ele>451.0</ele><time>2026-04-06T14:22:48.999Z</time></trkpt><trkpt lat="43.48715215392123" lon="11.363622404440695"><ele>451.0</ele><time>2026-04-06T14:22:49.999Z</time></trkpt><trkpt lat="43.487011411239436" lon="11.363750039230029"><ele>456.0</ele><time>2026-04-06T14:22:50.999Z</time></trkpt><trkpt lat="43.48686876130748" lon="11.363886199960081"><ele>461.0</ele><time>2026-04-06T14:22:51.999Z</time></trkpt><trkpt lat="43.48673804588376" lon="11.364028334607621"><ele>466.0</ele><time>2026-04-06T14:22:52.999Z</time></trkpt><trkpt lat="43.486636069510475" lon="11.364171939546111"><ele>466.0</ele><time>2026-04-06T14:22:53.999Z</time></trkpt><trkpt lat="43.486550796363545" lon="11.364333685176717"><ele>466.0</ele><time>2026-04-06T14:22:54.999Z</time></trkpt><trkpt lat="43.48646321152299" lon="11.364509951968868"><ele>466.0</ele><time>2026-04-06T14:22:55.999Z</time></trkpt><trkpt lat="43.48633200706804" lon="11.364648827079954"><ele>471.25</ele><time>2026-04-06T14:22:56.999Z</time></trkpt><trkpt lat="43.48622962975097" lon="11.364819017135103"><ele>476.5</ele><time>2026-04-06T14:22:57.999Z</time></trkpt><trkpt lat="43.48613840932688" lon="11.364978924885522"><ele>481.75</ele><time>2026-04-06T14:22:58.999Z</time></trkpt><trkpt lat="43.48607659631453" lon="11.365128343474929"><ele>487.0</ele><time>2026-04-06T14:22:59.999Z</time></trkpt><trkpt lat="43.486016435112646" lon="11.36524854218357"><ele>487.0</ele><time>2026-04-06T14:23:00.999Z</time></trkpt><trkpt lat="43.48593901824478" lon="11.365353854742155"><ele>487.0</ele><time>2026-04-06T14:23:01.999Z</time></trkpt><trkpt lat="43.4858362301867" lon="11.365439762473905"><ele>487.0</ele><time>2026-04-06T14:23:02.999Z</time></trkpt><trkpt lat="43.48572286410796" lon="11.365523619275034"><ele>487.0</ele><time>2026-04-06T14:23:03.999Z</time></trkpt><trkpt lat="43.48561114406769" lon="11.365611249607278"><ele>484.75</ele><time>2026-04-06T14:23:04.999Z</time></trkpt><trkpt lat="43.48550490349848" lon="11.36570213658458"><ele>482.5</ele><time>2026-04-06T14:23:05.999Z</time></trkpt><trkpt lat="43.48539938898814" lon="11.365807778177494"><ele>480.25</ele><time>2026-04-06T14:23:06.999Z</time></trkpt><trkpt lat="43.485294065420945" lon="11.365916329031432"><ele>478.0</ele><time>2026-04-06T14:23:07.999Z</time></trkpt><trkpt lat="43.48520122666586" lon="11.366009346476291"><ele>480.2</ele><time>2026-04-06T14:23:08.999Z</time></trkpt><trkpt lat="43.485123274717886" lon="11.366091954214708"><ele>482.4</ele><time>2026-04-06T14:23:09.999Z</time></trkpt><trkpt lat="43.48504975620573" lon="11.366172672137163"><ele>484.59999999999997</ele><time>2026-04-06T14:23:10.999Z</time></trkpt><trkpt lat="43.484972497747016" lon="11.366246944661615"><ele>486.79999999999995</ele><time>2026-04-06T14:23:11.999Z</time></trkpt><trkpt lat="43.484894963800684" lon="11.366318916615006"><ele>489.0</ele><time>2026-04-06T14:23:12.999Z</time></trkpt><trkpt lat="43.484817148708245" lon="11.366388078032996"><ele>489.0</ele><time>2026-04-06T14:23:13.999Z</time></trkpt><trkpt lat="43.48475213082794" lon="11.366445516194501"><ele>489.0</ele><time>2026-04-06T14:23:14.999Z</time></trkpt><trkpt lat="43.4846891904222" lon="11.366496064958111"><ele>489.0</ele><time>2026-04-06T14:23:15.999Z</time></trkpt><trkpt lat="43.4846239654072" lon="11.366544983473394"><ele>489.0</ele><time>2026-04-06T14:23:16.999Z</time></trkpt><trkpt lat="43.48452978889268" lon="11.366596838138756"><ele>489.0</ele><time>2026-04-06T14:23:18.999Z</time></trkpt><trkpt lat="43.48448703662137" lon="11.366677826492285"><ele>489.0</ele><time>2026-04-06T14:23:20.999Z</time></trkpt><trkpt lat="43.484456329676945" lon="11.366790288354348"><ele>490.2</ele><time>2026-04-06T14:23:22.999Z</time></trkpt><trkpt lat="43.48436213427451" lon="11.36664149309146"><ele>491.4</ele><time>2026-04-06T14:23:50Z</time></trkpt><trkpt lat="43.48437109787558" lon="11.366461353839329"><ele>492.6</ele><time>2026-04-06T14:23:52Z</time></trkpt><trkpt lat="43.48438360810389" lon="11.366362648669469"><ele>493.8</ele><time>2026-04-06T14:23:53Z</time></trkpt><trkpt lat="43.48440027729235" lon="11.366265045414089"><ele>495.0</ele><time>2026-04-06T14:23:54Z</time></trkpt><trkpt lat="43.4844168603281" lon="11.366150034529971"><ele>496.0</ele><time>2026-04-06T14:23:55Z</time></trkpt><trkpt lat="43.48443117300701" lon="11.366030726981288"><ele>497.0</ele><time>2026-04-06T14:23:56Z</time></trkpt><trkpt lat="43.48443610600029" lon="11.3658984459412"><ele>498.0</ele><time>2026-04-06T14:23:57Z</time></trkpt><trkpt lat="43.48441517491974" lon="11.365781466489965"><ele>499.0</ele><time>2026-04-06T14:23:58Z</time></trkpt><trkpt lat="43.484368735716274" lon="11.365696367992928"><ele>500.0</ele><time>2026-04-06T14:23:59Z</time></trkpt><trkpt lat="43.48429862242703" lon="11.36562839423518"><ele>501.0</ele><time>2026-04-06T14:24:00Z</time></trkpt><trkpt lat="43.48421806880907" lon="11.365559907169697"><ele>501.0</ele><time>2026-04-06T14:24:01Z</time></trkpt><trkpt lat="43.48414307082954" lon="11.365502988342108"><ele>501.0</ele><time>2026-04-06T14:24:02Z</time></trkpt><trkpt lat="43.484079461991506" lon="11.36545974811565"><ele>501.0</ele><time>2026-04-06T14:24:03Z</time></trkpt><trkpt lat="43.483996251386145" lon="11.36543758706145"><ele>501.0</ele><time>2026-04-06T14:24:05Z</time></trkpt><trkpt lat="43.483842519550464" lon="11.365439606913712"><ele>501.0</ele><time>2026-04-06T14:24:07Z</time></trkpt><trkpt lat="43.483809586337735" lon="11.36564399496364"><ele>502.20000000000005</ele><time>2026-04-06T14:24:07.999Z</time></trkpt><trkpt lat="43.48371847815889" lon="11.365768043065879"><ele>503.40000000000003</ele><time>2026-04-06T14:24:08.999Z</time></trkpt><trkpt lat="43.48363710858907" lon="11.365889351457408"><ele>504.6</ele><time>2026-04-06T14:24:09.999Z</time></trkpt><trkpt lat="43.48356965716617" lon="11.365990845355565"><ele>505.8</ele><time>2026-04-06T14:24:10.999Z</time></trkpt><trkpt lat="43.48350319673972" lon="11.366089897099675"><ele>507.0</ele><time>2026-04-06T14:24:11.999Z</time></trkpt><trkpt lat="43.48341890852333" lon="11.366205675271935"><ele>507.0</ele><time>2026-04-06T14:24:12.999Z</time></trkpt><trkpt lat="43.483329669494246" lon="11.366310998174274"><ele>507.00000000000006</ele><time>2026-04-06T14:24:13.999Z</time></trkpt><trkpt lat="43.48324300808176" lon="11.366393502217804"><ele>507.00000000000006</ele><time>2026-04-06T14:24:14.999Z</time></trkpt><trkpt lat="43.483145080431605" lon="11.366458781542118"><ele>507.0</ele><time>2026-04-06T14:24:15.999Z</time></trkpt><trkpt lat="43.48303935377954" lon="11.366497348703664"><ele>507.0</ele><time>2026-04-06T14:24:16.999Z</time></trkpt><trkpt lat="43.48292461692642" lon="11.366477909300825"><ele>503.25</ele><time>2026-04-06T14:24:17.999Z</time></trkpt><trkpt lat="43.482802518349516" lon="11.36646555085453"><ele>499.5</ele><time>2026-04-06T14:24:18.999Z</time></trkpt><trkpt lat="43.482664719463514" lon="11.366419266994859"><ele>495.75</ele><time>2026-04-06T14:24:19.999Z</time></trkpt><trkpt lat="43.482526283785354" lon="11.366384439748131"><ele>492.0</ele><time>2026-04-06T14:24:20.999Z</time></trkpt><trkpt lat="43.482404919400835" lon="11.366366132099131"><ele>492.0</ele><time>2026-04-06T14:24:21.999Z</time></trkpt><trkpt lat="43.482296871164536" lon="11.366384725784277"><ele>492.0</ele><time>2026-04-06T14:24:22.999Z</time></trkpt><trkpt lat="43.48219352638851" lon="11.366445903869515"><ele>492.0</ele><time>2026-04-06T14:24:23.999Z</time></trkpt><trkpt lat="43.48210543377053" lon="11.366567225901074"><ele>492.0</ele><time>2026-04-06T14:24:24.999Z</time></trkpt><trkpt lat="43.48201915326409" lon="11.366713460548716"><ele>493.0</ele><time>2026-04-06T14:24:25.999Z</time></trkpt><trkpt lat="43.48193255523483" lon="11.366857441478807"><ele>494.0</ele><time>2026-04-06T14:24:26.999Z</time></trkpt><trkpt lat="43.481846943071794" lon="11.366975917463982"><ele>495.0</ele><time>2026-04-06T14:24:27.999Z</time></trkpt><trkpt lat="43.481748001918746" lon="11.367050462151111"><ele>496.0</ele><time>2026-04-06T14:24:28.999Z</time></trkpt><trkpt lat="43.4816301441709" lon="11.367098563245108"><ele>496.0</ele><time>2026-04-06T14:24:29.999Z</time></trkpt><trkpt lat="43.481501629744336" lon="11.367121475600362"><ele>496.0</ele><time>2026-04-06T14:24:30.999Z</time></trkpt><trkpt lat="43.48136071310562" lon="11.367093187604043"><ele>496.0</ele><time>2026-04-06T14:24:31.999Z</time></trkpt><trkpt lat="43.48121611610763" lon="11.367118860367937"><ele>496.0</ele><time>2026-04-06T14:24:32.999Z</time></trkpt><trkpt lat="43.48108771553852" lon="11.367169303108257"><ele>494.5</ele><time>2026-04-06T14:24:33.999Z</time></trkpt><trkpt lat="43.48098173912877" lon="11.367276231986631"><ele>493.0</ele><time>2026-04-06T14:24:34.999Z</time></trkpt><trkpt lat="43.48089411579226" lon="11.367418343120042"><ele>491.5</ele><time>2026-04-06T14:24:35.999Z</time></trkpt><trkpt lat="43.48082820643502" lon="11.367567672399877"><ele>490.0</ele><time>2026-04-06T14:24:36.999Z</time></trkpt><trkpt lat="43.48075090579519" lon="11.367673516478954"><ele>490.0</ele><time>2026-04-06T14:24:37.999Z</time></trkpt><trkpt lat="43.48065935728013" lon="11.36773184704795"><ele>490.0</ele><time>2026-04-06T14:24:38.999Z</time></trkpt><trkpt lat="43.48056214516939" lon="11.367736309786572"><ele>490.0</ele><time>2026-04-06T14:24:39.999Z</time></trkpt><trkpt lat="43.48047457692536" lon="11.367668545774585"><ele>490.0</ele><time>2026-04-06T14:24:40.999Z</time></trkpt><trkpt lat="43.480375795338475" lon="11.367620314832278"><ele>490.0</ele><time>2026-04-06T14:24:41.999Z</time></trkpt><trkpt lat="43.48027551393402" lon="11.367588467530458"><ele>491.00000000000006</ele><time>2026-04-06T14:24:42.999Z</time></trkpt><trkpt lat="43.48018723151813" lon="11.367622828146173"><ele>492.0</ele><time>2026-04-06T14:24:43.999Z</time></trkpt><trkpt lat="43.480127521798565" lon="11.367672444774438"><ele>493.0</ele><time>2026-04-06T14:24:44.999Z</time></trkpt><trkpt lat="43.48007480558054" lon="11.367729300327351"><ele>494.0</ele><time>2026-04-06T14:24:57.999Z</time></trkpt><trkpt lat="43.480034156225976" lon="11.367849896826474"><ele>495.00000000000006</ele><time>2026-04-06T14:25:00.999Z</time></trkpt><trkpt lat="43.47999921301015" lon="11.367931419773916"><ele>496.0</ele><time>2026-04-06T14:25:01.999Z</time></trkpt><trkpt lat="43.479944704880296" lon="11.367994967406904"><ele>493.20000000000005</ele><time>2026-04-06T14:25:02.999Z</time></trkpt><trkpt lat="43.47989005710128" lon="11.368067493404515"><ele>490.40000000000003</ele><time>2026-04-06T14:25:03.999Z</time></trkpt><trkpt lat="43.479829370036924" lon="11.368154592411262"><ele>487.6</ele><time>2026-04-06T14:25:04.999Z</time></trkpt><trkpt lat="43.479761707023485" lon="11.368246337350726"><ele>484.8</ele><time>2026-04-06T14:25:05.999Z</time></trkpt><trkpt lat="43.47968754116941" lon="11.368347635546211"><ele>482.0</ele><time>2026-04-06T14:25:06.999Z</time></trkpt><trkpt lat="43.47961279546329" lon="11.368454995707879"><ele>481.75</ele><time>2026-04-06T14:25:07.999Z</time></trkpt><trkpt lat="43.47953175968698" lon="11.36856637152606"><ele>481.5</ele><time>2026-04-06T14:25:08.999Z</time></trkpt><trkpt lat="43.479450889009584" lon="11.368684850102039"><ele>481.25</ele><time>2026-04-06T14:25:09.999Z</time></trkpt><trkpt lat="43.47936401804886" lon="11.368814594686947"><ele>481.0</ele><time>2026-04-06T14:25:10.999Z</time></trkpt><trkpt lat="43.47927805435262" lon="11.368944082127168"><ele>481.0</ele><time>2026-04-06T14:25:11.999Z</time></trkpt><trkpt lat="43.47918784452749" lon="11.369077675216495"><ele>481.0</ele><time>2026-04-06T14:25:12.999Z</time></trkpt><trkpt lat="43.47909440983383" lon="11.369208067878787"><ele>481.0</ele><time>2026-04-06T14:25:13.999Z</time></trkpt><trkpt lat="43.479001852299454" lon="11.36933892283811"><ele>481.0</ele><time>2026-04-06T14:25:14.999Z</time></trkpt><trkpt lat="43.47891358633362" lon="11.36946139407052"><ele>481.0</ele><time>2026-04-06T14:25:15.999Z</time></trkpt><trkpt lat="43.478830003101734" lon="11.36957951969495"><ele>481.0</ele><time>2026-04-06T14:25:16.999Z</time></trkpt><trkpt lat="43.47874663722245" lon="11.369683644046507"><ele>481.0</ele><time>2026-04-06T14:25:17.999Z</time></trkpt><trkpt lat="43.47865426726201" lon="11.36976436913612"><ele>481.0</ele><time>2026-04-06T14:25:18.999Z</time></trkpt><trkpt lat="43.47855561597081" lon="11.369810667246728"><ele>481.0</ele><time>2026-04-06T14:25:19.999Z</time></trkpt><trkpt lat="43.47844240750867" lon="11.369816686524208"><ele>479.0</ele><time>2026-04-06T14:25:20.999Z</time></trkpt><trkpt lat="43.47832655776195" lon="11.369786452727139"><ele>477.0</ele><time>2026-04-06T14:25:21.999Z</time></trkpt><trkpt lat="43.47822044574446" lon="11.369758176893768"><ele>475.0</ele><time>2026-04-06T14:25:22.999Z</time></trkpt><trkpt lat="43.47812691610889" lon="11.369761410928644"><ele>473.0</ele><time>2026-04-06T14:25:23.999Z</time></trkpt><trkpt lat="43.47804042343474" lon="11.369799597966058"><ele>471.0</ele><time>2026-04-06T14:25:24.999Z</time></trkpt><trkpt lat="43.4779693023947" lon="11.369874127189926"><ele>471.0</ele><time>2026-04-06T14:25:25.999Z</time></trkpt><trkpt lat="43.47792981077677" lon="11.369974624576903"><ele>471.0</ele><time>2026-04-06T14:25:26.999Z</time></trkpt><trkpt lat="43.47792535533703" lon="11.370086616494145"><ele>471.0</ele><time>2026-04-06T14:25:27.999Z</time></trkpt><trkpt lat="43.477944331233125" lon="11.370207744056973"><ele>471.0</ele><time>2026-04-06T14:25:28.999Z</time></trkpt><trkpt lat="43.47798653690348" lon="11.370354476847359"><ele>471.0</ele><time>2026-04-06T14:25:29.999Z</time></trkpt><trkpt lat="43.478036361106625" lon="11.370530820819578"><ele>469.0</ele><time>2026-04-06T14:25:30.999Z</time></trkpt><trkpt lat="43.47808288359869" lon="11.370715599670419"><ele>467.0</ele><time>2026-04-06T14:25:31.999Z</time></trkpt><trkpt lat="43.47812516126336" lon="11.370886959276458"><ele>465.0</ele><time>2026-04-06T14:25:32.999Z</time></trkpt><trkpt lat="43.47816705153505" lon="11.371043676046602"><ele>463.0</ele><time>2026-04-06T14:25:33.999Z</time></trkpt><trkpt lat="43.47820953175469" lon="11.371191275461488"><ele>463.0</ele><time>2026-04-06T14:25:34.999Z</time></trkpt><trkpt lat="43.47823900024692" lon="11.371337307647948"><ele>462.99999999999994</ele><time>2026-04-06T14:25:35.999Z</time></trkpt><trkpt lat="43.4782440021189" lon="11.371486282308496"><ele>462.99999999999994</ele><time>2026-04-06T14:25:36.999Z</time></trkpt><trkpt lat="43.478197642423176" lon="11.371628407288105"><ele>463.0</ele><time>2026-04-06T14:25:37.999Z</time></trkpt><trkpt lat="43.478128862732625" lon="11.371755278890955"><ele>463.0</ele><time>2026-04-06T14:25:38.999Z</time></trkpt><trkpt lat="43.47805123030417" lon="11.371881125995476"><ele>461.0</ele><time>2026-04-06T14:25:39.999Z</time></trkpt><trkpt lat="43.47791848895685" lon="11.371953471507174"><ele>459.0</ele><time>2026-04-06T14:25:40.999Z</time></trkpt><trkpt lat="43.477767566705914" lon="11.371969590695183"><ele>457.0</ele><time>2026-04-06T14:25:42Z</time></trkpt><trkpt lat="43.477604761765335" lon="11.372002015224382"><ele>457.0</ele><time>2026-04-06T14:25:43Z</time></trkpt><trkpt lat="43.47746139670191" lon="11.371945388349534"><ele>457.0</ele><time>2026-04-06T14:25:44Z</time></trkpt><trkpt lat="43.47731287805376" lon="11.371891396863857"><ele>457.0</ele><time>2026-04-06T14:25:45Z</time></trkpt><trkpt lat="43.47717812967083" lon="11.371813811038228"><ele>457.0</ele><time>2026-04-06T14:25:46Z</time></trkpt><trkpt lat="43.47705055123339" lon="11.37176488873836"><ele>456.5</ele><time>2026-04-06T14:25:47Z</time></trkpt><trkpt lat="43.47693446538905" lon="11.37177930229218"><ele>456.0</ele><time>2026-04-06T14:25:48Z</time></trkpt><trkpt lat="43.47683197108762" lon="11.371832757634403"><ele>455.5</ele><time>2026-04-06T14:25:49Z</time></trkpt><trkpt lat="43.47674472193709" lon="11.371940588232663"><ele>455.0</ele><time>2026-04-06T14:25:50Z</time></trkpt><trkpt lat="43.47668742329389" lon="11.372092386970918"><ele>452.0</ele><time>2026-04-06T14:25:51Z</time></trkpt><trkpt lat="43.47665815465333" lon="11.37229757694906"><ele>449.0</ele><time>2026-04-06T14:25:52Z</time></trkpt><trkpt lat="43.47664244791163" lon="11.372538565687632"><ele>446.0</ele><time>2026-04-06T14:25:53Z</time></trkpt><trkpt lat="43.47662603342803" lon="11.372765829396522"><ele>446.0</ele><time>2026-04-06T14:25:54Z</time></trkpt><trkpt lat="43.47660124088693" lon="11.372971233920612"><ele>446.0</ele><time>2026-04-06T14:25:55Z</time></trkpt><trkpt lat="43.476574193150526" lon="11.373168122315919"><ele>446.0</ele><time>2026-04-06T14:25:56Z</time></trkpt><trkpt lat="43.4765526792853" lon="11.373346174757488"><ele>446.0</ele><time>2026-04-06T14:25:57Z</time></trkpt><trkpt lat="43.47652580717641" lon="11.373494153861452"><ele>444.8</ele><time>2026-04-06T14:25:58Z</time></trkpt><trkpt lat="43.476484050766246" lon="11.37361923446957"><ele>443.6</ele><time>2026-04-06T14:25:59Z</time></trkpt><trkpt lat="43.476416144775385" lon="11.373709465545685"><ele>442.4</ele><time>2026-04-06T14:26:00Z</time></trkpt><trkpt lat="43.47631450538397" lon="11.37376205373916"><ele>441.2</ele><time>2026-04-06T14:26:01Z</time></trkpt><trkpt lat="43.476181347944014" lon="11.373752028275801"><ele>440.0</ele><time>2026-04-06T14:26:02Z</time></trkpt><trkpt lat="43.47602074834549" lon="11.373779180840005"><ele>440.0</ele><time>2026-04-06T14:26:03Z</time></trkpt><trkpt lat="43.475848765825454" lon="11.373788468002871"><ele>440.0</ele><time>2026-04-06T14:26:04Z</time></trkpt><trkpt lat="43.47567581675739" lon="11.37381971719837"><ele>440.0</ele><time>2026-04-06T14:26:05Z</time></trkpt><trkpt lat="43.475503982982865" lon="11.373846521088014"><ele>433.3333333333333</ele><time>2026-04-06T14:26:06Z</time></trkpt><trkpt lat="43.47533543081375" lon="11.373870193019004"><ele>426.66666666666663</ele><time>2026-04-06T14:26:07Z</time></trkpt><trkpt lat="43.47517231704441" lon="11.373892852912858"><ele>420.0</ele><time>2026-04-06T14:26:08Z</time></trkpt><trkpt lat="43.4750209465623" lon="11.373914068881852"><ele>420.0</ele><time>2026-04-06T14:26:09Z</time></trkpt><trkpt lat="43.47488852339138" lon="11.373911363596825"><ele>420.0</ele><time>2026-04-06T14:26:10Z</time></trkpt><trkpt lat="43.47478345924534" lon="11.373871883985004"><ele>420.0</ele><time>2026-04-06T14:26:11Z</time></trkpt><trkpt lat="43.47469422588463" lon="11.373795388471239"><ele>420.0</ele><time>2026-04-06T14:26:12Z</time></trkpt><trkpt lat="43.47461286254162" lon="11.373670944800905"><ele>422.25</ele><time>2026-04-06T14:26:13Z</time></trkpt><trkpt lat="43.47452266759167" lon="11.373538614725623"><ele>424.5</ele><time>2026-04-06T14:26:14Z</time></trkpt><trkpt lat="43.47441653632218" lon="11.37348936540573"><ele>426.75</ele><time>2026-04-06T14:26:15Z</time></trkpt><trkpt lat="43.474301306072874" lon="11.37350252796021"><ele>429.0</ele><time>2026-04-06T14:26:16Z</time></trkpt><trkpt lat="43.47418818120936" lon="11.373558661935933"><ele>429.0</ele><time>2026-04-06T14:26:17Z</time></trkpt><trkpt lat="43.474087190661415" lon="11.373647317187912"><ele>429.0</ele><time>2026-04-06T14:26:18Z</time></trkpt><trkpt lat="43.47399308524943" lon="11.373777053909087"><ele>429.0</ele><time>2026-04-06T14:26:19Z</time></trkpt><trkpt lat="43.473903885602915" lon="11.373937423114048"><ele>429.0</ele><time>2026-04-06T14:26:20Z</time></trkpt><trkpt lat="43.47381652249775" lon="11.374102959934344"><ele>425.25</ele><time>2026-04-06T14:26:21Z</time></trkpt><trkpt lat="43.47371971142622" lon="11.374248645824208"><ele>421.5</ele><time>2026-04-06T14:26:22Z</time></trkpt><trkpt lat="43.47360629777071" lon="11.374350750602003"><ele>417.75</ele><time>2026-04-06T14:26:23Z</time></trkpt><trkpt lat="43.47347578990301" lon="11.374380117543037"><ele>414.0</ele><time>2026-04-06T14:26:24Z</time></trkpt><trkpt lat="43.47333271354612" lon="11.374396003455159"><ele>414.0</ele><time>2026-04-06T14:26:25Z</time></trkpt><trkpt lat="43.47317863028009" lon="11.374345789945416"><ele>414.0</ele><time>2026-04-06T14:26:26Z</time></trkpt><trkpt lat="43.47302059457055" lon="11.374246593139334"><ele>414.0</ele><time>2026-04-06T14:26:27Z</time></trkpt><trkpt lat="43.472869214693844" lon="11.37414626097421"><ele>410.33333333333337</ele><time>2026-04-06T14:26:28Z</time></trkpt><trkpt lat="43.47272116015629" lon="11.374053893863552"><ele>406.6666666666667</ele><time>2026-04-06T14:26:29Z</time></trkpt><trkpt lat="43.47258464843392" lon="11.373972568669338"><ele>403.0</ele><time>2026-04-06T14:26:29.999Z</time></trkpt><trkpt lat="43.47244485732143" lon="11.37390702137839"><ele>403.0</ele><time>2026-04-06T14:26:30.999Z</time></trkpt><trkpt lat="43.472298953351356" lon="11.373888497029185"><ele>403.0</ele><time>2026-04-06T14:26:31.999Z</time></trkpt><trkpt lat="43.47214599987938" lon="11.373911783970046"><ele>403.0</ele><time>2026-04-06T14:26:32.999Z</time></trkpt><trkpt lat="43.4719951895169" lon="11.373952922905326"><ele>401.0</ele><time>2026-04-06T14:26:33.999Z</time></trkpt><trkpt lat="43.47184234215265" lon="11.373993551249518"><ele>399.0</ele><time>2026-04-06T14:26:34.999Z</time></trkpt><trkpt lat="43.471684069145034" lon="11.374035428214503"><ele>397.0</ele><time>2026-04-06T14:26:35.999Z</time></trkpt><trkpt lat="43.47152434585131" lon="11.37408166742916"><ele>397.0</ele><time>2026-04-06T14:26:36.999Z</time></trkpt><trkpt lat="43.47137503077612" lon="11.374130514077555"><ele>397.0</ele><time>2026-04-06T14:26:37.999Z</time></trkpt><trkpt lat="43.47123441688385" lon="11.374183094000308"><ele>397.0</ele><time>2026-04-06T14:26:38.999Z</time></trkpt><trkpt lat="43.471098703470894" lon="11.374225785302801"><ele>397.0</ele><time>2026-04-06T14:26:39.999Z</time></trkpt><trkpt lat="43.470957848407785" lon="11.374252928201447"><ele>396.33333333333337</ele><time>2026-04-06T14:26:40.999Z</time></trkpt><trkpt lat="43.47080937308613" lon="11.3742642705984"><ele>395.66666666666663</ele><time>2026-04-06T14:26:41.999Z</time></trkpt><trkpt lat="43.470660039549635" lon="11.374272905896706"><ele>395.0</ele><time>2026-04-06T14:26:42.999Z</time></trkpt><trkpt lat="43.470502979007094" lon="11.374277679918867"><ele>394.0</ele><time>2026-04-06T14:26:43.999Z</time></trkpt><trkpt lat="43.47034881687886" lon="11.374272269924846"><ele>393.0</ele><time>2026-04-06T14:26:44.999Z</time></trkpt><trkpt lat="43.47019515499316" lon="11.374261036224018"><ele>392.0</ele><time>2026-04-06T14:26:45.999Z</time></trkpt><trkpt lat="43.470038552434424" lon="11.37425032231354"><ele>392.0</ele><time>2026-04-06T14:26:46.999Z</time></trkpt><trkpt lat="43.46988210333488" lon="11.374243561808214"><ele>392.0</ele><time>2026-04-06T14:26:47.999Z</time></trkpt><trkpt lat="43.46973008326878" lon="11.374239323650933"><ele>392.0</ele><time>2026-04-06T14:26:48.999Z</time></trkpt><trkpt lat="43.4695906809734" lon="11.374234294885467"><ele>392.0</ele><time>2026-04-06T14:26:49.999Z</time></trkpt><trkpt lat="43.4694525444356" lon="11.374232294002192"><ele>390.25</ele><time>2026-04-06T14:26:50.999Z</time></trkpt><trkpt lat="43.46931521584474" lon="11.37423245677786"><ele>388.5</ele><time>2026-04-06T14:26:51.999Z</time></trkpt><trkpt lat="43.46919196868136" lon="11.374224956829673"><ele>386.75</ele><time>2026-04-06T14:26:52.999Z</time></trkpt><trkpt lat="43.46907778353728" lon="11.374200821319171"><ele>385.0</ele><time>2026-04-06T14:26:53.999Z</time></trkpt><trkpt lat="43.46897239807711" lon="11.374153736244551"><ele>385.0</ele><time>2026-04-06T14:26:54.999Z</time></trkpt><trkpt lat="43.46887133600638" lon="11.374068790235466"><ele>385.0</ele><time>2026-04-06T14:26:55.999Z</time></trkpt><trkpt lat="43.46877642718123" lon="11.373925275537488"><ele>385.0</ele><time>2026-04-06T14:26:56.999Z</time></trkpt><trkpt lat="43.468674490725576" lon="11.37378379618554"><ele>385.0</ele><time>2026-04-06T14:26:57.999Z</time></trkpt><trkpt lat="43.468584100552455" lon="11.373641676708235"><ele>384.5</ele><time>2026-04-06T14:26:58.999Z</time></trkpt><trkpt lat="43.46849061026827" lon="11.373528696276125"><ele>384.0</ele><time>2026-04-06T14:26:59.999Z</time></trkpt><trkpt lat="43.468390484615625" lon="11.373450276384082"><ele>383.5</ele><time>2026-04-06T14:27:00.999Z</time></trkpt><trkpt lat="43.46828450366167" lon="11.373401589121347"><ele>383.0</ele><time>2026-04-06T14:27:01.999Z</time></trkpt><trkpt lat="43.46818760026508" lon="11.373361001213029"><ele>383.0</ele><time>2026-04-06T14:27:02.999Z</time></trkpt><trkpt lat="43.46809579459004" lon="11.373318646495118"><ele>383.0</ele><time>2026-04-06T14:27:03.999Z</time></trkpt><trkpt lat="43.468017530588405" lon="11.373276724609786"><ele>383.0</ele><time>2026-04-06T14:27:04.999Z</time></trkpt><trkpt lat="43.46795958685511" lon="11.37323597671145"><ele>383.0</ele><time>2026-04-06T14:27:05.999Z</time></trkpt><trkpt lat="43.46788972021548" lon="11.373129998933676"><ele>383.0</ele><time>2026-04-06T14:27:07.999Z</time></trkpt><trkpt lat="43.467882774660005" lon="11.373035713862421"><ele>383.0</ele><time>2026-04-06T14:27:08.999Z</time></trkpt><trkpt lat="43.467880338368715" lon="11.372929419747981"><ele>381.83333333333337</ele><time>2026-04-06T14:27:09.999Z</time></trkpt><trkpt lat="43.46787385748605" lon="11.372830223414642"><ele>380.6666666666667</ele><time>2026-04-06T14:27:10.999Z</time></trkpt><trkpt lat="43.46785963823447" lon="11.372729151169873"><ele>379.5</ele><time>2026-04-06T14:27:11.999Z</time></trkpt><trkpt lat="43.46783484874825" lon="11.372610728580575"><ele>378.3333333333333</ele><time>2026-04-06T14:27:12.999Z</time></trkpt><trkpt lat="43.46779980037655" lon="11.372488234231286"><ele>377.16666666666663</ele><time>2026-04-06T14:27:13.999Z</time></trkpt><trkpt lat="43.46776068326915" lon="11.372368025776382"><ele>376.0</ele><time>2026-04-06T14:27:14.999Z</time></trkpt><trkpt lat="43.46771268643525" lon="11.372244030575201"><ele>376.8</ele><time>2026-04-06T14:27:15.999Z</time></trkpt><trkpt lat="43.46766351615614" lon="11.372115980645349"><ele>377.6</ele><time>2026-04-06T14:27:16.999Z</time></trkpt><trkpt lat="43.467622199832505" lon="11.372005548388868"><ele>378.4</ele><time>2026-04-06T14:27:17.999Z</time></trkpt><trkpt lat="43.46758194450389" lon="11.37190342068568"><ele>379.2</ele><time>2026-04-06T14:27:18.999Z</time></trkpt><trkpt lat="43.467534335153516" lon="11.371808113734888"><ele>380.0</ele><time>2026-04-06T14:27:19.999Z</time></trkpt><trkpt lat="43.467475368531815" lon="11.37170970299695"><ele>380.0</ele><time>2026-04-06T14:27:20.999Z</time></trkpt><trkpt lat="43.46741559465623" lon="11.37162999083891"><ele>380.0</ele><time>2026-04-06T14:27:21.999Z</time></trkpt><trkpt lat="43.46734717813705" lon="11.371563816572936"><ele>380.0</ele><time>2026-04-06T14:27:22.999Z</time></trkpt><trkpt lat="43.4672610625881" lon="11.371500053239851"><ele>380.0</ele><time>2026-04-06T14:27:23.999Z</time></trkpt><trkpt lat="43.467161453820665" lon="11.37143016543645"><ele>380.0</ele><time>2026-04-06T14:27:24.999Z</time></trkpt><trkpt lat="43.46705269965012" lon="11.371364729284291"><ele>379.8</ele><time>2026-04-06T14:27:25.999Z</time></trkpt><trkpt lat="43.4669587049748" lon="11.371302776236252"><ele>379.6</ele><time>2026-04-06T14:27:26.999Z</time></trkpt><trkpt lat="43.46687416583457" lon="11.37121329403171"><ele>379.4</ele><time>2026-04-06T14:27:27.999Z</time></trkpt><trkpt lat="43.46677997957308" lon="11.371156625897122"><ele>379.2</ele><time>2026-04-06T14:27:28.999Z</time></trkpt><trkpt lat="43.46669596149984" lon="11.371053944355523"><ele>379.0</ele><time>2026-04-06T14:27:29.999Z</time></trkpt><trkpt lat="43.46661018801845" lon="11.370920548948776"><ele>379.0</ele><time>2026-04-06T14:27:30.999Z</time></trkpt><trkpt lat="43.46652544494275" lon="11.37078382170678"><ele>379.0</ele><time>2026-04-06T14:27:31.999Z</time></trkpt><trkpt lat="43.46644119417423" lon="11.370649653255414"><ele>379.0</ele><time>2026-04-06T14:27:32.999Z</time></trkpt><trkpt lat="43.46635889244041" lon="11.370513301513064"><ele>379.0</ele><time>2026-04-06T14:27:33.999Z</time></trkpt><trkpt lat="43.466293821759685" lon="11.370353302804226"><ele>378.25</ele><time>2026-04-06T14:27:34.999Z</time></trkpt><trkpt lat="43.46621842206158" lon="11.370190956187336"><ele>377.5</ele><time>2026-04-06T14:27:35.999Z</time></trkpt><trkpt lat="43.46613842857025" lon="11.37003985489827"><ele>376.75</ele><time>2026-04-06T14:27:36.999Z</time></trkpt><trkpt lat="43.466087390699386" lon="11.369868542725975"><ele>376.0</ele><time>2026-04-06T14:27:37.999Z</time></trkpt><trkpt lat="43.46601630149754" lon="11.369703962877596"><ele>375.5</ele><time>2026-04-06T14:27:38.999Z</time></trkpt><trkpt lat="43.46596367821703" lon="11.369516982805754"><ele>375.0</ele><time>2026-04-06T14:27:39.999Z</time></trkpt><trkpt lat="43.46591600171201" lon="11.369340618283633"><ele>374.5</ele><time>2026-04-06T14:27:40.999Z</time></trkpt><trkpt lat="43.46587457498587" lon="11.369174711034953"><ele>374.0</ele><time>2026-04-06T14:27:41.999Z</time></trkpt><trkpt lat="43.46583733973897" lon="11.369016744642064"><ele>374.0</ele><time>2026-04-06T14:27:42.999Z</time></trkpt><trkpt lat="43.4658023683566" lon="11.368852387852131"><ele>374.0</ele><time>2026-04-06T14:27:43.999Z</time></trkpt><trkpt lat="43.46577253057257" lon="11.368704948463595"><ele>374.0</ele><time>2026-04-06T14:27:44.999Z</time></trkpt><trkpt lat="43.465753719879636" lon="11.368565126479796"><ele>374.0</ele><time>2026-04-06T14:27:45.999Z</time></trkpt><trkpt lat="43.46574883031843" lon="11.368417624383232"><ele>374.0</ele><time>2026-04-06T14:27:46.999Z</time></trkpt><trkpt lat="43.465762761985594" lon="11.368274989086844"><ele>374.0</ele><time>2026-04-06T14:27:48Z</time></trkpt><trkpt lat="43.46578227275819" lon="11.368134157951799"><ele>374.0</ele><time>2026-04-06T14:27:49Z</time></trkpt><trkpt lat="43.465813162073076" lon="11.367986543201415"><ele>374.0</ele><time>2026-04-06T14:27:50Z</time></trkpt><trkpt lat="43.46584750987863" lon="11.367829427883144"><ele>374.0</ele><time>2026-04-06T14:27:51Z</time></trkpt><trkpt lat="43.46587834590796" lon="11.367669457446492"><ele>373.25</ele><time>2026-04-06T14:27:52Z</time></trkpt><trkpt lat="43.46592480231794" lon="11.367510087933411"><ele>372.5</ele><time>2026-04-06T14:27:53Z</time></trkpt><trkpt lat="43.465942155135394" lon="11.36733503619658"><ele>371.75</ele><time>2026-04-06T14:27:54Z</time></trkpt><trkpt lat="43.46597915683817" lon="11.367166669915562"><ele>371.0</ele><time>2026-04-06T14:27:55Z</time></trkpt><trkpt lat="43.46601430677857" lon="11.366996584998228"><ele>370.5</ele><time>2026-04-06T14:27:56Z</time></trkpt><trkpt lat="43.466052541133614" lon="11.366821750905007"><ele>370.0</ele><time>2026-04-06T14:27:57Z</time></trkpt><trkpt lat="43.46609081168139" lon="11.366643129222842"><ele>369.5</ele><time>2026-04-06T14:27:58Z</time></trkpt><trkpt lat="43.46613068547911" lon="11.366460252308972"><ele>369.0</ele><time>2026-04-06T14:27:59Z</time></trkpt><trkpt lat="43.46617005846476" lon="11.366276570041478"><ele>368.75</ele><time>2026-04-06T14:28:00Z</time></trkpt><trkpt lat="43.46620935668061" lon="11.366095333309413"><ele>368.5</ele><time>2026-04-06T14:28:01Z</time></trkpt><trkpt lat="43.46624997187683" lon="11.365914176547216"><ele>368.25</ele><time>2026-04-06T14:28:02Z</time></trkpt><trkpt lat="43.46629133542369" lon="11.36572753389834"><ele>368.0</ele><time>2026-04-06T14:28:03Z</time></trkpt><trkpt lat="43.46633291954605" lon="11.365536970069897"><ele>368.5</ele><time>2026-04-06T14:28:04Z</time></trkpt><trkpt lat="43.46637497904269" lon="11.365353466637409"><ele>369.0</ele><time>2026-04-06T14:28:05Z</time></trkpt><trkpt lat="43.46641489203351" lon="11.365164269117999"><ele>369.5</ele><time>2026-04-06T14:28:06Z</time></trkpt><trkpt lat="43.46645596364323" lon="11.364976015931866"><ele>370.0</ele><time>2026-04-06T14:28:07Z</time></trkpt><trkpt lat="43.46649549395238" lon="11.364788561838004"><ele>369.75</ele><time>2026-04-06T14:28:08Z</time></trkpt><trkpt lat="43.46653299539173" lon="11.364606194464658"><ele>369.5</ele><time>2026-04-06T14:28:09Z</time></trkpt><trkpt lat="43.46656923698774" lon="11.364427811477778"><ele>369.25</ele><time>2026-04-06T14:28:10Z</time></trkpt><trkpt lat="43.46660597333502" lon="11.36425965216013"><ele>369.0</ele><time>2026-04-06T14:28:11Z</time></trkpt><trkpt lat="43.466646921929915" lon="11.36408119393966"><ele>369.0</ele><time>2026-04-06T14:28:12Z</time></trkpt><trkpt lat="43.46668977584329" lon="11.363905838758175"><ele>369.0</ele><time>2026-04-06T14:28:13Z</time></trkpt><trkpt lat="43.466726000872335" lon="11.363740999627142"><ele>369.0</ele><time>2026-04-06T14:28:14Z</time></trkpt><trkpt lat="43.466758655143714" lon="11.363599004850112"><ele>369.0</ele><time>2026-04-06T14:28:15Z</time></trkpt><trkpt lat="43.46678895539114" lon="11.363467546779233"><ele>369.0</ele><time>2026-04-06T14:28:16Z</time></trkpt><trkpt lat="43.466816490081385" lon="11.363345714161015"><ele>369.0</ele><time>2026-04-06T14:28:17Z</time></trkpt><trkpt lat="43.46684190776739" lon="11.36323348404673"><ele>369.0</ele><time>2026-04-06T14:28:18Z</time></trkpt><trkpt lat="43.46685621122643" lon="11.36313077489068"><ele>369.0</ele><time>2026-04-06T14:28:19Z</time></trkpt><trkpt lat="43.466873723109366" lon="11.363037687332264"><ele>369.0</ele><time>2026-04-06T14:28:20Z</time></trkpt><trkpt lat="43.46685725663522" lon="11.362934804126263"><ele>369.0</ele><time>2026-04-06T14:28:21Z</time></trkpt><trkpt lat="43.46681523850594" lon="11.362831584992536"><ele>369.0</ele><time>2026-04-06T14:28:22Z</time></trkpt><trkpt lat="43.46676226335857" lon="11.362720041228673"><ele>369.0</ele><time>2026-04-06T14:28:23Z</time></trkpt><trkpt lat="43.46666615008328" lon="11.362602904202209"><ele>369.0</ele><time>2026-04-06T14:28:24Z</time></trkpt><trkpt lat="43.46658786022545" lon="11.362476415678987"><ele>369.0</ele><time>2026-04-06T14:28:25Z</time></trkpt><trkpt lat="43.46652388895889" lon="11.362352824670335"><ele>369.0</ele><time>2026-04-06T14:28:26Z</time></trkpt><trkpt lat="43.466445942624425" lon="11.36224291271823"><ele>369.0</ele><time>2026-04-06T14:28:27Z</time></trkpt><trkpt lat="43.46639582264723" lon="11.362103183977611"><ele>369.0</ele><time>2026-04-06T14:28:28Z</time></trkpt><trkpt lat="43.46635075197529" lon="11.361954418377637"><ele>369.0</ele><time>2026-04-06T14:28:29Z</time></trkpt><trkpt lat="43.46630492536946" lon="11.361793320727038"><ele>369.2</ele><time>2026-04-06T14:28:30Z</time></trkpt><trkpt lat="43.466264949817614" lon="11.361634536254002"><ele>369.4</ele><time>2026-04-06T14:28:31Z</time></trkpt><trkpt lat="43.46622955160892" lon="11.361486991345641"><ele>369.6</ele><time>2026-04-06T14:28:32Z</time></trkpt><trkpt lat="43.46621241860786" lon="11.36134954414537"><ele>369.8</ele><time>2026-04-06T14:28:33Z</time></trkpt><trkpt lat="43.46617474288394" lon="11.361237215691084"><ele>370.0</ele><time>2026-04-06T14:28:34Z</time></trkpt><trkpt lat="43.4661310411948" lon="11.361152273509381"><ele>370.0</ele><time>2026-04-06T14:28:35Z</time></trkpt><trkpt lat="43.46606102995033" lon="11.361062340237181"><ele>370.0</ele><time>2026-04-06T14:28:36Z</time></trkpt><trkpt lat="43.46596536154701" lon="11.360986523751162"><ele>370.0</ele><time>2026-04-06T14:28:37Z</time></trkpt><trkpt lat="43.46585489628969" lon="11.360944553295603"><ele>370.0</ele><time>2026-04-06T14:28:38Z</time></trkpt><trkpt lat="43.465780006791036" lon="11.360850807514717"><ele>370.0</ele><time>2026-04-06T14:28:39Z</time></trkpt><trkpt lat="43.4657099346589" lon="11.360766076228536"><ele>370.0</ele><time>2026-04-06T14:28:40Z</time></trkpt><trkpt lat="43.46565103152851" lon="11.360662462689593"><ele>370.0</ele><time>2026-04-06T14:28:41Z</time></trkpt><trkpt lat="43.46559615953722" lon="11.360537372244558"><ele>370.0</ele><time>2026-04-06T14:28:42Z</time></trkpt><trkpt lat="43.46553115845977" lon="11.360399079748257"><ele>370.0</ele><time>2026-04-06T14:28:43Z</time></trkpt><trkpt lat="43.46546450304337" lon="11.360276234578794"><ele>370.0</ele><time>2026-04-06T14:28:44Z</time></trkpt><trkpt lat="43.465399421363706" lon="11.360164625431407"><ele>369.0</ele><time>2026-04-06T14:28:44.999Z</time></trkpt><trkpt lat="43.46531658280653" lon="11.360078775640561"><ele>368.0</ele><time>2026-04-06T14:28:45.999Z</time></trkpt><trkpt lat="43.465227622030405" lon="11.360004460569176"><ele>367.0</ele><time>2026-04-06T14:28:46.999Z</time></trkpt><trkpt lat="43.465179863455376" lon="11.359874858873873"><ele>366.0</ele><time>2026-04-06T14:28:47.999Z</time></trkpt><trkpt lat="43.46512528163929" lon="11.35972686303176"><ele>365.0</ele><time>2026-04-06T14:28:48.999Z</time></trkpt><trkpt lat="43.46508086591615" lon="11.359591417813784"><ele>365.0</ele><time>2026-04-06T14:28:49.999Z</time></trkpt><trkpt lat="43.46504218486159" lon="11.359462312002343"><ele>365.0</ele><time>2026-04-06T14:28:50.999Z</time></trkpt><trkpt lat="43.46501171599109" lon="11.359335054586511"><ele>365.0</ele><time>2026-04-06T14:28:51.999Z</time></trkpt><trkpt lat="43.46498485632268" lon="11.359170076372509"><ele>365.0</ele><time>2026-04-06T14:28:52.999Z</time></trkpt><trkpt lat="43.46496138581661" lon="11.358975194739303"><ele>366.0</ele><time>2026-04-06T14:28:53.999Z</time></trkpt><trkpt lat="43.46493469064422" lon="11.358782486380742"><ele>367.0</ele><time>2026-04-06T14:28:54.999Z</time></trkpt><trkpt lat="43.46490071602805" lon="11.358615605458168"><ele>368.0</ele><time>2026-04-06T14:28:55.999Z</time></trkpt><trkpt lat="43.46486393494059" lon="11.35846275091475"><ele>369.0</ele><time>2026-04-06T14:28:56.999Z</time></trkpt><trkpt lat="43.46482452637618" lon="11.358309301690943"><ele>369.0</ele><time>2026-04-06T14:28:57.999Z</time></trkpt><trkpt lat="43.464782402211846" lon="11.3581598330194"><ele>369.0</ele><time>2026-04-06T14:28:58.999Z</time></trkpt><trkpt lat="43.4647360038947" lon="11.358023213602408"><ele>369.0</ele><time>2026-04-06T14:28:59.999Z</time></trkpt><trkpt lat="43.46467883989988" lon="11.357894128743006"><ele>369.0</ele><time>2026-04-06T14:29:00.999Z</time></trkpt><trkpt lat="43.464615640276726" lon="11.357763927299226"><ele>369.0</ele><time>2026-04-06T14:29:01.999Z</time></trkpt><trkpt lat="43.4645515039634" lon="11.357648699628689"><ele>368.0</ele><time>2026-04-06T14:29:02.999Z</time></trkpt><trkpt lat="43.46447809965429" lon="11.357543525016595"><ele>367.0</ele><time>2026-04-06T14:29:03.999Z</time></trkpt><trkpt lat="43.46440305297616" lon="11.35746040065413"><ele>366.0</ele><time>2026-04-06T14:29:04.999Z</time></trkpt><trkpt lat="43.464317909355515" lon="11.357378618062578"><ele>365.0</ele><time>2026-04-06T14:29:05.999Z</time></trkpt><trkpt lat="43.46421894387928" lon="11.357290648082309"><ele>364.0</ele><time>2026-04-06T14:29:06.999Z</time></trkpt><trkpt lat="43.4641198934262" lon="11.357213385054928"><ele>364.79999999999995</ele><time>2026-04-06T14:29:07.999Z</time></trkpt><trkpt lat="43.46402709496176" lon="11.357151296392678"><ele>365.59999999999997</ele><time>2026-04-06T14:29:08.999Z</time></trkpt><trkpt lat="43.46393615627923" lon="11.35710009680387"><ele>366.4</ele><time>2026-04-06T14:29:09.999Z</time></trkpt><trkpt lat="43.463845815781255" lon="11.357067913920414"><ele>367.2</ele><time>2026-04-06T14:29:10.999Z</time></trkpt><trkpt lat="43.4637472954193" lon="11.357041191486541"><ele>368.0</ele><time>2026-04-06T14:29:11.999Z</time></trkpt><trkpt lat="43.463649042803596" lon="11.357034618367045"><ele>368.0</ele><time>2026-04-06T14:29:12.999Z</time></trkpt><trkpt lat="43.463558673167014" lon="11.357018318002115"><ele>368.0</ele><time>2026-04-06T14:29:13.999Z</time></trkpt><trkpt lat="43.46346334340423" lon="11.356995244699377"><ele>368.0</ele><time>2026-04-06T14:29:14.999Z</time></trkpt><trkpt lat="43.46336624519849" lon="11.356974347356234"><ele>368.0</ele><time>2026-04-06T14:29:15.999Z</time></trkpt><trkpt lat="43.46327529084682" lon="11.356988806171973"><ele>368.0</ele><time>2026-04-06T14:29:16.999Z</time></trkpt><trkpt lat="43.46320283769631" lon="11.356962099236712"><ele>368.0</ele><time>2026-04-06T14:29:17.999Z</time></trkpt><trkpt lat="43.46312706545366" lon="11.356950648807612"><ele>368.0</ele><time>2026-04-06T14:29:18.999Z</time></trkpt><trkpt lat="43.46305601839985" lon="11.356908825260556"><ele>368.0</ele><time>2026-04-06T14:29:19.999Z</time></trkpt><trkpt lat="43.462978209061404" lon="11.356841309200822"><ele>368.0</ele><time>2026-04-06T14:29:20.999Z</time></trkpt><trkpt lat="43.46288416204014" lon="11.356749071916331"><ele>368.0</ele><time>2026-04-06T14:29:21.999Z</time></trkpt><trkpt lat="43.46277813772305" lon="11.356639652911372"><ele>367.0</ele><time>2026-04-06T14:29:22.999Z</time></trkpt><trkpt lat="43.462668775822095" lon="11.356525142183898"><ele>366.0</ele><time>2026-04-06T14:29:23.999Z</time></trkpt><trkpt lat="43.462549564110496" lon="11.356419801417136"><ele>365.0</ele><time>2026-04-06T14:29:24.999Z</time></trkpt><trkpt lat="43.462434317918564" lon="11.356327018634254"><ele>364.0</ele><time>2026-04-06T14:29:25.999Z</time></trkpt><trkpt lat="43.462315697066835" lon="11.356245960910272"><ele>364.0</ele><time>2026-04-06T14:29:26.999Z</time></trkpt><trkpt lat="43.46220249289931" lon="11.35613653396465"><ele>364.0</ele><time>2026-04-06T14:29:27.999Z</time></trkpt><trkpt lat="43.46209442851436" lon="11.356022040701179"><ele>364.0</ele><time>2026-04-06T14:29:28.999Z</time></trkpt><trkpt lat="43.461982066264106" lon="11.355911195944143"><ele>364.0</ele><time>2026-04-06T14:29:29.999Z</time></trkpt><trkpt lat="43.46187841865343" lon="11.35579190366526"><ele>362.4</ele><time>2026-04-06T14:29:30.999Z</time></trkpt><trkpt lat="43.46177331234708" lon="11.355695580911782"><ele>360.79999999999995</ele><time>2026-04-06T14:29:31.999Z</time></trkpt><trkpt lat="43.46167283132054" lon="11.355615057199564"><ele>359.20000000000005</ele><time>2026-04-06T14:29:32.999Z</time></trkpt><trkpt lat="43.46158431848922" lon="11.355552301989706"><ele>357.6</ele><time>2026-04-06T14:29:33.999Z</time></trkpt><trkpt lat="43.46150750840415" lon="11.355506652696773"><ele>356.0</ele><time>2026-04-06T14:29:34.999Z</time></trkpt><trkpt lat="43.461436740021384" lon="11.35547631449517"><ele>355.6</ele><time>2026-04-06T14:29:35.999Z</time></trkpt><trkpt lat="43.4613512099412" lon="11.35546710460128"><ele>355.20000000000005</ele><time>2026-04-06T14:29:36.999Z</time></trkpt><trkpt lat="43.461246756336514" lon="11.355491199123929"><ele>354.79999999999995</ele><time>2026-04-06T14:29:37.999Z</time></trkpt><trkpt lat="43.461123599323095" lon="11.35552097416455"><ele>354.4</ele><time>2026-04-06T14:29:38.999Z</time></trkpt><trkpt lat="43.46099603037327" lon="11.35556206541587"><ele>354.0</ele><time>2026-04-06T14:29:39.999Z</time></trkpt><trkpt lat="43.46088775256881" lon="11.355583798308404"><ele>354.0</ele><time>2026-04-06T14:29:40.999Z</time></trkpt><trkpt lat="43.460776098207354" lon="11.355595279804808"><ele>354.0</ele><time>2026-04-06T14:29:41.999Z</time></trkpt><trkpt lat="43.46065078644557" lon="11.355607134701247"><ele>354.0</ele><time>2026-04-06T14:29:42.999Z</time></trkpt><trkpt lat="43.46051949952555" lon="11.355575568469975"><ele>354.0</ele><time>2026-04-06T14:29:43.999Z</time></trkpt><trkpt lat="43.460394534111074" lon="11.355539887106591"><ele>353.25</ele><time>2026-04-06T14:29:44.999Z</time></trkpt><trkpt lat="43.460282574366936" lon="11.355504410355234"><ele>352.5</ele><time>2026-04-06T14:29:45.999Z</time></trkpt><trkpt lat="43.460179365153095" lon="11.355490853622698"><ele>351.75</ele><time>2026-04-06T14:29:46.999Z</time></trkpt><trkpt lat="43.46006457084879" lon="11.355504463352847"><ele>351.0</ele><time>2026-04-06T14:29:47.999Z</time></trkpt><trkpt lat="43.459938798191736" lon="11.35554851300675"><ele>351.0</ele><time>2026-04-06T14:29:48.999Z</time></trkpt><trkpt lat="43.45981713753673" lon="11.355585706368723"><ele>351.0</ele><time>2026-04-06T14:29:49.999Z</time></trkpt><trkpt lat="43.45971112901529" lon="11.355594197638363"><ele>351.0</ele><time>2026-04-06T14:29:50.999Z</time></trkpt><trkpt lat="43.45959904767943" lon="11.355580260868281"><ele>351.0</ele><time>2026-04-06T14:29:51.999Z</time></trkpt><trkpt lat="43.4594857898181" lon="11.355556853062216"><ele>352.25</ele><time>2026-04-06T14:29:53Z</time></trkpt><trkpt lat="43.459366475969816" lon="11.355522911141176"><ele>353.5</ele><time>2026-04-06T14:29:54Z</time></trkpt><trkpt lat="43.459242750441966" lon="11.355493082480068"><ele>354.75</ele><time>2026-04-06T14:29:55Z</time></trkpt><trkpt lat="43.459122909976195" lon="11.355461343186775"><ele>356.0</ele><time>2026-04-06T14:29:56Z</time></trkpt><trkpt lat="43.45900790214725" lon="11.355426662373285"><ele>356.0</ele><time>2026-04-06T14:29:57Z</time></trkpt><trkpt lat="43.458907008199375" lon="11.355385794093296"><ele>356.0</ele><time>2026-04-06T14:29:58Z</time></trkpt><trkpt lat="43.45880806039188" lon="11.355334267115637"><ele>356.0</ele><time>2026-04-06T14:29:59Z</time></trkpt><trkpt lat="43.458699419948644" lon="11.355264688898455"><ele>356.0</ele><time>2026-04-06T14:30:00Z</time></trkpt><trkpt lat="43.45857915031929" lon="11.35517189179607"><ele>354.5</ele><time>2026-04-06T14:30:01Z</time></trkpt><trkpt lat="43.45845866210681" lon="11.355068683443184"><ele>353.0</ele><time>2026-04-06T14:30:02Z</time></trkpt><trkpt lat="43.45834517353443" lon="11.354963176514518"><ele>351.5</ele><time>2026-04-06T14:30:03Z</time></trkpt><trkpt lat="43.45824657666325" lon="11.354867639846116"><ele>350.0</ele><time>2026-04-06T14:30:04Z</time></trkpt><trkpt lat="43.45815686545514" lon="11.354792109749486"><ele>350.0</ele><time>2026-04-06T14:30:05Z</time></trkpt><trkpt lat="43.458063713295196" lon="11.354734680327727"><ele>350.0</ele><time>2026-04-06T14:30:06Z</time></trkpt><trkpt lat="43.457956897900395" lon="11.354696625517628"><ele>350.0</ele><time>2026-04-06T14:30:07Z</time></trkpt><trkpt lat="43.45782244548403" lon="11.354655602025923"><ele>350.0</ele><time>2026-04-06T14:30:08Z</time></trkpt><trkpt lat="43.45767808690227" lon="11.354610859965613"><ele>351.25</ele><time>2026-04-06T14:30:09Z</time></trkpt><trkpt lat="43.45753940335753" lon="11.354565132908354"><ele>352.5</ele><time>2026-04-06T14:30:10Z</time></trkpt><trkpt lat="43.45741247773209" lon="11.354505099384838"><ele>353.75</ele><time>2026-04-06T14:30:11Z</time></trkpt><trkpt lat="43.45730278976368" lon="11.354427348473845"><ele>355.0</ele><time>2026-04-06T14:30:12Z</time></trkpt><trkpt lat="43.45719932595819" lon="11.354358257907"><ele>352.75</ele><time>2026-04-06T14:30:13Z</time></trkpt><trkpt lat="43.45708763646852" lon="11.354313317343124"><ele>350.5</ele><time>2026-04-06T14:30:14Z</time></trkpt><trkpt lat="43.45696935902056" lon="11.354284174171992"><ele>348.25</ele><time>2026-04-06T14:30:15Z</time></trkpt><trkpt lat="43.456828185083104" lon="11.354250925334787"><ele>346.0</ele><time>2026-04-06T14:30:16Z</time></trkpt><trkpt lat="43.456669138601924" lon="11.354213535565618"><ele>346.0</ele><time>2026-04-06T14:30:17Z</time></trkpt><trkpt lat="43.45651265802786" lon="11.354185619718727"><ele>346.0</ele><time>2026-04-06T14:30:18Z</time></trkpt><trkpt lat="43.456378563312235" lon="11.354164210705143"><ele>346.0</ele><time>2026-04-06T14:30:19Z</time></trkpt><trkpt lat="43.45624556888612" lon="11.354144298476498"><ele>346.0</ele><time>2026-04-06T14:30:20Z</time></trkpt><trkpt lat="43.45609440854148" lon="11.354118613976853"><ele>345.75</ele><time>2026-04-06T14:30:21Z</time></trkpt><trkpt lat="43.45596039609261" lon="11.354082135620194"><ele>345.5</ele><time>2026-04-06T14:30:22Z</time></trkpt><trkpt lat="43.45583465278862" lon="11.354034659254676"><ele>345.25</ele><time>2026-04-06T14:30:23Z</time></trkpt><trkpt lat="43.455703023868665" lon="11.353979132968627"><ele>345.0</ele><time>2026-04-06T14:30:24Z</time></trkpt><trkpt lat="43.45557884555038" lon="11.35393178277989"><ele>345.0</ele><time>2026-04-06T14:30:25Z</time></trkpt><trkpt lat="43.45547078017851" lon="11.353896276424777"><ele>345.0</ele><time>2026-04-06T14:30:26Z</time></trkpt><trkpt lat="43.455381687736384" lon="11.35388801439097"><ele>345.0</ele><time>2026-04-06T14:30:27Z</time></trkpt><trkpt lat="43.45529343078855" lon="11.35390465910528"><ele>345.0</ele><time>2026-04-06T14:30:28Z</time></trkpt><trkpt lat="43.455193666336164" lon="11.353932020172739"><ele>345.0</ele><time>2026-04-06T14:30:29Z</time></trkpt><trkpt lat="43.455086342790565" lon="11.35396721019636"><ele>344.5</ele><time>2026-04-06T14:30:30Z</time></trkpt><trkpt lat="43.454976601540444" lon="11.35400359632191"><ele>344.0</ele><time>2026-04-06T14:30:31Z</time></trkpt><trkpt lat="43.45487003407554" lon="11.354035456815055"><ele>343.5</ele><time>2026-04-06T14:30:32Z</time></trkpt><trkpt lat="43.454764524537495" lon="11.354083220923393"><ele>343.0</ele><time>2026-04-06T14:30:33Z</time></trkpt><trkpt lat="43.45465254713223" lon="11.354159076030136"><ele>341.59999999999997</ele><time>2026-04-06T14:30:34Z</time></trkpt><trkpt lat="43.45454865628137" lon="11.354240640505502"><ele>340.2</ele><time>2026-04-06T14:30:35Z</time></trkpt><trkpt lat="43.45445398617251" lon="11.35430307606996"><ele>338.8</ele><time>2026-04-06T14:30:36Z</time></trkpt><trkpt lat="43.454361022436615" lon="11.354344786799627"><ele>337.4</ele><time>2026-04-06T14:30:37Z</time></trkpt><trkpt lat="43.45429341796619" lon="11.354360241102224"><ele>336.0</ele><time>2026-04-06T14:30:38Z</time></trkpt><trkpt lat="43.454219972513854" lon="11.354360129963402"><ele>336.0</ele><time>2026-04-06T14:30:39Z</time></trkpt><trkpt lat="43.454151174684704" lon="11.354339013770673"><ele>336.0</ele><time>2026-04-06T14:30:40Z</time></trkpt><trkpt lat="43.4540795322368" lon="11.354282146965962"><ele>336.0</ele><time>2026-04-06T14:30:41Z</time></trkpt><trkpt lat="43.454025030983786" lon="11.354236753049525"><ele>336.0</ele><time>2026-04-06T14:30:42Z</time></trkpt><trkpt lat="43.45395971739417" lon="11.354236375654848"><ele>336.0</ele><time>2026-04-06T14:30:43Z</time></trkpt><trkpt lat="43.45387720464613" lon="11.354271736127952"><ele>336.0</ele><time>2026-04-06T14:30:44Z</time></trkpt><trkpt lat="43.45376335912576" lon="11.354337548719442"><ele>338.6666666666667</ele><time>2026-04-06T14:30:45Z</time></trkpt><trkpt lat="43.45363000189972" lon="11.354410310475462"><ele>341.33333333333337</ele><time>2026-04-06T14:30:46Z</time></trkpt><trkpt lat="43.45349287624897" lon="11.354479877704225"><ele>344.0</ele><time>2026-04-06T14:30:47Z</time></trkpt><trkpt lat="43.45331333420567" lon="11.354564228924197"><ele>344.0</ele><time>2026-04-06T14:30:48Z</time></trkpt><trkpt lat="43.4531432786764" lon="11.354654558974056"><ele>344.0</ele><time>2026-04-06T14:30:49Z</time></trkpt><trkpt lat="43.453004541213076" lon="11.354733943114597"><ele>344.0</ele><time>2026-04-06T14:30:50Z</time></trkpt><trkpt lat="43.45287963750616" lon="11.354805160259557"><ele>343.5</ele><time>2026-04-06T14:30:51Z</time></trkpt><trkpt lat="43.4527578082904" lon="11.354878025362392"><ele>343.0</ele><time>2026-04-06T14:30:52Z</time></trkpt><trkpt lat="43.452638456195864" lon="11.354951838131898"><ele>342.5</ele><time>2026-04-06T14:30:53Z</time></trkpt><trkpt lat="43.45252241053975" lon="11.355017152609053"><ele>342.0</ele><time>2026-04-06T14:30:54Z</time></trkpt><trkpt lat="43.45241217136542" lon="11.355068145165166"><ele>342.0</ele><time>2026-04-06T14:30:55Z</time></trkpt><trkpt lat="43.452295192657495" lon="11.355117795246318"><ele>342.0</ele><time>2026-04-06T14:30:56Z</time></trkpt><trkpt lat="43.45218527926081" lon="11.355165688914223"><ele>342.0</ele><time>2026-04-06T14:30:57Z</time></trkpt><trkpt lat="43.45208111219033" lon="11.35520809758269"><ele>342.0</ele><time>2026-04-06T14:30:58Z</time></trkpt><trkpt lat="43.45198264151615" lon="11.355238647964853"><ele>342.0</ele><time>2026-04-06T14:30:59Z</time></trkpt><trkpt lat="43.45187558889973" lon="11.355258784491912"><ele>343.40000000000003</ele><time>2026-04-06T14:31:00Z</time></trkpt><trkpt lat="43.451756683428236" lon="11.35527619945727"><ele>344.8</ele><time>2026-04-06T14:31:01Z</time></trkpt><trkpt lat="43.45164903066015" lon="11.355299483995182"><ele>346.2</ele><time>2026-04-06T14:31:02Z</time></trkpt><trkpt lat="43.451550917323914" lon="11.355342618227846"><ele>347.6</ele><time>2026-04-06T14:31:03Z</time></trkpt><trkpt lat="43.45144899695507" lon="11.355416258718167"><ele>349.0</ele><time>2026-04-06T14:31:04Z</time></trkpt><trkpt lat="43.45132708058627" lon="11.355509174435406"><ele>348.5</ele><time>2026-04-06T14:31:05Z</time></trkpt><trkpt lat="43.451211764566146" lon="11.355589850134546"><ele>348.0</ele><time>2026-04-06T14:31:06Z</time></trkpt><trkpt lat="43.451113395372246" lon="11.35566037189337"><ele>347.5</ele><time>2026-04-06T14:31:07Z</time></trkpt><trkpt lat="43.45102237110726" lon="11.35575217725059"><ele>347.0</ele><time>2026-04-06T14:31:08Z</time></trkpt><trkpt lat="43.45092119346214" lon="11.355871370027513"><ele>347.0</ele><time>2026-04-06T14:31:09Z</time></trkpt><trkpt lat="43.45083057995452" lon="11.355995072001079"><ele>347.0</ele><time>2026-04-06T14:31:09.999Z</time></trkpt><trkpt lat="43.450758890018314" lon="11.35607417769676"><ele>347.0</ele><time>2026-04-06T14:31:10.999Z</time></trkpt><trkpt lat="43.450696339271985" lon="11.356138872588346"><ele>347.0</ele><time>2026-04-06T14:31:11.999Z</time></trkpt><trkpt lat="43.45063379672345" lon="11.356202364951587"><ele>347.0</ele><time>2026-04-06T14:31:12.999Z</time></trkpt><trkpt lat="43.450556288603785" lon="11.356287041867171"><ele>345.6</ele><time>2026-04-06T14:31:13.999Z</time></trkpt><trkpt lat="43.45047069599108" lon="11.35637725737175"><ele>344.20000000000005</ele><time>2026-04-06T14:31:14.999Z</time></trkpt><trkpt lat="43.45038549266741" lon="11.356462287687254"><ele>342.8</ele><time>2026-04-06T14:31:15.999Z</time></trkpt><trkpt lat="43.45029754576618" lon="11.356536593241959"><ele>341.4</ele><time>2026-04-06T14:31:16.999Z</time></trkpt><trkpt lat="43.45022376182351" lon="11.35659652430032"><ele>340.0</ele><time>2026-04-06T14:31:17.999Z</time></trkpt><trkpt lat="43.450156660596434" lon="11.356653571735638"><ele>340.0</ele><time>2026-04-06T14:31:18.999Z</time></trkpt><trkpt lat="43.450093839834985" lon="11.35669675544477"><ele>340.0</ele><time>2026-04-06T14:31:19.999Z</time></trkpt><trkpt lat="43.45001789240995" lon="11.356729286088374"><ele>340.0</ele><time>2026-04-06T14:31:20.999Z</time></trkpt><trkpt lat="43.4499227180015" lon="11.356753338887588"><ele>340.0</ele><time>2026-04-06T14:31:21.999Z</time></trkpt><trkpt lat="43.449814402833766" lon="11.356757571963671"><ele>340.0</ele><time>2026-04-06T14:31:22.999Z</time></trkpt><trkpt lat="43.44969721818189" lon="11.356724195209141"><ele>338.4</ele><time>2026-04-06T14:31:23.999Z</time></trkpt><trkpt lat="43.449568810188666" lon="11.356700801050916"><ele>336.8</ele><time>2026-04-06T14:31:24.999Z</time></trkpt><trkpt lat="43.44944544372025" lon="11.356678480231402"><ele>335.20000000000005</ele><time>2026-04-06T14:31:25.999Z</time></trkpt><trkpt lat="43.44934515893985" lon="11.356650184518392"><ele>333.6</ele><time>2026-04-06T14:31:26.999Z</time></trkpt><trkpt lat="43.449263445256705" lon="11.356609949955466"><ele>332.0</ele><time>2026-04-06T14:31:27.999Z</time></trkpt><trkpt lat="43.449173390112115" lon="11.356541134041226"><ele>332.0</ele><time>2026-04-06T14:31:28.999Z</time></trkpt><trkpt lat="43.4490699582739" lon="11.356444586692849"><ele>332.0</ele><time>2026-04-06T14:31:29.999Z</time></trkpt><trkpt lat="43.4489503280908" lon="11.356337432835037"><ele>332.0</ele><time>2026-04-06T14:31:30.999Z</time></trkpt><trkpt lat="43.44881317309169" lon="11.356237889521228"><ele>332.0</ele><time>2026-04-06T14:31:31.999Z</time></trkpt><trkpt lat="43.448649233264035" lon="11.356142549244568"><ele>333.33333333333337</ele><time>2026-04-06T14:31:32.999Z</time></trkpt><trkpt lat="43.44849584891755" lon="11.356054361806914"><ele>334.6666666666667</ele><time>2026-04-06T14:31:33.999Z</time></trkpt><trkpt lat="43.44835484587478" lon="11.355973294697966"><ele>336.0</ele><time>2026-04-06T14:31:34.999Z</time></trkpt><trkpt lat="43.44821719209501" lon="11.355889997209353"><ele>336.0</ele><time>2026-04-06T14:31:35.999Z</time></trkpt><trkpt lat="43.448089178706354" lon="11.355808391635556"><ele>336.0</ele><time>2026-04-06T14:31:36.999Z</time></trkpt><trkpt lat="43.44796064176174" lon="11.355728936880066"><ele>336.0</ele><time>2026-04-06T14:31:37.999Z</time></trkpt><trkpt lat="43.44782607997463" lon="11.355650844653656"><ele>336.0</ele><time>2026-04-06T14:31:38.999Z</time></trkpt><trkpt lat="43.44770345899629" lon="11.355577811081014"><ele>339.25</ele><time>2026-04-06T14:31:39.999Z</time></trkpt><trkpt lat="43.447596210911605" lon="11.35551752528739"><ele>342.5</ele><time>2026-04-06T14:31:40.999Z</time></trkpt><trkpt lat="43.44747984663952" lon="11.355466838420814"><ele>345.75</ele><time>2026-04-06T14:31:41.999Z</time></trkpt><trkpt lat="43.4473476036323" lon="11.355424953660728"><ele>349.0</ele><time>2026-04-06T14:31:42.999Z</time></trkpt><trkpt lat="43.44721311209477" lon="11.355392793994831"><ele>346.0</ele><time>2026-04-06T14:31:43.999Z</time></trkpt><trkpt lat="43.44708105615411" lon="11.355368495546706"><ele>343.0</ele><time>2026-04-06T14:31:44.999Z</time></trkpt><trkpt lat="43.44694918285066" lon="11.355345135184452"><ele>340.0</ele><time>2026-04-06T14:31:45.999Z</time></trkpt><trkpt lat="43.446818013772436" lon="11.355318073659157"><ele>337.0</ele><time>2026-04-06T14:31:46.999Z</time></trkpt><trkpt lat="43.446680096434214" lon="11.355288821654739"><ele>337.0</ele><time>2026-04-06T14:31:47.999Z</time></trkpt><trkpt lat="43.44653997747338" lon="11.355259741559097"><ele>337.0</ele><time>2026-04-06T14:31:48.999Z</time></trkpt><trkpt lat="43.446409307266826" lon="11.355238525881138"><ele>337.0</ele><time>2026-04-06T14:31:49.999Z</time></trkpt><trkpt lat="43.44627719982785" lon="11.355219537023288"><ele>337.0</ele><time>2026-04-06T14:31:50.999Z</time></trkpt><trkpt lat="43.44615732375074" lon="11.355200300404777"><ele>336.0</ele><time>2026-04-06T14:31:51.999Z</time></trkpt><trkpt lat="43.44604755976077" lon="11.355188015516275"><ele>335.0</ele><time>2026-04-06T14:31:52.999Z</time></trkpt><trkpt lat="43.44594864718156" lon="11.355182384913416"><ele>334.0</ele><time>2026-04-06T14:31:53.999Z</time></trkpt><trkpt lat="43.44584929571756" lon="11.355174842984436"><ele>333.0</ele><time>2026-04-06T14:31:54.999Z</time></trkpt><trkpt lat="43.445741396212846" lon="11.355159661253962"><ele>332.0</ele><time>2026-04-06T14:31:55.999Z</time></trkpt><trkpt lat="43.445631690711515" lon="11.35512793174343"><ele>332.0</ele><time>2026-04-06T14:31:56.999Z</time></trkpt><trkpt lat="43.44552805302291" lon="11.355075503952369"><ele>332.0</ele><time>2026-04-06T14:31:57.999Z</time></trkpt><trkpt lat="43.44541922435991" lon="11.354997107477935"><ele>332.0</ele><time>2026-04-06T14:31:59Z</time></trkpt><trkpt lat="43.44531022870391" lon="11.35490260604068"><ele>332.0</ele><time>2026-04-06T14:32:00Z</time></trkpt><trkpt lat="43.44521879315467" lon="11.354807203479883"><ele>331.20000000000005</ele><time>2026-04-06T14:32:01Z</time></trkpt><trkpt lat="43.44514057480609" lon="11.354712406235146"><ele>330.4</ele><time>2026-04-06T14:32:02Z</time></trkpt><trkpt lat="43.445069427553605" lon="11.35461193180193"><ele>329.6</ele><time>2026-04-06T14:32:03Z</time></trkpt><trkpt lat="43.44501566677746" lon="11.354503931580448"><ele>328.79999999999995</ele><time>2026-04-06T14:32:04Z</time></trkpt><trkpt lat="43.44497620807505" lon="11.354386932130945"><ele>328.0</ele><time>2026-04-06T14:32:05Z</time></trkpt><trkpt lat="43.444953754499274" lon="11.354270473994346"><ele>328.0</ele><time>2026-04-06T14:32:06Z</time></trkpt><trkpt lat="43.4449399182598" lon="11.354154841553642"><ele>328.0</ele><time>2026-04-06T14:32:07Z</time></trkpt><trkpt lat="43.44493426896686" lon="11.35403327695055"><ele>328.0</ele><time>2026-04-06T14:32:08Z</time></trkpt><trkpt lat="43.44493204450617" lon="11.353933513184517"><ele>328.0</ele><time>2026-04-06T14:32:09Z</time></trkpt><trkpt lat="43.4448984996423" lon="11.353790217936082"><ele>328.0</ele><time>2026-04-06T14:32:11Z</time></trkpt><trkpt lat="43.44481059973039" lon="11.353716146269102"><ele>327.79999999999995</ele><time>2026-04-06T14:32:13Z</time></trkpt><trkpt lat="43.44474020798084" lon="11.353707737219725"><ele>327.6</ele><time>2026-04-06T14:32:14Z</time></trkpt><trkpt lat="43.44464953493048" lon="11.353743128385469"><ele>327.4</ele><time>2026-04-06T14:32:15Z</time></trkpt><trkpt lat="43.44453203414299" lon="11.35378813693302"><ele>327.20000000000005</ele><time>2026-04-06T14:32:16Z</time></trkpt><trkpt lat="43.44438995304145" lon="11.353840551794171"><ele>327.0</ele><time>2026-04-06T14:32:17Z</time></trkpt><trkpt lat="43.44426463942645" lon="11.35388431559053"><ele>326.25</ele><time>2026-04-06T14:32:18Z</time></trkpt><trkpt lat="43.44416631730399" lon="11.353915919823985"><ele>325.5</ele><time>2026-04-06T14:32:19Z</time></trkpt><trkpt lat="43.444059647718845" lon="11.353966297902394"><ele>324.75</ele><time>2026-04-06T14:32:20Z</time></trkpt><trkpt lat="43.44395043405834" lon="11.354031599205134"><ele>324.0</ele><time>2026-04-06T14:32:21Z</time></trkpt><trkpt lat="43.443830444755726" lon="11.354110452123875"><ele>326.5</ele><time>2026-04-06T14:32:22Z</time></trkpt><trkpt lat="43.443706320745896" lon="11.354190472417875"><ele>329.0</ele><time>2026-04-06T14:32:23Z</time></trkpt><trkpt lat="43.4435760497504" lon="11.354279239038297"><ele>331.5</ele><time>2026-04-06T14:32:24Z</time></trkpt><trkpt lat="43.44344594907632" lon="11.354369374464543"><ele>334.0</ele><time>2026-04-06T14:32:25Z</time></trkpt><trkpt lat="43.443312946424605" lon="11.354458701234165"><ele>334.0</ele><time>2026-04-06T14:32:26Z</time></trkpt><trkpt lat="43.44317832382336" lon="11.354548691268171"><ele>334.0</ele><time>2026-04-06T14:32:27Z</time></trkpt><trkpt lat="43.44303946470383" lon="11.354631456836392"><ele>334.0</ele><time>2026-04-06T14:32:28Z</time></trkpt><trkpt lat="43.44290157287115" lon="11.354707343932235"><ele>334.0</ele><time>2026-04-06T14:32:29Z</time></trkpt><trkpt lat="43.44278369278425" lon="11.354772522228139"><ele>334.5</ele><time>2026-04-06T14:32:30Z</time></trkpt><trkpt lat="43.44267249109736" lon="11.354853904978622"><ele>335.0</ele><time>2026-04-06T14:32:31Z</time></trkpt><trkpt lat="43.44255443961256" lon="11.35495603685631"><ele>335.5</ele><time>2026-04-06T14:32:32Z</time></trkpt><trkpt lat="43.4424410810351" lon="11.355063365662922"><ele>336.0</ele><time>2026-04-06T14:32:33Z</time></trkpt><trkpt lat="43.44233764260356" lon="11.355150357028396"><ele>336.0</ele><time>2026-04-06T14:32:34Z</time></trkpt><trkpt lat="43.44225083902183" lon="11.355211632796962"><ele>336.0</ele><time>2026-04-06T14:32:35Z</time></trkpt><trkpt lat="43.44217047244481" lon="11.35524849705954"><ele>336.0</ele><time>2026-04-06T14:32:36Z</time></trkpt><trkpt lat="43.442088578284036" lon="11.355257484667789"><ele>336.0</ele><time>2026-04-06T14:32:37Z</time></trkpt><trkpt lat="43.44199109640581" lon="11.355267582797383"><ele>336.0</ele><time>2026-04-06T14:32:38Z</time></trkpt><trkpt lat="43.44189740293981" lon="11.355278451801734"><ele>337.1666666666667</ele><time>2026-04-06T14:32:39Z</time></trkpt><trkpt lat="43.441807058310545" lon="11.355293652814382"><ele>338.3333333333333</ele><time>2026-04-06T14:32:40Z</time></trkpt><trkpt lat="43.44171458777976" lon="11.355307270352812"><ele>339.5</ele><time>2026-04-06T14:32:41Z</time></trkpt><trkpt lat="43.44163890260689" lon="11.355330203023659"><ele>340.66666666666663</ele><time>2026-04-06T14:32:42Z</time></trkpt><trkpt lat="43.441565424223064" lon="11.355383947719355"><ele>341.8333333333333</ele><time>2026-04-06T14:32:43Z</time></trkpt><trkpt lat="43.44149973503457" lon="11.355463637619705"><ele>343.0</ele><time>2026-04-06T14:32:44Z</time></trkpt><trkpt lat="43.44144508891722" lon="11.355570949586271"><ele>343.0</ele><time>2026-04-06T14:32:45Z</time></trkpt><trkpt lat="43.44139846852739" lon="11.355657941763148"><ele>343.0</ele><time>2026-04-06T14:32:46Z</time></trkpt><trkpt lat="43.441340561619704" lon="11.355730077380805"><ele>343.0</ele><time>2026-04-06T14:32:47Z</time></trkpt><trkpt lat="43.44127312350285" lon="11.355784328321768"><ele>343.0</ele><time>2026-04-06T14:32:48Z</time></trkpt><trkpt lat="43.441194146739065" lon="11.355829745647702"><ele>343.0</ele><time>2026-04-06T14:32:49Z</time></trkpt><trkpt lat="43.44108232431738" lon="11.35585059365478"><ele>343.0</ele><time>2026-04-06T14:32:51Z</time></trkpt><trkpt lat="43.44101068489475" lon="11.355795291979817"><ele>344.5</ele><time>2026-04-06T14:32:53Z</time></trkpt><trkpt lat="43.44098247729214" lon="11.355711284685393"><ele>346.0</ele><time>2026-04-06T14:32:55Z</time></trkpt><trkpt lat="43.44099870047914" lon="11.355579463147425"><ele>347.5</ele><time>2026-04-06T14:32:57Z</time></trkpt><trkpt lat="43.441051270272055" lon="11.355425933897486"><ele>349.0</ele><time>2026-04-06T14:32:59Z</time></trkpt><trkpt lat="43.44105874893406" lon="11.355314239069754"><ele>350.5</ele><time>2026-04-06T14:33:00Z</time></trkpt><trkpt lat="43.441050517757816" lon="11.355214729147981"><ele>352.0</ele><time>2026-04-06T14:33:01Z</time></trkpt><trkpt lat="43.441033742140604" lon="11.35512264152662"><ele>352.16666666666663</ele><time>2026-04-06T14:33:02Z</time></trkpt><trkpt lat="43.441015341197655" lon="11.355030279728105"><ele>352.3333333333333</ele><time>2026-04-06T14:33:03Z</time></trkpt><trkpt lat="43.44100322152077" lon="11.35492321080914"><ele>352.5</ele><time>2026-04-06T14:33:04Z</time></trkpt><trkpt lat="43.44099180843778" lon="11.354825309204406"><ele>352.6666666666667</ele><time>2026-04-06T14:33:05Z</time></trkpt><trkpt lat="43.44097364881432" lon="11.354720560333162"><ele>352.83333333333337</ele><time>2026-04-06T14:33:06Z</time></trkpt><trkpt lat="43.44095462602688" lon="11.354613349495471"><ele>353.0</ele><time>2026-04-06T14:33:07Z</time></trkpt><trkpt lat="43.44093318016858" lon="11.354508823237596"><ele>353.4</ele><time>2026-04-06T14:33:08Z</time></trkpt><trkpt lat="43.44090979457082" lon="11.354387829846782"><ele>353.79999999999995</ele><time>2026-04-06T14:33:09Z</time></trkpt><trkpt lat="43.44087890489235" lon="11.354265852826098"><ele>354.2</ele><time>2026-04-06T14:33:10Z</time></trkpt><trkpt lat="43.440852094934165" lon="11.35414980237063"><ele>354.6</ele><time>2026-04-06T14:33:11Z</time></trkpt><trkpt lat="43.44082922310823" lon="11.354022487201323"><ele>355.0</ele><time>2026-04-06T14:33:12Z</time></trkpt><trkpt lat="43.440810371858966" lon="11.35389805633469"><ele>356.2</ele><time>2026-04-06T14:33:13Z</time></trkpt><trkpt lat="43.440797762994215" lon="11.353765660173652"><ele>357.4</ele><time>2026-04-06T14:33:14Z</time></trkpt><trkpt lat="43.44078967284614" lon="11.353639024106725"><ele>358.6</ele><time>2026-04-06T14:33:15Z</time></trkpt><trkpt lat="43.440777450982516" lon="11.353492466243331"><ele>359.8</ele><time>2026-04-06T14:33:16Z</time></trkpt><trkpt lat="43.440762669746015" lon="11.35335843744288"><ele>361.0</ele><time>2026-04-06T14:33:17Z</time></trkpt><trkpt lat="43.44074633181703" lon="11.353216137635917"><ele>361.0</ele><time>2026-04-06T14:33:17.999Z</time></trkpt><trkpt lat="43.440729086435645" lon="11.35306213884479"><ele>361.0</ele><time>2026-04-06T14:33:18.999Z</time></trkpt><trkpt lat="43.44071215453668" lon="11.352899394611317"><ele>361.0</ele><time>2026-04-06T14:33:19.999Z</time></trkpt><trkpt lat="43.440693617564364" lon="11.3527389409822"><ele>361.0</ele><time>2026-04-06T14:33:20.999Z</time></trkpt><trkpt lat="43.44067185269628" lon="11.352582400557411"><ele>362.20000000000005</ele><time>2026-04-06T14:33:21.999Z</time></trkpt><trkpt lat="43.440646502017415" lon="11.352442274294594"><ele>363.40000000000003</ele><time>2026-04-06T14:33:22.999Z</time></trkpt><trkpt lat="43.44062110113008" lon="11.352312750581047"><ele>364.6</ele><time>2026-04-06T14:33:23.999Z</time></trkpt><trkpt lat="43.440599910376655" lon="11.352177694146413"><ele>365.8</ele><time>2026-04-06T14:33:24.999Z</time></trkpt><trkpt lat="43.440584419835915" lon="11.352047167167994"><ele>367.0</ele><time>2026-04-06T14:33:25.999Z</time></trkpt><trkpt lat="43.44057443515727" lon="11.351925519550917"><ele>367.8</ele><time>2026-04-06T14:33:26.999Z</time></trkpt><trkpt lat="43.44056870851591" lon="11.351828649764895"><ele>368.6</ele><time>2026-04-06T14:33:27.999Z</time></trkpt><trkpt lat="43.44055839706931" lon="11.351693255005614"><ele>369.40000000000003</ele><time>2026-04-06T14:33:29.999Z</time></trkpt><trkpt lat="43.44050934693075" lon="11.351571102020824"><ele>370.20000000000005</ele><time>2026-04-06T14:33:32.999Z</time></trkpt><trkpt lat="43.44043199317913" lon="11.35143247552301"><ele>371.0</ele><time>2026-04-06T14:33:34.999Z</time></trkpt><trkpt lat="43.44039497790856" lon="11.351344853743445"><ele>371.33333333333337</ele><time>2026-04-06T14:33:35.999Z</time></trkpt><trkpt lat="43.44035763561887" lon="11.351237564663837"><ele>371.6666666666667</ele><time>2026-04-06T14:33:36.999Z</time></trkpt><trkpt lat="43.440329359131574" lon="11.351133779041463"><ele>372.0</ele><time>2026-04-06T14:33:37.999Z</time></trkpt><trkpt lat="43.44030220544814" lon="11.351033806877789"><ele>372.3333333333333</ele><time>2026-04-06T14:33:38.999Z</time></trkpt><trkpt lat="43.44026952894761" lon="11.35094196779723"><ele>372.66666666666663</ele><time>2026-04-06T14:33:39.999Z</time></trkpt><trkpt lat="43.44023099825399" lon="11.350860339348323"><ele>373.0</ele><time>2026-04-06T14:33:40.999Z</time></trkpt><trkpt lat="43.44018587477193" lon="11.350782685623797"><ele>373.0</ele><time>2026-04-06T14:33:41.999Z</time></trkpt><trkpt lat="43.4401286551331" lon="11.350705887857853"><ele>373.0</ele><time>2026-04-06T14:33:42.999Z</time></trkpt><trkpt lat="43.44006257950946" lon="11.350641362905483"><ele>373.0</ele><time>2026-04-06T14:33:43.999Z</time></trkpt><trkpt lat="43.43998806675604" lon="11.350581033852032"><ele>373.0</ele><time>2026-04-06T14:33:44.999Z</time></trkpt><trkpt lat="43.4399060197746" lon="11.35052037361429"><ele>373.0</ele><time>2026-04-06T14:33:45.999Z</time></trkpt><trkpt lat="43.43982285660266" lon="11.35046476634951"><ele>373.0</ele><time>2026-04-06T14:33:46.999Z</time></trkpt><trkpt lat="43.439745151604015" lon="11.350418935694982"><ele>373.59999999999997</ele><time>2026-04-06T14:33:47.999Z</time></trkpt><trkpt lat="43.4396647836422" lon="11.350375197967187"><ele>374.2</ele><time>2026-04-06T14:33:48.999Z</time></trkpt><trkpt lat="43.43957922092986" lon="11.350332808572302"><ele>374.8</ele><time>2026-04-06T14:33:49.999Z</time></trkpt><trkpt lat="43.43947752593098" lon="11.350290988755004"><ele>375.4</ele><time>2026-04-06T14:33:50.999Z</time></trkpt><trkpt lat="43.43936676361223" lon="11.35025140729897"><ele>376.0</ele><time>2026-04-06T14:33:51.999Z</time></trkpt><trkpt lat="43.43925499331169" lon="11.350202133429491"><ele>376.25</ele><time>2026-04-06T14:33:52.999Z</time></trkpt><trkpt lat="43.439136738161494" lon="11.350158050357077"><ele>376.5</ele><time>2026-04-06T14:33:53.999Z</time></trkpt><trkpt lat="43.439033433746616" lon="11.350108536238636"><ele>376.75</ele><time>2026-04-06T14:33:54.999Z</time></trkpt><trkpt lat="43.43894179885021" lon="11.350063074618427"><ele>377.0</ele><time>2026-04-06T14:33:55.999Z</time></trkpt><trkpt lat="43.4388213086804" lon="11.350010490506573"><ele>376.5</ele><time>2026-04-06T14:33:56.999Z</time></trkpt><trkpt lat="43.43869674870465" lon="11.349957934301916"><ele>376.0</ele><time>2026-04-06T14:33:57.999Z</time></trkpt><trkpt lat="43.43858977960196" lon="11.349910461547571"><ele>375.5</ele><time>2026-04-06T14:33:58.999Z</time></trkpt><trkpt lat="43.4384888502867" lon="11.349857935980793"><ele>375.0</ele><time>2026-04-06T14:33:59.999Z</time></trkpt><trkpt lat="43.43838331222253" lon="11.349781473982945"><ele>377.25</ele><time>2026-04-06T14:34:00.999Z</time></trkpt><trkpt lat="43.438281162060726" lon="11.349689792545874"><ele>379.5</ele><time>2026-04-06T14:34:01.999Z</time></trkpt><trkpt lat="43.438187943328565" lon="11.34957807961158"><ele>381.75</ele><time>2026-04-06T14:34:02.999Z</time></trkpt><trkpt lat="43.43811041325896" lon="11.349440327216076"><ele>384.0</ele><time>2026-04-06T14:34:03.999Z</time></trkpt><trkpt lat="43.438038272388034" lon="11.349270574455542"><ele>384.0</ele><time>2026-04-06T14:34:05Z</time></trkpt><trkpt lat="43.43798223196576" lon="11.349058968864979"><ele>384.0</ele><time>2026-04-06T14:34:06Z</time></trkpt><trkpt lat="43.437943040527436" lon="11.34886475757258"><ele>384.0</ele><time>2026-04-06T14:34:07Z</time></trkpt><trkpt lat="43.4379094288062" lon="11.348691797145648"><ele>384.0</ele><time>2026-04-06T14:34:08Z</time></trkpt><trkpt lat="43.43786667062283" lon="11.348544048976773"><ele>382.6</ele><time>2026-04-06T14:34:09Z</time></trkpt><trkpt lat="43.437801913701115" lon="11.348432806116817"><ele>381.2</ele><time>2026-04-06T14:34:10Z</time></trkpt><trkpt lat="43.43771333997975" lon="11.348362478414398"><ele>379.8</ele><time>2026-04-06T14:34:11Z</time></trkpt><trkpt lat="43.437612511718534" lon="11.348323872147919"><ele>378.40000000000003</ele><time>2026-04-06T14:34:12Z</time></trkpt><trkpt lat="43.437508731899605" lon="11.348320104885042"><ele>377.0</ele><time>2026-04-06T14:34:13Z</time></trkpt><trkpt lat="43.4374122578409" lon="11.34837305573282"><ele>377.0</ele><time>2026-04-06T14:34:14Z</time></trkpt><trkpt lat="43.43733180447643" lon="11.348453797151524"><ele>377.0</ele><time>2026-04-06T14:34:15Z</time></trkpt><trkpt lat="43.43727415893709" lon="11.348572034208146"><ele>377.0</ele><time>2026-04-06T14:34:16Z</time></trkpt><trkpt lat="43.43723690382033" lon="11.348716497235088"><ele>377.0</ele><time>2026-04-06T14:34:17Z</time></trkpt><trkpt lat="43.43720884216738" lon="11.34886469953204"><ele>377.0</ele><time>2026-04-06T14:34:18Z</time></trkpt><trkpt lat="43.4371804189131" lon="11.34899888820314"><ele>376.33333333333337</ele><time>2026-04-06T14:34:19Z</time></trkpt><trkpt lat="43.43715095433601" lon="11.349108314771978"><ele>375.6666666666667</ele><time>2026-04-06T14:34:20Z</time></trkpt><trkpt lat="43.437106717137794" lon="11.34920848385092"><ele>375.0</ele><time>2026-04-06T14:34:21Z</time></trkpt><trkpt lat="43.43705309605495" lon="11.349280737044344"><ele>374.3333333333333</ele><time>2026-04-06T14:34:22Z</time></trkpt><trkpt lat="43.436991195267794" lon="11.349340676168664"><ele>373.66666666666663</ele><time>2026-04-06T14:34:23Z</time></trkpt><trkpt lat="43.43692990324261" lon="11.349374344426733"><ele>373.0</ele><time>2026-04-06T14:34:24Z</time></trkpt><trkpt lat="43.436861286894725" lon="11.349381850285976"><ele>373.0</ele><time>2026-04-06T14:34:25Z</time></trkpt><trkpt lat="43.436785122908056" lon="11.349368511186462"><ele>373.0</ele><time>2026-04-06T14:34:26Z</time></trkpt><trkpt lat="43.436717203148014" lon="11.34930869584497"><ele>373.0</ele><time>2026-04-06T14:34:27Z</time></trkpt><trkpt lat="43.43664419929702" lon="11.349242373418814"><ele>373.0</ele><time>2026-04-06T14:34:28Z</time></trkpt><trkpt lat="43.43656492274538" lon="11.349157755504544"><ele>373.0</ele><time>2026-04-06T14:34:29Z</time></trkpt><trkpt lat="43.43646377151987" lon="11.34908174317787"><ele>373.0</ele><time>2026-04-06T14:34:30Z</time></trkpt><trkpt lat="43.43637451521846" lon="11.348994829804678"><ele>373.0</ele><time>2026-04-06T14:34:31Z</time></trkpt><trkpt lat="43.43628489880016" lon="11.348914201092411"><ele>373.0</ele><time>2026-04-06T14:34:32Z</time></trkpt><trkpt lat="43.436196545594946" lon="11.348847041075011"><ele>373.0</ele><time>2026-04-06T14:34:33Z</time></trkpt><trkpt lat="43.43610705236029" lon="11.348784207945108"><ele>373.0</ele><time>2026-04-06T14:34:34Z</time></trkpt><trkpt lat="43.43603624404477" lon="11.348711490426828"><ele>375.0</ele><time>2026-04-06T14:34:35Z</time></trkpt><trkpt lat="43.43595604589314" lon="11.348666447970258"><ele>377.0</ele><time>2026-04-06T14:34:36Z</time></trkpt><trkpt lat="43.43586645484513" lon="11.348636723331794"><ele>379.0</ele><time>2026-04-06T14:34:37Z</time></trkpt><trkpt lat="43.43577544708035" lon="11.348632197121258"><ele>381.0</ele><time>2026-04-06T14:34:38Z</time></trkpt><trkpt lat="43.43566895545913" lon="11.34866324872574"><ele>383.0</ele><time>2026-04-06T14:34:39Z</time></trkpt><trkpt lat="43.43555753261626" lon="11.348679945866943"><ele>383.2</ele><time>2026-04-06T14:34:40Z</time></trkpt><trkpt lat="43.43544172782258" lon="11.348726481894252"><ele>383.4</ele><time>2026-04-06T14:34:41Z</time></trkpt><trkpt lat="43.43533617766941" lon="11.34876117473859"><ele>383.59999999999997</ele><time>2026-04-06T14:34:42Z</time></trkpt><trkpt lat="43.43524650463274" lon="11.348782243262592"><ele>383.79999999999995</ele><time>2026-04-06T14:34:43Z</time></trkpt><trkpt lat="43.43517039922802" lon="11.348783050631107"><ele>384.0</ele><time>2026-04-06T14:34:44Z</time></trkpt><trkpt lat="43.43509711182884" lon="11.34876792447794"><ele>384.0</ele><time>2026-04-06T14:34:45Z</time></trkpt><trkpt lat="43.43502446753573" lon="11.34872434195736"><ele>384.0</ele><time>2026-04-06T14:34:46Z</time></trkpt><trkpt lat="43.43494753183028" lon="11.348691432696912"><ele>384.0</ele><time>2026-04-06T14:34:47Z</time></trkpt><trkpt lat="43.43487094106246" lon="11.348675741745536"><ele>384.0</ele><time>2026-04-06T14:34:48Z</time></trkpt><trkpt lat="43.434805187816394" lon="11.348671484643477"><ele>384.0</ele><time>2026-04-06T14:34:49Z</time></trkpt><trkpt lat="43.43472912644007" lon="11.348705170696297"><ele>384.0</ele><time>2026-04-06T14:34:50Z</time></trkpt><trkpt lat="43.434660942328414" lon="11.348819311969471"><ele>386.0</ele><time>2026-04-06T14:34:51Z</time></trkpt><trkpt lat="43.434593814602756" lon="11.348936150243832"><ele>388.0</ele><time>2026-04-06T14:34:52Z</time></trkpt><trkpt lat="43.43454880132098" lon="11.349076901697378"><ele>390.0</ele><time>2026-04-06T14:34:53Z</time></trkpt><trkpt lat="43.43449830933436" lon="11.349235191340378"><ele>392.0</ele><time>2026-04-06T14:34:54Z</time></trkpt><trkpt lat="43.43445309234922" lon="11.349392982607718"><ele>392.0</ele><time>2026-04-06T14:34:55Z</time></trkpt><trkpt lat="43.43440923449958" lon="11.349531052637548"><ele>392.0</ele><time>2026-04-06T14:34:56Z</time></trkpt><trkpt lat="43.43436174441528" lon="11.34966160955123"><ele>392.0</ele><time>2026-04-06T14:34:57Z</time></trkpt><trkpt lat="43.434316396898225" lon="11.34976861968562"><ele>392.0</ele><time>2026-04-06T14:34:58Z</time></trkpt><trkpt lat="43.434259157874926" lon="11.349868718349773"><ele>392.0</ele><time>2026-04-06T14:34:59Z</time></trkpt><trkpt lat="43.43416283791721" lon="11.3499605944005"><ele>392.75</ele><time>2026-04-06T14:35:00Z</time></trkpt><trkpt lat="43.43406588152729" lon="11.350080209592385"><ele>393.5</ele><time>2026-04-06T14:35:01Z</time></trkpt><trkpt lat="43.43396227107513" lon="11.350207120636371"><ele>394.25</ele><time>2026-04-06T14:35:02Z</time></trkpt><trkpt lat="43.43386020267213" lon="11.3503575285785"><ele>395.0</ele><time>2026-04-06T14:35:03Z</time></trkpt><trkpt lat="43.43374854904691" lon="11.350487873489445"><ele>391.5</ele><time>2026-04-06T14:35:04Z</time></trkpt><trkpt lat="43.433652051390524" lon="11.350598520008463"><ele>388.0</ele><time>2026-04-06T14:35:05Z</time></trkpt><trkpt lat="43.433549511529314" lon="11.350710935465647"><ele>384.5</ele><time>2026-04-06T14:35:06Z</time></trkpt><trkpt lat="43.43344285546456" lon="11.350824237599252"><ele>381.0</ele><time>2026-04-06T14:35:07Z</time></trkpt><trkpt lat="43.433325312463765" lon="11.35093451630108"><ele>381.0</ele><time>2026-04-06T14:35:08Z</time></trkpt><trkpt lat="43.43320775404196" lon="11.351031214262537"><ele>381.0</ele><time>2026-04-06T14:35:09Z</time></trkpt><trkpt lat="43.433093827770975" lon="11.351119697123067"><ele>381.0</ele><time>2026-04-06T14:35:10Z</time></trkpt><trkpt lat="43.4329904055148" lon="11.351197104552782"><ele>381.0</ele><time>2026-04-06T14:35:11Z</time></trkpt><trkpt lat="43.43289593048371" lon="11.35126889569508"><ele>382.5</ele><time>2026-04-06T14:35:12Z</time></trkpt><trkpt lat="43.43281645644435" lon="11.35132468176289"><ele>384.0</ele><time>2026-04-06T14:35:13Z</time></trkpt><trkpt lat="43.432733783761975" lon="11.351371233523388"><ele>385.5</ele><time>2026-04-06T14:35:14Z</time></trkpt><trkpt lat="43.43265010556248" lon="11.351395035230148"><ele>387.0</ele><time>2026-04-06T14:35:15Z</time></trkpt><trkpt lat="43.43257842742721" lon="11.351390178581237"><ele>388.5</ele><time>2026-04-06T14:35:16Z</time></trkpt><trkpt lat="43.43249587200923" lon="11.3513855877445"><ele>390.0</ele><time>2026-04-06T14:35:17Z</time></trkpt><trkpt lat="43.432379072119524" lon="11.351375643347868"><ele>391.0</ele><time>2026-04-06T14:35:18Z</time></trkpt><trkpt lat="43.432258912135204" lon="11.3513627991594"><ele>392.0</ele><time>2026-04-06T14:35:19Z</time></trkpt><trkpt lat="43.43216356744817" lon="11.351349967151624"><ele>393.0</ele><time>2026-04-06T14:35:20Z</time></trkpt><trkpt lat="43.43208497610656" lon="11.351321489017996"><ele>394.0</ele><time>2026-04-06T14:35:21Z</time></trkpt><trkpt lat="43.432017432283814" lon="11.351301129001538"><ele>395.0</ele><time>2026-04-06T14:35:22Z</time></trkpt><trkpt lat="43.43195199120398" lon="11.351296170982238"><ele>396.0</ele><time>2026-04-06T14:35:23Z</time></trkpt><trkpt lat="43.43188936692627" lon="11.351244547086402"><ele>396.0</ele><time>2026-04-06T14:35:24Z</time></trkpt><trkpt lat="43.43181959023309" lon="11.351184651283278"><ele>396.0</ele><time>2026-04-06T14:35:25Z</time></trkpt><trkpt lat="43.43175525489799" lon="11.351115488854724"><ele>396.0</ele><time>2026-04-06T14:35:26Z</time></trkpt><trkpt lat="43.431692622156305" lon="11.351043949426192"><ele>396.0</ele><time>2026-04-06T14:35:26.999Z</time></trkpt><trkpt lat="43.43163448466093" lon="11.350972636850798"><ele>396.0</ele><time>2026-04-06T14:35:27.999Z</time></trkpt><trkpt lat="43.4316000209349" lon="11.350881723960637"><ele>396.0</ele><time>2026-04-06T14:35:28.999Z</time></trkpt><trkpt lat="43.431556537846845" lon="11.350808222691668"><ele>396.0</ele><time>2026-04-06T14:35:29.999Z</time></trkpt><trkpt lat="43.431516941437906" lon="11.350734312586388"><ele>396.0</ele><time>2026-04-06T14:35:30.999Z</time></trkpt><trkpt lat="43.43143198834511" lon="11.350653256918912"><ele>396.0</ele><time>2026-04-06T14:35:32.999Z</time></trkpt><trkpt lat="43.43131243726991" lon="11.350627885135218"><ele>396.0</ele><time>2026-04-06T14:35:34.999Z</time></trkpt><trkpt lat="43.43124413122862" lon="11.350659022419322"><ele>396.0</ele><time>2026-04-06T14:35:35.999Z</time></trkpt><trkpt lat="43.431170055026804" lon="11.350711712512926"><ele>396.0</ele><time>2026-04-06T14:35:36.999Z</time></trkpt><trkpt lat="43.431085656969664" lon="11.350787390062573"><ele>392.5</ele><time>2026-04-06T14:35:37.999Z</time></trkpt><trkpt lat="43.43098976927683" lon="11.350859569718986"><ele>389.0</ele><time>2026-04-06T14:35:38.999Z</time></trkpt><trkpt lat="43.43088029116312" lon="11.350900300456933"><ele>385.5</ele><time>2026-04-06T14:35:39.999Z</time></trkpt><trkpt lat="43.430761489098984" lon="11.350916603361268"><ele>382.0</ele><time>2026-04-06T14:35:40.999Z</time></trkpt><trkpt lat="43.43064572232068" lon="11.350905768566811"><ele>382.0</ele><time>2026-04-06T14:35:41.999Z</time></trkpt><trkpt lat="43.43053059086806" lon="11.35087673239741"><ele>382.0</ele><time>2026-04-06T14:35:42.999Z</time></trkpt><trkpt lat="43.43041113337143" lon="11.350842940746968"><ele>382.0</ele><time>2026-04-06T14:35:43.999Z</time></trkpt><trkpt lat="43.43028811856632" lon="11.350822777396234"><ele>382.0</ele><time>2026-04-06T14:35:44.999Z</time></trkpt><trkpt lat="43.43017609867471" lon="11.35082180458631"><ele>381.40000000000003</ele><time>2026-04-06T14:35:45.999Z</time></trkpt><trkpt lat="43.4300766822079" lon="11.350829052274142"><ele>380.8</ele><time>2026-04-06T14:35:46.999Z</time></trkpt><trkpt lat="43.42998453317075" lon="11.350842976950087"><ele>380.2</ele><time>2026-04-06T14:35:47.999Z</time></trkpt><trkpt lat="43.429897752691794" lon="11.350861245155082"><ele>379.6</ele><time>2026-04-06T14:35:48.999Z</time></trkpt><trkpt lat="43.42981051103391" lon="11.350849151583294"><ele>379.0</ele><time>2026-04-06T14:35:49.999Z</time></trkpt><trkpt lat="43.42972147620499" lon="11.350873763530938"><ele>377.79999999999995</ele><time>2026-04-06T14:35:50.999Z</time></trkpt><trkpt lat="43.42962409740405" lon="11.350855056137704"><ele>376.59999999999997</ele><time>2026-04-06T14:35:51.999Z</time></trkpt><trkpt lat="43.429526741198075" lon="11.350803727373863"><ele>375.4</ele><time>2026-04-06T14:35:52.999Z</time></trkpt><trkpt lat="43.42942108223554" lon="11.350729912136956"><ele>374.2</ele><time>2026-04-06T14:35:53.999Z</time></trkpt><trkpt lat="43.42931580792198" lon="11.350642304431565"><ele>373.0</ele><time>2026-04-06T14:35:54.999Z</time></trkpt><trkpt lat="43.429211541403774" lon="11.35055953067709"><ele>373.79999999999995</ele><time>2026-04-06T14:35:55.999Z</time></trkpt><trkpt lat="43.42910948770226" lon="11.350492491147028"><ele>374.6</ele><time>2026-04-06T14:35:56.999Z</time></trkpt><trkpt lat="43.42901242610648" lon="11.350429998887343"><ele>375.4</ele><time>2026-04-06T14:35:57.999Z</time></trkpt><trkpt lat="43.42891145743002" lon="11.350358692222517"><ele>376.20000000000005</ele><time>2026-04-06T14:35:58.999Z</time></trkpt><trkpt lat="43.42881867383964" lon="11.350294018049672"><ele>377.0</ele><time>2026-04-06T14:35:59.999Z</time></trkpt><trkpt lat="43.42874397134862" lon="11.350200914351097"><ele>377.0</ele><time>2026-04-06T14:36:00.999Z</time></trkpt><trkpt lat="43.42864810597213" lon="11.350152001182499"><ele>377.0</ele><time>2026-04-06T14:36:01.999Z</time></trkpt><trkpt lat="43.42856915790607" lon="11.350087310645199"><ele>377.0</ele><time>2026-04-06T14:36:02.999Z</time></trkpt><trkpt lat="43.428494019752456" lon="11.350033495319988"><ele>377.0</ele><time>2026-04-06T14:36:03.999Z</time></trkpt><trkpt lat="43.428415240476774" lon="11.349999447730326"><ele>377.0</ele><time>2026-04-06T14:36:04.999Z</time></trkpt><trkpt lat="43.4283271367287" lon="11.349988635345758"><ele>377.0</ele><time>2026-04-06T14:36:05.999Z</time></trkpt><trkpt lat="43.42823460089924" lon="11.349968451681832"><ele>377.0</ele><time>2026-04-06T14:36:06.999Z</time></trkpt><trkpt lat="43.42814275240049" lon="11.349996406826502"><ele>377.0</ele><time>2026-04-06T14:36:07.999Z</time></trkpt><trkpt lat="43.42806233681493" lon="11.350012501918334"><ele>377.0</ele><time>2026-04-06T14:36:08.999Z</time></trkpt><trkpt lat="43.42798429055752" lon="11.350051370685119"><ele>377.0</ele><time>2026-04-06T14:36:10Z</time></trkpt><trkpt lat="43.42789126658569" lon="11.350084563662731"><ele>377.0</ele><time>2026-04-06T14:36:11Z</time></trkpt><trkpt lat="43.427786389323884" lon="11.350181884872914"><ele>377.25</ele><time>2026-04-06T14:36:12Z</time></trkpt><trkpt lat="43.427673181319385" lon="11.350248201819715"><ele>377.5</ele><time>2026-04-06T14:36:13Z</time></trkpt><trkpt lat="43.42755449305942" lon="11.350303222748604"><ele>377.75</ele><time>2026-04-06T14:36:14Z</time></trkpt><trkpt lat="43.42743488440041" lon="11.350342655950628"><ele>378.0</ele><time>2026-04-06T14:36:15Z</time></trkpt><trkpt lat="43.42730799053539" lon="11.35038127343097"><ele>378.0</ele><time>2026-04-06T14:36:16Z</time></trkpt><trkpt lat="43.4271851125025" lon="11.350394165609856"><ele>378.0</ele><time>2026-04-06T14:36:17Z</time></trkpt><trkpt lat="43.427096216947" lon="11.350426484994374"><ele>378.0</ele><time>2026-04-06T14:36:18Z</time></trkpt><trkpt lat="43.427026547526154" lon="11.350464568062515"><ele>378.0</ele><time>2026-04-06T14:36:19Z</time></trkpt><trkpt lat="43.4269788139457" lon="11.350544459113136"><ele>378.0</ele><time>2026-04-06T14:36:20Z</time></trkpt><trkpt lat="43.426932681035744" lon="11.350605062487826"><ele>378.0</ele><time>2026-04-06T14:36:21Z</time></trkpt><trkpt lat="43.426893225432444" lon="11.350694083782962"><ele>382.0</ele><time>2026-04-06T14:36:22Z</time></trkpt><trkpt lat="43.426828510027065" lon="11.350802596268617"><ele>386.0</ele><time>2026-04-06T14:36:23Z</time></trkpt><trkpt lat="43.426773178671645" lon="11.35093862489477"><ele>390.0</ele><time>2026-04-06T14:36:24Z</time></trkpt><trkpt lat="43.42671799556982" lon="11.351093943698285"><ele>394.0</ele><time>2026-04-06T14:36:25Z</time></trkpt><trkpt lat="43.42667669637334" lon="11.351251314141617"><ele>394.0</ele><time>2026-04-06T14:36:26Z</time></trkpt><trkpt lat="43.426624543936036" lon="11.351372908837178"><ele>394.0</ele><time>2026-04-06T14:36:27Z</time></trkpt><trkpt lat="43.426564866104286" lon="11.351485560311902"><ele>394.0</ele><time>2026-04-06T14:36:28Z</time></trkpt><trkpt lat="43.42649484171448" lon="11.3515844343715"><ele>394.0</ele><time>2026-04-06T14:36:29Z</time></trkpt><trkpt lat="43.42641613788635" lon="11.3516732682364"><ele>394.0</ele><time>2026-04-06T14:36:30Z</time></trkpt><trkpt lat="43.42632829923431" lon="11.351784211317225"><ele>396.4</ele><time>2026-04-06T14:36:31Z</time></trkpt><trkpt lat="43.42623974439298" lon="11.351864357812042"><ele>398.79999999999995</ele><time>2026-04-06T14:36:32Z</time></trkpt><trkpt lat="43.426156273289386" lon="11.351935585855808"><ele>401.20000000000005</ele><time>2026-04-06T14:36:33Z</time></trkpt><trkpt lat="43.42607964121052" lon="11.351992377611202"><ele>403.6</ele><time>2026-04-06T14:36:34Z</time></trkpt><trkpt lat="43.42601802701947" lon="11.352052675106862"><ele>406.0</ele><time>2026-04-06T14:36:35Z</time></trkpt><trkpt lat="43.42595615675306" lon="11.352141227842878"><ele>404.75</ele><time>2026-04-06T14:36:36Z</time></trkpt><trkpt lat="43.425887235225446" lon="11.352239882241248"><ele>403.5</ele><time>2026-04-06T14:36:37Z</time></trkpt><trkpt lat="43.42583965591425" lon="11.352390234869187"><ele>402.25</ele><time>2026-04-06T14:36:38Z</time></trkpt><trkpt lat="43.42580175018018" lon="11.352565391787934"><ele>401.0</ele><time>2026-04-06T14:36:39Z</time></trkpt><trkpt lat="43.425776512315046" lon="11.352745505486158"><ele>401.0</ele><time>2026-04-06T14:36:40Z</time></trkpt><trkpt lat="43.42575683606936" lon="11.352924237951381"><ele>401.0</ele><time>2026-04-06T14:36:41Z</time></trkpt><trkpt lat="43.42574203752302" lon="11.353096383688216"><ele>401.0</ele><time>2026-04-06T14:36:42Z</time></trkpt><trkpt lat="43.425738249542775" lon="11.353245248294224"><ele>401.0</ele><time>2026-04-06T14:36:43Z</time></trkpt><trkpt lat="43.42574646569511" lon="11.353394438742416"><ele>400.5</ele><time>2026-04-06T14:36:44Z</time></trkpt><trkpt lat="43.42576160361744" lon="11.353558339037063"><ele>400.0</ele><time>2026-04-06T14:36:45Z</time></trkpt><trkpt lat="43.42576763770639" lon="11.353729283314472"><ele>399.5</ele><time>2026-04-06T14:36:46Z</time></trkpt><trkpt lat="43.425755509941425" lon="11.35388468730145"><ele>399.0</ele><time>2026-04-06T14:36:47Z</time></trkpt><trkpt lat="43.425710253642315" lon="11.354014010569152"><ele>400.6</ele><time>2026-04-06T14:36:48Z</time></trkpt><trkpt lat="43.42566743527268" lon="11.354140232308552"><ele>402.2</ele><time>2026-04-06T14:36:49Z</time></trkpt><trkpt lat="43.42561839925131" lon="11.354244087414683"><ele>403.8</ele><time>2026-04-06T14:36:50Z</time></trkpt><trkpt lat="43.42557235827193" lon="11.354333308347586"><ele>405.40000000000003</ele><time>2026-04-06T14:36:51Z</time></trkpt><trkpt lat="43.425488535192876" lon="11.354375767510007"><ele>407.0</ele><time>2026-04-06T14:36:52Z</time></trkpt><trkpt lat="43.425389252593" lon="11.354389067655756"><ele>410.6</ele><time>2026-04-06T14:36:53Z</time></trkpt><trkpt lat="43.425283116617486" lon="11.354383097568872"><ele>414.20000000000005</ele><time>2026-04-06T14:36:54Z</time></trkpt><trkpt lat="43.42517726928059" lon="11.354383026258466"><ele>417.8</ele><time>2026-04-06T14:36:55Z</time></trkpt><trkpt lat="43.42509671400909" lon="11.354411174249712"><ele>421.4</ele><time>2026-04-06T14:36:56Z</time></trkpt><trkpt lat="43.42503225936787" lon="11.354475945611377"><ele>425.0</ele><time>2026-04-06T14:36:57Z</time></trkpt><trkpt lat="43.42499592999334" lon="11.354582104962953"><ele>424.99999999999994</ele><time>2026-04-06T14:36:58Z</time></trkpt><trkpt lat="43.42497475916759" lon="11.354693535762545"><ele>425.0</ele><time>2026-04-06T14:36:59Z</time></trkpt><trkpt lat="43.42497018553824" lon="11.35478149241682"><ele>425.0</ele><time>2026-04-06T14:37:00Z</time></trkpt><trkpt lat="43.42491182961011" lon="11.354835438931483"><ele>425.0</ele><time>2026-04-06T14:37:01Z</time></trkpt><trkpt lat="43.424834776360285" lon="11.354853545113897"><ele>424.99999999999994</ele><time>2026-04-06T14:37:02Z</time></trkpt><trkpt lat="43.42474870438718" lon="11.354819587314914"><ele>425.0</ele><time>2026-04-06T14:37:03Z</time></trkpt><trkpt lat="43.424642350337095" lon="11.354829268065915"><ele>423.8</ele><time>2026-04-06T14:37:04Z</time></trkpt><trkpt lat="43.42452716240925" lon="11.354814713288253"><ele>422.6</ele><time>2026-04-06T14:37:05Z</time></trkpt><trkpt lat="43.42440858204434" lon="11.354798290956397"><ele>421.4</ele><time>2026-04-06T14:37:06Z</time></trkpt><trkpt lat="43.424301332094366" lon="11.354776378243626"><ele>420.2</ele><time>2026-04-06T14:37:07Z</time></trkpt><trkpt lat="43.42420887311244" lon="11.354734447283995"><ele>419.0</ele><time>2026-04-06T14:37:08Z</time></trkpt><trkpt lat="43.42414321569262" lon="11.354665838631856"><ele>422.2</ele><time>2026-04-06T14:37:09Z</time></trkpt><trkpt lat="43.42407658347735" lon="11.354562849201658"><ele>425.4</ele><time>2026-04-06T14:37:10Z</time></trkpt><trkpt lat="43.42401684705937" lon="11.35445006328315"><ele>428.6</ele><time>2026-04-06T14:37:11Z</time></trkpt><trkpt lat="43.42396062548791" lon="11.354338560458931"><ele>431.8</ele><time>2026-04-06T14:37:12Z</time></trkpt><trkpt lat="43.42391491658719" lon="11.354252552421755"><ele>435.0</ele><time>2026-04-06T14:37:13Z</time></trkpt><trkpt lat="43.42388802136682" lon="11.354156744092704"><ele>435.0</ele><time>2026-04-06T14:37:14Z</time></trkpt><trkpt lat="43.42386225290313" lon="11.35402704790247"><ele>435.0</ele><time>2026-04-06T14:37:16Z</time></trkpt><trkpt lat="43.423852597449674" lon="11.35382676079691"><ele>435.0</ele><time>2026-04-06T14:37:18Z</time></trkpt><trkpt lat="43.42382685767107" lon="11.35369621090859"><ele>435.0</ele><time>2026-04-06T14:37:19Z</time></trkpt><trkpt lat="43.4238137326012" lon="11.353546157386761"><ele>434.5</ele><time>2026-04-06T14:37:20Z</time></trkpt><trkpt lat="43.42379777401254" lon="11.353388270371596"><ele>434.0</ele><time>2026-04-06T14:37:21Z</time></trkpt><trkpt lat="43.42377739002049" lon="11.35322701805719"><ele>433.5</ele><time>2026-04-06T14:37:22Z</time></trkpt><trkpt lat="43.42375356170621" lon="11.353067376295266"><ele>433.0</ele><time>2026-04-06T14:37:23Z</time></trkpt><trkpt lat="43.42373258486864" lon="11.352907082612102"><ele>435.0</ele><time>2026-04-06T14:37:24Z</time></trkpt><trkpt lat="43.42371726942336" lon="11.35276173239188"><ele>436.99999999999994</ele><time>2026-04-06T14:37:25Z</time></trkpt><trkpt lat="43.42370181910589" lon="11.352620838126276"><ele>438.99999999999994</ele><time>2026-04-06T14:37:26Z</time></trkpt><trkpt lat="43.423689133929585" lon="11.352488494509231"><ele>441.0</ele><time>2026-04-06T14:37:26.999Z</time></trkpt><trkpt lat="43.42368193738444" lon="11.352367276409483"><ele>443.0</ele><time>2026-04-06T14:37:27.999Z</time></trkpt><trkpt lat="43.423683407174664" lon="11.352243675700175"><ele>444.0</ele><time>2026-04-06T14:37:28.999Z</time></trkpt><trkpt lat="43.42369559676568" lon="11.352114767113097"><ele>444.99999999999994</ele><time>2026-04-06T14:37:29.999Z</time></trkpt><trkpt lat="43.42371975602013" lon="11.351992167077794"><ele>445.99999999999994</ele><time>2026-04-06T14:37:30.999Z</time></trkpt><trkpt lat="43.42375639141568" lon="11.351860423019396"><ele>447.0</ele><time>2026-04-06T14:37:31.999Z</time></trkpt><trkpt lat="43.423811215286364" lon="11.351714644765313"><ele>448.0</ele><time>2026-04-06T14:37:32.999Z</time></trkpt><trkpt lat="43.42386953140667" lon="11.351568190418664"><ele>448.79999999999995</ele><time>2026-04-06T14:37:33.999Z</time></trkpt><trkpt lat="43.42391163346981" lon="11.351436269710502"><ele>449.59999999999997</ele><time>2026-04-06T14:37:34.999Z</time></trkpt><trkpt lat="43.42393622481066" lon="11.351332602713063"><ele>450.40000000000003</ele><time>2026-04-06T14:37:35.999Z</time></trkpt><trkpt lat="43.423969444241116" lon="11.351173970088599"><ele>451.20000000000005</ele><time>2026-04-06T14:37:37.999Z</time></trkpt><trkpt lat="43.423980912945545" lon="11.351076318489104"><ele>452.0</ele><time>2026-04-06T14:37:38.999Z</time></trkpt><trkpt lat="43.42398948676247" lon="11.35095024567365"><ele>452.16666666666663</ele><time>2026-04-06T14:37:39.999Z</time></trkpt><trkpt lat="43.423993472541135" lon="11.35081026824633"><ele>452.3333333333333</ele><time>2026-04-06T14:37:40.999Z</time></trkpt><trkpt lat="43.423994588694434" lon="11.350677779266036"><ele>452.5</ele><time>2026-04-06T14:37:41.999Z</time></trkpt><trkpt lat="43.42399544807351" lon="11.350558146367359"><ele>452.66666666666663</ele><time>2026-04-06T14:37:42.999Z</time></trkpt><trkpt lat="43.42399241089371" lon="11.350452395436264"><ele>452.8333333333333</ele><time>2026-04-06T14:37:43.999Z</time></trkpt><trkpt lat="43.42398036968456" lon="11.350364188920976"><ele>453.0</ele><time>2026-04-06T14:37:44.999Z</time></trkpt><trkpt lat="43.423939693685675" lon="11.350213397711425"><ele>455.2</ele><time>2026-04-06T14:37:46.999Z</time></trkpt><trkpt lat="43.42386483257875" lon="11.350183321051022"><ele>457.4</ele><time>2026-04-06T14:37:47.999Z</time></trkpt><trkpt lat="43.423728379926224" lon="11.350151056689702"><ele>459.59999999999997</ele><time>2026-04-06T14:37:49.999Z</time></trkpt><trkpt lat="43.42364737761288" lon="11.35016284138672"><ele>461.79999999999995</ele><time>2026-04-06T14:37:50.999Z</time></trkpt><trkpt lat="43.4235841103415" lon="11.350186480996674"><ele>464.0</ele><time>2026-04-06T14:37:51.999Z</time></trkpt><trkpt lat="43.42348379452767" lon="11.350243044901827"><ele>463.2</ele><time>2026-04-06T14:37:53.999Z</time></trkpt><trkpt lat="43.423355656823" lon="11.35031447670596"><ele>462.4</ele><time>2026-04-06T14:37:55.999Z</time></trkpt><trkpt lat="43.423278504461365" lon="11.350338680854932"><ele>461.6</ele><time>2026-04-06T14:37:56.999Z</time></trkpt><trkpt lat="43.4232208646817" lon="11.350377841376723"><ele>460.8</ele><time>2026-04-06T14:37:57.999Z</time></trkpt><trkpt lat="43.42311179088929" lon="11.350504912417552"><ele>460.0</ele><time>2026-04-06T14:37:59.999Z</time></trkpt><trkpt lat="43.423057959525494" lon="11.35056724808928"><ele>460.00000000000006</ele><time>2026-04-06T14:38:00.999Z</time></trkpt><trkpt lat="43.422987682500526" lon="11.350646466254846"><ele>460.0</ele><time>2026-04-06T14:38:02.999Z</time></trkpt><trkpt lat="43.42291375875251" lon="11.350629960142163"><ele>460.0</ele><time>2026-04-06T14:38:04.999Z</time></trkpt><trkpt lat="43.42285538050251" lon="11.350545144369859"><ele>460.0</ele><time>2026-04-06T14:38:06.999Z</time></trkpt><trkpt lat="43.42281925928864" lon="11.35041117189119"><ele>460.00000000000006</ele><time>2026-04-06T14:38:08.999Z</time></trkpt><trkpt lat="43.42278589574264" lon="11.350322123315912"><ele>460.0</ele><time>2026-04-06T14:38:09.999Z</time></trkpt><trkpt lat="43.42273777631794" lon="11.350236742153545"><ele>464.8</ele><time>2026-04-06T14:38:10.999Z</time></trkpt><trkpt lat="43.42268385998814" lon="11.350171471592645"><ele>469.6</ele><time>2026-04-06T14:38:11.999Z</time></trkpt><trkpt lat="43.42262231871131" lon="11.350089954388862"><ele>474.4</ele><time>2026-04-06T14:38:12.999Z</time></trkpt><trkpt lat="43.422512442483395" lon="11.350050450768304"><ele>479.2</ele><time>2026-04-06T14:38:13.999Z</time></trkpt><trkpt lat="43.422410048038245" lon="11.349964588301972"><ele>484.0</ele><time>2026-04-06T14:38:14.999Z</time></trkpt><trkpt lat="43.42231852253883" lon="11.349906461274683"><ele>484.0</ele><time>2026-04-06T14:38:16Z</time></trkpt><trkpt lat="43.422221157256146" lon="11.349848376179139"><ele>484.0</ele><time>2026-04-06T14:38:17Z</time></trkpt><trkpt lat="43.422137504223194" lon="11.349727325376824"><ele>484.0</ele><time>2026-04-06T14:38:18Z</time></trkpt><trkpt lat="43.42204458613525" lon="11.349619405969673"><ele>484.0</ele><time>2026-04-06T14:38:19Z</time></trkpt><trkpt lat="43.42196014021539" lon="11.349558375452794"><ele>484.0</ele><time>2026-04-06T14:38:20Z</time></trkpt><trkpt lat="43.4218705535798" lon="11.349509802586388"><ele>486.79999999999995</ele><time>2026-04-06T14:38:21Z</time></trkpt><trkpt lat="43.42176493535494" lon="11.349506374733641"><ele>489.59999999999997</ele><time>2026-04-06T14:38:22Z</time></trkpt><trkpt lat="43.42166450155234" lon="11.3495016012012"><ele>492.4</ele><time>2026-04-06T14:38:23Z</time></trkpt><trkpt lat="43.42158344321621" lon="11.349545511685811"><ele>495.2</ele><time>2026-04-06T14:38:24Z</time></trkpt><trkpt lat="43.421463575362594" lon="11.349544728003275"><ele>498.0</ele><time>2026-04-06T14:38:26Z</time></trkpt><trkpt lat="43.42136114367688" lon="11.349427759079422"><ele>498.0</ele><time>2026-04-06T14:38:28Z</time></trkpt><trkpt lat="43.4213338260615" lon="11.349341454918108"><ele>497.99999999999994</ele><time>2026-04-06T14:38:29Z</time></trkpt><trkpt lat="43.42132085619721" lon="11.349229298786742"><ele>497.99999999999994</ele><time>2026-04-06T14:38:30Z</time></trkpt><trkpt lat="43.42131705533419" lon="11.349089443667008"><ele>498.0</ele><time>2026-04-06T14:38:31Z</time></trkpt><trkpt lat="43.42132326774362" lon="11.348936720628155"><ele>498.0</ele><time>2026-04-06T14:38:32Z</time></trkpt><trkpt lat="43.42132946956261" lon="11.348799782891128"><ele>499.0</ele><time>2026-04-06T14:38:33Z</time></trkpt><trkpt lat="43.42134124411439" lon="11.348668735856736"><ele>500.0</ele><time>2026-04-06T14:38:34Z</time></trkpt><trkpt lat="43.4213560789571" lon="11.348565736020664"><ele>501.0</ele><time>2026-04-06T14:38:35Z</time></trkpt><trkpt lat="43.421363704206655" lon="11.348474419831549"><ele>502.0</ele><time>2026-04-06T14:38:36Z</time></trkpt><trkpt lat="43.421374020119025" lon="11.348381693271913"><ele>503.0</ele><time>2026-04-06T14:38:37Z</time></trkpt><trkpt lat="43.42139274414932" lon="11.348276924090547"><ele>504.0</ele><time>2026-04-06T14:38:38Z</time></trkpt><trkpt lat="43.421409488531765" lon="11.348159639675012"><ele>503.4</ele><time>2026-04-06T14:38:39Z</time></trkpt><trkpt lat="43.421417686366254" lon="11.348041050841196"><ele>502.79999999999995</ele><time>2026-04-06T14:38:40Z</time></trkpt><trkpt lat="43.4214199124097" lon="11.34792179270124"><ele>502.20000000000005</ele><time>2026-04-06T14:38:41Z</time></trkpt><trkpt lat="43.421418048086906" lon="11.347821623296552"><ele>501.6</ele><time>2026-04-06T14:38:42Z</time></trkpt><trkpt lat="43.42140750826794" lon="11.347675027938527"><ele>501.0</ele><time>2026-04-06T14:38:44Z</time></trkpt><trkpt lat="43.42136369300717" lon="11.347513024504337"><ele>501.0</ele><time>2026-04-06T14:38:46Z</time></trkpt><trkpt lat="43.421330851993176" lon="11.347422454991976"><ele>501.0</ele><time>2026-04-06T14:38:47Z</time></trkpt><trkpt lat="43.42125595895481" lon="11.347346127288146"><ele>501.0</ele><time>2026-04-06T14:38:48Z</time></trkpt><trkpt lat="43.42116902922153" lon="11.347295961877101"><ele>501.0</ele><time>2026-04-06T14:38:49Z</time></trkpt><trkpt lat="43.421069817027195" lon="11.347256842220443"><ele>501.0</ele><time>2026-04-06T14:38:50Z</time></trkpt><trkpt lat="43.42095221505419" lon="11.347258256654241"><ele>501.0</ele><time>2026-04-06T14:38:51Z</time></trkpt><trkpt lat="43.42083661897021" lon="11.34725080193137"><ele>501.0</ele><time>2026-04-06T14:38:52Z</time></trkpt><trkpt lat="43.42072407679591" lon="11.347248727273751"><ele>501.0</ele><time>2026-04-06T14:38:53Z</time></trkpt><trkpt lat="43.420617521764015" lon="11.347252078798903"><ele>501.0</ele><time>2026-04-06T14:38:54Z</time></trkpt><trkpt lat="43.42051900583809" lon="11.347251562562478"><ele>501.0</ele><time>2026-04-06T14:38:55Z</time></trkpt><trkpt lat="43.420439022277186" lon="11.347225752624409"><ele>502.20000000000005</ele><time>2026-04-06T14:38:56Z</time></trkpt><trkpt lat="43.42037033571508" lon="11.347142948478146"><ele>503.40000000000003</ele><time>2026-04-06T14:38:57Z</time></trkpt><trkpt lat="43.42026918217556" lon="11.347085495026269"><ele>504.6</ele><time>2026-04-06T14:38:58Z</time></trkpt><trkpt lat="43.42016065333464" lon="11.347015947090615"><ele>505.8</ele><time>2026-04-06T14:38:59Z</time></trkpt><trkpt lat="43.42004109733718" lon="11.346967307171322"><ele>507.0</ele><time>2026-04-06T14:39:00Z</time></trkpt><trkpt lat="43.41991368050594" lon="11.346951857533039"><ele>507.0</ele><time>2026-04-06T14:39:01Z</time></trkpt><trkpt lat="43.41979252554153" lon="11.346962973602107"><ele>507.0</ele><time>2026-04-06T14:39:02Z</time></trkpt><trkpt lat="43.41967508765984" lon="11.346955464707596"><ele>507.0</ele><time>2026-04-06T14:39:03Z</time></trkpt><trkpt lat="43.41956202978353" lon="11.346956795933009"><ele>507.0</ele><time>2026-04-06T14:39:04Z</time></trkpt><trkpt lat="43.41944853275642" lon="11.346950363000598"><ele>505.0</ele><time>2026-04-06T14:39:05Z</time></trkpt><trkpt lat="43.41933419498136" lon="11.346851380631596"><ele>503.0</ele><time>2026-04-06T14:39:06Z</time></trkpt><trkpt lat="43.41918865213972" lon="11.346756339338212"><ele>501.0</ele><time>2026-04-06T14:39:07Z</time></trkpt><trkpt lat="43.419052422597396" lon="11.34663024859921"><ele>501.0</ele><time>2026-04-06T14:39:08Z</time></trkpt><trkpt lat="43.4189312939231" lon="11.34651722763745"><ele>501.0</ele><time>2026-04-06T14:39:09Z</time></trkpt><trkpt lat="43.41881148533629" lon="11.346433907418206"><ele>501.0</ele><time>2026-04-06T14:39:10Z</time></trkpt><trkpt lat="43.418694393105696" lon="11.346397584048093"><ele>501.0</ele><time>2026-04-06T14:39:11Z</time></trkpt><trkpt lat="43.41857571339033" lon="11.346340398731533"><ele>500.33333333333337</ele><time>2026-04-06T14:39:12Z</time></trkpt><trkpt lat="43.418411101424326" lon="11.346449498238679"><ele>499.6666666666667</ele><time>2026-04-06T14:39:13Z</time></trkpt><trkpt lat="43.41825250731497" lon="11.346493459197609"><ele>499.0</ele><time>2026-04-06T14:39:14Z</time></trkpt><trkpt lat="43.4180974161786" lon="11.346548681764178"><ele>503.0</ele><time>2026-04-06T14:39:15Z</time></trkpt><trkpt lat="43.41793969864455" lon="11.346631040591813"><ele>507.0</ele><time>2026-04-06T14:39:16Z</time></trkpt><trkpt lat="43.41779843210895" lon="11.346724730294355"><ele>511.0</ele><time>2026-04-06T14:39:17Z</time></trkpt><trkpt lat="43.41765443981578" lon="11.346835339703029"><ele>511.0</ele><time>2026-04-06T14:39:18Z</time></trkpt><trkpt lat="43.41751535953533" lon="11.346965011430918"><ele>511.0</ele><time>2026-04-06T14:39:19Z</time></trkpt><trkpt lat="43.41739098201772" lon="11.347092055474189"><ele>511.0</ele><time>2026-04-06T14:39:20Z</time></trkpt><trkpt lat="43.41728534638531" lon="11.347208247334724"><ele>511.0</ele><time>2026-04-06T14:39:21Z</time></trkpt><trkpt lat="43.41719022869802" lon="11.347320979273553"><ele>511.0</ele><time>2026-04-06T14:39:22Z</time></trkpt><trkpt lat="43.41711794476783" lon="11.347448377313034"><ele>511.0</ele><time>2026-04-06T14:39:23Z</time></trkpt><trkpt lat="43.4170776343057" lon="11.347596280022934"><ele>511.0</ele><time>2026-04-06T14:39:24Z</time></trkpt><trkpt lat="43.41707912860219" lon="11.347762328835177"><ele>511.0</ele><time>2026-04-06T14:39:25Z</time></trkpt><trkpt lat="43.417106007192636" lon="11.34792923505783"><ele>511.0</ele><time>2026-04-06T14:39:26Z</time></trkpt><trkpt lat="43.417147083321765" lon="11.348084606346454"><ele>511.0</ele><time>2026-04-06T14:39:27Z</time></trkpt><trkpt lat="43.4171855877153" lon="11.348215235738385"><ele>511.0</ele><time>2026-04-06T14:39:28Z</time></trkpt><trkpt lat="43.41720457602198" lon="11.348341074903248"><ele>511.0</ele><time>2026-04-06T14:39:29Z</time></trkpt><trkpt lat="43.41718702990902" lon="11.34845866765115"><ele>509.8</ele><time>2026-04-06T14:39:29.999Z</time></trkpt><trkpt lat="43.417146567554575" lon="11.348556120963327"><ele>508.6</ele><time>2026-04-06T14:39:30.999Z</time></trkpt><trkpt lat="43.41706174394908" lon="11.348620831566127"><ele>507.4</ele><time>2026-04-06T14:39:31.999Z</time></trkpt><trkpt lat="43.41696863127292" lon="11.348681167249536"><ele>506.2</ele><time>2026-04-06T14:39:32.999Z</time></trkpt><trkpt lat="43.41685488023643" lon="11.348723557648789"><ele>505.0</ele><time>2026-04-06T14:39:33.999Z</time></trkpt><trkpt lat="43.4167334821304" lon="11.348746905827399"><ele>505.0</ele><time>2026-04-06T14:39:34.999Z</time></trkpt><trkpt lat="43.41660982591872" lon="11.34877959459912"><ele>505.0</ele><time>2026-04-06T14:39:35.999Z</time></trkpt><trkpt lat="43.416476827815416" lon="11.348793954004902"><ele>505.0</ele><time>2026-04-06T14:39:36.999Z</time></trkpt><trkpt lat="43.41632822657391" lon="11.348808066011287"><ele>505.0</ele><time>2026-04-06T14:39:37.999Z</time></trkpt><trkpt lat="43.41617799001494" lon="11.348825265395119"><ele>504.5</ele><time>2026-04-06T14:39:38.999Z</time></trkpt><trkpt lat="43.416025711069835" lon="11.348856365586421"><ele>504.0</ele><time>2026-04-06T14:39:39.999Z</time></trkpt><trkpt lat="43.41588353844006" lon="11.348890754483087"><ele>503.5</ele><time>2026-04-06T14:39:40.999Z</time></trkpt><trkpt lat="43.4157561350016" lon="11.348918392259645"><ele>503.0</ele><time>2026-04-06T14:39:41.999Z</time></trkpt><trkpt lat="43.415622903104136" lon="11.348917369820608"><ele>502.75</ele><time>2026-04-06T14:39:42.999Z</time></trkpt><trkpt lat="43.415476179071824" lon="11.348871682840887"><ele>502.5</ele><time>2026-04-06T14:39:43.999Z</time></trkpt><trkpt lat="43.41534133462416" lon="11.348810541050383"><ele>502.25</ele><time>2026-04-06T14:39:44.999Z</time></trkpt><trkpt lat="43.41521272971924" lon="11.348781321467632"><ele>502.0</ele><time>2026-04-06T14:39:45.999Z</time></trkpt><trkpt lat="43.41509713139079" lon="11.348794765993357"><ele>502.0</ele><time>2026-04-06T14:39:46.999Z</time></trkpt><trkpt lat="43.41498557723191" lon="11.34885049808126"><ele>502.0</ele><time>2026-04-06T14:39:47.999Z</time></trkpt><trkpt lat="43.414885158469986" lon="11.348956802693941"><ele>502.0</ele><time>2026-04-06T14:39:48.999Z</time></trkpt><trkpt lat="43.414777747419436" lon="11.3490721099359"><ele>502.0</ele><time>2026-04-06T14:39:49.999Z</time></trkpt><trkpt lat="43.41468734288605" lon="11.349197511511953"><ele>501.25</ele><time>2026-04-06T14:39:50.999Z</time></trkpt><trkpt lat="43.414626950816015" lon="11.3493589436685"><ele>500.5</ele><time>2026-04-06T14:39:51.999Z</time></trkpt><trkpt lat="43.41459876861387" lon="11.349540052811331"><ele>499.75</ele><time>2026-04-06T14:39:52.999Z</time></trkpt><trkpt lat="43.414599760469315" lon="11.34974960029721"><ele>499.0</ele><time>2026-04-06T14:39:53.999Z</time></trkpt><trkpt lat="43.41461302089588" lon="11.349936435529656"><ele>498.0</ele><time>2026-04-06T14:39:54.999Z</time></trkpt><trkpt lat="43.414611417543824" lon="11.350097721152856"><ele>497.0</ele><time>2026-04-06T14:39:55.999Z</time></trkpt><trkpt lat="43.414593028849005" lon="11.350239526680376"><ele>496.0</ele><time>2026-04-06T14:39:56.999Z</time></trkpt><trkpt lat="43.41455963327106" lon="11.350354717091147"><ele>495.0</ele><time>2026-04-06T14:39:57.999Z</time></trkpt><trkpt lat="43.41450525058509" lon="11.350432544528893"><ele>494.0</ele><time>2026-04-06T14:39:58.999Z</time></trkpt><trkpt lat="43.414437800215225" lon="11.350473275523436"><ele>494.0</ele><time>2026-04-06T14:39:59.999Z</time></trkpt><trkpt lat="43.41435141243136" lon="11.350468345393436"><ele>494.0</ele><time>2026-04-06T14:40:00.999Z</time></trkpt><trkpt lat="43.41424839013381" lon="11.350401725933187"><ele>494.0</ele><time>2026-04-06T14:40:01.999Z</time></trkpt><trkpt lat="43.41412897895737" lon="11.35033039409251"><ele>494.0</ele><time>2026-04-06T14:40:02.999Z</time></trkpt><trkpt lat="43.41401421098006" lon="11.350284608406"><ele>494.0</ele><time>2026-04-06T14:40:03.999Z</time></trkpt><trkpt lat="43.41390792815474" lon="11.350288993633933"><ele>494.0</ele><time>2026-04-06T14:40:04.999Z</time></trkpt><trkpt lat="43.41380384411838" lon="11.350344344118593"><ele>494.0</ele><time>2026-04-06T14:40:05.999Z</time></trkpt><trkpt lat="43.41370211108385" lon="11.350459531905527"><ele>494.0</ele><time>2026-04-06T14:40:06.999Z</time></trkpt><trkpt lat="43.413614950364185" lon="11.35060258824573"><ele>491.2</ele><time>2026-04-06T14:40:07.999Z</time></trkpt><trkpt lat="43.41353740467086" lon="11.350716064400359"><ele>488.4</ele><time>2026-04-06T14:40:08.999Z</time></trkpt><trkpt lat="43.413460019171275" lon="11.350810114587162"><ele>485.6</ele><time>2026-04-06T14:40:09.999Z</time></trkpt><trkpt lat="43.41338512698796" lon="11.350907383065431"><ele>482.8</ele><time>2026-04-06T14:40:10.999Z</time></trkpt><trkpt lat="43.41331150343895" lon="11.351006085257906"><ele>480.0</ele><time>2026-04-06T14:40:11.999Z</time></trkpt><trkpt lat="43.41323498457729" lon="11.35111252033264"><ele>480.0</ele><time>2026-04-06T14:40:12.999Z</time></trkpt><trkpt lat="43.41315191003422" lon="11.351227644719302"><ele>480.0</ele><time>2026-04-06T14:40:13.999Z</time></trkpt><trkpt lat="43.413066901243944" lon="11.351351914312225"><ele>480.0</ele><time>2026-04-06T14:40:14.999Z</time></trkpt><trkpt lat="43.41296856793201" lon="11.351483230165103"><ele>480.0</ele><time>2026-04-06T14:40:15.999Z</time></trkpt><trkpt lat="43.41286264044066" lon="11.35160256972732"><ele>478.0</ele><time>2026-04-06T14:40:16.999Z</time></trkpt><trkpt lat="43.412735444675455" lon="11.351690592352833"><ele>476.0</ele><time>2026-04-06T14:40:17.999Z</time></trkpt><trkpt lat="43.41259318798428" lon="11.35172241321037"><ele>474.0</ele><time>2026-04-06T14:40:18.999Z</time></trkpt><trkpt lat="43.412445235724135" lon="11.351760114345954"><ele>472.0</ele><time>2026-04-06T14:40:19.999Z</time></trkpt><trkpt lat="43.412304631018806" lon="11.351810718582566"><ele>470.33333333333337</ele><time>2026-04-06T14:40:20.999Z</time></trkpt><trkpt lat="43.41215574677138" lon="11.351838385750522"><ele>468.66666666666663</ele><time>2026-04-06T14:40:22Z</time></trkpt><trkpt lat="43.412004226733295" lon="11.351874780190315"><ele>467.0</ele><time>2026-04-06T14:40:23Z</time></trkpt><trkpt lat="43.41184962349582" lon="11.35191859105748"><ele>467.0</ele><time>2026-04-06T14:40:24Z</time></trkpt><trkpt lat="43.41169555317631" lon="11.351959027842355"><ele>467.0</ele><time>2026-04-06T14:40:25Z</time></trkpt><trkpt lat="43.41153889511111" lon="11.351995152132542"><ele>467.0</ele><time>2026-04-06T14:40:26Z</time></trkpt><trkpt lat="43.41137639639923" lon="11.352029057745352"><ele>468.3333333333333</ele><time>2026-04-06T14:40:27Z</time></trkpt><trkpt lat="43.4112146907099" lon="11.35206718863426"><ele>469.66666666666663</ele><time>2026-04-06T14:40:28Z</time></trkpt><trkpt lat="43.41105772264441" lon="11.352108167028542"><ele>471.0</ele><time>2026-04-06T14:40:29Z</time></trkpt><trkpt lat="43.41090257161223" lon="11.352151801633271"><ele>471.0</ele><time>2026-04-06T14:40:30Z</time></trkpt><trkpt lat="43.41075486306018" lon="11.352187385829644"><ele>471.0</ele><time>2026-04-06T14:40:31Z</time></trkpt><trkpt lat="43.41061915265999" lon="11.352228033074434"><ele>471.0</ele><time>2026-04-06T14:40:32Z</time></trkpt><trkpt lat="43.41049862431628" lon="11.352258638804571"><ele>471.0</ele><time>2026-04-06T14:40:33Z</time></trkpt><trkpt lat="43.41040246236999" lon="11.352284999710314"><ele>470.5</ele><time>2026-04-06T14:40:34Z</time></trkpt><trkpt lat="43.410324263110226" lon="11.352297845418247"><ele>470.0</ele><time>2026-04-06T14:40:35Z</time></trkpt><trkpt lat="43.41021765467802" lon="11.352279662026598"><ele>469.5</ele><time>2026-04-06T14:40:37Z</time></trkpt><trkpt lat="43.410117520100215" lon="11.352432849674612"><ele>469.0</ele><time>2026-04-06T14:40:39Z</time></trkpt><trkpt lat="43.410025133880254" lon="11.352554278109341"><ele>469.0</ele><time>2026-04-06T14:40:41Z</time></trkpt><trkpt lat="43.4099732070889" lon="11.352620934970238"><ele>469.0</ele><time>2026-04-06T14:40:42Z</time></trkpt><trkpt lat="43.40992931979783" lon="11.352686793639764"><ele>469.0</ele><time>2026-04-06T14:40:43Z</time></trkpt><trkpt lat="43.40988754177565" lon="11.352758799882059"><ele>469.0</ele><time>2026-04-06T14:40:44Z</time></trkpt><trkpt lat="43.409848031120056" lon="11.352838984414216"><ele>469.0</ele><time>2026-04-06T14:40:45Z</time></trkpt><trkpt lat="43.40982653974572" lon="11.352920670916024"><ele>469.0</ele><time>2026-04-06T14:40:46Z</time></trkpt><trkpt lat="43.409812917256424" lon="11.353017779335756"><ele>469.0</ele><time>2026-04-06T14:40:47Z</time></trkpt><trkpt lat="43.409798232691884" lon="11.353134109415487"><ele>468.79999999999995</ele><time>2026-04-06T14:40:48Z</time></trkpt><trkpt lat="43.40977821658719" lon="11.353225729440357"><ele>468.59999999999997</ele><time>2026-04-06T14:40:49Z</time></trkpt><trkpt lat="43.409702579473766" lon="11.353308027525523"><ele>468.4</ele><time>2026-04-06T14:40:51Z</time></trkpt><trkpt lat="43.409562662453204" lon="11.353306115070714"><ele>468.2</ele><time>2026-04-06T14:40:53Z</time></trkpt><trkpt lat="43.409492518070664" lon="11.353325430178026"><ele>468.0</ele><time>2026-04-06T14:40:54Z</time></trkpt><trkpt lat="43.409405835925156" lon="11.35319744565267"><ele>468.0</ele><time>2026-04-06T14:40:55Z</time></trkpt><trkpt lat="43.409306828199696" lon="11.353177446395463"><ele>468.0</ele><time>2026-04-06T14:40:56Z</time></trkpt><trkpt lat="43.40922699692322" lon="11.353166032115565"><ele>468.0</ele><time>2026-04-06T14:40:57Z</time></trkpt><trkpt lat="43.40914935957102" lon="11.353167307365972"><ele>468.0</ele><time>2026-04-06T14:40:58Z</time></trkpt><trkpt lat="43.40907022360908" lon="11.353184303666577"><ele>468.0</ele><time>2026-04-06T14:40:59Z</time></trkpt><trkpt lat="43.40899202615746" lon="11.353215476269332"><ele>468.0</ele><time>2026-04-06T14:41:00Z</time></trkpt><trkpt lat="43.40891650472759" lon="11.353260757155082"><ele>468.0</ele><time>2026-04-06T14:41:01Z</time></trkpt><trkpt lat="43.40885572942327" lon="11.353318900555143"><ele>468.0</ele><time>2026-04-06T14:41:02Z</time></trkpt><trkpt lat="43.4088036574233" lon="11.353392696648184"><ele>468.0</ele><time>2026-04-06T14:41:03Z</time></trkpt><trkpt lat="43.40876546938811" lon="11.353474098545446"><ele>468.0</ele><time>2026-04-06T14:41:04Z</time></trkpt><trkpt lat="43.40876239822432" lon="11.353601459979938"><ele>468.0</ele><time>2026-04-06T14:41:05Z</time></trkpt><trkpt lat="43.40875284122074" lon="11.353736255006"><ele>468.0</ele><time>2026-04-06T14:41:06Z</time></trkpt><trkpt lat="43.408733666581796" lon="11.35385551966426"><ele>468.6666666666667</ele><time>2026-04-06T14:41:07Z</time></trkpt><trkpt lat="43.40872893932696" lon="11.353963750288719"><ele>469.33333333333337</ele><time>2026-04-06T14:41:08Z</time></trkpt><trkpt lat="43.408697280315906" lon="11.35403919609671"><ele>470.0</ele><time>2026-04-06T14:41:09Z</time></trkpt><trkpt lat="43.4086356979716" lon="11.354076410011483"><ele>470.6666666666667</ele><time>2026-04-06T14:41:10Z</time></trkpt><trkpt lat="43.40852540946961" lon="11.354146515239654"><ele>471.33333333333337</ele><time>2026-04-06T14:41:12Z</time></trkpt><trkpt lat="43.40844715448611" lon="11.354119744370923"><ele>472.0</ele><time>2026-04-06T14:41:13Z</time></trkpt><trkpt lat="43.4083743610352" lon="11.354063314492802"><ele>472.00000000000006</ele><time>2026-04-06T14:41:14Z</time></trkpt><trkpt lat="43.40829170235499" lon="11.353974287282927"><ele>472.0</ele><time>2026-04-06T14:41:15Z</time></trkpt><trkpt lat="43.40821466053832" lon="11.35387931220887"><ele>472.0</ele><time>2026-04-06T14:41:16Z</time></trkpt><trkpt lat="43.40815123045387" lon="11.353813317911168"><ele>472.0</ele><time>2026-04-06T14:41:17Z</time></trkpt><trkpt lat="43.408088127749" lon="11.353766612134487"><ele>472.00000000000006</ele><time>2026-04-06T14:41:18Z</time></trkpt><trkpt lat="43.408011714994856" lon="11.353739007853624"><ele>472.0</ele><time>2026-04-06T14:41:19Z</time></trkpt><trkpt lat="43.40792945907928" lon="11.353739938595513"><ele>470.83333333333337</ele><time>2026-04-06T14:41:20Z</time></trkpt><trkpt lat="43.40784440791866" lon="11.353743310579809"><ele>469.6666666666667</ele><time>2026-04-06T14:41:21Z</time></trkpt><trkpt lat="43.407764446784306" lon="11.353803142416853"><ele>468.5</ele><time>2026-04-06T14:41:22Z</time></trkpt><trkpt lat="43.407715500948974" lon="11.353890865878904"><ele>467.33333333333337</ele><time>2026-04-06T14:41:23Z</time></trkpt><trkpt lat="43.407658125743254" lon="11.3540298935156"><ele>466.1666666666667</ele><time>2026-04-06T14:41:25Z</time></trkpt><trkpt lat="43.40764380446168" lon="11.354114429287405"><ele>465.0</ele><time>2026-04-06T14:41:26Z</time></trkpt><trkpt lat="43.40762927351083" lon="11.354211081948376"><ele>465.0</ele><time>2026-04-06T14:41:27Z</time></trkpt><trkpt lat="43.407606820299925" lon="11.354298896095505"><ele>465.0</ele><time>2026-04-06T14:41:28Z</time></trkpt><trkpt lat="43.40753704721383" lon="11.354409232316353"><ele>465.0</ele><time>2026-04-06T14:41:30Z</time></trkpt><trkpt lat="43.4074045433622" lon="11.35441709167896"><ele>465.0</ele><time>2026-04-06T14:41:32Z</time></trkpt><trkpt lat="43.40731628226695" lon="11.354366820708748"><ele>465.0</ele><time>2026-04-06T14:41:32.999Z</time></trkpt><trkpt lat="43.40722972873774" lon="11.354329805434963"><ele>463.3333333333333</ele><time>2026-04-06T14:41:33.999Z</time></trkpt><trkpt lat="43.40714439181162" lon="11.354332595864797"><ele>461.66666666666663</ele><time>2026-04-06T14:41:34.999Z</time></trkpt><trkpt lat="43.40705528766219" lon="11.354363430357989"><ele>460.0</ele><time>2026-04-06T14:41:35.999Z</time></trkpt><trkpt lat="43.40697863816581" lon="11.354400088858497"><ele>458.3333333333333</ele><time>2026-04-06T14:41:36.999Z</time></trkpt><trkpt lat="43.406892746402214" lon="11.354457373851956"><ele>456.66666666666663</ele><time>2026-04-06T14:41:37.999Z</time></trkpt><trkpt lat="43.406817818113794" lon="11.354516026108222"><ele>455.0</ele><time>2026-04-06T14:41:38.999Z</time></trkpt><trkpt lat="43.406738591419625" lon="11.35458678802441"><ele>455.0</ele><time>2026-04-06T14:41:39.999Z</time></trkpt><trkpt lat="43.406667461147" lon="11.35465436728941"><ele>455.0</ele><time>2026-04-06T14:41:40.999Z</time></trkpt><trkpt lat="43.40658347806606" lon="11.35477763769543"><ele>455.0</ele><time>2026-04-06T14:41:42.999Z</time></trkpt><trkpt lat="43.40653115971902" lon="11.35495481374793"><ele>455.0</ele><time>2026-04-06T14:41:44.999Z</time></trkpt><trkpt lat="43.406549139816256" lon="11.355074703037493"><ele>455.0</ele><time>2026-04-06T14:41:45.999Z</time></trkpt><trkpt lat="43.406563649037324" lon="11.355204126820542"><ele>456.4</ele><time>2026-04-06T14:41:46.999Z</time></trkpt><trkpt lat="43.40659095678988" lon="11.355356635677916"><ele>457.8</ele><time>2026-04-06T14:41:47.999Z</time></trkpt><trkpt lat="43.406605145811994" lon="11.355508491368107"><ele>459.20000000000005</ele><time>2026-04-06T14:41:48.999Z</time></trkpt><trkpt lat="43.40665181623741" lon="11.355622830019348"><ele>460.6</ele><time>2026-04-06T14:41:49.999Z</time></trkpt><trkpt lat="43.40667400229826" lon="11.355721233303603"><ele>462.0</ele><time>2026-04-06T14:41:50.999Z</time></trkpt><trkpt lat="43.40669197494472" lon="11.355806005293008"><ele>462.6666666666667</ele><time>2026-04-06T14:41:51.999Z</time></trkpt><trkpt lat="43.406663488409976" lon="11.355883554105302"><ele>463.33333333333337</ele><time>2026-04-06T14:41:52.999Z</time></trkpt><trkpt lat="43.40662481904578" lon="11.356019010251066"><ele>464.0</ele><time>2026-04-06T14:41:54.999Z</time></trkpt><trkpt lat="43.406563696341266" lon="11.356048826770593"><ele>464.6666666666667</ele><time>2026-04-06T14:41:55.999Z</time></trkpt><trkpt lat="43.40649923129103" lon="11.356049141172836"><ele>465.33333333333337</ele><time>2026-04-06T14:41:56.999Z</time></trkpt><trkpt lat="43.40643381455511" lon="11.356014380406949"><ele>466.0</ele><time>2026-04-06T14:41:57.999Z</time></trkpt><trkpt lat="43.406364692264304" lon="11.355925293478721"><ele>465.4</ele><time>2026-04-06T14:41:58.999Z</time></trkpt><trkpt lat="43.4062729418702" lon="11.355857858527063"><ele>464.8</ele><time>2026-04-06T14:41:59.999Z</time></trkpt><trkpt lat="43.40617483902452" lon="11.355751625122425"><ele>464.19999999999993</ele><time>2026-04-06T14:42:00.999Z</time></trkpt><trkpt lat="43.40609528751442" lon="11.355644785952174"><ele>463.59999999999997</ele><time>2026-04-06T14:42:01.999Z</time></trkpt><trkpt lat="43.40601060676102" lon="11.355564139637595"><ele>463.0</ele><time>2026-04-06T14:42:02.999Z</time></trkpt><trkpt lat="43.40591657612238" lon="11.355514061984668"><ele>461.33333333333337</ele><time>2026-04-06T14:42:03.999Z</time></trkpt><trkpt lat="43.40585298174176" lon="11.355444853774175"><ele>459.6666666666667</ele><time>2026-04-06T14:42:04.999Z</time></trkpt><trkpt lat="43.40577513881933" lon="11.3554012122328"><ele>458.0</ele><time>2026-04-06T14:42:05.999Z</time></trkpt><trkpt lat="43.40569414697771" lon="11.355373486272294"><ele>456.33333333333337</ele><time>2026-04-06T14:42:06.999Z</time></trkpt><trkpt lat="43.40562324073717" lon="11.35536609118329"><ele>454.6666666666667</ele><time>2026-04-06T14:42:07.999Z</time></trkpt><trkpt lat="43.40554831199583" lon="11.355378314675981"><ele>453.0</ele><time>2026-04-06T14:42:08.999Z</time></trkpt><trkpt lat="43.40547935611955" lon="11.35541988985681"><ele>453.5</ele><time>2026-04-06T14:42:09.999Z</time></trkpt><trkpt lat="43.40543220111178" lon="11.3554892946243"><ele>454.0</ele><time>2026-04-06T14:42:10.999Z</time></trkpt><trkpt lat="43.40541906413331" lon="11.355602723334146"><ele>454.5</ele><time>2026-04-06T14:42:11.999Z</time></trkpt><trkpt lat="43.40537732012144" lon="11.355699605343816"><ele>455.0</ele><time>2026-04-06T14:42:12.999Z</time></trkpt><trkpt lat="43.40535141780546" lon="11.355826434170824"><ele>455.5</ele><time>2026-04-06T14:42:13.999Z</time></trkpt><trkpt lat="43.4053326671746" lon="11.3559306547818"><ele>456.0</ele><time>2026-04-06T14:42:14.999Z</time></trkpt><trkpt lat="43.40528226530837" lon="11.356045678897441"><ele>456.0</ele><time>2026-04-06T14:42:16.999Z</time></trkpt><trkpt lat="43.40514931727752" lon="11.35608742132695"><ele>456.0</ele><time>2026-04-06T14:42:18.999Z</time></trkpt><trkpt lat="43.40506487522047" lon="11.356020845137401"><ele>456.0</ele><time>2026-04-06T14:42:19.999Z</time></trkpt><trkpt lat="43.40498139983441" lon="11.355955911931192"><ele>456.0</ele><time>2026-04-06T14:42:20.999Z</time></trkpt><trkpt lat="43.4048853199586" lon="11.355901563242224"><ele>456.0</ele><time>2026-04-06T14:42:21.999Z</time></trkpt><trkpt lat="43.40480082648608" lon="11.355826387641368"><ele>456.0</ele><time>2026-04-06T14:42:22.999Z</time></trkpt><trkpt lat="43.40471798684698" lon="11.355750909989792"><ele>456.0</ele><time>2026-04-06T14:42:23.999Z</time></trkpt><trkpt lat="43.40463479317641" lon="11.355690997406514"><ele>456.0</ele><time>2026-04-06T14:42:24.999Z</time></trkpt><trkpt lat="43.40454493631131" lon="11.355619456341708"><ele>456.0</ele><time>2026-04-06T14:42:25.999Z</time></trkpt><trkpt lat="43.40445168865001" lon="11.355581496876365"><ele>456.0</ele><time>2026-04-06T14:42:26.999Z</time></trkpt><trkpt lat="43.40436241070695" lon="11.355565717076315"><ele>455.20000000000005</ele><time>2026-04-06T14:42:28Z</time></trkpt><trkpt lat="43.404268741867554" lon="11.355576714761009"><ele>454.40000000000003</ele><time>2026-04-06T14:42:29Z</time></trkpt><trkpt lat="43.404180421798415" lon="11.355571337928419"><ele>453.6</ele><time>2026-04-06T14:42:30Z</time></trkpt><trkpt lat="43.40409633204381" lon="11.355588891746134"><ele>452.8</ele><time>2026-04-06T14:42:31Z</time></trkpt><trkpt lat="43.40399490543255" lon="11.355614603794963"><ele>452.0</ele><time>2026-04-06T14:42:32Z</time></trkpt><trkpt lat="43.403897986485255" lon="11.355679171615886"><ele>450.8</ele><time>2026-04-06T14:42:33Z</time></trkpt><trkpt lat="43.4037908247706" lon="11.355768526687166"><ele>449.6</ele><time>2026-04-06T14:42:34Z</time></trkpt><trkpt lat="43.403713118057674" lon="11.355866295311362"><ele>448.40000000000003</ele><time>2026-04-06T14:42:35Z</time></trkpt><trkpt lat="43.403646563365214" lon="11.355935773328028"><ele>447.20000000000005</ele><time>2026-04-06T14:42:36Z</time></trkpt><trkpt lat="43.40358841451441" lon="11.355980269124483"><ele>446.0</ele><time>2026-04-06T14:42:37Z</time></trkpt><trkpt lat="43.40357551012587" lon="11.356164551691226"><ele>445.99999999999994</ele><time>2026-04-06T14:42:39Z</time></trkpt><trkpt lat="43.403591261306595" lon="11.356251422685075"><ele>446.0</ele><time>2026-04-06T14:42:40Z</time></trkpt><trkpt lat="43.403627885228936" lon="11.356332059503963"><ele>446.0</ele><time>2026-04-06T14:42:41Z</time></trkpt><trkpt lat="43.40367978322452" lon="11.356411568280931"><ele>446.0</ele><time>2026-04-06T14:42:42Z</time></trkpt><trkpt lat="43.40373863073576" lon="11.356515161003703"><ele>445.99999999999994</ele><time>2026-04-06T14:42:43Z</time></trkpt><trkpt lat="43.403792847603235" lon="11.35659277369384"><ele>446.0</ele><time>2026-04-06T14:42:44Z</time></trkpt><trkpt lat="43.40384955654158" lon="11.356726644706125"><ele>446.16666666666663</ele><time>2026-04-06T14:42:46Z</time></trkpt><trkpt lat="43.403844792175974" lon="11.356825985794961"><ele>446.3333333333333</ele><time>2026-04-06T14:42:47Z</time></trkpt><trkpt lat="43.40381584726587" lon="11.35691886770991"><ele>446.5</ele><time>2026-04-06T14:42:48Z</time></trkpt><trkpt lat="43.403772013870146" lon="11.356991588826807"><ele>446.66666666666663</ele><time>2026-04-06T14:42:49Z</time></trkpt><trkpt lat="43.403706265307946" lon="11.357046664377686"><ele>446.8333333333333</ele><time>2026-04-06T14:42:50Z</time></trkpt><trkpt lat="43.40362162383865" lon="11.357085767652608"><ele>447.0</ele><time>2026-04-06T14:42:51Z</time></trkpt><trkpt lat="43.40351795821311" lon="11.357106336533535"><ele>447.0</ele><time>2026-04-06T14:42:52Z</time></trkpt><trkpt lat="43.40340859428943" lon="11.357111477380752"><ele>447.00000000000006</ele><time>2026-04-06T14:42:53Z</time></trkpt><trkpt lat="43.4033020535345" lon="11.357086863759964"><ele>447.00000000000006</ele><time>2026-04-06T14:42:54Z</time></trkpt><trkpt lat="43.40320743400735" lon="11.357103104625356"><ele>447.0</ele><time>2026-04-06T14:42:55Z</time></trkpt><trkpt lat="43.40312682318307" lon="11.357094392133991"><ele>447.0</ele><time>2026-04-06T14:42:56Z</time></trkpt><trkpt lat="43.40304221304211" lon="11.357101860684017"><ele>446.20000000000005</ele><time>2026-04-06T14:42:57Z</time></trkpt><trkpt lat="43.402950010763966" lon="11.357179865547085"><ele>445.40000000000003</ele><time>2026-04-06T14:42:58Z</time></trkpt><trkpt lat="43.40286711680894" lon="11.357255411027591"><ele>444.59999999999997</ele><time>2026-04-06T14:42:59Z</time></trkpt><trkpt lat="43.402792551943904" lon="11.35733670117657"><ele>443.79999999999995</ele><time>2026-04-06T14:43:00Z</time></trkpt><trkpt lat="43.40275375696292" lon="11.357437739183982"><ele>443.0</ele><time>2026-04-06T14:43:01Z</time></trkpt><trkpt lat="43.4027290005291" lon="11.357554303391003"><ele>443.0</ele><time>2026-04-06T14:43:02Z</time></trkpt><trkpt lat="43.40272331795937" lon="11.357679730530855"><ele>442.99999999999994</ele><time>2026-04-06T14:43:03Z</time></trkpt><trkpt lat="43.40274255669505" lon="11.357822122108837"><ele>442.99999999999994</ele><time>2026-04-06T14:43:04Z</time></trkpt><trkpt lat="43.40277164647257" lon="11.35797828364276"><ele>443.0</ele><time>2026-04-06T14:43:05Z</time></trkpt><trkpt lat="43.40280121061335" lon="11.358132118764804"><ele>443.0</ele><time>2026-04-06T14:43:06Z</time></trkpt><trkpt lat="43.4028222697324" lon="11.358271792358353"><ele>442.79999999999995</ele><time>2026-04-06T14:43:07Z</time></trkpt><trkpt lat="43.4028387141099" lon="11.35841304285637"><ele>442.59999999999997</ele><time>2026-04-06T14:43:08Z</time></trkpt><trkpt lat="43.402861294192114" lon="11.35854982247914"><ele>442.40000000000003</ele><time>2026-04-06T14:43:09Z</time></trkpt><trkpt lat="43.40289458811455" lon="11.358670948064148"><ele>442.20000000000005</ele><time>2026-04-06T14:43:10Z</time></trkpt><trkpt lat="43.40293715120592" lon="11.358772710047376"><ele>442.0</ele><time>2026-04-06T14:43:11Z</time></trkpt><trkpt lat="43.4029878299803" lon="11.358853282646745"><ele>442.6</ele><time>2026-04-06T14:43:12Z</time></trkpt><trkpt lat="43.40305141073789" lon="11.358915302156054"><ele>443.20000000000005</ele><time>2026-04-06T14:43:13Z</time></trkpt><trkpt lat="43.4031376894444" lon="11.358952913879286"><ele>443.8</ele><time>2026-04-06T14:43:14Z</time></trkpt><trkpt lat="43.40325091961097" lon="11.35896073977364"><ele>444.4</ele><time>2026-04-06T14:43:15Z</time></trkpt><trkpt lat="43.40334613944497" lon="11.359013970805329"><ele>445.0</ele><time>2026-04-06T14:43:16Z</time></trkpt><trkpt lat="43.40342630984681" lon="11.359045792659202"><ele>445.0</ele><time>2026-04-06T14:43:17Z</time></trkpt><trkpt lat="43.40348773784386" lon="11.35911342700042"><ele>445.0</ele><time>2026-04-06T14:43:18Z</time></trkpt><trkpt lat="43.40354137298416" lon="11.359210753231903"><ele>445.0</ele><time>2026-04-06T14:43:19Z</time></trkpt><trkpt lat="43.40357512851991" lon="11.359326573156928"><ele>445.0</ele><time>2026-04-06T14:43:20Z</time></trkpt><trkpt lat="43.40358278026544" lon="11.359452386560811"><ele>445.0</ele><time>2026-04-06T14:43:21Z</time></trkpt><trkpt lat="43.40357040809855" lon="11.359600356927205"><ele>443.8</ele><time>2026-04-06T14:43:22Z</time></trkpt><trkpt lat="43.403532941194484" lon="11.359740538406271"><ele>442.6</ele><time>2026-04-06T14:43:23Z</time></trkpt><trkpt lat="43.40350301611433" lon="11.359909971600802"><ele>441.4</ele><time>2026-04-06T14:43:24Z</time></trkpt><trkpt lat="43.40348207116289" lon="11.360048951197491"><ele>440.2</ele><time>2026-04-06T14:43:25Z</time></trkpt><trkpt lat="43.40348479447113" lon="11.360177778674672"><ele>439.0</ele><time>2026-04-06T14:43:26Z</time></trkpt><trkpt lat="43.40349760861707" lon="11.36031819046241"><ele>439.00000000000006</ele><time>2026-04-06T14:43:27Z</time></trkpt><trkpt lat="43.40351350736396" lon="11.36043571840577"><ele>439.0</ele><time>2026-04-06T14:43:28Z</time></trkpt><trkpt lat="43.40349211288103" lon="11.360545632391968"><ele>439.0</ele><time>2026-04-06T14:43:29Z</time></trkpt><trkpt lat="43.40345291304928" lon="11.360695767071434"><ele>439.0</ele><time>2026-04-06T14:43:31Z</time></trkpt><trkpt lat="43.403399618316676" lon="11.36075898974766"><ele>439.00000000000006</ele><time>2026-04-06T14:43:32Z</time></trkpt><trkpt lat="43.403318230465075" lon="11.360800438465919"><ele>439.0</ele><time>2026-04-06T14:43:33Z</time></trkpt><trkpt lat="43.403205142858056" lon="11.360834892307611"><ele>439.5</ele><time>2026-04-06T14:43:33.999Z</time></trkpt><trkpt lat="43.40308634888532" lon="11.360894435460102"><ele>440.0</ele><time>2026-04-06T14:43:34.999Z</time></trkpt><trkpt lat="43.40296456841122" lon="11.360915648217198"><ele>440.5</ele><time>2026-04-06T14:43:35.999Z</time></trkpt><trkpt lat="43.40284804191604" lon="11.360928491271423"><ele>441.0</ele><time>2026-04-06T14:43:36.999Z</time></trkpt><trkpt lat="43.402735969607676" lon="11.3608845568167"><ele>441.0</ele><time>2026-04-06T14:43:37.999Z</time></trkpt><trkpt lat="43.402623810081415" lon="11.360875473171646"><ele>441.0</ele><time>2026-04-06T14:43:38.999Z</time></trkpt><trkpt lat="43.40252836650787" lon="11.360847848165983"><ele>441.0</ele><time>2026-04-06T14:43:39.999Z</time></trkpt><trkpt lat="43.40243230180635" lon="11.36084761956959"><ele>441.0</ele><time>2026-04-06T14:43:40.999Z</time></trkpt><trkpt lat="43.40233664836174" lon="11.360874356078314"><ele>441.0</ele><time>2026-04-06T14:43:41.999Z</time></trkpt><trkpt lat="43.40223391087799" lon="11.360906123199069"><ele>439.5</ele><time>2026-04-06T14:43:42.999Z</time></trkpt><trkpt lat="43.40214261383616" lon="11.361006255513145"><ele>438.0</ele><time>2026-04-06T14:43:43.999Z</time></trkpt><trkpt lat="43.40204781163924" lon="11.361111059623752"><ele>436.5</ele><time>2026-04-06T14:43:44.999Z</time></trkpt><trkpt lat="43.40195968248974" lon="11.36122201179297"><ele>435.0</ele><time>2026-04-06T14:43:45.999Z</time></trkpt><trkpt lat="43.40185597330309" lon="11.361333667976831"><ele>437.25</ele><time>2026-04-06T14:43:46.999Z</time></trkpt><trkpt lat="43.401766726061034" lon="11.361436437035483"><ele>439.5</ele><time>2026-04-06T14:43:47.999Z</time></trkpt><trkpt lat="43.401673618665455" lon="11.361535721615066"><ele>441.75</ele><time>2026-04-06T14:43:48.999Z</time></trkpt><trkpt lat="43.40158775153321" lon="11.361627285696576"><ele>444.0</ele><time>2026-04-06T14:43:49.999Z</time></trkpt><trkpt lat="43.401502303829844" lon="11.361718402222275"><ele>444.0</ele><time>2026-04-06T14:43:50.999Z</time></trkpt><trkpt lat="43.40142416308393" lon="11.361801727099047"><ele>444.0</ele><time>2026-04-06T14:43:51.999Z</time></trkpt><trkpt lat="43.40136290597343" lon="11.36187268069173"><ele>444.0</ele><time>2026-04-06T14:43:52.999Z</time></trkpt><trkpt lat="43.40131684526865" lon="11.361947935070214"><ele>444.0</ele><time>2026-04-06T14:43:53.999Z</time></trkpt><trkpt lat="43.401303137576505" lon="11.362124257574099"><ele>444.0</ele><time>2026-04-06T14:43:55.999Z</time></trkpt><trkpt lat="43.401319626390546" lon="11.362231244654138"><ele>445.0</ele><time>2026-04-06T14:43:56.999Z</time></trkpt><trkpt lat="43.40136108411252" lon="11.362357286224093"><ele>446.0</ele><time>2026-04-06T14:43:57.999Z</time></trkpt><trkpt lat="43.40138192237255" lon="11.362506607302084"><ele>447.0</ele><time>2026-04-06T14:43:58.999Z</time></trkpt><trkpt lat="43.40139956763627" lon="11.362639312341077"><ele>448.0</ele><time>2026-04-06T14:43:59.999Z</time></trkpt><trkpt lat="43.40138647793309" lon="11.362774346470019"><ele>449.0</ele><time>2026-04-06T14:44:00.999Z</time></trkpt><trkpt lat="43.401364833770934" lon="11.362895999050593"><ele>449.0</ele><time>2026-04-06T14:44:01.999Z</time></trkpt><trkpt lat="43.401344430994016" lon="11.362999021014966"><ele>449.0</ele><time>2026-04-06T14:44:02.999Z</time></trkpt><trkpt lat="43.40128320232112" lon="11.36308967695261"><ele>449.0</ele><time>2026-04-06T14:44:03.999Z</time></trkpt><trkpt lat="43.40118001467009" lon="11.363132703050525"><ele>449.0</ele><time>2026-04-06T14:44:04.999Z</time></trkpt><trkpt lat="43.40107261249173" lon="11.363180255587254"><ele>449.0</ele><time>2026-04-06T14:44:05.999Z</time></trkpt><trkpt lat="43.40098868325517" lon="11.363250718209967"><ele>447.2</ele><time>2026-04-06T14:44:06.999Z</time></trkpt><trkpt lat="43.40090823970698" lon="11.363316084720926"><ele>445.4</ele><time>2026-04-06T14:44:07.999Z</time></trkpt><trkpt lat="43.40084975334698" lon="11.363411164876133"><ele>443.6</ele><time>2026-04-06T14:44:08.999Z</time></trkpt><trkpt lat="43.40080044438719" lon="11.363538642367134"><ele>441.8</ele><time>2026-04-06T14:44:09.999Z</time></trkpt><trkpt lat="43.40077037540753" lon="11.363675757069998"><ele>440.0</ele><time>2026-04-06T14:44:10.999Z</time></trkpt><trkpt lat="43.400761111715866" lon="11.363804896420865"><ele>440.4</ele><time>2026-04-06T14:44:11.999Z</time></trkpt><trkpt lat="43.400750425723004" lon="11.363931592375755"><ele>440.8</ele><time>2026-04-06T14:44:12.999Z</time></trkpt><trkpt lat="43.40076879117204" lon="11.364080418058196"><ele>441.20000000000005</ele><time>2026-04-06T14:44:13.999Z</time></trkpt><trkpt lat="43.400811536495645" lon="11.364217476997048"><ele>441.6</ele><time>2026-04-06T14:44:14.999Z</time></trkpt><trkpt lat="43.400868686042905" lon="11.36436341194423"><ele>442.0</ele><time>2026-04-06T14:44:15.999Z</time></trkpt><trkpt lat="43.40095068820176" lon="11.364514216552196"><ele>442.0</ele><time>2026-04-06T14:44:16.999Z</time></trkpt><trkpt lat="43.400987955983155" lon="11.364664958139969"><ele>442.00000000000006</ele><time>2026-04-06T14:44:17.999Z</time></trkpt><trkpt lat="43.40102003064427" lon="11.364783493267964"><ele>442.00000000000006</ele><time>2026-04-06T14:44:18.999Z</time></trkpt><trkpt lat="43.40103818902563" lon="11.364894574052622"><ele>442.0</ele><time>2026-04-06T14:44:19.999Z</time></trkpt><trkpt lat="43.40106484208617" lon="11.36500768418752"><ele>442.0</ele><time>2026-04-06T14:44:20.999Z</time></trkpt><trkpt lat="43.401044081716705" lon="11.365173434171359"><ele>441.83333333333337</ele><time>2026-04-06T14:44:22.999Z</time></trkpt><trkpt lat="43.40110819732131" lon="11.365357843344583"><ele>441.6666666666667</ele><time>2026-04-06T14:44:24.999Z</time></trkpt><trkpt lat="43.40112552035419" lon="11.365451437822395"><ele>441.5</ele><time>2026-04-06T14:44:25.999Z</time></trkpt><trkpt lat="43.40113828684096" lon="11.3655446959764"><ele>441.33333333333337</ele><time>2026-04-06T14:44:26.999Z</time></trkpt><trkpt lat="43.4011500328411" lon="11.365638124523743"><ele>441.1666666666667</ele><time>2026-04-06T14:44:27.999Z</time></trkpt><trkpt lat="43.401162356210804" lon="11.365732914514368"><ele>441.0</ele><time>2026-04-06T14:44:28.999Z</time></trkpt><trkpt lat="43.40117878152664" lon="11.36582827642076"><ele>441.0</ele><time>2026-04-06T14:44:29.999Z</time></trkpt><trkpt lat="43.40120634208863" lon="11.365989378153628"><ele>441.0</ele><time>2026-04-06T14:44:31.999Z</time></trkpt><trkpt lat="43.40123714854792" lon="11.366179607691025"><ele>441.0</ele><time>2026-04-06T14:44:34Z</time></trkpt><trkpt lat="43.40125959737768" lon="11.366285379469838"><ele>441.0</ele><time>2026-04-06T14:44:35Z</time></trkpt><trkpt lat="43.40129075645858" lon="11.366403160093075"><ele>441.0</ele><time>2026-04-06T14:44:36Z</time></trkpt><trkpt lat="43.40132612750707" lon="11.36652582051732"><ele>439.8</ele><time>2026-04-06T14:44:37Z</time></trkpt><trkpt lat="43.401373907384695" lon="11.366665052178128"><ele>438.6</ele><time>2026-04-06T14:44:38Z</time></trkpt><trkpt lat="43.40143022229857" lon="11.366791443122963"><ele>437.4</ele><time>2026-04-06T14:44:39Z</time></trkpt><trkpt lat="43.40147714392702" lon="11.366901284772595"><ele>436.2</ele><time>2026-04-06T14:44:40Z</time></trkpt><trkpt lat="43.40151813452636" lon="11.367017320685369"><ele>435.0</ele><time>2026-04-06T14:44:41Z</time></trkpt><trkpt lat="43.40155390670251" lon="11.367147679244734"><ele>434.75</ele><time>2026-04-06T14:44:42Z</time></trkpt><trkpt lat="43.40157999303606" lon="11.367299361802544"><ele>434.5</ele><time>2026-04-06T14:44:43Z</time></trkpt><trkpt lat="43.40159776258155" lon="11.367462558481474"><ele>434.25</ele><time>2026-04-06T14:44:44Z</time></trkpt><trkpt lat="43.401606648422025" lon="11.367621523528063"><ele>434.0</ele><time>2026-04-06T14:44:45Z</time></trkpt><trkpt lat="43.40161670664822" lon="11.367792985864167"><ele>434.0</ele><time>2026-04-06T14:44:46Z</time></trkpt><trkpt lat="43.40163196680118" lon="11.367973667936097"><ele>434.0</ele><time>2026-04-06T14:44:47Z</time></trkpt><trkpt lat="43.40164631811002" lon="11.368123001406682"><ele>434.0</ele><time>2026-04-06T14:44:48Z</time></trkpt><trkpt lat="43.40166610587438" lon="11.368285076706819"><ele>434.0</ele><time>2026-04-06T14:44:49Z</time></trkpt><trkpt lat="43.401681333085605" lon="11.368453606397248"><ele>433.5</ele><time>2026-04-06T14:44:50Z</time></trkpt><trkpt lat="43.40169555459689" lon="11.368628571742319"><ele>433.0</ele><time>2026-04-06T14:44:51Z</time></trkpt><trkpt lat="43.401705420959814" lon="11.368791708903535"><ele>432.5</ele><time>2026-04-06T14:44:52Z</time></trkpt><trkpt lat="43.40170646704247" lon="11.36893424118518"><ele>432.0</ele><time>2026-04-06T14:44:53Z</time></trkpt><trkpt lat="43.401698005508216" lon="11.36909078680897"><ele>431.5</ele><time>2026-04-06T14:44:54Z</time></trkpt><trkpt lat="43.40167522127222" lon="11.369251257015398"><ele>431.0</ele><time>2026-04-06T14:44:55Z</time></trkpt><trkpt lat="43.40164379367292" lon="11.369435084628627"><ele>430.5</ele><time>2026-04-06T14:44:56Z</time></trkpt><trkpt lat="43.401608836232235" lon="11.369621881404578"><ele>430.0</ele><time>2026-04-06T14:44:57Z</time></trkpt><trkpt lat="43.40157008448828" lon="11.369804075870036"><ele>429.75</ele><time>2026-04-06T14:44:58Z</time></trkpt><trkpt lat="43.40152551311502" lon="11.369982773825944"><ele>429.5</ele><time>2026-04-06T14:44:59Z</time></trkpt><trkpt lat="43.40147532258288" lon="11.370145541498115"><ele>429.25</ele><time>2026-04-06T14:45:00Z</time></trkpt><trkpt lat="43.40142666783319" lon="11.37029816813269"><ele>429.0</ele><time>2026-04-06T14:45:01Z</time></trkpt><trkpt lat="43.40137994560069" lon="11.370444604747217"><ele>428.79999999999995</ele><time>2026-04-06T14:45:02Z</time></trkpt><trkpt lat="43.40134062558875" lon="11.370580101014431"><ele>428.59999999999997</ele><time>2026-04-06T14:45:03Z</time></trkpt><trkpt lat="43.40131079862878" lon="11.370717945227677"><ele>428.4</ele><time>2026-04-06T14:45:04Z</time></trkpt><trkpt lat="43.401272218424815" lon="11.37086446635615"><ele>428.2</ele><time>2026-04-06T14:45:05Z</time></trkpt><trkpt lat="43.401256408101446" lon="11.371021235214313"><ele>428.0</ele><time>2026-04-06T14:45:06Z</time></trkpt><trkpt lat="43.401268145708634" lon="11.371184464610348"><ele>428.5</ele><time>2026-04-06T14:45:07Z</time></trkpt><trkpt lat="43.401250708322294" lon="11.371350338450863"><ele>429.0</ele><time>2026-04-06T14:45:08Z</time></trkpt><trkpt lat="43.401270862449444" lon="11.371517328012725"><ele>429.5</ele><time>2026-04-06T14:45:09Z</time></trkpt><trkpt lat="43.401272578498066" lon="11.371675169043996"><ele>430.0</ele><time>2026-04-06T14:45:10Z</time></trkpt><trkpt lat="43.40127917169073" lon="11.37183532644069"><ele>430.8</ele><time>2026-04-06T14:45:11Z</time></trkpt><trkpt lat="43.401282390274694" lon="11.37197798677169"><ele>431.6</ele><time>2026-04-06T14:45:12Z</time></trkpt><trkpt lat="43.401283473899184" lon="11.37211577369091"><ele>432.4</ele><time>2026-04-06T14:45:13Z</time></trkpt><trkpt lat="43.40128035989871" lon="11.372249151277673"><ele>433.2</ele><time>2026-04-06T14:45:14Z</time></trkpt><trkpt lat="43.401274634914515" lon="11.372364622841342"><ele>434.0</ele><time>2026-04-06T14:45:15Z</time></trkpt><trkpt lat="43.401257898518516" lon="11.372478802359337"><ele>434.4</ele><time>2026-04-06T14:45:16Z</time></trkpt><trkpt lat="43.40121917240746" lon="11.37260066572278"><ele>434.79999999999995</ele><time>2026-04-06T14:45:17Z</time></trkpt><trkpt lat="43.401155633493566" lon="11.372725497638156"><ele>435.20000000000005</ele><time>2026-04-06T14:45:18Z</time></trkpt><trkpt lat="43.40107653523309" lon="11.372826605107864"><ele>435.6</ele><time>2026-04-06T14:45:19Z</time></trkpt><trkpt lat="43.40097996375025" lon="11.372924179931243"><ele>436.0</ele><time>2026-04-06T14:45:20Z</time></trkpt><trkpt lat="43.40087399462569" lon="11.373040346998192"><ele>436.4</ele><time>2026-04-06T14:45:21Z</time></trkpt><trkpt lat="43.400796048592895" lon="11.37316009028675"><ele>436.8</ele><time>2026-04-06T14:45:22Z</time></trkpt><trkpt lat="43.40073676052551" lon="11.373249189905547"><ele>437.19999999999993</ele><time>2026-04-06T14:45:23Z</time></trkpt><trkpt lat="43.40068140965149" lon="11.373363423015949"><ele>437.59999999999997</ele><time>2026-04-06T14:45:24Z</time></trkpt><trkpt lat="43.40063945460143" lon="11.373507231899627"><ele>438.0</ele><time>2026-04-06T14:45:25Z</time></trkpt><trkpt lat="43.40061355578058" lon="11.373660812317262"><ele>438.0</ele><time>2026-04-06T14:45:26Z</time></trkpt><trkpt lat="43.40058841535901" lon="11.37383109639132"><ele>437.99999999999994</ele><time>2026-04-06T14:45:27Z</time></trkpt><trkpt lat="43.40056354534737" lon="11.373970406576658"><ele>437.99999999999994</ele><time>2026-04-06T14:45:28Z</time></trkpt><trkpt lat="43.4005151169211" lon="11.37408796551282"><ele>438.0</ele><time>2026-04-06T14:45:29Z</time></trkpt><trkpt lat="43.400468327048586" lon="11.374214971703132"><ele>438.0</ele><time>2026-04-06T14:45:30Z</time></trkpt><trkpt lat="43.400407893192934" lon="11.374333103142263"><ele>438.25</ele><time>2026-04-06T14:45:31Z</time></trkpt><trkpt lat="43.400343383007886" lon="11.374462947506064"><ele>438.5</ele><time>2026-04-06T14:45:32Z</time></trkpt><trkpt lat="43.40025996885147" lon="11.374592825375977"><ele>438.75</ele><time>2026-04-06T14:45:33Z</time></trkpt><trkpt lat="43.400192941004114" lon="11.374708380878678"><ele>439.0</ele><time>2026-04-06T14:45:34Z</time></trkpt><trkpt lat="43.40012545375087" lon="11.374822876500005"><ele>438.4</ele><time>2026-04-06T14:45:35Z</time></trkpt><trkpt lat="43.40005329391776" lon="11.374944774893242"><ele>437.79999999999995</ele><time>2026-04-06T14:45:36Z</time></trkpt><trkpt lat="43.3999818675129" lon="11.375066265897836"><ele>437.20000000000005</ele><time>2026-04-06T14:45:37Z</time></trkpt><trkpt lat="43.399921512454625" lon="11.375181219305123"><ele>436.6</ele><time>2026-04-06T14:45:38Z</time></trkpt><trkpt lat="43.39985152648401" lon="11.37529734789699"><ele>436.0</ele><time>2026-04-06T14:45:39Z</time></trkpt><trkpt lat="43.39978016210445" lon="11.37542057857196"><ele>435.4</ele><time>2026-04-06T14:45:40Z</time></trkpt><trkpt lat="43.39971017312315" lon="11.375551763837654"><ele>434.8</ele><time>2026-04-06T14:45:41Z</time></trkpt><trkpt lat="43.3996315578935" lon="11.375656560230167"><ele>434.19999999999993</ele><time>2026-04-06T14:45:42Z</time></trkpt><trkpt lat="43.39955195988354" lon="11.375769802795697"><ele>433.59999999999997</ele><time>2026-04-06T14:45:43Z</time></trkpt><trkpt lat="43.39948471732894" lon="11.37587370640006"><ele>433.0</ele><time>2026-04-06T14:45:44Z</time></trkpt><trkpt lat="43.39938750194764" lon="11.375940813006649"><ele>431.75</ele><time>2026-04-06T14:45:44.999Z</time></trkpt><trkpt lat="43.399270902372116" lon="11.37594168731369"><ele>430.5</ele><time>2026-04-06T14:45:45.999Z</time></trkpt><trkpt lat="43.39913907211276" lon="11.37597726047623"><ele>429.25</ele><time>2026-04-06T14:45:46.999Z</time></trkpt><trkpt lat="43.39900682088574" lon="11.376012003867714"><ele>428.0</ele><time>2026-04-06T14:45:47.999Z</time></trkpt><trkpt lat="43.398891103916505" lon="11.376051835675623"><ele>427.0</ele><time>2026-04-06T14:45:48.999Z</time></trkpt><trkpt lat="43.39878008949545" lon="11.376103521406487"><ele>425.99999999999994</ele><time>2026-04-06T14:45:49.999Z</time></trkpt><trkpt lat="43.39867619533895" lon="11.376161923970804"><ele>425.0</ele><time>2026-04-06T14:45:50.999Z</time></trkpt><trkpt lat="43.39860300135287" lon="11.37621189763452"><ele>424.0</ele><time>2026-04-06T14:45:51.999Z</time></trkpt><trkpt lat="43.39851603160847" lon="11.376312379426958"><ele>423.0</ele><time>2026-04-06T14:45:52.999Z</time></trkpt><trkpt lat="43.39841741383761" lon="11.376379271858932"><ele>422.5</ele><time>2026-04-06T14:45:53.999Z</time></trkpt><trkpt lat="43.39832514592852" lon="11.37647430651022"><ele>422.0</ele><time>2026-04-06T14:45:54.999Z</time></trkpt><trkpt lat="43.39822615818135" lon="11.376580078823087"><ele>421.5</ele><time>2026-04-06T14:45:55.999Z</time></trkpt><trkpt lat="43.39812944103044" lon="11.376689051225354"><ele>421.0</ele><time>2026-04-06T14:45:56.999Z</time></trkpt><trkpt lat="43.398036348156694" lon="11.376804603498991"><ele>420.5</ele><time>2026-04-06T14:45:57.999Z</time></trkpt><trkpt lat="43.397947236620944" lon="11.376924685400835"><ele>420.0</ele><time>2026-04-06T14:45:58.999Z</time></trkpt><trkpt lat="43.39786318566967" lon="11.377043406422045"><ele>419.5</ele><time>2026-04-06T14:45:59.999Z</time></trkpt><trkpt lat="43.39778734972805" lon="11.377187100460485"><ele>419.0</ele><time>2026-04-06T14:46:00.999Z</time></trkpt><trkpt lat="43.39769791840333" lon="11.377320782489962"><ele>419.0</ele><time>2026-04-06T14:46:01.999Z</time></trkpt><trkpt lat="43.39761042881754" lon="11.377460553633233"><ele>419.0</ele><time>2026-04-06T14:46:02.999Z</time></trkpt><trkpt lat="43.39750828895887" lon="11.377591351365162"><ele>419.0</ele><time>2026-04-06T14:46:03.999Z</time></trkpt><trkpt lat="43.39742276015421" lon="11.377731945064832"><ele>419.0</ele><time>2026-04-06T14:46:04.999Z</time></trkpt><trkpt lat="43.3973397366475" lon="11.377873505531667"><ele>419.0</ele><time>2026-04-06T14:46:05.999Z</time></trkpt><trkpt lat="43.39726502015362" lon="11.378003336690751"><ele>419.0</ele><time>2026-04-06T14:46:06.999Z</time></trkpt><trkpt lat="43.397195188688016" lon="11.37812653976839"><ele>419.0</ele><time>2026-04-06T14:46:07.999Z</time></trkpt><trkpt lat="43.39712245016958" lon="11.378256149312959"><ele>419.0</ele><time>2026-04-06T14:46:08.999Z</time></trkpt><trkpt lat="43.39705357174423" lon="11.378378880814388"><ele>418.75</ele><time>2026-04-06T14:46:09.999Z</time></trkpt><trkpt lat="43.396986906896814" lon="11.378498398844663"><ele>418.5</ele><time>2026-04-06T14:46:10.999Z</time></trkpt><trkpt lat="43.39692472419024" lon="11.378631402996207"><ele>418.25</ele><time>2026-04-06T14:46:11.999Z</time></trkpt><trkpt lat="43.39688642297891" lon="11.378796018477884"><ele>418.0</ele><time>2026-04-06T14:46:12.999Z</time></trkpt><trkpt lat="43.396845041169534" lon="11.378962768090245"><ele>416.6666666666667</ele><time>2026-04-06T14:46:13.999Z</time></trkpt><trkpt lat="43.39680493725325" lon="11.379152646919207"><ele>415.33333333333337</ele><time>2026-04-06T14:46:14.999Z</time></trkpt><trkpt lat="43.39676609220496" lon="11.379361082836747"><ele>414.0</ele><time>2026-04-06T14:46:15.999Z</time></trkpt><trkpt lat="43.39671990450121" lon="11.379566500146773"><ele>412.75</ele><time>2026-04-06T14:46:16.999Z</time></trkpt><trkpt lat="43.39667770378107" lon="11.379766490875634"><ele>411.5</ele><time>2026-04-06T14:46:17.999Z</time></trkpt><trkpt lat="43.39665082738239" lon="11.379952752976758"><ele>410.25</ele><time>2026-04-06T14:46:18.999Z</time></trkpt><trkpt lat="43.39661820455716" lon="11.380128089769183"><ele>409.0</ele><time>2026-04-06T14:46:19.999Z</time></trkpt><trkpt lat="43.39656594684578" lon="11.380295636088302"><ele>409.0</ele><time>2026-04-06T14:46:20.999Z</time></trkpt><trkpt lat="43.39653289183869" lon="11.380468709579265"><ele>409.0</ele><time>2026-04-06T14:46:21.999Z</time></trkpt><trkpt lat="43.39646829928413" lon="11.380616773920288"><ele>409.0</ele><time>2026-04-06T14:46:22.999Z</time></trkpt><trkpt lat="43.39638664851989" lon="11.380740601164844"><ele>409.0</ele><time>2026-04-06T14:46:23.999Z</time></trkpt><trkpt lat="43.3962882624562" lon="11.380852099066605"><ele>409.75</ele><time>2026-04-06T14:46:24.999Z</time></trkpt><trkpt lat="43.396176021166994" lon="11.380949086423081"><ele>410.5</ele><time>2026-04-06T14:46:25.999Z</time></trkpt><trkpt lat="43.39604664490997" lon="11.38101411013996"><ele>411.25</ele><time>2026-04-06T14:46:26.999Z</time></trkpt><trkpt lat="43.395894763744316" lon="11.381024942422934"><ele>412.0</ele><time>2026-04-06T14:46:27.999Z</time></trkpt><trkpt lat="43.39572504945121" lon="11.381014086450383"><ele>412.0</ele><time>2026-04-06T14:46:28.999Z</time></trkpt><trkpt lat="43.39553838118967" lon="11.380999547496616"><ele>412.0</ele><time>2026-04-06T14:46:29.999Z</time></trkpt><trkpt lat="43.39536251830096" lon="11.380966674144982"><ele>412.0</ele><time>2026-04-06T14:46:30.999Z</time></trkpt><trkpt lat="43.39519406135959" lon="11.380952009701605"><ele>413.0</ele><time>2026-04-06T14:46:31.999Z</time></trkpt><trkpt lat="43.39501899384034" lon="11.380945888710475"><ele>414.0</ele><time>2026-04-06T14:46:32.999Z</time></trkpt><trkpt lat="43.394832017448074" lon="11.380954035972524"><ele>415.0</ele><time>2026-04-06T14:46:33.999Z</time></trkpt><trkpt lat="43.39463697411892" lon="11.380987681165484"><ele>415.0</ele><time>2026-04-06T14:46:34.999Z</time></trkpt><trkpt lat="43.39443352872502" lon="11.38104037827264"><ele>415.0</ele><time>2026-04-06T14:46:35.999Z</time></trkpt><trkpt lat="43.39424722556422" lon="11.38109622634904"><ele>415.0</ele><time>2026-04-06T14:46:36.999Z</time></trkpt><trkpt lat="43.39407177504305" lon="11.381164315023893"><ele>415.0</ele><time>2026-04-06T14:46:37.999Z</time></trkpt><trkpt lat="43.39391323193186" lon="11.381245551463396"><ele>415.0</ele><time>2026-04-06T14:46:39Z</time></trkpt><trkpt lat="43.39375634036348" lon="11.381339138147755"><ele>415.0</ele><time>2026-04-06T14:46:40Z</time></trkpt><trkpt lat="43.393602557756275" lon="11.381440407627437"><ele>417.0</ele><time>2026-04-06T14:46:41Z</time></trkpt><trkpt lat="43.39345385976524" lon="11.381554278561183"><ele>419.0</ele><time>2026-04-06T14:46:42Z</time></trkpt><trkpt lat="43.3933081841712" lon="11.381647049221309"><ele>421.0</ele><time>2026-04-06T14:46:43Z</time></trkpt><trkpt lat="43.393177959433004" lon="11.381750555476351"><ele>421.0</ele><time>2026-04-06T14:46:44Z</time></trkpt><trkpt lat="43.39304694700946" lon="11.381855662750581"><ele>421.0</ele><time>2026-04-06T14:46:45Z</time></trkpt><trkpt lat="43.39291675078816" lon="11.381960894392114"><ele>421.0</ele><time>2026-04-06T14:46:46Z</time></trkpt><trkpt lat="43.392785839469894" lon="11.382066717739136"><ele>422.0</ele><time>2026-04-06T14:46:47Z</time></trkpt><trkpt lat="43.392664351671485" lon="11.382166349637716"><ele>423.0</ele><time>2026-04-06T14:46:48Z</time></trkpt><trkpt lat="43.39255055272139" lon="11.382265028896512"><ele>424.0</ele><time>2026-04-06T14:46:49Z</time></trkpt><trkpt lat="43.392442711259754" lon="11.382389957299681"><ele>425.0</ele><time>2026-04-06T14:46:50Z</time></trkpt><trkpt lat="43.39232296026593" lon="11.382501329435865"><ele>425.0</ele><time>2026-04-06T14:46:51Z</time></trkpt><trkpt lat="43.392213978757084" lon="11.382638683608848"><ele>425.0</ele><time>2026-04-06T14:46:52Z</time></trkpt><trkpt lat="43.3921138215445" lon="11.382785173102976"><ele>425.0</ele><time>2026-04-06T14:46:53Z</time></trkpt><trkpt lat="43.39203370346468" lon="11.382951148191156"><ele>425.0</ele><time>2026-04-06T14:46:54Z</time></trkpt><trkpt lat="43.39198166575553" lon="11.383149182049081"><ele>425.0</ele><time>2026-04-06T14:46:55Z</time></trkpt><trkpt lat="43.39195554723649" lon="11.383397515229781"><ele>425.0</ele><time>2026-04-06T14:46:56Z</time></trkpt><trkpt lat="43.391938317191304" lon="11.383650742696991"><ele>425.0</ele><time>2026-04-06T14:46:57Z</time></trkpt><trkpt lat="43.39187928744714" lon="11.383851981090153"><ele>425.0</ele><time>2026-04-06T14:46:58Z</time></trkpt><trkpt lat="43.39181759257858" lon="11.38401601318567"><ele>425.0</ele><time>2026-04-06T14:46:59Z</time></trkpt><trkpt lat="43.39174066374514" lon="11.384137354678236"><ele>425.0</ele><time>2026-04-06T14:47:00Z</time></trkpt><trkpt lat="43.39165178071401" lon="11.38424088128514"><ele>425.0</ele><time>2026-04-06T14:47:01Z</time></trkpt><trkpt lat="43.39155064302514" lon="11.38433606852598"><ele>425.0</ele><time>2026-04-06T14:47:02Z</time></trkpt><trkpt lat="43.391441214230284" lon="11.384429190792263"><ele>425.0</ele><time>2026-04-06T14:47:03Z</time></trkpt><trkpt lat="43.3913262947292" lon="11.384531985909266"><ele>425.0</ele><time>2026-04-06T14:47:04Z</time></trkpt><trkpt lat="43.39121461304126" lon="11.384632816266851"><ele>425.0</ele><time>2026-04-06T14:47:05Z</time></trkpt><trkpt lat="43.391104957405375" lon="11.384731820096098"><ele>424.75</ele><time>2026-04-06T14:47:06Z</time></trkpt><trkpt lat="43.39099864138963" lon="11.38482840767189"><ele>424.5</ele><time>2026-04-06T14:47:07Z</time></trkpt><trkpt lat="43.39089973954927" lon="11.384944468464628"><ele>424.25</ele><time>2026-04-06T14:47:08Z</time></trkpt><trkpt lat="43.390789397126866" lon="11.38503487289889"><ele>424.0</ele><time>2026-04-06T14:47:09Z</time></trkpt><trkpt lat="43.39068065482846" lon="11.385121237232692"><ele>424.0</ele><time>2026-04-06T14:47:10Z</time></trkpt><trkpt lat="43.39057333758338" lon="11.38521130159696"><ele>424.0</ele><time>2026-04-06T14:47:11Z</time></trkpt><trkpt lat="43.39046635593149" lon="11.385294353392684"><ele>424.0</ele><time>2026-04-06T14:47:12Z</time></trkpt><trkpt lat="43.39035714094385" lon="11.385371677864896"><ele>424.0</ele><time>2026-04-06T14:47:13Z</time></trkpt><trkpt lat="43.39025461205354" lon="11.38543984323194"><ele>423.79999999999995</ele><time>2026-04-06T14:47:14Z</time></trkpt><trkpt lat="43.39015565753261" lon="11.38549772583006"><ele>423.59999999999997</ele><time>2026-04-06T14:47:15Z</time></trkpt><trkpt lat="43.39006462853016" lon="11.385557634843126"><ele>423.4</ele><time>2026-04-06T14:47:16Z</time></trkpt><trkpt lat="43.389980129497104" lon="11.3856124151982"><ele>423.2</ele><time>2026-04-06T14:47:17Z</time></trkpt><trkpt lat="43.389904697091836" lon="11.385670672111951"><ele>423.0</ele><time>2026-04-06T14:47:18Z</time></trkpt><trkpt lat="43.38983601558043" lon="11.385720514533741"><ele>422.79999999999995</ele><time>2026-04-06T14:47:19Z</time></trkpt><trkpt lat="43.38978928704104" lon="11.385911802649948"><ele>422.6</ele><time>2026-04-06T14:47:21Z</time></trkpt><trkpt lat="43.389759514627166" lon="11.386013477190264"><ele>422.4</ele><time>2026-04-06T14:47:22Z</time></trkpt><trkpt lat="43.38972450385178" lon="11.386125032598425"><ele>422.20000000000005</ele><time>2026-04-06T14:47:23Z</time></trkpt><trkpt lat="43.38968253396688" lon="11.3862468789473"><ele>422.0</ele><time>2026-04-06T14:47:24Z</time></trkpt><trkpt lat="43.389630216927614" lon="11.386375913959853"><ele>422.75</ele><time>2026-04-06T14:47:25Z</time></trkpt><trkpt lat="43.38957270458427" lon="11.386512857802987"><ele>423.5</ele><time>2026-04-06T14:47:26Z</time></trkpt><trkpt lat="43.389500542970985" lon="11.386658058020558"><ele>424.25</ele><time>2026-04-06T14:47:27Z</time></trkpt><trkpt lat="43.38942592832875" lon="11.38680559347646"><ele>425.0</ele><time>2026-04-06T14:47:28Z</time></trkpt><trkpt lat="43.38934401550639" lon="11.386960341298648"><ele>425.0</ele><time>2026-04-06T14:47:29Z</time></trkpt><trkpt lat="43.38926309008929" lon="11.387125841790677"><ele>425.0</ele><time>2026-04-06T14:47:30Z</time></trkpt><trkpt lat="43.389171353212596" lon="11.387281084927098"><ele>425.0</ele><time>2026-04-06T14:47:31Z</time></trkpt><trkpt lat="43.38908900781748" lon="11.387452909063452"><ele>425.0</ele><time>2026-04-06T14:47:32Z</time></trkpt><trkpt lat="43.389035137675684" lon="11.387653233331545"><ele>424.0</ele><time>2026-04-06T14:47:33Z</time></trkpt><trkpt lat="43.38896164537271" lon="11.387849855377398"><ele>423.0</ele><time>2026-04-06T14:47:34Z</time></trkpt><trkpt lat="43.38888850371787" lon="11.388037840940266"><ele>422.0</ele><time>2026-04-06T14:47:35Z</time></trkpt><trkpt lat="43.388802848263886" lon="11.388234930171743"><ele>424.3333333333333</ele><time>2026-04-06T14:47:36Z</time></trkpt><trkpt lat="43.38871091329836" lon="11.388435806816172"><ele>426.66666666666663</ele><time>2026-04-06T14:47:37Z</time></trkpt><trkpt lat="43.38862591127524" lon="11.388621572299764"><ele>429.0</ele><time>2026-04-06T14:47:38Z</time></trkpt><trkpt lat="43.38854661072503" lon="11.38879648330123"><ele>428.5</ele><time>2026-04-06T14:47:39Z</time></trkpt><trkpt lat="43.388469530143496" lon="11.388967014954567"><ele>428.0</ele><time>2026-04-06T14:47:40Z</time></trkpt><trkpt lat="43.38840016340521" lon="11.389126999346228"><ele>427.5</ele><time>2026-04-06T14:47:41Z</time></trkpt><trkpt lat="43.3883359366883" lon="11.389282771672978"><ele>427.0</ele><time>2026-04-06T14:47:42Z</time></trkpt><trkpt lat="43.388270781319754" lon="11.389442366427886"><ele>427.0</ele><time>2026-04-06T14:47:43Z</time></trkpt><trkpt lat="43.38820747020386" lon="11.389615675160295"><ele>427.0</ele><time>2026-04-06T14:47:44Z</time></trkpt><trkpt lat="43.38815461013274" lon="11.389809105017685"><ele>427.0</ele><time>2026-04-06T14:47:45Z</time></trkpt><trkpt lat="43.38812051688864" lon="11.389984173759231"><ele>427.0</ele><time>2026-04-06T14:47:46Z</time></trkpt><trkpt lat="43.38810115088701" lon="11.39013794893759"><ele>427.20000000000005</ele><time>2026-04-06T14:47:47Z</time></trkpt><trkpt lat="43.388080850863325" lon="11.390271008281704"><ele>427.40000000000003</ele><time>2026-04-06T14:47:48Z</time></trkpt><trkpt lat="43.38804752774102" lon="11.390395025960446"><ele>427.59999999999997</ele><time>2026-04-06T14:47:49Z</time></trkpt><trkpt lat="43.387995043042" lon="11.39051229552015"><ele>427.79999999999995</ele><time>2026-04-06T14:47:49.999Z</time></trkpt><trkpt lat="43.387932699182464" lon="11.390610331217442"><ele>428.0</ele><time>2026-04-06T14:47:50.999Z</time></trkpt><trkpt lat="43.38785805872728" lon="11.390702751097255"><ele>430.0</ele><time>2026-04-06T14:47:51.999Z</time></trkpt><trkpt lat="43.38778001033883" lon="11.390818176242103"><ele>432.0</ele><time>2026-04-06T14:47:52.999Z</time></trkpt><trkpt lat="43.38770711687546" lon="11.39093112345567"><ele>434.0</ele><time>2026-04-06T14:47:53.999Z</time></trkpt><trkpt lat="43.38763464742133" lon="11.391045628376437"><ele>436.0</ele><time>2026-04-06T14:47:54.999Z</time></trkpt><trkpt lat="43.387557040939505" lon="11.391166439323401"><ele>436.0</ele><time>2026-04-06T14:47:55.999Z</time></trkpt><trkpt lat="43.38747519368059" lon="11.391296891886785"><ele>436.0</ele><time>2026-04-06T14:47:56.999Z</time></trkpt><trkpt lat="43.38739350403114" lon="11.391424006578696"><ele>436.0</ele><time>2026-04-06T14:47:57.999Z</time></trkpt><trkpt lat="43.38730945426784" lon="11.39154836463373"><ele>436.0</ele><time>2026-04-06T14:47:58.999Z</time></trkpt><trkpt lat="43.38722857929348" lon="11.391673540959657"><ele>434.5</ele><time>2026-04-06T14:47:59.999Z</time></trkpt><trkpt lat="43.387146066973166" lon="11.391803220778412"><ele>433.0</ele><time>2026-04-06T14:48:00.999Z</time></trkpt><trkpt lat="43.387062743264174" lon="11.3919386267445"><ele>431.5</ele><time>2026-04-06T14:48:01.999Z</time></trkpt><trkpt lat="43.386980147012494" lon="11.392061979242822"><ele>430.0</ele><time>2026-04-06T14:48:02.999Z</time></trkpt><trkpt lat="43.38689666053709" lon="11.392169388193988"><ele>430.25</ele><time>2026-04-06T14:48:03.999Z</time></trkpt><trkpt lat="43.38680592392455" lon="11.392266945664852"><ele>430.5</ele><time>2026-04-06T14:48:04.999Z</time></trkpt><trkpt lat="43.386706413074556" lon="11.392357405630943"><ele>430.75</ele><time>2026-04-06T14:48:05.999Z</time></trkpt><trkpt lat="43.38660540413154" lon="11.392445203861689"><ele>431.0</ele><time>2026-04-06T14:48:06.999Z</time></trkpt><trkpt lat="43.38651212898571" lon="11.392526620668585"><ele>431.0</ele><time>2026-04-06T14:48:07.999Z</time></trkpt><trkpt lat="43.38642171105402" lon="11.39261374549816"><ele>431.0</ele><time>2026-04-06T14:48:08.999Z</time></trkpt><trkpt lat="43.38632939495023" lon="11.392720544178077"><ele>431.0</ele><time>2026-04-06T14:48:09.999Z</time></trkpt><trkpt lat="43.386243582840784" lon="11.392840082551258"><ele>431.0</ele><time>2026-04-06T14:48:10.999Z</time></trkpt><trkpt lat="43.38616256810805" lon="11.39296229596438"><ele>430.25</ele><time>2026-04-06T14:48:11.999Z</time></trkpt><trkpt lat="43.386078325031676" lon="11.39308578642974"><ele>429.5</ele><time>2026-04-06T14:48:12.999Z</time></trkpt><trkpt lat="43.38598923700779" lon="11.39321049773021"><ele>428.75</ele><time>2026-04-06T14:48:13.999Z</time></trkpt><trkpt lat="43.38590009772313" lon="11.393338686859824"><ele>428.0</ele><time>2026-04-06T14:48:14.999Z</time></trkpt><trkpt lat="43.38580950863847" lon="11.393466375126842"><ele>428.0</ele><time>2026-04-06T14:48:15.999Z</time></trkpt><trkpt lat="43.38571697432733" lon="11.393601172790852"><ele>428.0</ele><time>2026-04-06T14:48:16.999Z</time></trkpt><trkpt lat="43.38562269932395" lon="11.393742696012566"><ele>428.0</ele><time>2026-04-06T14:48:17.999Z</time></trkpt><trkpt lat="43.38553056051449" lon="11.39388116171027"><ele>428.0</ele><time>2026-04-06T14:48:18.999Z</time></trkpt><trkpt lat="43.38544060399678" lon="11.394015240798545"><ele>427.25</ele><time>2026-04-06T14:48:19.999Z</time></trkpt><trkpt lat="43.38535406167462" lon="11.394140701302877"><ele>426.5</ele><time>2026-04-06T14:48:20.999Z</time></trkpt><trkpt lat="43.385270417605604" lon="11.394263724906377"><ele>425.75</ele><time>2026-04-06T14:48:21.999Z</time></trkpt><trkpt lat="43.38518853785776" lon="11.394382485172494"><ele>425.0</ele><time>2026-04-06T14:48:22.999Z</time></trkpt><trkpt lat="43.3851056801097" lon="11.39451085874917"><ele>425.0</ele><time>2026-04-06T14:48:23.999Z</time></trkpt><trkpt lat="43.38502295371861" lon="11.39464137873068"><ele>425.0</ele><time>2026-04-06T14:48:24.999Z</time></trkpt><trkpt lat="43.38493169196402" lon="11.394748095260192"><ele>425.0</ele><time>2026-04-06T14:48:25.999Z</time></trkpt><trkpt lat="43.38485705786379" lon="11.394892080028413"><ele>425.0</ele><time>2026-04-06T14:48:26.999Z</time></trkpt><trkpt lat="43.38476466531286" lon="11.395031004556413"><ele>423.2</ele><time>2026-04-06T14:48:27.999Z</time></trkpt><trkpt lat="43.38466731690515" lon="11.395152850760578"><ele>421.4</ele><time>2026-04-06T14:48:28.999Z</time></trkpt><trkpt lat="43.384580387185935" lon="11.395242156862576"><ele>419.6</ele><time>2026-04-06T14:48:29.999Z</time></trkpt><trkpt lat="43.38449834055132" lon="11.395306454577566"><ele>417.8</ele><time>2026-04-06T14:48:30.999Z</time></trkpt><trkpt lat="43.38440607459294" lon="11.395340019743733"><ele>416.0</ele><time>2026-04-06T14:48:31.999Z</time></trkpt><trkpt lat="43.384306297818306" lon="11.395380766220697"><ele>416.0</ele><time>2026-04-06T14:48:32.999Z</time></trkpt><trkpt lat="43.38419501023453" lon="11.395424175181642"><ele>416.0</ele><time>2026-04-06T14:48:33.999Z</time></trkpt><trkpt lat="43.38405796144875" lon="11.39547547390111"><ele>416.0</ele><time>2026-04-06T14:48:34.999Z</time></trkpt><trkpt lat="43.38391937190204" lon="11.39554770981504"><ele>416.0</ele><time>2026-04-06T14:48:35.999Z</time></trkpt><trkpt lat="43.38377882475866" lon="11.39559660971644"><ele>416.5</ele><time>2026-04-06T14:48:36.999Z</time></trkpt><trkpt lat="43.383648795985906" lon="11.395648319548929"><ele>417.0</ele><time>2026-04-06T14:48:37.999Z</time></trkpt><trkpt lat="43.38352555342767" lon="11.39569410856847"><ele>417.5</ele><time>2026-04-06T14:48:38.999Z</time></trkpt><trkpt lat="43.38340054713843" lon="11.395743495082257"><ele>418.0</ele><time>2026-04-06T14:48:39.999Z</time></trkpt><trkpt lat="43.38327998539572" lon="11.395800777742616"><ele>418.0</ele><time>2026-04-06T14:48:40.999Z</time></trkpt><trkpt lat="43.38315908999979" lon="11.395850534132423"><ele>418.0</ele><time>2026-04-06T14:48:41.999Z</time></trkpt><trkpt lat="43.38303811679867" lon="11.395894903839986"><ele>418.0</ele><time>2026-04-06T14:48:42.999Z</time></trkpt><trkpt lat="43.382920406523326" lon="11.395936826883949"><ele>418.0</ele><time>2026-04-06T14:48:43.999Z</time></trkpt><trkpt lat="43.38280781617648" lon="11.395978721480558"><ele>417.0</ele><time>2026-04-06T14:48:45Z</time></trkpt><trkpt lat="43.382695963637964" lon="11.39601604112639"><ele>416.0</ele><time>2026-04-06T14:48:46Z</time></trkpt><trkpt lat="43.3825811767255" lon="11.39604729805993"><ele>415.0</ele><time>2026-04-06T14:48:47Z</time></trkpt><trkpt lat="43.38246750623421" lon="11.396073176485029"><ele>414.0</ele><time>2026-04-06T14:48:48Z</time></trkpt><trkpt lat="43.38235049641587" lon="11.396100106121162"><ele>414.0</ele><time>2026-04-06T14:48:49Z</time></trkpt><trkpt lat="43.38222875171667" lon="11.396127106523227"><ele>414.0</ele><time>2026-04-06T14:48:50Z</time></trkpt><trkpt lat="43.38210632084936" lon="11.396156187757212"><ele>414.0</ele><time>2026-04-06T14:48:51Z</time></trkpt><trkpt lat="43.381982673154724" lon="11.396180680526948"><ele>414.0</ele><time>2026-04-06T14:48:52Z</time></trkpt><trkpt lat="43.38184897831745" lon="11.396201974594105"><ele>413.0</ele><time>2026-04-06T14:48:53Z</time></trkpt><trkpt lat="43.381718301422076" lon="11.39621928128314"><ele>412.0</ele><time>2026-04-06T14:48:54Z</time></trkpt><trkpt lat="43.38158746688985" lon="11.396235311664224"><ele>411.0</ele><time>2026-04-06T14:48:55Z</time></trkpt><trkpt lat="43.38146162927351" lon="11.39624742579017"><ele>410.0</ele><time>2026-04-06T14:48:56Z</time></trkpt><trkpt lat="43.38135419717482" lon="11.396256482046912"><ele>409.66666666666663</ele><time>2026-04-06T14:48:57Z</time></trkpt><trkpt lat="43.381264481642965" lon="11.39625759121625"><ele>409.3333333333333</ele><time>2026-04-06T14:48:58Z</time></trkpt><trkpt lat="43.38117982030999" lon="11.396257272712091"><ele>409.0</ele><time>2026-04-06T14:48:59Z</time></trkpt><trkpt lat="43.38110404296987" lon="11.39626069970067"><ele>408.66666666666663</ele><time>2026-04-06T14:49:00Z</time></trkpt><trkpt lat="43.38102856607772" lon="11.396263084306122"><ele>408.3333333333333</ele><time>2026-04-06T14:49:01Z</time></trkpt><trkpt lat="43.38095894765303" lon="11.396264749862498"><ele>408.0</ele><time>2026-04-06T14:49:02Z</time></trkpt><trkpt lat="43.380893627236304" lon="11.396252470693312"><ele>408.0</ele><time>2026-04-06T14:49:03Z</time></trkpt><trkpt lat="43.380799331887104" lon="11.396270675649594"><ele>408.0</ele><time>2026-04-06T14:49:05Z</time></trkpt><trkpt lat="43.38072854744649" lon="11.396251030917824"><ele>408.0</ele><time>2026-04-06T14:49:10Z</time></trkpt><trkpt lat="43.38082731760265" lon="11.396301700689262"><ele>408.0</ele><time>2026-04-06T14:49:16Z</time></trkpt><trkpt lat="43.3808998238427" lon="11.396288235939988"><ele>408.0</ele><time>2026-04-06T14:49:17Z</time></trkpt><trkpt lat="43.381002270596255" lon="11.3962785545901"><ele>408.0</ele><time>2026-04-06T14:49:18Z</time></trkpt><trkpt lat="43.38109709743166" lon="11.396285574577318"><ele>408.0</ele><time>2026-04-06T14:49:19Z</time></trkpt><trkpt lat="43.38123362006336" lon="11.39628424435063"><ele>408.0</ele><time>2026-04-06T14:49:20Z</time></trkpt><trkpt lat="43.38140212437143" lon="11.396277331487445"><ele>408.0</ele><time>2026-04-06T14:49:21Z</time></trkpt><trkpt lat="43.381517991557764" lon="11.39626571263982"><ele>408.0</ele><time>2026-04-06T14:49:22Z</time></trkpt><trkpt lat="43.38159053031083" lon="11.396237727251187"><ele>408.66666666666663</ele><time>2026-04-06T14:49:23Z</time></trkpt><trkpt lat="43.38189608578149" lon="11.396211227220913"><ele>409.3333333333333</ele><time>2026-04-06T14:49:25Z</time></trkpt><trkpt lat="43.38198460073552" lon="11.396194293358839"><ele>410.0</ele><time>2026-04-06T14:49:26Z</time></trkpt><trkpt lat="43.382068191526095" lon="11.39617028678496"><ele>409.99999999999994</ele><time>2026-04-06T14:49:27Z</time></trkpt><trkpt lat="43.382164706934326" lon="11.396154952755133"><ele>410.0</ele><time>2026-04-06T14:49:28Z</time></trkpt><trkpt lat="43.382261358472476" lon="11.396137600226533"><ele>410.0</ele><time>2026-04-06T14:49:29Z</time></trkpt><trkpt lat="43.38234393795477" lon="11.396120065443181"><ele>410.0</ele><time>2026-04-06T14:49:30Z</time></trkpt><trkpt lat="43.38242725083763" lon="11.39610494653171"><ele>409.99999999999994</ele><time>2026-04-06T14:49:31Z</time></trkpt><trkpt lat="43.38251184548333" lon="11.396082494017037"><ele>410.0</ele><time>2026-04-06T14:49:32Z</time></trkpt><trkpt lat="43.38259473597391" lon="11.396062314714698"><ele>410.66666666666663</ele><time>2026-04-06T14:49:33Z</time></trkpt><trkpt lat="43.382680571398126" lon="11.396039384332193"><ele>411.3333333333333</ele><time>2026-04-06T14:49:34Z</time></trkpt><trkpt lat="43.38276604112066" lon="11.396008435351746"><ele>412.0</ele><time>2026-04-06T14:49:35Z</time></trkpt><trkpt lat="43.382850605093516" lon="11.395982388990953"><ele>412.66666666666663</ele><time>2026-04-06T14:49:36Z</time></trkpt><trkpt lat="43.38294339910751" lon="11.395948056601773"><ele>413.3333333333333</ele><time>2026-04-06T14:49:37Z</time></trkpt><trkpt lat="43.38302933980528" lon="11.39591550946879"><ele>414.0</ele><time>2026-04-06T14:49:38Z</time></trkpt><trkpt lat="43.38310955552587" lon="11.395885697034068"><ele>414.6666666666667</ele><time>2026-04-06T14:49:39Z</time></trkpt><trkpt lat="43.383191733646804" lon="11.395854758149431"><ele>415.33333333333337</ele><time>2026-04-06T14:49:40Z</time></trkpt><trkpt lat="43.38327382070422" lon="11.395819203149365"><ele>416.0</ele><time>2026-04-06T14:49:41Z</time></trkpt><trkpt lat="43.38335288762949" lon="11.395791668443634"><ele>416.6666666666667</ele><time>2026-04-06T14:49:42Z</time></trkpt><trkpt lat="43.383432580463605" lon="11.395758552901905"><ele>417.33333333333337</ele><time>2026-04-06T14:49:43Z</time></trkpt><trkpt lat="43.383502003255536" lon="11.39573020406489"><ele>418.0</ele><time>2026-04-06T14:49:44Z</time></trkpt><trkpt lat="43.38356670190926" lon="11.395708559733267"><ele>418.00000000000006</ele><time>2026-04-06T14:49:45Z</time></trkpt><trkpt lat="43.38365124471844" lon="11.395678022959375"><ele>418.0</ele><time>2026-04-06T14:49:47Z</time></trkpt><trkpt lat="43.383727113944516" lon="11.395644121669356"><ele>418.0</ele><time>2026-04-06T14:49:49Z</time></trkpt><trkpt lat="43.38382023767378" lon="11.395612076291085"><ele>418.0</ele><time>2026-04-06T14:49:51Z</time></trkpt><trkpt lat="43.383759258322854" lon="11.395637753049108"><ele>418.00000000000006</ele><time>2026-04-06T14:50:07.999Z</time></trkpt><trkpt lat="43.38367615301667" lon="11.395671833924494"><ele>418.0</ele><time>2026-04-06T14:50:10.999Z</time></trkpt><trkpt lat="43.38360198307736" lon="11.395667394073833"><ele>418.0</ele><time>2026-04-06T14:58:36Z</time></trkpt><trkpt lat="43.383519565361496" lon="11.395714009504898"><ele>418.0</ele><time>2026-04-06T14:58:38Z</time></trkpt><trkpt lat="43.38340440995778" lon="11.395760284999662"><ele>418.0</ele><time>2026-04-06T14:58:40Z</time></trkpt><trkpt lat="43.383298532032384" lon="11.395799784929155"><ele>418.0</ele><time>2026-04-06T14:58:42Z</time></trkpt><trkpt lat="43.383192821452496" lon="11.395834263588627"><ele>418.0</ele><time>2026-04-06T14:58:44Z</time></trkpt><trkpt lat="43.38312013836376" lon="11.395870907894238"><ele>418.00000000000006</ele><time>2026-04-06T14:58:45Z</time></trkpt><trkpt lat="43.38304268708034" lon="11.395895282294827"><ele>418.0</ele><time>2026-04-06T14:58:46Z</time></trkpt><trkpt lat="43.38297028060581" lon="11.395925418663902"><ele>418.0</ele><time>2026-04-06T14:58:47Z</time></trkpt><trkpt lat="43.382902346804556" lon="11.395950224005192"><ele>418.0</ele><time>2026-04-06T14:58:48Z</time></trkpt><trkpt lat="43.38283467087649" lon="11.395972672074748"><ele>418.00000000000006</ele><time>2026-04-06T14:58:49Z</time></trkpt><trkpt lat="43.38275667099203" lon="11.395999625670315"><ele>418.0</ele><time>2026-04-06T14:58:50Z</time></trkpt><trkpt lat="43.38268085972172" lon="11.39602293831946"><ele>417.33333333333337</ele><time>2026-04-06T14:58:51Z</time></trkpt><trkpt lat="43.382603362451285" lon="11.39604482018064"><ele>416.6666666666667</ele><time>2026-04-06T14:58:52Z</time></trkpt><trkpt lat="43.382524721637786" lon="11.396068252493244"><ele>416.0</ele><time>2026-04-06T14:58:53Z</time></trkpt><trkpt lat="43.38244538495278" lon="11.396087869626381"><ele>415.33333333333337</ele><time>2026-04-06T14:58:54Z</time></trkpt><trkpt lat="43.38235540257288" lon="11.396110226865499"><ele>414.6666666666667</ele><time>2026-04-06T14:58:55Z</time></trkpt><trkpt lat="43.382265619072854" lon="11.396128590580526"><ele>414.0</ele><time>2026-04-06T14:58:56Z</time></trkpt><trkpt lat="43.382174326587325" lon="11.396148191191617"><ele>413.2</ele><time>2026-04-06T14:58:57Z</time></trkpt><trkpt lat="43.38208004544997" lon="11.396168908844496"><ele>412.4</ele><time>2026-04-06T14:58:58Z</time></trkpt><trkpt lat="43.3819818207849" lon="11.396186578991983"><ele>411.6</ele><time>2026-04-06T14:58:59Z</time></trkpt><trkpt lat="43.38187424086526" lon="11.396203048403208"><ele>410.8</ele><time>2026-04-06T14:59:00Z</time></trkpt><trkpt lat="43.381746949152465" lon="11.39622371282992"><ele>410.0</ele><time>2026-04-06T14:59:01Z</time></trkpt><trkpt lat="43.38162070676635" lon="11.396240679724349"><ele>410.0</ele><time>2026-04-06T14:59:02Z</time></trkpt><trkpt lat="43.381506843934766" lon="11.396250645260512"><ele>410.0</ele><time>2026-04-06T14:59:03Z</time></trkpt><trkpt lat="43.38139752864045" lon="11.39624511548789"><ele>410.0</ele><time>2026-04-06T14:59:04Z</time></trkpt><trkpt lat="43.38128762066951" lon="11.396247872105148"><ele>410.0</ele><time>2026-04-06T14:59:05Z</time></trkpt><trkpt lat="43.381168788248786" lon="11.396247872102915"><ele>409.5</ele><time>2026-04-06T14:59:06Z</time></trkpt><trkpt lat="43.381045073557296" lon="11.396247152831569"><ele>409.0</ele><time>2026-04-06T14:59:07Z</time></trkpt><trkpt lat="43.380919278674" lon="11.396250745626032"><ele>408.5</ele><time>2026-04-06T14:59:08Z</time></trkpt><trkpt lat="43.380771738859245" lon="11.396265980243399"><ele>408.0</ele><time>2026-04-06T14:59:09Z</time></trkpt><trkpt lat="43.380605627971825" lon="11.39629779445024"><ele>406.66666666666663</ele><time>2026-04-06T14:59:10Z</time></trkpt><trkpt lat="43.38043721397041" lon="11.396339399904969"><ele>405.3333333333333</ele><time>2026-04-06T14:59:11Z</time></trkpt><trkpt lat="43.38027874277789" lon="11.396380239304396"><ele>404.0</ele><time>2026-04-06T14:59:12Z</time></trkpt><trkpt lat="43.38012927095163" lon="11.396437635091988"><ele>404.0</ele><time>2026-04-06T14:59:13Z</time></trkpt><trkpt lat="43.379973596266204" lon="11.396476724470356"><ele>404.0</ele><time>2026-04-06T14:59:14Z</time></trkpt><trkpt lat="43.37982208466479" lon="11.396514190875907"><ele>404.0</ele><time>2026-04-06T14:59:15.001Z</time></trkpt><trkpt lat="43.37967298411987" lon="11.396550846143755"><ele>402.66666666666663</ele><time>2026-04-06T14:59:16.001Z</time></trkpt><trkpt lat="43.379532664566035" lon="11.396586523160659"><ele>401.33333333333337</ele><time>2026-04-06T14:59:17.001Z</time></trkpt><trkpt lat="43.37938267011885" lon="11.39662994859592"><ele>400.0</ele><time>2026-04-06T14:59:18.001Z</time></trkpt><trkpt lat="43.37922424172458" lon="11.396683691511807"><ele>400.0</ele><time>2026-04-06T14:59:19.001Z</time></trkpt><trkpt lat="43.379062422511346" lon="11.396738389744103"><ele>400.0</ele><time>2026-04-06T14:59:20.001Z</time></trkpt><trkpt lat="43.37889951848681" lon="11.396773393860014"><ele>400.0</ele><time>2026-04-06T14:59:21.001Z</time></trkpt><trkpt lat="43.37875086806235" lon="11.396823153885778"><ele>398.5</ele><time>2026-04-06T14:59:22.001Z</time></trkpt><trkpt lat="43.378612329917196" lon="11.39686952887035"><ele>397.0</ele><time>2026-04-06T14:59:23.001Z</time></trkpt><trkpt lat="43.37847625808777" lon="11.396915078270906"><ele>395.5</ele><time>2026-04-06T14:59:24.001Z</time></trkpt><trkpt lat="43.37833763671658" lon="11.396961481115495"><ele>394.0</ele><time>2026-04-06T14:59:25.001Z</time></trkpt><trkpt lat="43.37820058146062" lon="11.397006324865263"><ele>394.0</ele><time>2026-04-06T14:59:26.001Z</time></trkpt><trkpt lat="43.37806092681689" lon="11.397051939336977"><ele>394.0</ele><time>2026-04-06T14:59:27.001Z</time></trkpt><trkpt lat="43.377929732111895" lon="11.397088157383823"><ele>394.0</ele><time>2026-04-06T14:59:28.001Z</time></trkpt><trkpt lat="43.37780482516954" lon="11.397102526686217"><ele>394.0</ele><time>2026-04-06T14:59:29.001Z</time></trkpt><trkpt lat="43.37768294362711" lon="11.39712967180838"><ele>392.75</ele><time>2026-04-06T14:59:30.001Z</time></trkpt><trkpt lat="43.377572342975846" lon="11.397164624328497"><ele>391.5</ele><time>2026-04-06T14:59:31.001Z</time></trkpt><trkpt lat="43.377469187374544" lon="11.397210544499455"><ele>390.25</ele><time>2026-04-06T14:59:32.001Z</time></trkpt><trkpt lat="43.377366568309725" lon="11.397287450136034"><ele>389.0</ele><time>2026-04-06T14:59:33.001Z</time></trkpt><trkpt lat="43.3772487329879" lon="11.397361177692025"><ele>388.5</ele><time>2026-04-06T14:59:34.001Z</time></trkpt><trkpt lat="43.377124741443346" lon="11.397469630271651"><ele>388.0</ele><time>2026-04-06T14:59:35.001Z</time></trkpt><trkpt lat="43.377009477699154" lon="11.397586067339128"><ele>387.5</ele><time>2026-04-06T14:59:36.001Z</time></trkpt><trkpt lat="43.376906320386624" lon="11.397691451036453"><ele>387.0</ele><time>2026-04-06T14:59:37.001Z</time></trkpt><trkpt lat="43.37680977910512" lon="11.397794485229554"><ele>387.0</ele><time>2026-04-06T14:59:38.001Z</time></trkpt><trkpt lat="43.37670640777607" lon="11.397901295418077"><ele>387.0</ele><time>2026-04-06T14:59:39.001Z</time></trkpt><trkpt lat="43.376594206217455" lon="11.39799887720245"><ele>387.0</ele><time>2026-04-06T14:59:40.001Z</time></trkpt><trkpt lat="43.37646739573498" lon="11.398097236203027"><ele>387.0</ele><time>2026-04-06T14:59:41.001Z</time></trkpt><trkpt lat="43.37632464276655" lon="11.398153353185148"><ele>386.0</ele><time>2026-04-06T14:59:42.001Z</time></trkpt><trkpt lat="43.37619558669353" lon="11.398197676753663"><ele>385.0</ele><time>2026-04-06T14:59:43.001Z</time></trkpt><trkpt lat="43.37607417023491" lon="11.398240909897554"><ele>384.0</ele><time>2026-04-06T14:59:44.001Z</time></trkpt><trkpt lat="43.37595812273985" lon="11.398279171369772"><ele>383.0</ele><time>2026-04-06T14:59:45.001Z</time></trkpt><trkpt lat="43.37584955915619" lon="11.398320985126857"><ele>383.0</ele><time>2026-04-06T14:59:46.001Z</time></trkpt><trkpt lat="43.375744951634985" lon="11.398362255327777"><ele>383.0</ele><time>2026-04-06T14:59:47.001Z</time></trkpt><trkpt lat="43.37563705860398" lon="11.398384035510391"><ele>383.0</ele><time>2026-04-06T14:59:48.001Z</time></trkpt><trkpt lat="43.37552751223266" lon="11.398435857915418"><ele>383.0</ele><time>2026-04-06T14:59:49.001Z</time></trkpt><trkpt lat="43.375407853462846" lon="11.398510840329799"><ele>383.0</ele><time>2026-04-06T14:59:50.001Z</time></trkpt><trkpt lat="43.375289532317964" lon="11.398599356014344"><ele>383.0</ele><time>2026-04-06T14:59:51.001Z</time></trkpt><trkpt lat="43.37516794888136" lon="11.3987088231332"><ele>383.0</ele><time>2026-04-06T14:59:52.001Z</time></trkpt><trkpt lat="43.37506377027132" lon="11.39884846494077"><ele>383.0</ele><time>2026-04-06T14:59:53.001Z</time></trkpt><trkpt lat="43.37495109893264" lon="11.398975209799246"><ele>382.6666666666667</ele><time>2026-04-06T14:59:54.001Z</time></trkpt><trkpt lat="43.374832346144956" lon="11.399108653106923"><ele>382.3333333333333</ele><time>2026-04-06T14:59:55.001Z</time></trkpt><trkpt lat="43.374708501189005" lon="11.399219908671633"><ele>382.0</ele><time>2026-04-06T14:59:56.001Z</time></trkpt><trkpt lat="43.37459196073717" lon="11.399349471596626"><ele>382.25</ele><time>2026-04-06T14:59:57.001Z</time></trkpt><trkpt lat="43.37447568915632" lon="11.399474265210985"><ele>382.5</ele><time>2026-04-06T14:59:58.001Z</time></trkpt><trkpt lat="43.37437380901021" lon="11.399604456758034"><ele>382.75</ele><time>2026-04-06T14:59:59.001Z</time></trkpt><trkpt lat="43.37426935998968" lon="11.399699311752304"><ele>383.0</ele><time>2026-04-06T15:00:00.001Z</time></trkpt><trkpt lat="43.374173772440685" lon="11.399774210991348"><ele>383.0</ele><time>2026-04-06T15:00:01.001Z</time></trkpt><trkpt lat="43.3740728819233" lon="11.39984206464554"><ele>383.0</ele><time>2026-04-06T15:00:02.001Z</time></trkpt><trkpt lat="43.3739593041642" lon="11.399904976386091"><ele>383.0</ele><time>2026-04-06T15:00:03.001Z</time></trkpt><trkpt lat="43.37382876352399" lon="11.399969338611356"><ele>383.0</ele><time>2026-04-06T15:00:04.001Z</time></trkpt><trkpt lat="43.37369117602666" lon="11.400026877892603"><ele>383.0</ele><time>2026-04-06T15:00:05.001Z</time></trkpt><trkpt lat="43.37355559706754" lon="11.40008147524288"><ele>383.0</ele><time>2026-04-06T15:00:06.001Z</time></trkpt><trkpt lat="43.373435456926074" lon="11.400133617586114"><ele>383.0</ele><time>2026-04-06T15:00:07.001Z</time></trkpt><trkpt lat="43.37332677148043" lon="11.40017258889042"><ele>383.0</ele><time>2026-04-06T15:00:08.001Z</time></trkpt><trkpt lat="43.37323562945957" lon="11.400232138930884"><ele>383.0</ele><time>2026-04-06T15:00:09.001Z</time></trkpt><trkpt lat="43.37314725821672" lon="11.400300019489505"><ele>383.0</ele><time>2026-04-06T15:00:10.001Z</time></trkpt><trkpt lat="43.3730558658338" lon="11.400380834407603"><ele>383.0</ele><time>2026-04-06T15:00:11.001Z</time></trkpt><trkpt lat="43.372966764155024" lon="11.400480513033125"><ele>383.0</ele><time>2026-04-06T15:00:12.001Z</time></trkpt><trkpt lat="43.37286946985465" lon="11.400593304305948"><ele>383.75</ele><time>2026-04-06T15:00:13.001Z</time></trkpt><trkpt lat="43.3727670656906" lon="11.400713061533851"><ele>384.5</ele><time>2026-04-06T15:00:14.001Z</time></trkpt><trkpt lat="43.372671886624516" lon="11.400819393046424"><ele>385.25</ele><time>2026-04-06T15:00:15.001Z</time></trkpt><trkpt lat="43.37258548401095" lon="11.400923416824362"><ele>386.0</ele><time>2026-04-06T15:00:16.001Z</time></trkpt><trkpt lat="43.372486832306166" lon="11.40100779440512"><ele>386.0</ele><time>2026-04-06T15:00:17.001Z</time></trkpt><trkpt lat="43.37240581944459" lon="11.40112586004791"><ele>386.0</ele><time>2026-04-06T15:00:18.001Z</time></trkpt><trkpt lat="43.37231334090844" lon="11.401220793044537"><ele>386.0</ele><time>2026-04-06T15:00:19.001Z</time></trkpt><trkpt lat="43.372216463682754" lon="11.401314978410495"><ele>386.0</ele><time>2026-04-06T15:00:20.001Z</time></trkpt><trkpt lat="43.37212546590061" lon="11.40140077743002"><ele>385.0</ele><time>2026-04-06T15:00:21.001Z</time></trkpt><trkpt lat="43.372043511593056" lon="11.401477467570016"><ele>384.0</ele><time>2026-04-06T15:00:22.001Z</time></trkpt><trkpt lat="43.37197292998381" lon="11.401559706770314"><ele>383.0</ele><time>2026-04-06T15:00:23.001Z</time></trkpt><trkpt lat="43.371909241466675" lon="11.40166793824089"><ele>382.0</ele><time>2026-04-06T15:00:24.001Z</time></trkpt><trkpt lat="43.37186802381534" lon="11.40179443417233"><ele>381.0</ele><time>2026-04-06T15:00:25.001Z</time></trkpt><trkpt lat="43.371850273514426" lon="11.40194733624908"><ele>381.0</ele><time>2026-04-06T15:00:26.001Z</time></trkpt><trkpt lat="43.37183706449705" lon="11.402123271329833"><ele>381.0</ele><time>2026-04-06T15:00:27.001Z</time></trkpt><trkpt lat="43.37181095094513" lon="11.402277168368714"><ele>381.0</ele><time>2026-04-06T15:00:28.001Z</time></trkpt><trkpt lat="43.371743632141325" lon="11.402403052920812"><ele>381.0</ele><time>2026-04-06T15:00:29.001Z</time></trkpt><trkpt lat="43.3716968027173" lon="11.40255671609277"><ele>380.5</ele><time>2026-04-06T15:00:30.001Z</time></trkpt><trkpt lat="43.3716276992814" lon="11.402715252736668"><ele>380.0</ele><time>2026-04-06T15:00:31.001Z</time></trkpt><trkpt lat="43.37155650570269" lon="11.402886566682312"><ele>379.5</ele><time>2026-04-06T15:00:32.001Z</time></trkpt><trkpt lat="43.37147072546897" lon="11.40304831257651"><ele>379.0</ele><time>2026-04-06T15:00:33.001Z</time></trkpt><trkpt lat="43.37139892442836" lon="11.403220491392313"><ele>376.25</ele><time>2026-04-06T15:00:34.001Z</time></trkpt><trkpt lat="43.37134545618364" lon="11.403387997732095"><ele>373.5</ele><time>2026-04-06T15:00:35.001Z</time></trkpt><trkpt lat="43.37128394394738" lon="11.403529285774665"><ele>370.75</ele><time>2026-04-06T15:00:36.001Z</time></trkpt><trkpt lat="43.37123114252171" lon="11.403660218597928"><ele>368.0</ele><time>2026-04-06T15:00:37.001Z</time></trkpt><trkpt lat="43.37118042470378" lon="11.403779174549857"><ele>367.59999999999997</ele><time>2026-04-06T15:00:38.001Z</time></trkpt><trkpt lat="43.37113037948622" lon="11.403911333738034"><ele>367.2</ele><time>2026-04-06T15:00:39.001Z</time></trkpt><trkpt lat="43.37107257256147" lon="11.404031959506241"><ele>366.8</ele><time>2026-04-06T15:00:40.001Z</time></trkpt><trkpt lat="43.37102219304461" lon="11.404145294158345"><ele>366.4</ele><time>2026-04-06T15:00:41.001Z</time></trkpt><trkpt lat="43.370965831627124" lon="11.404239330893006"><ele>366.0</ele><time>2026-04-06T15:00:42.001Z</time></trkpt><trkpt lat="43.37089798667827" lon="11.404324122736929"><ele>366.0</ele><time>2026-04-06T15:00:43.001Z</time></trkpt><trkpt lat="43.37083040827851" lon="11.404384751779679"><ele>366.0</ele><time>2026-04-06T15:00:44.001Z</time></trkpt><trkpt lat="43.37075653038884" lon="11.404429026194764"><ele>366.0</ele><time>2026-04-06T15:00:45Z</time></trkpt><trkpt lat="43.37067810163775" lon="11.404464510496299"><ele>366.0</ele><time>2026-04-06T15:00:46Z</time></trkpt><trkpt lat="43.37058647606028" lon="11.40448867383383"><ele>366.0</ele><time>2026-04-06T15:00:47Z</time></trkpt><trkpt lat="43.37049025725124" lon="11.404498993529128"><ele>366.0</ele><time>2026-04-06T15:00:48Z</time></trkpt><trkpt lat="43.3703886367966" lon="11.404496461225737"><ele>364.75</ele><time>2026-04-06T15:00:49Z</time></trkpt><trkpt lat="43.3702829278736" lon="11.404494152550457"><ele>363.5</ele><time>2026-04-06T15:00:50Z</time></trkpt><trkpt lat="43.37016929834475" lon="11.404486825805673"><ele>362.25</ele><time>2026-04-06T15:00:51Z</time></trkpt><trkpt lat="43.37004588868184" lon="11.404481126399272"><ele>361.0</ele><time>2026-04-06T15:00:52Z</time></trkpt><trkpt lat="43.36991620264504" lon="11.404476537016249"><ele>361.0</ele><time>2026-04-06T15:00:53Z</time></trkpt><trkpt lat="43.36978140544897" lon="11.404473157615724"><ele>361.0</ele><time>2026-04-06T15:00:54Z</time></trkpt><trkpt lat="43.36964125684481" lon="11.404461989197326"><ele>361.0</ele><time>2026-04-06T15:00:55Z</time></trkpt><trkpt lat="43.36950122224859" lon="11.404463589857372"><ele>361.0</ele><time>2026-04-06T15:00:56Z</time></trkpt><trkpt lat="43.369358971819885" lon="11.404456267726978"><ele>359.5</ele><time>2026-04-06T15:00:57Z</time></trkpt><trkpt lat="43.369215955426256" lon="11.404463360126794"><ele>358.0</ele><time>2026-04-06T15:00:58Z</time></trkpt><trkpt lat="43.369072083677864" lon="11.404479175843205"><ele>356.5</ele><time>2026-04-06T15:00:59Z</time></trkpt><trkpt lat="43.36892671813592" lon="11.404493160945984"><ele>355.0</ele><time>2026-04-06T15:01:00Z</time></trkpt><trkpt lat="43.36877351181921" lon="11.404497608994756"><ele>354.0</ele><time>2026-04-06T15:01:01Z</time></trkpt><trkpt lat="43.3686184188373" lon="11.404485696953811"><ele>353.0</ele><time>2026-04-06T15:01:02Z</time></trkpt><trkpt lat="43.36846006387261" lon="11.404460919048175"><ele>352.0</ele><time>2026-04-06T15:01:03Z</time></trkpt><trkpt lat="43.368298624205345" lon="11.404432108298517"><ele>352.0</ele><time>2026-04-06T15:01:04Z</time></trkpt><trkpt lat="43.36813799485483" lon="11.40440305629221"><ele>352.0</ele><time>2026-04-06T15:01:05Z</time></trkpt><trkpt lat="43.367983595897876" lon="11.404374756738962"><ele>352.0</ele><time>2026-04-06T15:01:06Z</time></trkpt><trkpt lat="43.3678324919461" lon="11.40435173500937"><ele>351.25</ele><time>2026-04-06T15:01:07Z</time></trkpt><trkpt lat="43.367693555662555" lon="11.404324768242647"><ele>350.5</ele><time>2026-04-06T15:01:08Z</time></trkpt><trkpt lat="43.36756294850489" lon="11.404299971396311"><ele>349.75</ele><time>2026-04-06T15:01:09Z</time></trkpt><trkpt lat="43.36743997211083" lon="11.404278050368342"><ele>349.0</ele><time>2026-04-06T15:01:10Z</time></trkpt><trkpt lat="43.36731900347539" lon="11.404264247301532"><ele>349.0</ele><time>2026-04-06T15:01:11Z</time></trkpt><trkpt lat="43.36719068056564" lon="11.404254445076495"><ele>349.0</ele><time>2026-04-06T15:01:12Z</time></trkpt><trkpt lat="43.36705357917428" lon="11.404272824399333"><ele>349.0</ele><time>2026-04-06T15:01:13Z</time></trkpt><trkpt lat="43.366915198457" lon="11.404321200355112"><ele>349.0</ele><time>2026-04-06T15:01:14Z</time></trkpt><trkpt lat="43.366790585746315" lon="11.404395466135075"><ele>349.0</ele><time>2026-04-06T15:01:15Z</time></trkpt><trkpt lat="43.36667807219889" lon="11.40449440799962"><ele>349.0</ele><time>2026-04-06T15:01:16Z</time></trkpt><trkpt lat="43.36657244264569" lon="11.404621484176843"><ele>349.0</ele><time>2026-04-06T15:01:17Z</time></trkpt><trkpt lat="43.36648933392117" lon="11.404753850183406"><ele>349.0</ele><time>2026-04-06T15:01:18Z</time></trkpt><trkpt lat="43.36642477006277" lon="11.404891250019343"><ele>348.75</ele><time>2026-04-06T15:01:19Z</time></trkpt><trkpt lat="43.36637198987032" lon="11.405028370827303"><ele>348.5</ele><time>2026-04-06T15:01:20Z</time></trkpt><trkpt lat="43.36631521504895" lon="11.405161259023862"><ele>348.25</ele><time>2026-04-06T15:01:21.001Z</time></trkpt><trkpt lat="43.36625672693868" lon="11.405319307556303"><ele>348.0</ele><time>2026-04-06T15:01:22.001Z</time></trkpt><trkpt lat="43.36619908045998" lon="11.405466762352424"><ele>347.2</ele><time>2026-04-06T15:01:23.001Z</time></trkpt><trkpt lat="43.36613690279384" lon="11.405617672107468"><ele>346.4</ele><time>2026-04-06T15:01:24.001Z</time></trkpt><trkpt lat="43.36607902964711" lon="11.40576042497536"><ele>345.59999999999997</ele><time>2026-04-06T15:01:25.001Z</time></trkpt><trkpt lat="43.366028033433295" lon="11.4058821524689"><ele>344.79999999999995</ele><time>2026-04-06T15:01:26.001Z</time></trkpt><trkpt lat="43.36598615564507" lon="11.40598526386625"><ele>344.0</ele><time>2026-04-06T15:01:27.001Z</time></trkpt><trkpt lat="43.36590351207224" lon="11.406129316948494"><ele>344.0</ele><time>2026-04-06T15:01:29.001Z</time></trkpt><trkpt lat="43.36583943335039" lon="11.40619283348087"><ele>344.0</ele><time>2026-04-06T15:01:30.001Z</time></trkpt><trkpt lat="43.36574373762358" lon="11.406212757465896"><ele>344.0</ele><time>2026-04-06T15:01:31.001Z</time></trkpt><trkpt lat="43.36562940604063" lon="11.406265194912823"><ele>344.0</ele><time>2026-04-06T15:01:32.001Z</time></trkpt><trkpt lat="43.36551607131367" lon="11.406313053704936"><ele>344.0</ele><time>2026-04-06T15:01:33.001Z</time></trkpt><trkpt lat="43.36541233363252" lon="11.406377573475867"><ele>343.1666666666667</ele><time>2026-04-06T15:01:34.001Z</time></trkpt><trkpt lat="43.36531379241346" lon="11.406416346724136"><ele>342.33333333333337</ele><time>2026-04-06T15:01:35.001Z</time></trkpt><trkpt lat="43.36523322350075" lon="11.40644940956056"><ele>341.5</ele><time>2026-04-06T15:01:36.001Z</time></trkpt><trkpt lat="43.36515894346286" lon="11.406475435206088"><ele>340.6666666666667</ele><time>2026-04-06T15:01:37.001Z</time></trkpt><trkpt lat="43.36509096233057" lon="11.406480759335626"><ele>339.8333333333333</ele><time>2026-04-06T15:01:38.001Z</time></trkpt><trkpt lat="43.36501621466987" lon="11.406465166285066"><ele>339.0</ele><time>2026-04-06T15:01:39.001Z</time></trkpt><trkpt lat="43.36493921908826" lon="11.406413854400615"><ele>339.2</ele><time>2026-04-06T15:01:40.001Z</time></trkpt><trkpt lat="43.36487227938717" lon="11.406297301110305"><ele>339.4</ele><time>2026-04-06T15:01:41.001Z</time></trkpt><trkpt lat="43.36478503272759" lon="11.406218064250208"><ele>339.6</ele><time>2026-04-06T15:01:42.001Z</time></trkpt><trkpt lat="43.36472623145026" lon="11.406126298126743"><ele>339.8</ele><time>2026-04-06T15:01:43.001Z</time></trkpt><trkpt lat="43.36467640943794" lon="11.406054079464464"><ele>340.0</ele><time>2026-04-06T15:01:44.001Z</time></trkpt><trkpt lat="43.364563424455525" lon="11.40599180370718"><ele>337.8</ele><time>2026-04-06T15:01:46.001Z</time></trkpt><trkpt lat="43.36448858714004" lon="11.4060005739214"><ele>335.6</ele><time>2026-04-06T15:01:47.001Z</time></trkpt><trkpt lat="43.36441014259149" lon="11.406000330658575"><ele>333.4</ele><time>2026-04-06T15:01:48.001Z</time></trkpt><trkpt lat="43.36432416051476" lon="11.406073846008521"><ele>331.2</ele><time>2026-04-06T15:01:49.001Z</time></trkpt><trkpt lat="43.36422234732868" lon="11.406152039612284"><ele>329.0</ele><time>2026-04-06T15:01:50.001Z</time></trkpt><trkpt lat="43.364110629457564" lon="11.406231027078888"><ele>329.0</ele><time>2026-04-06T15:01:51.001Z</time></trkpt><trkpt lat="43.36399552196098" lon="11.406313340027076"><ele>329.0</ele><time>2026-04-06T15:01:52.001Z</time></trkpt><trkpt lat="43.36387271877577" lon="11.40640072493263"><ele>329.0</ele><time>2026-04-06T15:01:53.001Z</time></trkpt><trkpt lat="43.36375336486138" lon="11.406475950381665"><ele>329.0</ele><time>2026-04-06T15:01:54.001Z</time></trkpt><trkpt lat="43.3636313387315" lon="11.406534528253214"><ele>326.5</ele><time>2026-04-06T15:01:55.001Z</time></trkpt><trkpt lat="43.36351325864985" lon="11.406609832442125"><ele>324.0</ele><time>2026-04-06T15:01:56.001Z</time></trkpt><trkpt lat="43.363405625927356" lon="11.406702975747327"><ele>321.5</ele><time>2026-04-06T15:01:57Z</time></trkpt><trkpt lat="43.36328880613476" lon="11.406775416019705"><ele>319.0</ele><time>2026-04-06T15:01:58Z</time></trkpt><trkpt lat="43.36317155686622" lon="11.406842554268316"><ele>319.0</ele><time>2026-04-06T15:01:59Z</time></trkpt><trkpt lat="43.36305274344599" lon="11.406899440308875"><ele>319.0</ele><time>2026-04-06T15:02:00Z</time></trkpt><trkpt lat="43.36294249352394" lon="11.406983771994986"><ele>319.0</ele><time>2026-04-06T15:02:01Z</time></trkpt><trkpt lat="43.36281820773132" lon="11.407044738820954"><ele>319.0</ele><time>2026-04-06T15:02:02Z</time></trkpt><trkpt lat="43.36269115798153" lon="11.407101144758167"><ele>317.75</ele><time>2026-04-06T15:02:03Z</time></trkpt><trkpt lat="43.362552924531464" lon="11.407155467101504"><ele>316.5</ele><time>2026-04-06T15:02:04Z</time></trkpt><trkpt lat="43.362409321518655" lon="11.407209059157523"><ele>315.25</ele><time>2026-04-06T15:02:05Z</time></trkpt><trkpt lat="43.36226141354952" lon="11.407259609810238"><ele>314.0</ele><time>2026-04-06T15:02:06Z</time></trkpt><trkpt lat="43.36211931724024" lon="11.4073024083639"><ele>312.0</ele><time>2026-04-06T15:02:07Z</time></trkpt><trkpt lat="43.36198299077148" lon="11.407341127236078"><ele>310.0</ele><time>2026-04-06T15:02:08Z</time></trkpt><trkpt lat="43.36184905806631" lon="11.407358433801834"><ele>308.0</ele><time>2026-04-06T15:02:09Z</time></trkpt><trkpt lat="43.36171317955041" lon="11.40739491295466"><ele>306.0</ele><time>2026-04-06T15:02:10Z</time></trkpt><trkpt lat="43.36157150051886" lon="11.407432078998882"><ele>306.0</ele><time>2026-04-06T15:02:11Z</time></trkpt><trkpt lat="43.36142250534884" lon="11.407467212917954"><ele>306.0</ele><time>2026-04-06T15:02:12Z</time></trkpt><trkpt lat="43.36127904319301" lon="11.40749189128989"><ele>306.0</ele><time>2026-04-06T15:02:13Z</time></trkpt><trkpt lat="43.361128772338" lon="11.407510805474168"><ele>306.0</ele><time>2026-04-06T15:02:14Z</time></trkpt><trkpt lat="43.36097833404185" lon="11.407526236584973"><ele>304.0</ele><time>2026-04-06T15:02:15Z</time></trkpt><trkpt lat="43.36083313865668" lon="11.40755774488865"><ele>302.0</ele><time>2026-04-06T15:02:16Z</time></trkpt><trkpt lat="43.360687108151716" lon="11.407527328056545"><ele>300.0</ele><time>2026-04-06T15:02:17Z</time></trkpt><trkpt lat="43.36053462760865" lon="11.40750711394865"><ele>298.0</ele><time>2026-04-06T15:02:18Z</time></trkpt><trkpt lat="43.36038363240674" lon="11.407506274172198"><ele>297.4</ele><time>2026-04-06T15:02:19Z</time></trkpt><trkpt lat="43.360254579129546" lon="11.407475399132498"><ele>296.8</ele><time>2026-04-06T15:02:20Z</time></trkpt><trkpt lat="43.360138187610055" lon="11.407448635539556"><ele>296.2</ele><time>2026-04-06T15:02:21Z</time></trkpt><trkpt lat="43.36003703979625" lon="11.40742167800105"><ele>295.6</ele><time>2026-04-06T15:02:22Z</time></trkpt><trkpt lat="43.35994899527795" lon="11.407396269995505"><ele>295.0</ele><time>2026-04-06T15:02:23Z</time></trkpt><trkpt lat="43.35986889076881" lon="11.407380464050085"><ele>295.0</ele><time>2026-04-06T15:02:24Z</time></trkpt><trkpt lat="43.35978656128179" lon="11.407391875908928"><ele>295.0</ele><time>2026-04-06T15:02:25Z</time></trkpt><trkpt lat="43.35969972824181" lon="11.407433988405472"><ele>295.0</ele><time>2026-04-06T15:02:26Z</time></trkpt><trkpt lat="43.359604266902224" lon="11.407482312379361"><ele>295.0</ele><time>2026-04-06T15:02:27Z</time></trkpt><trkpt lat="43.35954778744639" lon="11.40760894565925"><ele>295.0</ele><time>2026-04-06T15:02:28Z</time></trkpt><trkpt lat="43.35949899027855" lon="11.40771092870981"><ele>295.16666666666663</ele><time>2026-04-06T15:02:29Z</time></trkpt><trkpt lat="43.35946916829477" lon="11.407815753240305"><ele>295.3333333333333</ele><time>2026-04-06T15:02:30Z</time></trkpt><trkpt lat="43.359456871012" lon="11.407918081669553"><ele>295.5</ele><time>2026-04-06T15:02:31Z</time></trkpt><trkpt lat="43.3594593390042" lon="11.408021038034871"><ele>295.6666666666667</ele><time>2026-04-06T15:02:32Z</time></trkpt><trkpt lat="43.359478992934754" lon="11.408122709712922"><ele>295.83333333333337</ele><time>2026-04-06T15:02:32.999Z</time></trkpt><trkpt lat="43.35951601029914" lon="11.408226579383804"><ele>296.0</ele><time>2026-04-06T15:02:33.999Z</time></trkpt><trkpt lat="43.359571660126505" lon="11.408308750017715"><ele>294.6</ele><time>2026-04-06T15:02:34.999Z</time></trkpt><trkpt lat="43.359650270892644" lon="11.408378810713407"><ele>293.20000000000005</ele><time>2026-04-06T15:02:35.999Z</time></trkpt><trkpt lat="43.35975367404976" lon="11.408451312567617"><ele>291.79999999999995</ele><time>2026-04-06T15:02:36.999Z</time></trkpt><trkpt lat="43.35986179953702" lon="11.40852018859878"><ele>290.4</ele><time>2026-04-06T15:02:37.999Z</time></trkpt><trkpt lat="43.35996709594794" lon="11.408593820154035"><ele>289.0</ele><time>2026-04-06T15:02:38.999Z</time></trkpt><trkpt lat="43.36007011651989" lon="11.4086764155905"><ele>289.0</ele><time>2026-04-06T15:02:39.999Z</time></trkpt><trkpt lat="43.36017102353536" lon="11.408761943819979"><ele>289.0</ele><time>2026-04-06T15:02:40.999Z</time></trkpt><trkpt lat="43.36026786495966" lon="11.408851670589815"><ele>289.0</ele><time>2026-04-06T15:02:41.999Z</time></trkpt><trkpt lat="43.36035475483633" lon="11.408950844715468"><ele>289.0</ele><time>2026-04-06T15:02:42.999Z</time></trkpt><trkpt lat="43.36043159526991" lon="11.409072564206744"><ele>288.5</ele><time>2026-04-06T15:02:43.999Z</time></trkpt><trkpt lat="43.360507289400665" lon="11.40922138708293"><ele>288.0</ele><time>2026-04-06T15:02:44.999Z</time></trkpt><trkpt lat="43.36057685308298" lon="11.409362878890045"><ele>287.5</ele><time>2026-04-06T15:02:45.999Z</time></trkpt><trkpt lat="43.36063763425928" lon="11.409500259748276"><ele>287.0</ele><time>2026-04-06T15:02:46.999Z</time></trkpt><trkpt lat="43.360693912488586" lon="11.409641879726726"><ele>285.8</ele><time>2026-04-06T15:02:47.999Z</time></trkpt><trkpt lat="43.36074405979674" lon="11.409780392740611"><ele>284.6</ele><time>2026-04-06T15:02:48.999Z</time></trkpt><trkpt lat="43.36078672829374" lon="11.409908024725937"><ele>283.40000000000003</ele><time>2026-04-06T15:02:49.999Z</time></trkpt><trkpt lat="43.36083149274657" lon="11.410037552173891"><ele>282.2</ele><time>2026-04-06T15:02:50.999Z</time></trkpt><trkpt lat="43.360860708773764" lon="11.410158573231776"><ele>281.0</ele><time>2026-04-06T15:02:51.999Z</time></trkpt><trkpt lat="43.36087071425413" lon="11.410286285638042"><ele>281.0</ele><time>2026-04-06T15:02:52.999Z</time></trkpt><trkpt lat="43.36085702101798" lon="11.410416123426474"><ele>281.0</ele><time>2026-04-06T15:02:53.999Z</time></trkpt><trkpt lat="43.36082249006805" lon="11.410534646273799"><ele>281.0</ele><time>2026-04-06T15:02:54.999Z</time></trkpt><trkpt lat="43.360770480075054" lon="11.41063860457621"><ele>281.0</ele><time>2026-04-06T15:02:55.999Z</time></trkpt><trkpt lat="43.36068944494569" lon="11.41069544294846"><ele>281.0</ele><time>2026-04-06T15:02:56.999Z</time></trkpt><trkpt lat="43.3606012693231" lon="11.410752698010851"><ele>278.25</ele><time>2026-04-06T15:02:57.999Z</time></trkpt><trkpt lat="43.36049164064734" lon="11.410831426693152"><ele>275.5</ele><time>2026-04-06T15:02:58.999Z</time></trkpt><trkpt lat="43.3603702333304" lon="11.410877559823902"><ele>272.75</ele><time>2026-04-06T15:02:59.999Z</time></trkpt><trkpt lat="43.36026783831961" lon="11.41092489568787"><ele>270.0</ele><time>2026-04-06T15:03:00.999Z</time></trkpt><trkpt lat="43.36017647495259" lon="11.410973910887694"><ele>270.0</ele><time>2026-04-06T15:03:01.999Z</time></trkpt><trkpt lat="43.360097229103204" lon="11.411026832209318"><ele>270.0</ele><time>2026-04-06T15:03:02.999Z</time></trkpt><trkpt lat="43.360036001369195" lon="11.411083718039489"><ele>270.0</ele><time>2026-04-06T15:03:03.999Z</time></trkpt><trkpt lat="43.35998381599058" lon="11.411143722062514"><ele>270.0</ele><time>2026-04-06T15:03:04.999Z</time></trkpt><trkpt lat="43.35994697068424" lon="11.411222422152315"><ele>270.0</ele><time>2026-04-06T15:03:05.999Z</time></trkpt><trkpt lat="43.359925934840504" lon="11.411314261827764"><ele>270.0</ele><time>2026-04-06T15:03:06.999Z</time></trkpt><trkpt lat="43.35991484288863" lon="11.411419924709731"><ele>270.0</ele><time>2026-04-06T15:03:07.999Z</time></trkpt><trkpt lat="43.35991426863327" lon="11.411530148135054"><ele>270.0</ele><time>2026-04-06T15:03:08.999Z</time></trkpt><trkpt lat="43.35992657844595" lon="11.411648810682498"><ele>270.0</ele><time>2026-04-06T15:03:09.999Z</time></trkpt><trkpt lat="43.359944727264676" lon="11.411753934444556"><ele>270.0</ele><time>2026-04-06T15:03:10.999Z</time></trkpt><trkpt lat="43.35996089037946" lon="11.41189488575527"><ele>270.0</ele><time>2026-04-06T15:03:12.999Z</time></trkpt><trkpt lat="43.35991840076559" lon="11.412006263731456"><ele>270.0</ele><time>2026-04-06T15:03:14.999Z</time></trkpt><trkpt lat="43.359802377735775" lon="11.412025307735021"><ele>270.0</ele><time>2026-04-06T15:03:16.999Z</time></trkpt><trkpt lat="43.3597386231276" lon="11.411976877436757"><ele>270.0</ele><time>2026-04-06T15:03:17.999Z</time></trkpt><trkpt lat="43.359685971995916" lon="11.411891937197167"><ele>270.0</ele><time>2026-04-06T15:03:18.999Z</time></trkpt><trkpt lat="43.359646590996846" lon="11.41177631709021"><ele>270.0</ele><time>2026-04-06T15:03:19.999Z</time></trkpt><trkpt lat="43.35961705861569" lon="11.41162770130128"><ele>270.0</ele><time>2026-04-06T15:03:20.999Z</time></trkpt><trkpt lat="43.359600339439844" lon="11.411482934755279"><ele>269.0</ele><time>2026-04-06T15:03:21.999Z</time></trkpt><trkpt lat="43.35957724354363" lon="11.411351551555937"><ele>268.0</ele><time>2026-04-06T15:03:22.999Z</time></trkpt><trkpt lat="43.3595393391392" lon="11.411225628214398"><ele>267.0</ele><time>2026-04-06T15:03:23.999Z</time></trkpt><trkpt lat="43.35949637667592" lon="11.411116300083052"><ele>266.0</ele><time>2026-04-06T15:03:24.999Z</time></trkpt><trkpt lat="43.35945287664905" lon="11.41103284389118"><ele>265.0</ele><time>2026-04-06T15:03:25.999Z</time></trkpt><trkpt lat="43.359401770539925" lon="11.410971226242077"><ele>264.0</ele><time>2026-04-06T15:03:27Z</time></trkpt><trkpt lat="43.359344944242594" lon="11.410932475350696"><ele>264.0</ele><time>2026-04-06T15:03:28Z</time></trkpt><trkpt lat="43.3592764034584" lon="11.410912844486575"><ele>264.0</ele><time>2026-04-06T15:03:29Z</time></trkpt><trkpt lat="43.359206759527446" lon="11.410919264265594"><ele>264.0</ele><time>2026-04-06T15:03:30Z</time></trkpt><trkpt lat="43.35914303486708" lon="11.410965715713836"><ele>264.0</ele><time>2026-04-06T15:03:31Z</time></trkpt><trkpt lat="43.359085512582766" lon="11.411040440841573"><ele>264.0</ele><time>2026-04-06T15:03:32Z</time></trkpt><trkpt lat="43.35904217319573" lon="11.411143253410168"><ele>264.0</ele><time>2026-04-06T15:03:33Z</time></trkpt><trkpt lat="43.359007885939796" lon="11.411259365948986"><ele>262.8</ele><time>2026-04-06T15:03:34Z</time></trkpt><trkpt lat="43.358986161247074" lon="11.411398699533603"><ele>261.59999999999997</ele><time>2026-04-06T15:03:35Z</time></trkpt><trkpt lat="43.35897652308806" lon="11.411540337574351"><ele>260.4</ele><time>2026-04-06T15:03:36Z</time></trkpt><trkpt lat="43.35898062297051" lon="11.411686439777844"><ele>259.2</ele><time>2026-04-06T15:03:37Z</time></trkpt><trkpt lat="43.35898340348724" lon="11.41183571663643"><ele>258.0</ele><time>2026-04-06T15:03:38Z</time></trkpt><trkpt lat="43.358981107720524" lon="11.411961052046026"><ele>258.0</ele><time>2026-04-06T15:03:39Z</time></trkpt><trkpt lat="43.3589668213778" lon="11.41207316279805"><ele>258.0</ele><time>2026-04-06T15:03:40Z</time></trkpt><trkpt lat="43.3589416204647" lon="11.412162965969369"><ele>258.0</ele><time>2026-04-06T15:03:41Z</time></trkpt><trkpt lat="43.358902958862025" lon="11.412238868617155"><ele>258.0</ele><time>2026-04-06T15:03:42Z</time></trkpt><trkpt lat="43.35882660496812" lon="11.41226587557235"><ele>258.0</ele><time>2026-04-06T15:03:43Z</time></trkpt><trkpt lat="43.358751414233915" lon="11.412318169424834"><ele>258.0</ele><time>2026-04-06T15:03:44Z</time></trkpt><trkpt lat="43.35866664600613" lon="11.412369350828463"><ele>255.25</ele><time>2026-04-06T15:03:45Z</time></trkpt><trkpt lat="43.35855860373326" lon="11.412400219824542"><ele>252.5</ele><time>2026-04-06T15:03:46Z</time></trkpt><trkpt lat="43.358436276412654" lon="11.412437557741944"><ele>249.75</ele><time>2026-04-06T15:03:47Z</time></trkpt><trkpt lat="43.35831561234786" lon="11.412441994813504"><ele>247.0</ele><time>2026-04-06T15:03:48Z</time></trkpt><trkpt lat="43.35819728660061" lon="11.412436853793336"><ele>247.0</ele><time>2026-04-06T15:03:49Z</time></trkpt><trkpt lat="43.35807908161488" lon="11.412420472300004"><ele>247.0</ele><time>2026-04-06T15:03:50Z</time></trkpt><trkpt lat="43.35797081335813" lon="11.412386276121351"><ele>247.0</ele><time>2026-04-06T15:03:51Z</time></trkpt><trkpt lat="43.3578717680958" lon="11.412344830302782"><ele>247.0</ele><time>2026-04-06T15:03:52Z</time></trkpt><trkpt lat="43.35777927805569" lon="11.412299925758063"><ele>247.0</ele><time>2026-04-06T15:03:53Z</time></trkpt><trkpt lat="43.35769180879405" lon="11.412274492386647"><ele>246.0</ele><time>2026-04-06T15:03:54Z</time></trkpt><trkpt lat="43.35759947875359" lon="11.412259509909221"><ele>245.0</ele><time>2026-04-06T15:03:55Z</time></trkpt><trkpt lat="43.35750011889165" lon="11.412269699590244"><ele>244.0</ele><time>2026-04-06T15:03:56Z</time></trkpt><trkpt lat="43.3573958483156" lon="11.41230832878121"><ele>243.0</ele><time>2026-04-06T15:03:57Z</time></trkpt><trkpt lat="43.35731072897142" lon="11.412362407351473"><ele>242.0</ele><time>2026-04-06T15:03:58Z</time></trkpt><trkpt lat="43.35723265098489" lon="11.412439636281459"><ele>240.75</ele><time>2026-04-06T15:03:59Z</time></trkpt><trkpt lat="43.35716893796788" lon="11.412530986216918"><ele>239.5</ele><time>2026-04-06T15:04:00Z</time></trkpt><trkpt lat="43.357105241951665" lon="11.4126503500267"><ele>238.25</ele><time>2026-04-06T15:04:01Z</time></trkpt><trkpt lat="43.357044685433465" lon="11.412795760555372"><ele>237.0</ele><time>2026-04-06T15:04:02Z</time></trkpt><trkpt lat="43.35698520857905" lon="11.4129577720665"><ele>236.25</ele><time>2026-04-06T15:04:03Z</time></trkpt><trkpt lat="43.356927365553375" lon="11.413129982190053"><ele>235.5</ele><time>2026-04-06T15:04:04Z</time></trkpt><trkpt lat="43.356872312950934" lon="11.41330133793268"><ele>234.75</ele><time>2026-04-06T15:04:05Z</time></trkpt><trkpt lat="43.35682049611144" lon="11.413470956638644"><ele>234.0</ele><time>2026-04-06T15:04:06Z</time></trkpt><trkpt lat="43.356772305037495" lon="11.413639389338645"><ele>234.0</ele><time>2026-04-06T15:04:07Z</time></trkpt><trkpt lat="43.35673128958535" lon="11.413804289453736"><ele>234.0</ele><time>2026-04-06T15:04:08Z</time></trkpt><trkpt lat="43.356690276928155" lon="11.413961783598106"><ele>234.0</ele><time>2026-04-06T15:04:09Z</time></trkpt><trkpt lat="43.35664898047987" lon="11.414114975440878"><ele>234.0</ele><time>2026-04-06T15:04:10Z</time></trkpt><trkpt lat="43.35660934091143" lon="11.414267852292284"><ele>233.25</ele><time>2026-04-06T15:04:11Z</time></trkpt><trkpt lat="43.35657348945137" lon="11.414421592242926"><ele>232.5</ele><time>2026-04-06T15:04:12Z</time></trkpt><trkpt lat="43.356538625373695" lon="11.414571032616418"><ele>231.75</ele><time>2026-04-06T15:04:13Z</time></trkpt><trkpt lat="43.35650787075714" lon="11.414715935188205"><ele>231.0</ele><time>2026-04-06T15:04:14Z</time></trkpt><trkpt lat="43.35647256938006" lon="11.41486814986788"><ele>230.60000000000002</ele><time>2026-04-06T15:04:15Z</time></trkpt><trkpt lat="43.35643241078681" lon="11.415016705464266"><ele>230.20000000000002</ele><time>2026-04-06T15:04:16Z</time></trkpt><trkpt lat="43.35640085956411" lon="11.415162670846858"><ele>229.79999999999998</ele><time>2026-04-06T15:04:17Z</time></trkpt><trkpt lat="43.35637906324462" lon="11.415303732549354"><ele>229.39999999999998</ele><time>2026-04-06T15:04:18Z</time></trkpt><trkpt lat="43.35635296306535" lon="11.41543377618676"><ele>229.0</ele><time>2026-04-06T15:04:19Z</time></trkpt><trkpt lat="43.35632842511762" lon="11.415557896879783"><ele>227.6</ele><time>2026-04-06T15:04:20Z</time></trkpt><trkpt lat="43.35630717806189" lon="11.415662738246956"><ele>226.2</ele><time>2026-04-06T15:04:21Z</time></trkpt><trkpt lat="43.35627745972419" lon="11.415779207403133"><ele>224.79999999999998</ele><time>2026-04-06T15:04:22.999Z</time></trkpt><trkpt lat="43.35614457471141" lon="11.415828925606752"><ele>223.39999999999998</ele><time>2026-04-06T15:04:24.999Z</time></trkpt><trkpt lat="43.35605796946328" lon="11.415860720080044"><ele>222.0</ele><time>2026-04-06T15:04:25.999Z</time></trkpt><trkpt lat="43.35595636512469" lon="11.415907506954413"><ele>222.0</ele><time>2026-04-06T15:04:26.999Z</time></trkpt><trkpt lat="43.355853927140615" lon="11.415961732597605"><ele>222.0</ele><time>2026-04-06T15:04:27.999Z</time></trkpt><trkpt lat="43.35575503153314" lon="11.416033367081868"><ele>222.0</ele><time>2026-04-06T15:04:28.999Z</time></trkpt><trkpt lat="43.355645735724885" lon="11.416122668641762"><ele>222.0</ele><time>2026-04-06T15:04:29.999Z</time></trkpt><trkpt lat="43.355524879189424" lon="11.41620281994383"><ele>223.25</ele><time>2026-04-06T15:04:30.999Z</time></trkpt><trkpt lat="43.35540173986513" lon="11.416245108736502"><ele>224.5</ele><time>2026-04-06T15:04:31.999Z</time></trkpt><trkpt lat="43.35527300892656" lon="11.416243869238684"><ele>225.75</ele><time>2026-04-06T15:04:32.999Z</time></trkpt><trkpt lat="43.3551367625924" lon="11.416225989904754"><ele>227.0</ele><time>2026-04-06T15:04:33.999Z</time></trkpt><trkpt lat="43.35500398898706" lon="11.41620332264519"><ele>227.0</ele><time>2026-04-06T15:04:34.999Z</time></trkpt><trkpt lat="43.354866105375486" lon="11.416188617880264"><ele>227.0</ele><time>2026-04-06T15:04:35.999Z</time></trkpt><trkpt lat="43.35471936699951" lon="11.416175837162898"><ele>227.0</ele><time>2026-04-06T15:04:36.999Z</time></trkpt><trkpt lat="43.354575093547474" lon="11.416161036899567"><ele>227.0</ele><time>2026-04-06T15:04:37.999Z</time></trkpt><trkpt lat="43.35443115390012" lon="11.416144061573151"><ele>226.5</ele><time>2026-04-06T15:04:38.999Z</time></trkpt><trkpt lat="43.3542859504149" lon="11.41612260266914"><ele>226.0</ele><time>2026-04-06T15:04:39.999Z</time></trkpt><trkpt lat="43.35413625173391" lon="11.416103609698785"><ele>225.5</ele><time>2026-04-06T15:04:40.999Z</time></trkpt><trkpt lat="43.353985554893846" lon="11.416088629325602"><ele>225.0</ele><time>2026-04-06T15:04:41.999Z</time></trkpt><trkpt lat="43.353836059743" lon="11.416071697578076"><ele>224.33333333333331</ele><time>2026-04-06T15:04:42.999Z</time></trkpt><trkpt lat="43.353683678090825" lon="11.4160462761506"><ele>223.66666666666666</ele><time>2026-04-06T15:04:43.999Z</time></trkpt><trkpt lat="43.35352860203953" lon="11.416008646740893"><ele>223.0</ele><time>2026-04-06T15:04:44.999Z</time></trkpt><trkpt lat="43.35336739888793" lon="11.415955855533108"><ele>223.0</ele><time>2026-04-06T15:04:45.999Z</time></trkpt><trkpt lat="43.3532063368936" lon="11.41590195672865"><ele>223.0</ele><time>2026-04-06T15:04:46.999Z</time></trkpt><trkpt lat="43.35304548877514" lon="11.415859288953593"><ele>223.0</ele><time>2026-04-06T15:04:47.999Z</time></trkpt><trkpt lat="43.352875532376615" lon="11.415814485425848"><ele>223.0</ele><time>2026-04-06T15:04:48.999Z</time></trkpt><trkpt lat="43.352713696671124" lon="11.415768180614418"><ele>223.0</ele><time>2026-04-06T15:04:49.999Z</time></trkpt><trkpt lat="43.3525415535212" lon="11.415719865222655"><ele>223.0</ele><time>2026-04-06T15:04:50.999Z</time></trkpt><trkpt lat="43.35236306919535" lon="11.415669608198652"><ele>222.0</ele><time>2026-04-06T15:04:51.999Z</time></trkpt><trkpt lat="43.35219675635212" lon="11.415619057503038"><ele>221.0</ele><time>2026-04-06T15:04:52.999Z</time></trkpt><trkpt lat="43.35204411907971" lon="11.415576322001606"><ele>220.0</ele><time>2026-04-06T15:04:53.999Z</time></trkpt><trkpt lat="43.3518969773924" lon="11.415536988198932"><ele>220.0</ele><time>2026-04-06T15:04:54.999Z</time></trkpt><trkpt lat="43.35174196985742" lon="11.415491528048536"><ele>220.0</ele><time>2026-04-06T15:04:55.999Z</time></trkpt><trkpt lat="43.35158009299949" lon="11.415443738675926"><ele>220.0</ele><time>2026-04-06T15:04:56.999Z</time></trkpt><trkpt lat="43.35142133931984" lon="11.415399124042166"><ele>220.0</ele><time>2026-04-06T15:04:57.999Z</time></trkpt><trkpt lat="43.351248973682125" lon="11.415353724049154"><ele>220.0</ele><time>2026-04-06T15:04:58.999Z</time></trkpt><trkpt lat="43.35107929940291" lon="11.41530445211162"><ele>220.0</ele><time>2026-04-06T15:04:59.999Z</time></trkpt><trkpt lat="43.35090993576575" lon="11.415252539315869"><ele>220.0</ele><time>2026-04-06T15:05:00.999Z</time></trkpt><trkpt lat="43.35074028862159" lon="11.41520309710735"><ele>220.0</ele><time>2026-04-06T15:05:01.999Z</time></trkpt><trkpt lat="43.350575349236244" lon="11.415156681561687"><ele>220.0</ele><time>2026-04-06T15:05:02.999Z</time></trkpt><trkpt lat="43.35042540801258" lon="11.415113922871946"><ele>221.5</ele><time>2026-04-06T15:05:03.999Z</time></trkpt><trkpt lat="43.35029192898488" lon="11.415066793776251"><ele>223.0</ele><time>2026-04-06T15:05:04.999Z</time></trkpt><trkpt lat="43.35016914932111" lon="11.415003867151448"><ele>224.5</ele><time>2026-04-06T15:05:05.999Z</time></trkpt><trkpt lat="43.350056206501904" lon="11.414902736915266"><ele>226.0</ele><time>2026-04-06T15:05:06.999Z</time></trkpt><trkpt lat="43.349976749615486" lon="11.414739192233835"><ele>226.33333333333331</ele><time>2026-04-06T15:05:07.999Z</time></trkpt><trkpt lat="43.34988091075561" lon="11.414567308663793"><ele>226.66666666666669</ele><time>2026-04-06T15:05:08.999Z</time></trkpt><trkpt lat="43.349778493406916" lon="11.414382907859634"><ele>227.0</ele><time>2026-04-06T15:05:09.999Z</time></trkpt><trkpt lat="43.34967295475424" lon="11.414187462822126"><ele>227.0</ele><time>2026-04-06T15:05:10.999Z</time></trkpt><trkpt lat="43.349570024395234" lon="11.413969869541521"><ele>227.0</ele><time>2026-04-06T15:05:11.999Z</time></trkpt><trkpt lat="43.34948206881333" lon="11.413737012574648"><ele>227.0</ele><time>2026-04-06T15:05:12.999Z</time></trkpt><trkpt lat="43.349390343180865" lon="11.413516080560763"><ele>227.0</ele><time>2026-04-06T15:05:13.999Z</time></trkpt><trkpt lat="43.34931183835662" lon="11.413307844048934"><ele>227.0</ele><time>2026-04-06T15:05:14.999Z</time></trkpt><trkpt lat="43.34921312449227" lon="11.413124255816438"><ele>227.0</ele><time>2026-04-06T15:05:15.999Z</time></trkpt><trkpt lat="43.3490869428802" lon="11.412951543682679"><ele>226.33333333333334</ele><time>2026-04-06T15:05:16.999Z</time></trkpt><trkpt lat="43.34897687352594" lon="11.412773965119502"><ele>225.66666666666669</ele><time>2026-04-06T15:05:17.999Z</time></trkpt><trkpt lat="43.348871814335254" lon="11.412612228935355"><ele>225.0</ele><time>2026-04-06T15:05:18.999Z</time></trkpt><trkpt lat="43.34877985894981" lon="11.412432745647173"><ele>227.33333333333331</ele><time>2026-04-06T15:05:19.999Z</time></trkpt><trkpt lat="43.34870112471595" lon="11.412241181631456"><ele>229.66666666666666</ele><time>2026-04-06T15:05:20.999Z</time></trkpt><trkpt lat="43.34864104977018" lon="11.41205394323406"><ele>232.0</ele><time>2026-04-06T15:05:21.999Z</time></trkpt><trkpt lat="43.34857057413887" lon="11.411856511966498"><ele>232.0</ele><time>2026-04-06T15:05:22.999Z</time></trkpt><trkpt lat="43.34855306090871" lon="11.411621788168494"><ele>232.0</ele><time>2026-04-06T15:05:23.999Z</time></trkpt><trkpt lat="43.34853522621058" lon="11.411362184888572"><ele>232.0</ele><time>2026-04-06T15:05:24.999Z</time></trkpt><trkpt lat="43.34851736745126" lon="11.411093979026923"><ele>234.0</ele><time>2026-04-06T15:05:25.999Z</time></trkpt><trkpt lat="43.348472689613445" lon="11.410816998951402"><ele>236.0</ele><time>2026-04-06T15:05:26.999Z</time></trkpt><trkpt lat="43.348423036036" lon="11.410528844121803"><ele>238.0</ele><time>2026-04-06T15:05:27.999Z</time></trkpt><trkpt lat="43.348350363822476" lon="11.410232260574217"><ele>239.0</ele><time>2026-04-06T15:05:28.999Z</time></trkpt><trkpt lat="43.348289182327086" lon="11.409922158973872"><ele>240.0</ele><time>2026-04-06T15:05:29.999Z</time></trkpt><trkpt lat="43.348215537661304" lon="11.409634349737438"><ele>240.0</ele><time>2026-04-06T15:05:30.999Z</time></trkpt><trkpt lat="43.34814976112238" lon="11.409376108675897"><ele>240.0</ele><time>2026-04-06T15:05:31.999Z</time></trkpt><trkpt lat="43.34809480795161" lon="11.409130358151195"><ele>240.0</ele><time>2026-04-06T15:05:33Z</time></trkpt><trkpt lat="43.34805701052214" lon="11.408882158144866"><ele>248.0</ele><time>2026-04-06T15:05:34Z</time></trkpt><trkpt lat="43.34804210384925" lon="11.408631001073811"><ele>256.0</ele><time>2026-04-06T15:05:35Z</time></trkpt><trkpt lat="43.348033295141015" lon="11.408377398534586"><ele>264.0</ele><time>2026-04-06T15:05:36Z</time></trkpt><trkpt lat="43.34802935138478" lon="11.408101266395041"><ele>266.0</ele><time>2026-04-06T15:05:37Z</time></trkpt><trkpt lat="43.34803300941841" lon="11.407809278671175"><ele>268.0</ele><time>2026-04-06T15:05:38Z</time></trkpt><trkpt lat="43.348043814722416" lon="11.40750267560129"><ele>270.0</ele><time>2026-04-06T15:05:39Z</time></trkpt><trkpt lat="43.3480578911963" lon="11.40721542719332"><ele>263.0</ele><time>2026-04-06T15:05:40Z</time></trkpt><trkpt lat="43.34807163866061" lon="11.40696944206464"><ele>256.0</ele><time>2026-04-06T15:05:41Z</time></trkpt><trkpt lat="43.348087896256885" lon="11.406749123076187"><ele>249.0</ele><time>2026-04-06T15:05:42Z</time></trkpt><trkpt lat="43.348117089266395" lon="11.406526573022353"><ele>251.33333333333331</ele><time>2026-04-06T15:05:43Z</time></trkpt><trkpt lat="43.34816937928409" lon="11.406295507462222"><ele>253.66666666666666</ele><time>2026-04-06T15:05:44Z</time></trkpt><trkpt lat="43.34824272709897" lon="11.406050707464406"><ele>256.0</ele><time>2026-04-06T15:05:45Z</time></trkpt><trkpt lat="43.34832188206102" lon="11.405793257401069"><ele>256.0</ele><time>2026-04-06T15:05:46Z</time></trkpt><trkpt lat="43.34837307149738" lon="11.405530480202575"><ele>256.0</ele><time>2026-04-06T15:05:47Z</time></trkpt><trkpt lat="43.34842810150619" lon="11.40526313354966"><ele>256.0</ele><time>2026-04-06T15:05:48Z</time></trkpt><trkpt lat="43.34846092892643" lon="11.404984000605271"><ele>259.66666666666663</ele><time>2026-04-06T15:05:49Z</time></trkpt><trkpt lat="43.34847627229731" lon="11.404729874077967"><ele>263.3333333333333</ele><time>2026-04-06T15:05:50Z</time></trkpt><trkpt lat="43.34853709932231" lon="11.404524452150966"><ele>267.0</ele><time>2026-04-06T15:05:51Z</time></trkpt><trkpt lat="43.34860466865808" lon="11.404343234580985"><ele>267.6666666666667</ele><time>2026-04-06T15:05:52Z</time></trkpt><trkpt lat="43.348697985079966" lon="11.404168308346371"><ele>268.33333333333337</ele><time>2026-04-06T15:05:53Z</time></trkpt><trkpt lat="43.34881603990222" lon="11.403999519513013"><ele>269.0</ele><time>2026-04-06T15:05:54Z</time></trkpt><trkpt lat="43.34892941291517" lon="11.403805281286932"><ele>270.0</ele><time>2026-04-06T15:05:55Z</time></trkpt><trkpt lat="43.34903257499992" lon="11.403610376939072"><ele>271.0</ele><time>2026-04-06T15:05:56Z</time></trkpt><trkpt lat="43.34910159677155" lon="11.403413283636858"><ele>272.0</ele><time>2026-04-06T15:05:57Z</time></trkpt><trkpt lat="43.34913057091805" lon="11.403192994423847"><ele>274.33333333333337</ele><time>2026-04-06T15:05:58Z</time></trkpt><trkpt lat="43.349147270663444" lon="11.402947754981993"><ele>276.6666666666667</ele><time>2026-04-06T15:05:59Z</time></trkpt><trkpt lat="43.34915882380857" lon="11.402694755833352"><ele>279.0</ele><time>2026-04-06T15:06:00Z</time></trkpt><trkpt lat="43.34918782971475" lon="11.402460879015402"><ele>279.0</ele><time>2026-04-06T15:06:01Z</time></trkpt><trkpt lat="43.34921049725299" lon="11.402235144359153"><ele>279.0</ele><time>2026-04-06T15:06:02Z</time></trkpt><trkpt lat="43.34923775928558" lon="11.402032516975307"><ele>279.0</ele><time>2026-04-06T15:06:03Z</time></trkpt><trkpt lat="43.34928599951427" lon="11.401841436193717"><ele>279.59999999999997</ele><time>2026-04-06T15:06:04Z</time></trkpt><trkpt lat="43.349347417175515" lon="11.401689165392696"><ele>280.2</ele><time>2026-04-06T15:06:05Z</time></trkpt><trkpt lat="43.34941277240962" lon="11.40157142541168"><ele>280.79999999999995</ele><time>2026-04-06T15:06:06Z</time></trkpt><trkpt lat="43.34950776411348" lon="11.401514493649053"><ele>281.4</ele><time>2026-04-06T15:06:07Z</time></trkpt><trkpt lat="43.349613431377016" lon="11.401509443023931"><ele>282.0</ele><time>2026-04-06T15:06:08Z</time></trkpt><trkpt lat="43.34972985435372" lon="11.401545369410423"><ele>282.0</ele><time>2026-04-06T15:06:09Z</time></trkpt><trkpt lat="43.34985386460772" lon="11.401605841982239"><ele>282.0</ele><time>2026-04-06T15:06:10Z</time></trkpt><trkpt lat="43.34996646611128" lon="11.401654137988034"><ele>282.0</ele><time>2026-04-06T15:06:11Z</time></trkpt><trkpt lat="43.350060654387356" lon="11.401660325935453"><ele>282.0</ele><time>2026-04-06T15:06:12Z</time></trkpt><trkpt lat="43.35014310510236" lon="11.40161993415477"><ele>282.0</ele><time>2026-04-06T15:06:13Z</time></trkpt><trkpt lat="43.350208166488635" lon="11.401528698635488"><ele>282.0</ele><time>2026-04-06T15:06:14Z</time></trkpt><trkpt lat="43.35024342844464" lon="11.401390095102796"><ele>282.0</ele><time>2026-04-06T15:06:15Z</time></trkpt><trkpt lat="43.35022825824799" lon="11.40124352221503"><ele>282.0</ele><time>2026-04-06T15:06:16Z</time></trkpt><trkpt lat="43.350163169431184" lon="11.401097552105698"><ele>282.0</ele><time>2026-04-06T15:06:17Z</time></trkpt><trkpt lat="43.35004484718529" lon="11.400940580475984"><ele>285.3333333333333</ele><time>2026-04-06T15:06:18Z</time></trkpt><trkpt lat="43.3499279426385" lon="11.400805525137276"><ele>288.66666666666663</ele><time>2026-04-06T15:06:19Z</time></trkpt><trkpt lat="43.34980017486146" lon="11.400683931358238"><ele>292.0</ele><time>2026-04-06T15:06:20Z</time></trkpt><trkpt lat="43.3496528028516" lon="11.400606582390921"><ele>292.66666666666663</ele><time>2026-04-06T15:06:21Z</time></trkpt><trkpt lat="43.349508617787016" lon="11.400600747971014"><ele>293.3333333333333</ele><time>2026-04-06T15:06:22Z</time></trkpt><trkpt lat="43.349350970296506" lon="11.400658250349034"><ele>294.0</ele><time>2026-04-06T15:06:23Z</time></trkpt><trkpt lat="43.34918452499102" lon="11.400774712070431"><ele>294.0</ele><time>2026-04-06T15:06:24Z</time></trkpt><trkpt lat="43.34899318497174" lon="11.400903918751586"><ele>294.0</ele><time>2026-04-06T15:06:25Z</time></trkpt><trkpt lat="43.34884221199145" lon="11.400999043066204"><ele>294.0</ele><time>2026-04-06T15:06:26Z</time></trkpt><trkpt lat="43.34873082376165" lon="11.401058720312584"><ele>295.2</ele><time>2026-04-06T15:06:27Z</time></trkpt><trkpt lat="43.34863522226735" lon="11.401072025307311"><ele>296.4</ele><time>2026-04-06T15:06:28Z</time></trkpt><trkpt lat="43.348557007427196" lon="11.400996531977421"><ele>297.6</ele><time>2026-04-06T15:06:29Z</time></trkpt><trkpt lat="43.34847228573442" lon="11.400915390682423"><ele>298.8</ele><time>2026-04-06T15:06:29.999Z</time></trkpt><trkpt lat="43.34837271340965" lon="11.400796901093042"><ele>300.0</ele><time>2026-04-06T15:06:30.999Z</time></trkpt><trkpt lat="43.34825269030147" lon="11.40066992989364"><ele>300.0</ele><time>2026-04-06T15:06:31.999Z</time></trkpt><trkpt lat="43.34813083864539" lon="11.400534156715015"><ele>300.0</ele><time>2026-04-06T15:06:32.999Z</time></trkpt><trkpt lat="43.34799670508086" lon="11.400419425929547"><ele>300.0</ele><time>2026-04-06T15:06:33.999Z</time></trkpt><trkpt lat="43.34786612015396" lon="11.400327794046662"><ele>301.4</ele><time>2026-04-06T15:06:34.999Z</time></trkpt><trkpt lat="43.34774819469788" lon="11.400254538419473"><ele>302.8</ele><time>2026-04-06T15:06:35.999Z</time></trkpt><trkpt lat="43.34764539126496" lon="11.400196949035806"><ele>304.2</ele><time>2026-04-06T15:06:36.999Z</time></trkpt><trkpt lat="43.34755406255325" lon="11.400141456673666"><ele>305.6</ele><time>2026-04-06T15:06:37.999Z</time></trkpt><trkpt lat="43.347499664741484" lon="11.400051433814967"><ele>307.0</ele><time>2026-04-06T15:06:38.999Z</time></trkpt><trkpt lat="43.34745501801839" lon="11.399949925064293"><ele>307.0</ele><time>2026-04-06T15:06:39.999Z</time></trkpt><trkpt lat="43.34741896592586" lon="11.399834836808358"><ele>307.0</ele><time>2026-04-06T15:06:40.999Z</time></trkpt><trkpt lat="43.347390528506615" lon="11.39972588399745"><ele>307.0</ele><time>2026-04-06T15:06:41.999Z</time></trkpt><trkpt lat="43.347407329008696" lon="11.399621851012299"><ele>307.0</ele><time>2026-04-06T15:06:42.999Z</time></trkpt><trkpt lat="43.34746360110311" lon="11.399556845383708"><ele>307.0</ele><time>2026-04-06T15:06:43.999Z</time></trkpt><trkpt lat="43.34750970942438" lon="11.399483583601176"><ele>307.0</ele><time>2026-04-06T15:06:44.999Z</time></trkpt><trkpt lat="43.347564354399786" lon="11.39939688523891"><ele>307.2</ele><time>2026-04-06T15:06:45.999Z</time></trkpt><trkpt lat="43.3476368688713" lon="11.399331220478528"><ele>307.4</ele><time>2026-04-06T15:06:46.999Z</time></trkpt><trkpt lat="43.34772307623481" lon="11.399267835885926"><ele>307.6</ele><time>2026-04-06T15:06:47.999Z</time></trkpt><trkpt lat="43.34782151635917" lon="11.39919905944315"><ele>307.8</ele><time>2026-04-06T15:06:48.999Z</time></trkpt><trkpt lat="43.34791601630997" lon="11.399140885871372"><ele>308.0</ele><time>2026-04-06T15:06:49.999Z</time></trkpt><trkpt lat="43.34801159769079" lon="11.399097257711626"><ele>308.33333333333337</ele><time>2026-04-06T15:06:50.999Z</time></trkpt><trkpt lat="43.3481016495032" lon="11.39904466354157"><ele>308.6666666666667</ele><time>2026-04-06T15:06:51.999Z</time></trkpt><trkpt lat="43.34819210209004" lon="11.399017350471974"><ele>309.0</ele><time>2026-04-06T15:06:52.999Z</time></trkpt><trkpt lat="43.34827557841218" lon="11.39900408802284"><ele>309.3333333333333</ele><time>2026-04-06T15:06:53.999Z</time></trkpt><trkpt lat="43.348347701863844" lon="11.398990071950793"><ele>309.66666666666663</ele><time>2026-04-06T15:06:54.999Z</time></trkpt><trkpt lat="43.348429133723016" lon="11.398986523637742"><ele>310.0</ele><time>2026-04-06T15:06:56.999Z</time></trkpt><trkpt lat="43.34838765938147" lon="11.398814736614854"><ele>309.0</ele><time>2026-04-06T15:06:58.999Z</time></trkpt><trkpt lat="43.348366482317566" lon="11.398732822892176"><ele>308.0</ele><time>2026-04-06T15:06:59.999Z</time></trkpt><trkpt lat="43.3483005702805" lon="11.39859433301389"><ele>307.0</ele><time>2026-04-06T15:07:01.999Z</time></trkpt><trkpt lat="43.3482258747314" lon="11.398498178759457"><ele>306.0</ele><time>2026-04-06T15:07:03.999Z</time></trkpt><trkpt lat="43.34813010549727" lon="11.39845669387733"><ele>305.0</ele><time>2026-04-06T15:07:05.999Z</time></trkpt><trkpt lat="43.348000321309534" lon="11.398500796063814"><ele>303.8</ele><time>2026-04-06T15:07:07.999Z</time></trkpt><trkpt lat="43.34791613631271" lon="11.398538462559783"><ele>302.6</ele><time>2026-04-06T15:07:08.999Z</time></trkpt><trkpt lat="43.34783460672801" lon="11.398587408661662"><ele>301.4</ele><time>2026-04-06T15:07:09.999Z</time></trkpt><trkpt lat="43.347734547295246" lon="11.398631998468064"><ele>300.2</ele><time>2026-04-06T15:07:10.999Z</time></trkpt><trkpt lat="43.34762607762881" lon="11.398659803189062"><ele>299.0</ele><time>2026-04-06T15:07:11.999Z</time></trkpt><trkpt lat="43.34750265290967" lon="11.398677050256047"><ele>299.0</ele><time>2026-04-06T15:07:12.999Z</time></trkpt><trkpt lat="43.347384114991584" lon="11.3986927940341"><ele>299.0</ele><time>2026-04-06T15:07:13.999Z</time></trkpt><trkpt lat="43.34726731345879" lon="11.398713552480958"><ele>299.0</ele><time>2026-04-06T15:07:14.999Z</time></trkpt><trkpt lat="43.34716043910574" lon="11.398732416823782"><ele>299.0</ele><time>2026-04-06T15:07:15.999Z</time></trkpt><trkpt lat="43.347059873207755" lon="11.398748718067234"><ele>299.0</ele><time>2026-04-06T15:07:16.999Z</time></trkpt><trkpt lat="43.34696735153378" lon="11.398773932202152"><ele>299.75</ele><time>2026-04-06T15:07:17.999Z</time></trkpt><trkpt lat="43.34687536108552" lon="11.398823783559983"><ele>300.5</ele><time>2026-04-06T15:07:18.999Z</time></trkpt><trkpt lat="43.346784521093966" lon="11.398905997896133"><ele>301.25</ele><time>2026-04-06T15:07:19.999Z</time></trkpt><trkpt lat="43.346695604728154" lon="11.399017020911932"><ele>302.0</ele><time>2026-04-06T15:07:20.999Z</time></trkpt><trkpt lat="43.346605028142484" lon="11.399153128610541"><ele>302.0</ele><time>2026-04-06T15:07:21.999Z</time></trkpt><trkpt lat="43.34650987363587" lon="11.399302864196882"><ele>302.0</ele><time>2026-04-06T15:07:22.999Z</time></trkpt><trkpt lat="43.34642087808345" lon="11.399448803492994"><ele>302.0</ele><time>2026-04-06T15:07:23.999Z</time></trkpt><trkpt lat="43.34633519071763" lon="11.399587081699167"><ele>302.0</ele><time>2026-04-06T15:07:24.999Z</time></trkpt><trkpt lat="43.3462522400639" lon="11.399717926067803"><ele>301.25</ele><time>2026-04-06T15:07:25.999Z</time></trkpt><trkpt lat="43.34617249937218" lon="11.399841320927615"><ele>300.5</ele><time>2026-04-06T15:07:26.999Z</time></trkpt><trkpt lat="43.346098095902875" lon="11.399960960828556"><ele>299.75</ele><time>2026-04-06T15:07:27.999Z</time></trkpt><trkpt lat="43.34602551438932" lon="11.40007444042149"><ele>299.0</ele><time>2026-04-06T15:07:28.999Z</time></trkpt><trkpt lat="43.345949687901374" lon="11.40019027531196"><ele>299.0</ele><time>2026-04-06T15:07:29.999Z</time></trkpt><trkpt lat="43.34587360539148" lon="11.400308688412007"><ele>299.0</ele><time>2026-04-06T15:07:30.999Z</time></trkpt><trkpt lat="43.345799525653355" lon="11.400418314958236"><ele>299.0</ele><time>2026-04-06T15:07:31.999Z</time></trkpt><trkpt lat="43.34572532134052" lon="11.400524337521142"><ele>299.0</ele><time>2026-04-06T15:07:32.999Z</time></trkpt><trkpt lat="43.34566047816923" lon="11.400622912410208"><ele>299.0</ele><time>2026-04-06T15:07:33.999Z</time></trkpt><trkpt lat="43.34559759642958" lon="11.40071716777278"><ele>299.0</ele><time>2026-04-06T15:07:34.999Z</time></trkpt><trkpt lat="43.345535847208744" lon="11.40080997627956"><ele>299.0</ele><time>2026-04-06T15:07:35.999Z</time></trkpt><trkpt lat="43.345478749497154" lon="11.400894078957835"><ele>299.0</ele><time>2026-04-06T15:07:36.999Z</time></trkpt><trkpt lat="43.34542177873535" lon="11.40097257069793"><ele>299.0</ele><time>2026-04-06T15:07:37.999Z</time></trkpt><trkpt lat="43.34535886733248" lon="11.401043432743526"><ele>299.0</ele><time>2026-04-06T15:07:39Z</time></trkpt><trkpt lat="43.345284499894994" lon="11.401099004579786"><ele>299.0</ele><time>2026-04-06T15:07:40Z</time></trkpt><trkpt lat="43.34518913008496" lon="11.4011500899339"><ele>299.0</ele><time>2026-04-06T15:07:41Z</time></trkpt><trkpt lat="43.34508435366236" lon="11.401196600781825"><ele>299.0</ele><time>2026-04-06T15:07:42Z</time></trkpt><trkpt lat="43.3449859123686" lon="11.401238722871872"><ele>299.0</ele><time>2026-04-06T15:07:43Z</time></trkpt><trkpt lat="43.34489092620052" lon="11.401270827990915"><ele>299.0</ele><time>2026-04-06T15:07:44Z</time></trkpt><trkpt lat="43.344797297554244" lon="11.401295830202644"><ele>299.0</ele><time>2026-04-06T15:07:45Z</time></trkpt><trkpt lat="43.344697011658965" lon="11.401313222549927"><ele>298.5</ele><time>2026-04-06T15:07:46Z</time></trkpt><trkpt lat="43.344588368020275" lon="11.401321377481842"><ele>298.0</ele><time>2026-04-06T15:07:47Z</time></trkpt><trkpt lat="43.34447378245227" lon="11.401320697447087"><ele>297.5</ele><time>2026-04-06T15:07:48Z</time></trkpt><trkpt lat="43.34435384907779" lon="11.40131951039681"><ele>297.0</ele><time>2026-04-06T15:07:49Z</time></trkpt><trkpt lat="43.344235858703044" lon="11.401326269540716"><ele>296.0</ele><time>2026-04-06T15:07:50Z</time></trkpt><trkpt lat="43.344128205382226" lon="11.401348999350885"><ele>295.0</ele><time>2026-04-06T15:07:51Z</time></trkpt><trkpt lat="43.344017876464996" lon="11.40138521164994"><ele>294.0</ele><time>2026-04-06T15:07:52Z</time></trkpt><trkpt lat="43.34389927888143" lon="11.401438381873678"><ele>293.0</ele><time>2026-04-06T15:07:53Z</time></trkpt><trkpt lat="43.343784091537444" lon="11.401505307153743"><ele>292.8</ele><time>2026-04-06T15:07:54Z</time></trkpt><trkpt lat="43.343673052053845" lon="11.401571745920952"><ele>292.6</ele><time>2026-04-06T15:07:55Z</time></trkpt><trkpt lat="43.34356810722744" lon="11.401634893099155"><ele>292.4</ele><time>2026-04-06T15:07:56Z</time></trkpt><trkpt lat="43.34347132264293" lon="11.401696738286727"><ele>292.2</ele><time>2026-04-06T15:07:57Z</time></trkpt><trkpt lat="43.343387666052585" lon="11.40176498318678"><ele>292.0</ele><time>2026-04-06T15:07:58Z</time></trkpt><trkpt lat="43.34330861908451" lon="11.401847795982203"><ele>292.0</ele><time>2026-04-06T15:07:59Z</time></trkpt><trkpt lat="43.34323914889732" lon="11.401943524580439"><ele>292.0</ele><time>2026-04-06T15:08:00Z</time></trkpt><trkpt lat="43.34317712678563" lon="11.402062653141634"><ele>292.0</ele><time>2026-04-06T15:08:01Z</time></trkpt><trkpt lat="43.343127255698896" lon="11.402191411332605"><ele>292.0</ele><time>2026-04-06T15:08:02Z</time></trkpt><trkpt lat="43.3430902247329" lon="11.402328824609011"><ele>292.0</ele><time>2026-04-06T15:08:03Z</time></trkpt><trkpt lat="43.3430668495715" lon="11.402462257830456"><ele>291.4</ele><time>2026-04-06T15:08:04Z</time></trkpt><trkpt lat="43.343057328939906" lon="11.402595545817697"><ele>290.79999999999995</ele><time>2026-04-06T15:08:05Z</time></trkpt><trkpt lat="43.34305392491695" lon="11.402726945332478"><ele>290.2</ele><time>2026-04-06T15:08:06Z</time></trkpt><trkpt lat="43.3430448113671" lon="11.40286160229987"><ele>289.59999999999997</ele><time>2026-04-06T15:08:07Z</time></trkpt><trkpt lat="43.34302101237673" lon="11.402992369712095"><ele>289.0</ele><time>2026-04-06T15:08:08Z</time></trkpt><trkpt lat="43.342975208585386" lon="11.403116631756774"><ele>289.0</ele><time>2026-04-06T15:08:09Z</time></trkpt><trkpt lat="43.34291133812256" lon="11.403218014973215"><ele>289.0</ele><time>2026-04-06T15:08:10Z</time></trkpt><trkpt lat="43.342836070661754" lon="11.403282297637713"><ele>289.0</ele><time>2026-04-06T15:08:11Z</time></trkpt><trkpt lat="43.342753736871465" lon="11.403305638450256"><ele>289.0</ele><time>2026-04-06T15:08:12Z</time></trkpt><trkpt lat="43.34266247055886" lon="11.403309723024204"><ele>289.0</ele><time>2026-04-06T15:08:13Z</time></trkpt><trkpt lat="43.34256899432872" lon="11.403317574366609"><ele>289.0</ele><time>2026-04-06T15:08:14Z</time></trkpt><trkpt lat="43.34248608530163" lon="11.403336285860554"><ele>289.0</ele><time>2026-04-06T15:08:15Z</time></trkpt><trkpt lat="43.3424100392303" lon="11.403366482915537"><ele>289.0</ele><time>2026-04-06T15:08:16Z</time></trkpt><trkpt lat="43.34233750315833" lon="11.403417074613442"><ele>289.0</ele><time>2026-04-06T15:08:17Z</time></trkpt><trkpt lat="43.3422523795637" lon="11.40349253910192"><ele>289.0</ele><time>2026-04-06T15:08:18Z</time></trkpt><trkpt lat="43.3421619323336" lon="11.40359728172397"><ele>287.75</ele><time>2026-04-06T15:08:19Z</time></trkpt><trkpt lat="43.34205624785901" lon="11.403717748459783"><ele>286.5</ele><time>2026-04-06T15:08:20Z</time></trkpt><trkpt lat="43.34194861674945" lon="11.403839898440848"><ele>285.25</ele><time>2026-04-06T15:08:21Z</time></trkpt><trkpt lat="43.34185262116176" lon="11.403951649864577"><ele>284.0</ele><time>2026-04-06T15:08:22Z</time></trkpt><trkpt lat="43.34176403301791" lon="11.404052754584555"><ele>284.0</ele><time>2026-04-06T15:08:23Z</time></trkpt><trkpt lat="43.341675063953694" lon="11.404151643118778"><ele>284.0</ele><time>2026-04-06T15:08:24Z</time></trkpt><trkpt lat="43.34157785676742" lon="11.404261357058038"><ele>284.0</ele><time>2026-04-06T15:08:25Z</time></trkpt><trkpt lat="43.34147935375871" lon="11.404371097534188"><ele>284.0</ele><time>2026-04-06T15:08:26Z</time></trkpt><trkpt lat="43.341389944043144" lon="11.40448030537336"><ele>285.2</ele><time>2026-04-06T15:08:27Z</time></trkpt><trkpt lat="43.34131573483741" lon="11.404585451010345"><ele>286.4</ele><time>2026-04-06T15:08:28Z</time></trkpt><trkpt lat="43.341251026328685" lon="11.404695730574177"><ele>287.6</ele><time>2026-04-06T15:08:29Z</time></trkpt><trkpt lat="43.341185849046056" lon="11.404813760093834"><ele>288.8</ele><time>2026-04-06T15:08:30Z</time></trkpt><trkpt lat="43.34110434337906" lon="11.404947540654643"><ele>290.0</ele><time>2026-04-06T15:08:30.999Z</time></trkpt><trkpt lat="43.34102330789272" lon="11.405073567985509"><ele>290.0</ele><time>2026-04-06T15:08:31.999Z</time></trkpt><trkpt lat="43.34094298991314" lon="11.405174182708718"><ele>290.0</ele><time>2026-04-06T15:08:32.999Z</time></trkpt><trkpt lat="43.34085212318882" lon="11.40526771267604"><ele>290.0</ele><time>2026-04-06T15:08:33.999Z</time></trkpt><trkpt lat="43.340741713710884" lon="11.40535234370666"><ele>290.0</ele><time>2026-04-06T15:08:34.999Z</time></trkpt><trkpt lat="43.340612939328835" lon="11.40543268982752"><ele>290.0</ele><time>2026-04-06T15:08:35.999Z</time></trkpt><trkpt lat="43.34047574584583" lon="11.405514028838013"><ele>290.0</ele><time>2026-04-06T15:08:36.999Z</time></trkpt><trkpt lat="43.34033242553165" lon="11.405600787450917"><ele>290.0</ele><time>2026-04-06T15:08:37.999Z</time></trkpt><trkpt lat="43.34019767649707" lon="11.40568418304198"><ele>290.0</ele><time>2026-04-06T15:08:38.999Z</time></trkpt><trkpt lat="43.34007345625788" lon="11.405760609085599"><ele>290.0</ele><time>2026-04-06T15:08:39.999Z</time></trkpt><trkpt lat="43.339953830694675" lon="11.405832209459344"><ele>290.0</ele><time>2026-04-06T15:08:40.999Z</time></trkpt><trkpt lat="43.33984323758286" lon="11.405903888505788"><ele>290.0</ele><time>2026-04-06T15:08:41.999Z</time></trkpt><trkpt lat="43.339748801882145" lon="11.405968020255425"><ele>289.5</ele><time>2026-04-06T15:08:42.999Z</time></trkpt><trkpt lat="43.33967132924022" lon="11.406026931967036"><ele>289.0</ele><time>2026-04-06T15:08:43.999Z</time></trkpt><trkpt lat="43.33961085599156" lon="11.40608486600951"><ele>288.5</ele><time>2026-04-06T15:08:44.999Z</time></trkpt><trkpt lat="43.33956509594103" lon="11.406153954629584"><ele>288.0</ele><time>2026-04-06T15:08:45.999Z</time></trkpt><trkpt lat="43.3395216955406" lon="11.40624935028731"><ele>287.5</ele><time>2026-04-06T15:08:46.999Z</time></trkpt><trkpt lat="43.33947615355008" lon="11.406375686810101"><ele>287.0</ele><time>2026-04-06T15:08:47.999Z</time></trkpt><trkpt lat="43.339405479214896" lon="11.406533455076454"><ele>287.0</ele><time>2026-04-06T15:08:48.999Z</time></trkpt><trkpt lat="43.33931692258623" lon="11.406685197412587"><ele>287.0</ele><time>2026-04-06T15:08:49.999Z</time></trkpt><trkpt lat="43.339215923215804" lon="11.406813172652692"><ele>287.0</ele><time>2026-04-06T15:08:50.999Z</time></trkpt><trkpt lat="43.33910892604173" lon="11.406939861159767"><ele>287.0</ele><time>2026-04-06T15:08:51.999Z</time></trkpt><trkpt lat="43.33899679881241" lon="11.407071319662354"><ele>287.0</ele><time>2026-04-06T15:08:52.999Z</time></trkpt><trkpt lat="43.338885054166084" lon="11.407203759221733"><ele>287.0</ele><time>2026-04-06T15:08:53.999Z</time></trkpt><trkpt lat="43.3387836598783" lon="11.407326698038412"><ele>287.0</ele><time>2026-04-06T15:08:54.999Z</time></trkpt><trkpt lat="43.33868360783084" lon="11.407440662067204"><ele>287.0</ele><time>2026-04-06T15:08:55.999Z</time></trkpt><trkpt lat="43.338587111052846" lon="11.407536965987456"><ele>287.4</ele><time>2026-04-06T15:08:56.999Z</time></trkpt><trkpt lat="43.33848779971979" lon="11.407621507225603"><ele>287.79999999999995</ele><time>2026-04-06T15:08:57.999Z</time></trkpt><trkpt lat="43.338396813667245" lon="11.407694392821602"><ele>288.2</ele><time>2026-04-06T15:08:58.999Z</time></trkpt><trkpt lat="43.33830878246431" lon="11.407756809001368"><ele>288.59999999999997</ele><time>2026-04-06T15:08:59.999Z</time></trkpt><trkpt lat="43.338229947217236" lon="11.407802313848888"><ele>289.0</ele><time>2026-04-06T15:09:00.999Z</time></trkpt><trkpt lat="43.33815843881596" lon="11.407826443231956"><ele>289.0</ele><time>2026-04-06T15:09:01.999Z</time></trkpt><trkpt lat="43.3380954313249" lon="11.407822118989433"><ele>289.0</ele><time>2026-04-06T15:09:02.999Z</time></trkpt><trkpt lat="43.3380220208944" lon="11.40779176185701"><ele>289.0</ele><time>2026-04-06T15:09:03.999Z</time></trkpt><trkpt lat="43.33794309674962" lon="11.407704163352726"><ele>289.0</ele><time>2026-04-06T15:09:04.999Z</time></trkpt><trkpt lat="43.33784166618176" lon="11.40760126239758"><ele>289.0</ele><time>2026-04-06T15:09:05.999Z</time></trkpt><trkpt lat="43.33771149010532" lon="11.407471219279541"><ele>289.25</ele><time>2026-04-06T15:09:06.999Z</time></trkpt><trkpt lat="43.33759013430209" lon="11.407353051797468"><ele>289.5</ele><time>2026-04-06T15:09:07.999Z</time></trkpt><trkpt lat="43.337486684203014" lon="11.407254399145886"><ele>289.75</ele><time>2026-04-06T15:09:08.999Z</time></trkpt><trkpt lat="43.337393423848276" lon="11.407171643643439"><ele>290.0</ele><time>2026-04-06T15:09:09.999Z</time></trkpt><trkpt lat="43.337299589856194" lon="11.407111903691238"><ele>290.5</ele><time>2026-04-06T15:09:10.999Z</time></trkpt><trkpt lat="43.337203645815826" lon="11.407037682775881"><ele>291.0</ele><time>2026-04-06T15:09:11.999Z</time></trkpt><trkpt lat="43.33709286550745" lon="11.406965822546965"><ele>291.5</ele><time>2026-04-06T15:09:12.999Z</time></trkpt><trkpt lat="43.336964510105354" lon="11.406899078964672"><ele>292.0</ele><time>2026-04-06T15:09:13.999Z</time></trkpt><trkpt lat="43.336837447521646" lon="11.406852118591194"><ele>292.0</ele><time>2026-04-06T15:09:14.999Z</time></trkpt><trkpt lat="43.336722477099784" lon="11.406777099272574"><ele>292.0</ele><time>2026-04-06T15:09:15.999Z</time></trkpt><trkpt lat="43.33660650849762" lon="11.406728030004714"><ele>292.0</ele><time>2026-04-06T15:09:16.999Z</time></trkpt><trkpt lat="43.33649568082658" lon="11.406706166384048"><ele>292.0</ele><time>2026-04-06T15:09:17.999Z</time></trkpt><trkpt lat="43.33640190224846" lon="11.406675174997533"><ele>293.4</ele><time>2026-04-06T15:09:18.999Z</time></trkpt><trkpt lat="43.33631126105907" lon="11.40665136059312"><ele>294.79999999999995</ele><time>2026-04-06T15:09:19.999Z</time></trkpt><trkpt lat="43.33622657479982" lon="11.40663198785409"><ele>296.2</ele><time>2026-04-06T15:09:20.999Z</time></trkpt><trkpt lat="43.33614397420684" lon="11.406674105729811"><ele>297.59999999999997</ele><time>2026-04-06T15:09:21.999Z</time></trkpt><trkpt lat="43.33605893148056" lon="11.406712183179684"><ele>299.0</ele><time>2026-04-06T15:09:22.999Z</time></trkpt><trkpt lat="43.33596907846838" lon="11.406771417162735"><ele>299.0</ele><time>2026-04-06T15:09:23.999Z</time></trkpt><trkpt lat="43.33587751579895" lon="11.406856744373496"><ele>299.0</ele><time>2026-04-06T15:09:24.999Z</time></trkpt><trkpt lat="43.335785566705844" lon="11.406968901776244"><ele>299.0</ele><time>2026-04-06T15:09:25.999Z</time></trkpt><trkpt lat="43.335699537839766" lon="11.407078725183018"><ele>299.0</ele><time>2026-04-06T15:09:26.999Z</time></trkpt><trkpt lat="43.3356160024804" lon="11.407189168427172"><ele>298.6666666666667</ele><time>2026-04-06T15:09:27.999Z</time></trkpt><trkpt lat="43.33553792010447" lon="11.407270866047954"><ele>298.33333333333337</ele><time>2026-04-06T15:09:28.999Z</time></trkpt><trkpt lat="43.33546083152801" lon="11.407329857837656"><ele>298.0</ele><time>2026-04-06T15:09:29.999Z</time></trkpt><trkpt lat="43.335386350902716" lon="11.407372053925476"><ele>297.6666666666667</ele><time>2026-04-06T15:09:30.999Z</time></trkpt><trkpt lat="43.33529957581298" lon="11.407369569052841"><ele>297.3333333333333</ele><time>2026-04-06T15:09:31.999Z</time></trkpt><trkpt lat="43.33520517522889" lon="11.40736699408711"><ele>297.0</ele><time>2026-04-06T15:09:32.999Z</time></trkpt><trkpt lat="43.33509517426806" lon="11.407382192024874"><ele>297.0</ele><time>2026-04-06T15:09:33.999Z</time></trkpt><trkpt lat="43.33498875778257" lon="11.407426078246592"><ele>297.0</ele><time>2026-04-06T15:09:34.999Z</time></trkpt><trkpt lat="43.334880444086494" lon="11.40744884356238"><ele>297.0</ele><time>2026-04-06T15:09:35.999Z</time></trkpt><trkpt lat="43.33477144171199" lon="11.407473544930019"><ele>297.0</ele><time>2026-04-06T15:09:36.999Z</time></trkpt><trkpt lat="43.33466850673342" lon="11.407477441967625"><ele>297.0</ele><time>2026-04-06T15:09:37.999Z</time></trkpt><trkpt lat="43.334580592047075" lon="11.407476419421622"><ele>295.8333333333333</ele><time>2026-04-06T15:09:38.999Z</time></trkpt><trkpt lat="43.33450693641719" lon="11.40747639821948"><ele>294.6666666666667</ele><time>2026-04-06T15:09:39.999Z</time></trkpt><trkpt lat="43.33443721897675" lon="11.40747786317635"><ele>293.5</ele><time>2026-04-06T15:09:40.999Z</time></trkpt><trkpt lat="43.33434852794982" lon="11.407457017259016"><ele>292.33333333333337</ele><time>2026-04-06T15:09:42.999Z</time></trkpt><trkpt lat="43.3342650346099" lon="11.407354979898711"><ele>291.1666666666667</ele><time>2026-04-06T15:09:45Z</time></trkpt><trkpt lat="43.334240947313035" lon="11.407263962910614"><ele>290.0</ele><time>2026-04-06T15:09:46Z</time></trkpt><trkpt lat="43.33422433754669" lon="11.407149741222955"><ele>289.8</ele><time>2026-04-06T15:09:47Z</time></trkpt><trkpt lat="43.3342140768459" lon="11.407029318271684"><ele>289.6</ele><time>2026-04-06T15:09:48Z</time></trkpt><trkpt lat="43.33419951180112" lon="11.406886154076876"><ele>289.4</ele><time>2026-04-06T15:09:49Z</time></trkpt><trkpt lat="43.334182463024135" lon="11.406735195735624"><ele>289.2</ele><time>2026-04-06T15:09:50Z</time></trkpt><trkpt lat="43.334159693948486" lon="11.406585453970282"><ele>289.0</ele><time>2026-04-06T15:09:51Z</time></trkpt><trkpt lat="43.33414040714904" lon="11.406428239324951"><ele>288.4</ele><time>2026-04-06T15:09:52Z</time></trkpt><trkpt lat="43.334123514404865" lon="11.40628831130849"><ele>287.79999999999995</ele><time>2026-04-06T15:09:53Z</time></trkpt><trkpt lat="43.33410292643249" lon="11.406168403552153"><ele>287.20000000000005</ele><time>2026-04-06T15:09:54Z</time></trkpt><trkpt lat="43.33408600997645" lon="11.406043694731553"><ele>286.6</ele><time>2026-04-06T15:09:55Z</time></trkpt><trkpt lat="43.33409090247732" lon="11.405927016548764"><ele>286.0</ele><time>2026-04-06T15:09:56Z</time></trkpt><trkpt lat="43.33409570965011" lon="11.405788225284327"><ele>286.0</ele><time>2026-04-06T15:09:57Z</time></trkpt><trkpt lat="43.33410591424546" lon="11.405636379817857"><ele>286.0</ele><time>2026-04-06T15:09:58Z</time></trkpt><trkpt lat="43.334108918992094" lon="11.405465694923281"><ele>286.0</ele><time>2026-04-06T15:09:59Z</time></trkpt><trkpt lat="43.33412451073775" lon="11.405296896747682"><ele>286.0</ele><time>2026-04-06T15:10:00Z</time></trkpt><trkpt lat="43.334139298672575" lon="11.405129213867944"><ele>285.2</ele><time>2026-04-06T15:10:01Z</time></trkpt><trkpt lat="43.33415387266201" lon="11.404966044565537"><ele>284.40000000000003</ele><time>2026-04-06T15:10:02Z</time></trkpt><trkpt lat="43.33416603435595" lon="11.40480968946838"><ele>283.6</ele><time>2026-04-06T15:10:03Z</time></trkpt><trkpt lat="43.334178093295805" lon="11.404663434259767"><ele>282.8</ele><time>2026-04-06T15:10:04Z</time></trkpt><trkpt lat="43.33419001411368" lon="11.404524555537835"><ele>282.0</ele><time>2026-04-06T15:10:05Z</time></trkpt><trkpt lat="43.33420081302768" lon="11.404403741891267"><ele>282.0</ele><time>2026-04-06T15:10:06Z</time></trkpt><trkpt lat="43.33420716009438" lon="11.404297744123618"><ele>282.0</ele><time>2026-04-06T15:10:07Z</time></trkpt><trkpt lat="43.33420933679507" lon="11.404210081111243"><ele>282.0</ele><time>2026-04-06T15:10:08Z</time></trkpt><trkpt lat="43.33418027243868" lon="11.404048194783295"><ele>282.0</ele><time>2026-04-06T15:10:10Z</time></trkpt><trkpt lat="43.33407837688738" lon="11.403967177987585"><ele>282.0</ele><time>2026-04-06T15:10:12Z</time></trkpt><trkpt lat="43.33400238050913" lon="11.404022653331875"><ele>282.0</ele><time>2026-04-06T15:10:13Z</time></trkpt><trkpt lat="43.333917305393285" lon="11.404075409847536"><ele>282.0</ele><time>2026-04-06T15:10:14Z</time></trkpt><trkpt lat="43.33381314945085" lon="11.404145923054704"><ele>282.0</ele><time>2026-04-06T15:10:15Z</time></trkpt><trkpt lat="43.33370420919144" lon="11.40417801950187"><ele>282.0</ele><time>2026-04-06T15:10:16Z</time></trkpt><trkpt lat="43.333601094772135" lon="11.40424673940229"><ele>282.0</ele><time>2026-04-06T15:10:17Z</time></trkpt><trkpt lat="43.3334870978012" lon="11.404304419872755"><ele>281.75</ele><time>2026-04-06T15:10:18Z</time></trkpt><trkpt lat="43.33336927035754" lon="11.404364310036753"><ele>281.5</ele><time>2026-04-06T15:10:19Z</time></trkpt><trkpt lat="43.333245793946595" lon="11.40443001466457"><ele>281.25</ele><time>2026-04-06T15:10:20Z</time></trkpt><trkpt lat="43.333121198095306" lon="11.404487422192075"><ele>281.0</ele><time>2026-04-06T15:10:21Z</time></trkpt><trkpt lat="43.33299882833063" lon="11.404554182219826"><ele>281.0</ele><time>2026-04-06T15:10:22Z</time></trkpt><trkpt lat="43.33287302974917" lon="11.404611999769054"><ele>281.0</ele><time>2026-04-06T15:10:23Z</time></trkpt><trkpt lat="43.33275125577435" lon="11.404685797538095"><ele>281.0</ele><time>2026-04-06T15:10:24Z</time></trkpt><trkpt lat="43.33262578743764" lon="11.404754713491457"><ele>281.0</ele><time>2026-04-06T15:10:24.999Z</time></trkpt><trkpt lat="43.332503913854275" lon="11.404826488769679"><ele>280.25</ele><time>2026-04-06T15:10:25.999Z</time></trkpt><trkpt lat="43.33238331177407" lon="11.404892520373824"><ele>279.5</ele><time>2026-04-06T15:10:26.999Z</time></trkpt><trkpt lat="43.33225772682056" lon="11.404957761654396"><ele>278.75</ele><time>2026-04-06T15:10:27.999Z</time></trkpt><trkpt lat="43.33213869035103" lon="11.405021163831163"><ele>278.0</ele><time>2026-04-06T15:10:28.999Z</time></trkpt><trkpt lat="43.33201972352259" lon="11.405082850298943"><ele>278.0</ele><time>2026-04-06T15:10:29.999Z</time></trkpt><trkpt lat="43.331907385813665" lon="11.405144946012756"><ele>278.0</ele><time>2026-04-06T15:10:30.999Z</time></trkpt><trkpt lat="43.33180118463795" lon="11.405194115811705"><ele>278.0</ele><time>2026-04-06T15:10:31.999Z</time></trkpt><trkpt lat="43.331687253301205" lon="11.405227120151192"><ele>278.0</ele><time>2026-04-06T15:10:32.999Z</time></trkpt><trkpt lat="43.331562397017805" lon="11.405255429543136"><ele>278.0</ele><time>2026-04-06T15:10:33.999Z</time></trkpt><trkpt lat="43.33144184461136" lon="11.405283510016817"><ele>278.0</ele><time>2026-04-06T15:10:34.999Z</time></trkpt><trkpt lat="43.33131842101081" lon="11.405315782433895"><ele>278.0</ele><time>2026-04-06T15:10:35.999Z</time></trkpt><trkpt lat="43.331188149056445" lon="11.405348742677655"><ele>278.0</ele><time>2026-04-06T15:10:36.999Z</time></trkpt><trkpt lat="43.33105320151979" lon="11.405383012901323"><ele>276.5</ele><time>2026-04-06T15:10:37.999Z</time></trkpt><trkpt lat="43.330913330224156" lon="11.4054191774667"><ele>275.0</ele><time>2026-04-06T15:10:38.999Z</time></trkpt><trkpt lat="43.33077675060801" lon="11.405461308090716"><ele>273.5</ele><time>2026-04-06T15:10:39.999Z</time></trkpt><trkpt lat="43.33065966375874" lon="11.405492213780898"><ele>272.0</ele><time>2026-04-06T15:10:40.999Z</time></trkpt><trkpt lat="43.330567793969735" lon="11.405528435367922"><ele>270.4</ele><time>2026-04-06T15:10:41.999Z</time></trkpt><trkpt lat="43.33047357939533" lon="11.405555293041349"><ele>268.79999999999995</ele><time>2026-04-06T15:10:42.999Z</time></trkpt><trkpt lat="43.330367000803925" lon="11.405578159384126"><ele>267.2</ele><time>2026-04-06T15:10:43.999Z</time></trkpt><trkpt lat="43.330257088202316" lon="11.405626694506342"><ele>265.59999999999997</ele><time>2026-04-06T15:10:44.999Z</time></trkpt><trkpt lat="43.330157975942775" lon="11.405700105773638"><ele>264.0</ele><time>2026-04-06T15:10:45.999Z</time></trkpt><trkpt lat="43.33006057380427" lon="11.405728927718565"><ele>264.0</ele><time>2026-04-06T15:10:46.999Z</time></trkpt><trkpt lat="43.32998728702552" lon="11.405799015069942"><ele>264.0</ele><time>2026-04-06T15:10:47.999Z</time></trkpt><trkpt lat="43.32990917147363" lon="11.40584489879065"><ele>264.0</ele><time>2026-04-06T15:10:48.999Z</time></trkpt><trkpt lat="43.32983994183063" lon="11.405888425119388"><ele>264.0</ele><time>2026-04-06T15:10:49.999Z</time></trkpt><trkpt lat="43.329775436727154" lon="11.405938112886338"><ele>264.0</ele><time>2026-04-06T15:10:50.999Z</time></trkpt><trkpt lat="43.32970809466204" lon="11.405990702814037"><ele>264.0</ele><time>2026-04-06T15:10:51.999Z</time></trkpt><trkpt lat="43.32962863564327" lon="11.406055395000752"><ele>263.1666666666667</ele><time>2026-04-06T15:10:52.999Z</time></trkpt><trkpt lat="43.32955290803577" lon="11.406125831230847"><ele>262.3333333333333</ele><time>2026-04-06T15:10:53.999Z</time></trkpt><trkpt lat="43.32947903483977" lon="11.406201802180572"><ele>261.5</ele><time>2026-04-06T15:10:54.999Z</time></trkpt><trkpt lat="43.32941513033746" lon="11.406273727942512"><ele>260.66666666666663</ele><time>2026-04-06T15:10:55.999Z</time></trkpt><trkpt lat="43.32935007878216" lon="11.406355146026616"><ele>259.8333333333333</ele><time>2026-04-06T15:10:56.999Z</time></trkpt><trkpt lat="43.329286102963174" lon="11.406442555341439"><ele>259.0</ele><time>2026-04-06T15:10:57.999Z</time></trkpt><trkpt lat="43.3292229406287" lon="11.406521311412515"><ele>258.8333333333333</ele><time>2026-04-06T15:10:58.999Z</time></trkpt><trkpt lat="43.32916006310471" lon="11.406595281260868"><ele>258.66666666666663</ele><time>2026-04-06T15:10:59.999Z</time></trkpt><trkpt lat="43.329095865788766" lon="11.406672597599217"><ele>258.5</ele><time>2026-04-06T15:11:00.999Z</time></trkpt><trkpt lat="43.32903063052346" lon="11.406756236079373"><ele>258.3333333333333</ele><time>2026-04-06T15:11:01.999Z</time></trkpt><trkpt lat="43.328967386698544" lon="11.406821112032908"><ele>258.1666666666667</ele><time>2026-04-06T15:11:02.999Z</time></trkpt><trkpt lat="43.32891288451652" lon="11.40689080199803"><ele>258.0</ele><time>2026-04-06T15:11:03.999Z</time></trkpt><trkpt lat="43.328852596558086" lon="11.406959950515265"><ele>257.8333333333333</ele><time>2026-04-06T15:11:04.999Z</time></trkpt><trkpt lat="43.328800751177724" lon="11.40702526458254"><ele>257.6666666666667</ele><time>2026-04-06T15:11:05.999Z</time></trkpt><trkpt lat="43.32874229972502" lon="11.407089516172372"><ele>257.5</ele><time>2026-04-06T15:11:06.999Z</time></trkpt><trkpt lat="43.32868402147598" lon="11.40716201293487"><ele>257.33333333333337</ele><time>2026-04-06T15:11:07.999Z</time></trkpt><trkpt lat="43.328618074459506" lon="11.40723665336644"><ele>257.1666666666667</ele><time>2026-04-06T15:11:08.999Z</time></trkpt><trkpt lat="43.328551025608526" lon="11.407317544495525"><ele>257.0</ele><time>2026-04-06T15:11:09.999Z</time></trkpt><trkpt lat="43.32848004445258" lon="11.40740454897691"><ele>256.2</ele><time>2026-04-06T15:11:10.999Z</time></trkpt><trkpt lat="43.32840754426613" lon="11.40748838801702"><ele>255.39999999999998</ele><time>2026-04-06T15:11:11.999Z</time></trkpt><trkpt lat="43.328332607747896" lon="11.407575830540747"><ele>254.60000000000002</ele><time>2026-04-06T15:11:12.999Z</time></trkpt><trkpt lat="43.328262484291976" lon="11.407665158897528"><ele>253.8</ele><time>2026-04-06T15:11:13.999Z</time></trkpt><trkpt lat="43.32818945054055" lon="11.407750204461452"><ele>253.0</ele><time>2026-04-06T15:11:14.999Z</time></trkpt><trkpt lat="43.328116736616984" lon="11.40783785456739"><ele>253.0</ele><time>2026-04-06T15:11:15.999Z</time></trkpt><trkpt lat="43.328047540770406" lon="11.407923731648102"><ele>253.0</ele><time>2026-04-06T15:11:16.999Z</time></trkpt><trkpt lat="43.32797648677409" lon="11.408007920038763"><ele>253.0</ele><time>2026-04-06T15:11:17.999Z</time></trkpt><trkpt lat="43.327905568575694" lon="11.408093038675156"><ele>253.0</ele><time>2026-04-06T15:11:18.999Z</time></trkpt><trkpt lat="43.327835457683236" lon="11.408178215525636"><ele>253.0</ele><time>2026-04-06T15:11:19.999Z</time></trkpt><trkpt lat="43.32776769860116" lon="11.408258195948077"><ele>253.0</ele><time>2026-04-06T15:11:20.999Z</time></trkpt><trkpt lat="43.327694341270494" lon="11.408339742258997"><ele>253.0</ele><time>2026-04-06T15:11:21.999Z</time></trkpt><trkpt lat="43.32762078350908" lon="11.408426235364907"><ele>253.0</ele><time>2026-04-06T15:11:22.999Z</time></trkpt><trkpt lat="43.32754469694608" lon="11.408508529732897"><ele>253.0</ele><time>2026-04-06T15:11:23.999Z</time></trkpt><trkpt lat="43.32747071565784" lon="11.408591065423558"><ele>253.0</ele><time>2026-04-06T15:11:24.999Z</time></trkpt><trkpt lat="43.32739449746512" lon="11.408675969559443"><ele>253.0</ele><time>2026-04-06T15:11:25.999Z</time></trkpt><trkpt lat="43.3273243871176" lon="11.408755744917908"><ele>253.0</ele><time>2026-04-06T15:11:26.999Z</time></trkpt><trkpt lat="43.32725617627236" lon="11.408834136945787"><ele>253.0</ele><time>2026-04-06T15:11:27.999Z</time></trkpt><trkpt lat="43.32718148578051" lon="11.408919683666237"><ele>253.0</ele><time>2026-04-06T15:11:28.999Z</time></trkpt><trkpt lat="43.32710580536996" lon="11.409010071104504"><ele>253.0</ele><time>2026-04-06T15:11:29.999Z</time></trkpt><trkpt lat="43.327028446199215" lon="11.409098042843013"><ele>251.83333333333331</ele><time>2026-04-06T15:11:30.999Z</time></trkpt><trkpt lat="43.32696779017336" lon="11.409194527131278"><ele>250.66666666666666</ele><time>2026-04-06T15:11:31.999Z</time></trkpt><trkpt lat="43.32690919130542" lon="11.409294705708863"><ele>249.5</ele><time>2026-04-06T15:11:32.999Z</time></trkpt><trkpt lat="43.32686699460456" lon="11.409379929528294"><ele>248.33333333333331</ele><time>2026-04-06T15:11:33.999Z</time></trkpt><trkpt lat="43.32682246291805" lon="11.409464055233272"><ele>247.16666666666666</ele><time>2026-04-06T15:11:34.999Z</time></trkpt><trkpt lat="43.32678093391983" lon="11.409532348136235"><ele>246.0</ele><time>2026-04-06T15:11:35.999Z</time></trkpt><trkpt lat="43.32673950046209" lon="11.409600751000198"><ele>245.25</ele><time>2026-04-06T15:11:36.999Z</time></trkpt><trkpt lat="43.32664917471336" lon="11.409704373129633"><ele>244.5</ele><time>2026-04-06T15:11:38.999Z</time></trkpt><trkpt lat="43.32655337081013" lon="11.409796116862095"><ele>243.75</ele><time>2026-04-06T15:11:40.999Z</time></trkpt><trkpt lat="43.32645864166673" lon="11.40988495004405"><ele>243.0</ele><time>2026-04-06T15:11:42.999Z</time></trkpt><trkpt lat="43.32636773191031" lon="11.409976477718272"><ele>243.0</ele><time>2026-04-06T15:11:44.999Z</time></trkpt><trkpt lat="43.32628603977376" lon="11.41007517854215"><ele>243.0</ele><time>2026-04-06T15:11:46.999Z</time></trkpt><trkpt lat="43.32621285729383" lon="11.410171907431494"><ele>243.0</ele><time>2026-04-06T15:11:48.999Z</time></trkpt><trkpt lat="43.32613173454852" lon="11.41026670402147"><ele>243.0</ele><time>2026-04-06T15:11:51Z</time></trkpt><trkpt lat="43.326045065379326" lon="11.410325159069357"><ele>243.0</ele><time>2026-04-06T15:11:53Z</time></trkpt><trkpt lat="43.325936092585565" lon="11.410260631647997"><ele>243.0</ele><time>2026-04-06T15:11:55Z</time></trkpt><trkpt lat="43.32589734777434" lon="11.410137916396124"><ele>243.0</ele><time>2026-04-06T15:11:56Z</time></trkpt><trkpt lat="43.32585206338147" lon="11.410003499096208"><ele>243.0</ele><time>2026-04-06T15:11:57Z</time></trkpt><trkpt lat="43.32580550258672" lon="11.40986876048608"><ele>243.0</ele><time>2026-04-06T15:11:58Z</time></trkpt><trkpt lat="43.32579518584024" lon="11.40971685939386"><ele>243.0</ele><time>2026-04-06T15:11:59Z</time></trkpt><trkpt lat="43.32582684077461" lon="11.409547768647336"><ele>241.0</ele><time>2026-04-06T15:12:00Z</time></trkpt><trkpt lat="43.32584466138857" lon="11.409366920461977"><ele>239.0</ele><time>2026-04-06T15:12:01Z</time></trkpt><trkpt lat="43.32585123004356" lon="11.409170678345033"><ele>237.0</ele><time>2026-04-06T15:12:02Z</time></trkpt><trkpt lat="43.32583724053754" lon="11.408957328882702"><ele>235.0</ele><time>2026-04-06T15:12:03Z</time></trkpt><trkpt lat="43.32581429838133" lon="11.408742663059824"><ele>233.66666666666666</ele><time>2026-04-06T15:12:04Z</time></trkpt><trkpt lat="43.325789543002635" lon="11.40851892156199"><ele>232.33333333333331</ele><time>2026-04-06T15:12:05Z</time></trkpt><trkpt lat="43.32576494019191" lon="11.408291347318016"><ele>231.0</ele><time>2026-04-06T15:12:06Z</time></trkpt><trkpt lat="43.32572483511622" lon="11.408060521219387"><ele>229.66666666666669</ele><time>2026-04-06T15:12:07Z</time></trkpt><trkpt lat="43.32571416361494" lon="11.407821206956376"><ele>228.33333333333334</ele><time>2026-04-06T15:12:08Z</time></trkpt><trkpt lat="43.32568861541174" lon="11.407586210729155"><ele>227.0</ele><time>2026-04-06T15:12:09Z</time></trkpt><trkpt lat="43.325648750440706" lon="11.407358244405001"><ele>225.66666666666669</ele><time>2026-04-06T15:12:10Z</time></trkpt><trkpt lat="43.32562475626027" lon="11.407139600875203"><ele>224.33333333333331</ele><time>2026-04-06T15:12:11Z</time></trkpt><trkpt lat="43.32561196236485" lon="11.406922051245125"><ele>223.0</ele><time>2026-04-06T15:12:12Z</time></trkpt><trkpt lat="43.325565935609276" lon="11.406724628367476"><ele>223.0</ele><time>2026-04-06T15:12:13Z</time></trkpt><trkpt lat="43.325470721646255" lon="11.406541706181578"><ele>223.0</ele><time>2026-04-06T15:12:14Z</time></trkpt><trkpt lat="43.32538470385171" lon="11.406330385209026"><ele>223.0</ele><time>2026-04-06T15:12:15Z</time></trkpt><trkpt lat="43.325283734754755" lon="11.406132670621481"><ele>221.0</ele><time>2026-04-06T15:12:16Z</time></trkpt><trkpt lat="43.3252028750037" lon="11.405930254618323"><ele>219.0</ele><time>2026-04-06T15:12:17Z</time></trkpt><trkpt lat="43.32514034148373" lon="11.40572814776674"><ele>217.0</ele><time>2026-04-06T15:12:18Z</time></trkpt><trkpt lat="43.325087645521364" lon="11.40554101650072"><ele>216.33333333333331</ele><time>2026-04-06T15:12:19Z</time></trkpt><trkpt lat="43.32504087350071" lon="11.405346537684164"><ele>215.66666666666669</ele><time>2026-04-06T15:12:20Z</time></trkpt><trkpt lat="43.32499941249965" lon="11.405137450934822"><ele>215.0</ele><time>2026-04-06T15:12:21Z</time></trkpt><trkpt lat="43.32497336266252" lon="11.404902141937637"><ele>214.66666666666669</ele><time>2026-04-06T15:12:22Z</time></trkpt><trkpt lat="43.324958286160204" lon="11.404647726154327"><ele>214.33333333333331</ele><time>2026-04-06T15:12:23Z</time></trkpt><trkpt lat="43.324952887315746" lon="11.404403048906289"><ele>214.0</ele><time>2026-04-06T15:12:24Z</time></trkpt><trkpt lat="43.32495061314797" lon="11.404152215966825"><ele>214.0</ele><time>2026-04-06T15:12:25Z</time></trkpt><trkpt lat="43.32495363709016" lon="11.40391148681028"><ele>214.0</ele><time>2026-04-06T15:12:26Z</time></trkpt><trkpt lat="43.32496046923734" lon="11.403676272242437"><ele>214.0</ele><time>2026-04-06T15:12:27Z</time></trkpt><trkpt lat="43.32497459266417" lon="11.403428601810337"><ele>213.33333333333331</ele><time>2026-04-06T15:12:28Z</time></trkpt><trkpt lat="43.32499575521362" lon="11.40317477416854"><ele>212.66666666666669</ele><time>2026-04-06T15:12:29Z</time></trkpt><trkpt lat="43.32501801902716" lon="11.402917205212209"><ele>212.0</ele><time>2026-04-06T15:12:30Z</time></trkpt><trkpt lat="43.32504037513501" lon="11.402658526936472"><ele>213.33333333333334</ele><time>2026-04-06T15:12:31Z</time></trkpt><trkpt lat="43.32504516532195" lon="11.402412370687049"><ele>214.66666666666669</ele><time>2026-04-06T15:12:31.999Z</time></trkpt><trkpt lat="43.32506490152893" lon="11.402168502783173"><ele>216.0</ele><time>2026-04-06T15:12:32.999Z</time></trkpt><trkpt lat="43.325095257929526" lon="11.401941147943335"><ele>219.33333333333331</ele><time>2026-04-06T15:12:33.999Z</time></trkpt><trkpt lat="43.3251035512131" lon="11.401705368358103"><ele>222.66666666666666</ele><time>2026-04-06T15:12:34.999Z</time></trkpt><trkpt lat="43.32509917304163" lon="11.401453422862463"><ele>226.0</ele><time>2026-04-06T15:12:35.999Z</time></trkpt><trkpt lat="43.32509067450853" lon="11.40118524330518"><ele>227.66666666666666</ele><time>2026-04-06T15:12:36.999Z</time></trkpt><trkpt lat="43.325082549378095" lon="11.40096637431511"><ele>229.33333333333331</ele><time>2026-04-06T15:12:37.999Z</time></trkpt><trkpt lat="43.325072506435795" lon="11.400766471657661"><ele>231.0</ele><time>2026-04-06T15:12:38.999Z</time></trkpt><trkpt lat="43.32509361432284" lon="11.40055873714554"><ele>232.66666666666669</ele><time>2026-04-06T15:12:39.999Z</time></trkpt><trkpt lat="43.325142789677784" lon="11.400352253276766"><ele>234.33333333333334</ele><time>2026-04-06T15:12:40.999Z</time></trkpt><trkpt lat="43.32516977363454" lon="11.400146980405411"><ele>236.0</ele><time>2026-04-06T15:12:41.999Z</time></trkpt><trkpt lat="43.32516208132805" lon="11.39992456729571"><ele>236.0</ele><time>2026-04-06T15:12:42.999Z</time></trkpt><trkpt lat="43.32515304241648" lon="11.399685639428977"><ele>236.0</ele><time>2026-04-06T15:12:43.999Z</time></trkpt><trkpt lat="43.32515103254472" lon="11.3994366848064"><ele>236.0</ele><time>2026-04-06T15:12:44.999Z</time></trkpt><trkpt lat="43.32513581000038" lon="11.399190600393114"><ele>237.66666666666669</ele><time>2026-04-06T15:12:45.999Z</time></trkpt><trkpt lat="43.32512026820047" lon="11.398939354982035"><ele>239.33333333333331</ele><time>2026-04-06T15:12:46.999Z</time></trkpt><trkpt lat="43.32509046435629" lon="11.398699320403004"><ele>241.0</ele><time>2026-04-06T15:12:47.999Z</time></trkpt><trkpt lat="43.325081031144926" lon="11.39847185833339"><ele>242.5</ele><time>2026-04-06T15:12:48.999Z</time></trkpt><trkpt lat="43.325088760017515" lon="11.398260924923587"><ele>244.0</ele><time>2026-04-06T15:12:49.999Z</time></trkpt><trkpt lat="43.32508629176467" lon="11.39806774650948"><ele>245.5</ele><time>2026-04-06T15:12:50.999Z</time></trkpt><trkpt lat="43.325090984720184" lon="11.397890599306853"><ele>247.0</ele><time>2026-04-06T15:12:51.999Z</time></trkpt><trkpt lat="43.325120006305795" lon="11.39772673733219"><ele>247.0</ele><time>2026-04-06T15:12:52.999Z</time></trkpt><trkpt lat="43.32517988554821" lon="11.397559796552134"><ele>247.0</ele><time>2026-04-06T15:12:53.999Z</time></trkpt><trkpt lat="43.32525271328533" lon="11.397370091653388"><ele>247.0</ele><time>2026-04-06T15:12:54.999Z</time></trkpt><trkpt lat="43.3253238583595" lon="11.397163660722274"><ele>247.0</ele><time>2026-04-06T15:12:55.999Z</time></trkpt><trkpt lat="43.325385379591786" lon="11.396963809299612"><ele>247.0</ele><time>2026-04-06T15:12:56.999Z</time></trkpt><trkpt lat="43.32544543208591" lon="11.396751928311746"><ele>247.0</ele><time>2026-04-06T15:12:57.999Z</time></trkpt><trkpt lat="43.325505436826674" lon="11.396539805796868"><ele>248.0</ele><time>2026-04-06T15:12:58.999Z</time></trkpt><trkpt lat="43.32557627655103" lon="11.396314449443544"><ele>249.0</ele><time>2026-04-06T15:12:59.999Z</time></trkpt><trkpt lat="43.325626419658434" lon="11.396089390806932"><ele>250.0</ele><time>2026-04-06T15:13:00.999Z</time></trkpt><trkpt lat="43.32569019826903" lon="11.395891537292181"><ele>250.0</ele><time>2026-04-06T15:13:01.999Z</time></trkpt><trkpt lat="43.32571176853041" lon="11.395654320180249"><ele>250.0</ele><time>2026-04-06T15:13:02.999Z</time></trkpt><trkpt lat="43.325708685203516" lon="11.395403393646442"><ele>250.0</ele><time>2026-04-06T15:13:03.999Z</time></trkpt><trkpt lat="43.325688053230934" lon="11.395152350854186"><ele>250.66666666666666</ele><time>2026-04-06T15:13:04.999Z</time></trkpt><trkpt lat="43.32568772053906" lon="11.394902965088058"><ele>251.33333333333331</ele><time>2026-04-06T15:13:05.999Z</time></trkpt><trkpt lat="43.32567626922272" lon="11.39466157822136"><ele>252.0</ele><time>2026-04-06T15:13:06.999Z</time></trkpt><trkpt lat="43.32564089239206" lon="11.394430793721906"><ele>253.0</ele><time>2026-04-06T15:13:07.999Z</time></trkpt><trkpt lat="43.325578543590524" lon="11.394187214731406"><ele>254.0</ele><time>2026-04-06T15:13:08.999Z</time></trkpt><trkpt lat="43.32549875073998" lon="11.393930682439292"><ele>255.0</ele><time>2026-04-06T15:13:09.999Z</time></trkpt><trkpt lat="43.32542159237703" lon="11.39367155066487"><ele>256.6666666666667</ele><time>2026-04-06T15:13:10.999Z</time></trkpt><trkpt lat="43.32534118757275" lon="11.393407211343394"><ele>258.33333333333337</ele><time>2026-04-06T15:13:11.999Z</time></trkpt><trkpt lat="43.32526712824188" lon="11.39317061511869"><ele>260.0</ele><time>2026-04-06T15:13:12.999Z</time></trkpt><trkpt lat="43.32520032082892" lon="11.392958526189306"><ele>261.0</ele><time>2026-04-06T15:13:13.999Z</time></trkpt><trkpt lat="43.325143752066616" lon="11.392784082080695"><ele>262.0</ele><time>2026-04-06T15:13:14.999Z</time></trkpt><trkpt lat="43.325088848536524" lon="11.392645825262637"><ele>263.0</ele><time>2026-04-06T15:13:15.999Z</time></trkpt><trkpt lat="43.325045729107465" lon="11.392528256064358"><ele>264.0</ele><time>2026-04-06T15:13:16.999Z</time></trkpt><trkpt lat="43.3249452223607" lon="11.392489974408955"><ele>264.0</ele><time>2026-04-06T15:13:17.999Z</time></trkpt><trkpt lat="43.32484006615462" lon="11.392481761534944"><ele>264.0</ele><time>2026-04-06T15:13:18.999Z</time></trkpt><trkpt lat="43.32472091338238" lon="11.392511560054936"><ele>264.0</ele><time>2026-04-06T15:13:19.999Z</time></trkpt><trkpt lat="43.3245876103596" lon="11.392562578178714"><ele>264.0</ele><time>2026-04-06T15:13:20.999Z</time></trkpt><trkpt lat="43.32447373526943" lon="11.392557556030104"><ele>264.25</ele><time>2026-04-06T15:13:21.999Z</time></trkpt><trkpt lat="43.32435922203409" lon="11.39247896892811"><ele>264.5</ele><time>2026-04-06T15:13:22.999Z</time></trkpt><trkpt lat="43.324215312243034" lon="11.392410008941303"><ele>264.75</ele><time>2026-04-06T15:13:23.999Z</time></trkpt><trkpt lat="43.324056346325435" lon="11.39236733587012"><ele>265.0</ele><time>2026-04-06T15:13:24.999Z</time></trkpt><trkpt lat="43.3238981976629" lon="11.392319110057272"><ele>264.66666666666663</ele><time>2026-04-06T15:13:25.999Z</time></trkpt><trkpt lat="43.32373552405697" lon="11.392275316036248"><ele>264.3333333333333</ele><time>2026-04-06T15:13:26.999Z</time></trkpt><trkpt lat="43.323569321483255" lon="11.392232268761724"><ele>264.0</ele><time>2026-04-06T15:13:27.999Z</time></trkpt><trkpt lat="43.32341422810769" lon="11.392176090663336"><ele>261.6666666666667</ele><time>2026-04-06T15:13:28.999Z</time></trkpt><trkpt lat="43.323254209436946" lon="11.392141072720568"><ele>259.33333333333337</ele><time>2026-04-06T15:13:29.999Z</time></trkpt><trkpt lat="43.323097373029114" lon="11.392126255093293"><ele>257.0</ele><time>2026-04-06T15:13:30.999Z</time></trkpt><trkpt lat="43.32292951824273" lon="11.392082474274465"><ele>257.0</ele><time>2026-04-06T15:13:31.999Z</time></trkpt><trkpt lat="43.32276684844045" lon="11.39201313503309"><ele>257.0</ele><time>2026-04-06T15:13:32.999Z</time></trkpt><trkpt lat="43.32259966604318" lon="11.391963131933325"><ele>257.0</ele><time>2026-04-06T15:13:33.999Z</time></trkpt><trkpt lat="43.32243055662174" lon="11.39191325755157"><ele>257.0</ele><time>2026-04-06T15:13:34.999Z</time></trkpt><trkpt lat="43.322263337909924" lon="11.391892557441011"><ele>257.0</ele><time>2026-04-06T15:13:35.999Z</time></trkpt><trkpt lat="43.322108928552346" lon="11.391851299036235"><ele>257.0</ele><time>2026-04-06T15:13:36.999Z</time></trkpt><trkpt lat="43.321953481152036" lon="11.391806983502343"><ele>255.66666666666669</ele><time>2026-04-06T15:13:37.999Z</time></trkpt><trkpt lat="43.32179562059984" lon="11.391758813341072"><ele>254.33333333333331</ele><time>2026-04-06T15:13:38.999Z</time></trkpt><trkpt lat="43.3216360170157" lon="11.391705267960536"><ele>253.0</ele><time>2026-04-06T15:13:39.999Z</time></trkpt><trkpt lat="43.32149411358327" lon="11.391613444688808"><ele>251.66666666666666</ele><time>2026-04-06T15:13:40.999Z</time></trkpt><trkpt lat="43.32133496675992" lon="11.391504884547587"><ele>250.33333333333331</ele><time>2026-04-06T15:13:41.999Z</time></trkpt><trkpt lat="43.32118253114325" lon="11.391393189891204"><ele>249.0</ele><time>2026-04-06T15:13:42.999Z</time></trkpt><trkpt lat="43.321035809615026" lon="11.391290044939007"><ele>248.33333333333331</ele><time>2026-04-06T15:13:43.999Z</time></trkpt><trkpt lat="43.320889319384335" lon="11.39119032219069"><ele>247.66666666666666</ele><time>2026-04-06T15:13:44.999Z</time></trkpt><trkpt lat="43.32074220038657" lon="11.391090171384127"><ele>247.0</ele><time>2026-04-06T15:13:45.999Z</time></trkpt><trkpt lat="43.32058814156589" lon="11.391022797494088"><ele>247.39999999999998</ele><time>2026-04-06T15:13:46.999Z</time></trkpt><trkpt lat="43.32046051732529" lon="11.390966481621474"><ele>247.79999999999998</ele><time>2026-04-06T15:13:47.999Z</time></trkpt><trkpt lat="43.320348390212864" lon="11.390937787491682"><ele>248.2</ele><time>2026-04-06T15:13:48.999Z</time></trkpt><trkpt lat="43.32025481008034" lon="11.390924995814489"><ele>248.6</ele><time>2026-04-06T15:13:49.999Z</time></trkpt><trkpt lat="43.32017127375923" lon="11.390896535838822"><ele>249.0</ele><time>2026-04-06T15:13:50.999Z</time></trkpt><trkpt lat="43.32011158176155" lon="11.390832333051147"><ele>249.0</ele><time>2026-04-06T15:13:51.999Z</time></trkpt><trkpt lat="43.32009032046575" lon="11.39070737497988"><ele>249.0</ele><time>2026-04-06T15:13:52.999Z</time></trkpt><trkpt lat="43.32007982790019" lon="11.39056788804276"><ele>249.0</ele><time>2026-04-06T15:13:53.999Z</time></trkpt><trkpt lat="43.32003709926438" lon="11.390394788075815"><ele>249.0</ele><time>2026-04-06T15:13:54.999Z</time></trkpt><trkpt lat="43.32001554420807" lon="11.390199473869083"><ele>248.5</ele><time>2026-04-06T15:13:55.999Z</time></trkpt><trkpt lat="43.31997901788436" lon="11.390013943506185"><ele>248.0</ele><time>2026-04-06T15:13:57Z</time></trkpt><trkpt lat="43.31993960079961" lon="11.389834258388763"><ele>247.5</ele><time>2026-04-06T15:13:58Z</time></trkpt><trkpt lat="43.31989134080205" lon="11.389650427403344"><ele>247.0</ele><time>2026-04-06T15:13:59Z</time></trkpt><trkpt lat="43.31983256809819" lon="11.389461283200633"><ele>245.66666666666666</ele><time>2026-04-06T15:14:00Z</time></trkpt><trkpt lat="43.319777907031" lon="11.389266947279157"><ele>244.33333333333331</ele><time>2026-04-06T15:14:01Z</time></trkpt><trkpt lat="43.31974041918373" lon="11.389063467767597"><ele>243.0</ele><time>2026-04-06T15:14:02Z</time></trkpt><trkpt lat="43.319694242074384" lon="11.388853007594037"><ele>239.5</ele><time>2026-04-06T15:14:03Z</time></trkpt><trkpt lat="43.31963887144278" lon="11.388653988268274"><ele>236.0</ele><time>2026-04-06T15:14:04Z</time></trkpt><trkpt lat="43.3196006203074" lon="11.388467106632707"><ele>232.5</ele><time>2026-04-06T15:14:05Z</time></trkpt><trkpt lat="43.319562680348035" lon="11.388283561810221"><ele>229.0</ele><time>2026-04-06T15:14:06Z</time></trkpt><trkpt lat="43.319528072298155" lon="11.388102548920937"><ele>229.0</ele><time>2026-04-06T15:14:07Z</time></trkpt><trkpt lat="43.31950041946379" lon="11.38793462832794"><ele>229.0</ele><time>2026-04-06T15:14:08Z</time></trkpt><trkpt lat="43.31947514051188" lon="11.387770737721272"><ele>229.0</ele><time>2026-04-06T15:14:09Z</time></trkpt><trkpt lat="43.319443813067785" lon="11.38763154959997"><ele>229.0</ele><time>2026-04-06T15:14:10Z</time></trkpt><trkpt lat="43.31940249683598" lon="11.387502301247016"><ele>229.0</ele><time>2026-04-06T15:14:11Z</time></trkpt><trkpt lat="43.31930424417311" lon="11.38742309965234"><ele>228.99999999999997</ele><time>2026-04-06T15:14:12Z</time></trkpt><trkpt lat="43.319203327648026" lon="11.387369955510794"><ele>228.99999999999997</ele><time>2026-04-06T15:14:13Z</time></trkpt><trkpt lat="43.31910639424332" lon="11.387328390507975"><ele>229.0</ele><time>2026-04-06T15:14:14Z</time></trkpt><trkpt lat="43.31904258715816" lon="11.387257924512976"><ele>229.0</ele><time>2026-04-06T15:14:15Z</time></trkpt><trkpt lat="43.319012129228476" lon="11.387149237812862"><ele>228.6</ele><time>2026-04-06T15:14:16Z</time></trkpt><trkpt lat="43.31903291151597" lon="11.387008885540723"><ele>228.2</ele><time>2026-04-06T15:14:17Z</time></trkpt><trkpt lat="43.319063406270914" lon="11.386861681180434"><ele>227.79999999999998</ele><time>2026-04-06T15:14:18Z</time></trkpt><trkpt lat="43.31909154764594" lon="11.386715920289854"><ele>227.39999999999998</ele><time>2026-04-06T15:14:19Z</time></trkpt><trkpt lat="43.319147396063585" lon="11.386606032600422"><ele>227.0</ele><time>2026-04-06T15:14:20Z</time></trkpt><trkpt lat="43.3192132524389" lon="11.386521462770695"><ele>227.0</ele><time>2026-04-06T15:14:21Z</time></trkpt><trkpt lat="43.31929682328684" lon="11.386450458760446"><ele>227.0</ele><time>2026-04-06T15:14:22Z</time></trkpt><trkpt lat="43.31940065474912" lon="11.386383998445702"><ele>227.0</ele><time>2026-04-06T15:14:23Z</time></trkpt><trkpt lat="43.31951080268184" lon="11.386320243478897"><ele>227.0</ele><time>2026-04-06T15:14:24Z</time></trkpt><trkpt lat="43.31961379768483" lon="11.38625923170629"><ele>227.0</ele><time>2026-04-06T15:14:25Z</time></trkpt><trkpt lat="43.319720073147934" lon="11.38619819127337"><ele>226.0</ele><time>2026-04-06T15:14:26Z</time></trkpt><trkpt lat="43.31982291327747" lon="11.386142189778425"><ele>225.0</ele><time>2026-04-06T15:14:27Z</time></trkpt><trkpt lat="43.319920964040946" lon="11.386084920169042"><ele>224.0</ele><time>2026-04-06T15:14:28Z</time></trkpt><trkpt lat="43.32000145175396" lon="11.3860065492314"><ele>223.0</ele><time>2026-04-06T15:14:29Z</time></trkpt><trkpt lat="43.32006143357324" lon="11.385886400539304"><ele>222.0</ele><time>2026-04-06T15:14:30Z</time></trkpt><trkpt lat="43.32009995418866" lon="11.385750816027343"><ele>222.0</ele><time>2026-04-06T15:14:31Z</time></trkpt><trkpt lat="43.32011026996666" lon="11.385597369538015"><ele>222.0</ele><time>2026-04-06T15:14:32Z</time></trkpt><trkpt lat="43.32012025044616" lon="11.385422370969739"><ele>222.0</ele><time>2026-04-06T15:14:33Z</time></trkpt><trkpt lat="43.320114865341935" lon="11.385246087744617"><ele>222.0</ele><time>2026-04-06T15:14:34Z</time></trkpt><trkpt lat="43.32012961954651" lon="11.385085714786172"><ele>220.75</ele><time>2026-04-06T15:14:35Z</time></trkpt><trkpt lat="43.320175852778945" lon="11.384949146391337"><ele>219.5</ele><time>2026-04-06T15:14:36Z</time></trkpt><trkpt lat="43.32023328640957" lon="11.38480540352097"><ele>218.25</ele><time>2026-04-06T15:14:37Z</time></trkpt><trkpt lat="43.32033661239926" lon="11.3846836474147"><ele>217.0</ele><time>2026-04-06T15:14:37.999Z</time></trkpt><trkpt lat="43.32045117403064" lon="11.384546976001648"><ele>216.0</ele><time>2026-04-06T15:14:38.999Z</time></trkpt><trkpt lat="43.320559267361574" lon="11.38442145592025"><ele>215.0</ele><time>2026-04-06T15:14:39.999Z</time></trkpt><trkpt lat="43.32065578867871" lon="11.384305143111972"><ele>214.0</ele><time>2026-04-06T15:14:40.999Z</time></trkpt><trkpt lat="43.320727635908796" lon="11.384190098399678"><ele>213.0</ele><time>2026-04-06T15:14:41.999Z</time></trkpt><trkpt lat="43.32076612126882" lon="11.384071755916722"><ele>212.4</ele><time>2026-04-06T15:14:42.999Z</time></trkpt><trkpt lat="43.32076169133052" lon="11.383947252724392"><ele>211.8</ele><time>2026-04-06T15:14:43.999Z</time></trkpt><trkpt lat="43.320773462965526" lon="11.383812183218959"><ele>211.2</ele><time>2026-04-06T15:14:44.999Z</time></trkpt><trkpt lat="43.32072724808527" lon="11.38366613611294"><ele>210.6</ele><time>2026-04-06T15:14:45.999Z</time></trkpt><trkpt lat="43.32068380687836" lon="11.383511232926372"><ele>210.0</ele><time>2026-04-06T15:14:46.999Z</time></trkpt><trkpt lat="43.32065425047373" lon="11.383342691987098"><ele>208.0</ele><time>2026-04-06T15:14:47.999Z</time></trkpt><trkpt lat="43.320620928592874" lon="11.383183242786922"><ele>206.0</ele><time>2026-04-06T15:14:48.999Z</time></trkpt><trkpt lat="43.320602722173064" lon="11.383013817107264"><ele>204.0</ele><time>2026-04-06T15:14:49.999Z</time></trkpt><trkpt lat="43.320572672126126" lon="11.382833176662151"><ele>202.0</ele><time>2026-04-06T15:14:50.999Z</time></trkpt><trkpt lat="43.32056677296587" lon="11.382634948876422"><ele>201.0</ele><time>2026-04-06T15:14:51.999Z</time></trkpt><trkpt lat="43.320540443548005" lon="11.382436330281744"><ele>200.0</ele><time>2026-04-06T15:14:52.999Z</time></trkpt><trkpt lat="43.320509958556634" lon="11.382230061090649"><ele>199.0</ele><time>2026-04-06T15:14:53.999Z</time></trkpt><trkpt lat="43.3204783454549" lon="11.382025125074174"><ele>198.66666666666666</ele><time>2026-04-06T15:14:54.999Z</time></trkpt><trkpt lat="43.32044298368049" lon="11.381808738138712"><ele>198.33333333333331</ele><time>2026-04-06T15:14:55.999Z</time></trkpt><trkpt lat="43.32040523888975" lon="11.381586443221082"><ele>198.0</ele><time>2026-04-06T15:14:56.999Z</time></trkpt><trkpt lat="43.32037210186124" lon="11.381384686754215"><ele>197.8</ele><time>2026-04-06T15:14:57.999Z</time></trkpt><trkpt lat="43.320344549360826" lon="11.381207579002494"><ele>197.60000000000002</ele><time>2026-04-06T15:14:58.999Z</time></trkpt><trkpt lat="43.32032317741918" lon="11.381048051583218"><ele>197.39999999999998</ele><time>2026-04-06T15:14:59.999Z</time></trkpt><trkpt lat="43.320314256237026" lon="11.380906090563455"><ele>197.2</ele><time>2026-04-06T15:15:00.999Z</time></trkpt><trkpt lat="43.32030416099313" lon="11.380784690984214"><ele>197.0</ele><time>2026-04-06T15:15:01.999Z</time></trkpt><trkpt lat="43.320318812881204" lon="11.380683839768816"><ele>197.0</ele><time>2026-04-06T15:15:02.999Z</time></trkpt><trkpt lat="43.3203433933429" lon="11.380530901680613"><ele>197.0</ele><time>2026-04-06T15:15:04.999Z</time></trkpt><trkpt lat="43.320363653438875" lon="11.380390453264143"><ele>197.0</ele><time>2026-04-06T15:15:06.999Z</time></trkpt><trkpt lat="43.32037803629891" lon="11.380276775119446"><ele>197.0</ele><time>2026-04-06T15:15:08.999Z</time></trkpt><trkpt lat="43.32039776475545" lon="11.38015429272337"><ele>197.0</ele><time>2026-04-06T15:15:10.999Z</time></trkpt><trkpt lat="43.32043050757675" lon="11.379998683069564"><ele>197.00000000000003</ele><time>2026-04-06T15:15:12.999Z</time></trkpt><trkpt lat="43.32044908537309" lon="11.37985905983215"><ele>197.0</ele><time>2026-04-06T15:15:14.999Z</time></trkpt><trkpt lat="43.32046435720163" lon="11.379738500752428"><ele>197.0</ele><time>2026-04-06T15:15:16.999Z</time></trkpt><trkpt lat="43.320478567507415" lon="11.379625568178197"><ele>197.0</ele><time>2026-04-06T15:15:18.999Z</time></trkpt><trkpt lat="43.32049149142173" lon="11.379523899057212"><ele>197.00000000000003</ele><time>2026-04-06T15:15:20.999Z</time></trkpt><trkpt lat="43.32048836642855" lon="11.379421852546027"><ele>197.0</ele><time>2026-04-06T15:15:22.999Z</time></trkpt><trkpt lat="43.32051608530437" lon="11.379332389221215"><ele>197.33333333333334</ele><time>2026-04-06T15:15:24.999Z</time></trkpt><trkpt lat="43.32051999925055" lon="11.379218524962267"><ele>197.66666666666669</ele><time>2026-04-06T15:15:27.999Z</time></trkpt><trkpt lat="43.32053235889611" lon="11.379127679838957"><ele>198.0</ele><time>2026-04-06T15:15:30.999Z</time></trkpt><trkpt lat="43.32055400243494" lon="11.37902705303493"><ele>198.33333333333331</ele><time>2026-04-06T15:15:34.999Z</time></trkpt><trkpt lat="43.32057159866658" lon="11.378903099924097"><ele>198.66666666666666</ele><time>2026-04-06T15:18:21Z</time></trkpt><trkpt lat="43.32058828390306" lon="11.378750949345513"><ele>199.0</ele><time>2026-04-06T15:18:23Z</time></trkpt><trkpt lat="43.320596169181094" lon="11.378598307232476"><ele>199.33333333333331</ele><time>2026-04-06T15:18:25Z</time></trkpt><trkpt lat="43.320596451300695" lon="11.378492748948256"><ele>199.66666666666666</ele><time>2026-04-06T15:18:26Z</time></trkpt><trkpt lat="43.32058013615768" lon="11.378381429315402"><ele>200.0</ele><time>2026-04-06T15:18:27Z</time></trkpt><trkpt lat="43.32057294944463" lon="11.378259576889898"><ele>200.33333333333331</ele><time>2026-04-06T15:18:28Z</time></trkpt><trkpt lat="43.32057706380389" lon="11.378141030629086"><ele>200.66666666666666</ele><time>2026-04-06T15:18:29Z</time></trkpt><trkpt lat="43.320566073706544" lon="11.37804174627821"><ele>201.0</ele><time>2026-04-06T15:18:30Z</time></trkpt><trkpt lat="43.320554988420945" lon="11.377942624185849"><ele>203.60000000000002</ele><time>2026-04-06T15:18:31Z</time></trkpt><trkpt lat="43.32054173554323" lon="11.377824120088478"><ele>206.2</ele><time>2026-04-06T15:18:32Z</time></trkpt><trkpt lat="43.320528443164626" lon="11.37770526271291"><ele>208.79999999999998</ele><time>2026-04-06T15:18:33Z</time></trkpt><trkpt lat="43.32051377791892" lon="11.377581912250132"><ele>211.39999999999998</ele><time>2026-04-06T15:18:34Z</time></trkpt><trkpt lat="43.320493634728365" lon="11.377434301262769"><ele>214.0</ele><time>2026-04-06T15:18:35Z</time></trkpt><trkpt lat="43.320470597207176" lon="11.377281298209974"><ele>216.0</ele><time>2026-04-06T15:18:36Z</time></trkpt><trkpt lat="43.32044964145649" lon="11.377123155178412"><ele>217.99999999999997</ele><time>2026-04-06T15:18:37Z</time></trkpt><trkpt lat="43.32043875013052" lon="11.376975428336053"><ele>219.99999999999997</ele><time>2026-04-06T15:18:38Z</time></trkpt><trkpt lat="43.32043355129684" lon="11.376828572752729"><ele>222.0</ele><time>2026-04-06T15:18:39Z</time></trkpt><trkpt lat="43.3204225046254" lon="11.376669519695948"><ele>224.0</ele><time>2026-04-06T15:18:40Z</time></trkpt><trkpt lat="43.32043592750275" lon="11.376500675438079"><ele>223.25</ele><time>2026-04-06T15:18:41Z</time></trkpt><trkpt lat="43.3204508663061" lon="11.376327157271351"><ele>222.5</ele><time>2026-04-06T15:18:42Z</time></trkpt><trkpt lat="43.3204649036133" lon="11.376174457004469"><ele>221.75</ele><time>2026-04-06T15:18:43Z</time></trkpt><trkpt lat="43.32047983070557" lon="11.376023361421996"><ele>221.0</ele><time>2026-04-06T15:18:43.999Z</time></trkpt><trkpt lat="43.32048918289901" lon="11.375869108171443"><ele>221.0</ele><time>2026-04-06T15:18:44.999Z</time></trkpt><trkpt lat="43.320490453800915" lon="11.375720850965507"><ele>221.00000000000003</ele><time>2026-04-06T15:18:45.999Z</time></trkpt><trkpt lat="43.320473773976666" lon="11.375585609408121"><ele>221.00000000000003</ele><time>2026-04-06T15:18:46.999Z</time></trkpt><trkpt lat="43.32045897356677" lon="11.375450124292376"><ele>221.0</ele><time>2026-04-06T15:18:47.999Z</time></trkpt><trkpt lat="43.32036050913754" lon="11.375350007054008"><ele>221.0</ele><time>2026-04-06T15:18:48.999Z</time></trkpt><trkpt lat="43.320290318307016" lon="11.375236766546108"><ele>221.0</ele><time>2026-04-06T15:18:49.999Z</time></trkpt><trkpt lat="43.320229151904016" lon="11.375124902199172"><ele>221.00000000000003</ele><time>2026-04-06T15:18:50.999Z</time></trkpt><trkpt lat="43.32020069968851" lon="11.375013927233761"><ele>221.00000000000003</ele><time>2026-04-06T15:18:51.999Z</time></trkpt><trkpt lat="43.3201996911663" lon="11.374886593632393"><ele>221.0</ele><time>2026-04-06T15:18:52.999Z</time></trkpt><trkpt lat="43.320255964416546" lon="11.374758373666449"><ele>221.0</ele><time>2026-04-06T15:18:53.999Z</time></trkpt><trkpt lat="43.32029058832842" lon="11.374604667810544"><ele>221.0</ele><time>2026-04-06T15:18:54.999Z</time></trkpt><trkpt lat="43.3203317368781" lon="11.374437561512748"><ele>221.0</ele><time>2026-04-06T15:18:55.999Z</time></trkpt><trkpt lat="43.32036390927871" lon="11.374253798943183"><ele>221.0</ele><time>2026-04-06T15:18:56.999Z</time></trkpt><trkpt lat="43.32041654128642" lon="11.374069326005566"><ele>221.0</ele><time>2026-04-06T15:18:57.999Z</time></trkpt><trkpt lat="43.32047259739266" lon="11.373880234446302"><ele>222.5</ele><time>2026-04-06T15:18:58.999Z</time></trkpt><trkpt lat="43.320538004474855" lon="11.373698619138167"><ele>224.0</ele><time>2026-04-06T15:18:59.999Z</time></trkpt><trkpt lat="43.320615775202924" lon="11.373526675654555"><ele>225.5</ele><time>2026-04-06T15:19:00.999Z</time></trkpt><trkpt lat="43.320691536572724" lon="11.373369538018967"><ele>227.0</ele><time>2026-04-06T15:19:01.999Z</time></trkpt><trkpt lat="43.320764806659554" lon="11.373211878415926"><ele>227.5</ele><time>2026-04-06T15:19:02.999Z</time></trkpt><trkpt lat="43.32084040820525" lon="11.373057905188356"><ele>228.0</ele><time>2026-04-06T15:19:03.999Z</time></trkpt><trkpt lat="43.320915384395654" lon="11.372912255965742"><ele>228.5</ele><time>2026-04-06T15:19:04.999Z</time></trkpt><trkpt lat="43.32098038099647" lon="11.372764351072682"><ele>229.0</ele><time>2026-04-06T15:19:05.999Z</time></trkpt><trkpt lat="43.321022829918164" lon="11.372604500913818"><ele>231.25</ele><time>2026-04-06T15:19:06.999Z</time></trkpt><trkpt lat="43.32104687433079" lon="11.372430935885241"><ele>233.5</ele><time>2026-04-06T15:19:07.999Z</time></trkpt><trkpt lat="43.32107211370726" lon="11.372250877597184"><ele>235.75</ele><time>2026-04-06T15:19:08.999Z</time></trkpt><trkpt lat="43.32109771207568" lon="11.37208206875576"><ele>238.0</ele><time>2026-04-06T15:19:09.999Z</time></trkpt><trkpt lat="43.32112847425521" lon="11.371907302180068"><ele>240.25</ele><time>2026-04-06T15:19:10.999Z</time></trkpt><trkpt lat="43.321164787134876" lon="11.371729759210686"><ele>242.5</ele><time>2026-04-06T15:19:11.999Z</time></trkpt><trkpt lat="43.321168101385865" lon="11.371541108165816"><ele>244.75</ele><time>2026-04-06T15:19:12.999Z</time></trkpt><trkpt lat="43.32119289758375" lon="11.371350375556151"><ele>247.0</ele><time>2026-04-06T15:19:13.999Z</time></trkpt><trkpt lat="43.32121562868571" lon="11.371153032472215"><ele>248.25</ele><time>2026-04-06T15:19:14.999Z</time></trkpt><trkpt lat="43.32127008532985" lon="11.370970301639991"><ele>249.5</ele><time>2026-04-06T15:19:15.999Z</time></trkpt><trkpt lat="43.32131009038139" lon="11.370787949435561"><ele>250.75</ele><time>2026-04-06T15:19:16.999Z</time></trkpt><trkpt lat="43.32139310941399" lon="11.370624310699219"><ele>252.0</ele><time>2026-04-06T15:19:17.999Z</time></trkpt><trkpt lat="43.32147951273584" lon="11.370449924542097"><ele>252.0</ele><time>2026-04-06T15:19:18.999Z</time></trkpt><trkpt lat="43.3215560600509" lon="11.370259194293666"><ele>252.0</ele><time>2026-04-06T15:19:19.999Z</time></trkpt><trkpt lat="43.3216470040265" lon="11.370081405210698"><ele>252.0</ele><time>2026-04-06T15:19:20.999Z</time></trkpt><trkpt lat="43.32173907510829" lon="11.369897989250417"><ele>252.0</ele><time>2026-04-06T15:19:21.999Z</time></trkpt><trkpt lat="43.32182385209569" lon="11.369728512775932"><ele>252.0</ele><time>2026-04-06T15:19:22.999Z</time></trkpt><trkpt lat="43.321900567165834" lon="11.369570146255901"><ele>252.0</ele><time>2026-04-06T15:19:23.999Z</time></trkpt><trkpt lat="43.32196581497297" lon="11.369437645882055"><ele>252.0</ele><time>2026-04-06T15:19:24.999Z</time></trkpt><trkpt lat="43.32202381381463" lon="11.369345212546081"><ele>253.8</ele><time>2026-04-06T15:19:25.999Z</time></trkpt><trkpt lat="43.322024352655724" lon="11.369252342325593"><ele>255.6</ele><time>2026-04-06T15:19:26.999Z</time></trkpt><trkpt lat="43.3219779704052" lon="11.369118618894067"><ele>257.40000000000003</ele><time>2026-04-06T15:19:28.999Z</time></trkpt><trkpt lat="43.321892117596235" lon="11.36912251251478"><ele>259.2</ele><time>2026-04-06T15:19:29.999Z</time></trkpt><trkpt lat="43.321812891827754" lon="11.36916672248039"><ele>261.0</ele><time>2026-04-06T15:19:30.999Z</time></trkpt><trkpt lat="43.32173000721672" lon="11.369265084638162"><ele>261.0</ele><time>2026-04-06T15:19:31.999Z</time></trkpt><trkpt lat="43.32164262945134" lon="11.369369086355329"><ele>261.0</ele><time>2026-04-06T15:19:32.999Z</time></trkpt><trkpt lat="43.32155664882726" lon="11.36942322883003"><ele>261.0</ele><time>2026-04-06T15:19:33.999Z</time></trkpt><trkpt lat="43.32146724651028" lon="11.369421477246132"><ele>261.0</ele><time>2026-04-06T15:19:34.999Z</time></trkpt><trkpt lat="43.32138397167711" lon="11.369382525520543"><ele>261.0</ele><time>2026-04-06T15:19:35.999Z</time></trkpt><trkpt lat="43.32131543805054" lon="11.369313648433952"><ele>261.40000000000003</ele><time>2026-04-06T15:19:36.999Z</time></trkpt><trkpt lat="43.32124049362223" lon="11.369222048439305"><ele>261.8</ele><time>2026-04-06T15:19:37.999Z</time></trkpt><trkpt lat="43.321156139716265" lon="11.369123143154185"><ele>262.20000000000005</ele><time>2026-04-06T15:19:38.999Z</time></trkpt><trkpt lat="43.32106685685238" lon="11.369030282776267"><ele>262.6</ele><time>2026-04-06T15:19:39.999Z</time></trkpt><trkpt lat="43.320993924925304" lon="11.368950650149817"><ele>263.0</ele><time>2026-04-06T15:19:40.999Z</time></trkpt><trkpt lat="43.320948122736155" lon="11.368880661752451"><ele>263.0</ele><time>2026-04-06T15:19:41.999Z</time></trkpt><trkpt lat="43.32093202540948" lon="11.368719968496798"><ele>263.0</ele><time>2026-04-06T15:19:43.999Z</time></trkpt><trkpt lat="43.320961247018865" lon="11.368611376567543"><ele>263.0</ele><time>2026-04-06T15:19:44.999Z</time></trkpt><trkpt lat="43.32099673367007" lon="11.36849045155358"><ele>263.0</ele><time>2026-04-06T15:19:45.999Z</time></trkpt><trkpt lat="43.32103112844942" lon="11.368356061454302"><ele>263.0</ele><time>2026-04-06T15:19:46.999Z</time></trkpt><trkpt lat="43.32106218398318" lon="11.368213319946982"><ele>263.0</ele><time>2026-04-06T15:19:47.999Z</time></trkpt><trkpt lat="43.32107819276836" lon="11.368070252492787"><ele>263.0</ele><time>2026-04-06T15:19:48.999Z</time></trkpt><trkpt lat="43.32108195933732" lon="11.367928976732804"><ele>263.0</ele><time>2026-04-06T15:19:49.999Z</time></trkpt><trkpt lat="43.32108399238091" lon="11.367790771448636"><ele>263.0</ele><time>2026-04-06T15:19:50.999Z</time></trkpt><trkpt lat="43.32108697080098" lon="11.367652455989052"><ele>263.0</ele><time>2026-04-06T15:19:51.999Z</time></trkpt><trkpt lat="43.321092165616434" lon="11.367506949122888"><ele>263.8</ele><time>2026-04-06T15:19:52.999Z</time></trkpt><trkpt lat="43.321097467262916" lon="11.367359934417701"><ele>264.6</ele><time>2026-04-06T15:19:53.999Z</time></trkpt><trkpt lat="43.32110397595961" lon="11.367218459411271"><ele>265.4</ele><time>2026-04-06T15:19:54.999Z</time></trkpt><trkpt lat="43.32111085135182" lon="11.367081825422837"><ele>266.2</ele><time>2026-04-06T15:19:55.999Z</time></trkpt><trkpt lat="43.32110699206541" lon="11.366950237838168"><ele>267.0</ele><time>2026-04-06T15:19:56.999Z</time></trkpt><trkpt lat="43.32110203851281" lon="11.366819315977875"><ele>267.6666666666667</ele><time>2026-04-06T15:19:57.999Z</time></trkpt><trkpt lat="43.321093449550474" lon="11.366691421259869"><ele>268.3333333333333</ele><time>2026-04-06T15:19:58.999Z</time></trkpt><trkpt lat="43.32108293226677" lon="11.366559721205668"><ele>269.0</ele><time>2026-04-06T15:19:59.999Z</time></trkpt><trkpt lat="43.32107245704809" lon="11.366440667410583"><ele>269.66666666666663</ele><time>2026-04-06T15:20:00.999Z</time></trkpt><trkpt lat="43.3210513495483" lon="11.366333706119116"><ele>270.3333333333333</ele><time>2026-04-06T15:20:01.999Z</time></trkpt><trkpt lat="43.32103684392892" lon="11.36624325438339"><ele>271.0</ele><time>2026-04-06T15:20:02.999Z</time></trkpt><trkpt lat="43.32101651965999" lon="11.366086596900747"><ele>271.0</ele><time>2026-04-06T15:20:04.999Z</time></trkpt><trkpt lat="43.32100342501122" lon="11.365995280806473"><ele>271.0</ele><time>2026-04-06T15:20:05.999Z</time></trkpt><trkpt lat="43.320984597872794" lon="11.365902727507173"><ele>271.0</ele><time>2026-04-06T15:20:06.999Z</time></trkpt><trkpt lat="43.32096111150174" lon="11.365797744014902"><ele>271.0</ele><time>2026-04-06T15:20:07.999Z</time></trkpt><trkpt lat="43.32093513053488" lon="11.365688039495629"><ele>271.0</ele><time>2026-04-06T15:20:08.999Z</time></trkpt><trkpt lat="43.32089883793275" lon="11.36557134399911"><ele>271.0</ele><time>2026-04-06T15:20:09.999Z</time></trkpt><trkpt lat="43.320861032745995" lon="11.365466481354582"><ele>271.1428571428571</ele><time>2026-04-06T15:20:10.999Z</time></trkpt><trkpt lat="43.320825939937194" lon="11.365375513895831"><ele>271.2857142857143</ele><time>2026-04-06T15:20:11.999Z</time></trkpt><trkpt lat="43.32079628869367" lon="11.365296058484734"><ele>271.42857142857144</ele><time>2026-04-06T15:20:12.999Z</time></trkpt><trkpt lat="43.320766235185694" lon="11.365211114079887"><ele>271.57142857142856</ele><time>2026-04-06T15:20:13.999Z</time></trkpt><trkpt lat="43.32072937500607" lon="11.365116243890855"><ele>271.7142857142857</ele><time>2026-04-06T15:20:15Z</time></trkpt><trkpt lat="43.32068818450462" lon="11.365019079950743"><ele>271.85714285714283</ele><time>2026-04-06T15:20:16Z</time></trkpt><trkpt lat="43.320651053715665" lon="11.36493322797847"><ele>272.0</ele><time>2026-04-06T15:20:17Z</time></trkpt><trkpt lat="43.320609922630794" lon="11.364842588985546"><ele>272.4</ele><time>2026-04-06T15:20:18Z</time></trkpt><trkpt lat="43.320559908162174" lon="11.364748838939525"><ele>272.79999999999995</ele><time>2026-04-06T15:20:19Z</time></trkpt><trkpt lat="43.32050741622154" lon="11.364652525508955"><ele>273.2</ele><time>2026-04-06T15:20:20Z</time></trkpt><trkpt lat="43.320453731978425" lon="11.364557050226628"><ele>273.59999999999997</ele><time>2026-04-06T15:20:21Z</time></trkpt><trkpt lat="43.32040842850731" lon="11.364481138067"><ele>274.0</ele><time>2026-04-06T15:20:22Z</time></trkpt><trkpt lat="43.32032713378868" lon="11.364334693019348"><ele>274.0</ele><time>2026-04-06T15:20:24Z</time></trkpt><trkpt lat="43.32028133485901" lon="11.364254023210904"><ele>274.0</ele><time>2026-04-06T15:20:25Z</time></trkpt><trkpt lat="43.32021339850081" lon="11.36412392874791"><ele>274.0</ele><time>2026-04-06T15:20:27Z</time></trkpt><trkpt lat="43.32014243223452" lon="11.364004813812482"><ele>274.0</ele><time>2026-04-06T15:20:29Z</time></trkpt><trkpt lat="43.3200651917069" lon="11.36390872525538"><ele>274.0</ele><time>2026-04-06T15:20:31Z</time></trkpt><trkpt lat="43.31999847508035" lon="11.363788977492563"><ele>274.59999999999997</ele><time>2026-04-06T15:20:33Z</time></trkpt><trkpt lat="43.319920264865324" lon="11.363678368131147"><ele>275.2</ele><time>2026-04-06T15:20:35Z</time></trkpt><trkpt lat="43.31987551015477" lon="11.363610832358265"><ele>275.79999999999995</ele><time>2026-04-06T15:20:36Z</time></trkpt><trkpt lat="43.31978507091126" lon="11.363488446504274"><ele>276.4</ele><time>2026-04-06T15:20:38Z</time></trkpt><trkpt lat="43.31971179682583" lon="11.363381696680191"><ele>277.0</ele><time>2026-04-06T15:20:40Z</time></trkpt><trkpt lat="43.31965112213807" lon="11.36330850503578"><ele>277.0</ele><time>2026-04-06T15:20:42Z</time></trkpt><trkpt lat="43.31957053551423" lon="11.363202304851344"><ele>277.0</ele><time>2026-04-06T15:20:44Z</time></trkpt><trkpt lat="43.31952910539945" lon="11.363119853798818"><ele>277.0</ele><time>2026-04-06T15:20:46Z</time></trkpt><trkpt lat="43.31949110167641" lon="11.36303218710542"><ele>277.0</ele><time>2026-04-06T15:20:51Z</time></trkpt><trkpt lat="43.31944707937523" lon="11.362931183665406"><ele>277.0</ele><time>2026-04-06T15:20:53Z</time></trkpt><trkpt lat="43.319414520325985" lon="11.362798587609726"><ele>277.0</ele><time>2026-04-06T15:20:55Z</time></trkpt><trkpt lat="43.31939648094358" lon="11.362682490519465"><ele>275.8333333333333</ele><time>2026-04-06T15:20:57Z</time></trkpt><trkpt lat="43.319340590644394" lon="11.36256764765251"><ele>274.66666666666663</ele><time>2026-04-06T15:20:59Z</time></trkpt><trkpt lat="43.319297696066045" lon="11.36249623556411"><ele>273.5</ele><time>2026-04-06T15:21:00Z</time></trkpt><trkpt lat="43.31925166341611" lon="11.362423817676337"><ele>272.3333333333333</ele><time>2026-04-06T15:21:01Z</time></trkpt><trkpt lat="43.31920083174235" lon="11.362347488721126"><ele>271.1666666666667</ele><time>2026-04-06T15:21:02Z</time></trkpt><trkpt lat="43.31914494757741" lon="11.36225422675342"><ele>270.0</ele><time>2026-04-06T15:21:03Z</time></trkpt><trkpt lat="43.319087909373486" lon="11.36216031386458"><ele>269.2</ele><time>2026-04-06T15:21:04Z</time></trkpt><trkpt lat="43.319023531107" lon="11.362067044296342"><ele>268.4</ele><time>2026-04-06T15:21:05Z</time></trkpt><trkpt lat="43.31895949697182" lon="11.36197072017475"><ele>267.6</ele><time>2026-04-06T15:21:06Z</time></trkpt><trkpt lat="43.318890495657634" lon="11.361874201013709"><ele>266.8</ele><time>2026-04-06T15:21:07Z</time></trkpt><trkpt lat="43.31882494164336" lon="11.361764550379029"><ele>266.0</ele><time>2026-04-06T15:21:08Z</time></trkpt><trkpt lat="43.31876228538164" lon="11.361649719140518"><ele>266.0</ele><time>2026-04-06T15:21:09Z</time></trkpt><trkpt lat="43.31870331445068" lon="11.361536011507987"><ele>266.0</ele><time>2026-04-06T15:21:10Z</time></trkpt><trkpt lat="43.31865447682576" lon="11.361421500717253"><ele>266.0</ele><time>2026-04-06T15:21:11Z</time></trkpt><trkpt lat="43.31861938913453" lon="11.361304272152225"><ele>266.0</ele><time>2026-04-06T15:21:12Z</time></trkpt><trkpt lat="43.31858967076986" lon="11.361187442090277"><ele>266.0</ele><time>2026-04-06T15:21:13Z</time></trkpt><trkpt lat="43.318558325524755" lon="11.361079906134684"><ele>264.6666666666667</ele><time>2026-04-06T15:21:14Z</time></trkpt><trkpt lat="43.31852434616484" lon="11.360980530762578"><ele>263.33333333333337</ele><time>2026-04-06T15:21:15Z</time></trkpt><trkpt lat="43.31848543202959" lon="11.36089097408556"><ele>262.0</ele><time>2026-04-06T15:21:15.999Z</time></trkpt><trkpt lat="43.31844450837508" lon="11.360810485104608"><ele>260.6666666666667</ele><time>2026-04-06T15:21:16.999Z</time></trkpt><trkpt lat="43.31840345573578" lon="11.360728862037213"><ele>259.3333333333333</ele><time>2026-04-06T15:21:17.999Z</time></trkpt><trkpt lat="43.318367957380424" lon="11.360649939858048"><ele>258.0</ele><time>2026-04-06T15:21:18.999Z</time></trkpt><trkpt lat="43.318304796888626" lon="11.360504476775644"><ele>256.8333333333333</ele><time>2026-04-06T15:21:20.999Z</time></trkpt><trkpt lat="43.31828071355567" lon="11.360424360703725"><ele>255.66666666666669</ele><time>2026-04-06T15:21:21.999Z</time></trkpt><trkpt lat="43.3182235162689" lon="11.360294527956007"><ele>254.5</ele><time>2026-04-06T15:21:23.999Z</time></trkpt><trkpt lat="43.31818129165422" lon="11.360196496323354"><ele>253.33333333333334</ele><time>2026-04-06T15:21:25.999Z</time></trkpt><trkpt lat="43.31811989831475" lon="11.360101968289346"><ele>252.16666666666669</ele><time>2026-04-06T15:21:27.999Z</time></trkpt><trkpt lat="43.31805412150855" lon="11.359997073273712"><ele>251.0</ele><time>2026-04-06T15:21:29.999Z</time></trkpt><trkpt lat="43.317982782334575" lon="11.359877670059795"><ele>251.00000000000003</ele><time>2026-04-06T15:21:31.999Z</time></trkpt><trkpt lat="43.31794403121616" lon="11.35980279446463"><ele>251.0</ele><time>2026-04-06T15:21:32.999Z</time></trkpt><trkpt lat="43.31790089541109" lon="11.359716021652616"><ele>251.0</ele><time>2026-04-06T15:21:33.999Z</time></trkpt><trkpt lat="43.31785733804353" lon="11.359619129857176"><ele>251.0</ele><time>2026-04-06T15:21:34.999Z</time></trkpt><trkpt lat="43.31781730057661" lon="11.3595082867582"><ele>251.00000000000003</ele><time>2026-04-06T15:21:35.999Z</time></trkpt><trkpt lat="43.31778629280448" lon="11.359386251219018"><ele>251.0</ele><time>2026-04-06T15:21:36.999Z</time></trkpt><trkpt lat="43.31776801597601" lon="11.35927201251149"><ele>249.33333333333334</ele><time>2026-04-06T15:21:37.999Z</time></trkpt><trkpt lat="43.317749423269746" lon="11.359158013000323"><ele>247.66666666666669</ele><time>2026-04-06T15:21:38.999Z</time></trkpt><trkpt lat="43.31772586159009" lon="11.359038359600689"><ele>246.0</ele><time>2026-04-06T15:21:39.999Z</time></trkpt><trkpt lat="43.317704784530406" lon="11.358933210117923"><ele>244.33333333333331</ele><time>2026-04-06T15:21:40.999Z</time></trkpt><trkpt lat="43.3176780515945" lon="11.358825470948775"><ele>242.66666666666666</ele><time>2026-04-06T15:21:41.999Z</time></trkpt><trkpt lat="43.31764158498915" lon="11.358710378807004"><ele>241.0</ele><time>2026-04-06T15:21:42.999Z</time></trkpt><trkpt lat="43.31758988714199" lon="11.358604780089774"><ele>240.33333333333331</ele><time>2026-04-06T15:21:43.999Z</time></trkpt><trkpt lat="43.31753140648653" lon="11.358517255078597"><ele>239.66666666666666</ele><time>2026-04-06T15:21:44.999Z</time></trkpt><trkpt lat="43.31746644441288" lon="11.358451683435057"><ele>239.0</ele><time>2026-04-06T15:21:45.999Z</time></trkpt><trkpt lat="43.31739607246182" lon="11.35838933108727"><ele>238.33333333333331</ele><time>2026-04-06T15:21:46.999Z</time></trkpt><trkpt lat="43.31731479170128" lon="11.358343045366665"><ele>237.66666666666666</ele><time>2026-04-06T15:21:47.999Z</time></trkpt><trkpt lat="43.31722374892554" lon="11.358310481320537"><ele>237.0</ele><time>2026-04-06T15:21:48.999Z</time></trkpt><trkpt lat="43.317121051522335" lon="11.3582951419084"><ele>235.83333333333334</ele><time>2026-04-06T15:21:49.999Z</time></trkpt><trkpt lat="43.31702660998331" lon="11.358296647984382"><ele>234.66666666666669</ele><time>2026-04-06T15:21:50.999Z</time></trkpt><trkpt lat="43.31693898731766" lon="11.358301283793692"><ele>233.5</ele><time>2026-04-06T15:21:51.999Z</time></trkpt><trkpt lat="43.316858249232496" lon="11.35829106755489"><ele>232.33333333333334</ele><time>2026-04-06T15:21:52.999Z</time></trkpt><trkpt lat="43.31678470560593" lon="11.358264928477531"><ele>231.16666666666669</ele><time>2026-04-06T15:21:53.999Z</time></trkpt><trkpt lat="43.316716323693285" lon="11.358221166797179"><ele>230.0</ele><time>2026-04-06T15:21:54.999Z</time></trkpt><trkpt lat="43.31665190976112" lon="11.358160166566112"><ele>230.00000000000003</ele><time>2026-04-06T15:21:55.999Z</time></trkpt><trkpt lat="43.31658745790427" lon="11.358074479478724"><ele>230.0</ele><time>2026-04-06T15:21:56.999Z</time></trkpt><trkpt lat="43.31652894318042" lon="11.357972951548138"><ele>230.0</ele><time>2026-04-06T15:21:57.999Z</time></trkpt><trkpt lat="43.31647171759921" lon="11.357869337879347"><ele>230.0</ele><time>2026-04-06T15:21:58.999Z</time></trkpt><trkpt lat="43.3164171272423" lon="11.357773785074897"><ele>230.00000000000003</ele><time>2026-04-06T15:21:59.999Z</time></trkpt><trkpt lat="43.31636886337422" lon="11.357693381738773"><ele>230.0</ele><time>2026-04-06T15:22:00.999Z</time></trkpt><trkpt lat="43.31631594006797" lon="11.357616905157396"><ele>229.50000000000003</ele><time>2026-04-06T15:22:01.999Z</time></trkpt><trkpt lat="43.31626782676933" lon="11.357543831803056"><ele>229.0</ele><time>2026-04-06T15:22:02.999Z</time></trkpt><trkpt lat="43.316215748238825" lon="11.357465105983826"><ele>228.5</ele><time>2026-04-06T15:22:03.999Z</time></trkpt><trkpt lat="43.31616306421958" lon="11.357374945726734"><ele>228.0</ele><time>2026-04-06T15:22:04.999Z</time></trkpt><trkpt lat="43.31612566651949" lon="11.357268487981319"><ele>227.50000000000003</ele><time>2026-04-06T15:22:05.999Z</time></trkpt><trkpt lat="43.316092772509734" lon="11.357148864376905"><ele>227.0</ele><time>2026-04-06T15:22:06.999Z</time></trkpt><trkpt lat="43.31606803913555" lon="11.357025496864807"><ele>226.83333333333334</ele><time>2026-04-06T15:22:07.999Z</time></trkpt><trkpt lat="43.31605172291506" lon="11.356918711002336"><ele>226.66666666666669</ele><time>2026-04-06T15:22:08.999Z</time></trkpt><trkpt lat="43.31604179438813" lon="11.356806093685357"><ele>226.5</ele><time>2026-04-06T15:22:09.999Z</time></trkpt><trkpt lat="43.31603756851292" lon="11.356704783777383"><ele>226.33333333333331</ele><time>2026-04-06T15:22:10.999Z</time></trkpt><trkpt lat="43.316034467196225" lon="11.356615829610787"><ele>226.16666666666666</ele><time>2026-04-06T15:22:11.999Z</time></trkpt><trkpt lat="43.316030809780806" lon="11.356453165927014"><ele>226.0</ele><time>2026-04-06T15:22:13.999Z</time></trkpt><trkpt lat="43.31602430202174" lon="11.356306923878256"><ele>225.83333333333331</ele><time>2026-04-06T15:22:15.999Z</time></trkpt><trkpt lat="43.316027855390374" lon="11.356212938648506"><ele>225.66666666666666</ele><time>2026-04-06T15:22:17.999Z</time></trkpt><trkpt lat="43.31600007733975" lon="11.35612921601888"><ele>225.5</ele><time>2026-04-06T15:22:19.999Z</time></trkpt><trkpt lat="43.3160599433331" lon="11.356054502069385"><ele>225.33333333333331</ele><time>2026-04-06T15:22:21Z</time></trkpt><trkpt lat="43.31612415960239" lon="11.35591550809999"><ele>225.16666666666666</ele><time>2026-04-06T15:22:23Z</time></trkpt><trkpt lat="43.31616865571377" lon="11.355852238458453"><ele>225.0</ele><time>2026-04-06T15:22:24Z</time></trkpt><trkpt lat="43.31621659936333" lon="11.35578640304684"><ele>225.0</ele><time>2026-04-06T15:22:25Z</time></trkpt><trkpt lat="43.31626309515508" lon="11.355719825884831"><ele>225.0</ele><time>2026-04-06T15:22:26Z</time></trkpt><trkpt lat="43.31631600477373" lon="11.355652442177412"><ele>225.0</ele><time>2026-04-06T15:22:27Z</time></trkpt><trkpt lat="43.31636532664173" lon="11.35558227516277"><ele>225.0</ele><time>2026-04-06T15:22:28Z</time></trkpt><trkpt lat="43.316397383432836" lon="11.355505498064774"><ele>225.0</ele><time>2026-04-06T15:22:29Z</time></trkpt><trkpt lat="43.316378731556135" lon="11.355343198746747"><ele>225.0</ele><time>2026-04-06T15:22:31Z</time></trkpt><trkpt lat="43.31629227884268" lon="11.355231217628125"><ele>225.0</ele><time>2026-04-06T15:22:33Z</time></trkpt><trkpt lat="43.31622368444702" lon="11.355209855504622"><ele>225.0</ele><time>2026-04-06T15:22:34Z</time></trkpt><trkpt lat="43.31611483044369" lon="11.355281602290423"><ele>225.0</ele><time>2026-04-06T15:22:36Z</time></trkpt><trkpt lat="43.31608032680022" lon="11.355359885857581"><ele>225.0</ele><time>2026-04-06T15:22:37Z</time></trkpt><trkpt lat="43.31606514242311" lon="11.355455749816224"><ele>225.0</ele><time>2026-04-06T15:22:38Z</time></trkpt><trkpt lat="43.31606310478722" lon="11.355560978868715"><ele>225.0</ele><time>2026-04-06T15:22:39Z</time></trkpt><trkpt lat="43.3160524862686" lon="11.35566638779532"><ele>225.0</ele><time>2026-04-06T15:22:40Z</time></trkpt><trkpt lat="43.31601814866701" lon="11.355776309104474"><ele>225.0</ele><time>2026-04-06T15:22:41Z</time></trkpt><trkpt lat="43.31596069660734" lon="11.355871752878176"><ele>225.0</ele><time>2026-04-06T15:22:42Z</time></trkpt><trkpt lat="43.315901998525256" lon="11.355950045516106"><ele>225.0</ele><time>2026-04-06T15:22:43Z</time></trkpt><trkpt lat="43.315838720232605" lon="11.356026792033171"><ele>225.0</ele><time>2026-04-06T15:22:44Z</time></trkpt><trkpt lat="43.3157761490655" lon="11.356100046956847"><ele>225.0</ele><time>2026-04-06T15:22:45Z</time></trkpt><trkpt lat="43.31570954279769" lon="11.35616983142312"><ele>225.0</ele><time>2026-04-06T15:22:46Z</time></trkpt><trkpt lat="43.31565072512828" lon="11.356244256750772"><ele>225.0</ele><time>2026-04-06T15:22:47Z</time></trkpt><trkpt lat="43.31559262208754" lon="11.356323128512706"><ele>225.0</ele><time>2026-04-06T15:22:48Z</time></trkpt><trkpt lat="43.31554598651314" lon="11.356392072203347"><ele>225.0</ele><time>2026-04-06T15:22:49Z</time></trkpt><trkpt lat="43.315523188007056" lon="11.356496178913336"><ele>225.0</ele><time>2026-04-06T15:22:51Z</time></trkpt><trkpt lat="43.31554714562963" lon="11.35657624847517"><ele>225.0</ele><time>2026-04-06T15:22:58Z</time></trkpt><trkpt lat="43.31572687041032" lon="11.356451667013054"><ele>225.0</ele><time>2026-04-06T15:23:00Z</time></trkpt><trkpt lat="43.31577257553901" lon="11.356384547037228"><ele>225.0</ele><time>2026-04-06T15:23:01Z</time></trkpt><trkpt lat="43.31582336243767" lon="11.356319253861745"><ele>225.0</ele><time>2026-04-06T15:23:02Z</time></trkpt><trkpt lat="43.315881024953356" lon="11.356249961909542"><ele>225.0</ele><time>2026-04-06T15:23:03Z</time></trkpt><trkpt lat="43.31594218340445" lon="11.356168888066652"><ele>225.0</ele><time>2026-04-06T15:23:04Z</time></trkpt><trkpt lat="43.316006061604966" lon="11.356080363687953"><ele>225.0</ele><time>2026-04-06T15:23:05Z</time></trkpt><trkpt lat="43.3160682936256" lon="11.355983511778149"><ele>225.00000000000003</ele><time>2026-04-06T15:23:06Z</time></trkpt><trkpt lat="43.31612407028713" lon="11.355888613791675"><ele>225.0</ele><time>2026-04-06T15:23:07Z</time></trkpt><trkpt lat="43.316173310094776" lon="11.355806929019767"><ele>225.00000000000003</ele><time>2026-04-06T15:23:08Z</time></trkpt><trkpt lat="43.3162165879795" lon="11.355743185952296"><ele>225.00000000000003</ele><time>2026-04-06T15:23:09Z</time></trkpt><trkpt lat="43.31626201266436" lon="11.35568188775791"><ele>225.0</ele><time>2026-04-06T15:23:10Z</time></trkpt><trkpt lat="43.31631401492467" lon="11.35561572970061"><ele>225.00000000000003</ele><time>2026-04-06T15:23:11Z</time></trkpt><trkpt lat="43.31635964021659" lon="11.355544105408674"><ele>225.00000000000003</ele><time>2026-04-06T15:23:12Z</time></trkpt><trkpt lat="43.31638618365762" lon="11.355458054730509"><ele>225.4</ele><time>2026-04-06T15:23:13Z</time></trkpt><trkpt lat="43.316400703619074" lon="11.355358910914"><ele>225.8</ele><time>2026-04-06T15:23:14Z</time></trkpt><trkpt lat="43.31638954876723" lon="11.355270274008518"><ele>226.2</ele><time>2026-04-06T15:23:15Z</time></trkpt><trkpt lat="43.31622197785833" lon="11.355210875058283"><ele>226.6</ele><time>2026-04-06T15:23:17Z</time></trkpt><trkpt lat="43.31615219155959" lon="11.355236808657736"><ele>227.0</ele><time>2026-04-06T15:23:18Z</time></trkpt><trkpt lat="43.316097115631955" lon="11.355303431876784"><ele>227.0</ele><time>2026-04-06T15:23:19Z</time></trkpt><trkpt lat="43.31606212183862" lon="11.3554054198503"><ele>227.0</ele><time>2026-04-06T15:23:20Z</time></trkpt><trkpt lat="43.31605424432287" lon="11.35553276646759"><ele>227.0</ele><time>2026-04-06T15:23:21Z</time></trkpt><trkpt lat="43.316069599033725" lon="11.355658606717501"><ele>227.0</ele><time>2026-04-06T15:23:22Z</time></trkpt><trkpt lat="43.31600855715288" lon="11.355783422508733"><ele>227.0</ele><time>2026-04-06T15:23:23Z</time></trkpt><trkpt lat="43.31595146581873" lon="11.355883660042371"><ele>226.6</ele><time>2026-04-06T15:23:24Z</time></trkpt><trkpt lat="43.31589610723524" lon="11.355956685467085"><ele>226.2</ele><time>2026-04-06T15:23:25Z</time></trkpt><trkpt lat="43.31582638960624" lon="11.356046513425337"><ele>225.8</ele><time>2026-04-06T15:23:27Z</time></trkpt><trkpt lat="43.315727600986904" lon="11.355945436680473"><ele>225.4</ele><time>2026-04-06T15:23:28Z</time></trkpt><trkpt lat="43.31565289424477" lon="11.355894039546518"><ele>225.0</ele><time>2026-04-06T15:23:29Z</time></trkpt><trkpt lat="43.31556475936547" lon="11.355852001920892"><ele>225.8</ele><time>2026-04-06T15:23:29.999Z</time></trkpt><trkpt lat="43.31546411320988" lon="11.355816016219162"><ele>226.6</ele><time>2026-04-06T15:23:30.999Z</time></trkpt><trkpt lat="43.31536321026317" lon="11.35578871422026"><ele>227.39999999999998</ele><time>2026-04-06T15:23:31.999Z</time></trkpt><trkpt lat="43.31526202735975" lon="11.355783989853332"><ele>228.2</ele><time>2026-04-06T15:23:32.999Z</time></trkpt><trkpt lat="43.31516576896379" lon="11.355814467944098"><ele>229.0</ele><time>2026-04-06T15:23:33.999Z</time></trkpt><trkpt lat="43.31506201498636" lon="11.355891655645863"><ele>229.0</ele><time>2026-04-06T15:23:34.999Z</time></trkpt><trkpt lat="43.31495715207146" lon="11.355997393999854"><ele>229.0</ele><time>2026-04-06T15:23:35.999Z</time></trkpt><trkpt lat="43.31485147029327" lon="11.356108161987672"><ele>229.0</ele><time>2026-04-06T15:23:36.999Z</time></trkpt><trkpt lat="43.314749614741245" lon="11.356207490668844"><ele>229.0</ele><time>2026-04-06T15:23:37.999Z</time></trkpt><trkpt lat="43.314663552432975" lon="11.356289447659469"><ele>229.79999999999998</ele><time>2026-04-06T15:23:38.999Z</time></trkpt><trkpt lat="43.314587472639204" lon="11.356356961554798"><ele>230.59999999999997</ele><time>2026-04-06T15:23:39.999Z</time></trkpt><trkpt lat="43.3145217240739" lon="11.356397337992497"><ele>231.4</ele><time>2026-04-06T15:23:40.999Z</time></trkpt><trkpt lat="43.31443666843733" lon="11.356340164308996"><ele>232.2</ele><time>2026-04-06T15:23:42.999Z</time></trkpt><trkpt lat="43.314428815216665" lon="11.35616401163183"><ele>233.0</ele><time>2026-04-06T15:23:44.999Z</time></trkpt><trkpt lat="43.314488792343354" lon="11.356062601746679"><ele>235.5</ele><time>2026-04-06T15:23:45.999Z</time></trkpt><trkpt lat="43.314528316280416" lon="11.355911664534176"><ele>238.0</ele><time>2026-04-06T15:23:46.999Z</time></trkpt><trkpt lat="43.314579201652954" lon="11.355762851853813"><ele>240.5</ele><time>2026-04-06T15:23:47.999Z</time></trkpt><trkpt lat="43.314613836459756" lon="11.355617861740232"><ele>243.0</ele><time>2026-04-06T15:23:48.999Z</time></trkpt><trkpt lat="43.314634606006976" lon="11.35544887582692"><ele>245.75</ele><time>2026-04-06T15:23:49.999Z</time></trkpt><trkpt lat="43.314656128784385" lon="11.355269224784902"><ele>248.5</ele><time>2026-04-06T15:23:50.999Z</time></trkpt><trkpt lat="43.3146676082484" lon="11.355084581522448"><ele>251.25</ele><time>2026-04-06T15:23:51.999Z</time></trkpt><trkpt lat="43.31466631913296" lon="11.354909951133552"><ele>254.0</ele><time>2026-04-06T15:23:52.999Z</time></trkpt><trkpt lat="43.314654466174886" lon="11.354759361179969"><ele>255.0</ele><time>2026-04-06T15:23:53.999Z</time></trkpt><trkpt lat="43.3146321724032" lon="11.354626526093723"><ele>255.99999999999997</ele><time>2026-04-06T15:23:54.999Z</time></trkpt><trkpt lat="43.314597955474845" lon="11.354506936150102"><ele>257.0</ele><time>2026-04-06T15:23:55.999Z</time></trkpt><trkpt lat="43.31454078390941" lon="11.354394320866765"><ele>258.0</ele><time>2026-04-06T15:23:56.999Z</time></trkpt><trkpt lat="43.31446090386995" lon="11.354290724135094"><ele>259.0</ele><time>2026-04-06T15:23:57.999Z</time></trkpt><trkpt lat="43.314370507538186" lon="11.354171984185164"><ele>259.0</ele><time>2026-04-06T15:23:58.999Z</time></trkpt><trkpt lat="43.31429080509483" lon="11.354022237936757"><ele>259.0</ele><time>2026-04-06T15:23:59.999Z</time></trkpt><trkpt lat="43.314251229559815" lon="11.353850420487877"><ele>259.0</ele><time>2026-04-06T15:24:00.999Z</time></trkpt><trkpt lat="43.314128318595635" lon="11.35363369284958"><ele>258.0</ele><time>2026-04-06T15:24:02.999Z</time></trkpt><trkpt lat="43.314046252113975" lon="11.353540253539878"><ele>257.0</ele><time>2026-04-06T15:24:03.999Z</time></trkpt><trkpt lat="43.313949928004504" lon="11.353439607979343"><ele>256.0</ele><time>2026-04-06T15:24:04.999Z</time></trkpt><trkpt lat="43.31384896474077" lon="11.353326870620604"><ele>255.0</ele><time>2026-04-06T15:24:05.999Z</time></trkpt><trkpt lat="43.313748020360556" lon="11.353193257652203"><ele>258.5</ele><time>2026-04-06T15:24:06.999Z</time></trkpt><trkpt lat="43.31363858312387" lon="11.35306155949239"><ele>262.0</ele><time>2026-04-06T15:24:07.999Z</time></trkpt><trkpt lat="43.313539681665645" lon="11.352921634504552"><ele>265.5</ele><time>2026-04-06T15:24:08.999Z</time></trkpt><trkpt lat="43.3134374970471" lon="11.352786639789105"><ele>269.0</ele><time>2026-04-06T15:24:09.999Z</time></trkpt><trkpt lat="43.31334815635005" lon="11.352635942764724"><ele>269.0</ele><time>2026-04-06T15:24:10.999Z</time></trkpt><trkpt lat="43.3132686706864" lon="11.352488511863848"><ele>269.0</ele><time>2026-04-06T15:24:11.999Z</time></trkpt><trkpt lat="43.31319692551072" lon="11.352347402049835"><ele>269.0</ele><time>2026-04-06T15:24:12.999Z</time></trkpt><trkpt lat="43.313136565636945" lon="11.352227603605929"><ele>269.0</ele><time>2026-04-06T15:24:13.999Z</time></trkpt><trkpt lat="43.31307646791358" lon="11.352110086760735"><ele>270.75</ele><time>2026-04-06T15:24:14.999Z</time></trkpt><trkpt lat="43.3130136894029" lon="11.351973464261551"><ele>272.5</ele><time>2026-04-06T15:24:15.999Z</time></trkpt><trkpt lat="43.312967354769626" lon="11.35181339759853"><ele>274.25</ele><time>2026-04-06T15:24:16.999Z</time></trkpt><trkpt lat="43.31291729370995" lon="11.351646173880313"><ele>276.0</ele><time>2026-04-06T15:24:17.999Z</time></trkpt><trkpt lat="43.31287207920976" lon="11.351460851419127"><ele>277.25</ele><time>2026-04-06T15:24:18.999Z</time></trkpt><trkpt lat="43.3128346305747" lon="11.351265999231607"><ele>278.5</ele><time>2026-04-06T15:24:19.999Z</time></trkpt><trkpt lat="43.312806418868725" lon="11.351101963933559"><ele>279.75</ele><time>2026-04-06T15:24:20.999Z</time></trkpt><trkpt lat="43.312776565893" lon="11.350955755897244"><ele>281.0</ele><time>2026-04-06T15:24:21.999Z</time></trkpt><trkpt lat="43.312728288005566" lon="11.350827452097034"><ele>281.0</ele><time>2026-04-06T15:24:22.999Z</time></trkpt><trkpt lat="43.312694522453164" lon="11.350695214632601"><ele>281.0</ele><time>2026-04-06T15:24:23.999Z</time></trkpt><trkpt lat="43.31265469764082" lon="11.3505639960217"><ele>281.0</ele><time>2026-04-06T15:24:24.999Z</time></trkpt><trkpt lat="43.31260475351697" lon="11.350419699832315"><ele>281.0</ele><time>2026-04-06T15:24:26Z</time></trkpt><trkpt lat="43.312552254037655" lon="11.350287533835347"><ele>281.0</ele><time>2026-04-06T15:24:27Z</time></trkpt><trkpt lat="43.31251250489066" lon="11.350172234702686"><ele>280.6666666666667</ele><time>2026-04-06T15:24:28Z</time></trkpt><trkpt lat="43.31248281191155" lon="11.350068011778163"><ele>280.33333333333337</ele><time>2026-04-06T15:24:29Z</time></trkpt><trkpt lat="43.31246773335203" lon="11.349970963634881"><ele>280.0</ele><time>2026-04-06T15:24:30Z</time></trkpt><trkpt lat="43.31248778440185" lon="11.349805248425927"><ele>279.6666666666667</ele><time>2026-04-06T15:24:32Z</time></trkpt><trkpt lat="43.31251575832804" lon="11.349718294441997"><ele>279.3333333333333</ele><time>2026-04-06T15:24:33Z</time></trkpt><trkpt lat="43.31257448249525" lon="11.349623923992175"><ele>279.0</ele><time>2026-04-06T15:24:34Z</time></trkpt><trkpt lat="43.31263457683278" lon="11.3495102165449"><ele>278.1666666666667</ele><time>2026-04-06T15:24:35Z</time></trkpt><trkpt lat="43.312668859744434" lon="11.349382985599613"><ele>277.3333333333333</ele><time>2026-04-06T15:24:36Z</time></trkpt><trkpt lat="43.312705884831665" lon="11.349277601614963"><ele>276.5</ele><time>2026-04-06T15:24:37Z</time></trkpt><trkpt lat="43.312729242697316" lon="11.349190028376054"><ele>275.66666666666663</ele><time>2026-04-06T15:24:38Z</time></trkpt><trkpt lat="43.312745580310555" lon="11.349105751936843"><ele>274.8333333333333</ele><time>2026-04-06T15:24:39Z</time></trkpt><trkpt lat="43.312740238540655" lon="11.34901122262103"><ele>274.0</ele><time>2026-04-06T15:24:40Z</time></trkpt><trkpt lat="43.31274647504689" lon="11.348910923665168"><ele>273.2</ele><time>2026-04-06T15:24:41Z</time></trkpt><trkpt lat="43.312722893953975" lon="11.348787091713438"><ele>272.4</ele><time>2026-04-06T15:24:42Z</time></trkpt><trkpt lat="43.312678549060465" lon="11.348666442897185"><ele>271.6</ele><time>2026-04-06T15:24:43Z</time></trkpt><trkpt lat="43.31264007812095" lon="11.348532050982886"><ele>270.8</ele><time>2026-04-06T15:24:44Z</time></trkpt><trkpt lat="43.3125848878433" lon="11.348404130060032"><ele>270.0</ele><time>2026-04-06T15:24:45Z</time></trkpt><trkpt lat="43.31252046154045" lon="11.348293662644764"><ele>270.0</ele><time>2026-04-06T15:24:46Z</time></trkpt><trkpt lat="43.31246028658324" lon="11.348194684086936"><ele>270.0</ele><time>2026-04-06T15:24:47Z</time></trkpt><trkpt lat="43.31240827884069" lon="11.348122516912875"><ele>270.0</ele><time>2026-04-06T15:24:48Z</time></trkpt><trkpt lat="43.31236219805051" lon="11.348062421952866"><ele>270.0</ele><time>2026-04-06T15:24:49Z</time></trkpt><trkpt lat="43.31230289595624" lon="11.347988270124846"><ele>270.0</ele><time>2026-04-06T15:24:51Z</time></trkpt><trkpt lat="43.31221461365927" lon="11.34809612759379"><ele>270.0</ele><time>2026-04-06T15:24:55Z</time></trkpt><trkpt lat="43.312188511070254" lon="11.348180741572637"><ele>269.1666666666667</ele><time>2026-04-06T15:24:56Z</time></trkpt><trkpt lat="43.3121537088604" lon="11.348273738977111"><ele>268.3333333333333</ele><time>2026-04-06T15:24:57Z</time></trkpt><trkpt lat="43.31211010813048" lon="11.348367369313998"><ele>267.5</ele><time>2026-04-06T15:24:58Z</time></trkpt><trkpt lat="43.31207954596806" lon="11.348464445390709"><ele>266.66666666666663</ele><time>2026-04-06T15:24:59Z</time></trkpt><trkpt lat="43.31203349137919" lon="11.348561337987771"><ele>265.8333333333333</ele><time>2026-04-06T15:25:00Z</time></trkpt><trkpt lat="43.31201246435557" lon="11.348687911424257"><ele>265.0</ele><time>2026-04-06T15:25:01Z</time></trkpt><trkpt lat="43.31197713894513" lon="11.348815105467633"><ele>264.4</ele><time>2026-04-06T15:25:02Z</time></trkpt><trkpt lat="43.31194082910408" lon="11.348946746735756"><ele>263.8</ele><time>2026-04-06T15:25:03Z</time></trkpt><trkpt lat="43.31190651978029" lon="11.34908107450929"><ele>263.2</ele><time>2026-04-06T15:25:04Z</time></trkpt><trkpt lat="43.311866539616325" lon="11.3492199838069"><ele>262.6</ele><time>2026-04-06T15:25:05Z</time></trkpt><trkpt lat="43.31182217307159" lon="11.349354327372295"><ele>262.0</ele><time>2026-04-06T15:25:06Z</time></trkpt><trkpt lat="43.31176042133978" lon="11.349482961536264"><ele>262.0</ele><time>2026-04-06T15:25:07Z</time></trkpt><trkpt lat="43.311679471903915" lon="11.349598641499982"><ele>262.0</ele><time>2026-04-06T15:25:08Z</time></trkpt><trkpt lat="43.311587415922986" lon="11.349684684461986"><ele>262.0</ele><time>2026-04-06T15:25:09Z</time></trkpt><trkpt lat="43.31148346523582" lon="11.349755756094531"><ele>262.0</ele><time>2026-04-06T15:25:10Z</time></trkpt><trkpt lat="43.311369082237654" lon="11.349816398481664"><ele>262.0</ele><time>2026-04-06T15:25:11Z</time></trkpt><trkpt lat="43.31125244259858" lon="11.349869577131955"><ele>262.0</ele><time>2026-04-06T15:25:12Z</time></trkpt><trkpt lat="43.31114595021822" lon="11.34991102213607"><ele>262.0</ele><time>2026-04-06T15:25:13Z</time></trkpt><trkpt lat="43.31104585219236" lon="11.349944799345803"><ele>262.0</ele><time>2026-04-06T15:25:14Z</time></trkpt><trkpt lat="43.310949911029404" lon="11.349954946826163"><ele>262.0</ele><time>2026-04-06T15:25:15Z</time></trkpt><trkpt lat="43.31086373766778" lon="11.349983842899254"><ele>262.0</ele><time>2026-04-06T15:25:16Z</time></trkpt><trkpt lat="43.310773267271045" lon="11.350030348200074"><ele>262.0</ele><time>2026-04-06T15:25:17Z</time></trkpt><trkpt lat="43.310690197694946" lon="11.350050209061616"><ele>262.0</ele><time>2026-04-06T15:25:18Z</time></trkpt><trkpt lat="43.31060844875541" lon="11.350098999664638"><ele>262.0</ele><time>2026-04-06T15:25:19Z</time></trkpt><trkpt lat="43.31051888468788" lon="11.350164407742056"><ele>262.0</ele><time>2026-04-06T15:25:20Z</time></trkpt><trkpt lat="43.31044164667581" lon="11.350234136446817"><ele>262.0</ele><time>2026-04-06T15:25:21Z</time></trkpt><trkpt lat="43.310372127723994" lon="11.35030455024172"><ele>262.0</ele><time>2026-04-06T15:25:22Z</time></trkpt><trkpt lat="43.31029952830926" lon="11.3503813843432"><ele>262.0</ele><time>2026-04-06T15:25:23Z</time></trkpt><trkpt lat="43.310225144604836" lon="11.350457361959565"><ele>262.0</ele><time>2026-04-06T15:25:24Z</time></trkpt><trkpt lat="43.31014545116493" lon="11.350551690286403"><ele>262.0</ele><time>2026-04-06T15:25:25Z</time></trkpt><trkpt lat="43.31007420430716" lon="11.350650413186617"><ele>261.8</ele><time>2026-04-06T15:25:26Z</time></trkpt><trkpt lat="43.3100063647835" lon="11.350744581381958"><ele>261.6</ele><time>2026-04-06T15:25:27Z</time></trkpt><trkpt lat="43.3099408583175" lon="11.350841882352212"><ele>261.40000000000003</ele><time>2026-04-06T15:25:28Z</time></trkpt><trkpt lat="43.30987844197506" lon="11.350923495464942"><ele>261.2</ele><time>2026-04-06T15:25:29Z</time></trkpt><trkpt lat="43.30981384290789" lon="11.351040397552946"><ele>261.0</ele><time>2026-04-06T15:25:30Z</time></trkpt><trkpt lat="43.30975144169594" lon="11.35116392081033"><ele>262.0</ele><time>2026-04-06T15:25:31Z</time></trkpt><trkpt lat="43.30969743981317" lon="11.351296679777901"><ele>263.0</ele><time>2026-04-06T15:25:32Z</time></trkpt><trkpt lat="43.309648498681646" lon="11.351442587835"><ele>264.0</ele><time>2026-04-06T15:25:33Z</time></trkpt><trkpt lat="43.30959987319938" lon="11.351607388740206"><ele>265.0</ele><time>2026-04-06T15:25:34Z</time></trkpt><trkpt lat="43.309563941819825" lon="11.351791509050368"><ele>265.0</ele><time>2026-04-06T15:25:35Z</time></trkpt><trkpt lat="43.30952828964226" lon="11.35198273255167"><ele>265.0</ele><time>2026-04-06T15:25:36Z</time></trkpt><trkpt lat="43.30949439397094" lon="11.35218671413939"><ele>265.0</ele><time>2026-04-06T15:25:37Z</time></trkpt><trkpt lat="43.30945675746367" lon="11.352374525612788"><ele>265.0</ele><time>2026-04-06T15:25:38Z</time></trkpt><trkpt lat="43.309425766994316" lon="11.352552373646104"><ele>265.0</ele><time>2026-04-06T15:25:39Z</time></trkpt><trkpt lat="43.309389830266554" lon="11.352722979072329"><ele>265.0</ele><time>2026-04-06T15:25:40Z</time></trkpt><trkpt lat="43.30936976145122" lon="11.352882228013852"><ele>265.0</ele><time>2026-04-06T15:25:41Z</time></trkpt><trkpt lat="43.30934860097394" lon="11.353024110386235"><ele>265.0</ele><time>2026-04-06T15:25:42Z</time></trkpt><trkpt lat="43.309324987812985" lon="11.35315218107558"><ele>265.0</ele><time>2026-04-06T15:25:43Z</time></trkpt><trkpt lat="43.3093023295655" lon="11.353263694010097"><ele>265.0</ele><time>2026-04-06T15:25:44Z</time></trkpt><trkpt lat="43.30928059557501" lon="11.353388861242964"><ele>265.0</ele><time>2026-04-06T15:25:45Z</time></trkpt><trkpt lat="43.309258433037165" lon="11.353524391202413"><ele>265.0</ele><time>2026-04-06T15:25:45.999Z</time></trkpt><trkpt lat="43.30924450328468" lon="11.353676696721129"><ele>265.0</ele><time>2026-04-06T15:25:46.999Z</time></trkpt><trkpt lat="43.30924415834162" lon="11.353835243233464"><ele>265.0</ele><time>2026-04-06T15:25:47.999Z</time></trkpt><trkpt lat="43.30924072492091" lon="11.353989738411443"><ele>264.25</ele><time>2026-04-06T15:25:48.999Z</time></trkpt><trkpt lat="43.30923319536956" lon="11.35416109135401"><ele>263.5</ele><time>2026-04-06T15:25:49.999Z</time></trkpt><trkpt lat="43.309221097093356" lon="11.354329404560554"><ele>262.75</ele><time>2026-04-06T15:25:50.999Z</time></trkpt><trkpt lat="43.309213308201116" lon="11.35449399609199"><ele>262.0</ele><time>2026-04-06T15:25:51.999Z</time></trkpt><trkpt lat="43.30921263784191" lon="11.354639189597208"><ele>262.2</ele><time>2026-04-06T15:25:52.999Z</time></trkpt><trkpt lat="43.309217176483635" lon="11.354775841592696"><ele>262.4</ele><time>2026-04-06T15:25:53.999Z</time></trkpt><trkpt lat="43.309229203404044" lon="11.35490859556529"><ele>262.6</ele><time>2026-04-06T15:25:54.999Z</time></trkpt><trkpt lat="43.30924758926694" lon="11.355040764641629"><ele>262.8</ele><time>2026-04-06T15:25:55.999Z</time></trkpt><trkpt lat="43.309271201527416" lon="11.355172747635383"><ele>263.0</ele><time>2026-04-06T15:25:56.999Z</time></trkpt><trkpt lat="43.30928537902942" lon="11.355321151534815"><ele>263.0</ele><time>2026-04-06T15:25:57.999Z</time></trkpt><trkpt lat="43.30931628771068" lon="11.355462094791386"><ele>263.0</ele><time>2026-04-06T15:25:58.999Z</time></trkpt><trkpt lat="43.30935098136103" lon="11.355605701700114"><ele>263.0</ele><time>2026-04-06T15:25:59.999Z</time></trkpt><trkpt lat="43.309383859088655" lon="11.355741617628944"><ele>263.0</ele><time>2026-04-06T15:26:00.999Z</time></trkpt><trkpt lat="43.30941629483233" lon="11.355875706318216"><ele>263.0</ele><time>2026-04-06T15:26:01.999Z</time></trkpt><trkpt lat="43.3094501461883" lon="11.356018348747561"><ele>262.6</ele><time>2026-04-06T15:26:02.999Z</time></trkpt><trkpt lat="43.30947865582925" lon="11.356145280547892"><ele>262.20000000000005</ele><time>2026-04-06T15:26:03.999Z</time></trkpt><trkpt lat="43.309501151935414" lon="11.356266303893332"><ele>261.8</ele><time>2026-04-06T15:26:04.999Z</time></trkpt><trkpt lat="43.30952811670366" lon="11.356383467667312"><ele>261.40000000000003</ele><time>2026-04-06T15:26:05.999Z</time></trkpt><trkpt lat="43.309522686236996" lon="11.356518051660201"><ele>261.0</ele><time>2026-04-06T15:26:06.999Z</time></trkpt><trkpt lat="43.30949997401726" lon="11.35665251312233"><ele>259.8</ele><time>2026-04-06T15:26:07.999Z</time></trkpt><trkpt lat="43.30946920706992" lon="11.35678368964579"><ele>258.6</ele><time>2026-04-06T15:26:08.999Z</time></trkpt><trkpt lat="43.309436336158036" lon="11.356916074566758"><ele>257.4</ele><time>2026-04-06T15:26:09.999Z</time></trkpt><trkpt lat="43.30940040190989" lon="11.3570461911734"><ele>256.2</ele><time>2026-04-06T15:26:10.999Z</time></trkpt><trkpt lat="43.30934567343016" lon="11.357183841343474"><ele>255.0</ele><time>2026-04-06T15:26:11.999Z</time></trkpt><trkpt lat="43.3092748051055" lon="11.357314163939286"><ele>254.5</ele><time>2026-04-06T15:26:12.999Z</time></trkpt><trkpt lat="43.309188865092594" lon="11.35742472318204"><ele>254.0</ele><time>2026-04-06T15:26:13.999Z</time></trkpt><trkpt lat="43.309084567623714" lon="11.357527712866258"><ele>253.5</ele><time>2026-04-06T15:26:14.999Z</time></trkpt><trkpt lat="43.30896027598004" lon="11.35764889574736"><ele>253.0</ele><time>2026-04-06T15:26:15.999Z</time></trkpt><trkpt lat="43.3088409023368" lon="11.35776561703774"><ele>251.5</ele><time>2026-04-06T15:26:16.999Z</time></trkpt><trkpt lat="43.30873493952157" lon="11.357871339807597"><ele>250.0</ele><time>2026-04-06T15:26:17.999Z</time></trkpt><trkpt lat="43.308629376566415" lon="11.357969098727677"><ele>248.5</ele><time>2026-04-06T15:26:18.999Z</time></trkpt><trkpt lat="43.30852089821407" lon="11.358065000847901"><ele>247.0</ele><time>2026-04-06T15:26:19.999Z</time></trkpt><trkpt lat="43.30840228663603" lon="11.358155935418418"><ele>247.0</ele><time>2026-04-06T15:26:20.999Z</time></trkpt><trkpt lat="43.30828063706685" lon="11.358242690960848"><ele>247.0</ele><time>2026-04-06T15:26:21.999Z</time></trkpt><trkpt lat="43.3081625676084" lon="11.358339723174137"><ele>247.0</ele><time>2026-04-06T15:26:22.999Z</time></trkpt><trkpt lat="43.30804396930028" lon="11.358444100183272"><ele>247.0</ele><time>2026-04-06T15:26:23.999Z</time></trkpt><trkpt lat="43.3079175666437" lon="11.35857311475381"><ele>244.0</ele><time>2026-04-06T15:26:24.999Z</time></trkpt><trkpt lat="43.307796785275706" lon="11.358714671272796"><ele>241.0</ele><time>2026-04-06T15:26:25.999Z</time></trkpt><trkpt lat="43.307673510003" lon="11.358867692641581"><ele>238.0</ele><time>2026-04-06T15:26:26.999Z</time></trkpt><trkpt lat="43.307538461308184" lon="11.359026665765045"><ele>238.0</ele><time>2026-04-06T15:26:27.999Z</time></trkpt><trkpt lat="43.30739776410107" lon="11.359194173909948"><ele>238.0</ele><time>2026-04-06T15:26:28.999Z</time></trkpt><trkpt lat="43.307265436901254" lon="11.359349786878536"><ele>238.0</ele><time>2026-04-06T15:26:29.999Z</time></trkpt><trkpt lat="43.30714344879884" lon="11.359496051482328"><ele>239.0</ele><time>2026-04-06T15:26:31Z</time></trkpt><trkpt lat="43.30702669185281" lon="11.359639492868077"><ele>240.0</ele><time>2026-04-06T15:26:32Z</time></trkpt><trkpt lat="43.30691231137516" lon="11.359782691396045"><ele>241.0</ele><time>2026-04-06T15:26:33Z</time></trkpt><trkpt lat="43.3068082413046" lon="11.359917734491214"><ele>241.0</ele><time>2026-04-06T15:26:34Z</time></trkpt><trkpt lat="43.30671771595993" lon="11.360039741712992"><ele>241.0</ele><time>2026-04-06T15:26:35Z</time></trkpt><trkpt lat="43.306639234875334" lon="11.360155440149336"><ele>241.0</ele><time>2026-04-06T15:26:36Z</time></trkpt><trkpt lat="43.306573310277564" lon="11.360274049874668"><ele>241.0</ele><time>2026-04-06T15:26:37Z</time></trkpt><trkpt lat="43.30649453136098" lon="11.360421274899114"><ele>244.66666666666666</ele><time>2026-04-06T15:26:38Z</time></trkpt><trkpt lat="43.30638893070538" lon="11.360589014534192"><ele>248.33333333333331</ele><time>2026-04-06T15:26:39Z</time></trkpt><trkpt lat="43.30627550026358" lon="11.36073557480437"><ele>252.0</ele><time>2026-04-06T15:26:40Z</time></trkpt><trkpt lat="43.3061808782285" lon="11.360870799659098"><ele>252.0</ele><time>2026-04-06T15:26:41Z</time></trkpt><trkpt lat="43.30610011529867" lon="11.361048981526855"><ele>252.0</ele><time>2026-04-06T15:26:42Z</time></trkpt><trkpt lat="43.3060349803157" lon="11.36121801114916"><ele>252.0</ele><time>2026-04-06T15:26:43Z</time></trkpt><trkpt lat="43.30597183980067" lon="11.361358037194114"><ele>252.0</ele><time>2026-04-06T15:26:44Z</time></trkpt><trkpt lat="43.30589524912324" lon="11.36147551525777"><ele>250.75</ele><time>2026-04-06T15:26:45Z</time></trkpt><trkpt lat="43.305811679419165" lon="11.36156764762823"><ele>249.5</ele><time>2026-04-06T15:26:46Z</time></trkpt><trkpt lat="43.30572071696596" lon="11.361628890583145"><ele>248.25</ele><time>2026-04-06T15:26:47Z</time></trkpt><trkpt lat="43.305609856457586" lon="11.361671637575203"><ele>247.0</ele><time>2026-04-06T15:26:48Z</time></trkpt><trkpt lat="43.30547072094444" lon="11.361702437639808"><ele>247.0</ele><time>2026-04-06T15:26:49Z</time></trkpt><trkpt lat="43.305317252781904" lon="11.361728250132426"><ele>247.0</ele><time>2026-04-06T15:26:50Z</time></trkpt><trkpt lat="43.30516412280142" lon="11.361752263174655"><ele>247.0</ele><time>2026-04-06T15:26:51Z</time></trkpt><trkpt lat="43.30502308844337" lon="11.361777909727444"><ele>247.0</ele><time>2026-04-06T15:26:52Z</time></trkpt><trkpt lat="43.30490055787239" lon="11.36180194020657"><ele>247.0</ele><time>2026-04-06T15:26:53Z</time></trkpt><trkpt lat="43.30480364577188" lon="11.361815838031026"><ele>247.0</ele><time>2026-04-06T15:26:54Z</time></trkpt><trkpt lat="43.30471327100001" lon="11.36181713232031"><ele>247.0</ele><time>2026-04-06T15:26:55Z</time></trkpt><trkpt lat="43.304608860698714" lon="11.361820689143729"><ele>247.0</ele><time>2026-04-06T15:26:56Z</time></trkpt><trkpt lat="43.304494955097404" lon="11.361836307551537"><ele>244.5</ele><time>2026-04-06T15:26:57Z</time></trkpt><trkpt lat="43.30438190118904" lon="11.361883448014924"><ele>242.0</ele><time>2026-04-06T15:26:58Z</time></trkpt><trkpt lat="43.304255578011166" lon="11.361953447320237"><ele>239.5</ele><time>2026-04-06T15:26:59Z</time></trkpt><trkpt lat="43.304127148904286" lon="11.362051429964824"><ele>237.0</ele><time>2026-04-06T15:27:00Z</time></trkpt><trkpt lat="43.30400233726815" lon="11.362151502922096"><ele>239.25</ele><time>2026-04-06T15:27:01Z</time></trkpt><trkpt lat="43.30388183678184" lon="11.362251321473217"><ele>241.5</ele><time>2026-04-06T15:27:02Z</time></trkpt><trkpt lat="43.30376513309946" lon="11.362349879583494"><ele>243.75</ele><time>2026-04-06T15:27:03Z</time></trkpt><trkpt lat="43.30365545238572" lon="11.36245331900431"><ele>246.0</ele><time>2026-04-06T15:27:04Z</time></trkpt><trkpt lat="43.30356140578165" lon="11.362563786649725"><ele>246.0</ele><time>2026-04-06T15:27:05Z</time></trkpt><trkpt lat="43.303488381865996" lon="11.362684705714635"><ele>246.0</ele><time>2026-04-06T15:27:06Z</time></trkpt><trkpt lat="43.303437714278225" lon="11.362819694956633"><ele>246.0</ele><time>2026-04-06T15:27:07Z</time></trkpt><trkpt lat="43.303404681945274" lon="11.362974901299372"><ele>246.0</ele><time>2026-04-06T15:27:08Z</time></trkpt><trkpt lat="43.30338911523951" lon="11.363152174662629"><ele>247.25</ele><time>2026-04-06T15:27:09Z</time></trkpt><trkpt lat="43.303357677840836" lon="11.363340952827475"><ele>248.5</ele><time>2026-04-06T15:27:10Z</time></trkpt><trkpt lat="43.30333510959174" lon="11.36349994614753"><ele>249.75</ele><time>2026-04-06T15:27:11Z</time></trkpt><trkpt lat="43.303303615836846" lon="11.363628745257179"><ele>251.0</ele><time>2026-04-06T15:27:12Z</time></trkpt><trkpt lat="43.30325721668846" lon="11.363743226181887"><ele>251.0</ele><time>2026-04-06T15:27:13Z</time></trkpt><trkpt lat="43.30321103764329" lon="11.363851633537733"><ele>251.00000000000003</ele><time>2026-04-06T15:27:14Z</time></trkpt><trkpt lat="43.30312793869203" lon="11.363922125735316"><ele>251.00000000000003</ele><time>2026-04-06T15:27:15Z</time></trkpt><trkpt lat="43.3030316368062" lon="11.363956106671262"><ele>251.0</ele><time>2026-04-06T15:27:16Z</time></trkpt><trkpt lat="43.30291880121313" lon="11.363965501251236"><ele>251.0</ele><time>2026-04-06T15:27:17Z</time></trkpt><trkpt lat="43.30281241880706" lon="11.363955072863234"><ele>251.4</ele><time>2026-04-06T15:27:18Z</time></trkpt><trkpt lat="43.30271881753104" lon="11.363949643675474"><ele>251.8</ele><time>2026-04-06T15:27:19Z</time></trkpt><trkpt lat="43.30263536022976" lon="11.36395730372796"><ele>252.20000000000002</ele><time>2026-04-06T15:27:20Z</time></trkpt><trkpt lat="43.30254369116776" lon="11.363981244831674"><ele>252.60000000000002</ele><time>2026-04-06T15:27:21Z</time></trkpt><trkpt lat="43.30243900595279" lon="11.364024098181124"><ele>253.0</ele><time>2026-04-06T15:27:22Z</time></trkpt><trkpt lat="43.302327712402615" lon="11.364083034615321"><ele>249.75</ele><time>2026-04-06T15:27:23Z</time></trkpt><trkpt lat="43.30221807693792" lon="11.364154341939086"><ele>246.5</ele><time>2026-04-06T15:27:24Z</time></trkpt><trkpt lat="43.302114983520916" lon="11.364227388753958"><ele>243.25</ele><time>2026-04-06T15:27:25Z</time></trkpt><trkpt lat="43.30202330937792" lon="11.364313193188238"><ele>240.0</ele><time>2026-04-06T15:27:26Z</time></trkpt><trkpt lat="43.301942821291995" lon="11.36441423050932"><ele>240.0</ele><time>2026-04-06T15:27:27Z</time></trkpt><trkpt lat="43.30186922805979" lon="11.36454154778357"><ele>240.0</ele><time>2026-04-06T15:27:28Z</time></trkpt><trkpt lat="43.30181439537115" lon="11.364692797262252"><ele>240.0</ele><time>2026-04-06T15:27:29Z</time></trkpt><trkpt lat="43.30177405017807" lon="11.3648425304047"><ele>240.0</ele><time>2026-04-06T15:27:30Z</time></trkpt><trkpt lat="43.301715088200154" lon="11.364974087789976"><ele>240.75</ele><time>2026-04-06T15:27:31Z</time></trkpt><trkpt lat="43.30167830188811" lon="11.365111314389532"><ele>241.5</ele><time>2026-04-06T15:27:32Z</time></trkpt><trkpt lat="43.30160908982313" lon="11.365217084368886"><ele>242.25</ele><time>2026-04-06T15:27:33Z</time></trkpt><trkpt lat="43.30150806764672" lon="11.365281896419223"><ele>243.0</ele><time>2026-04-06T15:27:34Z</time></trkpt><trkpt lat="43.30139823957416" lon="11.36537487797382"><ele>242.5</ele><time>2026-04-06T15:27:35Z</time></trkpt><trkpt lat="43.30127117163876" lon="11.365451512716113"><ele>242.0</ele><time>2026-04-06T15:27:36Z</time></trkpt><trkpt lat="43.30113850039426" lon="11.365534530078113"><ele>241.5</ele><time>2026-04-06T15:27:37Z</time></trkpt><trkpt lat="43.301008315584795" lon="11.365612627499418"><ele>241.0</ele><time>2026-04-06T15:27:38Z</time></trkpt><trkpt lat="43.300892147739" lon="11.365678663935306"><ele>241.0</ele><time>2026-04-06T15:27:39Z</time></trkpt><trkpt lat="43.30077289051311" lon="11.365720637115063"><ele>241.0</ele><time>2026-04-06T15:27:40Z</time></trkpt><trkpt lat="43.30063562764793" lon="11.365737650718723"><ele>241.0</ele><time>2026-04-06T15:27:41Z</time></trkpt><trkpt lat="43.30048813001165" lon="11.365726541099361"><ele>241.0</ele><time>2026-04-06T15:27:42Z</time></trkpt><trkpt lat="43.30036151716181" lon="11.365714502813002"><ele>241.60000000000002</ele><time>2026-04-06T15:27:43Z</time></trkpt><trkpt lat="43.30025324640279" lon="11.365721570324961"><ele>242.20000000000002</ele><time>2026-04-06T15:27:44Z</time></trkpt><trkpt lat="43.300151262713264" lon="11.365743608116727"><ele>242.79999999999998</ele><time>2026-04-06T15:27:45Z</time></trkpt><trkpt lat="43.30004817509782" lon="11.365804406194902"><ele>243.39999999999998</ele><time>2026-04-06T15:27:46Z</time></trkpt><trkpt lat="43.29994775852737" lon="11.365900296275226"><ele>244.0</ele><time>2026-04-06T15:27:47Z</time></trkpt><trkpt lat="43.29984925294271" lon="11.365995253258763"><ele>244.0</ele><time>2026-04-06T15:27:48Z</time></trkpt><trkpt lat="43.29975278954888" lon="11.366111734349097"><ele>244.0</ele><time>2026-04-06T15:27:49Z</time></trkpt><trkpt lat="43.299657612105925" lon="11.366240137149736"><ele>244.0</ele><time>2026-04-06T15:27:50Z</time></trkpt><trkpt lat="43.299546941117214" lon="11.366371001980754"><ele>244.0</ele><time>2026-04-06T15:27:51Z</time></trkpt><trkpt lat="43.29944084813828" lon="11.366507388659265"><ele>242.25</ele><time>2026-04-06T15:27:52Z</time></trkpt><trkpt lat="43.29933645431436" lon="11.366632473847709"><ele>240.5</ele><time>2026-04-06T15:27:53Z</time></trkpt><trkpt lat="43.29924138280043" lon="11.366753812858157"><ele>238.75</ele><time>2026-04-06T15:27:54Z</time></trkpt><trkpt lat="43.29915018326475" lon="11.366888970623368"><ele>237.0</ele><time>2026-04-06T15:27:55Z</time></trkpt><trkpt lat="43.29907144218103" lon="11.367036074362163"><ele>237.5</ele><time>2026-04-06T15:27:56Z</time></trkpt><trkpt lat="43.299006103344404" lon="11.367194891509946"><ele>238.0</ele><time>2026-04-06T15:27:57Z</time></trkpt><trkpt lat="43.29893344656991" lon="11.367356002061177"><ele>238.5</ele><time>2026-04-06T15:27:57.999Z</time></trkpt><trkpt lat="43.29887293019001" lon="11.367519509169748"><ele>239.0</ele><time>2026-04-06T15:27:58.999Z</time></trkpt><trkpt lat="43.29881404010755" lon="11.36767324790178"><ele>238.0</ele><time>2026-04-06T15:27:59.999Z</time></trkpt><trkpt lat="43.29875357737221" lon="11.36782274055196"><ele>237.0</ele><time>2026-04-06T15:28:00.999Z</time></trkpt><trkpt lat="43.298688989448394" lon="11.367979845065419"><ele>236.0</ele><time>2026-04-06T15:28:01.999Z</time></trkpt><trkpt lat="43.298625468951926" lon="11.36814953246959"><ele>235.0</ele><time>2026-04-06T15:28:02.999Z</time></trkpt><trkpt lat="43.298532325691056" lon="11.368260282046023"><ele>235.0</ele><time>2026-04-06T15:28:03.999Z</time></trkpt><trkpt lat="43.29846191562971" lon="11.368368179247142"><ele>235.0</ele><time>2026-04-06T15:28:04.999Z</time></trkpt><trkpt lat="43.298364975797405" lon="11.368404804026492"><ele>235.0</ele><time>2026-04-06T15:28:05.999Z</time></trkpt><trkpt lat="43.29826446247751" lon="11.368471341007831"><ele>235.0</ele><time>2026-04-06T15:28:06.999Z</time></trkpt><trkpt lat="43.298152382619506" lon="11.36850472041426"><ele>235.0</ele><time>2026-04-06T15:28:07.999Z</time></trkpt><trkpt lat="43.29804220756723" lon="11.368521863205467"><ele>235.75</ele><time>2026-04-06T15:28:08.999Z</time></trkpt><trkpt lat="43.297925506268264" lon="11.368516909730328"><ele>236.5</ele><time>2026-04-06T15:28:09.999Z</time></trkpt><trkpt lat="43.297812601101505" lon="11.368487367023723"><ele>237.25</ele><time>2026-04-06T15:28:10.999Z</time></trkpt><trkpt lat="43.29769270155402" lon="11.368428902168256"><ele>238.0</ele><time>2026-04-06T15:28:11.999Z</time></trkpt><trkpt lat="43.29756025204145" lon="11.368357987088752"><ele>238.0</ele><time>2026-04-06T15:28:12.999Z</time></trkpt><trkpt lat="43.297428099120474" lon="11.368284450172935"><ele>238.0</ele><time>2026-04-06T15:28:13.999Z</time></trkpt><trkpt lat="43.29729745348667" lon="11.368209066566473"><ele>238.0</ele><time>2026-04-06T15:28:14.999Z</time></trkpt><trkpt lat="43.29716744829027" lon="11.368151335250921"><ele>238.0</ele><time>2026-04-06T15:28:15.999Z</time></trkpt><trkpt lat="43.29703861236749" lon="11.368107020797988"><ele>237.25</ele><time>2026-04-06T15:28:16.999Z</time></trkpt><trkpt lat="43.29692068759985" lon="11.368058749267936"><ele>236.5</ele><time>2026-04-06T15:28:17.999Z</time></trkpt><trkpt lat="43.29680322578072" lon="11.368028549409265"><ele>235.75</ele><time>2026-04-06T15:28:18.999Z</time></trkpt><trkpt lat="43.296680798893526" lon="11.368012822004074"><ele>235.0</ele><time>2026-04-06T15:28:19.999Z</time></trkpt><trkpt lat="43.29655291884816" lon="11.368006492893239"><ele>236.5</ele><time>2026-04-06T15:28:20.999Z</time></trkpt><trkpt lat="43.29641182212408" lon="11.368025671113013"><ele>238.0</ele><time>2026-04-06T15:28:21.999Z</time></trkpt><trkpt lat="43.29627203076202" lon="11.3680423826809"><ele>239.5</ele><time>2026-04-06T15:28:22.999Z</time></trkpt><trkpt lat="43.29612990123662" lon="11.368080291133833"><ele>241.0</ele><time>2026-04-06T15:28:23.999Z</time></trkpt><trkpt lat="43.29599715635292" lon="11.368139473112748"><ele>240.4</ele><time>2026-04-06T15:28:24.999Z</time></trkpt><trkpt lat="43.295874430924755" lon="11.368214521978594"><ele>239.8</ele><time>2026-04-06T15:28:25.999Z</time></trkpt><trkpt lat="43.29577554399019" lon="11.36827408793679"><ele>239.20000000000002</ele><time>2026-04-06T15:28:26.999Z</time></trkpt><trkpt lat="43.29567712192223" lon="11.368284897234867"><ele>238.60000000000002</ele><time>2026-04-06T15:28:27.999Z</time></trkpt><trkpt lat="43.295588377161366" lon="11.368318940073854"><ele>238.0</ele><time>2026-04-06T15:28:28.999Z</time></trkpt><trkpt lat="43.29547898671851" lon="11.368318953332526"><ele>238.0</ele><time>2026-04-06T15:28:29.999Z</time></trkpt><trkpt lat="43.29535714807427" lon="11.36834346781461"><ele>238.0</ele><time>2026-04-06T15:28:30.999Z</time></trkpt><trkpt lat="43.29524422712272" lon="11.36839127867238"><ele>238.0</ele><time>2026-04-06T15:28:31.999Z</time></trkpt><trkpt lat="43.29515305838662" lon="11.368454825232464"><ele>238.0</ele><time>2026-04-06T15:28:32.999Z</time></trkpt><trkpt lat="43.29506871651909" lon="11.368523522820215"><ele>238.0</ele><time>2026-04-06T15:28:33.999Z</time></trkpt><trkpt lat="43.29498435182514" lon="11.368621975424166"><ele>238.0</ele><time>2026-04-06T15:28:34.999Z</time></trkpt><trkpt lat="43.294897347201484" lon="11.368754007661028"><ele>238.0</ele><time>2026-04-06T15:28:35.999Z</time></trkpt><trkpt lat="43.29482907034968" lon="11.368909188433708"><ele>238.0</ele><time>2026-04-06T15:28:37Z</time></trkpt><trkpt lat="43.29474768800295" lon="11.369039135281199"><ele>238.0</ele><time>2026-04-06T15:28:38Z</time></trkpt><trkpt lat="43.29465061949021" lon="11.369146467123242"><ele>236.0</ele><time>2026-04-06T15:28:39Z</time></trkpt><trkpt lat="43.294532459054096" lon="11.369238783224956"><ele>234.0</ele><time>2026-04-06T15:28:40Z</time></trkpt><trkpt lat="43.294401587108894" lon="11.369328356575714"><ele>232.0</ele><time>2026-04-06T15:28:41Z</time></trkpt><trkpt lat="43.29426655588527" lon="11.36944039237174"><ele>230.0</ele><time>2026-04-06T15:28:42Z</time></trkpt><trkpt lat="43.29411397153467" lon="11.369534907431417"><ele>230.0</ele><time>2026-04-06T15:28:43Z</time></trkpt><trkpt lat="43.29396345016402" lon="11.369625181580469"><ele>230.0</ele><time>2026-04-06T15:28:44Z</time></trkpt><trkpt lat="43.29382531300061" lon="11.369710522810609"><ele>230.0</ele><time>2026-04-06T15:28:45Z</time></trkpt><trkpt lat="43.29369134966042" lon="11.369795427508626"><ele>228.33333333333334</ele><time>2026-04-06T15:28:46Z</time></trkpt><trkpt lat="43.29355524202561" lon="11.369874996284214"><ele>226.66666666666669</ele><time>2026-04-06T15:28:47Z</time></trkpt><trkpt lat="43.29340531874733" lon="11.36994516362746"><ele>225.0</ele><time>2026-04-06T15:28:48Z</time></trkpt><trkpt lat="43.293237997695975" lon="11.36999549540661"><ele>224.0</ele><time>2026-04-06T15:28:49Z</time></trkpt><trkpt lat="43.293067250343455" lon="11.370039524957448"><ele>223.0</ele><time>2026-04-06T15:28:50Z</time></trkpt><trkpt lat="43.2928944065364" lon="11.370069575446829"><ele>222.0</ele><time>2026-04-06T15:28:51Z</time></trkpt><trkpt lat="43.29272873383524" lon="11.370073455142068"><ele>222.0</ele><time>2026-04-06T15:28:52Z</time></trkpt><trkpt lat="43.29256955258039" lon="11.37005710488225"><ele>222.0</ele><time>2026-04-06T15:28:53Z</time></trkpt><trkpt lat="43.292423130995594" lon="11.370045749361045"><ele>222.0</ele><time>2026-04-06T15:28:54Z</time></trkpt><trkpt lat="43.29228708570179" lon="11.3700386375495"><ele>222.0</ele><time>2026-04-06T15:28:55Z</time></trkpt><trkpt lat="43.292138649518556" lon="11.370037134483653"><ele>222.33333333333331</ele><time>2026-04-06T15:28:56Z</time></trkpt><trkpt lat="43.291983895254866" lon="11.370057195706883"><ele>222.66666666666666</ele><time>2026-04-06T15:28:57Z</time></trkpt><trkpt lat="43.291821358773106" lon="11.37009092178682"><ele>223.0</ele><time>2026-04-06T15:28:58Z</time></trkpt><trkpt lat="43.29165594395712" lon="11.370142989355227"><ele>223.0</ele><time>2026-04-06T15:28:59Z</time></trkpt><trkpt lat="43.291501122828365" lon="11.37022587051097"><ele>223.0</ele><time>2026-04-06T15:29:00Z</time></trkpt><trkpt lat="43.291361807003526" lon="11.370328245756568"><ele>223.0</ele><time>2026-04-06T15:29:01Z</time></trkpt><trkpt lat="43.291235015282325" lon="11.370427762488998"><ele>223.5</ele><time>2026-04-06T15:29:02Z</time></trkpt><trkpt lat="43.29110188475167" lon="11.370511963788005"><ele>224.0</ele><time>2026-04-06T15:29:03Z</time></trkpt><trkpt lat="43.290978031550694" lon="11.370578785636434"><ele>224.5</ele><time>2026-04-06T15:29:04Z</time></trkpt><trkpt lat="43.29085566800518" lon="11.370626098153965"><ele>225.0</ele><time>2026-04-06T15:29:05Z</time></trkpt><trkpt lat="43.29074311302952" lon="11.370666788617836"><ele>225.0</ele><time>2026-04-06T15:29:06Z</time></trkpt><trkpt lat="43.29063663856992" lon="11.370721379478177"><ele>225.0</ele><time>2026-04-06T15:29:07Z</time></trkpt><trkpt lat="43.29054568248735" lon="11.370802757400673"><ele>225.0</ele><time>2026-04-06T15:29:08Z</time></trkpt><trkpt lat="43.290475969720084" lon="11.370899712390912"><ele>225.0</ele><time>2026-04-06T15:29:09Z</time></trkpt><trkpt lat="43.29040335457291" lon="11.371013131966015"><ele>225.0</ele><time>2026-04-06T15:29:10Z</time></trkpt><trkpt lat="43.29036631287319" lon="11.37116849615909"><ele>225.0</ele><time>2026-04-06T15:29:11Z</time></trkpt><trkpt lat="43.29029111808876" lon="11.371267551725289"><ele>225.0</ele><time>2026-04-06T15:29:12Z</time></trkpt><trkpt lat="43.29020327396426" lon="11.371375422668875"><ele>225.0</ele><time>2026-04-06T15:29:13Z</time></trkpt><trkpt lat="43.29010892468287" lon="11.371443053087507"><ele>225.0</ele><time>2026-04-06T15:29:14Z</time></trkpt><trkpt lat="43.290025741284076" lon="11.371491898644566"><ele>225.0</ele><time>2026-04-06T15:29:15Z</time></trkpt><trkpt lat="43.289953177779914" lon="11.37154910730918"><ele>225.0</ele><time>2026-04-06T15:29:16Z</time></trkpt><trkpt lat="43.289895997056846" lon="11.371643635198339"><ele>225.0</ele><time>2026-04-06T15:29:17Z</time></trkpt><trkpt lat="43.28988824102983" lon="11.37178609935723"><ele>225.0</ele><time>2026-04-06T15:29:18Z</time></trkpt><trkpt lat="43.28989506276651" lon="11.371897616175293"><ele>225.0</ele><time>2026-04-06T15:29:19Z</time></trkpt><trkpt lat="43.28988745368505" lon="11.372034820217085"><ele>225.0</ele><time>2026-04-06T15:29:21Z</time></trkpt><trkpt lat="43.289838340125904" lon="11.372097364972339"><ele>225.0</ele><time>2026-04-06T15:29:22Z</time></trkpt><trkpt lat="43.28977522871033" lon="11.37215170631154"><ele>223.6</ele><time>2026-04-06T15:29:23Z</time></trkpt><trkpt lat="43.28968623367538" lon="11.37217493133385"><ele>222.2</ele><time>2026-04-06T15:29:24Z</time></trkpt><trkpt lat="43.289593561287376" lon="11.372247310384024"><ele>220.8</ele><time>2026-04-06T15:29:25Z</time></trkpt><trkpt lat="43.28950596836273" lon="11.372289264805797"><ele>219.4</ele><time>2026-04-06T15:29:26Z</time></trkpt><trkpt lat="43.28943149040393" lon="11.372333624963519"><ele>218.0</ele><time>2026-04-06T15:29:27Z</time></trkpt><trkpt lat="43.28935760950167" lon="11.372375509267295"><ele>217.83333333333334</ele><time>2026-04-06T15:29:28Z</time></trkpt><trkpt lat="43.289293444647335" lon="11.372408079055107"><ele>217.66666666666669</ele><time>2026-04-06T15:29:29Z</time></trkpt><trkpt lat="43.28919172719413" lon="11.372470720649277"><ele>217.5</ele><time>2026-04-06T15:29:31Z</time></trkpt><trkpt lat="43.289125784864055" lon="11.372581420919229"><ele>217.33333333333331</ele><time>2026-04-06T15:29:33Z</time></trkpt><trkpt lat="43.2891109636774" lon="11.372672914565236"><ele>217.16666666666666</ele><time>2026-04-06T15:29:34Z</time></trkpt><trkpt lat="43.28910644559602" lon="11.372791866544496"><ele>217.0</ele><time>2026-04-06T15:29:35Z</time></trkpt><trkpt lat="43.28908735133322" lon="11.372919811958456"><ele>215.6</ele><time>2026-04-06T15:29:36Z</time></trkpt><trkpt lat="43.28908525627807" lon="11.373057720043606"><ele>214.2</ele><time>2026-04-06T15:29:37Z</time></trkpt><trkpt lat="43.2890840566623" lon="11.373180785093052"><ele>212.8</ele><time>2026-04-06T15:29:38Z</time></trkpt><trkpt lat="43.289094424070086" lon="11.37331538799973"><ele>211.4</ele><time>2026-04-06T15:29:39Z</time></trkpt><trkpt lat="43.28909117469885" lon="11.373444725173155"><ele>210.0</ele><time>2026-04-06T15:29:40Z</time></trkpt><trkpt lat="43.28907256696301" lon="11.373562233988277"><ele>210.0</ele><time>2026-04-06T15:29:41Z</time></trkpt><trkpt lat="43.28906982186709" lon="11.373677457491723"><ele>210.0</ele><time>2026-04-06T15:29:42Z</time></trkpt><trkpt lat="43.28906964864158" lon="11.373792465968597"><ele>210.0</ele><time>2026-04-06T15:29:43Z</time></trkpt><trkpt lat="43.289071815046164" lon="11.373913306299631"><ele>210.0</ele><time>2026-04-06T15:29:44Z</time></trkpt><trkpt lat="43.289075153846156" lon="11.374022972442274"><ele>210.0</ele><time>2026-04-06T15:29:45Z</time></trkpt><trkpt lat="43.289079657234126" lon="11.374137604233207"><ele>210.0</ele><time>2026-04-06T15:29:46Z</time></trkpt><trkpt lat="43.289084806708736" lon="11.374258303286613"><ele>208.4</ele><time>2026-04-06T15:29:47Z</time></trkpt><trkpt lat="43.28909075164431" lon="11.374384229684926"><ele>206.8</ele><time>2026-04-06T15:29:48Z</time></trkpt><trkpt lat="43.289113127843635" lon="11.374520080165453"><ele>205.2</ele><time>2026-04-06T15:29:49Z</time></trkpt><trkpt lat="43.28911210153174" lon="11.374653872966523"><ele>203.6</ele><time>2026-04-06T15:29:50Z</time></trkpt><trkpt lat="43.28912094484153" lon="11.374798028850503"><ele>202.0</ele><time>2026-04-06T15:29:51Z</time></trkpt><trkpt lat="43.28912453603451" lon="11.374937439638305"><ele>200.39999999999998</ele><time>2026-04-06T15:29:52Z</time></trkpt><trkpt lat="43.289131208374414" lon="11.375075780447846"><ele>198.79999999999998</ele><time>2026-04-06T15:29:53Z</time></trkpt><trkpt lat="43.28913604282737" lon="11.375204235737865"><ele>197.2</ele><time>2026-04-06T15:29:54Z</time></trkpt><trkpt lat="43.289136521422265" lon="11.375331759586475"><ele>195.6</ele><time>2026-04-06T15:29:55Z</time></trkpt><trkpt lat="43.28913968137849" lon="11.375455695556353"><ele>194.0</ele><time>2026-04-06T15:29:56Z</time></trkpt><trkpt lat="43.28914235922786" lon="11.375592516667455"><ele>192.66666666666669</ele><time>2026-04-06T15:29:57Z</time></trkpt><trkpt lat="43.28914724975354" lon="11.375706485269507"><ele>191.33333333333334</ele><time>2026-04-06T15:29:58Z</time></trkpt><trkpt lat="43.28913397030893" lon="11.375826203260932"><ele>190.0</ele><time>2026-04-06T15:29:59Z</time></trkpt><trkpt lat="43.28915289170584" lon="11.375933700822104"><ele>188.66666666666669</ele><time>2026-04-06T15:30:00Z</time></trkpt><trkpt lat="43.28915401146931" lon="11.37605264412844"><ele>187.33333333333334</ele><time>2026-04-06T15:30:01Z</time></trkpt><trkpt lat="43.28915348806807" lon="11.376172230223741"><ele>186.0</ele><time>2026-04-06T15:30:02Z</time></trkpt><trkpt lat="43.28915983553185" lon="11.37629834230106"><ele>185.4</ele><time>2026-04-06T15:30:03Z</time></trkpt><trkpt lat="43.28916407150842" lon="11.376421608666332"><ele>184.8</ele><time>2026-04-06T15:30:04Z</time></trkpt><trkpt lat="43.289166094632634" lon="11.37655939548888"><ele>184.20000000000002</ele><time>2026-04-06T15:30:05Z</time></trkpt><trkpt lat="43.28918208136926" lon="11.376696488806342"><ele>183.60000000000002</ele><time>2026-04-06T15:30:06Z</time></trkpt><trkpt lat="43.289181081334284" lon="11.37684463071742"><ele>183.0</ele><time>2026-04-06T15:30:07Z</time></trkpt><trkpt lat="43.2891967187977" lon="11.376997383816603"><ele>183.0</ele><time>2026-04-06T15:30:08Z</time></trkpt><trkpt lat="43.28921418897439" lon="11.377161831324178"><ele>183.0</ele><time>2026-04-06T15:30:09Z</time></trkpt><trkpt lat="43.28924100960223" lon="11.377298413193305"><ele>183.0</ele><time>2026-04-06T15:30:10Z</time></trkpt><trkpt lat="43.289246862642244" lon="11.377430179434931"><ele>183.0</ele><time>2026-04-06T15:30:10.999Z</time></trkpt><trkpt lat="43.28924767005745" lon="11.377559765149831"><ele>183.0</ele><time>2026-04-06T15:30:11.999Z</time></trkpt><trkpt lat="43.28923872605742" lon="11.377674858710186"><ele>183.0</ele><time>2026-04-06T15:30:12.999Z</time></trkpt><trkpt lat="43.289169020372135" lon="11.377806359634954"><ele>183.0</ele><time>2026-04-06T15:30:14.999Z</time></trkpt><trkpt lat="43.28906448601453" lon="11.377878221881385"><ele>183.0</ele><time>2026-04-06T15:30:16.999Z</time></trkpt><trkpt lat="43.288983344984096" lon="11.377943856830933"><ele>183.0</ele><time>2026-04-06T15:30:17.999Z</time></trkpt><trkpt lat="43.28887846006371" lon="11.377999689274061"><ele>183.0</ele><time>2026-04-06T15:30:18.999Z</time></trkpt><trkpt lat="43.288778504056516" lon="11.378053822179876"><ele>186.0</ele><time>2026-04-06T15:30:19.999Z</time></trkpt><trkpt lat="43.28868275490973" lon="11.378114278566219"><ele>189.0</ele><time>2026-04-06T15:30:20.999Z</time></trkpt><trkpt lat="43.28858889470059" lon="11.37817192849808"><ele>192.0</ele><time>2026-04-06T15:30:21.999Z</time></trkpt><trkpt lat="43.28849580423645" lon="11.378232464223386"><ele>195.0</ele><time>2026-04-06T15:30:22.999Z</time></trkpt><trkpt lat="43.28840824104849" lon="11.378305130200149"><ele>198.0</ele><time>2026-04-06T15:30:23.999Z</time></trkpt><trkpt lat="43.288325635986595" lon="11.378386952257914"><ele>198.0</ele><time>2026-04-06T15:30:24.999Z</time></trkpt><trkpt lat="43.28825617632293" lon="11.378468379876153"><ele>198.0</ele><time>2026-04-06T15:30:25.999Z</time></trkpt><trkpt lat="43.28818398424228" lon="11.378567168016094"><ele>198.0</ele><time>2026-04-06T15:30:26.999Z</time></trkpt><trkpt lat="43.28812375338688" lon="11.378655892017422"><ele>198.0</ele><time>2026-04-06T15:30:27.999Z</time></trkpt><trkpt lat="43.28808059795528" lon="11.378723060906003"><ele>198.0</ele><time>2026-04-06T15:30:28.999Z</time></trkpt><trkpt lat="43.28801453330767" lon="11.378868435794606"><ele>198.33333333333334</ele><time>2026-04-06T15:30:30.999Z</time></trkpt><trkpt lat="43.2879860665969" lon="11.378972697336355"><ele>198.66666666666669</ele><time>2026-04-06T15:30:31.999Z</time></trkpt><trkpt lat="43.28798474221433" lon="11.379095613238015"><ele>199.0</ele><time>2026-04-06T15:30:32.999Z</time></trkpt><trkpt lat="43.28798979890481" lon="11.379205148437977"><ele>199.33333333333334</ele><time>2026-04-06T15:30:33.999Z</time></trkpt><trkpt lat="43.28799907957349" lon="11.379298673169608"><ele>199.66666666666669</ele><time>2026-04-06T15:30:34.999Z</time></trkpt><trkpt lat="43.28800962300063" lon="11.379428598330433"><ele>200.0</ele><time>2026-04-06T15:30:36.999Z</time></trkpt><trkpt lat="43.288010362659456" lon="11.379516014584059"><ele>200.0</ele><time>2026-04-06T15:30:39.999Z</time></trkpt><trkpt lat="43.28785543518264" lon="11.37959149045741"><ele>200.0</ele><time>2026-04-06T15:30:40.999Z</time></trkpt><trkpt lat="43.28774816786542" lon="11.379635785495548"><ele>200.0</ele><time>2026-04-06T15:30:41.999Z</time></trkpt><trkpt lat="43.28764408042703" lon="11.379682420283732"><ele>200.0</ele><time>2026-04-06T15:30:43Z</time></trkpt><trkpt lat="43.28753569768832" lon="11.379744887565531"><ele>199.5</ele><time>2026-04-06T15:30:44Z</time></trkpt><trkpt lat="43.28741505227979" lon="11.37980834970599"><ele>199.0</ele><time>2026-04-06T15:30:45Z</time></trkpt><trkpt lat="43.287288088433264" lon="11.379858510116652"><ele>198.5</ele><time>2026-04-06T15:30:46Z</time></trkpt><trkpt lat="43.28715555954143" lon="11.379877657193282"><ele>198.0</ele><time>2026-04-06T15:30:47Z</time></trkpt><trkpt lat="43.287024804822686" lon="11.379867566512612"><ele>197.25</ele><time>2026-04-06T15:30:48Z</time></trkpt><trkpt lat="43.28690221946738" lon="11.379847785325808"><ele>196.5</ele><time>2026-04-06T15:30:49Z</time></trkpt><trkpt lat="43.28677493091036" lon="11.379821699353"><ele>195.75</ele><time>2026-04-06T15:30:50Z</time></trkpt><trkpt lat="43.28664789770802" lon="11.379787811826864"><ele>195.0</ele><time>2026-04-06T15:30:51Z</time></trkpt><trkpt lat="43.2865184523146" lon="11.37974601055828"><ele>194.5</ele><time>2026-04-06T15:30:52Z</time></trkpt><trkpt lat="43.28638985408251" lon="11.37969081027485"><ele>194.0</ele><time>2026-04-06T15:30:53Z</time></trkpt><trkpt lat="43.286262056526205" lon="11.379616831994284"><ele>193.5</ele><time>2026-04-06T15:30:54Z</time></trkpt><trkpt lat="43.28613409923644" lon="11.379532806037224"><ele>193.0</ele><time>2026-04-06T15:30:55Z</time></trkpt><trkpt lat="43.28600619703133" lon="11.379447406152359"><ele>193.25</ele><time>2026-04-06T15:30:56Z</time></trkpt><trkpt lat="43.285882079470504" lon="11.379354259336873"><ele>193.5</ele><time>2026-04-06T15:30:57Z</time></trkpt><trkpt lat="43.28575821323174" lon="11.379262076271823"><ele>193.75</ele><time>2026-04-06T15:30:58Z</time></trkpt><trkpt lat="43.28562653036927" lon="11.37917206122833"><ele>194.0</ele><time>2026-04-06T15:30:59Z</time></trkpt><trkpt lat="43.28549326644404" lon="11.379093198844746"><ele>194.0</ele><time>2026-04-06T15:31:00Z</time></trkpt><trkpt lat="43.285355515571766" lon="11.37903425283341"><ele>194.0</ele><time>2026-04-06T15:31:01Z</time></trkpt><trkpt lat="43.28520861373456" lon="11.378991489082784"><ele>194.0</ele><time>2026-04-06T15:31:02Z</time></trkpt><trkpt lat="43.2850499161958" lon="11.378969852846238"><ele>194.0</ele><time>2026-04-06T15:31:03Z</time></trkpt><trkpt lat="43.28488877111989" lon="11.378960608091154"><ele>194.0</ele><time>2026-04-06T15:31:04Z</time></trkpt><trkpt lat="43.284739129672744" lon="11.378952328015634"><ele>194.0</ele><time>2026-04-06T15:31:05Z</time></trkpt><trkpt lat="43.28459711142212" lon="11.378939978843507"><ele>193.75</ele><time>2026-04-06T15:31:06Z</time></trkpt><trkpt lat="43.284464456811385" lon="11.378923823087522"><ele>193.5</ele><time>2026-04-06T15:31:07Z</time></trkpt><trkpt lat="43.284336014309105" lon="11.378890666977627"><ele>193.25</ele><time>2026-04-06T15:31:08Z</time></trkpt><trkpt lat="43.28421676138123" lon="11.378828375731482"><ele>193.0</ele><time>2026-04-06T15:31:09Z</time></trkpt><trkpt lat="43.28410860522861" lon="11.378733028398452"><ele>191.5</ele><time>2026-04-06T15:31:10Z</time></trkpt><trkpt lat="43.28402168768346" lon="11.378611350401242"><ele>190.0</ele><time>2026-04-06T15:31:11Z</time></trkpt><trkpt lat="43.28395309443443" lon="11.378459343237747"><ele>188.5</ele><time>2026-04-06T15:31:12Z</time></trkpt><trkpt lat="43.283890671206095" lon="11.378290905496474"><ele>187.0</ele><time>2026-04-06T15:31:13Z</time></trkpt><trkpt lat="43.283825954135175" lon="11.378134899940791"><ele>185.0</ele><time>2026-04-06T15:31:14Z</time></trkpt><trkpt lat="43.28374509273543" lon="11.378006122984942"><ele>183.0</ele><time>2026-04-06T15:31:15Z</time></trkpt><trkpt lat="43.283645919239135" lon="11.377904150043783"><ele>181.0</ele><time>2026-04-06T15:31:16Z</time></trkpt><trkpt lat="43.28352959367024" lon="11.377822324908584"><ele>179.0</ele><time>2026-04-06T15:31:17Z</time></trkpt><trkpt lat="43.28339554048007" lon="11.377766693143426"><ele>179.0</ele><time>2026-04-06T15:31:18Z</time></trkpt><trkpt lat="43.28325240255813" lon="11.377745232625118"><ele>179.0</ele><time>2026-04-06T15:31:19Z</time></trkpt><trkpt lat="43.28310624621446" lon="11.377761247807445"><ele>179.0</ele><time>2026-04-06T15:31:20Z</time></trkpt><trkpt lat="43.28295956145229" lon="11.377803341675436"><ele>179.0</ele><time>2026-04-06T15:31:21Z</time></trkpt><trkpt lat="43.28282640747499" lon="11.377860033086389"><ele>178.75</ele><time>2026-04-06T15:31:22Z</time></trkpt><trkpt lat="43.28270109443451" lon="11.37791098009189"><ele>178.5</ele><time>2026-04-06T15:31:23Z</time></trkpt><trkpt lat="43.282579582095316" lon="11.377937316359153"><ele>178.25</ele><time>2026-04-06T15:31:24Z</time></trkpt><trkpt lat="43.282463415927566" lon="11.377931634380062"><ele>178.0</ele><time>2026-04-06T15:31:25Z</time></trkpt><trkpt lat="43.2823537037739" lon="11.377900273260048"><ele>177.75</ele><time>2026-04-06T15:31:26Z</time></trkpt><trkpt lat="43.28225664569199" lon="11.377844439849428"><ele>177.5</ele><time>2026-04-06T15:31:27Z</time></trkpt><trkpt lat="43.282165416590665" lon="11.377756834665245"><ele>177.25</ele><time>2026-04-06T15:31:28Z</time></trkpt><trkpt lat="43.282083673577255" lon="11.377641631763488"><ele>177.0</ele><time>2026-04-06T15:31:29Z</time></trkpt><trkpt lat="43.2820171982468" lon="11.37749997885176"><ele>177.0</ele><time>2026-04-06T15:31:30Z</time></trkpt><trkpt lat="43.281969005932595" lon="11.37733540938636"><ele>177.0</ele><time>2026-04-06T15:31:31Z</time></trkpt><trkpt lat="43.28193249990234" lon="11.377164291173088"><ele>177.0</ele><time>2026-04-06T15:31:32Z</time></trkpt><trkpt lat="43.281900184623275" lon="11.377009189186031"><ele>177.0</ele><time>2026-04-06T15:31:33Z</time></trkpt><trkpt lat="43.28187210478374" lon="11.376876510143202"><ele>177.0</ele><time>2026-04-06T15:31:34Z</time></trkpt><trkpt lat="43.281856610386825" lon="11.376772137548512"><ele>177.0</ele><time>2026-04-06T15:31:35Z</time></trkpt><trkpt lat="43.28186071751211" lon="11.376679727585918"><ele>177.0</ele><time>2026-04-06T15:31:36Z</time></trkpt><trkpt lat="43.28189078303974" lon="11.376573653665947"><ele>177.0</ele><time>2026-04-06T15:31:37Z</time></trkpt><trkpt lat="43.28193766680478" lon="11.376454303302985"><ele>177.0</ele><time>2026-04-06T15:31:38Z</time></trkpt><trkpt lat="43.28197234772526" lon="11.376327051315906"><ele>177.0</ele><time>2026-04-06T15:31:39Z</time></trkpt><trkpt lat="43.28196471314764" lon="11.376200066652984"><ele>177.0</ele><time>2026-04-06T15:31:40Z</time></trkpt><trkpt lat="43.281917199694405" lon="11.376086760086217"><ele>177.0</ele><time>2026-04-06T15:31:41Z</time></trkpt><trkpt lat="43.28184359260694" lon="11.376014316653395"><ele>177.0</ele><time>2026-04-06T15:31:42Z</time></trkpt><trkpt lat="43.28175691816927" lon="11.37598439762797"><ele>177.0</ele><time>2026-04-06T15:31:43Z</time></trkpt><trkpt lat="43.281663152531046" lon="11.375982894700623"><ele>177.0</ele><time>2026-04-06T15:31:44Z</time></trkpt><trkpt lat="43.28156700887868" lon="11.376090287712673"><ele>177.0</ele><time>2026-04-06T15:31:45Z</time></trkpt><trkpt lat="43.28148615698652" lon="11.376224916700552"><ele>177.0</ele><time>2026-04-06T15:31:46Z</time></trkpt><trkpt lat="43.28140874500989" lon="11.376361077807623"><ele>177.0</ele><time>2026-04-06T15:31:47Z</time></trkpt><trkpt lat="43.2813020847184" lon="11.376464106220807"><ele>177.0</ele><time>2026-04-06T15:31:48Z</time></trkpt><trkpt lat="43.28114179311546" lon="11.376523123698716"><ele>176.66666666666666</ele><time>2026-04-06T15:31:49Z</time></trkpt><trkpt lat="43.28095207267901" lon="11.376576869514938"><ele>176.33333333333331</ele><time>2026-04-06T15:31:50Z</time></trkpt><trkpt lat="43.2807713030868" lon="11.376632597367339"><ele>176.0</ele><time>2026-04-06T15:31:51Z</time></trkpt><trkpt lat="43.280594696907556" lon="11.376698137374426"><ele>177.0</ele><time>2026-04-06T15:31:52Z</time></trkpt><trkpt lat="43.28040335755741" lon="11.376776688259174"><ele>178.0</ele><time>2026-04-06T15:31:53Z</time></trkpt><trkpt lat="43.28019392686948" lon="11.376842301440924"><ele>179.0</ele><time>2026-04-06T15:31:54Z</time></trkpt><trkpt lat="43.27995660711948" lon="11.376891480008291"><ele>179.5</ele><time>2026-04-06T15:31:55Z</time></trkpt><trkpt lat="43.27969963018158" lon="11.376925811922217"><ele>180.0</ele><time>2026-04-06T15:31:56Z</time></trkpt><trkpt lat="43.27943212511245" lon="11.3769416074159"><ele>180.0</ele><time>2026-04-06T15:31:57Z</time></trkpt><trkpt lat="43.279155784068934" lon="11.376930348448795"><ele>180.0</ele><time>2026-04-06T15:31:58Z</time></trkpt><trkpt lat="43.278858240724254" lon="11.376904064385311"><ele>178.5</ele><time>2026-04-06T15:31:59Z</time></trkpt><trkpt lat="43.27852320631556" lon="11.376835688896318"><ele>177.0</ele><time>2026-04-06T15:32:00Z</time></trkpt><trkpt lat="43.278181897436305" lon="11.376753901233826"><ele>176.5</ele><time>2026-04-06T15:32:01Z</time></trkpt><trkpt lat="43.27782356284526" lon="11.37666892981978"><ele>176.0</ele><time>2026-04-06T15:32:02Z</time></trkpt><trkpt lat="43.277468957279545" lon="11.376615445953185"><ele>177.5</ele><time>2026-04-06T15:32:03Z</time></trkpt><trkpt lat="43.277141115627" lon="11.376599263671297"><ele>179.0</ele><time>2026-04-06T15:32:04Z</time></trkpt><trkpt lat="43.276826202044994" lon="11.376635079351498"><ele>179.0</ele><time>2026-04-06T15:32:05Z</time></trkpt><trkpt lat="43.27649039692959" lon="11.37672214305143"><ele>179.0</ele><time>2026-04-06T15:32:06Z</time></trkpt><trkpt lat="43.27613984653532" lon="11.376855224828399"><ele>179.5</ele><time>2026-04-06T15:32:07Z</time></trkpt><trkpt lat="43.27578188594712" lon="11.377008884467344"><ele>180.0</ele><time>2026-04-06T15:32:08Z</time></trkpt><trkpt lat="43.275459877209165" lon="11.377154947026238"><ele>179.5</ele><time>2026-04-06T15:32:09Z</time></trkpt><trkpt lat="43.27516772422895" lon="11.377288626555627"><ele>179.0</ele><time>2026-04-06T15:32:10Z</time></trkpt><trkpt lat="43.274899817757756" lon="11.37740091796858"><ele>180.0</ele><time>2026-04-06T15:32:11Z</time></trkpt><trkpt lat="43.27464934337482" lon="11.377498726000262"><ele>181.0</ele><time>2026-04-06T15:32:12Z</time></trkpt><trkpt lat="43.27441554196902" lon="11.377591377889276"><ele>181.0</ele><time>2026-04-06T15:32:13Z</time></trkpt><trkpt lat="43.27419670496647" lon="11.377679680499972"><ele>181.0</ele><time>2026-04-06T15:32:14Z</time></trkpt><trkpt lat="43.273982700460685" lon="11.37776661939246"><ele>182.66666666666669</ele><time>2026-04-06T15:32:15Z</time></trkpt><trkpt lat="43.27377733856723" lon="11.377849709110988"><ele>184.33333333333334</ele><time>2026-04-06T15:32:16Z</time></trkpt><trkpt lat="43.273577982408945" lon="11.377931695700937"><ele>186.0</ele><time>2026-04-06T15:32:17Z</time></trkpt><trkpt lat="43.273371733057104" lon="11.378016724235586"><ele>183.0</ele><time>2026-04-06T15:32:18Z</time></trkpt><trkpt lat="43.27317088431592" lon="11.378104939129587"><ele>180.0</ele><time>2026-04-06T15:32:18.999Z</time></trkpt><trkpt lat="43.272969832768894" lon="11.378189497245748"><ele>177.0</ele><time>2026-04-06T15:32:19.999Z</time></trkpt><trkpt lat="43.27276962284974" lon="11.37827596532161"><ele>177.0</ele><time>2026-04-06T15:32:20.999Z</time></trkpt><trkpt lat="43.27257161701944" lon="11.378359518729921"><ele>177.0</ele><time>2026-04-06T15:32:21.999Z</time></trkpt><trkpt lat="43.27237170690849" lon="11.378437091619377"><ele>177.0</ele><time>2026-04-06T15:32:22.999Z</time></trkpt><trkpt lat="43.272166072838154" lon="11.378512176049668"><ele>177.0</ele><time>2026-04-06T15:32:23.999Z</time></trkpt><trkpt lat="43.27195758007923" lon="11.378578635113993"><ele>177.0</ele><time>2026-04-06T15:32:24.999Z</time></trkpt><trkpt lat="43.27174187508267" lon="11.378623241268656"><ele>177.0</ele><time>2026-04-06T15:32:25.999Z</time></trkpt><trkpt lat="43.27152789467285" lon="11.378642833434787"><ele>176.66666666666666</ele><time>2026-04-06T15:32:26.999Z</time></trkpt><trkpt lat="43.27130886239648" lon="11.37864518156711"><ele>176.33333333333331</ele><time>2026-04-06T15:32:27.999Z</time></trkpt><trkpt lat="43.27108844969144" lon="11.378629626837535"><ele>176.0</ele><time>2026-04-06T15:32:28.999Z</time></trkpt><trkpt lat="43.270865875862484" lon="11.378602161743755"><ele>176.0</ele><time>2026-04-06T15:32:29.999Z</time></trkpt><trkpt lat="43.27064833386405" lon="11.378553120041301"><ele>176.0</ele><time>2026-04-06T15:32:30.999Z</time></trkpt><trkpt lat="43.27043512419654" lon="11.37848233186761"><ele>176.0</ele><time>2026-04-06T15:32:31.999Z</time></trkpt><trkpt lat="43.2702270555833" lon="11.378398676968498"><ele>176.33333333333331</ele><time>2026-04-06T15:32:32.999Z</time></trkpt><trkpt lat="43.27002121068257" lon="11.378300367710644"><ele>176.66666666666666</ele><time>2026-04-06T15:32:33.999Z</time></trkpt><trkpt lat="43.26982919351419" lon="11.378179208311975"><ele>177.0</ele><time>2026-04-06T15:32:34.999Z</time></trkpt><trkpt lat="43.26963940335767" lon="11.378052405688136"><ele>179.33333333333334</ele><time>2026-04-06T15:32:35.999Z</time></trkpt><trkpt lat="43.269474014534794" lon="11.377892645504415"><ele>181.66666666666669</ele><time>2026-04-06T15:32:36.999Z</time></trkpt><trkpt lat="43.26932045490054" lon="11.377756480163075"><ele>184.0</ele><time>2026-04-06T15:32:37.999Z</time></trkpt><trkpt lat="43.26919136017095" lon="11.377608307605843"><ele>184.0</ele><time>2026-04-06T15:32:38.999Z</time></trkpt><trkpt lat="43.26905745545811" lon="11.377507683574677"><ele>184.0</ele><time>2026-04-06T15:32:39.999Z</time></trkpt><trkpt lat="43.26897862703274" lon="11.37731252091284"><ele>184.0</ele><time>2026-04-06T15:32:40.999Z</time></trkpt><trkpt lat="43.26886527056695" lon="11.377181969759635"><ele>182.33333333333334</ele><time>2026-04-06T15:32:41.999Z</time></trkpt><trkpt lat="43.26873945250594" lon="11.377071347108782"><ele>180.66666666666666</ele><time>2026-04-06T15:32:42.999Z</time></trkpt><trkpt lat="43.26860023433582" lon="11.37697255500206"><ele>179.0</ele><time>2026-04-06T15:32:43.999Z</time></trkpt><trkpt lat="43.268453386024355" lon="11.37688544413459"><ele>179.0</ele><time>2026-04-06T15:32:44.999Z</time></trkpt><trkpt lat="43.268307505532455" lon="11.376809437823095"><ele>179.0</ele><time>2026-04-06T15:32:45.999Z</time></trkpt><trkpt lat="43.26816260575524" lon="11.376733995539333"><ele>179.0</ele><time>2026-04-06T15:32:46.999Z</time></trkpt><trkpt lat="43.268021112364224" lon="11.376658509346871"><ele>178.5</ele><time>2026-04-06T15:32:48Z</time></trkpt><trkpt lat="43.26788746619881" lon="11.376587045541953"><ele>178.0</ele><time>2026-04-06T15:32:49Z</time></trkpt><trkpt lat="43.267749544760974" lon="11.376524818380283"><ele>177.5</ele><time>2026-04-06T15:32:50Z</time></trkpt><trkpt lat="43.267608305813" lon="11.376480691246124"><ele>177.0</ele><time>2026-04-06T15:32:51Z</time></trkpt><trkpt lat="43.26746970046539" lon="11.376444271284496"><ele>177.0</ele><time>2026-04-06T15:32:52Z</time></trkpt><trkpt lat="43.267333184452106" lon="11.376405285110733"><ele>177.0</ele><time>2026-04-06T15:32:53Z</time></trkpt><trkpt lat="43.26719465833997" lon="11.376357093862207"><ele>177.0</ele><time>2026-04-06T15:32:54Z</time></trkpt><trkpt lat="43.26705657469789" lon="11.37629150676586"><ele>177.0</ele><time>2026-04-06T15:32:55Z</time></trkpt><trkpt lat="43.266919252578795" lon="11.376214231260173"><ele>176.75</ele><time>2026-04-06T15:32:56Z</time></trkpt><trkpt lat="43.266784487866396" lon="11.376138291483628"><ele>176.5</ele><time>2026-04-06T15:32:57Z</time></trkpt><trkpt lat="43.26665420636357" lon="11.376069948806567"><ele>176.25</ele><time>2026-04-06T15:32:58Z</time></trkpt><trkpt lat="43.266526213156006" lon="11.376001586997528"><ele>176.0</ele><time>2026-04-06T15:32:59Z</time></trkpt><trkpt lat="43.266396220142965" lon="11.375932816079931"><ele>176.0</ele><time>2026-04-06T15:33:00Z</time></trkpt><trkpt lat="43.266256895621105" lon="11.37585801741662"><ele>176.0</ele><time>2026-04-06T15:33:01Z</time></trkpt><trkpt lat="43.2661168939177" lon="11.375786177146807"><ele>176.0</ele><time>2026-04-06T15:33:02Z</time></trkpt><trkpt lat="43.265968878566994" lon="11.375711624361944"><ele>176.0</ele><time>2026-04-06T15:33:03Z</time></trkpt><trkpt lat="43.265823377514494" lon="11.375638727286331"><ele>176.0</ele><time>2026-04-06T15:33:04Z</time></trkpt><trkpt lat="43.26567602336122" lon="11.375563063677365"><ele>176.0</ele><time>2026-04-06T15:33:05Z</time></trkpt><trkpt lat="43.26553299964942" lon="11.375487110088404"><ele>176.0</ele><time>2026-04-06T15:33:06Z</time></trkpt><trkpt lat="43.26538798502447" lon="11.375413066966452"><ele>176.0</ele><time>2026-04-06T15:33:07Z</time></trkpt><trkpt lat="43.26524354795373" lon="11.375337124997165"><ele>176.0</ele><time>2026-04-06T15:33:08Z</time></trkpt><trkpt lat="43.26509399206737" lon="11.375259820371625"><ele>176.0</ele><time>2026-04-06T15:33:09Z</time></trkpt><trkpt lat="43.264945150553324" lon="11.375184281905595"><ele>176.0</ele><time>2026-04-06T15:33:10Z</time></trkpt><trkpt lat="43.26478938604523" lon="11.37510459870392"><ele>176.0</ele><time>2026-04-06T15:33:11Z</time></trkpt><trkpt lat="43.26463403520968" lon="11.375020423308326"><ele>176.0</ele><time>2026-04-06T15:33:12Z</time></trkpt><trkpt lat="43.26447729204692" lon="11.374938388106754"><ele>176.0</ele><time>2026-04-06T15:33:13Z</time></trkpt><trkpt lat="43.26431525705858" lon="11.374853977097585"><ele>176.0</ele><time>2026-04-06T15:33:14Z</time></trkpt><trkpt lat="43.26415280507353" lon="11.374770541739084"><ele>176.0</ele><time>2026-04-06T15:33:15Z</time></trkpt><trkpt lat="43.26399177968693" lon="11.374687600764029"><ele>176.0</ele><time>2026-04-06T15:33:16Z</time></trkpt><trkpt lat="43.26383167663622" lon="11.374599723467119"><ele>176.0</ele><time>2026-04-06T15:33:17Z</time></trkpt><trkpt lat="43.2636706711337" lon="11.374512550502333"><ele>176.0</ele><time>2026-04-06T15:33:18Z</time></trkpt><trkpt lat="43.26351011067315" lon="11.37442996663202"><ele>176.0</ele><time>2026-04-06T15:33:19Z</time></trkpt><trkpt lat="43.263346956763705" lon="11.37434372494114"><ele>176.0</ele><time>2026-04-06T15:33:20Z</time></trkpt><trkpt lat="43.2631882749164" lon="11.374261733836539"><ele>176.33333333333331</ele><time>2026-04-06T15:33:21Z</time></trkpt><trkpt lat="43.26302742034991" lon="11.374181386147049"><ele>176.66666666666666</ele><time>2026-04-06T15:33:22Z</time></trkpt><trkpt lat="43.26287469641255" lon="11.374106945426318"><ele>177.0</ele><time>2026-04-06T15:33:23Z</time></trkpt><trkpt lat="43.26273506620405" lon="11.374038222239696"><ele>177.0</ele><time>2026-04-06T15:33:24Z</time></trkpt><trkpt lat="43.262609895763084" lon="11.373970702579404"><ele>177.0</ele><time>2026-04-06T15:33:25Z</time></trkpt><trkpt lat="43.262501726455284" lon="11.373905340625585"><ele>177.0</ele><time>2026-04-06T15:33:26Z</time></trkpt><trkpt lat="43.262413413208854" lon="11.373837368561121"><ele>177.0</ele><time>2026-04-06T15:33:27Z</time></trkpt><trkpt lat="43.26235519838445" lon="11.373768383214959"><ele>177.0</ele><time>2026-04-06T15:33:28Z</time></trkpt><trkpt lat="43.26230316840637" lon="11.373639020862534"><ele>177.14285714285714</ele><time>2026-04-06T15:33:30Z</time></trkpt><trkpt lat="43.26229298088903" lon="11.37355291273694"><ele>177.28571428571428</ele><time>2026-04-06T15:33:31Z</time></trkpt><trkpt lat="43.26228425561149" lon="11.37344152127915"><ele>177.42857142857142</ele><time>2026-04-06T15:33:32Z</time></trkpt><trkpt lat="43.26225734457975" lon="11.373357063600277"><ele>177.57142857142856</ele><time>2026-04-06T15:33:33Z</time></trkpt><trkpt lat="43.2622023454382" lon="11.373294673538965"><ele>177.71428571428572</ele><time>2026-04-06T15:33:34Z</time></trkpt><trkpt lat="43.26212989369683" lon="11.373264189476943"><ele>177.85714285714283</ele><time>2026-04-06T15:33:35Z</time></trkpt><trkpt lat="43.26205528845359" lon="11.373282354239654"><ele>178.0</ele><time>2026-04-06T15:33:36Z</time></trkpt><trkpt lat="43.26198281896662" lon="11.37334069872497"><ele>178.0</ele><time>2026-04-06T15:33:37Z</time></trkpt><trkpt lat="43.26193088240742" lon="11.373438381195156"><ele>178.0</ele><time>2026-04-06T15:33:38Z</time></trkpt><trkpt lat="43.261902121943066" lon="11.37356578848624"><ele>178.0</ele><time>2026-04-06T15:33:39Z</time></trkpt><trkpt lat="43.2618681343511" lon="11.373707196876774"><ele>178.0</ele><time>2026-04-06T15:33:40Z</time></trkpt><trkpt lat="43.261801708941654" lon="11.373838136701051"><ele>178.0</ele><time>2026-04-06T15:33:41Z</time></trkpt><trkpt lat="43.261720983874156" lon="11.373949505200807"><ele>177.75</ele><time>2026-04-06T15:33:42Z</time></trkpt><trkpt lat="43.261629282103954" lon="11.374055357857717"><ele>177.5</ele><time>2026-04-06T15:33:43Z</time></trkpt><trkpt lat="43.26153084310731" lon="11.374166231213295"><ele>177.25</ele><time>2026-04-06T15:33:44Z</time></trkpt><trkpt lat="43.261430699448816" lon="11.374285795362603"><ele>177.0</ele><time>2026-04-06T15:33:45Z</time></trkpt><trkpt lat="43.26132531442635" lon="11.374417120321068"><ele>176.75</ele><time>2026-04-06T15:33:46Z</time></trkpt><trkpt lat="43.2612176967245" lon="11.374545802539776"><ele>176.5</ele><time>2026-04-06T15:33:47Z</time></trkpt><trkpt lat="43.26111143496204" lon="11.374668224527634"><ele>176.25</ele><time>2026-04-06T15:33:48Z</time></trkpt><trkpt lat="43.2610054271781" lon="11.374790684289286"><ele>176.0</ele><time>2026-04-06T15:33:49Z</time></trkpt><trkpt lat="43.260901142488784" lon="11.374915542076636"><ele>175.75</ele><time>2026-04-06T15:33:50Z</time></trkpt><trkpt lat="43.260793725547465" lon="11.37504214533797"><ele>175.5</ele><time>2026-04-06T15:33:51Z</time></trkpt><trkpt lat="43.260691198608846" lon="11.375162979939315"><ele>175.25</ele><time>2026-04-06T15:33:52Z</time></trkpt><trkpt lat="43.26059845796463" lon="11.375273186239331"><ele>175.0</ele><time>2026-04-06T15:33:53Z</time></trkpt><trkpt lat="43.260513399335544" lon="11.37537491757626"><ele>175.0</ele><time>2026-04-06T15:33:54Z</time></trkpt><trkpt lat="43.26043208866621" lon="11.375471501826409"><ele>175.0</ele><time>2026-04-06T15:33:55Z</time></trkpt><trkpt lat="43.260357364832515" lon="11.375560419290995"><ele>175.0</ele><time>2026-04-06T15:33:56Z</time></trkpt><trkpt lat="43.2602885833627" lon="11.37564575326976"><ele>175.0</ele><time>2026-04-06T15:33:57Z</time></trkpt><trkpt lat="43.26022764308543" lon="11.375728092756177"><ele>175.0</ele><time>2026-04-06T15:33:58Z</time></trkpt><trkpt lat="43.260182589627" lon="11.375802764943986"><ele>175.0</ele><time>2026-04-06T15:33:59Z</time></trkpt><trkpt lat="43.26011330152951" lon="11.37593113612284"><ele>175.0</ele><time>2026-04-06T15:34:01Z</time></trkpt><trkpt lat="43.26007154378477" lon="11.376059032231398"><ele>175.0</ele><time>2026-04-06T15:34:03Z</time></trkpt><trkpt lat="43.2600499136052" lon="11.376201385533623"><ele>175.0</ele><time>2026-04-06T15:34:05Z</time></trkpt><trkpt lat="43.260034755367705" lon="11.376341388002968"><ele>175.0</ele><time>2026-04-06T15:34:07Z</time></trkpt><trkpt lat="43.26002210744937" lon="11.376468190457654"><ele>174.66666666666669</ele><time>2026-04-06T15:34:09Z</time></trkpt><trkpt lat="43.26000922706941" lon="11.3765533064529"><ele>174.33333333333334</ele><time>2026-04-06T15:34:11Z</time></trkpt><trkpt lat="43.25999892578333" lon="11.376684232857263"><ele>174.0</ele><time>2026-04-06T15:38:20Z</time></trkpt><trkpt lat="43.259981524905676" lon="11.376840857248308"><ele>173.66666666666666</ele><time>2026-04-06T15:38:22Z</time></trkpt><trkpt lat="43.259970562845275" lon="11.37695145314898"><ele>173.33333333333331</ele><time>2026-04-06T15:38:23Z</time></trkpt><trkpt lat="43.259958027460485" lon="11.37707038130863"><ele>173.0</ele><time>2026-04-06T15:38:24Z</time></trkpt><trkpt lat="43.2599447204113" lon="11.377182373063068"><ele>173.0</ele><time>2026-04-06T15:38:25Z</time></trkpt><trkpt lat="43.259933491962116" lon="11.377293245315961"><ele>173.0</ele><time>2026-04-06T15:38:26Z</time></trkpt><trkpt lat="43.25992245563762" lon="11.377405018212738"><ele>173.0</ele><time>2026-04-06T15:38:27Z</time></trkpt><trkpt lat="43.25991349154675" lon="11.377523197999968"><ele>173.0</ele><time>2026-04-06T15:38:28Z</time></trkpt><trkpt lat="43.25990490009545" lon="11.377633859906343"><ele>173.0</ele><time>2026-04-06T15:38:29Z</time></trkpt><trkpt lat="43.25989802227799" lon="11.377729653117685"><ele>173.0</ele><time>2026-04-06T15:38:30Z</time></trkpt><trkpt lat="43.25988547755667" lon="11.377835632414088"><ele>173.0</ele><time>2026-04-06T15:38:31Z</time></trkpt><trkpt lat="43.25986343545709" lon="11.377954853143045"><ele>173.0</ele><time>2026-04-06T15:38:32Z</time></trkpt><trkpt lat="43.25982826788724" lon="11.378082439827264"><ele>173.0</ele><time>2026-04-06T15:38:33Z</time></trkpt><trkpt lat="43.25977752726798" lon="11.37820916724328"><ele>173.0</ele><time>2026-04-06T15:38:34Z</time></trkpt><trkpt lat="43.25970397630051" lon="11.378337340687677"><ele>173.0</ele><time>2026-04-06T15:38:35Z</time></trkpt><trkpt lat="43.259631338454035" lon="11.378457319474336"><ele>173.0</ele><time>2026-04-06T15:38:36Z</time></trkpt><trkpt lat="43.25955543657396" lon="11.378592273131547"><ele>173.0</ele><time>2026-04-06T15:38:37Z</time></trkpt><trkpt lat="43.25947426384385" lon="11.37873091683435"><ele>173.0</ele><time>2026-04-06T15:38:38Z</time></trkpt><trkpt lat="43.259384448062896" lon="11.378877013725672"><ele>173.0</ele><time>2026-04-06T15:38:39Z</time></trkpt><trkpt lat="43.25929354348834" lon="11.379025617446151"><ele>173.0</ele><time>2026-04-06T15:38:40Z</time></trkpt><trkpt lat="43.25920141522709" lon="11.379177368792094"><ele>173.0</ele><time>2026-04-06T15:38:41Z</time></trkpt><trkpt lat="43.25910534429085" lon="11.379335067401634"><ele>173.0</ele><time>2026-04-06T15:38:42Z</time></trkpt><trkpt lat="43.25900983969266" lon="11.379489860567512"><ele>173.0</ele><time>2026-04-06T15:38:43Z</time></trkpt><trkpt lat="43.25891474564199" lon="11.37964345132596"><ele>173.25</ele><time>2026-04-06T15:38:44Z</time></trkpt><trkpt lat="43.258823837360744" lon="11.379800226459128"><ele>173.5</ele><time>2026-04-06T15:38:45Z</time></trkpt><trkpt lat="43.258740637350336" lon="11.379948157564469"><ele>173.75</ele><time>2026-04-06T15:38:46Z</time></trkpt><trkpt lat="43.25866768796784" lon="11.380090164945903"><ele>174.0</ele><time>2026-04-06T15:38:47Z</time></trkpt><trkpt lat="43.25859864975521" lon="11.380229352903447"><ele>174.0</ele><time>2026-04-06T15:38:48Z</time></trkpt><trkpt lat="43.258538047473905" lon="11.380354413876415"><ele>174.0</ele><time>2026-04-06T15:38:49Z</time></trkpt><trkpt lat="43.2584794056695" lon="11.380470104827845"><ele>174.0</ele><time>2026-04-06T15:38:50Z</time></trkpt><trkpt lat="43.25841983788213" lon="11.380572418563384"><ele>174.0</ele><time>2026-04-06T15:38:51Z</time></trkpt><trkpt lat="43.2583442311249" lon="11.380656132741684"><ele>174.0</ele><time>2026-04-06T15:38:52Z</time></trkpt><trkpt lat="43.25824571519197" lon="11.380729262777992"><ele>173.75</ele><time>2026-04-06T15:38:53Z</time></trkpt><trkpt lat="43.25814105179869" lon="11.380805566884582"><ele>173.5</ele><time>2026-04-06T15:38:54Z</time></trkpt><trkpt lat="43.258035004207684" lon="11.380868443590954"><ele>173.25</ele><time>2026-04-06T15:38:55Z</time></trkpt><trkpt lat="43.25791641905567" lon="11.380916292749202"><ele>173.0</ele><time>2026-04-06T15:38:56Z</time></trkpt><trkpt lat="43.25778446066437" lon="11.380942688757479"><ele>173.0</ele><time>2026-04-06T15:38:57Z</time></trkpt><trkpt lat="43.25764259604613" lon="11.380941811030143"><ele>173.0</ele><time>2026-04-06T15:38:58Z</time></trkpt><trkpt lat="43.257502300359484" lon="11.380927640319081"><ele>173.0</ele><time>2026-04-06T15:38:59Z</time></trkpt><trkpt lat="43.257368456582114" lon="11.380928068861177"><ele>173.0</ele><time>2026-04-06T15:39:00Z</time></trkpt><trkpt lat="43.25723280553709" lon="11.380943098254331"><ele>173.25</ele><time>2026-04-06T15:39:01Z</time></trkpt><trkpt lat="43.25709110343072" lon="11.380967435115243"><ele>173.5</ele><time>2026-04-06T15:39:02Z</time></trkpt><trkpt lat="43.25695887882722" lon="11.381010952920041"><ele>173.75</ele><time>2026-04-06T15:39:03Z</time></trkpt><trkpt lat="43.256831444450306" lon="11.381086259006848"><ele>174.0</ele><time>2026-04-06T15:39:04Z</time></trkpt><trkpt lat="43.25671174495098" lon="11.381188954043774"><ele>174.0</ele><time>2026-04-06T15:39:05.001Z</time></trkpt><trkpt lat="43.25660173352717" lon="11.381306937502261"><ele>174.0</ele><time>2026-04-06T15:39:06.001Z</time></trkpt><trkpt lat="43.25649824895377" lon="11.381431205167756"><ele>174.0</ele><time>2026-04-06T15:39:07.001Z</time></trkpt><trkpt lat="43.25640716322773" lon="11.381566895657452"><ele>174.0</ele><time>2026-04-06T15:39:08.001Z</time></trkpt><trkpt lat="43.25632918430479" lon="11.381720542751419"><ele>173.75</ele><time>2026-04-06T15:39:09.001Z</time></trkpt><trkpt lat="43.25626747830502" lon="11.381886524186422"><ele>173.5</ele><time>2026-04-06T15:39:10.001Z</time></trkpt><trkpt lat="43.25621894531735" lon="11.382065852473062"><ele>173.25</ele><time>2026-04-06T15:39:11.001Z</time></trkpt><trkpt lat="43.25617550863881" lon="11.382241632300241"><ele>173.0</ele><time>2026-04-06T15:39:12.001Z</time></trkpt><trkpt lat="43.25613301386224" lon="11.382432316937125"><ele>172.75</ele><time>2026-04-06T15:39:13.001Z</time></trkpt><trkpt lat="43.25609243060236" lon="11.382624625084803"><ele>172.5</ele><time>2026-04-06T15:39:14.001Z</time></trkpt><trkpt lat="43.25605142600675" lon="11.382819050226539"><ele>172.25</ele><time>2026-04-06T15:39:15.001Z</time></trkpt><trkpt lat="43.25600626763546" lon="11.383018844506891"><ele>172.0</ele><time>2026-04-06T15:39:16.001Z</time></trkpt><trkpt lat="43.2559576040904" lon="11.383227982176855"><ele>171.33333333333334</ele><time>2026-04-06T15:39:17.001Z</time></trkpt><trkpt lat="43.25590848050323" lon="11.383439277617866"><ele>170.66666666666666</ele><time>2026-04-06T15:39:18.001Z</time></trkpt><trkpt lat="43.25585834434657" lon="11.383650499905812"><ele>170.0</ele><time>2026-04-06T15:39:19.001Z</time></trkpt><trkpt lat="43.25580654150369" lon="11.383874988846298"><ele>170.0</ele><time>2026-04-06T15:39:20.001Z</time></trkpt><trkpt lat="43.255758897190105" lon="11.384091361325149"><ele>170.0</ele><time>2026-04-06T15:39:21.001Z</time></trkpt><trkpt lat="43.25571032314969" lon="11.384311298694577"><ele>170.0</ele><time>2026-04-06T15:39:22.001Z</time></trkpt><trkpt lat="43.255659693432726" lon="11.384538097378895"><ele>170.66666666666666</ele><time>2026-04-06T15:39:23.001Z</time></trkpt><trkpt lat="43.255607629478035" lon="11.384767359890219"><ele>171.33333333333334</ele><time>2026-04-06T15:39:24.001Z</time></trkpt><trkpt lat="43.255553623918054" lon="11.384998487408984"><ele>172.0</ele><time>2026-04-06T15:39:25.001Z</time></trkpt><trkpt lat="43.255500011030186" lon="11.385228808366943"><ele>172.0</ele><time>2026-04-06T15:39:26.001Z</time></trkpt><trkpt lat="43.25544706949952" lon="11.385464897838833"><ele>172.0</ele><time>2026-04-06T15:39:27.001Z</time></trkpt><trkpt lat="43.255397242439024" lon="11.385693586816656"><ele>172.0</ele><time>2026-04-06T15:39:28.001Z</time></trkpt><trkpt lat="43.255347396799735" lon="11.3859184145733"><ele>172.33333333333334</ele><time>2026-04-06T15:39:29.001Z</time></trkpt><trkpt lat="43.25529781244457" lon="11.386143780101248"><ele>172.66666666666666</ele><time>2026-04-06T15:39:30.001Z</time></trkpt><trkpt lat="43.25525139449824" lon="11.386366522660259"><ele>173.0</ele><time>2026-04-06T15:39:31.001Z</time></trkpt><trkpt lat="43.25520842594824" lon="11.386586184654664"><ele>172.0</ele><time>2026-04-06T15:39:32.001Z</time></trkpt><trkpt lat="43.25516615794436" lon="11.386808044170067"><ele>171.0</ele><time>2026-04-06T15:39:33.001Z</time></trkpt><trkpt lat="43.25512386073532" lon="11.387029291281644"><ele>170.0</ele><time>2026-04-06T15:39:34.001Z</time></trkpt><trkpt lat="43.255077266651305" lon="11.387252799594824"><ele>169.33333333333331</ele><time>2026-04-06T15:39:35.001Z</time></trkpt><trkpt lat="43.25503214609444" lon="11.387470952310634"><ele>168.66666666666666</ele><time>2026-04-06T15:39:36Z</time></trkpt><trkpt lat="43.254988194833594" lon="11.387690610802647"><ele>168.0</ele><time>2026-04-06T15:39:37Z</time></trkpt><trkpt lat="43.25494252533197" lon="11.387915274698452"><ele>167.66666666666666</ele><time>2026-04-06T15:39:38Z</time></trkpt><trkpt lat="43.25489791320051" lon="11.388137959779625"><ele>167.33333333333331</ele><time>2026-04-06T15:39:39Z</time></trkpt><trkpt lat="43.25485029664944" lon="11.388365128031564"><ele>167.0</ele><time>2026-04-06T15:39:40Z</time></trkpt><trkpt lat="43.254803281411895" lon="11.388593057094756"><ele>167.66666666666666</ele><time>2026-04-06T15:39:41Z</time></trkpt><trkpt lat="43.254749430729674" lon="11.388819304772671"><ele>168.33333333333334</ele><time>2026-04-06T15:39:42Z</time></trkpt><trkpt lat="43.25468207117549" lon="11.389038755449441"><ele>169.0</ele><time>2026-04-06T15:39:43Z</time></trkpt><trkpt lat="43.254603511916436" lon="11.38924946079746"><ele>169.0</ele><time>2026-04-06T15:39:44Z</time></trkpt><trkpt lat="43.254520765055496" lon="11.389455572495528"><ele>169.0</ele><time>2026-04-06T15:39:45Z</time></trkpt><trkpt lat="43.25443798362617" lon="11.38966506547201"><ele>169.0</ele><time>2026-04-06T15:39:46Z</time></trkpt><trkpt lat="43.254357504007935" lon="11.3898712671757"><ele>169.33333333333334</ele><time>2026-04-06T15:39:47Z</time></trkpt><trkpt lat="43.25427831261328" lon="11.39007742727472"><ele>169.66666666666666</ele><time>2026-04-06T15:39:48Z</time></trkpt><trkpt lat="43.2541978407158" lon="11.39028996652107"><ele>170.0</ele><time>2026-04-06T15:39:49Z</time></trkpt><trkpt lat="43.25411763881705" lon="11.390503798681872"><ele>170.33333333333331</ele><time>2026-04-06T15:39:50Z</time></trkpt><trkpt lat="43.25403608024325" lon="11.390719626501882"><ele>170.66666666666666</ele><time>2026-04-06T15:39:51Z</time></trkpt><trkpt lat="43.25395368313996" lon="11.39093659395585"><ele>171.0</ele><time>2026-04-06T15:39:52Z</time></trkpt><trkpt lat="43.253871559799244" lon="11.391148490421331"><ele>170.33333333333334</ele><time>2026-04-06T15:39:53Z</time></trkpt><trkpt lat="43.25378896783386" lon="11.391364787255812"><ele>169.66666666666669</ele><time>2026-04-06T15:39:54Z</time></trkpt><trkpt lat="43.25370528790808" lon="11.391584358678905"><ele>169.0</ele><time>2026-04-06T15:39:55Z</time></trkpt><trkpt lat="43.253622287243275" lon="11.391799146039029"><ele>169.0</ele><time>2026-04-06T15:39:56Z</time></trkpt><trkpt lat="43.25353902323431" lon="11.39201101529667"><ele>169.0</ele><time>2026-04-06T15:39:57Z</time></trkpt><trkpt lat="43.253452343622136" lon="11.392228413802956"><ele>169.0</ele><time>2026-04-06T15:39:58Z</time></trkpt><trkpt lat="43.25336684168364" lon="11.39243921027376"><ele>169.33333333333334</ele><time>2026-04-06T15:39:59Z</time></trkpt><trkpt lat="43.253282117415345" lon="11.392635102542181"><ele>169.66666666666666</ele><time>2026-04-06T15:40:00Z</time></trkpt><trkpt lat="43.25320115850722" lon="11.392813391205497"><ele>170.0</ele><time>2026-04-06T15:40:01Z</time></trkpt><trkpt lat="43.253131222975526" lon="11.392987055093316"><ele>170.25</ele><time>2026-04-06T15:40:02Z</time></trkpt><trkpt lat="43.25307838911102" lon="11.393155161518427"><ele>170.5</ele><time>2026-04-06T15:40:03Z</time></trkpt><trkpt lat="43.25303253569202" lon="11.393321504700213"><ele>170.75</ele><time>2026-04-06T15:40:04Z</time></trkpt><trkpt lat="43.25298687168485" lon="11.39348123548678"><ele>171.0</ele><time>2026-04-06T15:40:05Z</time></trkpt><trkpt lat="43.252936113339885" lon="11.393632416536123"><ele>171.0</ele><time>2026-04-06T15:40:06Z</time></trkpt><trkpt lat="43.25287853935005" lon="11.39377791392156"><ele>171.0</ele><time>2026-04-06T15:40:07Z</time></trkpt><trkpt lat="43.252810872021826" lon="11.393928414525767"><ele>171.0</ele><time>2026-04-06T15:40:08Z</time></trkpt><trkpt lat="43.25273663751391" lon="11.394077130402446"><ele>171.0</ele><time>2026-04-06T15:40:09Z</time></trkpt><trkpt lat="43.25265244552145" lon="11.394219196322416"><ele>171.0</ele><time>2026-04-06T15:40:10Z</time></trkpt><trkpt lat="43.25257052553533" lon="11.394368668118199"><ele>171.0</ele><time>2026-04-06T15:40:11Z</time></trkpt><trkpt lat="43.25249760162465" lon="11.394522182979474"><ele>171.0</ele><time>2026-04-06T15:40:12Z</time></trkpt><trkpt lat="43.252418154717844" lon="11.39466496453727"><ele>171.0</ele><time>2026-04-06T15:40:13Z</time></trkpt><trkpt lat="43.252329681339454" lon="11.394805492088079"><ele>171.25</ele><time>2026-04-06T15:40:14Z</time></trkpt><trkpt lat="43.2522285566522" lon="11.39494017801085"><ele>171.5</ele><time>2026-04-06T15:40:15Z</time></trkpt><trkpt lat="43.252132533542316" lon="11.39508126219633"><ele>171.75</ele><time>2026-04-06T15:40:16Z</time></trkpt><trkpt lat="43.25204729668789" lon="11.39521225934527"><ele>172.0</ele><time>2026-04-06T15:40:17Z</time></trkpt><trkpt lat="43.251958424724755" lon="11.39535017262253"><ele>172.0</ele><time>2026-04-06T15:40:18Z</time></trkpt><trkpt lat="43.25187549201016" lon="11.39548849634953"><ele>172.0</ele><time>2026-04-06T15:40:19Z</time></trkpt><trkpt lat="43.25180063692759" lon="11.395633770236891"><ele>172.0</ele><time>2026-04-06T15:40:20Z</time></trkpt><trkpt lat="43.25172920406916" lon="11.39578408303826"><ele>172.0</ele><time>2026-04-06T15:40:21Z</time></trkpt><trkpt lat="43.25166131066499" lon="11.395937129894776"><ele>171.75</ele><time>2026-04-06T15:40:22Z</time></trkpt><trkpt lat="43.2515948991815" lon="11.396095979578405"><ele>171.5</ele><time>2026-04-06T15:40:23Z</time></trkpt><trkpt lat="43.251529376011895" lon="11.396262077078068"><ele>171.25</ele><time>2026-04-06T15:40:24Z</time></trkpt><trkpt lat="43.25146639038234" lon="11.396431257546558"><ele>171.0</ele><time>2026-04-06T15:40:25Z</time></trkpt><trkpt lat="43.25140468789804" lon="11.396606214867841"><ele>171.0</ele><time>2026-04-06T15:40:26Z</time></trkpt><trkpt lat="43.251341135262976" lon="11.396784104502952"><ele>171.0</ele><time>2026-04-06T15:40:27Z</time></trkpt><trkpt lat="43.25127646760385" lon="11.396966933042362"><ele>171.0</ele><time>2026-04-06T15:40:28Z</time></trkpt><trkpt lat="43.251210583470275" lon="11.39714934408056"><ele>171.0</ele><time>2026-04-06T15:40:29Z</time></trkpt><trkpt lat="43.25114530060429" lon="11.397331437462242"><ele>171.0</ele><time>2026-04-06T15:40:30Z</time></trkpt><trkpt lat="43.25107969878495" lon="11.397512086274684"><ele>171.0</ele><time>2026-04-06T15:40:31Z</time></trkpt><trkpt lat="43.25101762443876" lon="11.39768324630984"><ele>171.0</ele><time>2026-04-06T15:40:32Z</time></trkpt><trkpt lat="43.25095954025753" lon="11.397845540549818"><ele>171.0</ele><time>2026-04-06T15:40:33Z</time></trkpt><trkpt lat="43.25090075836271" lon="11.398010450012787"><ele>170.75</ele><time>2026-04-06T15:40:34Z</time></trkpt><trkpt lat="43.25084516322309" lon="11.398168300366876"><ele>170.5</ele><time>2026-04-06T15:40:35Z</time></trkpt><trkpt lat="43.2507922867694" lon="11.398314874634579"><ele>170.25</ele><time>2026-04-06T15:40:36Z</time></trkpt><trkpt lat="43.25074244194605" lon="11.39845398801772"><ele>170.0</ele><time>2026-04-06T15:40:37Z</time></trkpt><trkpt lat="43.250691276177086" lon="11.398591852688437"><ele>170.0</ele><time>2026-04-06T15:40:38Z</time></trkpt><trkpt lat="43.25063782851275" lon="11.398736537298154"><ele>170.0</ele><time>2026-04-06T15:40:39Z</time></trkpt><trkpt lat="43.250583633588505" lon="11.398886697984286"><ele>170.0</ele><time>2026-04-06T15:40:40Z</time></trkpt><trkpt lat="43.250527318817284" lon="11.39903817523982"><ele>170.0</ele><time>2026-04-06T15:40:41Z</time></trkpt><trkpt lat="43.250468882590994" lon="11.399197372929686"><ele>170.0</ele><time>2026-04-06T15:40:42Z</time></trkpt><trkpt lat="43.2504065498099" lon="11.399372136851646"><ele>170.0</ele><time>2026-04-06T15:40:43Z</time></trkpt><trkpt lat="43.250309450443396" lon="11.399547215096748"><ele>170.0</ele><time>2026-04-06T15:40:44Z</time></trkpt><trkpt lat="43.250216267850504" lon="11.399755055059483"><ele>169.33333333333331</ele><time>2026-04-06T15:40:45Z</time></trkpt><trkpt lat="43.250118083676206" lon="11.399971290927622"><ele>168.66666666666666</ele><time>2026-04-06T15:40:46Z</time></trkpt><trkpt lat="43.25000987718072" lon="11.400187532458169"><ele>168.0</ele><time>2026-04-06T15:40:47Z</time></trkpt><trkpt lat="43.24988884165267" lon="11.400388289237364"><ele>168.0</ele><time>2026-04-06T15:40:48Z</time></trkpt><trkpt lat="43.24976845798518" lon="11.40057911782621"><ele>168.0</ele><time>2026-04-06T15:40:49Z</time></trkpt><trkpt lat="43.249647534792786" lon="11.400772576083465"><ele>168.0</ele><time>2026-04-06T15:40:50Z</time></trkpt><trkpt lat="43.24953082191327" lon="11.400978527136456"><ele>168.0</ele><time>2026-04-06T15:40:51Z</time></trkpt><trkpt lat="43.24940935264354" lon="11.401199459159782"><ele>168.0</ele><time>2026-04-06T15:40:52Z</time></trkpt><trkpt lat="43.249291524151715" lon="11.401408942091912"><ele>168.0</ele><time>2026-04-06T15:40:53Z</time></trkpt><trkpt lat="43.249179295266174" lon="11.40161033006759"><ele>168.0</ele><time>2026-04-06T15:40:54Z</time></trkpt><trkpt lat="43.24906934787697" lon="11.401805308079123"><ele>168.0</ele><time>2026-04-06T15:40:55Z</time></trkpt><trkpt lat="43.24896840630553" lon="11.401988548884253"><ele>168.0</ele><time>2026-04-06T15:40:56Z</time></trkpt><trkpt lat="43.24887389535641" lon="11.40216438049408"><ele>168.5</ele><time>2026-04-06T15:40:57Z</time></trkpt><trkpt lat="43.24878599097456" lon="11.402339340625037"><ele>169.0</ele><time>2026-04-06T15:40:58Z</time></trkpt><trkpt lat="43.24870697135343" lon="11.402506268944306"><ele>169.5</ele><time>2026-04-06T15:40:59Z</time></trkpt><trkpt lat="43.2486343687" lon="11.402674026277532"><ele>170.0</ele><time>2026-04-06T15:41:00Z</time></trkpt><trkpt lat="43.24856523583727" lon="11.40284997262983"><ele>169.75</ele><time>2026-04-06T15:41:01Z</time></trkpt><trkpt lat="43.24849698638911" lon="11.403028360102098"><ele>169.5</ele><time>2026-04-06T15:41:02Z</time></trkpt><trkpt lat="43.248428376012754" lon="11.403207565592805"><ele>169.25</ele><time>2026-04-06T15:41:03Z</time></trkpt><trkpt lat="43.24836212768052" lon="11.403389276854682"><ele>169.0</ele><time>2026-04-06T15:41:04Z</time></trkpt><trkpt lat="43.24829735437746" lon="11.403571097259357"><ele>169.0</ele><time>2026-04-06T15:41:05Z</time></trkpt><trkpt lat="43.24823134637932" lon="11.40374970526546"><ele>169.0</ele><time>2026-04-06T15:41:06Z</time></trkpt><trkpt lat="43.248164789829595" lon="11.40392023610073"><ele>169.0</ele><time>2026-04-06T15:41:07Z</time></trkpt><trkpt lat="43.24810095383342" lon="11.404089833254375"><ele>169.0</ele><time>2026-04-06T15:41:08Z</time></trkpt><trkpt lat="43.24803451507739" lon="11.40426035781573"><ele>169.25</ele><time>2026-04-06T15:41:09Z</time></trkpt><trkpt lat="43.247959795427214" lon="11.404430020615726"><ele>169.5</ele><time>2026-04-06T15:41:10Z</time></trkpt><trkpt lat="43.247873754283624" lon="11.404592244330198"><ele>169.75</ele><time>2026-04-06T15:41:11Z</time></trkpt><trkpt lat="43.24777640976773" lon="11.404743948347884"><ele>170.0</ele><time>2026-04-06T15:41:12Z</time></trkpt><trkpt lat="43.24766990686122" lon="11.404886576067492"><ele>169.33333333333331</ele><time>2026-04-06T15:41:13Z</time></trkpt><trkpt lat="43.24755302587035" lon="11.405023052152645"><ele>168.66666666666666</ele><time>2026-04-06T15:41:14Z</time></trkpt><trkpt lat="43.24743031004537" lon="11.405152704604859"><ele>168.0</ele><time>2026-04-06T15:41:15Z</time></trkpt><trkpt lat="43.247305511413344" lon="11.405270826357237"><ele>168.0</ele><time>2026-04-06T15:41:16Z</time></trkpt><trkpt lat="43.247179342148605" lon="11.405386195725123"><ele>168.0</ele><time>2026-04-06T15:41:17Z</time></trkpt><trkpt lat="43.247054226225345" lon="11.405501579332045"><ele>168.0</ele><time>2026-04-06T15:41:18Z</time></trkpt><trkpt lat="43.24692422000665" lon="11.405618213453861"><ele>167.66666666666666</ele><time>2026-04-06T15:41:19Z</time></trkpt><trkpt lat="43.246792898197036" lon="11.405736262899413"><ele>167.33333333333331</ele><time>2026-04-06T15:41:20Z</time></trkpt><trkpt lat="43.24665738427201" lon="11.405857544367628"><ele>167.0</ele><time>2026-04-06T15:41:21Z</time></trkpt><trkpt lat="43.246521612331584" lon="11.405980266340238"><ele>167.0</ele><time>2026-04-06T15:41:22Z</time></trkpt><trkpt lat="43.24638300704289" lon="11.406101775029155"><ele>167.0</ele><time>2026-04-06T15:41:23Z</time></trkpt><trkpt lat="43.246239578691196" lon="11.406221235308818"><ele>167.0</ele><time>2026-04-06T15:41:24Z</time></trkpt><trkpt lat="43.24609568056912" lon="11.406331514829715"><ele>166.33333333333331</ele><time>2026-04-06T15:41:25Z</time></trkpt><trkpt lat="43.245953399404655" lon="11.406441703735927"><ele>165.66666666666666</ele><time>2026-04-06T15:41:26Z</time></trkpt><trkpt lat="43.24581155216629" lon="11.40655231103621"><ele>165.0</ele><time>2026-04-06T15:41:27Z</time></trkpt><trkpt lat="43.24567406662474" lon="11.406663966243048"><ele>165.0</ele><time>2026-04-06T15:41:28Z</time></trkpt><trkpt lat="43.24553072464362" lon="11.406780241139998"><ele>165.0</ele><time>2026-04-06T15:41:29Z</time></trkpt><trkpt lat="43.2453866965918" lon="11.406897106258084"><ele>165.0</ele><time>2026-04-06T15:41:30Z</time></trkpt><trkpt lat="43.2452424383325" lon="11.407010580436802"><ele>165.0</ele><time>2026-04-06T15:41:31Z</time></trkpt><trkpt lat="43.24509827610471" lon="11.40713195767412"><ele>165.0</ele><time>2026-04-06T15:41:32Z</time></trkpt><trkpt lat="43.24495618396623" lon="11.407269353664294"><ele>165.0</ele><time>2026-04-06T15:41:33Z</time></trkpt><trkpt lat="43.24481484886582" lon="11.40742038334345"><ele>165.66666666666666</ele><time>2026-04-06T15:41:34Z</time></trkpt><trkpt lat="43.24467921951157" lon="11.407583247189711"><ele>166.33333333333331</ele><time>2026-04-06T15:41:35Z</time></trkpt><trkpt lat="43.2445469219509" lon="11.407751220900897"><ele>167.0</ele><time>2026-04-06T15:41:36Z</time></trkpt><trkpt lat="43.24441964766712" lon="11.40792489828434"><ele>165.66666666666666</ele><time>2026-04-06T15:41:37Z</time></trkpt><trkpt lat="43.244297569269335" lon="11.408093528862397"><ele>164.33333333333334</ele><time>2026-04-06T15:41:38Z</time></trkpt><trkpt lat="43.24416790340416" lon="11.408261014655055"><ele>163.0</ele><time>2026-04-06T15:41:39Z</time></trkpt><trkpt lat="43.2440232633612" lon="11.408425749884746"><ele>163.33333333333334</ele><time>2026-04-06T15:41:40Z</time></trkpt><trkpt lat="43.24387290217367" lon="11.408584977356297"><ele>163.66666666666666</ele><time>2026-04-06T15:41:41Z</time></trkpt><trkpt lat="43.243712914410196" lon="11.408733101198044"><ele>164.0</ele><time>2026-04-06T15:41:42Z</time></trkpt><trkpt lat="43.24354141851796" lon="11.40886641217075"><ele>164.0</ele><time>2026-04-06T15:41:43Z</time></trkpt><trkpt lat="43.24336129373736" lon="11.409003517112616"><ele>164.0</ele><time>2026-04-06T15:41:44Z</time></trkpt><trkpt lat="43.243184826812744" lon="11.409150835678904"><ele>164.0</ele><time>2026-04-06T15:41:45Z</time></trkpt><trkpt lat="43.24300499295062" lon="11.40930043397071"><ele>164.0</ele><time>2026-04-06T15:41:46Z</time></trkpt><trkpt lat="43.24282432911693" lon="11.409445579680398"><ele>164.0</ele><time>2026-04-06T15:41:47Z</time></trkpt><trkpt lat="43.24264094362733" lon="11.409591575196098"><ele>164.0</ele><time>2026-04-06T15:41:48Z</time></trkpt><trkpt lat="43.24246335008727" lon="11.409737201583162"><ele>164.0</ele><time>2026-04-06T15:41:49Z</time></trkpt><trkpt lat="43.2422837049856" lon="11.409884883722487"><ele>164.0</ele><time>2026-04-06T15:41:50Z</time></trkpt><trkpt lat="43.242106435323436" lon="11.410031976410467"><ele>164.0</ele><time>2026-04-06T15:41:51Z</time></trkpt><trkpt lat="43.241929191172716" lon="11.410171517154643"><ele>164.0</ele><time>2026-04-06T15:41:52Z</time></trkpt><trkpt lat="43.24175591218285" lon="11.410312103796677"><ele>164.0</ele><time>2026-04-06T15:41:53Z</time></trkpt><trkpt lat="43.24158785874135" lon="11.410454593596436"><ele>164.0</ele><time>2026-04-06T15:41:54Z</time></trkpt><trkpt lat="43.24142080242911" lon="11.410594417318972"><ele>164.0</ele><time>2026-04-06T15:41:55Z</time></trkpt><trkpt lat="43.24125483388407" lon="11.410728346970105"><ele>164.0</ele><time>2026-04-06T15:41:56Z</time></trkpt><trkpt lat="43.24108980990771" lon="11.410869698888312"><ele>164.0</ele><time>2026-04-06T15:41:57Z</time></trkpt><trkpt lat="43.24093628582276" lon="11.411027876476894"><ele>164.0</ele><time>2026-04-06T15:41:58Z</time></trkpt><trkpt lat="43.240794098066885" lon="11.411208448616518"><ele>164.0</ele><time>2026-04-06T15:41:59Z</time></trkpt><trkpt lat="43.24066105031972" lon="11.41139700514999"><ele>164.0</ele><time>2026-04-06T15:42:00Z</time></trkpt><trkpt lat="43.2405354482517" lon="11.411571339489862"><ele>164.33333333333331</ele><time>2026-04-06T15:42:01Z</time></trkpt><trkpt lat="43.24041263542682" lon="11.411735411428285"><ele>164.66666666666666</ele><time>2026-04-06T15:42:02Z</time></trkpt><trkpt lat="43.240296195901486" lon="11.411886409936926"><ele>165.0</ele><time>2026-04-06T15:42:03Z</time></trkpt><trkpt lat="43.24018221288226" lon="11.412033779768267"><ele>164.33333333333334</ele><time>2026-04-06T15:42:04Z</time></trkpt><trkpt lat="43.2400732566967" lon="11.412182358912156"><ele>163.66666666666669</ele><time>2026-04-06T15:42:05Z</time></trkpt><trkpt lat="43.23995903605753" lon="11.412339697538812"><ele>163.0</ele><time>2026-04-06T15:42:06Z</time></trkpt><trkpt lat="43.23984537294789" lon="11.41249591684587"><ele>164.33333333333334</ele><time>2026-04-06T15:42:07Z</time></trkpt><trkpt lat="43.2397331838057" lon="11.412650759162293"><ele>165.66666666666666</ele><time>2026-04-06T15:42:08Z</time></trkpt><trkpt lat="43.23961384149159" lon="11.41280587417737"><ele>167.0</ele><time>2026-04-06T15:42:09Z</time></trkpt><trkpt lat="43.23950118103609" lon="11.412956856488837"><ele>166.66666666666666</ele><time>2026-04-06T15:42:10Z</time></trkpt><trkpt lat="43.239382988499585" lon="11.413111661672257"><ele>166.33333333333334</ele><time>2026-04-06T15:42:11Z</time></trkpt><trkpt lat="43.23926778437431" lon="11.413267640430295"><ele>166.0</ele><time>2026-04-06T15:42:12Z</time></trkpt><trkpt lat="43.23915652406358" lon="11.413423046228923"><ele>166.0</ele><time>2026-04-06T15:42:13Z</time></trkpt><trkpt lat="43.239041065574185" lon="11.413582318661057"><ele>166.0</ele><time>2026-04-06T15:42:14Z</time></trkpt><trkpt lat="43.238927488972244" lon="11.413735485318512"><ele>166.0</ele><time>2026-04-06T15:42:15Z</time></trkpt><trkpt lat="43.23881311504994" lon="11.413887293391499"><ele>166.25</ele><time>2026-04-06T15:42:16Z</time></trkpt><trkpt lat="43.23870391623718" lon="11.41403051626226"><ele>166.5</ele><time>2026-04-06T15:42:17Z</time></trkpt><trkpt lat="43.23859431985382" lon="11.414173616833269"><ele>166.75</ele><time>2026-04-06T15:42:18Z</time></trkpt><trkpt lat="43.23849486186403" lon="11.414309710489201"><ele>167.0</ele><time>2026-04-06T15:42:19Z</time></trkpt><trkpt lat="43.238397500827524" lon="11.414438806239199"><ele>167.0</ele><time>2026-04-06T15:42:20Z</time></trkpt><trkpt lat="43.238305479619996" lon="11.414568706403323"><ele>167.0</ele><time>2026-04-06T15:42:21Z</time></trkpt><trkpt lat="43.238212328190635" lon="11.414698135294122"><ele>167.0</ele><time>2026-04-06T15:42:22Z</time></trkpt><trkpt lat="43.238117428445044" lon="11.414827620003942"><ele>167.0</ele><time>2026-04-06T15:42:23Z</time></trkpt><trkpt lat="43.23801979637335" lon="11.414958222232508"><ele>167.0</ele><time>2026-04-06T15:42:24Z</time></trkpt><trkpt lat="43.23791807709571" lon="11.415094398417793"><ele>167.0</ele><time>2026-04-06T15:42:25Z</time></trkpt><trkpt lat="43.237815037836235" lon="11.415233690922184"><ele>167.0</ele><time>2026-04-06T15:42:26Z</time></trkpt><trkpt lat="43.23771191407482" lon="11.415374423648496"><ele>167.0</ele><time>2026-04-06T15:42:27Z</time></trkpt><trkpt lat="43.23760859879151" lon="11.415516327982647"><ele>166.75</ele><time>2026-04-06T15:42:28Z</time></trkpt><trkpt lat="43.23750251547833" lon="11.41565802447104"><ele>166.5</ele><time>2026-04-06T15:42:29Z</time></trkpt><trkpt lat="43.237395287438815" lon="11.415799994484471"><ele>166.25</ele><time>2026-04-06T15:42:30Z</time></trkpt><trkpt lat="43.23728768641568" lon="11.41594139012671"><ele>166.0</ele><time>2026-04-06T15:42:31Z</time></trkpt><trkpt lat="43.237179761641634" lon="11.416084632595688"><ele>165.66666666666669</ele><time>2026-04-06T15:42:32Z</time></trkpt><trkpt lat="43.23706648996407" lon="11.41622413634824"><ele>165.33333333333334</ele><time>2026-04-06T15:42:33Z</time></trkpt><trkpt lat="43.236954547177554" lon="11.41636065359013"><ele>165.0</ele><time>2026-04-06T15:42:34Z</time></trkpt><trkpt lat="43.23683867918366" lon="11.416503124275424"><ele>164.33333333333334</ele><time>2026-04-06T15:42:35Z</time></trkpt><trkpt lat="43.2367221595422" lon="11.41664319034664"><ele>163.66666666666669</ele><time>2026-04-06T15:42:36Z</time></trkpt><trkpt lat="43.23660510908857" lon="11.416781976259836"><ele>163.0</ele><time>2026-04-06T15:42:37Z</time></trkpt><trkpt lat="43.236486805037224" lon="11.416922345095788"><ele>163.66666666666669</ele><time>2026-04-06T15:42:38Z</time></trkpt><trkpt lat="43.236369031409474" lon="11.417062469681259"><ele>164.33333333333334</ele><time>2026-04-06T15:42:39Z</time></trkpt><trkpt lat="43.23625396222036" lon="11.417201082339108"><ele>165.0</ele><time>2026-04-06T15:42:40Z</time></trkpt><trkpt lat="43.236143739712595" lon="11.417329759334716"><ele>165.0</ele><time>2026-04-06T15:42:41Z</time></trkpt><trkpt lat="43.23603890050871" lon="11.417451975114334"><ele>165.0</ele><time>2026-04-06T15:42:42Z</time></trkpt><trkpt lat="43.235935169701705" lon="11.417567560486068"><ele>165.0</ele><time>2026-04-06T15:42:43Z</time></trkpt><trkpt lat="43.235834740204" lon="11.417684188898635"><ele>165.0</ele><time>2026-04-06T15:42:44Z</time></trkpt><trkpt lat="43.23574407137461" lon="11.417794713456864"><ele>165.0</ele><time>2026-04-06T15:42:45Z</time></trkpt><trkpt lat="43.23565816477325" lon="11.417898621833906"><ele>165.0</ele><time>2026-04-06T15:42:46Z</time></trkpt><trkpt lat="43.235577666391556" lon="11.417994779696022"><ele>165.0</ele><time>2026-04-06T15:42:47Z</time></trkpt><trkpt lat="43.23550135146657" lon="11.418083501505093"><ele>165.0</ele><time>2026-04-06T15:42:48Z</time></trkpt><trkpt lat="43.235426272851704" lon="11.418161584542629"><ele>165.0</ele><time>2026-04-06T15:42:49Z</time></trkpt><trkpt lat="43.23535469768246" lon="11.418224973604366"><ele>165.0</ele><time>2026-04-06T15:42:50Z</time></trkpt><trkpt lat="43.23528374304799" lon="11.418263492750794"><ele>165.0</ele><time>2026-04-06T15:42:51Z</time></trkpt><trkpt lat="43.2352085505106" lon="11.418273165937682"><ele>165.0</ele><time>2026-04-06T15:42:52Z</time></trkpt><trkpt lat="43.2351416165247" lon="11.41825488420127"><ele>165.0</ele><time>2026-04-06T15:42:53Z</time></trkpt><trkpt lat="43.2350782673754" lon="11.41825625095507"><ele>165.0</ele><time>2026-04-06T15:42:54Z</time></trkpt><trkpt lat="43.234987215651095" lon="11.418367127063366"><ele>165.0</ele><time>2026-04-06T15:42:56Z</time></trkpt><trkpt lat="43.234975109691874" lon="11.418468566394408"><ele>165.0</ele><time>2026-04-06T15:42:57Z</time></trkpt><trkpt lat="43.23497977864041" lon="11.418590711726782"><ele>165.0</ele><time>2026-04-06T15:42:58Z</time></trkpt><trkpt lat="43.234961608383394" lon="11.418706088800992"><ele>165.0</ele><time>2026-04-06T15:42:59Z</time></trkpt><trkpt lat="43.23490785763625" lon="11.418801269653205"><ele>165.0</ele><time>2026-04-06T15:43:00Z</time></trkpt><trkpt lat="43.23483170405893" lon="11.41888116929823"><ele>165.0</ele><time>2026-04-06T15:43:00.999Z</time></trkpt><trkpt lat="43.23474914182736" lon="11.418970340586345"><ele>165.2</ele><time>2026-04-06T15:43:01.999Z</time></trkpt><trkpt lat="43.234664275953946" lon="11.419063789759775"><ele>165.4</ele><time>2026-04-06T15:43:02.999Z</time></trkpt><trkpt lat="43.23457729608307" lon="11.419167183006278"><ele>165.60000000000002</ele><time>2026-04-06T15:43:03.999Z</time></trkpt><trkpt lat="43.23449171046781" lon="11.419270352968338"><ele>165.8</ele><time>2026-04-06T15:43:04.999Z</time></trkpt><trkpt lat="43.234409631172866" lon="11.41936875591984"><ele>166.0</ele><time>2026-04-06T15:43:05.999Z</time></trkpt><trkpt lat="43.23432085858992" lon="11.41947382688557"><ele>166.0</ele><time>2026-04-06T15:43:06.999Z</time></trkpt><trkpt lat="43.23423163534818" lon="11.419578729294738"><ele>166.0</ele><time>2026-04-06T15:43:07.999Z</time></trkpt><trkpt lat="43.23414445390124" lon="11.41968555179484"><ele>166.0</ele><time>2026-04-06T15:43:08.999Z</time></trkpt><trkpt lat="43.23405797281584" lon="11.419794844095845"><ele>166.0</ele><time>2026-04-06T15:43:09.999Z</time></trkpt><trkpt lat="43.23397325938175" lon="11.419900565390137"><ele>165.5</ele><time>2026-04-06T15:43:10.999Z</time></trkpt><trkpt lat="43.23388738767134" lon="11.420002932074249"><ele>165.0</ele><time>2026-04-06T15:43:11.999Z</time></trkpt><trkpt lat="43.233799018743085" lon="11.420105445758269"><ele>164.5</ele><time>2026-04-06T15:43:12.999Z</time></trkpt><trkpt lat="43.23371133329156" lon="11.42020996787672"><ele>164.0</ele><time>2026-04-06T15:43:13.999Z</time></trkpt><trkpt lat="43.23362361486059" lon="11.420313509560442"><ele>164.0</ele><time>2026-04-06T15:43:14.999Z</time></trkpt><trkpt lat="43.23353618187906" lon="11.42041566650706"><ele>164.0</ele><time>2026-04-06T15:43:15.999Z</time></trkpt><trkpt lat="43.233444726725246" lon="11.420515652981763"><ele>164.0</ele><time>2026-04-06T15:43:17Z</time></trkpt><trkpt lat="43.23335123471306" lon="11.420610478034183"><ele>164.0</ele><time>2026-04-06T15:43:18Z</time></trkpt><trkpt lat="43.23325212910154" lon="11.420700163918594"><ele>163.75</ele><time>2026-04-06T15:43:19Z</time></trkpt><trkpt lat="43.233147703374115" lon="11.42077620038352"><ele>163.5</ele><time>2026-04-06T15:43:20Z</time></trkpt><trkpt lat="43.23303750917354" lon="11.42084569109876"><ele>163.25</ele><time>2026-04-06T15:43:21Z</time></trkpt><trkpt lat="43.232927056627325" lon="11.420912841103402"><ele>163.0</ele><time>2026-04-06T15:43:22Z</time></trkpt><trkpt lat="43.23281687628215" lon="11.42098841342718"><ele>163.5</ele><time>2026-04-06T15:43:23Z</time></trkpt><trkpt lat="43.23270528041821" lon="11.421061787586966"><ele>164.0</ele><time>2026-04-06T15:43:24Z</time></trkpt><trkpt lat="43.232592440854326" lon="11.421137212117776"><ele>164.5</ele><time>2026-04-06T15:43:25Z</time></trkpt><trkpt lat="43.23247802414001" lon="11.421209182514819"><ele>165.0</ele><time>2026-04-06T15:43:26Z</time></trkpt><trkpt lat="43.23236332125913" lon="11.42127889325112"><ele>164.8</ele><time>2026-04-06T15:43:27Z</time></trkpt><trkpt lat="43.232262527431864" lon="11.42133041761186"><ele>164.6</ele><time>2026-04-06T15:43:28Z</time></trkpt><trkpt lat="43.232175667204686" lon="11.42136366205784"><ele>164.39999999999998</ele><time>2026-04-06T15:43:29Z</time></trkpt><trkpt lat="43.232105177661275" lon="11.421397368590046"><ele>164.2</ele><time>2026-04-06T15:43:30Z</time></trkpt><trkpt lat="43.23202821749026" lon="11.421490675004478"><ele>164.0</ele><time>2026-04-06T15:43:32Z</time></trkpt><trkpt lat="43.23203498472561" lon="11.42167176011296"><ele>164.0</ele><time>2026-04-06T15:43:34Z</time></trkpt><trkpt lat="43.23200995440159" lon="11.421799997153428"><ele>164.0</ele><time>2026-04-06T15:43:35Z</time></trkpt><trkpt lat="43.23195257126877" lon="11.42193920208863"><ele>164.0</ele><time>2026-04-06T15:43:36Z</time></trkpt><trkpt lat="43.23188788072102" lon="11.422055500775334"><ele>164.0</ele><time>2026-04-06T15:43:37Z</time></trkpt><trkpt lat="43.23182369649952" lon="11.422193016708057"><ele>164.0</ele><time>2026-04-06T15:43:38Z</time></trkpt><trkpt lat="43.231764332076075" lon="11.422343776467851"><ele>163.75</ele><time>2026-04-06T15:43:39Z</time></trkpt><trkpt lat="43.23170040547908" lon="11.42250429218632"><ele>163.5</ele><time>2026-04-06T15:43:40Z</time></trkpt><trkpt lat="43.23163854252443" lon="11.422659628630885"><ele>163.25</ele><time>2026-04-06T15:43:41Z</time></trkpt><trkpt lat="43.23157464786563" lon="11.422815531163607"><ele>163.0</ele><time>2026-04-06T15:43:42Z</time></trkpt><trkpt lat="43.231511774625595" lon="11.422957242452432"><ele>162.8</ele><time>2026-04-06T15:43:43Z</time></trkpt><trkpt lat="43.23144578335042" lon="11.423075070924362"><ele>162.60000000000002</ele><time>2026-04-06T15:43:44Z</time></trkpt><trkpt lat="43.23137152399721" lon="11.423160029540961"><ele>162.39999999999998</ele><time>2026-04-06T15:43:45Z</time></trkpt><trkpt lat="43.23128501707277" lon="11.423220606373908"><ele>162.2</ele><time>2026-04-06T15:43:46Z</time></trkpt><trkpt lat="43.23118166905812" lon="11.423270135107042"><ele>162.0</ele><time>2026-04-06T15:43:47Z</time></trkpt><trkpt lat="43.231070694270336" lon="11.423311396840603"><ele>162.0</ele><time>2026-04-06T15:43:48Z</time></trkpt><trkpt lat="43.230962690794975" lon="11.423350942298327"><ele>162.0</ele><time>2026-04-06T15:43:49Z</time></trkpt><trkpt lat="43.23086705393492" lon="11.423393444518048"><ele>162.0</ele><time>2026-04-06T15:43:50Z</time></trkpt><trkpt lat="43.230781832291036" lon="11.42343539273174"><ele>162.0</ele><time>2026-04-06T15:43:51Z</time></trkpt><trkpt lat="43.23070773448317" lon="11.42347577755586"><ele>162.0</ele><time>2026-04-06T15:43:52Z</time></trkpt><trkpt lat="43.230635655594774" lon="11.423522317855497"><ele>162.33333333333334</ele><time>2026-04-06T15:43:53Z</time></trkpt><trkpt lat="43.23056155786962" lon="11.423574003044827"><ele>162.66666666666666</ele><time>2026-04-06T15:43:54Z</time></trkpt><trkpt lat="43.230494950400235" lon="11.423617801225335"><ele>163.0</ele><time>2026-04-06T15:43:55Z</time></trkpt><trkpt lat="43.23043154331301" lon="11.423653399954313"><ele>163.33333333333331</ele><time>2026-04-06T15:43:56Z</time></trkpt><trkpt lat="43.23037105942809" lon="11.423689679835142"><ele>163.66666666666666</ele><time>2026-04-06T15:43:57Z</time></trkpt><trkpt lat="43.2302947651563" lon="11.423729413124347"><ele>164.0</ele><time>2026-04-06T15:43:58Z</time></trkpt><trkpt lat="43.23021032072803" lon="11.423760860397918"><ele>164.0</ele><time>2026-04-06T15:43:59Z</time></trkpt><trkpt lat="43.23012024685516" lon="11.42380463786872"><ele>164.0</ele><time>2026-04-06T15:44:00Z</time></trkpt><trkpt lat="43.23002678106732" lon="11.423859183155157"><ele>164.0</ele><time>2026-04-06T15:44:01Z</time></trkpt><trkpt lat="43.229937123517814" lon="11.423913276442091"><ele>164.0</ele><time>2026-04-06T15:44:02Z</time></trkpt><trkpt lat="43.229858345929706" lon="11.42395832042533"><ele>164.0</ele><time>2026-04-06T15:44:03Z</time></trkpt><trkpt lat="43.22979021326512" lon="11.423993535330029"><ele>164.0</ele><time>2026-04-06T15:44:04Z</time></trkpt><trkpt lat="43.22969464218711" lon="11.424036239786668"><ele>164.0</ele><time>2026-04-06T15:44:06Z</time></trkpt><trkpt lat="43.22961558132914" lon="11.423965819116413"><ele>164.0</ele><time>2026-04-06T15:44:09Z</time></trkpt><trkpt lat="43.229575185381805" lon="11.423886344636495"><ele>164.0</ele><time>2026-04-06T15:44:10Z</time></trkpt><trkpt lat="43.22953751901453" lon="11.423784120151929"><ele>164.0</ele><time>2026-04-06T15:44:11Z</time></trkpt><trkpt lat="43.229496354165846" lon="11.423680201762593"><ele>164.0</ele><time>2026-04-06T15:44:12Z</time></trkpt><trkpt lat="43.22945395837768" lon="11.423593071857256"><ele>164.0</ele><time>2026-04-06T15:44:13Z</time></trkpt><trkpt lat="43.22940716507713" lon="11.423517775965971"><ele>164.0</ele><time>2026-04-06T15:44:14Z</time></trkpt><trkpt lat="43.22934808228626" lon="11.423445264806151"><ele>164.0</ele><time>2026-04-06T15:44:15Z</time></trkpt><trkpt lat="43.22928019510111" lon="11.423373690972724"><ele>164.0</ele><time>2026-04-06T15:44:16Z</time></trkpt><trkpt lat="43.229210829259834" lon="11.423316458082482"><ele>164.0</ele><time>2026-04-06T15:44:17Z</time></trkpt><trkpt lat="43.2291510647316" lon="11.42326877006084"><ele>164.0</ele><time>2026-04-06T15:44:18Z</time></trkpt><trkpt lat="43.22905886373069" lon="11.423186665128645"><ele>164.0</ele><time>2026-04-06T15:44:20Z</time></trkpt><trkpt lat="43.22899442804733" lon="11.423125656666375"><ele>164.0</ele><time>2026-04-06T15:44:22Z</time></trkpt><trkpt lat="43.22890868901616" lon="11.423090111574052"><ele>164.0</ele><time>2026-04-06T15:44:26Z</time></trkpt><trkpt lat="43.22882891448169" lon="11.423216283364217"><ele>164.0</ele><time>2026-04-06T15:44:27Z</time></trkpt><trkpt lat="43.22876672223249" lon="11.423290623783405"><ele>164.0</ele><time>2026-04-06T15:44:28Z</time></trkpt><trkpt lat="43.22869584147283" lon="11.423329337224269"><ele>164.0</ele><time>2026-04-06T15:44:29Z</time></trkpt><trkpt lat="43.228633416065385" lon="11.423353993034398"><ele>164.0</ele><time>2026-04-06T15:44:30Z</time></trkpt><trkpt lat="43.2285523562515" lon="11.423401089456304"><ele>164.0</ele><time>2026-04-06T15:44:32Z</time></trkpt><trkpt lat="43.2284612128229" lon="11.42343625122369"><ele>164.0</ele><time>2026-04-06T15:44:34Z</time></trkpt><trkpt lat="43.228400112386886" lon="11.423462945957919"><ele>164.0</ele><time>2026-04-06T15:44:35Z</time></trkpt><trkpt lat="43.22833367023709" lon="11.42349073611961"><ele>164.0</ele><time>2026-04-06T15:44:36Z</time></trkpt><trkpt lat="43.22825522815934" lon="11.42352258050099"><ele>164.0</ele><time>2026-04-06T15:44:37Z</time></trkpt><trkpt lat="43.22817196087786" lon="11.423553158076933"><ele>164.0</ele><time>2026-04-06T15:44:38Z</time></trkpt><trkpt lat="43.22808885341642" lon="11.423578396628592"><ele>164.0</ele><time>2026-04-06T15:44:39Z</time></trkpt><trkpt lat="43.22799431691383" lon="11.423600890340452"><ele>164.0</ele><time>2026-04-06T15:44:40Z</time></trkpt><trkpt lat="43.22788379945751" lon="11.423621550333662"><ele>164.0</ele><time>2026-04-06T15:44:41Z</time></trkpt><trkpt lat="43.22777607583374" lon="11.423635693093384"><ele>164.0</ele><time>2026-04-06T15:44:42Z</time></trkpt><trkpt lat="43.22766609260624" lon="11.42364394644405"><ele>164.0</ele><time>2026-04-06T15:44:43Z</time></trkpt><trkpt lat="43.22754576951693" lon="11.423645874534952"><ele>164.0</ele><time>2026-04-06T15:44:44Z</time></trkpt><trkpt lat="43.22742418372631" lon="11.42364762587448"><ele>164.0</ele><time>2026-04-06T15:44:45Z</time></trkpt><trkpt lat="43.22729904060033" lon="11.423647265190247"><ele>164.0</ele><time>2026-04-06T15:44:46Z</time></trkpt><trkpt lat="43.227170635278334" lon="11.423642991199754"><ele>164.25</ele><time>2026-04-06T15:44:47Z</time></trkpt><trkpt lat="43.227039167950934" lon="11.423642285703453"><ele>164.5</ele><time>2026-04-06T15:44:48Z</time></trkpt><trkpt lat="43.22690561938336" lon="11.423641855376498"><ele>164.75</ele><time>2026-04-06T15:44:49Z</time></trkpt><trkpt lat="43.22677543303244" lon="11.423644896511016"><ele>165.0</ele><time>2026-04-06T15:44:50Z</time></trkpt><trkpt lat="43.22664765626957" lon="11.423652849349349"><ele>165.0</ele><time>2026-04-06T15:44:51Z</time></trkpt><trkpt lat="43.226519493581684" lon="11.423661161013634"><ele>165.0</ele><time>2026-04-06T15:44:52Z</time></trkpt><trkpt lat="43.22638698892633" lon="11.423680857336183"><ele>165.0</ele><time>2026-04-06T15:44:53Z</time></trkpt><trkpt lat="43.226254949942074" lon="11.423719300349385"><ele>165.0</ele><time>2026-04-06T15:44:54Z</time></trkpt><trkpt lat="43.22612326150703" lon="11.423784853084971"><ele>164.25</ele><time>2026-04-06T15:44:55Z</time></trkpt><trkpt lat="43.22599796751738" lon="11.423876357005806"><ele>163.5</ele><time>2026-04-06T15:44:56Z</time></trkpt><trkpt lat="43.22587420295994" lon="11.42398449225733"><ele>162.75</ele><time>2026-04-06T15:44:57Z</time></trkpt><trkpt lat="43.22575015759908" lon="11.424087404125936"><ele>162.0</ele><time>2026-04-06T15:44:58Z</time></trkpt><trkpt lat="43.22562110837988" lon="11.424186245595198"><ele>162.0</ele><time>2026-04-06T15:44:59Z</time></trkpt><trkpt lat="43.22549827450689" lon="11.424277039877925"><ele>162.0</ele><time>2026-04-06T15:45:00Z</time></trkpt><trkpt lat="43.22537592419015" lon="11.424374159868819"><ele>162.0</ele><time>2026-04-06T15:45:01Z</time></trkpt><trkpt lat="43.22525686693685" lon="11.424478621795465"><ele>162.0</ele><time>2026-04-06T15:45:02Z</time></trkpt><trkpt lat="43.225137008218596" lon="11.424585647300725"><ele>162.0</ele><time>2026-04-06T15:45:03Z</time></trkpt><trkpt lat="43.2250179456564" lon="11.424700375083853"><ele>162.0</ele><time>2026-04-06T15:45:03.999Z</time></trkpt><trkpt lat="43.224907791949" lon="11.424827178679314"><ele>162.0</ele><time>2026-04-06T15:45:04.999Z</time></trkpt><trkpt lat="43.22479898225471" lon="11.424964819524266"><ele>162.0</ele><time>2026-04-06T15:45:05.999Z</time></trkpt><trkpt lat="43.224687084049776" lon="11.42510541514441"><ele>162.33333333333334</ele><time>2026-04-06T15:45:06.999Z</time></trkpt><trkpt lat="43.224572250235596" lon="11.425245772754256"><ele>162.66666666666669</ele><time>2026-04-06T15:45:07.999Z</time></trkpt><trkpt lat="43.22445376819793" lon="11.425389373986835"><ele>163.0</ele><time>2026-04-06T15:45:08.999Z</time></trkpt><trkpt lat="43.22432959242826" lon="11.42553868201001"><ele>163.0</ele><time>2026-04-06T15:45:09.999Z</time></trkpt><trkpt lat="43.22420451810514" lon="11.425693281003825"><ele>163.0</ele><time>2026-04-06T15:45:10.999Z</time></trkpt><trkpt lat="43.22407411656998" lon="11.425849675390074"><ele>163.0</ele><time>2026-04-06T15:45:11.999Z</time></trkpt><trkpt lat="43.22394180759643" lon="11.426006025966126"><ele>162.66666666666669</ele><time>2026-04-06T15:45:12.999Z</time></trkpt><trkpt lat="43.2238091384669" lon="11.426162489015061"><ele>162.33333333333334</ele><time>2026-04-06T15:45:13.999Z</time></trkpt><trkpt lat="43.22367780612129" lon="11.426318016043641"><ele>162.0</ele><time>2026-04-06T15:45:14.999Z</time></trkpt><trkpt lat="43.22355344028542" lon="11.42646364450897"><ele>161.33333333333334</ele><time>2026-04-06T15:45:15.999Z</time></trkpt><trkpt lat="43.22343165825482" lon="11.426595209685045"><ele>160.66666666666669</ele><time>2026-04-06T15:45:16.999Z</time></trkpt><trkpt lat="43.22330921216133" lon="11.42672139187473"><ele>160.0</ele><time>2026-04-06T15:45:17.999Z</time></trkpt><trkpt lat="43.22318388014541" lon="11.426849693093782"><ele>160.0</ele><time>2026-04-06T15:45:18.999Z</time></trkpt><trkpt lat="43.22306122088792" lon="11.426972787544216"><ele>160.0</ele><time>2026-04-06T15:45:19.999Z</time></trkpt><trkpt lat="43.22293995435257" lon="11.427092623495051"><ele>160.0</ele><time>2026-04-06T15:45:20.999Z</time></trkpt><trkpt lat="43.22281996345547" lon="11.427210006185975"><ele>160.0</ele><time>2026-04-06T15:45:21.999Z</time></trkpt><trkpt lat="43.22270464401575" lon="11.42732080958203"><ele>160.25</ele><time>2026-04-06T15:45:23Z</time></trkpt><trkpt lat="43.22258904963424" lon="11.42742807143802"><ele>160.5</ele><time>2026-04-06T15:45:24Z</time></trkpt><trkpt lat="43.222474296276836" lon="11.427530993358072"><ele>160.75</ele><time>2026-04-06T15:45:25Z</time></trkpt><trkpt lat="43.22235934210157" lon="11.427633720240477"><ele>161.0</ele><time>2026-04-06T15:45:26Z</time></trkpt><trkpt lat="43.22225060201235" lon="11.4277300638533"><ele>161.0</ele><time>2026-04-06T15:45:27Z</time></trkpt><trkpt lat="43.22213821017025" lon="11.4278260561297"><ele>161.0</ele><time>2026-04-06T15:45:28Z</time></trkpt><trkpt lat="43.22202817480105" lon="11.427915312545085"><ele>161.0</ele><time>2026-04-06T15:45:29Z</time></trkpt><trkpt lat="43.221924622340005" lon="11.427997489676024"><ele>161.0</ele><time>2026-04-06T15:45:30Z</time></trkpt><trkpt lat="43.22182216040763" lon="11.428080569630005"><ele>161.0</ele><time>2026-04-06T15:45:31Z</time></trkpt><trkpt lat="43.221715427833125" lon="11.428166881218083"><ele>161.0</ele><time>2026-04-06T15:45:32Z</time></trkpt><trkpt lat="43.221605873098405" lon="11.428255742042166"><ele>161.0</ele><time>2026-04-06T15:45:33Z</time></trkpt><trkpt lat="43.221496867592926" lon="11.42834422460799"><ele>161.0</ele><time>2026-04-06T15:45:34Z</time></trkpt><trkpt lat="43.22138980750604" lon="11.428433652695947"><ele>161.0</ele><time>2026-04-06T15:45:35Z</time></trkpt><trkpt lat="43.22128108216586" lon="11.428522611787503"><ele>161.0</ele><time>2026-04-06T15:45:36Z</time></trkpt><trkpt lat="43.22117091365357" lon="11.428607182240057"><ele>161.0</ele><time>2026-04-06T15:45:37Z</time></trkpt><trkpt lat="43.22106185869643" lon="11.428692054726593"><ele>161.0</ele><time>2026-04-06T15:45:38Z</time></trkpt><trkpt lat="43.220953260465784" lon="11.428777811988217"><ele>161.0</ele><time>2026-04-06T15:45:39Z</time></trkpt><trkpt lat="43.220840982043" lon="11.428866768091195"><ele>161.0</ele><time>2026-04-06T15:45:40Z</time></trkpt><trkpt lat="43.22073073828346" lon="11.428952528590425"><ele>161.0</ele><time>2026-04-06T15:45:41Z</time></trkpt><trkpt lat="43.22062172279918" lon="11.429039587699377"><ele>161.0</ele><time>2026-04-06T15:45:42Z</time></trkpt><trkpt lat="43.22051092903041" lon="11.429128504217733"><ele>161.0</ele><time>2026-04-06T15:45:43Z</time></trkpt><trkpt lat="43.220399495175684" lon="11.429218245613184"><ele>161.0</ele><time>2026-04-06T15:45:44Z</time></trkpt><trkpt lat="43.220291565799045" lon="11.42930835365982"><ele>161.0</ele><time>2026-04-06T15:45:45Z</time></trkpt><trkpt lat="43.220188314823936" lon="11.429392085285727"><ele>161.0</ele><time>2026-04-06T15:45:46Z</time></trkpt><trkpt lat="43.220089451932516" lon="11.42946930606513"><ele>161.0</ele><time>2026-04-06T15:45:47Z</time></trkpt><trkpt lat="43.219990931021485" lon="11.429548160529581"><ele>161.0</ele><time>2026-04-06T15:45:48Z</time></trkpt><trkpt lat="43.21989328927412" lon="11.429627586561148"><ele>161.0</ele><time>2026-04-06T15:45:49Z</time></trkpt><trkpt lat="43.21979587892175" lon="11.42970870198698"><ele>161.0</ele><time>2026-04-06T15:45:50Z</time></trkpt><trkpt lat="43.21970162463143" lon="11.429787501368956"><ele>161.0</ele><time>2026-04-06T15:45:51Z</time></trkpt><trkpt lat="43.219607201713366" lon="11.429865814879344"><ele>161.0</ele><time>2026-04-06T15:45:52Z</time></trkpt><trkpt lat="43.21951050891436" lon="11.429943544467417"><ele>161.0</ele><time>2026-04-06T15:45:53Z</time></trkpt><trkpt lat="43.219409533828184" lon="11.430024836137006"><ele>161.0</ele><time>2026-04-06T15:45:54Z</time></trkpt><trkpt lat="43.219306789028835" lon="11.430107781577487"><ele>161.0</ele><time>2026-04-06T15:45:55Z</time></trkpt><trkpt lat="43.21920693190118" lon="11.430188312164628"><ele>161.0</ele><time>2026-04-06T15:45:56Z</time></trkpt><trkpt lat="43.21911609606369" lon="11.43026213720942"><ele>161.0</ele><time>2026-04-06T15:45:57Z</time></trkpt><trkpt lat="43.21903191398255" lon="11.430329422380714"><ele>161.0</ele><time>2026-04-06T15:45:58Z</time></trkpt><trkpt lat="43.21895163628765" lon="11.430394053479302"><ele>161.0</ele><time>2026-04-06T15:45:59Z</time></trkpt><trkpt lat="43.218874766197935" lon="11.43045416006751"><ele>160.8</ele><time>2026-04-06T15:46:00Z</time></trkpt><trkpt lat="43.21880271084263" lon="11.430513505501782"><ele>160.60000000000002</ele><time>2026-04-06T15:46:01Z</time></trkpt><trkpt lat="43.21872264720263" lon="11.430578839268906"><ele>160.4</ele><time>2026-04-06T15:46:02Z</time></trkpt><trkpt lat="43.21863380238641" lon="11.430650763674125"><ele>160.2</ele><time>2026-04-06T15:46:03Z</time></trkpt><trkpt lat="43.21853523504364" lon="11.43073030321427"><ele>160.0</ele><time>2026-04-06T15:46:04Z</time></trkpt><trkpt lat="43.21843783332858" lon="11.430808861509929"><ele>160.0</ele><time>2026-04-06T15:46:05Z</time></trkpt><trkpt lat="43.21833338546554" lon="11.430894498785577"><ele>160.0</ele><time>2026-04-06T15:46:06Z</time></trkpt><trkpt lat="43.218225566261644" lon="11.430984105850202"><ele>160.0</ele><time>2026-04-06T15:46:07Z</time></trkpt><trkpt lat="43.2181122231828" lon="11.431074331057712"><ele>160.0</ele><time>2026-04-06T15:46:08Z</time></trkpt><trkpt lat="43.218004709501884" lon="11.4311629366852"><ele>159.75</ele><time>2026-04-06T15:46:09Z</time></trkpt><trkpt lat="43.21789255229966" lon="11.431253468085854"><ele>159.5</ele><time>2026-04-06T15:46:10Z</time></trkpt><trkpt lat="43.217786103824125" lon="11.431340305662262"><ele>159.25</ele><time>2026-04-06T15:46:11Z</time></trkpt><trkpt lat="43.217677181052295" lon="11.43142714247234"><ele>159.0</ele><time>2026-04-06T15:46:12Z</time></trkpt><trkpt lat="43.21757175444489" lon="11.431510716407262"><ele>159.0</ele><time>2026-04-06T15:46:13Z</time></trkpt><trkpt lat="43.21747144775906" lon="11.431591370367316"><ele>159.0</ele><time>2026-04-06T15:46:14Z</time></trkpt><trkpt lat="43.21737380823189" lon="11.4316711629242"><ele>159.0</ele><time>2026-04-06T15:46:15Z</time></trkpt><trkpt lat="43.21727519866695" lon="11.431750698977398"><ele>159.0</ele><time>2026-04-06T15:46:16Z</time></trkpt><trkpt lat="43.21717735929712" lon="11.43182742490523"><ele>159.0</ele><time>2026-04-06T15:46:17Z</time></trkpt><trkpt lat="43.21708124299599" lon="11.431903621112038"><ele>159.0</ele><time>2026-04-06T15:46:18Z</time></trkpt><trkpt lat="43.21698318850524" lon="11.431981278936004"><ele>159.0</ele><time>2026-04-06T15:46:19Z</time></trkpt><trkpt lat="43.21688596291807" lon="11.432059339375733"><ele>159.0</ele><time>2026-04-06T15:46:20Z</time></trkpt><trkpt lat="43.21679162461477" lon="11.432135791156607"><ele>159.0</ele><time>2026-04-06T15:46:21Z</time></trkpt><trkpt lat="43.21669823340053" lon="11.432208406355448"><ele>159.0</ele><time>2026-04-06T15:46:22Z</time></trkpt><trkpt lat="43.216602781903774" lon="11.432278224683593"><ele>159.0</ele><time>2026-04-06T15:46:23Z</time></trkpt><trkpt lat="43.21650953456169" lon="11.432345864351223"><ele>159.0</ele><time>2026-04-06T15:46:24Z</time></trkpt><trkpt lat="43.21642150268916" lon="11.432409539284148"><ele>159.0</ele><time>2026-04-06T15:46:25Z</time></trkpt><trkpt lat="43.21634666165825" lon="11.432464548107493"><ele>159.0</ele><time>2026-04-06T15:46:26Z</time></trkpt><trkpt lat="43.21627205435607" lon="11.432515162789358"><ele>159.2</ele><time>2026-04-06T15:46:27Z</time></trkpt><trkpt lat="43.21620093568061" lon="11.4325605692903"><ele>159.4</ele><time>2026-04-06T15:46:28Z</time></trkpt><trkpt lat="43.21613770501093" lon="11.432598307010815"><ele>159.6</ele><time>2026-04-06T15:46:29Z</time></trkpt><trkpt lat="43.21603266963759" lon="11.432634743327117"><ele>159.8</ele><time>2026-04-06T15:46:31Z</time></trkpt><trkpt lat="43.215899137679635" lon="11.432618931710701"><ele>160.0</ele><time>2026-04-06T15:46:33Z</time></trkpt><trkpt lat="43.21581262668658" lon="11.432596798478041"><ele>160.0</ele><time>2026-04-06T15:46:34Z</time></trkpt><trkpt lat="43.21572217832192" lon="11.43258310848338"><ele>160.0</ele><time>2026-04-06T15:46:35Z</time></trkpt><trkpt lat="43.21563690004317" lon="11.432597406799543"><ele>160.0</ele><time>2026-04-06T15:46:36Z</time></trkpt><trkpt lat="43.215565581152255" lon="11.432634115211773"><ele>160.0</ele><time>2026-04-06T15:46:37Z</time></trkpt><trkpt lat="43.215511626480875" lon="11.432687550586945"><ele>160.0</ele><time>2026-04-06T15:46:38Z</time></trkpt><trkpt lat="43.215465395342406" lon="11.4327610766874"><ele>160.0</ele><time>2026-04-06T15:46:38.999Z</time></trkpt><trkpt lat="43.215431396171034" lon="11.432847248175298"><ele>160.0</ele><time>2026-04-06T15:46:39.999Z</time></trkpt><trkpt lat="43.21540896990361" lon="11.432942885360955"><ele>160.0</ele><time>2026-04-06T15:46:40.999Z</time></trkpt><trkpt lat="43.21539526549447" lon="11.43307307143913"><ele>160.0</ele><time>2026-04-06T15:46:42.999Z</time></trkpt><trkpt lat="43.21539516304024" lon="11.433203166332177"><ele>160.0</ele><time>2026-04-06T15:46:44.999Z</time></trkpt><trkpt lat="43.21534259642054" lon="11.433274202743952"><ele>160.0</ele><time>2026-04-06T15:46:45.999Z</time></trkpt><trkpt lat="43.21524957288449" lon="11.433401425275468"><ele>160.0</ele><time>2026-04-06T15:46:47.999Z</time></trkpt><trkpt lat="43.21518655600602" lon="11.433448900492024"><ele>160.0</ele><time>2026-04-06T15:46:48.999Z</time></trkpt><trkpt lat="43.21512039866781" lon="11.433503245956329"><ele>160.0</ele><time>2026-04-06T15:46:49.999Z</time></trkpt><trkpt lat="43.21503883217076" lon="11.433551190958244"><ele>160.0</ele><time>2026-04-06T15:46:50.999Z</time></trkpt><trkpt lat="43.21493303935964" lon="11.433631310680072"><ele>160.0</ele><time>2026-04-06T15:46:51.999Z</time></trkpt><trkpt lat="43.21482424458689" lon="11.433716518762385"><ele>161.5</ele><time>2026-04-06T15:46:52.999Z</time></trkpt><trkpt lat="43.214715317375415" lon="11.43381790046262"><ele>163.0</ele><time>2026-04-06T15:46:53.999Z</time></trkpt><trkpt lat="43.21460032502326" lon="11.433911049075759"><ele>164.5</ele><time>2026-04-06T15:46:54.999Z</time></trkpt><trkpt lat="43.21449047058244" lon="11.434014085574328"><ele>166.0</ele><time>2026-04-06T15:46:55.999Z</time></trkpt><trkpt lat="43.21437711437361" lon="11.43411685389441"><ele>166.0</ele><time>2026-04-06T15:46:56.999Z</time></trkpt><trkpt lat="43.21426081906053" lon="11.434234131923715"><ele>166.0</ele><time>2026-04-06T15:46:57.999Z</time></trkpt><trkpt lat="43.214150212548525" lon="11.434356569313975"><ele>166.0</ele><time>2026-04-06T15:46:58.999Z</time></trkpt><trkpt lat="43.21404087663185" lon="11.434473270219515"><ele>166.0</ele><time>2026-04-06T15:46:59.999Z</time></trkpt><trkpt lat="43.21393489666815" lon="11.434578090658496"><ele>168.20000000000002</ele><time>2026-04-06T15:47:00.999Z</time></trkpt><trkpt lat="43.21382775368667" lon="11.434671287548142"><ele>170.4</ele><time>2026-04-06T15:47:01.999Z</time></trkpt><trkpt lat="43.213729518685646" lon="11.434743341299061"><ele>172.6</ele><time>2026-04-06T15:47:02.999Z</time></trkpt><trkpt lat="43.21364395778479" lon="11.434792986505741"><ele>174.8</ele><time>2026-04-06T15:47:03.999Z</time></trkpt><trkpt lat="43.21355613680136" lon="11.434831054303732"><ele>177.0</ele><time>2026-04-06T15:47:04.999Z</time></trkpt><trkpt lat="43.21345718567369" lon="11.434845775475088"><ele>177.0</ele><time>2026-04-06T15:47:05.999Z</time></trkpt><trkpt lat="43.21334606924898" lon="11.434864832892348"><ele>177.0</ele><time>2026-04-06T15:47:06.999Z</time></trkpt><trkpt lat="43.21323526037568" lon="11.434897002115934"><ele>177.0</ele><time>2026-04-06T15:47:07.999Z</time></trkpt><trkpt lat="43.21312179283232" lon="11.434941619236474"><ele>177.0</ele><time>2026-04-06T15:47:08.999Z</time></trkpt><trkpt lat="43.2130063794797" lon="11.435001811307863"><ele>176.5</ele><time>2026-04-06T15:47:09.999Z</time></trkpt><trkpt lat="43.21288430802643" lon="11.435076073351114"><ele>176.0</ele><time>2026-04-06T15:47:10.999Z</time></trkpt><trkpt lat="43.21275711110316" lon="11.43515946037776"><ele>175.5</ele><time>2026-04-06T15:47:11.999Z</time></trkpt><trkpt lat="43.21262772913248" lon="11.435236608797394"><ele>175.0</ele><time>2026-04-06T15:47:12.999Z</time></trkpt><trkpt lat="43.2125077186531" lon="11.435309557312527"><ele>175.0</ele><time>2026-04-06T15:47:13.999Z</time></trkpt><trkpt lat="43.212392792679275" lon="11.435387660691763"><ele>175.0</ele><time>2026-04-06T15:47:14.999Z</time></trkpt><trkpt lat="43.21228855053158" lon="11.43545271083236"><ele>175.0</ele><time>2026-04-06T15:47:15.999Z</time></trkpt><trkpt lat="43.212193482110976" lon="11.43552713075779"><ele>175.0</ele><time>2026-04-06T15:47:16.998Z</time></trkpt><trkpt lat="43.21209974337652" lon="11.435619932395882"><ele>174.6</ele><time>2026-04-06T15:47:17.998Z</time></trkpt><trkpt lat="43.21201985243075" lon="11.435728274061276"><ele>174.2</ele><time>2026-04-06T15:47:18.998Z</time></trkpt><trkpt lat="43.21195930103439" lon="11.435844408048164"><ele>173.8</ele><time>2026-04-06T15:47:19.998Z</time></trkpt><trkpt lat="43.21190886632717" lon="11.435968438616719"><ele>173.4</ele><time>2026-04-06T15:47:20.998Z</time></trkpt><trkpt lat="43.21186586478506" lon="11.436094681513264"><ele>173.0</ele><time>2026-04-06T15:47:21.998Z</time></trkpt><trkpt lat="43.21180961280599" lon="11.43620116184043"><ele>173.33333333333331</ele><time>2026-04-06T15:47:22.998Z</time></trkpt><trkpt lat="43.21177371900356" lon="11.43630478862468"><ele>173.66666666666666</ele><time>2026-04-06T15:47:23.998Z</time></trkpt><trkpt lat="43.21174033982045" lon="11.436401155599013"><ele>174.0</ele><time>2026-04-06T15:47:24.998Z</time></trkpt><trkpt lat="43.211706727910936" lon="11.436491257175595"><ele>174.33333333333334</ele><time>2026-04-06T15:47:25.998Z</time></trkpt><trkpt lat="43.211671896281295" lon="11.436586809948377"><ele>174.66666666666669</ele><time>2026-04-06T15:47:26.998Z</time></trkpt><trkpt lat="43.21161001070834" lon="11.43665711756959"><ele>175.0</ele><time>2026-04-06T15:47:27.998Z</time></trkpt><trkpt lat="43.21153798671559" lon="11.43671362558768"><ele>173.2</ele><time>2026-04-06T15:47:28.999Z</time></trkpt><trkpt lat="43.21144742009553" lon="11.436767385741687"><ele>171.4</ele><time>2026-04-06T15:47:29.999Z</time></trkpt><trkpt lat="43.211352161934165" lon="11.436821417002905"><ele>169.60000000000002</ele><time>2026-04-06T15:47:30.999Z</time></trkpt><trkpt lat="43.21125721306243" lon="11.436870665465868"><ele>167.8</ele><time>2026-04-06T15:47:31.999Z</time></trkpt><trkpt lat="43.21116863603639" lon="11.436918971318553"><ele>166.0</ele><time>2026-04-06T15:47:32.999Z</time></trkpt><trkpt lat="43.2110816304222" lon="11.436967401380015"><ele>166.0</ele><time>2026-04-06T15:47:33.999Z</time></trkpt><trkpt lat="43.211000606233256" lon="11.43701993097479"><ele>166.0</ele><time>2026-04-06T15:47:34.999Z</time></trkpt><trkpt lat="43.210924043752854" lon="11.437071688635447"><ele>166.0</ele><time>2026-04-06T15:47:35.999Z</time></trkpt><trkpt lat="43.21085257366891" lon="11.437115995389885"><ele>166.0</ele><time>2026-04-06T15:47:36.999Z</time></trkpt><trkpt lat="43.21078279340438" lon="11.437160082757188"><ele>166.0</ele><time>2026-04-06T15:47:37.999Z</time></trkpt><trkpt lat="43.210718597077594" lon="11.437194619543073"><ele>166.0</ele><time>2026-04-06T15:47:38.999Z</time></trkpt><trkpt lat="43.21065898351335" lon="11.437225062029233"><ele>164.4</ele><time>2026-04-06T15:47:39.999Z</time></trkpt><trkpt lat="43.210577488638855" lon="11.437278708415153"><ele>162.8</ele><time>2026-04-06T15:47:41.999Z</time></trkpt><trkpt lat="43.2105196709313" lon="11.437319144560487"><ele>161.20000000000002</ele><time>2026-04-06T15:47:43.999Z</time></trkpt><trkpt lat="43.21040200745845" lon="11.437406393666645"><ele>159.60000000000002</ele><time>2026-04-06T15:48:08.999Z</time></trkpt><trkpt lat="43.210333106141846" lon="11.437446966259978"><ele>158.0</ele><time>2026-04-06T15:48:09.999Z</time></trkpt><trkpt lat="43.21024240487027" lon="11.437500774093243"><ele>158.0</ele><time>2026-04-06T15:48:10.999Z</time></trkpt><trkpt lat="43.21015148891981" lon="11.437555242828392"><ele>158.0</ele><time>2026-04-06T15:48:11.999Z</time></trkpt><trkpt lat="43.21005299193744" lon="11.437617803491673"><ele>158.0</ele><time>2026-04-06T15:48:12.999Z</time></trkpt><trkpt lat="43.20994320904634" lon="11.437686655768518"><ele>158.0</ele><time>2026-04-06T15:48:13.999Z</time></trkpt><trkpt lat="43.209829749831115" lon="11.43775774292008"><ele>158.0</ele><time>2026-04-06T15:48:14.999Z</time></trkpt><trkpt lat="43.209711307762916" lon="11.437830873099989"><ele>158.0</ele><time>2026-04-06T15:48:15.999Z</time></trkpt><trkpt lat="43.209589814370794" lon="11.437909529178178"><ele>158.0</ele><time>2026-04-06T15:48:16.999Z</time></trkpt><trkpt lat="43.20947569701557" lon="11.437981478455116"><ele>158.0</ele><time>2026-04-06T15:48:17.999Z</time></trkpt><trkpt lat="43.20936954418204" lon="11.438042722944777"><ele>158.0</ele><time>2026-04-06T15:48:18.999Z</time></trkpt><trkpt lat="43.20926316267839" lon="11.43809351513763"><ele>158.0</ele><time>2026-04-06T15:48:19.999Z</time></trkpt><trkpt lat="43.20914297045804" lon="11.438161360053583"><ele>158.0</ele><time>2026-04-06T15:48:20.999Z</time></trkpt><trkpt lat="43.20901641518195" lon="11.438245742771263"><ele>158.0</ele><time>2026-04-06T15:48:21.999Z</time></trkpt><trkpt lat="43.20888686010962" lon="11.43832987240156"><ele>157.75</ele><time>2026-04-06T15:48:22.999Z</time></trkpt><trkpt lat="43.20875619438465" lon="11.438413644876093"><ele>157.5</ele><time>2026-04-06T15:48:23.999Z</time></trkpt><trkpt lat="43.20862405735711" lon="11.438495934736412"><ele>157.25</ele><time>2026-04-06T15:48:24.999Z</time></trkpt><trkpt lat="43.20848384363037" lon="11.438584386728607"><ele>157.0</ele><time>2026-04-06T15:48:25.999Z</time></trkpt><trkpt lat="43.2083559585857" lon="11.438660524116331"><ele>157.0</ele><time>2026-04-06T15:48:26.999Z</time></trkpt><trkpt lat="43.20824390366547" lon="11.438729544208838"><ele>157.0</ele><time>2026-04-06T15:48:27.999Z</time></trkpt><trkpt lat="43.20814101872217" lon="11.438794041741588"><ele>157.0</ele><time>2026-04-06T15:48:28.999Z</time></trkpt><trkpt lat="43.208046239977165" lon="11.438850674111851"><ele>157.0</ele><time>2026-04-06T15:48:29.999Z</time></trkpt><trkpt lat="43.20796074723566" lon="11.43890050676535"><ele>157.0</ele><time>2026-04-06T15:48:30.999Z</time></trkpt><trkpt lat="43.20788235879358" lon="11.438948014442788"><ele>157.0</ele><time>2026-04-06T15:48:31.999Z</time></trkpt><trkpt lat="43.20781147131922" lon="11.438993522621692"><ele>157.0</ele><time>2026-04-06T15:48:32.999Z</time></trkpt><trkpt lat="43.20774567954599" lon="11.439035088860486"><ele>157.0</ele><time>2026-04-06T15:48:33.999Z</time></trkpt><trkpt lat="43.207685411735" lon="11.439071552055257"><ele>157.0</ele><time>2026-04-06T15:48:34.999Z</time></trkpt><trkpt lat="43.20759653647319" lon="11.439104015240504"><ele>157.0</ele><time>2026-04-06T15:48:36.999Z</time></trkpt><trkpt lat="43.2074857717349" lon="11.439109585217162"><ele>157.0</ele><time>2026-04-06T15:48:47.999Z</time></trkpt><trkpt lat="43.207420836191574" lon="11.439208466344194"><ele>157.0</ele><time>2026-04-06T15:48:48.999Z</time></trkpt><trkpt lat="43.20732992848043" lon="11.439277578660647"><ele>157.0</ele><time>2026-04-06T15:48:49.999Z</time></trkpt><trkpt lat="43.20722649666238" lon="11.439345473725803"><ele>157.0</ele><time>2026-04-06T15:48:50.999Z</time></trkpt><trkpt lat="43.20711305656965" lon="11.439414537346975"><ele>157.0</ele><time>2026-04-06T15:48:51.999Z</time></trkpt><trkpt lat="43.20699852677852" lon="11.439487602900185"><ele>157.0</ele><time>2026-04-06T15:48:52.999Z</time></trkpt><trkpt lat="43.20687529247225" lon="11.43956602449184"><ele>157.0</ele><time>2026-04-06T15:48:53.999Z</time></trkpt><trkpt lat="43.20674171176216" lon="11.439647945663312"><ele>157.0</ele><time>2026-04-06T15:48:54.999Z</time></trkpt><trkpt lat="43.20660375764929" lon="11.439729194675484"><ele>157.0</ele><time>2026-04-06T15:48:55.999Z</time></trkpt><trkpt lat="43.20647177997471" lon="11.439807582876778"><ele>157.0</ele><time>2026-04-06T15:48:56.999Z</time></trkpt><trkpt lat="43.20635382694375" lon="11.43988001046017"><ele>157.0</ele><time>2026-04-06T15:48:57.999Z</time></trkpt><trkpt lat="43.20623270063033" lon="11.439950805205193"><ele>157.0</ele><time>2026-04-06T15:48:58.999Z</time></trkpt><trkpt lat="43.206106803135505" lon="11.440025126059243"><ele>157.0</ele><time>2026-04-06T15:48:59.999Z</time></trkpt><trkpt lat="43.205976038014875" lon="11.440107070773198"><ele>157.0</ele><time>2026-04-06T15:49:00.999Z</time></trkpt><trkpt lat="43.20584035114449" lon="11.440192578568666"><ele>157.0</ele><time>2026-04-06T15:49:01.999Z</time></trkpt><trkpt lat="43.20570013824499" lon="11.440279689286806"><ele>157.0</ele><time>2026-04-06T15:49:02.999Z</time></trkpt><trkpt lat="43.20555972258234" lon="11.440364056813406"><ele>157.25</ele><time>2026-04-06T15:49:03.999Z</time></trkpt><trkpt lat="43.20542410710884" lon="11.44044514240458"><ele>157.5</ele><time>2026-04-06T15:49:04.999Z</time></trkpt><trkpt lat="43.2052927897101" lon="11.440523880225374"><ele>157.75</ele><time>2026-04-06T15:49:05.999Z</time></trkpt><trkpt lat="43.205159896578536" lon="11.440602794875852"><ele>158.0</ele><time>2026-04-06T15:49:06.999Z</time></trkpt><trkpt lat="43.20502614386206" lon="11.440679010389257"><ele>158.0</ele><time>2026-04-06T15:49:07.999Z</time></trkpt><trkpt lat="43.20489233476697" lon="11.44076002704146"><ele>158.0</ele><time>2026-04-06T15:49:08.999Z</time></trkpt><trkpt lat="43.20476588809123" lon="11.440843141631007"><ele>158.0</ele><time>2026-04-06T15:49:09.999Z</time></trkpt><trkpt lat="43.2046417907129" lon="11.440920449388699"><ele>158.0</ele><time>2026-04-06T15:49:10.999Z</time></trkpt><trkpt lat="43.20452115064625" lon="11.440993648863678"><ele>158.33333333333331</ele><time>2026-04-06T15:49:11.999Z</time></trkpt><trkpt lat="43.20439142404336" lon="11.441077967529681"><ele>158.66666666666666</ele><time>2026-04-06T15:49:12.999Z</time></trkpt><trkpt lat="43.20425388829365" lon="11.441172437950346"><ele>159.0</ele><time>2026-04-06T15:49:13.999Z</time></trkpt><trkpt lat="43.20411999890272" lon="11.441279469930718"><ele>159.66666666666666</ele><time>2026-04-06T15:49:14.999Z</time></trkpt><trkpt lat="43.20399064938723" lon="11.441395346356915"><ele>160.33333333333331</ele><time>2026-04-06T15:49:15.999Z</time></trkpt><trkpt lat="43.20386389581012" lon="11.441522722093769"><ele>161.0</ele><time>2026-04-06T15:49:16.999Z</time></trkpt><trkpt lat="43.203740164144996" lon="11.44165896670007"><ele>161.0</ele><time>2026-04-06T15:49:17.999Z</time></trkpt><trkpt lat="43.203614314870755" lon="11.441802436449555"><ele>161.0</ele><time>2026-04-06T15:49:18.999Z</time></trkpt><trkpt lat="43.203498509895276" lon="11.441941945301677"><ele>161.0</ele><time>2026-04-06T15:49:19.999Z</time></trkpt><trkpt lat="43.20338569816473" lon="11.44208986359457"><ele>160.75</ele><time>2026-04-06T15:49:20.999Z</time></trkpt><trkpt lat="43.203278312821425" lon="11.442239997899334"><ele>160.5</ele><time>2026-04-06T15:49:21.999Z</time></trkpt><trkpt lat="43.20317204999801" lon="11.442383625474951"><ele>160.25</ele><time>2026-04-06T15:49:22.999Z</time></trkpt><trkpt lat="43.203061319685936" lon="11.442514779934891"><ele>160.0</ele><time>2026-04-06T15:49:23.999Z</time></trkpt><trkpt lat="43.20294178970351" lon="11.442636101407443"><ele>160.0</ele><time>2026-04-06T15:49:24.999Z</time></trkpt><trkpt lat="43.20281555594712" lon="11.442732125064857"><ele>160.0</ele><time>2026-04-06T15:49:25.999Z</time></trkpt><trkpt lat="43.202687857784944" lon="11.442793530249604"><ele>160.0</ele><time>2026-04-06T15:49:26.999Z</time></trkpt><trkpt lat="43.20256475676521" lon="11.44282406093218"><ele>160.0</ele><time>2026-04-06T15:49:27.999Z</time></trkpt><trkpt lat="43.20244199370658" lon="11.442838446796644"><ele>159.75</ele><time>2026-04-06T15:49:28.999Z</time></trkpt><trkpt lat="43.202310091668714" lon="11.44284924064918"><ele>159.5</ele><time>2026-04-06T15:49:29.999Z</time></trkpt><trkpt lat="43.202173891463296" lon="11.442859293428983"><ele>159.25</ele><time>2026-04-06T15:49:30.999Z</time></trkpt><trkpt lat="43.20203543251711" lon="11.442872378162603"><ele>159.0</ele><time>2026-04-06T15:49:31.999Z</time></trkpt><trkpt lat="43.20189923685912" lon="11.442885384387052"><ele>159.0</ele><time>2026-04-06T15:49:32.999Z</time></trkpt><trkpt lat="43.201766512329485" lon="11.442899232417037"><ele>159.0</ele><time>2026-04-06T15:49:33.999Z</time></trkpt><trkpt lat="43.20164004027567" lon="11.442910954222633"><ele>159.0</ele><time>2026-04-06T15:49:34.999Z</time></trkpt><trkpt lat="43.20151669293579" lon="11.442920876130083"><ele>159.0</ele><time>2026-04-06T15:49:35.999Z</time></trkpt><trkpt lat="43.20139702072195" lon="11.442930230773538"><ele>158.5</ele><time>2026-04-06T15:49:36.999Z</time></trkpt><trkpt lat="43.20127796730759" lon="11.442941383787343"><ele>158.0</ele><time>2026-04-06T15:49:37.999Z</time></trkpt><trkpt lat="43.20115719712134" lon="11.442952562875712"><ele>157.5</ele><time>2026-04-06T15:49:38.999Z</time></trkpt><trkpt lat="43.201034661306885" lon="11.442964849506327"><ele>157.0</ele><time>2026-04-06T15:49:39.999Z</time></trkpt><trkpt lat="43.20090919210618" lon="11.442975973110146"><ele>156.75</ele><time>2026-04-06T15:49:40.999Z</time></trkpt><trkpt lat="43.200784977048905" lon="11.442988342094655"><ele>156.5</ele><time>2026-04-06T15:49:41.999Z</time></trkpt><trkpt lat="43.200660018267754" lon="11.443004032711208"><ele>156.25</ele><time>2026-04-06T15:49:42.999Z</time></trkpt><trkpt lat="43.200538531029814" lon="11.443018841034997"><ele>156.0</ele><time>2026-04-06T15:49:43.999Z</time></trkpt><trkpt lat="43.200415128492395" lon="11.443031565461743"><ele>156.5</ele><time>2026-04-06T15:49:44.999Z</time></trkpt><trkpt lat="43.20029285535762" lon="11.443040969217943"><ele>157.0</ele><time>2026-04-06T15:49:45.999Z</time></trkpt><trkpt lat="43.200171983607845" lon="11.443048411594523"><ele>157.5</ele><time>2026-04-06T15:49:46.999Z</time></trkpt><trkpt lat="43.20005058344622" lon="11.443058768017632"><ele>158.0</ele><time>2026-04-06T15:49:47.999Z</time></trkpt><trkpt lat="43.19993215139663" lon="11.443069911994343"><ele>157.75</ele><time>2026-04-06T15:49:48.999Z</time></trkpt><trkpt lat="43.19981291461007" lon="11.443079963314945"><ele>157.5</ele><time>2026-04-06T15:49:49.999Z</time></trkpt><trkpt lat="43.19968661999915" lon="11.443093000090885"><ele>157.25</ele><time>2026-04-06T15:49:50.999Z</time></trkpt><trkpt lat="43.19954973163297" lon="11.443106860130397"><ele>157.0</ele><time>2026-04-06T15:49:51.999Z</time></trkpt><trkpt lat="43.19941314871678" lon="11.443121025389772"><ele>157.0</ele><time>2026-04-06T15:49:52.999Z</time></trkpt><trkpt lat="43.199279667064935" lon="11.443133453148091"><ele>157.0</ele><time>2026-04-06T15:49:53.999Z</time></trkpt><trkpt lat="43.19914931318617" lon="11.443145385678575"><ele>157.0</ele><time>2026-04-06T15:49:54.999Z</time></trkpt><trkpt lat="43.19901797989921" lon="11.443162380433265"><ele>157.0</ele><time>2026-04-06T15:49:55.999Z</time></trkpt><trkpt lat="43.19889107126853" lon="11.443184923270232"><ele>157.16666666666669</ele><time>2026-04-06T15:49:56.999Z</time></trkpt><trkpt lat="43.19877927411292" lon="11.443214051052449"><ele>157.33333333333334</ele><time>2026-04-06T15:49:57.999Z</time></trkpt><trkpt lat="43.19868718432533" lon="11.443242897872556"><ele>157.5</ele><time>2026-04-06T15:49:58.999Z</time></trkpt><trkpt lat="43.198615707041256" lon="11.443268331492748"><ele>157.66666666666666</ele><time>2026-04-06T15:49:59.999Z</time></trkpt><trkpt lat="43.19854455495677" lon="11.443297482398426"><ele>157.83333333333331</ele><time>2026-04-06T15:50:01.999Z</time></trkpt><trkpt lat="43.19847513882112" lon="11.44333611583396"><ele>158.0</ele><time>2026-04-06T15:50:20.999Z</time></trkpt><trkpt lat="43.19853311320344" lon="11.443529516727091"><ele>158.0</ele><time>2026-04-06T15:50:22.999Z</time></trkpt><trkpt lat="43.19854362228115" lon="11.443634404675985"><ele>158.0</ele><time>2026-04-06T15:50:23.999Z</time></trkpt><trkpt lat="43.19857153934813" lon="11.44374841955129"><ele>158.0</ele><time>2026-04-06T15:50:24.999Z</time></trkpt><trkpt lat="43.198597022271535" lon="11.443852493218554"><ele>158.0</ele><time>2026-04-06T15:50:25.999Z</time></trkpt><trkpt lat="43.19862235505993" lon="11.443955953838604"><ele>158.0</ele><time>2026-04-06T15:50:26.999Z</time></trkpt><trkpt lat="43.19867058615207" lon="11.444084896681126"><ele>158.0</ele><time>2026-04-06T15:50:27.999Z</time></trkpt><trkpt lat="43.198707345984566" lon="11.444241308249428"><ele>157.75</ele><time>2026-04-06T15:50:28.999Z</time></trkpt><trkpt lat="43.19874715280944" lon="11.444400819425033"><ele>157.5</ele><time>2026-04-06T15:50:29.999Z</time></trkpt><trkpt lat="43.198773883318786" lon="11.444584896316883"><ele>157.25</ele><time>2026-04-06T15:50:30.999Z</time></trkpt><trkpt lat="43.19882142215642" lon="11.444783464476986"><ele>157.0</ele><time>2026-04-06T15:50:31.999Z</time></trkpt><trkpt lat="43.198868124817814" lon="11.444977915954231"><ele>156.66666666666669</ele><time>2026-04-06T15:50:32.999Z</time></trkpt><trkpt lat="43.19891353770893" lon="11.44516699753039"><ele>156.33333333333334</ele><time>2026-04-06T15:50:33.999Z</time></trkpt><trkpt lat="43.19896200340131" lon="11.445368789653385"><ele>156.0</ele><time>2026-04-06T15:50:34.999Z</time></trkpt><trkpt lat="43.19900952903644" lon="11.445566667747029"><ele>156.0</ele><time>2026-04-06T15:50:35.999Z</time></trkpt><trkpt lat="43.199059303987646" lon="11.445773911231884"><ele>156.0</ele><time>2026-04-06T15:50:36.999Z</time></trkpt><trkpt lat="43.19910914788033" lon="11.445981441481445"><ele>156.0</ele><time>2026-04-06T15:50:37.999Z</time></trkpt><trkpt lat="43.19915833880434" lon="11.44618625328987"><ele>155.66666666666666</ele><time>2026-04-06T15:50:38.999Z</time></trkpt><trkpt lat="43.19920951494822" lon="11.44639869791501"><ele>155.33333333333331</ele><time>2026-04-06T15:50:39.999Z</time></trkpt><trkpt lat="43.19926194080743" lon="11.446614100955932"><ele>155.0</ele><time>2026-04-06T15:50:40.999Z</time></trkpt><trkpt lat="43.199315197836036" lon="11.44683291888755"><ele>155.0</ele><time>2026-04-06T15:50:41.999Z</time></trkpt><trkpt lat="43.19938159524674" lon="11.447037782371824"><ele>155.0</ele><time>2026-04-06T15:50:42.999Z</time></trkpt><trkpt lat="43.19943485660959" lon="11.447259978497497"><ele>155.0</ele><time>2026-04-06T15:50:43.999Z</time></trkpt><trkpt lat="43.19948824863602" lon="11.447481596877791"><ele>155.0</ele><time>2026-04-06T15:50:44.999Z</time></trkpt><trkpt lat="43.199539194196525" lon="11.447686968840669"><ele>155.0</ele><time>2026-04-06T15:50:45.999Z</time></trkpt><trkpt lat="43.19957224901577" lon="11.447889486781333"><ele>155.0</ele><time>2026-04-06T15:50:46.999Z</time></trkpt><trkpt lat="43.199634376700104" lon="11.44808276245559"><ele>155.0</ele><time>2026-04-06T15:50:47.999Z</time></trkpt><trkpt lat="43.1996789804381" lon="11.448279946262796"><ele>155.0</ele><time>2026-04-06T15:50:48.999Z</time></trkpt><trkpt lat="43.19972520088385" lon="11.448467128635611"><ele>155.0</ele><time>2026-04-06T15:50:49.999Z</time></trkpt><trkpt lat="43.19976696207428" lon="11.448644827474574"><ele>155.0</ele><time>2026-04-06T15:50:50.999Z</time></trkpt><trkpt lat="43.19980970486956" lon="11.448819439321872"><ele>155.25</ele><time>2026-04-06T15:50:51.999Z</time></trkpt><trkpt lat="43.1998515011719" lon="11.448993162930218"><ele>155.5</ele><time>2026-04-06T15:50:52.999Z</time></trkpt><trkpt lat="43.199889787114316" lon="11.44916229788868"><ele>155.75</ele><time>2026-04-06T15:50:53.999Z</time></trkpt><trkpt lat="43.19992948689041" lon="11.449329947653721"><ele>156.0</ele><time>2026-04-06T15:50:54.999Z</time></trkpt><trkpt lat="43.199970851936044" lon="11.449501086790091"><ele>156.0</ele><time>2026-04-06T15:50:55.999Z</time></trkpt><trkpt lat="43.20001170067088" lon="11.44967345228847"><ele>156.0</ele><time>2026-04-06T15:50:56.999Z</time></trkpt><trkpt lat="43.200052392133784" lon="11.449844358554829"><ele>156.0</ele><time>2026-04-06T15:50:57.999Z</time></trkpt><trkpt lat="43.200095306143155" lon="11.450021405388696"><ele>156.0</ele><time>2026-04-06T15:50:58.999Z</time></trkpt><trkpt lat="43.20013920965141" lon="11.450195354864293"><ele>156.0</ele><time>2026-04-06T15:50:59.999Z</time></trkpt><trkpt lat="43.20018734208456" lon="11.45036798034892"><ele>156.0</ele><time>2026-04-06T15:51:00.999Z</time></trkpt><trkpt lat="43.20023493119042" lon="11.450549355916857"><ele>156.0</ele><time>2026-04-06T15:51:01.999Z</time></trkpt><trkpt lat="43.20028015186576" lon="11.45073537434795"><ele>156.0</ele><time>2026-04-06T15:51:02.999Z</time></trkpt><trkpt lat="43.200327824167374" lon="11.450939358042232"><ele>156.0</ele><time>2026-04-06T15:51:03.999Z</time></trkpt><trkpt lat="43.200374128463025" lon="11.451144323275198"><ele>156.0</ele><time>2026-04-06T15:51:04.999Z</time></trkpt><trkpt lat="43.200419000692875" lon="11.451356363160732"><ele>156.0</ele><time>2026-04-06T15:51:05.999Z</time></trkpt><trkpt lat="43.20046100868953" lon="11.451556416924305"><ele>155.5</ele><time>2026-04-06T15:51:06.999Z</time></trkpt><trkpt lat="43.200500986746114" lon="11.451749688519154"><ele>155.0</ele><time>2026-04-06T15:51:07.999Z</time></trkpt><trkpt lat="43.20053849326557" lon="11.451936511170858"><ele>154.5</ele><time>2026-04-06T15:51:08.999Z</time></trkpt><trkpt lat="43.20057532967952" lon="11.452123280420496"><ele>154.0</ele><time>2026-04-06T15:51:09.999Z</time></trkpt><trkpt lat="43.20061147140767" lon="11.452290065495916"><ele>153.8</ele><time>2026-04-06T15:51:10.999Z</time></trkpt><trkpt lat="43.20064703321644" lon="11.452435117994082"><ele>153.60000000000002</ele><time>2026-04-06T15:51:11.999Z</time></trkpt><trkpt lat="43.20069285296702" lon="11.452574597933959"><ele>153.4</ele><time>2026-04-06T15:51:12.999Z</time></trkpt><trkpt lat="43.200744348992664" lon="11.452694741425915"><ele>153.20000000000002</ele><time>2026-04-06T15:51:13.999Z</time></trkpt><trkpt lat="43.200792170260655" lon="11.452815401744163"><ele>153.0</ele><time>2026-04-06T15:51:14.999Z</time></trkpt><trkpt lat="43.20083833933211" lon="11.452944822862626"><ele>152.75</ele><time>2026-04-06T15:51:15.999Z</time></trkpt><trkpt lat="43.20084619315332" lon="11.453082224530231"><ele>152.5</ele><time>2026-04-06T15:51:16.999Z</time></trkpt><trkpt lat="43.20085631727012" lon="11.453232143963605"><ele>152.25</ele><time>2026-04-06T15:51:17.999Z</time></trkpt><trkpt lat="43.200867752828" lon="11.453396504810794"><ele>152.0</ele><time>2026-04-06T15:51:18.999Z</time></trkpt><trkpt lat="43.200863814312065" lon="11.453575037221073"><ele>152.0</ele><time>2026-04-06T15:51:19.999Z</time></trkpt><trkpt lat="43.20086269426019" lon="11.453758286333484"><ele>152.0</ele><time>2026-04-06T15:51:20.999Z</time></trkpt><trkpt lat="43.200865376854196" lon="11.453938021720308"><ele>152.0</ele><time>2026-04-06T15:51:21.999Z</time></trkpt><trkpt lat="43.200896453236425" lon="11.454110023526262"><ele>152.0</ele><time>2026-04-06T15:51:22.999Z</time></trkpt><trkpt lat="43.200913484969234" lon="11.454270532745632"><ele>153.4</ele><time>2026-04-06T15:51:23.999Z</time></trkpt><trkpt lat="43.20093704614475" lon="11.45443031377229"><ele>154.79999999999998</ele><time>2026-04-06T15:51:24.999Z</time></trkpt><trkpt lat="43.200937153905336" lon="11.454585678052052"><ele>156.2</ele><time>2026-04-06T15:51:25.999Z</time></trkpt><trkpt lat="43.20093957643705" lon="11.454740225534495"><ele>157.6</ele><time>2026-04-06T15:51:26.999Z</time></trkpt><trkpt lat="43.200953176655645" lon="11.454878895289596"><ele>159.0</ele><time>2026-04-06T15:51:27.999Z</time></trkpt><trkpt lat="43.200958364203736" lon="11.454995290136472"><ele>159.8</ele><time>2026-04-06T15:51:28.999Z</time></trkpt><trkpt lat="43.200945322740516" lon="11.455096328353209"><ele>160.60000000000002</ele><time>2026-04-06T15:51:29.999Z</time></trkpt><trkpt lat="43.20095750724306" lon="11.455217859909444"><ele>161.4</ele><time>2026-04-06T15:51:30.999Z</time></trkpt><trkpt lat="43.200921334708525" lon="11.45535092986764"><ele>162.20000000000002</ele><time>2026-04-06T15:51:31.999Z</time></trkpt><trkpt lat="43.200849555919994" lon="11.455482067371511"><ele>163.0</ele><time>2026-04-06T15:51:32.999Z</time></trkpt><trkpt lat="43.20074877586972" lon="11.455614113328055"><ele>162.25</ele><time>2026-04-06T15:51:33.999Z</time></trkpt><trkpt lat="43.20064956318508" lon="11.455741375744593"><ele>161.5</ele><time>2026-04-06T15:51:34.999Z</time></trkpt><trkpt lat="43.20055715548484" lon="11.455869149514237"><ele>160.75</ele><time>2026-04-06T15:51:35.999Z</time></trkpt><trkpt lat="43.20046536939508" lon="11.456005776209043"><ele>160.0</ele><time>2026-04-06T15:51:36.999Z</time></trkpt><trkpt lat="43.200373111221786" lon="11.456144434419135"><ele>160.0</ele><time>2026-04-06T15:51:37.999Z</time></trkpt><trkpt lat="43.20027806431846" lon="11.456282567912568"><ele>160.0</ele><time>2026-04-06T15:51:38.999Z</time></trkpt><trkpt lat="43.200199377739025" lon="11.456390833820766"><ele>160.0</ele><time>2026-04-06T15:51:39.999Z</time></trkpt><trkpt lat="43.20012410951258" lon="11.456488990826251"><ele>160.0</ele><time>2026-04-06T15:51:41Z</time></trkpt><trkpt lat="43.20004838198378" lon="11.456577906890587"><ele>159.5</ele><time>2026-04-06T15:51:42Z</time></trkpt><trkpt lat="43.19997526418589" lon="11.45667200621183"><ele>159.0</ele><time>2026-04-06T15:51:43Z</time></trkpt><trkpt lat="43.19989198600552" lon="11.456776115441242"><ele>158.5</ele><time>2026-04-06T15:51:44Z</time></trkpt><trkpt lat="43.19979901213821" lon="11.456893513169954"><ele>158.0</ele><time>2026-04-06T15:51:45Z</time></trkpt><trkpt lat="43.19969725989031" lon="11.457029311578118"><ele>159.75</ele><time>2026-04-06T15:51:46Z</time></trkpt><trkpt lat="43.19959533483427" lon="11.457172355550929"><ele>161.5</ele><time>2026-04-06T15:51:47Z</time></trkpt><trkpt lat="43.199501969122984" lon="11.457301200423107"><ele>163.25</ele><time>2026-04-06T15:51:48Z</time></trkpt><trkpt lat="43.199398572029736" lon="11.457412858968452"><ele>165.0</ele><time>2026-04-06T15:51:49Z</time></trkpt><trkpt lat="43.19929482136732" lon="11.45752279792854"><ele>165.0</ele><time>2026-04-06T15:51:50Z</time></trkpt><trkpt lat="43.19919875443043" lon="11.457631692959826"><ele>165.0</ele><time>2026-04-06T15:51:51Z</time></trkpt><trkpt lat="43.199108506489665" lon="11.457735543216543"><ele>165.0</ele><time>2026-04-06T15:51:52Z</time></trkpt><trkpt lat="43.19902533061679" lon="11.45783509723324"><ele>165.0</ele><time>2026-04-06T15:51:53Z</time></trkpt><trkpt lat="43.198949023802996" lon="11.457931548809581"><ele>164.0</ele><time>2026-04-06T15:51:54Z</time></trkpt><trkpt lat="43.19888131473233" lon="11.458023627689776"><ele>163.0</ele><time>2026-04-06T15:51:55Z</time></trkpt><trkpt lat="43.198810967000995" lon="11.458122455394378"><ele>162.0</ele><time>2026-04-06T15:51:56Z</time></trkpt><trkpt lat="43.19872973681528" lon="11.458245349131591"><ele>161.0</ele><time>2026-04-06T15:51:57Z</time></trkpt><trkpt lat="43.19864979005705" lon="11.458371290509426"><ele>160.0</ele><time>2026-04-06T15:51:58Z</time></trkpt><trkpt lat="43.1985672238923" lon="11.458502904779905"><ele>160.0</ele><time>2026-04-06T15:51:59Z</time></trkpt><trkpt lat="43.198479191636494" lon="11.458644146384305"><ele>160.0</ele><time>2026-04-06T15:52:00Z</time></trkpt><trkpt lat="43.19838753897043" lon="11.458784196751717"><ele>160.0</ele><time>2026-04-06T15:52:01Z</time></trkpt><trkpt lat="43.19829903656833" lon="11.45894296353665"><ele>160.0</ele><time>2026-04-06T15:52:02Z</time></trkpt><trkpt lat="43.19820573890919" lon="11.459098827652516"><ele>158.33333333333334</ele><time>2026-04-06T15:52:03Z</time></trkpt><trkpt lat="43.19811099450855" lon="11.45925435580062"><ele>156.66666666666666</ele><time>2026-04-06T15:52:04Z</time></trkpt><trkpt lat="43.19801085736998" lon="11.459412908958186"><ele>155.0</ele><time>2026-04-06T15:52:05Z</time></trkpt><trkpt lat="43.197912117988146" lon="11.4595720468563"><ele>155.0</ele><time>2026-04-06T15:52:06Z</time></trkpt><trkpt lat="43.197815824914784" lon="11.459727686346456"><ele>155.0</ele><time>2026-04-06T15:52:07Z</time></trkpt><trkpt lat="43.19772036452944" lon="11.459875377671539"><ele>155.0</ele><time>2026-04-06T15:52:08Z</time></trkpt><trkpt lat="43.19761672295648" lon="11.460030642392422"><ele>155.0</ele><time>2026-04-06T15:52:09Z</time></trkpt><trkpt lat="43.1975066232828" lon="11.460194985203646"><ele>155.0</ele><time>2026-04-06T15:52:10Z</time></trkpt><trkpt lat="43.19739575499498" lon="11.460370313107598"><ele>155.0</ele><time>2026-04-06T15:52:11Z</time></trkpt><trkpt lat="43.197282708082746" lon="11.460547457999006"><ele>155.0</ele><time>2026-04-06T15:52:12Z</time></trkpt><trkpt lat="43.197178167367724" lon="11.460707796385282"><ele>155.0</ele><time>2026-04-06T15:52:12.999Z</time></trkpt><trkpt lat="43.19707664781283" lon="11.460865366066841"><ele>155.0</ele><time>2026-04-06T15:52:13.999Z</time></trkpt><trkpt lat="43.196980438870966" lon="11.461015605500515"><ele>155.0</ele><time>2026-04-06T15:52:14.999Z</time></trkpt><trkpt lat="43.19688760993223" lon="11.461160257066547"><ele>155.0</ele><time>2026-04-06T15:52:15.999Z</time></trkpt><trkpt lat="43.19680642735078" lon="11.46128766599206"><ele>155.0</ele><time>2026-04-06T15:52:16.999Z</time></trkpt><trkpt lat="43.19672916142248" lon="11.461408780527478"><ele>155.0</ele><time>2026-04-06T15:52:17.999Z</time></trkpt><trkpt lat="43.1966535071016" lon="11.461529396644002"><ele>155.0</ele><time>2026-04-06T15:52:18.999Z</time></trkpt><trkpt lat="43.19657582793975" lon="11.461651167786185"><ele>155.0</ele><time>2026-04-06T15:52:19.999Z</time></trkpt><trkpt lat="43.196502956384165" lon="11.461763944871377"><ele>154.25</ele><time>2026-04-06T15:52:20.999Z</time></trkpt><trkpt lat="43.19646830013154" lon="11.461922593337041"><ele>153.5</ele><time>2026-04-06T15:52:21.999Z</time></trkpt><trkpt lat="43.1963924452657" lon="11.462048303816735"><ele>152.75</ele><time>2026-04-06T15:52:22.999Z</time></trkpt><trkpt lat="43.19632828120712" lon="11.462178833662408"><ele>152.0</ele><time>2026-04-06T15:52:23.999Z</time></trkpt><trkpt lat="43.19627087535883" lon="11.462324386998128"><ele>151.75</ele><time>2026-04-06T15:52:24.999Z</time></trkpt><trkpt lat="43.196209753209" lon="11.462478076984242"><ele>151.5</ele><time>2026-04-06T15:52:25.999Z</time></trkpt><trkpt lat="43.196144078489496" lon="11.462601162920828"><ele>151.25</ele><time>2026-04-06T15:52:26.999Z</time></trkpt><trkpt lat="43.19606956605404" lon="11.46274133111765"><ele>151.0</ele><time>2026-04-06T15:52:27.999Z</time></trkpt><trkpt lat="43.196001754428444" lon="11.46289027393854"><ele>150.75</ele><time>2026-04-06T15:52:28.999Z</time></trkpt><trkpt lat="43.19593188991455" lon="11.46304506574146"><ele>150.5</ele><time>2026-04-06T15:52:29.999Z</time></trkpt><trkpt lat="43.19583906166855" lon="11.463186464563528"><ele>150.25</ele><time>2026-04-06T15:52:30.999Z</time></trkpt><trkpt lat="43.19576319317871" lon="11.463341309293073"><ele>150.0</ele><time>2026-04-06T15:52:31.999Z</time></trkpt><trkpt lat="43.19569964375581" lon="11.463509781416379"><ele>150.0</ele><time>2026-04-06T15:52:32.999Z</time></trkpt><trkpt lat="43.19562977310546" lon="11.46368879788586"><ele>150.0</ele><time>2026-04-06T15:52:33.999Z</time></trkpt><trkpt lat="43.19555888844423" lon="11.463863854090437"><ele>150.0</ele><time>2026-04-06T15:52:34.999Z</time></trkpt><trkpt lat="43.19548721246083" lon="11.464042856061724"><ele>150.0</ele><time>2026-04-06T15:52:35.999Z</time></trkpt><trkpt lat="43.195416980949986" lon="11.46420845964695"><ele>150.25</ele><time>2026-04-06T15:52:36.999Z</time></trkpt><trkpt lat="43.19534762601801" lon="11.464370903395414"><ele>150.5</ele><time>2026-04-06T15:52:37.999Z</time></trkpt><trkpt lat="43.19528068351301" lon="11.4645330664106"><ele>150.75</ele><time>2026-04-06T15:52:38.999Z</time></trkpt><trkpt lat="43.19521654483412" lon="11.464692738308468"><ele>151.0</ele><time>2026-04-06T15:52:39.999Z</time></trkpt><trkpt lat="43.19516069156149" lon="11.464836049499436"><ele>151.33333333333334</ele><time>2026-04-06T15:52:40.999Z</time></trkpt><trkpt lat="43.19510827951687" lon="11.464962845215393"><ele>151.66666666666669</ele><time>2026-04-06T15:52:41.999Z</time></trkpt><trkpt lat="43.19505893026514" lon="11.465075585516123"><ele>152.0</ele><time>2026-04-06T15:52:42.999Z</time></trkpt><trkpt lat="43.19501554919989" lon="11.465179285514488"><ele>152.33333333333334</ele><time>2026-04-06T15:52:43.999Z</time></trkpt><trkpt lat="43.19497870908424" lon="11.465273297277761"><ele>152.66666666666666</ele><time>2026-04-06T15:52:44.999Z</time></trkpt><trkpt lat="43.19494017696204" lon="11.465363574991063"><ele>153.0</ele><time>2026-04-06T15:52:45.999Z</time></trkpt><trkpt lat="43.19491013589824" lon="11.465445983012636"><ele>153.4</ele><time>2026-04-06T15:52:46.999Z</time></trkpt><trkpt lat="43.194860894116935" lon="11.465555332964552"><ele>153.8</ele><time>2026-04-06T15:52:48.999Z</time></trkpt><trkpt lat="43.1949090911008" lon="11.465778546430482"><ele>154.2</ele><time>2026-04-06T15:52:50.999Z</time></trkpt><trkpt lat="43.19495253520347" lon="11.465874179820112"><ele>154.6</ele><time>2026-04-06T15:52:51.999Z</time></trkpt><trkpt lat="43.19502713975943" lon="11.465961098101006"><ele>155.0</ele><time>2026-04-06T15:52:52.999Z</time></trkpt><trkpt lat="43.19511139112295" lon="11.466046075201668"><ele>155.0</ele><time>2026-04-06T15:52:53.999Z</time></trkpt><trkpt lat="43.195199850264984" lon="11.466162429411341"><ele>155.0</ele><time>2026-04-06T15:52:54.999Z</time></trkpt><trkpt lat="43.1952723239672" lon="11.466256995073152"><ele>155.0</ele><time>2026-04-06T15:52:55.999Z</time></trkpt><trkpt lat="43.19532770138853" lon="11.466340487663821"><ele>155.0</ele><time>2026-04-06T15:52:56.999Z</time></trkpt><trkpt lat="43.19536509394895" lon="11.466422165328252"><ele>155.0</ele><time>2026-04-06T15:52:57.999Z</time></trkpt><trkpt lat="43.195391611874335" lon="11.466514007886314"><ele>155.0</ele><time>2026-04-06T15:52:58.999Z</time></trkpt><trkpt lat="43.19541143481453" lon="11.466623964132356"><ele>155.6</ele><time>2026-04-06T15:52:59.999Z</time></trkpt><trkpt lat="43.195431024388455" lon="11.466759637842848"><ele>156.2</ele><time>2026-04-06T15:53:00.999Z</time></trkpt><trkpt lat="43.195447979346824" lon="11.466913805396276"><ele>156.8</ele><time>2026-04-06T15:53:01.999Z</time></trkpt><trkpt lat="43.19546563454812" lon="11.467065500709671"><ele>157.4</ele><time>2026-04-06T15:53:02.999Z</time></trkpt><trkpt lat="43.19548857414038" lon="11.46720373718194"><ele>158.0</ele><time>2026-04-06T15:53:03.999Z</time></trkpt><trkpt lat="43.19549946871224" lon="11.467344151255665"><ele>158.33333333333331</ele><time>2026-04-06T15:53:04.999Z</time></trkpt><trkpt lat="43.19552571265887" lon="11.467456237445196"><ele>158.66666666666666</ele><time>2026-04-06T15:53:05.999Z</time></trkpt><trkpt lat="43.19556230232372" lon="11.467535165283062"><ele>159.0</ele><time>2026-04-06T15:53:06.999Z</time></trkpt><trkpt lat="43.19564108072247" lon="11.467583588201725"><ele>159.33333333333334</ele><time>2026-04-06T15:53:07.999Z</time></trkpt><trkpt lat="43.19570078024716" lon="11.467623437119697"><ele>159.66666666666669</ele><time>2026-04-06T15:53:08.999Z</time></trkpt><trkpt lat="43.19577351911889" lon="11.467653031494871"><ele>160.0</ele><time>2026-04-06T15:53:09.999Z</time></trkpt><trkpt lat="43.19586286581911" lon="11.467680141512572"><ele>161.0</ele><time>2026-04-06T15:53:10.999Z</time></trkpt><trkpt lat="43.19596499659515" lon="11.467712214085727"><ele>162.0</ele><time>2026-04-06T15:53:11.999Z</time></trkpt><trkpt lat="43.19605937332871" lon="11.467761162482505"><ele>163.0</ele><time>2026-04-06T15:53:12.999Z</time></trkpt><trkpt lat="43.19614658165113" lon="11.467831508393967"><ele>164.0</ele><time>2026-04-06T15:53:13.999Z</time></trkpt><trkpt lat="43.19623312285778" lon="11.467922480179917"><ele>165.0</ele><time>2026-04-06T15:53:14.999Z</time></trkpt><trkpt lat="43.19630120889183" lon="11.468035688869314"><ele>165.4</ele><time>2026-04-06T15:53:15.999Z</time></trkpt><trkpt lat="43.19636332862265" lon="11.468136231118901"><ele>165.8</ele><time>2026-04-06T15:53:16.999Z</time></trkpt><trkpt lat="43.19643856231034" lon="11.468233922335111"><ele>166.2</ele><time>2026-04-06T15:53:17.999Z</time></trkpt><trkpt lat="43.196500064385575" lon="11.468349330738599"><ele>166.6</ele><time>2026-04-06T15:53:18.999Z</time></trkpt><trkpt lat="43.19654984918599" lon="11.468460093823682"><ele>167.0</ele><time>2026-04-06T15:53:19.999Z</time></trkpt><trkpt lat="43.1965872990026" lon="11.468577677907122"><ele>168.33333333333331</ele><time>2026-04-06T15:53:20.999Z</time></trkpt><trkpt lat="43.19660286807105" lon="11.468710693155119"><ele>169.66666666666666</ele><time>2026-04-06T15:53:21.999Z</time></trkpt><trkpt lat="43.19661347287821" lon="11.468825728774538"><ele>171.0</ele><time>2026-04-06T15:53:22.999Z</time></trkpt><trkpt lat="43.19663638812234" lon="11.468917556399749"><ele>172.33333333333334</ele><time>2026-04-06T15:53:23.999Z</time></trkpt><trkpt lat="43.19668075100445" lon="11.469017123959068"><ele>173.66666666666669</ele><time>2026-04-06T15:53:24.999Z</time></trkpt><trkpt lat="43.19674654799388" lon="11.469124749804555"><ele>175.0</ele><time>2026-04-06T15:53:25.999Z</time></trkpt><trkpt lat="43.196822495915875" lon="11.469243293523837"><ele>176.5</ele><time>2026-04-06T15:53:26.999Z</time></trkpt><trkpt lat="43.19690860595387" lon="11.46938001467062"><ele>178.0</ele><time>2026-04-06T15:53:27.999Z</time></trkpt><trkpt lat="43.19698781604003" lon="11.469527621679127"><ele>179.5</ele><time>2026-04-06T15:53:28.999Z</time></trkpt><trkpt lat="43.19704756291739" lon="11.469670541114834"><ele>181.0</ele><time>2026-04-06T15:53:29.999Z</time></trkpt><trkpt lat="43.19711325437213" lon="11.46982707266308"><ele>181.16666666666669</ele><time>2026-04-06T15:53:30.999Z</time></trkpt><trkpt lat="43.1971621410384" lon="11.4699745384938"><ele>181.33333333333334</ele><time>2026-04-06T15:53:31.999Z</time></trkpt><trkpt lat="43.197201043550166" lon="11.470092365902767"><ele>181.5</ele><time>2026-04-06T15:53:32.999Z</time></trkpt><trkpt lat="43.19723188959843" lon="11.47019638484396"><ele>181.66666666666666</ele><time>2026-04-06T15:53:33.999Z</time></trkpt><trkpt lat="43.19726931885471" lon="11.470285720880478"><ele>181.83333333333331</ele><time>2026-04-06T15:53:34.999Z</time></trkpt><trkpt lat="43.19731361915291" lon="11.470372825367503"><ele>182.0</ele><time>2026-04-06T15:53:35.999Z</time></trkpt><trkpt lat="43.197359895814" lon="11.470452662865313"><ele>185.0</ele><time>2026-04-06T15:53:36.999Z</time></trkpt><trkpt lat="43.19741789515726" lon="11.470526742854341"><ele>188.0</ele><time>2026-04-06T15:53:37.999Z</time></trkpt><trkpt lat="43.197512504772064" lon="11.47055963354769"><ele>191.0</ele><time>2026-04-06T15:53:38.999Z</time></trkpt><trkpt lat="43.19758520045728" lon="11.470585756900709"><ele>194.0</ele><time>2026-04-06T15:53:39.999Z</time></trkpt><trkpt lat="43.197664968048215" lon="11.470595596767641"><ele>197.00000000000003</ele><time>2026-04-06T15:53:40.999Z</time></trkpt><trkpt lat="43.197755629296466" lon="11.470621081605788"><ele>200.0</ele><time>2026-04-06T15:53:41.999Z</time></trkpt><trkpt lat="43.19784817474537" lon="11.470641476016"><ele>200.0</ele><time>2026-04-06T15:53:42.999Z</time></trkpt><trkpt lat="43.19793316806083" lon="11.470670668730934"><ele>200.0</ele><time>2026-04-06T15:53:43.999Z</time></trkpt><trkpt lat="43.198018811318654" lon="11.470734717380806"><ele>200.0</ele><time>2026-04-06T15:53:44.999Z</time></trkpt><trkpt lat="43.19810102821409" lon="11.470809718764889"><ele>200.0</ele><time>2026-04-06T15:53:45.999Z</time></trkpt><trkpt lat="43.19818613891125" lon="11.47090108446556"><ele>200.0</ele><time>2026-04-06T15:53:47Z</time></trkpt><trkpt lat="43.19827812247449" lon="11.470992618011607"><ele>200.8</ele><time>2026-04-06T15:53:48Z</time></trkpt><trkpt lat="43.19833539430859" lon="11.47110439475714"><ele>201.6</ele><time>2026-04-06T15:53:49Z</time></trkpt><trkpt lat="43.19839024272359" lon="11.471231974938009"><ele>202.39999999999998</ele><time>2026-04-06T15:53:50Z</time></trkpt><trkpt lat="43.198435368111824" lon="11.471359614112071"><ele>203.2</ele><time>2026-04-06T15:53:51Z</time></trkpt><trkpt lat="43.19847227364151" lon="11.471493805483956"><ele>204.0</ele><time>2026-04-06T15:53:52Z</time></trkpt><trkpt lat="43.1985028706948" lon="11.47163085823155"><ele>205.5</ele><time>2026-04-06T15:53:53Z</time></trkpt><trkpt lat="43.19852325790692" lon="11.471776265070464"><ele>207.0</ele><time>2026-04-06T15:53:54Z</time></trkpt><trkpt lat="43.19852635065674" lon="11.471934913379684"><ele>208.5</ele><time>2026-04-06T15:53:55Z</time></trkpt><trkpt lat="43.19851820528904" lon="11.472108325049092"><ele>210.0</ele><time>2026-04-06T15:53:56Z</time></trkpt><trkpt lat="43.198502421844275" lon="11.472266371496744"><ele>210.6</ele><time>2026-04-06T15:53:57Z</time></trkpt><trkpt lat="43.198486196245454" lon="11.472398843555066"><ele>211.2</ele><time>2026-04-06T15:53:58Z</time></trkpt><trkpt lat="43.19847695287295" lon="11.472520188798288"><ele>211.8</ele><time>2026-04-06T15:53:59Z</time></trkpt><trkpt lat="43.19847324010134" lon="11.472652772744521"><ele>212.4</ele><time>2026-04-06T15:54:00Z</time></trkpt><trkpt lat="43.1984813144566" lon="11.47277204319409"><ele>213.0</ele><time>2026-04-06T15:54:01Z</time></trkpt><trkpt lat="43.19850568791925" lon="11.472880999292517"><ele>213.2</ele><time>2026-04-06T15:54:02Z</time></trkpt><trkpt lat="43.198550222657126" lon="11.472995892443388"><ele>213.4</ele><time>2026-04-06T15:54:03Z</time></trkpt><trkpt lat="43.19860379015375" lon="11.473109746775105"><ele>213.59999999999997</ele><time>2026-04-06T15:54:04Z</time></trkpt><trkpt lat="43.19865437831132" lon="11.47320503587208"><ele>213.79999999999998</ele><time>2026-04-06T15:54:05Z</time></trkpt><trkpt lat="43.1987144820318" lon="11.473312879663924"><ele>214.0</ele><time>2026-04-06T15:54:06Z</time></trkpt><trkpt lat="43.19876439348054" lon="11.473409937212589"><ele>214.0</ele><time>2026-04-06T15:54:07Z</time></trkpt><trkpt lat="43.19880293554161" lon="11.47350525097491"><ele>213.99999999999997</ele><time>2026-04-06T15:54:08Z</time></trkpt><trkpt lat="43.19883588867271" lon="11.473608193658269"><ele>213.99999999999997</ele><time>2026-04-06T15:54:09Z</time></trkpt><trkpt lat="43.19885639457419" lon="11.473726636271307"><ele>214.0</ele><time>2026-04-06T15:54:10Z</time></trkpt><trkpt lat="43.1988573753661" lon="11.473866577374483"><ele>214.0</ele><time>2026-04-06T15:54:11Z</time></trkpt><trkpt lat="43.1988544468224" lon="11.4740189012201"><ele>212.2</ele><time>2026-04-06T15:54:12Z</time></trkpt><trkpt lat="43.19885714957546" lon="11.47415304125655"><ele>210.39999999999998</ele><time>2026-04-06T15:54:13Z</time></trkpt><trkpt lat="43.198870711805775" lon="11.474274305519316"><ele>208.6</ele><time>2026-04-06T15:54:13.999Z</time></trkpt><trkpt lat="43.198899490967015" lon="11.474402986247846"><ele>206.8</ele><time>2026-04-06T15:54:14.999Z</time></trkpt><trkpt lat="43.1989477255236" lon="11.474529296408274"><ele>205.0</ele><time>2026-04-06T15:54:15.999Z</time></trkpt><trkpt lat="43.19901816752469" lon="11.47466336987334"><ele>203.5</ele><time>2026-04-06T15:54:16.999Z</time></trkpt><trkpt lat="43.199080689997956" lon="11.474814862063017"><ele>202.0</ele><time>2026-04-06T15:54:17.999Z</time></trkpt><trkpt lat="43.1991541701816" lon="11.474946046516168"><ele>200.5</ele><time>2026-04-06T15:54:18.999Z</time></trkpt><trkpt lat="43.1992334383963" lon="11.475057375499805"><ele>199.0</ele><time>2026-04-06T15:54:19.999Z</time></trkpt><trkpt lat="43.19929730358447" lon="11.475176454368565"><ele>199.0</ele><time>2026-04-06T15:54:20.999Z</time></trkpt><trkpt lat="43.19936407689796" lon="11.475284811090917"><ele>199.0</ele><time>2026-04-06T15:54:21.999Z</time></trkpt><trkpt lat="43.19943362085892" lon="11.475386430773098"><ele>199.0</ele><time>2026-04-06T15:54:22.999Z</time></trkpt><trkpt lat="43.1995054126646" lon="11.475485997560924"><ele>199.0</ele><time>2026-04-06T15:54:23.999Z</time></trkpt><trkpt lat="43.1995775019255" lon="11.475567702800975"><ele>199.0</ele><time>2026-04-06T15:54:24.999Z</time></trkpt><trkpt lat="43.199650783279836" lon="11.475641385437605"><ele>200.75</ele><time>2026-04-06T15:54:25.999Z</time></trkpt><trkpt lat="43.199740197880736" lon="11.475706699845244"><ele>202.5</ele><time>2026-04-06T15:54:26.999Z</time></trkpt><trkpt lat="43.19983106376751" lon="11.475806201510235"><ele>204.25</ele><time>2026-04-06T15:54:27.999Z</time></trkpt><trkpt lat="43.199934298065465" lon="11.475889016849766"><ele>206.0</ele><time>2026-04-06T15:54:28.999Z</time></trkpt><trkpt lat="43.20003457369152" lon="11.47597375615438"><ele>206.0</ele><time>2026-04-06T15:54:29.999Z</time></trkpt><trkpt lat="43.20013838990196" lon="11.476069418437627"><ele>206.0</ele><time>2026-04-06T15:54:30.999Z</time></trkpt><trkpt lat="43.20023050481818" lon="11.47618191959862"><ele>206.0</ele><time>2026-04-06T15:54:31.999Z</time></trkpt><trkpt lat="43.20033790705707" lon="11.476290828806295"><ele>206.0</ele><time>2026-04-06T15:54:32.999Z</time></trkpt><trkpt lat="43.20044394615009" lon="11.476395857697634"><ele>207.0</ele><time>2026-04-06T15:54:33.999Z</time></trkpt><trkpt lat="43.20054945190576" lon="11.476507729444133"><ele>208.0</ele><time>2026-04-06T15:54:34.999Z</time></trkpt><trkpt lat="43.200643700543345" lon="11.476626047093427"><ele>209.0</ele><time>2026-04-06T15:54:35.999Z</time></trkpt><trkpt lat="43.20071997416974" lon="11.476749132074962"><ele>210.0</ele><time>2026-04-06T15:54:36.999Z</time></trkpt><trkpt lat="43.200787367880835" lon="11.476887344088428"><ele>210.0</ele><time>2026-04-06T15:54:37.999Z</time></trkpt><trkpt lat="43.20085367977696" lon="11.477033868687903"><ele>210.0</ele><time>2026-04-06T15:54:38.999Z</time></trkpt><trkpt lat="43.20091622419957" lon="11.477175898260624"><ele>210.0</ele><time>2026-04-06T15:54:39.999Z</time></trkpt><trkpt lat="43.2009803334802" lon="11.477329787518196"><ele>210.0</ele><time>2026-04-06T15:54:40.999Z</time></trkpt><trkpt lat="43.201045795267206" lon="11.47748912532021"><ele>209.0</ele><time>2026-04-06T15:54:41.999Z</time></trkpt><trkpt lat="43.2011073957112" lon="11.477659171892988"><ele>208.0</ele><time>2026-04-06T15:54:42.999Z</time></trkpt><trkpt lat="43.20117287709457" lon="11.47784009875719"><ele>207.0</ele><time>2026-04-06T15:54:43.999Z</time></trkpt><trkpt lat="43.20124016852317" lon="11.478014934422527"><ele>206.0</ele><time>2026-04-06T15:54:44.999Z</time></trkpt><trkpt lat="43.20132119616934" lon="11.478206937260396"><ele>207.0</ele><time>2026-04-06T15:54:45.999Z</time></trkpt><trkpt lat="43.20140323757882" lon="11.478393846973344"><ele>208.0</ele><time>2026-04-06T15:54:46.999Z</time></trkpt><trkpt lat="43.2014606667691" lon="11.478584201816977"><ele>209.0</ele><time>2026-04-06T15:54:47.999Z</time></trkpt><trkpt lat="43.201527017378275" lon="11.47875898840415"><ele>210.33333333333334</ele><time>2026-04-06T15:54:48.999Z</time></trkpt><trkpt lat="43.20159494901894" lon="11.478945389193957"><ele>211.66666666666669</ele><time>2026-04-06T15:54:49.999Z</time></trkpt><trkpt lat="43.20167279730261" lon="11.479130596306051"><ele>213.0</ele><time>2026-04-06T15:54:50.999Z</time></trkpt><trkpt lat="43.20172870705085" lon="11.479328374549675"><ele>213.0</ele><time>2026-04-06T15:54:51.999Z</time></trkpt><trkpt lat="43.20177761313398" lon="11.47951609250485"><ele>213.0</ele><time>2026-04-06T15:54:52.999Z</time></trkpt><trkpt lat="43.20181932195528" lon="11.479690540901757"><ele>213.0</ele><time>2026-04-06T15:54:53.999Z</time></trkpt><trkpt lat="43.20186514507622" lon="11.479859237176235"><ele>213.0</ele><time>2026-04-06T15:54:54.999Z</time></trkpt><trkpt lat="43.20192322672973" lon="11.480028597442997"><ele>212.75</ele><time>2026-04-06T15:54:55.999Z</time></trkpt><trkpt lat="43.201990060263306" lon="11.4801964509315"><ele>212.5</ele><time>2026-04-06T15:54:56.999Z</time></trkpt><trkpt lat="43.202049329844655" lon="11.480350011432733"><ele>212.25</ele><time>2026-04-06T15:54:57.999Z</time></trkpt><trkpt lat="43.20210595965501" lon="11.480497589874306"><ele>212.0</ele><time>2026-04-06T15:54:58.999Z</time></trkpt><trkpt lat="43.20215917257809" lon="11.48066327781874"><ele>212.5</ele><time>2026-04-06T15:54:59.999Z</time></trkpt><trkpt lat="43.20220365971421" lon="11.480840929267574"><ele>213.0</ele><time>2026-04-06T15:55:00.999Z</time></trkpt><trkpt lat="43.20223184552803" lon="11.481029799741389"><ele>213.5</ele><time>2026-04-06T15:55:01.999Z</time></trkpt><trkpt lat="43.2022527555983" lon="11.481197750992063"><ele>214.0</ele><time>2026-04-06T15:55:02.999Z</time></trkpt><trkpt lat="43.20227482779973" lon="11.48137175108903"><ele>214.0</ele><time>2026-04-06T15:55:03.999Z</time></trkpt><trkpt lat="43.20229522277977" lon="11.481532486516107"><ele>214.0</ele><time>2026-04-06T15:55:04.999Z</time></trkpt><trkpt lat="43.202310677601304" lon="11.481695313175072"><ele>214.0</ele><time>2026-04-06T15:55:05.999Z</time></trkpt><trkpt lat="43.20231212111329" lon="11.48186069707656"><ele>214.0</ele><time>2026-04-06T15:55:06.999Z</time></trkpt><trkpt lat="43.202294726470654" lon="11.482010841980815"><ele>215.79999999999998</ele><time>2026-04-06T15:55:07.999Z</time></trkpt><trkpt lat="43.20227254544155" lon="11.48214106759658"><ele>217.59999999999997</ele><time>2026-04-06T15:55:08.999Z</time></trkpt><trkpt lat="43.202245047846205" lon="11.48228671728913"><ele>219.4</ele><time>2026-04-06T15:55:09.999Z</time></trkpt><trkpt lat="43.2022137681094" lon="11.48243714037337"><ele>221.2</ele><time>2026-04-06T15:55:10.999Z</time></trkpt><trkpt lat="43.20219460295887" lon="11.48258093278791"><ele>223.0</ele><time>2026-04-06T15:55:11.999Z</time></trkpt><trkpt lat="43.20218963762321" lon="11.482731309152289"><ele>223.0</ele><time>2026-04-06T15:55:12.999Z</time></trkpt><trkpt lat="43.20219395398665" lon="11.482886696131217"><ele>223.0</ele><time>2026-04-06T15:55:13.999Z</time></trkpt><trkpt lat="43.202201019696616" lon="11.483020593124717"><ele>223.0</ele><time>2026-04-06T15:55:14.999Z</time></trkpt><trkpt lat="43.20219514415106" lon="11.483129955359999"><ele>223.0</ele><time>2026-04-06T15:55:15.999Z</time></trkpt><trkpt lat="43.20217209354971" lon="11.483230385066467"><ele>223.0</ele><time>2026-04-06T15:55:16.999Z</time></trkpt><trkpt lat="43.202131894712764" lon="11.483336579700552"><ele>225.8</ele><time>2026-04-06T15:55:17.999Z</time></trkpt><trkpt lat="43.20207158645509" lon="11.483429242905906"><ele>228.60000000000002</ele><time>2026-04-06T15:55:18.999Z</time></trkpt><trkpt lat="43.20199416705321" lon="11.483541430204898"><ele>231.39999999999998</ele><time>2026-04-06T15:55:19.999Z</time></trkpt><trkpt lat="43.20191189473038" lon="11.483666492142554"><ele>234.2</ele><time>2026-04-06T15:55:20.999Z</time></trkpt><trkpt lat="43.20184808403789" lon="11.483776398945885"><ele>237.0</ele><time>2026-04-06T15:55:21.999Z</time></trkpt><trkpt lat="43.201802566013555" lon="11.483863878116562"><ele>239.66666666666666</ele><time>2026-04-06T15:55:22.999Z</time></trkpt><trkpt lat="43.20177599734014" lon="11.483947450167694"><ele>242.33333333333331</ele><time>2026-04-06T15:55:23.999Z</time></trkpt><trkpt lat="43.20176008095688" lon="11.48403671069538"><ele>245.0</ele><time>2026-04-06T15:55:24.999Z</time></trkpt><trkpt lat="43.20178865735457" lon="11.484210189248074"><ele>247.66666666666666</ele><time>2026-04-06T15:55:26.999Z</time></trkpt><trkpt lat="43.20182352739491" lon="11.484293360459345"><ele>250.33333333333331</ele><time>2026-04-06T15:55:27.999Z</time></trkpt><trkpt lat="43.2018778100728" lon="11.4843805988383"><ele>253.0</ele><time>2026-04-06T15:55:28.999Z</time></trkpt><trkpt lat="43.20191997152438" lon="11.484505015290727"><ele>254.8</ele><time>2026-04-06T15:55:29.999Z</time></trkpt><trkpt lat="43.20197612086575" lon="11.484625532480868"><ele>256.6</ele><time>2026-04-06T15:55:30.999Z</time></trkpt><trkpt lat="43.202039942680095" lon="11.484756831810742"><ele>258.4</ele><time>2026-04-06T15:55:31.999Z</time></trkpt><trkpt lat="43.202069740134725" lon="11.484911120161348"><ele>260.2</ele><time>2026-04-06T15:55:32.999Z</time></trkpt><trkpt lat="43.20209749061812" lon="11.485035444246012"><ele>262.0</ele><time>2026-04-06T15:55:33.999Z</time></trkpt><trkpt lat="43.20212410177647" lon="11.485168161962493"><ele>262.0</ele><time>2026-04-06T15:55:34.999Z</time></trkpt><trkpt lat="43.202148943027105" lon="11.485306877740877"><ele>262.0</ele><time>2026-04-06T15:55:35.999Z</time></trkpt><trkpt lat="43.20217493232282" lon="11.485434004903535"><ele>262.0</ele><time>2026-04-06T15:55:36.999Z</time></trkpt><trkpt lat="43.20220412040363" lon="11.485547033926832"><ele>262.0</ele><time>2026-04-06T15:55:37.999Z</time></trkpt><trkpt lat="43.2022314155464" lon="11.485650436239265"><ele>262.0</ele><time>2026-04-06T15:55:38.999Z</time></trkpt><trkpt lat="43.20225493681284" lon="11.485755737874019"><ele>262.0</ele><time>2026-04-06T15:55:39.999Z</time></trkpt><trkpt lat="43.20228099596896" lon="11.485866795713248"><ele>261.0</ele><time>2026-04-06T15:55:40.999Z</time></trkpt><trkpt lat="43.202311255105116" lon="11.485960233384674"><ele>260.0</ele><time>2026-04-06T15:55:41.999Z</time></trkpt><trkpt lat="43.202348538640834" lon="11.486056909503995"><ele>259.0</ele><time>2026-04-06T15:55:42.999Z</time></trkpt><trkpt lat="43.20241192104561" lon="11.486163243167358"><ele>258.0</ele><time>2026-04-06T15:55:43.999Z</time></trkpt><trkpt lat="43.20247301314328" lon="11.486269112083273"><ele>257.0</ele><time>2026-04-06T15:55:44.999Z</time></trkpt><trkpt lat="43.20253389705956" lon="11.4863578396349"><ele>256.0</ele><time>2026-04-06T15:55:45.999Z</time></trkpt><trkpt lat="43.202597784348605" lon="11.486451935360607"><ele>254.4</ele><time>2026-04-06T15:55:46.999Z</time></trkpt><trkpt lat="43.2026829019507" lon="11.486551010095734"><ele>252.8</ele><time>2026-04-06T15:55:47.999Z</time></trkpt><trkpt lat="43.20276353359332" lon="11.486645764454499"><ele>251.20000000000002</ele><time>2026-04-06T15:55:48.999Z</time></trkpt><trkpt lat="43.202840614391455" lon="11.486741005294588"><ele>249.60000000000002</ele><time>2026-04-06T15:55:49.999Z</time></trkpt><trkpt lat="43.202925530515884" lon="11.486843955018745"><ele>248.0</ele><time>2026-04-06T15:55:50.999Z</time></trkpt><trkpt lat="43.203014275472526" lon="11.486948114905777"><ele>248.0</ele><time>2026-04-06T15:55:51.999Z</time></trkpt><trkpt lat="43.20309658780607" lon="11.487057336634829"><ele>248.0</ele><time>2026-04-06T15:55:53Z</time></trkpt><trkpt lat="43.20317636964699" lon="11.48715950552299"><ele>248.0</ele><time>2026-04-06T15:55:54Z</time></trkpt><trkpt lat="43.20325261864905" lon="11.487255036202614"><ele>248.0</ele><time>2026-04-06T15:55:55Z</time></trkpt><trkpt lat="43.20332571380406" lon="11.487356395629622"><ele>248.0</ele><time>2026-04-06T15:55:56Z</time></trkpt><trkpt lat="43.203394659726165" lon="11.48744877094618"><ele>248.16666666666669</ele><time>2026-04-06T15:55:57Z</time></trkpt><trkpt lat="43.20345662237402" lon="11.487514434525817"><ele>248.33333333333334</ele><time>2026-04-06T15:55:58Z</time></trkpt><trkpt lat="43.203514028342916" lon="11.487584416823902"><ele>248.5</ele><time>2026-04-06T15:55:59Z</time></trkpt><trkpt lat="43.20357374368702" lon="11.487663566500625"><ele>248.66666666666669</ele><time>2026-04-06T15:56:00Z</time></trkpt><trkpt lat="43.203629630373754" lon="11.487748517737352"><ele>248.83333333333334</ele><time>2026-04-06T15:56:01Z</time></trkpt><trkpt lat="43.20369084270636" lon="11.487862477655018"><ele>249.0</ele><time>2026-04-06T15:56:02Z</time></trkpt><trkpt lat="43.203758020970085" lon="11.487987659058545"><ele>246.39999999999998</ele><time>2026-04-06T15:56:03Z</time></trkpt><trkpt lat="43.203827229247786" lon="11.488118498150737"><ele>243.79999999999998</ele><time>2026-04-06T15:56:04Z</time></trkpt><trkpt lat="43.20389412525437" lon="11.48824307927767"><ele>241.20000000000002</ele><time>2026-04-06T15:56:05Z</time></trkpt><trkpt lat="43.20395831888708" lon="11.488360673653965"><ele>238.60000000000002</ele><time>2026-04-06T15:56:06Z</time></trkpt><trkpt lat="43.204025140971716" lon="11.488476922667887"><ele>236.0</ele><time>2026-04-06T15:56:07Z</time></trkpt><trkpt lat="43.20409683867657" lon="11.488589529098942"><ele>238.4</ele><time>2026-04-06T15:56:08Z</time></trkpt><trkpt lat="43.20416966606671" lon="11.488702239632065"><ele>240.8</ele><time>2026-04-06T15:56:09Z</time></trkpt><trkpt lat="43.204235509711474" lon="11.488793478512534"><ele>243.20000000000002</ele><time>2026-04-06T15:56:10Z</time></trkpt><trkpt lat="43.20429713489451" lon="11.488879585580985"><ele>245.60000000000002</ele><time>2026-04-06T15:56:11Z</time></trkpt><trkpt lat="43.20435721721845" lon="11.488968219017977"><ele>248.0</ele><time>2026-04-06T15:56:12Z</time></trkpt><trkpt lat="43.20441417070621" lon="11.489060429967797"><ele>248.0</ele><time>2026-04-06T15:56:13Z</time></trkpt><trkpt lat="43.20446746613852" lon="11.489164398083203"><ele>248.0</ele><time>2026-04-06T15:56:14Z</time></trkpt><trkpt lat="43.20451505423361" lon="11.489277915218628"><ele>248.0</ele><time>2026-04-06T15:56:15Z</time></trkpt><trkpt lat="43.20455737400218" lon="11.489403081975913"><ele>248.0</ele><time>2026-04-06T15:56:16Z</time></trkpt><trkpt lat="43.204600891418366" lon="11.48953680302194"><ele>248.0</ele><time>2026-04-06T15:56:17Z</time></trkpt><trkpt lat="43.204641596837924" lon="11.489672581032604"><ele>250.4</ele><time>2026-04-06T15:56:18Z</time></trkpt><trkpt lat="43.204677266651544" lon="11.489795631001895"><ele>252.8</ele><time>2026-04-06T15:56:19Z</time></trkpt><trkpt lat="43.20471277623033" lon="11.489922624069083"><ele>255.2</ele><time>2026-04-06T15:56:20Z</time></trkpt><trkpt lat="43.20474831711269" lon="11.490040655363066"><ele>257.6</ele><time>2026-04-06T15:56:21Z</time></trkpt><trkpt lat="43.20478939212928" lon="11.490150224755132"><ele>260.0</ele><time>2026-04-06T15:56:22Z</time></trkpt><trkpt lat="43.20483526196033" lon="11.490248690321208"><ele>260.0</ele><time>2026-04-06T15:56:23Z</time></trkpt><trkpt lat="43.204892610218536" lon="11.490346515232673"><ele>260.0</ele><time>2026-04-06T15:56:24Z</time></trkpt><trkpt lat="43.20496106504925" lon="11.490446577103897"><ele>260.0</ele><time>2026-04-06T15:56:25Z</time></trkpt><trkpt lat="43.20504382702385" lon="11.490556491137053"><ele>260.0</ele><time>2026-04-06T15:56:26Z</time></trkpt><trkpt lat="43.20512110967455" lon="11.490654940108817"><ele>260.0</ele><time>2026-04-06T15:56:27Z</time></trkpt><trkpt lat="43.205190936312114" lon="11.490732271170488"><ele>259.6666666666667</ele><time>2026-04-06T15:56:28Z</time></trkpt><trkpt lat="43.20526342437588" lon="11.49079384558285"><ele>259.33333333333337</ele><time>2026-04-06T15:56:29Z</time></trkpt><trkpt lat="43.20534055178074" lon="11.490863123642137"><ele>259.0</ele><time>2026-04-06T15:56:30Z</time></trkpt><trkpt lat="43.205428660017205" lon="11.490897072391235"><ele>258.6666666666667</ele><time>2026-04-06T15:56:31Z</time></trkpt><trkpt lat="43.20551004417584" lon="11.490915178414207"><ele>258.3333333333333</ele><time>2026-04-06T15:56:32Z</time></trkpt><trkpt lat="43.20559920003398" lon="11.49092672813615"><ele>258.0</ele><time>2026-04-06T15:56:33Z</time></trkpt><trkpt lat="43.20568855196352" lon="11.490927423079574"><ele>258.0</ele><time>2026-04-06T15:56:34Z</time></trkpt><trkpt lat="43.20577667065805" lon="11.490914450008951"><ele>258.0</ele><time>2026-04-06T15:56:35Z</time></trkpt><trkpt lat="43.20587657362408" lon="11.490893421973404"><ele>258.0</ele><time>2026-04-06T15:56:36Z</time></trkpt><trkpt lat="43.20598343060459" lon="11.49085701828228"><ele>258.0</ele><time>2026-04-06T15:56:37Z</time></trkpt><trkpt lat="43.206092473574046" lon="11.490884786914211"><ele>258.0</ele><time>2026-04-06T15:56:38Z</time></trkpt><trkpt lat="43.20619171727749" lon="11.490900526794375"><ele>258.0</ele><time>2026-04-06T15:56:39Z</time></trkpt><trkpt lat="43.20627927133393" lon="11.49091637252953"><ele>258.0</ele><time>2026-04-06T15:56:40Z</time></trkpt><trkpt lat="43.20635769511594" lon="11.490946170799313"><ele>258.0</ele><time>2026-04-06T15:56:41Z</time></trkpt><trkpt lat="43.206436029980715" lon="11.490990920390345"><ele>258.0</ele><time>2026-04-06T15:56:42Z</time></trkpt><trkpt lat="43.20652138132856" lon="11.491050291158974"><ele>258.0</ele><time>2026-04-06T15:56:43Z</time></trkpt><trkpt lat="43.206600295771295" lon="11.491127664461548"><ele>258.0</ele><time>2026-04-06T15:56:44Z</time></trkpt><trkpt lat="43.20666103671445" lon="11.491241651789222"><ele>257.0</ele><time>2026-04-06T15:56:44.999Z</time></trkpt><trkpt lat="43.20672663729592" lon="11.491387577882378"><ele>256.0</ele><time>2026-04-06T15:56:45.999Z</time></trkpt><trkpt lat="43.20678228209301" lon="11.491514082132293"><ele>255.0</ele><time>2026-04-06T15:56:46.999Z</time></trkpt><trkpt lat="43.20685339825266" lon="11.491636904349585"><ele>254.0</ele><time>2026-04-06T15:56:47.999Z</time></trkpt><trkpt lat="43.20690174125586" lon="11.491749718685895"><ele>253.0</ele><time>2026-04-06T15:56:48.999Z</time></trkpt><trkpt lat="43.20695684061292" lon="11.491859902447093"><ele>253.0</ele><time>2026-04-06T15:56:49.999Z</time></trkpt><trkpt lat="43.20702542795057" lon="11.491965593055891"><ele>253.0</ele><time>2026-04-06T15:56:50.999Z</time></trkpt><trkpt lat="43.20711766639465" lon="11.492076084226499"><ele>253.0</ele><time>2026-04-06T15:56:51.999Z</time></trkpt><trkpt lat="43.20720807226234" lon="11.492192846498396"><ele>253.0</ele><time>2026-04-06T15:56:52.999Z</time></trkpt><trkpt lat="43.207303074347585" lon="11.492288027511776"><ele>251.75</ele><time>2026-04-06T15:56:53.999Z</time></trkpt><trkpt lat="43.207394895635765" lon="11.492381149323018"><ele>250.5</ele><time>2026-04-06T15:56:54.999Z</time></trkpt><trkpt lat="43.2074893965488" lon="11.492477455123367"><ele>249.25</ele><time>2026-04-06T15:56:55.999Z</time></trkpt><trkpt lat="43.20758622417261" lon="11.492576203904624"><ele>248.0</ele><time>2026-04-06T15:56:56.999Z</time></trkpt><trkpt lat="43.207679322086165" lon="11.492671394422523"><ele>248.0</ele><time>2026-04-06T15:56:57.999Z</time></trkpt><trkpt lat="43.20777720461241" lon="11.492771477046425"><ele>248.0</ele><time>2026-04-06T15:56:58.999Z</time></trkpt><trkpt lat="43.20787839936086" lon="11.492877242470142"><ele>248.0</ele><time>2026-04-06T15:56:59.999Z</time></trkpt><trkpt lat="43.20798240408362" lon="11.492986340951417"><ele>248.0</ele><time>2026-04-06T15:57:00.999Z</time></trkpt><trkpt lat="43.20808343371461" lon="11.493090157180351"><ele>248.5</ele><time>2026-04-06T15:57:01.999Z</time></trkpt><trkpt lat="43.208192542239566" lon="11.493197704623695"><ele>249.0</ele><time>2026-04-06T15:57:02.999Z</time></trkpt><trkpt lat="43.208307268412895" lon="11.493305507206433"><ele>249.5</ele><time>2026-04-06T15:57:03.999Z</time></trkpt><trkpt lat="43.2084118215285" lon="11.493399372203058"><ele>250.0</ele><time>2026-04-06T15:57:04.999Z</time></trkpt><trkpt lat="43.20851430668543" lon="11.493482469493355"><ele>250.0</ele><time>2026-04-06T15:57:05.999Z</time></trkpt><trkpt lat="43.20861286201192" lon="11.493547210558223"><ele>250.0</ele><time>2026-04-06T15:57:06.999Z</time></trkpt><trkpt lat="43.20870568920891" lon="11.493627206493523"><ele>250.0</ele><time>2026-04-06T15:57:07.999Z</time></trkpt><trkpt lat="43.20877760673475" lon="11.493728257547682"><ele>250.0</ele><time>2026-04-06T15:57:08.999Z</time></trkpt><trkpt lat="43.20883599819327" lon="11.493827043036303"><ele>250.0</ele><time>2026-04-06T15:57:09.999Z</time></trkpt><trkpt lat="43.20889413692554" lon="11.493939812380553"><ele>252.25</ele><time>2026-04-06T15:57:10.999Z</time></trkpt><trkpt lat="43.208948011840874" lon="11.49407735681196"><ele>254.5</ele><time>2026-04-06T15:57:11.999Z</time></trkpt><trkpt lat="43.20901959927442" lon="11.494232065144624"><ele>256.75</ele><time>2026-04-06T15:57:12.999Z</time></trkpt><trkpt lat="43.20905713403376" lon="11.494421138061211"><ele>259.0</ele><time>2026-04-06T15:57:13.999Z</time></trkpt><trkpt lat="43.20909834190599" lon="11.49458784626246"><ele>259.4</ele><time>2026-04-06T15:57:14.999Z</time></trkpt><trkpt lat="43.209130371166424" lon="11.494743680342967"><ele>259.79999999999995</ele><time>2026-04-06T15:57:15.999Z</time></trkpt><trkpt lat="43.209156590995526" lon="11.494877088461307"><ele>260.20000000000005</ele><time>2026-04-06T15:57:16.999Z</time></trkpt><trkpt lat="43.20917833854168" lon="11.495002333903987"><ele>260.6</ele><time>2026-04-06T15:57:17.999Z</time></trkpt><trkpt lat="43.20921086501325" lon="11.495123599762916"><ele>261.0</ele><time>2026-04-06T15:57:18.999Z</time></trkpt><trkpt lat="43.209221694233264" lon="11.495242214125408"><ele>261.0</ele><time>2026-04-06T15:57:19.999Z</time></trkpt><trkpt lat="43.20923278042991" lon="11.495332857284092"><ele>261.0</ele><time>2026-04-06T15:57:20.999Z</time></trkpt><trkpt lat="43.20926886486134" lon="11.495462452717511"><ele>261.0</ele><time>2026-04-06T15:57:22.999Z</time></trkpt><trkpt lat="43.209337012090245" lon="11.495634769304584"><ele>261.0</ele><time>2026-04-06T15:57:24.999Z</time></trkpt><trkpt lat="43.20936839914671" lon="11.495760445542453"><ele>261.0</ele><time>2026-04-06T15:57:25.999Z</time></trkpt><trkpt lat="43.209420571777834" lon="11.495860667204775"><ele>261.2857142857143</ele><time>2026-04-06T15:57:26.999Z</time></trkpt><trkpt lat="43.20943660425088" lon="11.495968825916627"><ele>261.57142857142856</ele><time>2026-04-06T15:57:27.999Z</time></trkpt><trkpt lat="43.20946521011893" lon="11.496059454149652"><ele>261.85714285714283</ele><time>2026-04-06T15:57:28.999Z</time></trkpt><trkpt lat="43.209506451830606" lon="11.496139914270023"><ele>262.1428571428571</ele><time>2026-04-06T15:57:29.999Z</time></trkpt><trkpt lat="43.209534814672075" lon="11.496226833786542"><ele>262.4285714285714</ele><time>2026-04-06T15:57:30.999Z</time></trkpt><trkpt lat="43.20956618711061" lon="11.496313747698418"><ele>262.7142857142857</ele><time>2026-04-06T15:57:31.999Z</time></trkpt><trkpt lat="43.209609072806025" lon="11.496410003326512"><ele>263.0</ele><time>2026-04-06T15:57:32.999Z</time></trkpt><trkpt lat="43.209658835542704" lon="11.496501939924718"><ele>263.33333333333337</ele><time>2026-04-06T15:57:33.999Z</time></trkpt><trkpt lat="43.209710956439956" lon="11.496587371283763"><ele>263.6666666666667</ele><time>2026-04-06T15:57:34.999Z</time></trkpt><trkpt lat="43.20976976315173" lon="11.496667624111877"><ele>264.0</ele><time>2026-04-06T15:57:35.999Z</time></trkpt><trkpt lat="43.20984108899254" lon="11.49674326496145"><ele>264.3333333333333</ele><time>2026-04-06T15:57:36.999Z</time></trkpt><trkpt lat="43.20990335182115" lon="11.496794756173195"><ele>264.66666666666663</ele><time>2026-04-06T15:57:37.999Z</time></trkpt><trkpt lat="43.20999217552839" lon="11.496867092727799"><ele>265.0</ele><time>2026-04-06T15:57:39.999Z</time></trkpt><trkpt lat="43.21007023878127" lon="11.496926365542713"><ele>265.0</ele><time>2026-04-06T15:57:41.999Z</time></trkpt><trkpt lat="43.21015096390379" lon="11.496981840650845"><ele>265.0</ele><time>2026-04-06T15:57:43.999Z</time></trkpt><trkpt lat="43.21024815315986" lon="11.497054781110839"><ele>265.0</ele><time>2026-04-06T15:57:45.999Z</time></trkpt><trkpt lat="43.21030889150574" lon="11.497102371434016"><ele>265.0</ele><time>2026-04-06T15:57:46.999Z</time></trkpt><trkpt lat="43.21037924947767" lon="11.497155755593907"><ele>265.0</ele><time>2026-04-06T15:57:47.999Z</time></trkpt><trkpt lat="43.210453583777515" lon="11.497216398958534"><ele>265.0</ele><time>2026-04-06T15:57:48.999Z</time></trkpt><trkpt lat="43.21051126861345" lon="11.497285923524995"><ele>264.85714285714283</ele><time>2026-04-06T15:57:49.999Z</time></trkpt><trkpt lat="43.21057287657439" lon="11.497333465658993"><ele>264.7142857142857</ele><time>2026-04-06T15:57:50.999Z</time></trkpt><trkpt lat="43.21063038687492" lon="11.497381537379725"><ele>264.57142857142856</ele><time>2026-04-06T15:57:51.999Z</time></trkpt><trkpt lat="43.21068357450614" lon="11.497435227162937"><ele>264.42857142857144</ele><time>2026-04-06T15:57:52.999Z</time></trkpt><trkpt lat="43.21074469744" lon="11.497483771943072"><ele>264.2857142857143</ele><time>2026-04-06T15:57:53.999Z</time></trkpt><trkpt lat="43.210786331536035" lon="11.497563470648087"><ele>264.1428571428571</ele><time>2026-04-06T15:57:54.999Z</time></trkpt><trkpt lat="43.21082024664227" lon="11.497652902096812"><ele>264.0</ele><time>2026-04-06T15:57:55.999Z</time></trkpt><trkpt lat="43.21084815110288" lon="11.497763889624972"><ele>264.0</ele><time>2026-04-06T15:57:56.999Z</time></trkpt><trkpt lat="43.21086899919122" lon="11.497885181941616"><ele>264.0</ele><time>2026-04-06T15:57:57.999Z</time></trkpt><trkpt lat="43.21089043321705" lon="11.498009148603073"><ele>264.0</ele><time>2026-04-06T15:57:59Z</time></trkpt><trkpt lat="43.21090789890011" lon="11.498121982134496"><ele>264.0</ele><time>2026-04-06T15:58:00Z</time></trkpt><trkpt lat="43.21092120202052" lon="11.49821829565615"><ele>264.0</ele><time>2026-04-06T15:58:01Z</time></trkpt><trkpt lat="43.210962074495676" lon="11.498382385781843"><ele>263.0</ele><time>2026-04-06T15:58:03Z</time></trkpt><trkpt lat="43.21098336821335" lon="11.498470793286598"><ele>262.0</ele><time>2026-04-06T15:58:04Z</time></trkpt><trkpt lat="43.21104866584693" lon="11.498523833129846"><ele>261.0</ele><time>2026-04-06T15:58:05Z</time></trkpt><trkpt lat="43.21110089525998" lon="11.498574207624097"><ele>260.0</ele><time>2026-04-06T15:58:06Z</time></trkpt><trkpt lat="43.211213746482485" lon="11.498641904636536"><ele>259.0</ele><time>2026-04-06T15:58:08Z</time></trkpt><trkpt lat="43.21133969811529" lon="11.498674287719547"><ele>259.0</ele><time>2026-04-06T15:58:10Z</time></trkpt><trkpt lat="43.21142039908387" lon="11.498698771042235"><ele>259.0</ele><time>2026-04-06T15:58:11Z</time></trkpt><trkpt lat="43.21149966184916" lon="11.49868770903141"><ele>259.0</ele><time>2026-04-06T15:58:12Z</time></trkpt><trkpt lat="43.21156508794416" lon="11.498677541515619"><ele>259.0</ele><time>2026-04-06T15:58:13Z</time></trkpt><trkpt lat="43.21168254614663" lon="11.49864680155135"><ele>259.0</ele><time>2026-04-06T15:58:15Z</time></trkpt><trkpt lat="43.21178784098471" lon="11.498617264383913"><ele>257.2</ele><time>2026-04-06T15:58:17Z</time></trkpt><trkpt lat="43.21187241327671" lon="11.498603716682577"><ele>255.39999999999998</ele><time>2026-04-06T15:58:19Z</time></trkpt><trkpt lat="43.211961528468365" lon="11.49862625388256"><ele>253.6</ele><time>2026-04-06T15:58:21Z</time></trkpt><trkpt lat="43.21204281225124" lon="11.498721095896522"><ele>251.8</ele><time>2026-04-06T15:58:23Z</time></trkpt><trkpt lat="43.21212152885708" lon="11.49885089299102"><ele>250.0</ele><time>2026-04-06T15:58:25Z</time></trkpt><trkpt lat="43.212154560427905" lon="11.498927510501128"><ele>248.8</ele><time>2026-04-06T15:58:26Z</time></trkpt><trkpt lat="43.21219502901492" lon="11.499015045537176"><ele>247.6</ele><time>2026-04-06T15:58:27Z</time></trkpt><trkpt lat="43.212206771278275" lon="11.499111484061617"><ele>246.39999999999998</ele><time>2026-04-06T15:58:28Z</time></trkpt><trkpt lat="43.21220651909192" lon="11.499205689689589"><ele>245.2</ele><time>2026-04-06T15:58:29Z</time></trkpt><trkpt lat="43.21217887828478" lon="11.4993645821327"><ele>244.0</ele><time>2026-04-06T15:58:31Z</time></trkpt><trkpt lat="43.21211068524346" lon="11.499494476082289"><ele>244.0</ele><time>2026-04-06T15:58:33Z</time></trkpt><trkpt lat="43.2119940876417" lon="11.499575822876292"><ele>243.99999999999997</ele><time>2026-04-06T15:58:35Z</time></trkpt><trkpt lat="43.211910463467014" lon="11.499608746621355"><ele>243.99999999999997</ele><time>2026-04-06T15:58:36Z</time></trkpt><trkpt lat="43.21182408026334" lon="11.499636631771068"><ele>244.0</ele><time>2026-04-06T15:58:37Z</time></trkpt><trkpt lat="43.21175072799747" lon="11.4996593970304"><ele>244.0</ele><time>2026-04-06T15:58:38Z</time></trkpt><trkpt lat="43.21168766331174" lon="11.49970389308634"><ele>241.39999999999998</ele><time>2026-04-06T15:58:39Z</time></trkpt><trkpt lat="43.211626906817415" lon="11.499778494095185"><ele>238.79999999999998</ele><time>2026-04-06T15:58:40Z</time></trkpt><trkpt lat="43.21158545676398" lon="11.499876642621055"><ele>236.20000000000002</ele><time>2026-04-06T15:58:41Z</time></trkpt><trkpt lat="43.21155841128614" lon="11.499986638330116"><ele>233.60000000000002</ele><time>2026-04-06T15:58:42Z</time></trkpt><trkpt lat="43.21152855249504" lon="11.500119822962722"><ele>231.0</ele><time>2026-04-06T15:58:43Z</time></trkpt><trkpt lat="43.21149567800317" lon="11.50026995514471"><ele>229.0</ele><time>2026-04-06T15:58:44Z</time></trkpt><trkpt lat="43.21146927323386" lon="11.500415007436503"><ele>227.00000000000003</ele><time>2026-04-06T15:58:45Z</time></trkpt><trkpt lat="43.211446403722576" lon="11.50054191219331"><ele>225.00000000000003</ele><time>2026-04-06T15:58:46Z</time></trkpt><trkpt lat="43.21142537037212" lon="11.500661376633637"><ele>223.0</ele><time>2026-04-06T15:58:47Z</time></trkpt><trkpt lat="43.21139821547272" lon="11.500770741521746"><ele>221.0</ele><time>2026-04-06T15:58:48Z</time></trkpt><trkpt lat="43.211358326092" lon="11.500869176793453"><ele>220.66666666666669</ele><time>2026-04-06T15:58:49Z</time></trkpt><trkpt lat="43.21130903633982" lon="11.5009435076635"><ele>220.33333333333334</ele><time>2026-04-06T15:58:50Z</time></trkpt><trkpt lat="43.21124657571273" lon="11.50100815619756"><ele>220.0</ele><time>2026-04-06T15:58:51Z</time></trkpt><trkpt lat="43.21116342946176" lon="11.50104450968083"><ele>219.66666666666669</ele><time>2026-04-06T15:58:52Z</time></trkpt><trkpt lat="43.21108214331235" lon="11.501082494814952"><ele>219.33333333333334</ele><time>2026-04-06T15:58:53Z</time></trkpt><trkpt lat="43.211008349235435" lon="11.501143627660964"><ele>219.0</ele><time>2026-04-06T15:58:54Z</time></trkpt><trkpt lat="43.210910161294684" lon="11.501192092094724"><ele>219.2</ele><time>2026-04-06T15:58:55Z</time></trkpt><trkpt lat="43.210821914427804" lon="11.501258200873968"><ele>219.39999999999998</ele><time>2026-04-06T15:58:56Z</time></trkpt><trkpt lat="43.21073900838532" lon="11.50134522814487"><ele>219.6</ele><time>2026-04-06T15:58:56.999Z</time></trkpt><trkpt lat="43.21066381580919" lon="11.501444449367726"><ele>219.8</ele><time>2026-04-06T15:58:57.999Z</time></trkpt><trkpt lat="43.2106036097423" lon="11.501551978627823"><ele>220.0</ele><time>2026-04-06T15:58:58.999Z</time></trkpt><trkpt lat="43.210551476949504" lon="11.501673705704661"><ele>220.0</ele><time>2026-04-06T15:58:59.999Z</time></trkpt><trkpt lat="43.210510275702966" lon="11.501806891983515"><ele>220.0</ele><time>2026-04-06T15:59:00.999Z</time></trkpt><trkpt lat="43.21047630466384" lon="11.501930076138693"><ele>220.0</ele><time>2026-04-06T15:59:01.999Z</time></trkpt><trkpt lat="43.210445897163844" lon="11.502037995096423"><ele>220.0</ele><time>2026-04-06T15:59:02.999Z</time></trkpt><trkpt lat="43.21041129237002" lon="11.502141512328565"><ele>220.0</ele><time>2026-04-06T15:59:03.999Z</time></trkpt><trkpt lat="43.2103692269067" lon="11.5022365888702"><ele>222.0</ele><time>2026-04-06T15:59:04.999Z</time></trkpt><trkpt lat="43.210321696401124" lon="11.502318388255263"><ele>224.0</ele><time>2026-04-06T15:59:05.999Z</time></trkpt><trkpt lat="43.210264190819835" lon="11.50238056169885"><ele>226.0</ele><time>2026-04-06T15:59:06.999Z</time></trkpt><trkpt lat="43.21018009183874" lon="11.5024558346194"><ele>228.0</ele><time>2026-04-06T15:59:07.999Z</time></trkpt><trkpt lat="43.21008755430674" lon="11.50254224521868"><ele>230.0</ele><time>2026-04-06T15:59:08.999Z</time></trkpt><trkpt lat="43.20999420207577" lon="11.502637468743613"><ele>230.0</ele><time>2026-04-06T15:59:09.999Z</time></trkpt><trkpt lat="43.20990706953681" lon="11.502726337796366"><ele>230.0</ele><time>2026-04-06T15:59:10.999Z</time></trkpt><trkpt lat="43.209823097289664" lon="11.502810137669176"><ele>230.0</ele><time>2026-04-06T15:59:11.999Z</time></trkpt><trkpt lat="43.20973977181818" lon="11.502893863885319"><ele>230.0</ele><time>2026-04-06T15:59:12.999Z</time></trkpt><trkpt lat="43.209658777491995" lon="11.502976361827896"><ele>230.0</ele><time>2026-04-06T15:59:13.999Z</time></trkpt><trkpt lat="43.20957791261552" lon="11.503063493726259"><ele>227.8</ele><time>2026-04-06T15:59:14.999Z</time></trkpt><trkpt lat="43.20950574438868" lon="11.503140550087348"><ele>225.6</ele><time>2026-04-06T15:59:15.999Z</time></trkpt><trkpt lat="43.209431807606606" lon="11.503220442693902"><ele>223.39999999999998</ele><time>2026-04-06T15:59:16.999Z</time></trkpt><trkpt lat="43.209362219293205" lon="11.503300618829567"><ele>221.2</ele><time>2026-04-06T15:59:17.999Z</time></trkpt><trkpt lat="43.20930065042727" lon="11.503379826659653"><ele>219.0</ele><time>2026-04-06T15:59:18.999Z</time></trkpt><trkpt lat="43.209237742622754" lon="11.50348269131748"><ele>219.0</ele><time>2026-04-06T15:59:19.999Z</time></trkpt><trkpt lat="43.20917518084771" lon="11.503594270726097"><ele>218.99999999999997</ele><time>2026-04-06T15:59:20.999Z</time></trkpt><trkpt lat="43.20911155089518" lon="11.503713929179867"><ele>218.99999999999997</ele><time>2026-04-06T15:59:21.999Z</time></trkpt><trkpt lat="43.20904804418697" lon="11.503832806058275"><ele>219.0</ele><time>2026-04-06T15:59:22.999Z</time></trkpt><trkpt lat="43.20898889684125" lon="11.503944077057092"><ele>219.0</ele><time>2026-04-06T15:59:23.999Z</time></trkpt><trkpt lat="43.20892836740469" lon="11.504056388330186"><ele>217.16666666666666</ele><time>2026-04-06T15:59:24.999Z</time></trkpt><trkpt lat="43.20886297423554" lon="11.504162880671386"><ele>215.33333333333331</ele><time>2026-04-06T15:59:25.999Z</time></trkpt><trkpt lat="43.20880278542327" lon="11.504256351993979"><ele>213.5</ele><time>2026-04-06T15:59:26.999Z</time></trkpt><trkpt lat="43.20874612230115" lon="11.504340864481808"><ele>211.66666666666666</ele><time>2026-04-06T15:59:27.999Z</time></trkpt><trkpt lat="43.208692961536514" lon="11.504405950953197"><ele>209.83333333333331</ele><time>2026-04-06T15:59:28.999Z</time></trkpt><trkpt lat="43.208634732264755" lon="11.504459704633867"><ele>208.0</ele><time>2026-04-06T15:59:29.999Z</time></trkpt><trkpt lat="43.20856620074891" lon="11.50449751246051"><ele>207.99999999999997</ele><time>2026-04-06T15:59:30.999Z</time></trkpt><trkpt lat="43.20847935594658" lon="11.504526732894638"><ele>208.0</ele><time>2026-04-06T15:59:31.999Z</time></trkpt><trkpt lat="43.20838726171851" lon="11.504550162107337"><ele>208.0</ele><time>2026-04-06T15:59:32.999Z</time></trkpt><trkpt lat="43.208289286078646" lon="11.504562589924074"><ele>208.0</ele><time>2026-04-06T15:59:33.999Z</time></trkpt><trkpt lat="43.20820323308106" lon="11.504569255928917"><ele>207.99999999999997</ele><time>2026-04-06T15:59:34.999Z</time></trkpt><trkpt lat="43.208122011538876" lon="11.504571791767667"><ele>208.0</ele><time>2026-04-06T15:59:35.999Z</time></trkpt><trkpt lat="43.208052736718315" lon="11.504570229263933"><ele>205.33333333333331</ele><time>2026-04-06T15:59:36.999Z</time></trkpt><trkpt lat="43.20798832402179" lon="11.504558089611251"><ele>202.66666666666666</ele><time>2026-04-06T15:59:37.999Z</time></trkpt><trkpt lat="43.20787398808927" lon="11.504514994626051"><ele>200.0</ele><time>2026-04-06T15:59:39.999Z</time></trkpt><trkpt lat="43.20778756749507" lon="11.504510509596964"><ele>197.33333333333331</ele><time>2026-04-06T15:59:41.999Z</time></trkpt><trkpt lat="43.20774189838643" lon="11.504595710507314"><ele>194.66666666666666</ele><time>2026-04-06T15:59:43.999Z</time></trkpt><trkpt lat="43.2077412226791" lon="11.504701530948836"><ele>192.0</ele><time>2026-04-06T15:59:45.999Z</time></trkpt><trkpt lat="43.20784543439856" lon="11.504778797200665"><ele>192.0</ele><time>2026-04-06T15:59:47.999Z</time></trkpt><trkpt lat="43.20792759361997" lon="11.504825263530327"><ele>192.0</ele><time>2026-04-06T15:59:48.999Z</time></trkpt><trkpt lat="43.20802257828737" lon="11.504870549485643"><ele>192.0</ele><time>2026-04-06T15:59:49.999Z</time></trkpt><trkpt lat="43.208118801552935" lon="11.504918265810531"><ele>192.0</ele><time>2026-04-06T15:59:50.999Z</time></trkpt><trkpt lat="43.20821698607262" lon="11.504966954635243"><ele>192.0</ele><time>2026-04-06T15:59:51.999Z</time></trkpt><trkpt lat="43.20830612568961" lon="11.50501377766678"><ele>192.0</ele><time>2026-04-06T15:59:52.999Z</time></trkpt><trkpt lat="43.20838623939" lon="11.505060372736704"><ele>192.0</ele><time>2026-04-06T15:59:53.999Z</time></trkpt><trkpt lat="43.208462239661884" lon="11.505097536133155"><ele>192.0</ele><time>2026-04-06T15:59:54.999Z</time></trkpt><trkpt lat="43.20854810725012" lon="11.505084890051686"><ele>192.0</ele><time>2026-04-06T15:59:55.999Z</time></trkpt><trkpt lat="43.20862802347776" lon="11.50509281683684"><ele>192.0</ele><time>2026-04-06T15:59:56.999Z</time></trkpt><trkpt lat="43.20870431041663" lon="11.505097008307187"><ele>192.0</ele><time>2026-04-06T15:59:57.999Z</time></trkpt><trkpt lat="43.208840128219364" lon="11.505130343310112"><ele>191.99999999999997</ele><time>2026-04-06T15:59:59.999Z</time></trkpt><trkpt lat="43.208911780372596" lon="11.505148057389292"><ele>192.0</ele><time>2026-04-06T16:00:00.999Z</time></trkpt><trkpt lat="43.20898086231206" lon="11.505180318797205"><ele>192.0</ele><time>2026-04-06T16:00:01.999Z</time></trkpt><trkpt lat="43.20904958829276" lon="11.505168476731567"><ele>192.0</ele><time>2026-04-06T16:00:02.999Z</time></trkpt><trkpt lat="43.20911446594288" lon="11.50514168460684"><ele>192.0</ele><time>2026-04-06T16:00:03.999Z</time></trkpt><trkpt lat="43.20917585046023" lon="11.505111296084419"><ele>191.99999999999997</ele><time>2026-04-06T16:00:05Z</time></trkpt><trkpt lat="43.20923950693917" lon="11.505069830230605"><ele>192.0</ele><time>2026-04-06T16:00:06Z</time></trkpt><trkpt lat="43.20934467419353" lon="11.504986400196634"><ele>190.6</ele><time>2026-04-06T16:00:08Z</time></trkpt><trkpt lat="43.20945959275608" lon="11.504934834893561"><ele>189.2</ele><time>2026-04-06T16:00:10Z</time></trkpt><trkpt lat="43.20952239901145" lon="11.504928652948973"><ele>187.8</ele><time>2026-04-06T16:00:11Z</time></trkpt><trkpt lat="43.20964696340936" lon="11.504944762608726"><ele>186.4</ele><time>2026-04-06T16:00:13Z</time></trkpt><trkpt lat="43.20971156656636" lon="11.504980827822417"><ele>185.0</ele><time>2026-04-06T16:00:14Z</time></trkpt><trkpt lat="43.20978687051927" lon="11.505029379952925"><ele>183.66666666666666</ele><time>2026-04-06T16:00:15Z</time></trkpt><trkpt lat="43.20986285125002" lon="11.50509045101578"><ele>182.33333333333331</ele><time>2026-04-06T16:00:16Z</time></trkpt><trkpt lat="43.209941564884645" lon="11.50516312905293"><ele>181.0</ele><time>2026-04-06T16:00:17Z</time></trkpt><trkpt lat="43.21001519188643" lon="11.505245594572129"><ele>179.66666666666666</ele><time>2026-04-06T16:00:18Z</time></trkpt><trkpt lat="43.21008944079186" lon="11.505315703084475"><ele>178.33333333333334</ele><time>2026-04-06T16:00:19Z</time></trkpt><trkpt lat="43.21016031851227" lon="11.505369377190174"><ele>177.0</ele><time>2026-04-06T16:00:20Z</time></trkpt><trkpt lat="43.21023424182909" lon="11.505401451739289"><ele>175.16666666666666</ele><time>2026-04-06T16:00:21Z</time></trkpt><trkpt lat="43.21030341446171" lon="11.505424650136293"><ele>173.33333333333334</ele><time>2026-04-06T16:00:22Z</time></trkpt><trkpt lat="43.21037871953408" lon="11.50544319764577"><ele>171.5</ele><time>2026-04-06T16:00:23Z</time></trkpt><trkpt lat="43.21045177480404" lon="11.505458661035822"><ele>169.66666666666669</ele><time>2026-04-06T16:00:24Z</time></trkpt><trkpt lat="43.21051975164499" lon="11.505472483345718"><ele>167.83333333333334</ele><time>2026-04-06T16:00:25Z</time></trkpt><trkpt lat="43.21059994381402" lon="11.505486459390138"><ele>166.0</ele><time>2026-04-06T16:00:26Z</time></trkpt><trkpt lat="43.21069735875638" lon="11.50547945351671"><ele>165.66666666666669</ele><time>2026-04-06T16:00:27Z</time></trkpt><trkpt lat="43.210792559941446" lon="11.505456625749714"><ele>165.33333333333334</ele><time>2026-04-06T16:00:28Z</time></trkpt><trkpt lat="43.210889692038975" lon="11.50541891096503"><ele>165.0</ele><time>2026-04-06T16:00:29Z</time></trkpt><trkpt lat="43.21097203409658" lon="11.505383126971276"><ele>164.66666666666666</ele><time>2026-04-06T16:00:30Z</time></trkpt><trkpt lat="43.21104769086115" lon="11.505358785541851"><ele>164.33333333333331</ele><time>2026-04-06T16:00:31Z</time></trkpt><trkpt lat="43.211113786606155" lon="11.505354834923224"><ele>164.0</ele><time>2026-04-06T16:00:32Z</time></trkpt><trkpt lat="43.21117923283926" lon="11.50536227844423"><ele>164.0</ele><time>2026-04-06T16:00:33Z</time></trkpt><trkpt lat="43.2112449489791" lon="11.505397953424385"><ele>164.0</ele><time>2026-04-06T16:00:34Z</time></trkpt><trkpt lat="43.21130123078705" lon="11.50547104604665"><ele>164.0</ele><time>2026-04-06T16:00:35Z</time></trkpt><trkpt lat="43.21137133650681" lon="11.505562295339516"><ele>164.0</ele><time>2026-04-06T16:00:36Z</time></trkpt><trkpt lat="43.211415881407795" lon="11.505693108265515"><ele>164.0</ele><time>2026-04-06T16:00:37Z</time></trkpt><trkpt lat="43.2114384019253" lon="11.50583768047454"><ele>164.25</ele><time>2026-04-06T16:00:38Z</time></trkpt><trkpt lat="43.21149160563709" lon="11.505981444138643"><ele>164.5</ele><time>2026-04-06T16:00:39Z</time></trkpt><trkpt lat="43.21154226186019" lon="11.506162091444246"><ele>164.75</ele><time>2026-04-06T16:00:40Z</time></trkpt><trkpt lat="43.211591626022205" lon="11.506328632340917"><ele>165.0</ele><time>2026-04-06T16:00:41Z</time></trkpt><trkpt lat="43.21164144380535" lon="11.506504518019142"><ele>165.0</ele><time>2026-04-06T16:00:42Z</time></trkpt><trkpt lat="43.21169001154652" lon="11.506676137213644"><ele>165.0</ele><time>2026-04-06T16:00:43Z</time></trkpt><trkpt lat="43.21173780604865" lon="11.506844197902804"><ele>165.0</ele><time>2026-04-06T16:00:44Z</time></trkpt><trkpt lat="43.21178282531991" lon="11.507004274573617"><ele>165.0</ele><time>2026-04-06T16:00:45Z</time></trkpt><trkpt lat="43.21182492871028" lon="11.507149352576908"><ele>164.83333333333334</ele><time>2026-04-06T16:00:46Z</time></trkpt><trkpt lat="43.21186282860831" lon="11.507278461596568"><ele>164.66666666666666</ele><time>2026-04-06T16:00:47Z</time></trkpt><trkpt lat="43.2118980483756" lon="11.507388184332877"><ele>164.5</ele><time>2026-04-06T16:00:48Z</time></trkpt><trkpt lat="43.21193068911088" lon="11.507486523559116"><ele>164.33333333333331</ele><time>2026-04-06T16:00:49Z</time></trkpt><trkpt lat="43.211970592825935" lon="11.507568024019305"><ele>164.16666666666666</ele><time>2026-04-06T16:00:50Z</time></trkpt><trkpt lat="43.21202460318681" lon="11.50764825976176"><ele>164.0</ele><time>2026-04-06T16:00:51Z</time></trkpt><trkpt lat="43.21208565514727" lon="11.50773814272039"><ele>164.0</ele><time>2026-04-06T16:00:52Z</time></trkpt><trkpt lat="43.212180400409096" lon="11.507799781386314"><ele>164.0</ele><time>2026-04-06T16:00:53Z</time></trkpt><trkpt lat="43.212288221072534" lon="11.507848355982757"><ele>164.0</ele><time>2026-04-06T16:00:54Z</time></trkpt><trkpt lat="43.2123785213282" lon="11.507904788232132"><ele>164.0</ele><time>2026-04-06T16:00:55Z</time></trkpt><trkpt lat="43.21244614267833" lon="11.507964070106095"><ele>164.0</ele><time>2026-04-06T16:00:56Z</time></trkpt><trkpt lat="43.21251570423358" lon="11.508029031531661"><ele>163.5</ele><time>2026-04-06T16:00:57Z</time></trkpt><trkpt lat="43.21259404541757" lon="11.508166670068869"><ele>163.0</ele><time>2026-04-06T16:00:58Z</time></trkpt><trkpt lat="43.21265948647745" lon="11.508311576447346"><ele>162.5</ele><time>2026-04-06T16:00:59Z</time></trkpt><trkpt lat="43.212738495232806" lon="11.508488815115419"><ele>162.0</ele><time>2026-04-06T16:01:00Z</time></trkpt><trkpt lat="43.21281911962186" lon="11.50862592284821"><ele>161.75</ele><time>2026-04-06T16:01:01Z</time></trkpt><trkpt lat="43.21287159855251" lon="11.50877882405955"><ele>161.5</ele><time>2026-04-06T16:01:01.999Z</time></trkpt><trkpt lat="43.21293245827265" lon="11.508908087535556"><ele>161.25</ele><time>2026-04-06T16:01:02.999Z</time></trkpt><trkpt lat="43.21299664780904" lon="11.509036462814995"><ele>161.0</ele><time>2026-04-06T16:01:03.999Z</time></trkpt><trkpt lat="43.213055938783015" lon="11.509156921646019"><ele>161.0</ele><time>2026-04-06T16:01:04.999Z</time></trkpt><trkpt lat="43.213118546370325" lon="11.509282414354193"><ele>161.0</ele><time>2026-04-06T16:01:05.999Z</time></trkpt><trkpt lat="43.21319202222344" lon="11.509393067791153"><ele>161.0</ele><time>2026-04-06T16:01:06.999Z</time></trkpt><trkpt lat="43.21325649182138" lon="11.509506589197912"><ele>161.0</ele><time>2026-04-06T16:01:07.999Z</time></trkpt><trkpt lat="43.21331695240232" lon="11.509601285117537"><ele>161.0</ele><time>2026-04-06T16:01:08.999Z</time></trkpt><trkpt lat="43.21337610813219" lon="11.509676956788946"><ele>161.5</ele><time>2026-04-06T16:01:09.999Z</time></trkpt><trkpt lat="43.21345366894111" lon="11.509768995451681"><ele>162.0</ele><time>2026-04-06T16:01:10.999Z</time></trkpt><trkpt lat="43.2135336919282" lon="11.509863220788128"><ele>162.5</ele><time>2026-04-06T16:01:11.999Z</time></trkpt><trkpt lat="43.21364628796545" lon="11.50998947771914"><ele>163.0</ele><time>2026-04-06T16:01:12.999Z</time></trkpt><trkpt lat="43.21374227076456" lon="11.510112538861854"><ele>163.0</ele><time>2026-04-06T16:01:13.999Z</time></trkpt><trkpt lat="43.21382380667566" lon="11.51023464492242"><ele>163.0</ele><time>2026-04-06T16:01:14.999Z</time></trkpt><trkpt lat="43.21390913128192" lon="11.510370362275982"><ele>163.0</ele><time>2026-04-06T16:01:15.999Z</time></trkpt><trkpt lat="43.21399305225798" lon="11.510559273913682"><ele>163.0</ele><time>2026-04-06T16:01:17.999Z</time></trkpt><trkpt lat="43.214049439002366" lon="11.510673079544796"><ele>163.2</ele><time>2026-04-06T16:01:18.999Z</time></trkpt><trkpt lat="43.21411248342305" lon="11.510800386665558"><ele>163.4</ele><time>2026-04-06T16:01:19.999Z</time></trkpt><trkpt lat="43.214169533519495" lon="11.51090914230573"><ele>163.6</ele><time>2026-04-06T16:01:20.999Z</time></trkpt><trkpt lat="43.214216148001796" lon="11.51100997656034"><ele>163.79999999999998</ele><time>2026-04-06T16:01:21.999Z</time></trkpt><trkpt lat="43.21425851334879" lon="11.511121064127243"><ele>164.0</ele><time>2026-04-06T16:01:22.999Z</time></trkpt><trkpt lat="43.214249837432654" lon="11.511254535267588"><ele>164.39999999999998</ele><time>2026-04-06T16:01:23.999Z</time></trkpt><trkpt lat="43.21423828385513" lon="11.511391391801949"><ele>164.8</ele><time>2026-04-06T16:01:24.999Z</time></trkpt><trkpt lat="43.21420449998752" lon="11.511534587849528"><ele>165.2</ele><time>2026-04-06T16:01:25.999Z</time></trkpt><trkpt lat="43.21418959349962" lon="11.511693088657099"><ele>165.60000000000002</ele><time>2026-04-06T16:01:26.999Z</time></trkpt><trkpt lat="43.21417826277241" lon="11.511802408172818"><ele>166.0</ele><time>2026-04-06T16:01:27.999Z</time></trkpt><trkpt lat="43.21418886447376" lon="11.51188951626114"><ele>166.0</ele><time>2026-04-06T16:01:28.999Z</time></trkpt><trkpt lat="43.214217447884714" lon="11.512004738819217"><ele>166.0</ele><time>2026-04-06T16:01:29.999Z</time></trkpt><trkpt lat="43.21426586470791" lon="11.51212923405002"><ele>166.0</ele><time>2026-04-06T16:01:30.999Z</time></trkpt><trkpt lat="43.21432142099456" lon="11.512223551622995"><ele>166.0</ele><time>2026-04-06T16:01:31.999Z</time></trkpt><trkpt lat="43.214386179817524" lon="11.512311520812776"><ele>166.0</ele><time>2026-04-06T16:01:32.999Z</time></trkpt><trkpt lat="43.21446759965628" lon="11.512382523481937"><ele>166.5</ele><time>2026-04-06T16:01:33.999Z</time></trkpt><trkpt lat="43.2145633372414" lon="11.51249184565378"><ele>167.0</ele><time>2026-04-06T16:01:34.999Z</time></trkpt><trkpt lat="43.21466799639028" lon="11.512596113707634"><ele>167.5</ele><time>2026-04-06T16:01:35.999Z</time></trkpt><trkpt lat="43.214772258842565" lon="11.51269918935065"><ele>168.0</ele><time>2026-04-06T16:01:36.999Z</time></trkpt><trkpt lat="43.2148780800239" lon="11.512800797485392"><ele>171.0</ele><time>2026-04-06T16:01:37.999Z</time></trkpt><trkpt lat="43.21500155808429" lon="11.512914494142803"><ele>174.0</ele><time>2026-04-06T16:01:38.999Z</time></trkpt><trkpt lat="43.21512440166814" lon="11.513010257673322"><ele>177.0</ele><time>2026-04-06T16:01:39.999Z</time></trkpt><trkpt lat="43.21520281887246" lon="11.513133558149374"><ele>180.0</ele><time>2026-04-06T16:01:40.999Z</time></trkpt><trkpt lat="43.21527014361085" lon="11.51322310689238"><ele>180.0</ele><time>2026-04-06T16:01:41.999Z</time></trkpt><trkpt lat="43.21532396830524" lon="11.513304635867485"><ele>180.0</ele><time>2026-04-06T16:01:42.999Z</time></trkpt><trkpt lat="43.215375263114495" lon="11.513404067035601"><ele>180.0</ele><time>2026-04-06T16:01:43.999Z</time></trkpt><trkpt lat="43.215412921650426" lon="11.513494591500411"><ele>180.0</ele><time>2026-04-06T16:01:44.999Z</time></trkpt><trkpt lat="43.21544115931901" lon="11.513586984675786"><ele>180.0</ele><time>2026-04-06T16:01:45.999Z</time></trkpt><trkpt lat="43.21546463492441" lon="11.513687273615647"><ele>180.0</ele><time>2026-04-06T16:01:46.999Z</time></trkpt><trkpt lat="43.215479581240835" lon="11.513791358544847"><ele>180.33333333333334</ele><time>2026-04-06T16:01:47.999Z</time></trkpt><trkpt lat="43.21549074513044" lon="11.51389765285982"><ele>180.66666666666666</ele><time>2026-04-06T16:01:48.999Z</time></trkpt><trkpt lat="43.2155074375927" lon="11.514020403398714"><ele>181.0</ele><time>2026-04-06T16:01:49.999Z</time></trkpt><trkpt lat="43.21553753524424" lon="11.5141530027471"><ele>181.33333333333331</ele><time>2026-04-06T16:01:50.999Z</time></trkpt><trkpt lat="43.2155719414166" lon="11.514271167899569"><ele>181.66666666666666</ele><time>2026-04-06T16:01:51.999Z</time></trkpt><trkpt lat="43.21560732388476" lon="11.51437459990535"><ele>182.0</ele><time>2026-04-06T16:01:52.999Z</time></trkpt><trkpt lat="43.21564966362943" lon="11.514486237642679"><ele>180.39999999999998</ele><time>2026-04-06T16:01:53.999Z</time></trkpt><trkpt lat="43.215691174354966" lon="11.51459644354269"><ele>178.79999999999998</ele><time>2026-04-06T16:01:54.999Z</time></trkpt><trkpt lat="43.21573467041291" lon="11.514711499065054"><ele>177.2</ele><time>2026-04-06T16:01:55.999Z</time></trkpt><trkpt lat="43.215782554633066" lon="11.514839589248261"><ele>175.6</ele><time>2026-04-06T16:01:56.999Z</time></trkpt><trkpt lat="43.21583336986812" lon="11.514983640072792"><ele>174.0</ele><time>2026-04-06T16:01:57.999Z</time></trkpt><trkpt lat="43.21588691470213" lon="11.51514340288287"><ele>174.0</ele><time>2026-04-06T16:01:58.999Z</time></trkpt><trkpt lat="43.21594307570712" lon="11.51531097171737"><ele>174.0</ele><time>2026-04-06T16:01:59.999Z</time></trkpt><trkpt lat="43.21600180045376" lon="11.515476002799662"><ele>174.0</ele><time>2026-04-06T16:02:00.999Z</time></trkpt><trkpt lat="43.216063565550286" lon="11.515635653094808"><ele>174.0</ele><time>2026-04-06T16:02:01.999Z</time></trkpt><trkpt lat="43.21613282615452" lon="11.515794699546925"><ele>172.0</ele><time>2026-04-06T16:02:02.999Z</time></trkpt><trkpt lat="43.21621499929642" lon="11.515969953118505"><ele>170.0</ele><time>2026-04-06T16:02:03.999Z</time></trkpt><trkpt lat="43.216301132348654" lon="11.516140726991454"><ele>168.0</ele><time>2026-04-06T16:02:04.999Z</time></trkpt><trkpt lat="43.216391061671565" lon="11.516308508809832"><ele>168.25</ele><time>2026-04-06T16:02:05.999Z</time></trkpt><trkpt lat="43.2164768734087" lon="11.516469628308638"><ele>168.5</ele><time>2026-04-06T16:02:06.999Z</time></trkpt><trkpt lat="43.21655175362249" lon="11.516611309674392"><ele>168.75</ele><time>2026-04-06T16:02:07.999Z</time></trkpt><trkpt lat="43.21663061133203" lon="11.516767203047058"><ele>169.0</ele><time>2026-04-06T16:02:08.999Z</time></trkpt><trkpt lat="43.21670406915477" lon="11.516928926825072"><ele>169.25</ele><time>2026-04-06T16:02:09.999Z</time></trkpt><trkpt lat="43.21676824017271" lon="11.517078902241987"><ele>169.5</ele><time>2026-04-06T16:02:11Z</time></trkpt><trkpt lat="43.21682729078225" lon="11.517216636633318"><ele>169.75</ele><time>2026-04-06T16:02:12Z</time></trkpt><trkpt lat="43.21688847346648" lon="11.517362424837364"><ele>170.0</ele><time>2026-04-06T16:02:13Z</time></trkpt><trkpt lat="43.21695394622195" lon="11.517521539348055"><ele>170.0</ele><time>2026-04-06T16:02:14Z</time></trkpt><trkpt lat="43.2170274319754" lon="11.517703497805243"><ele>170.0</ele><time>2026-04-06T16:02:15Z</time></trkpt><trkpt lat="43.21710646549553" lon="11.51787029151634"><ele>170.0</ele><time>2026-04-06T16:02:16Z</time></trkpt><trkpt lat="43.21717061376947" lon="11.518035363848659"><ele>170.0</ele><time>2026-04-06T16:02:17Z</time></trkpt><trkpt lat="43.21723390469656" lon="11.518199279891883"><ele>169.75</ele><time>2026-04-06T16:02:18Z</time></trkpt><trkpt lat="43.2172875518459" lon="11.518330003195269"><ele>169.5</ele><time>2026-04-06T16:02:19Z</time></trkpt><trkpt lat="43.21733803274577" lon="11.518470010152562"><ele>169.25</ele><time>2026-04-06T16:02:20Z</time></trkpt><trkpt lat="43.2173899655251" lon="11.518617225078083"><ele>169.0</ele><time>2026-04-06T16:02:21Z</time></trkpt><trkpt lat="43.217430758698875" lon="11.518774406769001"><ele>170.25</ele><time>2026-04-06T16:02:22Z</time></trkpt><trkpt lat="43.217444193203285" lon="11.518939720805358"><ele>171.5</ele><time>2026-04-06T16:02:23Z</time></trkpt><trkpt lat="43.217462664335656" lon="11.519089851151781"><ele>172.75</ele><time>2026-04-06T16:02:24Z</time></trkpt><trkpt lat="43.217463298828406" lon="11.519244693144909"><ele>174.0</ele><time>2026-04-06T16:02:25Z</time></trkpt><trkpt lat="43.21744950688873" lon="11.519422664402235"><ele>175.5</ele><time>2026-04-06T16:02:26Z</time></trkpt><trkpt lat="43.21744346074463" lon="11.519628628816141"><ele>177.0</ele><time>2026-04-06T16:02:27Z</time></trkpt><trkpt lat="43.21742590450236" lon="11.51983983741661"><ele>178.5</ele><time>2026-04-06T16:02:28Z</time></trkpt><trkpt lat="43.21740965425519" lon="11.520024664512166"><ele>180.0</ele><time>2026-04-06T16:02:29Z</time></trkpt><trkpt lat="43.217394904282706" lon="11.520207343270721"><ele>180.0</ele><time>2026-04-06T16:02:30Z</time></trkpt><trkpt lat="43.21738792698418" lon="11.520394858111489"><ele>180.0</ele><time>2026-04-06T16:02:31Z</time></trkpt><trkpt lat="43.21738836334612" lon="11.520552372988472"><ele>180.0</ele><time>2026-04-06T16:02:32Z</time></trkpt><trkpt lat="43.217389987100354" lon="11.520676693674018"><ele>180.0</ele><time>2026-04-06T16:02:33Z</time></trkpt><trkpt lat="43.21739405678114" lon="11.520779943746273"><ele>180.0</ele><time>2026-04-06T16:02:34Z</time></trkpt><trkpt lat="43.21740765625358" lon="11.520864841881636"><ele>179.8</ele><time>2026-04-06T16:02:35Z</time></trkpt><trkpt lat="43.2174101405278" lon="11.52095731156051"><ele>179.6</ele><time>2026-04-06T16:02:36Z</time></trkpt><trkpt lat="43.217473309462854" lon="11.521063825951126"><ele>179.39999999999998</ele><time>2026-04-06T16:02:37Z</time></trkpt><trkpt lat="43.21753156556723" lon="11.521169374168071"><ele>179.2</ele><time>2026-04-06T16:02:38Z</time></trkpt><trkpt lat="43.21760380828486" lon="11.521267124260541"><ele>179.0</ele><time>2026-04-06T16:02:39Z</time></trkpt><trkpt lat="43.21766416184927" lon="11.521357760005408"><ele>179.0</ele><time>2026-04-06T16:02:40Z</time></trkpt><trkpt lat="43.21774994530349" lon="11.521399131624621"><ele>179.0</ele><time>2026-04-06T16:02:41Z</time></trkpt><trkpt lat="43.21785394974597" lon="11.521462639137345"><ele>179.0</ele><time>2026-04-06T16:02:42Z</time></trkpt><trkpt lat="43.21794056764418" lon="11.521537753764964"><ele>179.0</ele><time>2026-04-06T16:02:43Z</time></trkpt><trkpt lat="43.21802913404791" lon="11.521568221626344"><ele>179.0</ele><time>2026-04-06T16:02:44Z</time></trkpt><trkpt lat="43.21808941499" lon="11.521624503601709"><ele>179.0</ele><time>2026-04-06T16:02:45Z</time></trkpt><trkpt lat="43.21812855463579" lon="11.521705039867543"><ele>179.0</ele><time>2026-04-06T16:02:46Z</time></trkpt><trkpt lat="43.21816902224901" lon="11.521776324396361"><ele>179.0</ele><time>2026-04-06T16:02:47Z</time></trkpt><trkpt lat="43.21816265752609" lon="11.521893211249878"><ele>179.0</ele><time>2026-04-06T16:02:48Z</time></trkpt><trkpt lat="43.218180032685375" lon="11.522015351191751"><ele>179.0</ele><time>2026-04-06T16:02:49Z</time></trkpt><trkpt lat="43.21817238904745" lon="11.522148568265699"><ele>179.0</ele><time>2026-04-06T16:02:50Z</time></trkpt><trkpt lat="43.218197583119405" lon="11.522305789432492"><ele>179.25</ele><time>2026-04-06T16:02:51Z</time></trkpt><trkpt lat="43.21824209672202" lon="11.522459141577826"><ele>179.5</ele><time>2026-04-06T16:02:52Z</time></trkpt><trkpt lat="43.218301240790154" lon="11.522617630135635"><ele>179.75</ele><time>2026-04-06T16:02:53Z</time></trkpt><trkpt lat="43.218342342435776" lon="11.522759925454226"><ele>180.0</ele><time>2026-04-06T16:02:54Z</time></trkpt><trkpt lat="43.21838021653022" lon="11.522890313415758"><ele>178.4</ele><time>2026-04-06T16:02:55Z</time></trkpt><trkpt lat="43.218419392899776" lon="11.523015865601561"><ele>176.8</ele><time>2026-04-06T16:02:56Z</time></trkpt><trkpt lat="43.21847517465032" lon="11.52315800543535"><ele>175.2</ele><time>2026-04-06T16:02:57Z</time></trkpt><trkpt lat="43.21852927123519" lon="11.523285496140845"><ele>173.6</ele><time>2026-04-06T16:02:58Z</time></trkpt><trkpt lat="43.21859639499051" lon="11.523402383504845"><ele>172.0</ele><time>2026-04-06T16:02:59Z</time></trkpt><trkpt lat="43.21867595283703" lon="11.52353754845943"><ele>172.0</ele><time>2026-04-06T16:03:00Z</time></trkpt><trkpt lat="43.21875215896561" lon="11.523675374720552"><ele>172.0</ele><time>2026-04-06T16:03:01Z</time></trkpt><trkpt lat="43.21882941290405" lon="11.52381345599834"><ele>172.0</ele><time>2026-04-06T16:03:02Z</time></trkpt><trkpt lat="43.2189150817532" lon="11.523958336336191"><ele>172.0</ele><time>2026-04-06T16:03:03Z</time></trkpt><trkpt lat="43.219005727122095" lon="11.524121046516443"><ele>172.0</ele><time>2026-04-06T16:03:04Z</time></trkpt><trkpt lat="43.21909829588976" lon="11.524281576046182"><ele>172.0</ele><time>2026-04-06T16:03:05Z</time></trkpt><trkpt lat="43.21918753174101" lon="11.52443479882531"><ele>172.0</ele><time>2026-04-06T16:03:06Z</time></trkpt><trkpt lat="43.21926820557767" lon="11.524567238955823"><ele>172.0</ele><time>2026-04-06T16:03:07Z</time></trkpt><trkpt lat="43.21934379145295" lon="11.52468747216769"><ele>171.16666666666669</ele><time>2026-04-06T16:03:08Z</time></trkpt><trkpt lat="43.21941608678233" lon="11.524790240761796"><ele>170.33333333333334</ele><time>2026-04-06T16:03:09Z</time></trkpt><trkpt lat="43.21948330387471" lon="11.524866470275192"><ele>169.5</ele><time>2026-04-06T16:03:10Z</time></trkpt><trkpt lat="43.219555020156356" lon="11.524932029855954"><ele>168.66666666666666</ele><time>2026-04-06T16:03:11Z</time></trkpt><trkpt lat="43.219635012424625" lon="11.524984855875378"><ele>167.83333333333331</ele><time>2026-04-06T16:03:11.999Z</time></trkpt><trkpt lat="43.21971555293936" lon="11.52501025718711"><ele>167.0</ele><time>2026-04-06T16:03:12.999Z</time></trkpt><trkpt lat="43.219810064469875" lon="11.525010983663236"><ele>168.2</ele><time>2026-04-06T16:03:13.999Z</time></trkpt><trkpt lat="43.21990848453946" lon="11.524993486050612"><ele>169.39999999999998</ele><time>2026-04-06T16:03:14.999Z</time></trkpt><trkpt lat="43.22000973847561" lon="11.524956732913562"><ele>170.60000000000002</ele><time>2026-04-06T16:03:15.999Z</time></trkpt><trkpt lat="43.22012386085578" lon="11.524902825872589"><ele>171.8</ele><time>2026-04-06T16:03:16.999Z</time></trkpt><trkpt lat="43.22023169786029" lon="11.524855948382953"><ele>173.0</ele><time>2026-04-06T16:03:17.999Z</time></trkpt><trkpt lat="43.220320365918475" lon="11.524832321196167"><ele>173.0</ele><time>2026-04-06T16:03:18.999Z</time></trkpt><trkpt lat="43.220415155638776" lon="11.524831296813954"><ele>173.0</ele><time>2026-04-06T16:03:19.999Z</time></trkpt><trkpt lat="43.22051883684859" lon="11.524864493791398"><ele>173.0</ele><time>2026-04-06T16:03:20.999Z</time></trkpt><trkpt lat="43.22062140589532" lon="11.524933418941552"><ele>173.0</ele><time>2026-04-06T16:03:21.999Z</time></trkpt><trkpt lat="43.2207252150523" lon="11.525027512655353"><ele>173.0</ele><time>2026-04-06T16:03:22.999Z</time></trkpt><trkpt lat="43.220821439237014" lon="11.525120476610196"><ele>174.25</ele><time>2026-04-06T16:03:23.999Z</time></trkpt><trkpt lat="43.22092177083034" lon="11.525196088028755"><ele>175.5</ele><time>2026-04-06T16:03:24.999Z</time></trkpt><trkpt lat="43.221027550824715" lon="11.525242495948573"><ele>176.75</ele><time>2026-04-06T16:03:25.999Z</time></trkpt><trkpt lat="43.221149470658716" lon="11.525271067409195"><ele>178.0</ele><time>2026-04-06T16:03:26.999Z</time></trkpt><trkpt lat="43.221286733339696" lon="11.525291518141248"><ele>178.0</ele><time>2026-04-06T16:03:27.999Z</time></trkpt><trkpt lat="43.221424439305395" lon="11.525313949295338"><ele>178.0</ele><time>2026-04-06T16:03:28.999Z</time></trkpt><trkpt lat="43.22156744060834" lon="11.525338341072006"><ele>178.0</ele><time>2026-04-06T16:03:29.999Z</time></trkpt><trkpt lat="43.22170692227144" lon="11.52536220938865"><ele>178.0</ele><time>2026-04-06T16:03:30.999Z</time></trkpt><trkpt lat="43.22183743260298" lon="11.525381242184027"><ele>176.25</ele><time>2026-04-06T16:03:31.999Z</time></trkpt><trkpt lat="43.221965391513535" lon="11.525401444505373"><ele>174.5</ele><time>2026-04-06T16:03:32.999Z</time></trkpt><trkpt lat="43.22209992632672" lon="11.525423316207203"><ele>172.75</ele><time>2026-04-06T16:03:33.999Z</time></trkpt><trkpt lat="43.22222056862201" lon="11.525443792060283"><ele>171.0</ele><time>2026-04-06T16:03:34.999Z</time></trkpt><trkpt lat="43.22233206636726" lon="11.525452436677858"><ele>170.60000000000002</ele><time>2026-04-06T16:03:35.999Z</time></trkpt><trkpt lat="43.22243758634654" lon="11.525454887479116"><ele>170.2</ele><time>2026-04-06T16:03:36.999Z</time></trkpt><trkpt lat="43.22253543679495" lon="11.525487069627138"><ele>169.8</ele><time>2026-04-06T16:03:37.999Z</time></trkpt><trkpt lat="43.22262618497506" lon="11.525477190925326"><ele>169.39999999999998</ele><time>2026-04-06T16:03:38.999Z</time></trkpt><trkpt lat="43.22271886467728" lon="11.525518976688117"><ele>169.0</ele><time>2026-04-06T16:03:39.999Z</time></trkpt><trkpt lat="43.22281505989359" lon="11.525591630538788"><ele>169.0</ele><time>2026-04-06T16:03:40.999Z</time></trkpt><trkpt lat="43.22290221052035" lon="11.525688974995322"><ele>169.0</ele><time>2026-04-06T16:03:41.999Z</time></trkpt><trkpt lat="43.222980215318366" lon="11.525781743334809"><ele>169.0</ele><time>2026-04-06T16:03:42.999Z</time></trkpt><trkpt lat="43.22305033797148" lon="11.525851779629097"><ele>169.0</ele><time>2026-04-06T16:03:43.999Z</time></trkpt><trkpt lat="43.22313273821547" lon="11.525905134158682"><ele>169.0</ele><time>2026-04-06T16:03:44.999Z</time></trkpt><trkpt lat="43.223222102356765" lon="11.525970106114153"><ele>170.39999999999998</ele><time>2026-04-06T16:03:45.999Z</time></trkpt><trkpt lat="43.22330730092865" lon="11.525967513916171"><ele>171.8</ele><time>2026-04-06T16:03:46.999Z</time></trkpt><trkpt lat="43.223399524107045" lon="11.525974506909673"><ele>173.2</ele><time>2026-04-06T16:03:47.999Z</time></trkpt><trkpt lat="43.22350791135171" lon="11.525971085616469"><ele>174.60000000000002</ele><time>2026-04-06T16:03:48.999Z</time></trkpt><trkpt lat="43.22363117613197" lon="11.52597312817446"><ele>176.0</ele><time>2026-04-06T16:03:49.999Z</time></trkpt><trkpt lat="43.223760962835705" lon="11.52596679300322"><ele>176.0</ele><time>2026-04-06T16:03:50.999Z</time></trkpt><trkpt lat="43.22388680453473" lon="11.525981456909179"><ele>176.0</ele><time>2026-04-06T16:03:51.999Z</time></trkpt><trkpt lat="43.22400865535782" lon="11.525959124951632"><ele>176.0</ele><time>2026-04-06T16:03:52.999Z</time></trkpt><trkpt lat="43.22412848739331" lon="11.525916770566768"><ele>176.0</ele><time>2026-04-06T16:03:53.999Z</time></trkpt><trkpt lat="43.22424560843559" lon="11.525909639783844"><ele>176.25</ele><time>2026-04-06T16:03:54.999Z</time></trkpt><trkpt lat="43.22436997784735" lon="11.525915066527688"><ele>176.5</ele><time>2026-04-06T16:03:55.999Z</time></trkpt><trkpt lat="43.22450510218661" lon="11.525938821160182"><ele>176.75</ele><time>2026-04-06T16:03:56.999Z</time></trkpt><trkpt lat="43.224646653511336" lon="11.525979080901362"><ele>177.0</ele><time>2026-04-06T16:03:57.999Z</time></trkpt><trkpt lat="43.2247894360956" lon="11.52602319652028"><ele>177.75</ele><time>2026-04-06T16:03:58.999Z</time></trkpt><trkpt lat="43.224929982802" lon="11.526064803318178"><ele>178.5</ele><time>2026-04-06T16:03:59.999Z</time></trkpt><trkpt lat="43.22507286317339" lon="11.526104499057714"><ele>179.25</ele><time>2026-04-06T16:04:00.999Z</time></trkpt><trkpt lat="43.22521740098663" lon="11.526143424616878"><ele>180.0</ele><time>2026-04-06T16:04:01.999Z</time></trkpt><trkpt lat="43.22535591375028" lon="11.526180707132351"><ele>180.0</ele><time>2026-04-06T16:04:02.999Z</time></trkpt><trkpt lat="43.225489073422764" lon="11.526224403673034"><ele>180.0</ele><time>2026-04-06T16:04:03.999Z</time></trkpt><trkpt lat="43.22561597816834" lon="11.52627024917105"><ele>180.0</ele><time>2026-04-06T16:04:04.999Z</time></trkpt><trkpt lat="43.22573115324057" lon="11.526311610881578"><ele>180.0</ele><time>2026-04-06T16:04:05.999Z</time></trkpt><trkpt lat="43.22583336134701" lon="11.526351093265351"><ele>179.0</ele><time>2026-04-06T16:04:06.999Z</time></trkpt><trkpt lat="43.22592900374003" lon="11.526382440010511"><ele>178.0</ele><time>2026-04-06T16:04:07.999Z</time></trkpt><trkpt lat="43.226024773693005" lon="11.526391457593759"><ele>177.0</ele><time>2026-04-06T16:04:08.999Z</time></trkpt><trkpt lat="43.22613998331451" lon="11.526397446172329"><ele>176.0</ele><time>2026-04-06T16:04:09.999Z</time></trkpt><trkpt lat="43.226276490598806" lon="11.52638755630542"><ele>175.0</ele><time>2026-04-06T16:04:10.999Z</time></trkpt><trkpt lat="43.22641059472397" lon="11.526378566485839"><ele>175.5</ele><time>2026-04-06T16:04:11.999Z</time></trkpt><trkpt lat="43.2265377798978" lon="11.526370832208755"><ele>176.0</ele><time>2026-04-06T16:04:12.999Z</time></trkpt><trkpt lat="43.22665182055508" lon="11.52636644919975"><ele>176.5</ele><time>2026-04-06T16:04:13.999Z</time></trkpt><trkpt lat="43.22676191591301" lon="11.5263632442473"><ele>177.0</ele><time>2026-04-06T16:04:14.999Z</time></trkpt><trkpt lat="43.22686268089365" lon="11.526382623415921"><ele>177.0</ele><time>2026-04-06T16:04:15.999Z</time></trkpt><trkpt lat="43.22696009936919" lon="11.526383506669093"><ele>177.0</ele><time>2026-04-06T16:04:17Z</time></trkpt><trkpt lat="43.22705012667803" lon="11.526386057551077"><ele>177.0</ele><time>2026-04-06T16:04:18Z</time></trkpt><trkpt lat="43.22714097534533" lon="11.526386415477992"><ele>177.0</ele><time>2026-04-06T16:04:19Z</time></trkpt><trkpt lat="43.22721862651629" lon="11.52641976102199"><ele>177.0</ele><time>2026-04-06T16:04:20Z</time></trkpt><trkpt lat="43.227289810962624" lon="11.526469765661348"><ele>177.0</ele><time>2026-04-06T16:04:21Z</time></trkpt><trkpt lat="43.2273588861966" lon="11.526562200817713"><ele>176.0</ele><time>2026-04-06T16:04:22Z</time></trkpt><trkpt lat="43.22745825780275" lon="11.526646235124044"><ele>175.0</ele><time>2026-04-06T16:04:23Z</time></trkpt><trkpt lat="43.22755452372596" lon="11.52674864091322"><ele>174.0</ele><time>2026-04-06T16:04:24Z</time></trkpt><trkpt lat="43.22764522084587" lon="11.526845980685197"><ele>173.0</ele><time>2026-04-06T16:04:25Z</time></trkpt><trkpt lat="43.22773631006592" lon="11.526937080097392"><ele>173.0</ele><time>2026-04-06T16:04:26Z</time></trkpt><trkpt lat="43.227821679481494" lon="11.527025178180981"><ele>173.0</ele><time>2026-04-06T16:04:27Z</time></trkpt><trkpt lat="43.22790373422809" lon="11.527102450758226"><ele>173.0</ele><time>2026-04-06T16:04:28Z</time></trkpt><trkpt lat="43.227989282860534" lon="11.52716742425948"><ele>173.0</ele><time>2026-04-06T16:04:29Z</time></trkpt><trkpt lat="43.22809313924228" lon="11.52722442720895"><ele>173.0</ele><time>2026-04-06T16:04:30Z</time></trkpt><trkpt lat="43.22820960104441" lon="11.527278606303922"><ele>172.0</ele><time>2026-04-06T16:04:31Z</time></trkpt><trkpt lat="43.22831597184169" lon="11.527333750726108"><ele>171.0</ele><time>2026-04-06T16:04:32Z</time></trkpt><trkpt lat="43.22841507190042" lon="11.527372507822044"><ele>170.0</ele><time>2026-04-06T16:04:33Z</time></trkpt><trkpt lat="43.22851155941817" lon="11.5274164399304"><ele>169.0</ele><time>2026-04-06T16:04:34Z</time></trkpt><trkpt lat="43.22860277153555" lon="11.527462157130406"><ele>168.0</ele><time>2026-04-06T16:04:35Z</time></trkpt><trkpt lat="43.22870142610117" lon="11.527530685909948"><ele>168.0</ele><time>2026-04-06T16:04:36Z</time></trkpt><trkpt lat="43.22880876218953" lon="11.527636502954016"><ele>168.0</ele><time>2026-04-06T16:04:37Z</time></trkpt><trkpt lat="43.22892504141867" lon="11.52777760099716"><ele>168.0</ele><time>2026-04-06T16:04:38Z</time></trkpt><trkpt lat="43.22905115702146" lon="11.527931479532189"><ele>169.5</ele><time>2026-04-06T16:04:39Z</time></trkpt><trkpt lat="43.22916047644908" lon="11.528064878881"><ele>171.0</ele><time>2026-04-06T16:04:40Z</time></trkpt><trkpt lat="43.229254235823454" lon="11.528182091938149"><ele>172.5</ele><time>2026-04-06T16:04:41Z</time></trkpt><trkpt lat="43.22933999668286" lon="11.528288245766463"><ele>174.0</ele><time>2026-04-06T16:04:42Z</time></trkpt><trkpt lat="43.229416913208404" lon="11.528384686908847"><ele>174.0</ele><time>2026-04-06T16:04:43Z</time></trkpt><trkpt lat="43.22949084969811" lon="11.528473402805297"><ele>174.0</ele><time>2026-04-06T16:04:44Z</time></trkpt><trkpt lat="43.22956272077019" lon="11.52855214202085"><ele>174.0</ele><time>2026-04-06T16:04:45Z</time></trkpt><trkpt lat="43.22962098349617" lon="11.52861610575507"><ele>174.0</ele><time>2026-04-06T16:04:46Z</time></trkpt><trkpt lat="43.2297191155424" lon="11.528703770978451"><ele>174.0</ele><time>2026-04-06T16:04:48Z</time></trkpt><trkpt lat="43.22979893941831" lon="11.528755655243128"><ele>174.5</ele><time>2026-04-06T16:04:50Z</time></trkpt><trkpt lat="43.22990139862984" lon="11.528804026600408"><ele>175.0</ele><time>2026-04-06T16:04:53Z</time></trkpt><trkpt lat="43.22997401789577" lon="11.528884689842636"><ele>175.5</ele><time>2026-04-06T16:04:54Z</time></trkpt><trkpt lat="43.230065344479634" lon="11.529018486292061"><ele>176.0</ele><time>2026-04-06T16:04:55Z</time></trkpt><trkpt lat="43.23015845138042" lon="11.529162748060589"><ele>176.0</ele><time>2026-04-06T16:04:56Z</time></trkpt><trkpt lat="43.230262400950714" lon="11.529303448808738"><ele>176.0</ele><time>2026-04-06T16:04:57Z</time></trkpt><trkpt lat="43.23038942614717" lon="11.529474140085561"><ele>176.0</ele><time>2026-04-06T16:04:58Z</time></trkpt><trkpt lat="43.23053058610868" lon="11.529664695652652"><ele>174.66666666666666</ele><time>2026-04-06T16:04:59Z</time></trkpt><trkpt lat="43.23066700134938" lon="11.52984782679472"><ele>173.33333333333334</ele><time>2026-04-06T16:05:00Z</time></trkpt><trkpt lat="43.23079205424666" lon="11.530012739388988"><ele>172.0</ele><time>2026-04-06T16:05:01Z</time></trkpt><trkpt lat="43.23090802651737" lon="11.530170036736125"><ele>172.0</ele><time>2026-04-06T16:05:02Z</time></trkpt><trkpt lat="43.231022222888555" lon="11.530323532233298"><ele>172.0</ele><time>2026-04-06T16:05:03Z</time></trkpt><trkpt lat="43.23113573660879" lon="11.530479949131125"><ele>172.0</ele><time>2026-04-06T16:05:04Z</time></trkpt><trkpt lat="43.23124252633306" lon="11.530662434650056"><ele>171.0</ele><time>2026-04-06T16:05:05Z</time></trkpt><trkpt lat="43.231335685697104" lon="11.530878976945521"><ele>170.0</ele><time>2026-04-06T16:05:06Z</time></trkpt><trkpt lat="43.23140930388505" lon="11.531116452041042"><ele>169.0</ele><time>2026-04-06T16:05:07Z</time></trkpt><trkpt lat="43.23146274812537" lon="11.531370060880079"><ele>169.33333333333334</ele><time>2026-04-06T16:05:08Z</time></trkpt><trkpt lat="43.23151439415452" lon="11.531628507120393"><ele>169.66666666666666</ele><time>2026-04-06T16:05:09Z</time></trkpt><trkpt lat="43.23156892783126" lon="11.531895900423747"><ele>170.0</ele><time>2026-04-06T16:05:10Z</time></trkpt><trkpt lat="43.23162528139508" lon="11.532164548528593"><ele>170.0</ele><time>2026-04-06T16:05:11Z</time></trkpt><trkpt lat="43.231678098477026" lon="11.532429836813225"><ele>170.0</ele><time>2026-04-06T16:05:12Z</time></trkpt><trkpt lat="43.23172809126462" lon="11.532695718881117"><ele>170.0</ele><time>2026-04-06T16:05:13Z</time></trkpt><trkpt lat="43.231776620691676" lon="11.53294166412743"><ele>170.0</ele><time>2026-04-06T16:05:14Z</time></trkpt><trkpt lat="43.23181990795094" lon="11.533164781688573"><ele>170.0</ele><time>2026-04-06T16:05:15Z</time></trkpt><trkpt lat="43.231860195773244" lon="11.533375931549596"><ele>170.0</ele><time>2026-04-06T16:05:16Z</time></trkpt><trkpt lat="43.23189878806309" lon="11.533576788493196"><ele>169.33333333333331</ele><time>2026-04-06T16:05:17Z</time></trkpt><trkpt lat="43.231944466300064" lon="11.533787266637354"><ele>168.66666666666666</ele><time>2026-04-06T16:05:18Z</time></trkpt><trkpt lat="43.23201295488689" lon="11.533989539918164"><ele>168.0</ele><time>2026-04-06T16:05:19Z</time></trkpt><trkpt lat="43.232119241878706" lon="11.534179556094507"><ele>168.0</ele><time>2026-04-06T16:05:20Z</time></trkpt><trkpt lat="43.232263541551994" lon="11.534350921951397"><ele>168.0</ele><time>2026-04-06T16:05:20.999Z</time></trkpt><trkpt lat="43.23243632508743" lon="11.534505411795227"><ele>168.0</ele><time>2026-04-06T16:05:21.999Z</time></trkpt><trkpt lat="43.232625436457866" lon="11.534641248063028"><ele>168.66666666666666</ele><time>2026-04-06T16:05:22.999Z</time></trkpt><trkpt lat="43.23281801138329" lon="11.534772869987554"><ele>169.33333333333331</ele><time>2026-04-06T16:05:23.999Z</time></trkpt><trkpt lat="43.23300529407688" lon="11.534913557711896"><ele>170.0</ele><time>2026-04-06T16:05:24.999Z</time></trkpt><trkpt lat="43.233181979637735" lon="11.535055713816117"><ele>169.66666666666666</ele><time>2026-04-06T16:05:25.999Z</time></trkpt><trkpt lat="43.23334684694282" lon="11.535185949750149"><ele>169.33333333333334</ele><time>2026-04-06T16:05:26.999Z</time></trkpt><trkpt lat="43.233499973216674" lon="11.535319377462189"><ele>169.0</ele><time>2026-04-06T16:05:27.999Z</time></trkpt><trkpt lat="43.23362793643776" lon="11.535485649801847"><ele>169.0</ele><time>2026-04-06T16:05:28.999Z</time></trkpt><trkpt lat="43.23374357707261" lon="11.535691825130353"><ele>169.0</ele><time>2026-04-06T16:05:29.999Z</time></trkpt><trkpt lat="43.23385896996399" lon="11.535919215630681"><ele>169.0</ele><time>2026-04-06T16:05:30.999Z</time></trkpt><trkpt lat="43.23398236330816" lon="11.536158067186065"><ele>170.0</ele><time>2026-04-06T16:05:31.999Z</time></trkpt><trkpt lat="43.234110703273195" lon="11.536398950232595"><ele>171.0</ele><time>2026-04-06T16:05:32.999Z</time></trkpt><trkpt lat="43.234240412276506" lon="11.536641207004102"><ele>172.0</ele><time>2026-04-06T16:05:33.999Z</time></trkpt><trkpt lat="43.23436437843302" lon="11.536872530937538"><ele>172.0</ele><time>2026-04-06T16:05:34.999Z</time></trkpt><trkpt lat="43.234490071873445" lon="11.537104438658876"><ele>172.0</ele><time>2026-04-06T16:05:35.999Z</time></trkpt><trkpt lat="43.2346219926683" lon="11.537345913214532"><ele>172.0</ele><time>2026-04-06T16:05:36.999Z</time></trkpt><trkpt lat="43.23475689444278" lon="11.537593766421686"><ele>172.66666666666669</ele><time>2026-04-06T16:05:37.999Z</time></trkpt><trkpt lat="43.234892599909045" lon="11.537843222204016"><ele>173.33333333333334</ele><time>2026-04-06T16:05:38.999Z</time></trkpt><trkpt lat="43.23502295569154" lon="11.53808739413379"><ele>174.0</ele><time>2026-04-06T16:05:39.999Z</time></trkpt><trkpt lat="43.23514577337587" lon="11.53831483920009"><ele>174.0</ele><time>2026-04-06T16:05:40.999Z</time></trkpt><trkpt lat="43.2352624464781" lon="11.538531656224515"><ele>174.0</ele><time>2026-04-06T16:05:41.999Z</time></trkpt><trkpt lat="43.23537829063695" lon="11.538746128491285"><ele>174.0</ele><time>2026-04-06T16:05:42.999Z</time></trkpt><trkpt lat="43.235489028101064" lon="11.538949353584448"><ele>173.66666666666666</ele><time>2026-04-06T16:05:43.999Z</time></trkpt><trkpt lat="43.235595321593024" lon="11.539143000032423"><ele>173.33333333333331</ele><time>2026-04-06T16:05:44.999Z</time></trkpt><trkpt lat="43.23569271966391" lon="11.539321836881388"><ele>173.0</ele><time>2026-04-06T16:05:45.999Z</time></trkpt><trkpt lat="43.23578044382112" lon="11.539496878861478"><ele>173.5</ele><time>2026-04-06T16:05:46.999Z</time></trkpt><trkpt lat="43.235848765056566" lon="11.539674607841764"><ele>174.0</ele><time>2026-04-06T16:05:47.999Z</time></trkpt><trkpt lat="43.23588524337111" lon="11.539865804936698"><ele>174.5</ele><time>2026-04-06T16:05:48.999Z</time></trkpt><trkpt lat="43.23587391195725" lon="11.54007390247178"><ele>175.0</ele><time>2026-04-06T16:05:49.999Z</time></trkpt><trkpt lat="43.235877929475656" lon="11.540304977613737"><ele>175.0</ele><time>2026-04-06T16:05:50.999Z</time></trkpt><trkpt lat="43.235855882400536" lon="11.540554054438271"><ele>175.0</ele><time>2026-04-06T16:05:51.999Z</time></trkpt><trkpt lat="43.23583792625828" lon="11.540817623575744"><ele>175.0</ele><time>2026-04-06T16:05:52.999Z</time></trkpt><trkpt lat="43.23582370861035" lon="11.54109071748204"><ele>176.33333333333334</ele><time>2026-04-06T16:05:53.999Z</time></trkpt><trkpt lat="43.23581494907035" lon="11.541356507719552"><ele>177.66666666666666</ele><time>2026-04-06T16:05:54.999Z</time></trkpt><trkpt lat="43.23580691990156" lon="11.541633814394645"><ele>179.0</ele><time>2026-04-06T16:05:55.999Z</time></trkpt><trkpt lat="43.23579745158424" lon="11.541925171921868"><ele>179.0</ele><time>2026-04-06T16:05:56.999Z</time></trkpt><trkpt lat="43.23578441972932" lon="11.542234963931977"><ele>179.0</ele><time>2026-04-06T16:05:57.999Z</time></trkpt><trkpt lat="43.235768715975745" lon="11.542545520443241"><ele>179.0</ele><time>2026-04-06T16:05:58.999Z</time></trkpt><trkpt lat="43.23575387714066" lon="11.542853673222284"><ele>179.0</ele><time>2026-04-06T16:05:59.999Z</time></trkpt><trkpt lat="43.235741629325595" lon="11.543157547462553"><ele>179.0</ele><time>2026-04-06T16:06:00.999Z</time></trkpt><trkpt lat="43.23572894129025" lon="11.543455879273823"><ele>178.33333333333331</ele><time>2026-04-06T16:06:01.999Z</time></trkpt><trkpt lat="43.23571776489454" lon="11.543738439357703"><ele>177.66666666666666</ele><time>2026-04-06T16:06:02.999Z</time></trkpt><trkpt lat="43.235708090751444" lon="11.544002770120745"><ele>177.0</ele><time>2026-04-06T16:06:03.999Z</time></trkpt><trkpt lat="43.23569904274954" lon="11.5442526605874"><ele>177.0</ele><time>2026-04-06T16:06:04.999Z</time></trkpt><trkpt lat="43.23568875228107" lon="11.544501852623776"><ele>177.0</ele><time>2026-04-06T16:06:05.999Z</time></trkpt><trkpt lat="43.23568478898297" lon="11.544754420382944"><ele>177.0</ele><time>2026-04-06T16:06:06.999Z</time></trkpt><trkpt lat="43.23570529847668" lon="11.54500509845748"><ele>176.66666666666666</ele><time>2026-04-06T16:06:07.999Z</time></trkpt><trkpt lat="43.235749277490626" lon="11.545257893301141"><ele>176.33333333333331</ele><time>2026-04-06T16:06:08.999Z</time></trkpt><trkpt lat="43.235818638289096" lon="11.545511088011855"><ele>176.0</ele><time>2026-04-06T16:06:09.999Z</time></trkpt><trkpt lat="43.23590592299539" lon="11.545761278784768"><ele>176.0</ele><time>2026-04-06T16:06:10.999Z</time></trkpt><trkpt lat="43.23600384299893" lon="11.54600895791631"><ele>176.0</ele><time>2026-04-06T16:06:11.999Z</time></trkpt><trkpt lat="43.23611261220564" lon="11.546232017253088"><ele>176.0</ele><time>2026-04-06T16:06:12.999Z</time></trkpt><trkpt lat="43.236246655701144" lon="11.546453864674525"><ele>176.66666666666666</ele><time>2026-04-06T16:06:13.999Z</time></trkpt><trkpt lat="43.23639138502678" lon="11.546670588298971"><ele>177.33333333333334</ele><time>2026-04-06T16:06:14.999Z</time></trkpt><trkpt lat="43.23653839919773" lon="11.546886373091377"><ele>178.0</ele><time>2026-04-06T16:06:15.999Z</time></trkpt><trkpt lat="43.23668591735992" lon="11.547099229561603"><ele>176.66666666666669</ele><time>2026-04-06T16:06:16.999Z</time></trkpt><trkpt lat="43.236840973643254" lon="11.54730155142195"><ele>175.33333333333334</ele><time>2026-04-06T16:06:17.999Z</time></trkpt><trkpt lat="43.23700931663437" lon="11.54749703320353"><ele>174.0</ele><time>2026-04-06T16:06:18.999Z</time></trkpt><trkpt lat="43.23717951868072" lon="11.547683793364225"><ele>174.66666666666666</ele><time>2026-04-06T16:06:19.999Z</time></trkpt><trkpt lat="43.23735684873266" lon="11.547874635593175"><ele>175.33333333333331</ele><time>2026-04-06T16:06:20.999Z</time></trkpt><trkpt lat="43.23753112738388" lon="11.548067062217536"><ele>176.0</ele><time>2026-04-06T16:06:22Z</time></trkpt><trkpt lat="43.23769840425792" lon="11.548253430524454"><ele>176.0</ele><time>2026-04-06T16:06:23Z</time></trkpt><trkpt lat="43.23785934673269" lon="11.548427779692696"><ele>176.0</ele><time>2026-04-06T16:06:24Z</time></trkpt><trkpt lat="43.23802174706796" lon="11.54859231681826"><ele>176.0</ele><time>2026-04-06T16:06:25Z</time></trkpt><trkpt lat="43.23818836049419" lon="11.548748613066785"><ele>176.0</ele><time>2026-04-06T16:06:26Z</time></trkpt><trkpt lat="43.238349590833394" lon="11.548916318293838"><ele>176.0</ele><time>2026-04-06T16:06:27Z</time></trkpt><trkpt lat="43.23851819498944" lon="11.549032540053869"><ele>176.0</ele><time>2026-04-06T16:06:28Z</time></trkpt><trkpt lat="43.23867122811794" lon="11.549155904497315"><ele>176.0</ele><time>2026-04-06T16:06:29Z</time></trkpt><trkpt lat="43.238818861573336" lon="11.549257949574168"><ele>176.0</ele><time>2026-04-06T16:06:30Z</time></trkpt><trkpt lat="43.238972254633914" lon="11.549364472582104"><ele>176.0</ele><time>2026-04-06T16:06:31Z</time></trkpt><trkpt lat="43.239266105912904" lon="11.549622584930386"><ele>175.66666666666666</ele><time>2026-04-06T16:06:33Z</time></trkpt><trkpt lat="43.23939480140697" lon="11.549792175661876"><ele>175.33333333333334</ele><time>2026-04-06T16:06:34Z</time></trkpt><trkpt lat="43.23952269301675" lon="11.549950486282825"><ele>175.0</ele><time>2026-04-06T16:06:35Z</time></trkpt><trkpt lat="43.23965790635827" lon="11.550104477683243"><ele>175.0</ele><time>2026-04-06T16:06:36Z</time></trkpt><trkpt lat="43.239774535366124" lon="11.550272854835438"><ele>175.0</ele><time>2026-04-06T16:06:37Z</time></trkpt><trkpt lat="43.23988648115978" lon="11.550429389181133"><ele>175.0</ele><time>2026-04-06T16:06:38Z</time></trkpt><trkpt lat="43.23999543905982" lon="11.550578076615757"><ele>174.5</ele><time>2026-04-06T16:06:39Z</time></trkpt><trkpt lat="43.240096180054934" lon="11.550715979120247"><ele>174.0</ele><time>2026-04-06T16:06:40Z</time></trkpt><trkpt lat="43.240193332016396" lon="11.550850906126039"><ele>173.5</ele><time>2026-04-06T16:06:41Z</time></trkpt><trkpt lat="43.24029043941303" lon="11.550984452439977"><ele>173.0</ele><time>2026-04-06T16:06:42Z</time></trkpt><trkpt lat="43.2403802893718" lon="11.55110969041523"><ele>172.60000000000002</ele><time>2026-04-06T16:06:43Z</time></trkpt><trkpt lat="43.24046242913461" lon="11.551226218049761"><ele>172.20000000000002</ele><time>2026-04-06T16:06:44Z</time></trkpt><trkpt lat="43.24054263285754" lon="11.55133883086653"><ele>171.8</ele><time>2026-04-06T16:06:45Z</time></trkpt><trkpt lat="43.24061741510252" lon="11.551443996478728"><ele>171.4</ele><time>2026-04-06T16:06:46Z</time></trkpt><trkpt lat="43.24068886003658" lon="11.551543310511377"><ele>171.0</ele><time>2026-04-06T16:06:47Z</time></trkpt><trkpt lat="43.2407552517586" lon="11.551637663456692"><ele>172.60000000000002</ele><time>2026-04-06T16:06:48Z</time></trkpt><trkpt lat="43.24083050355104" lon="11.551832785193595"><ele>174.2</ele><time>2026-04-06T16:06:50Z</time></trkpt><trkpt lat="43.24081679362599" lon="11.551941788589009"><ele>175.8</ele><time>2026-04-06T16:06:51Z</time></trkpt><trkpt lat="43.2407740098645" lon="11.55205613436806"><ele>177.39999999999998</ele><time>2026-04-06T16:06:52Z</time></trkpt><trkpt lat="43.2407193366426" lon="11.552155525104562"><ele>179.0</ele><time>2026-04-06T16:06:53Z</time></trkpt><trkpt lat="43.24066800736006" lon="11.552255860166827"><ele>177.6</ele><time>2026-04-06T16:06:54Z</time></trkpt><trkpt lat="43.2406295466305" lon="11.552347715830395"><ele>176.2</ele><time>2026-04-06T16:06:55Z</time></trkpt><trkpt lat="43.240577365275136" lon="11.552476486177746"><ele>174.79999999999998</ele><time>2026-04-06T16:06:57Z</time></trkpt><trkpt lat="43.240521980372925" lon="11.552620285171036"><ele>173.39999999999998</ele><time>2026-04-06T16:06:59Z</time></trkpt><trkpt lat="43.240477241286676" lon="11.552734099047527"><ele>172.0</ele><time>2026-04-06T16:07:00Z</time></trkpt><trkpt lat="43.240422852456376" lon="11.552833378019464"><ele>172.2</ele><time>2026-04-06T16:07:01Z</time></trkpt><trkpt lat="43.24037012206818" lon="11.552911922248011"><ele>172.39999999999998</ele><time>2026-04-06T16:07:02Z</time></trkpt><trkpt lat="43.240321817832445" lon="11.55302230289643"><ele>172.60000000000002</ele><time>2026-04-06T16:07:04Z</time></trkpt><trkpt lat="43.240395026424316" lon="11.553131361154314"><ele>172.8</ele><time>2026-04-06T16:07:07Z</time></trkpt><trkpt lat="43.24050177401781" lon="11.553174672991284"><ele>173.0</ele><time>2026-04-06T16:07:09Z</time></trkpt><trkpt lat="43.24056689984836" lon="11.55320820891458"><ele>173.0</ele><time>2026-04-06T16:07:10Z</time></trkpt><trkpt lat="43.24062725123211" lon="11.553253424586494"><ele>173.0</ele><time>2026-04-06T16:07:11Z</time></trkpt><trkpt lat="43.240690994886535" lon="11.55330238539427"><ele>173.0</ele><time>2026-04-06T16:07:12Z</time></trkpt><trkpt lat="43.24075823659382" lon="11.553341208610853"><ele>173.0</ele><time>2026-04-06T16:07:13Z</time></trkpt><trkpt lat="43.24082604172688" lon="11.553384088230295"><ele>173.0</ele><time>2026-04-06T16:07:14Z</time></trkpt><trkpt lat="43.240890922898096" lon="11.553432307761428"><ele>173.0</ele><time>2026-04-06T16:07:15Z</time></trkpt><trkpt lat="43.2409566660476" lon="11.553488551065325"><ele>173.0</ele><time>2026-04-06T16:07:16Z</time></trkpt><trkpt lat="43.241019434635554" lon="11.553541038085491"><ele>173.0</ele><time>2026-04-06T16:07:17Z</time></trkpt><trkpt lat="43.24107526677177" lon="11.553587786220415"><ele>173.0</ele><time>2026-04-06T16:07:18Z</time></trkpt><trkpt lat="43.2411317483951" lon="11.55363608014922"><ele>173.0</ele><time>2026-04-06T16:07:19Z</time></trkpt><trkpt lat="43.24119795125331" lon="11.553687649730533"><ele>173.0</ele><time>2026-04-06T16:07:20Z</time></trkpt><trkpt lat="43.24127559649757" lon="11.55373347870297"><ele>173.0</ele><time>2026-04-06T16:07:21Z</time></trkpt><trkpt lat="43.24135544208208" lon="11.553778701245049"><ele>173.0</ele><time>2026-04-06T16:07:22Z</time></trkpt><trkpt lat="43.241445395318564" lon="11.553810169470282"><ele>173.83333333333331</ele><time>2026-04-06T16:07:23Z</time></trkpt><trkpt lat="43.241536763605815" lon="11.553817785882254"><ele>174.66666666666666</ele><time>2026-04-06T16:07:24Z</time></trkpt><trkpt lat="43.241627829729204" lon="11.553814563620126"><ele>175.5</ele><time>2026-04-06T16:07:25Z</time></trkpt><trkpt lat="43.24171378645606" lon="11.553804274596802"><ele>176.33333333333334</ele><time>2026-04-06T16:07:26Z</time></trkpt><trkpt lat="43.24179493223582" lon="11.553804366928505"><ele>177.16666666666669</ele><time>2026-04-06T16:07:27Z</time></trkpt><trkpt lat="43.24187876849613" lon="11.553819265858682"><ele>178.0</ele><time>2026-04-06T16:07:28Z</time></trkpt><trkpt lat="43.24196564704483" lon="11.553854065476672"><ele>178.0</ele><time>2026-04-06T16:07:28.999Z</time></trkpt><trkpt lat="43.24205116311067" lon="11.553906857869316"><ele>178.0</ele><time>2026-04-06T16:07:29.999Z</time></trkpt><trkpt lat="43.24214332325906" lon="11.55397707920628"><ele>178.0</ele><time>2026-04-06T16:07:30.999Z</time></trkpt><trkpt lat="43.24224760858689" lon="11.554061114635022"><ele>178.0</ele><time>2026-04-06T16:07:31.999Z</time></trkpt><trkpt lat="43.24234844839722" lon="11.554143142582674"><ele>178.0</ele><time>2026-04-06T16:07:32.999Z</time></trkpt><trkpt lat="43.24244341169503" lon="11.554217500395264"><ele>180.66666666666669</ele><time>2026-04-06T16:07:33.999Z</time></trkpt><trkpt lat="43.24253482873385" lon="11.554290232549832"><ele>183.33333333333334</ele><time>2026-04-06T16:07:34.999Z</time></trkpt><trkpt lat="43.24261829028857" lon="11.554354717293865"><ele>186.0</ele><time>2026-04-06T16:07:35.999Z</time></trkpt><trkpt lat="43.242693736960526" lon="11.554406657927494"><ele>188.66666666666669</ele><time>2026-04-06T16:07:36.999Z</time></trkpt><trkpt lat="43.24276683006169" lon="11.554441792641006"><ele>191.33333333333334</ele><time>2026-04-06T16:07:37.999Z</time></trkpt><trkpt lat="43.24284657391412" lon="11.554469440816863"><ele>194.0</ele><time>2026-04-06T16:07:38.999Z</time></trkpt><trkpt lat="43.24293469271459" lon="11.55449704285276"><ele>194.0</ele><time>2026-04-06T16:07:39.999Z</time></trkpt><trkpt lat="43.24303191843024" lon="11.554516694595685"><ele>194.0</ele><time>2026-04-06T16:07:40.999Z</time></trkpt><trkpt lat="43.243121015574424" lon="11.554521005145908"><ele>194.0</ele><time>2026-04-06T16:07:41.999Z</time></trkpt><trkpt lat="43.24321349322936" lon="11.554517359691792"><ele>194.0</ele><time>2026-04-06T16:07:42.999Z</time></trkpt><trkpt lat="43.243315772690416" lon="11.554503302114716"><ele>194.0</ele><time>2026-04-06T16:07:43.999Z</time></trkpt><trkpt lat="43.24342945764745" lon="11.554485129731503"><ele>195.5</ele><time>2026-04-06T16:07:44.999Z</time></trkpt><trkpt lat="43.243545638226735" lon="11.554494575801366"><ele>197.0</ele><time>2026-04-06T16:07:45.999Z</time></trkpt><trkpt lat="43.24365566336013" lon="11.554482265834876"><ele>198.5</ele><time>2026-04-06T16:07:46.999Z</time></trkpt><trkpt lat="43.24376676598109" lon="11.55446739382612"><ele>200.0</ele><time>2026-04-06T16:07:47.999Z</time></trkpt><trkpt lat="43.24387951193288" lon="11.554429852402167"><ele>197.5</ele><time>2026-04-06T16:07:48.999Z</time></trkpt><trkpt lat="43.243988683896085" lon="11.554418183333402"><ele>195.0</ele><time>2026-04-06T16:07:49.999Z</time></trkpt><trkpt lat="43.24410568158964" lon="11.554397459217197"><ele>192.5</ele><time>2026-04-06T16:07:50.999Z</time></trkpt><trkpt lat="43.244220330545524" lon="11.554385068764166"><ele>190.0</ele><time>2026-04-06T16:07:51.999Z</time></trkpt><trkpt lat="43.24433342723821" lon="11.554369178274868"><ele>190.0</ele><time>2026-04-06T16:07:52.999Z</time></trkpt><trkpt lat="43.244448337707816" lon="11.554378790498163"><ele>190.0</ele><time>2026-04-06T16:07:53.999Z</time></trkpt><trkpt lat="43.244567304264166" lon="11.554347759481935"><ele>190.0</ele><time>2026-04-06T16:07:54.999Z</time></trkpt><trkpt lat="43.24468941354199" lon="11.554339979671559"><ele>190.0</ele><time>2026-04-06T16:07:55.999Z</time></trkpt><trkpt lat="43.24481200547859" lon="11.554327437573079"><ele>189.2</ele><time>2026-04-06T16:07:56.999Z</time></trkpt><trkpt lat="43.24492514581964" lon="11.554331318406065"><ele>188.4</ele><time>2026-04-06T16:07:57.999Z</time></trkpt><trkpt lat="43.245026948769855" lon="11.554294195853243"><ele>187.60000000000002</ele><time>2026-04-06T16:07:58.999Z</time></trkpt><trkpt lat="43.2451339104719" lon="11.554276375805678"><ele>186.8</ele><time>2026-04-06T16:07:59.999Z</time></trkpt><trkpt lat="43.2452415133531" lon="11.554281943806014"><ele>186.0</ele><time>2026-04-06T16:08:00.999Z</time></trkpt><trkpt lat="43.245340731083175" lon="11.554265589904142"><ele>186.0</ele><time>2026-04-06T16:08:01.999Z</time></trkpt><trkpt lat="43.245437540589606" lon="11.554234159337074"><ele>186.0</ele><time>2026-04-06T16:08:02.999Z</time></trkpt><trkpt lat="43.24554546437658" lon="11.554220104883633"><ele>186.0</ele><time>2026-04-06T16:08:03.999Z</time></trkpt><trkpt lat="43.24565286497349" lon="11.554200124818255"><ele>186.0</ele><time>2026-04-06T16:08:04.999Z</time></trkpt><trkpt lat="43.245770347722036" lon="11.554184834935123"><ele>186.0</ele><time>2026-04-06T16:08:05.999Z</time></trkpt><trkpt lat="43.24588770055569" lon="11.554165952597092"><ele>184.20000000000002</ele><time>2026-04-06T16:08:06.999Z</time></trkpt><trkpt lat="43.24600290503064" lon="11.55414983272018"><ele>182.4</ele><time>2026-04-06T16:08:07.999Z</time></trkpt><trkpt lat="43.246122991328114" lon="11.55415733350931"><ele>180.6</ele><time>2026-04-06T16:08:08.999Z</time></trkpt><trkpt lat="43.246234396965605" lon="11.554144809671127"><ele>178.8</ele><time>2026-04-06T16:08:09.999Z</time></trkpt><trkpt lat="43.24633340915968" lon="11.554120516467167"><ele>177.0</ele><time>2026-04-06T16:08:10.999Z</time></trkpt><trkpt lat="43.24643165891467" lon="11.554110297335722"><ele>176.0</ele><time>2026-04-06T16:08:11.999Z</time></trkpt><trkpt lat="43.246525901616174" lon="11.554115869241286"><ele>175.0</ele><time>2026-04-06T16:08:12.999Z</time></trkpt><trkpt lat="43.24660965630247" lon="11.554132906592159"><ele>174.0</ele><time>2026-04-06T16:08:13.999Z</time></trkpt><trkpt lat="43.24669046187917" lon="11.55416239842936"><ele>173.0</ele><time>2026-04-06T16:08:14.999Z</time></trkpt><trkpt lat="43.24678181256087" lon="11.554208807242325"><ele>172.0</ele><time>2026-04-06T16:08:15.999Z</time></trkpt><trkpt lat="43.24687077032439" lon="11.554265426304019"><ele>172.0</ele><time>2026-04-06T16:08:16.999Z</time></trkpt><trkpt lat="43.246953558896514" lon="11.554324628871745"><ele>172.0</ele><time>2026-04-06T16:08:17.999Z</time></trkpt><trkpt lat="43.24704282366141" lon="11.554390113522825"><ele>172.0</ele><time>2026-04-06T16:08:18.999Z</time></trkpt><trkpt lat="43.24713066831091" lon="11.554452603027368"><ele>172.0</ele><time>2026-04-06T16:08:19.999Z</time></trkpt><trkpt lat="43.24723096261332" lon="11.554526231417984"><ele>172.0</ele><time>2026-04-06T16:08:20.999Z</time></trkpt><trkpt lat="43.24733086615842" lon="11.55459942454308"><ele>173.75</ele><time>2026-04-06T16:08:21.999Z</time></trkpt><trkpt lat="43.247437014266424" lon="11.554678646741412"><ele>175.5</ele><time>2026-04-06T16:08:22.999Z</time></trkpt><trkpt lat="43.24754358090042" lon="11.55475295994682"><ele>177.25</ele><time>2026-04-06T16:08:23.999Z</time></trkpt><trkpt lat="43.247646703687856" lon="11.554826896641355"><ele>179.0</ele><time>2026-04-06T16:08:24.999Z</time></trkpt><trkpt lat="43.2477297013409" lon="11.55489333751768"><ele>179.0</ele><time>2026-04-06T16:08:25.999Z</time></trkpt><trkpt lat="43.2478031952906" lon="11.554968010719653"><ele>179.0</ele><time>2026-04-06T16:08:26.999Z</time></trkpt><trkpt lat="43.24786330468584" lon="11.555058624279367"><ele>179.0</ele><time>2026-04-06T16:08:28Z</time></trkpt><trkpt lat="43.247916355814425" lon="11.555163365490552"><ele>179.0</ele><time>2026-04-06T16:08:29Z</time></trkpt><trkpt lat="43.247974667870714" lon="11.555278220071274"><ele>179.0</ele><time>2026-04-06T16:08:30Z</time></trkpt><trkpt lat="43.24802815869856" lon="11.555369963205855"><ele>178.2</ele><time>2026-04-06T16:08:31Z</time></trkpt><trkpt lat="43.248086532881615" lon="11.5554481799426"><ele>177.39999999999998</ele><time>2026-04-06T16:08:32Z</time></trkpt><trkpt lat="43.24815284741717" lon="11.555523442610156"><ele>176.6</ele><time>2026-04-06T16:08:33Z</time></trkpt><trkpt lat="43.24823293743566" lon="11.55560534201099"><ele>175.8</ele><time>2026-04-06T16:08:34Z</time></trkpt><trkpt lat="43.24831517517905" lon="11.55567679120387"><ele>175.0</ele><time>2026-04-06T16:08:35Z</time></trkpt><trkpt lat="43.24839347954193" lon="11.555742101761364"><ele>177.4</ele><time>2026-04-06T16:08:36Z</time></trkpt><trkpt lat="43.248460230113025" lon="11.55579995430985"><ele>179.8</ele><time>2026-04-06T16:08:37Z</time></trkpt><trkpt lat="43.24851959533861" lon="11.555852240484993"><ele>182.2</ele><time>2026-04-06T16:08:38Z</time></trkpt><trkpt lat="43.24857622897018" lon="11.555903594424288"><ele>184.6</ele><time>2026-04-06T16:08:39Z</time></trkpt><trkpt lat="43.248686639711806" lon="11.555988352368805"><ele>187.0</ele><time>2026-04-06T16:08:41Z</time></trkpt><trkpt lat="43.24880748083792" lon="11.556054127725286"><ele>187.0</ele><time>2026-04-06T16:08:43Z</time></trkpt><trkpt lat="43.24887929031357" lon="11.556100135767098"><ele>187.0</ele><time>2026-04-06T16:08:44Z</time></trkpt><trkpt lat="43.24896452977788" lon="11.556110457902747"><ele>187.0</ele><time>2026-04-06T16:08:45Z</time></trkpt><trkpt lat="43.24904837201158" lon="11.556105840503724"><ele>187.0</ele><time>2026-04-06T16:08:46Z</time></trkpt><trkpt lat="43.24913419653834" lon="11.556092018676678"><ele>187.0</ele><time>2026-04-06T16:08:47Z</time></trkpt><trkpt lat="43.2492191651174" lon="11.556076044668728"><ele>187.0</ele><time>2026-04-06T16:08:48Z</time></trkpt><trkpt lat="43.24930450736896" lon="11.556060560129719"><ele>188.5</ele><time>2026-04-06T16:08:49Z</time></trkpt><trkpt lat="43.2493861415382" lon="11.556046097288274"><ele>190.0</ele><time>2026-04-06T16:08:50Z</time></trkpt><trkpt lat="43.24946918211479" lon="11.556031385300152"><ele>191.5</ele><time>2026-04-06T16:08:51Z</time></trkpt><trkpt lat="43.24955372439448" lon="11.556016407231688"><ele>193.0</ele><time>2026-04-06T16:08:52Z</time></trkpt><trkpt lat="43.24964072538765" lon="11.556001326537796"><ele>194.49999999999997</ele><time>2026-04-06T16:08:53Z</time></trkpt><trkpt lat="43.24972220854322" lon="11.555969298911757"><ele>196.0</ele><time>2026-04-06T16:08:54Z</time></trkpt><trkpt lat="43.24979452928729" lon="11.555971529378544"><ele>196.49999999999997</ele><time>2026-04-06T16:08:55Z</time></trkpt><trkpt lat="43.249866005904366" lon="11.555967123831154"><ele>197.0</ele><time>2026-04-06T16:08:56Z</time></trkpt><trkpt lat="43.24994585800598" lon="11.555947330001032"><ele>197.5</ele><time>2026-04-06T16:08:57Z</time></trkpt><trkpt lat="43.25003181964662" lon="11.555944956997832"><ele>198.0</ele><time>2026-04-06T16:08:58Z</time></trkpt><trkpt lat="43.250125008329796" lon="11.555896407216219"><ele>198.49999999999997</ele><time>2026-04-06T16:08:59Z</time></trkpt><trkpt lat="43.250216643397216" lon="11.555820383841473"><ele>199.0</ele><time>2026-04-06T16:09:00Z</time></trkpt><trkpt lat="43.25030609540344" lon="11.555736406782795"><ele>199.0</ele><time>2026-04-06T16:09:01Z</time></trkpt><trkpt lat="43.25040070127504" lon="11.555642051504217"><ele>199.0</ele><time>2026-04-06T16:09:02Z</time></trkpt><trkpt lat="43.250497038465525" lon="11.555543031191732"><ele>199.0</ele><time>2026-04-06T16:09:03Z</time></trkpt><trkpt lat="43.2505990126797" lon="11.555436062277964"><ele>199.0</ele><time>2026-04-06T16:09:04Z</time></trkpt><trkpt lat="43.25070595113969" lon="11.555319607597575"><ele>202.2</ele><time>2026-04-06T16:09:05Z</time></trkpt><trkpt lat="43.25080454017269" lon="11.555209342022993"><ele>205.39999999999998</ele><time>2026-04-06T16:09:06Z</time></trkpt><trkpt lat="43.25088330950201" lon="11.555122876045697"><ele>208.6</ele><time>2026-04-06T16:09:07Z</time></trkpt><trkpt lat="43.25096872951376" lon="11.555044208497241"><ele>211.8</ele><time>2026-04-06T16:09:08Z</time></trkpt><trkpt lat="43.25106125816302" lon="11.554984045004526"><ele>215.0</ele><time>2026-04-06T16:09:09Z</time></trkpt><trkpt lat="43.25116710755977" lon="11.554931741906458"><ele>215.0</ele><time>2026-04-06T16:09:10Z</time></trkpt><trkpt lat="43.25128079896129" lon="11.554878373508183"><ele>215.0</ele><time>2026-04-06T16:09:11Z</time></trkpt><trkpt lat="43.25140544777779" lon="11.554827245915662"><ele>215.0</ele><time>2026-04-06T16:09:12Z</time></trkpt><trkpt lat="43.25154031067284" lon="11.55477607605941"><ele>215.0</ele><time>2026-04-06T16:09:13Z</time></trkpt><trkpt lat="43.25166284655294" lon="11.554730909131134"><ele>214.6</ele><time>2026-04-06T16:09:14Z</time></trkpt><trkpt lat="43.251771130459204" lon="11.554679920831232"><ele>214.2</ele><time>2026-04-06T16:09:15Z</time></trkpt><trkpt lat="43.251877808915474" lon="11.554643577604429"><ele>213.8</ele><time>2026-04-06T16:09:16Z</time></trkpt><trkpt lat="43.25196424793938" lon="11.554623825319583"><ele>213.4</ele><time>2026-04-06T16:09:17Z</time></trkpt><trkpt lat="43.25203245062429" lon="11.554613963799467"><ele>213.0</ele><time>2026-04-06T16:09:18Z</time></trkpt><trkpt lat="43.25211147220318" lon="11.554610419571562"><ele>213.0</ele><time>2026-04-06T16:09:19Z</time></trkpt><trkpt lat="43.25220744928242" lon="11.554619873469552"><ele>213.0</ele><time>2026-04-06T16:09:20Z</time></trkpt><trkpt lat="43.25231415338618" lon="11.554647730389261"><ele>213.0</ele><time>2026-04-06T16:09:21Z</time></trkpt><trkpt lat="43.25242692544469" lon="11.554684322219696"><ele>213.0</ele><time>2026-04-06T16:09:22Z</time></trkpt><trkpt lat="43.25253951048292" lon="11.554720446508096"><ele>213.0</ele><time>2026-04-06T16:09:23Z</time></trkpt><trkpt lat="43.252662018321224" lon="11.554734533204247"><ele>213.25</ele><time>2026-04-06T16:09:24Z</time></trkpt><trkpt lat="43.252770510806386" lon="11.554720935270067"><ele>213.5</ele><time>2026-04-06T16:09:25Z</time></trkpt><trkpt lat="43.2528965789731" lon="11.554697998357447"><ele>213.75</ele><time>2026-04-06T16:09:26Z</time></trkpt><trkpt lat="43.25302838654967" lon="11.554692325690972"><ele>214.0</ele><time>2026-04-06T16:09:27Z</time></trkpt><trkpt lat="43.25315572061822" lon="11.55465177713095"><ele>216.0</ele><time>2026-04-06T16:09:28Z</time></trkpt><trkpt lat="43.25327487558649" lon="11.55459444566804"><ele>218.0</ele><time>2026-04-06T16:09:29Z</time></trkpt><trkpt lat="43.25338929924652" lon="11.554527718278461"><ele>220.0</ele><time>2026-04-06T16:09:30Z</time></trkpt><trkpt lat="43.253490033559544" lon="11.554455344048343"><ele>222.0</ele><time>2026-04-06T16:09:31Z</time></trkpt><trkpt lat="43.25357502689136" lon="11.554391414517736"><ele>224.0</ele><time>2026-04-06T16:09:32Z</time></trkpt><trkpt lat="43.25364746624247" lon="11.554336927739161"><ele>226.0</ele><time>2026-04-06T16:09:33Z</time></trkpt><trkpt lat="43.25373336223637" lon="11.554271427496122"><ele>228.0</ele><time>2026-04-06T16:09:33.999Z</time></trkpt><trkpt lat="43.25382685165672" lon="11.554186147440754"><ele>230.0</ele><time>2026-04-06T16:09:34.999Z</time></trkpt><trkpt lat="43.253916596876806" lon="11.554085892593537"><ele>232.0</ele><time>2026-04-06T16:09:35.999Z</time></trkpt><trkpt lat="43.253992791316506" lon="11.55394845030502"><ele>232.75</ele><time>2026-04-06T16:09:36.999Z</time></trkpt><trkpt lat="43.254039614692886" lon="11.553794774709509"><ele>233.5</ele><time>2026-04-06T16:09:37.999Z</time></trkpt><trkpt lat="43.25407066882251" lon="11.553627268502613"><ele>234.25</ele><time>2026-04-06T16:09:38.999Z</time></trkpt><trkpt lat="43.25407033342933" lon="11.55345959456738"><ele>235.0</ele><time>2026-04-06T16:09:39.999Z</time></trkpt><trkpt lat="43.254087669773675" lon="11.553336750037932"><ele>236.42857142857142</ele><time>2026-04-06T16:09:40.999Z</time></trkpt><trkpt lat="43.25411247244188" lon="11.553232606815218"><ele>237.85714285714283</ele><time>2026-04-06T16:09:41.999Z</time></trkpt><trkpt lat="43.254145986860614" lon="11.553135444145035"><ele>239.28571428571428</ele><time>2026-04-06T16:09:42.999Z</time></trkpt><trkpt lat="43.25418949609832" lon="11.553059044434075"><ele>240.71428571428572</ele><time>2026-04-06T16:09:43.999Z</time></trkpt><trkpt lat="43.25424606128367" lon="11.553003537457128"><ele>242.14285714285714</ele><time>2026-04-06T16:09:44.999Z</time></trkpt><trkpt lat="43.25431944856787" lon="11.552968960896012"><ele>243.57142857142856</ele><time>2026-04-06T16:09:45.999Z</time></trkpt><trkpt lat="43.25438887981124" lon="11.552956168748741"><ele>245.0</ele><time>2026-04-06T16:09:46.999Z</time></trkpt><trkpt lat="43.25448102800631" lon="11.552925614571322"><ele>245.0</ele><time>2026-04-06T16:09:47.999Z</time></trkpt><trkpt lat="43.25458687577666" lon="11.552921966314383"><ele>245.0</ele><time>2026-04-06T16:09:48.999Z</time></trkpt><trkpt lat="43.25470089159168" lon="11.552918287903902"><ele>245.0</ele><time>2026-04-06T16:09:49.999Z</time></trkpt><trkpt lat="43.2548197510865" lon="11.55291144377891"><ele>245.0</ele><time>2026-04-06T16:09:50.999Z</time></trkpt><trkpt lat="43.254940980373064" lon="11.552908537741938"><ele>245.6</ele><time>2026-04-06T16:09:51.999Z</time></trkpt><trkpt lat="43.25505545636964" lon="11.55290986757892"><ele>246.2</ele><time>2026-04-06T16:09:52.999Z</time></trkpt><trkpt lat="43.25516211749072" lon="11.552900966142074"><ele>246.8</ele><time>2026-04-06T16:09:53.999Z</time></trkpt><trkpt lat="43.255259312890914" lon="11.552897686399787"><ele>247.4</ele><time>2026-04-06T16:09:54.999Z</time></trkpt><trkpt lat="43.25535504842925" lon="11.552898656982688"><ele>248.0</ele><time>2026-04-06T16:09:55.999Z</time></trkpt><trkpt lat="43.25545552142548" lon="11.552910710576372"><ele>248.0</ele><time>2026-04-06T16:09:56.999Z</time></trkpt><trkpt lat="43.25556270946365" lon="11.552939134424351"><ele>248.0</ele><time>2026-04-06T16:09:57.999Z</time></trkpt><trkpt lat="43.25567421468165" lon="11.552989249770711"><ele>248.0</ele><time>2026-04-06T16:09:58.999Z</time></trkpt><trkpt lat="43.255786652961014" lon="11.55305372048162"><ele>248.0</ele><time>2026-04-06T16:09:59.999Z</time></trkpt><trkpt lat="43.255902881286964" lon="11.553126713669057"><ele>249.0</ele><time>2026-04-06T16:10:00.999Z</time></trkpt><trkpt lat="43.256025664894594" lon="11.553205846066612"><ele>250.0</ele><time>2026-04-06T16:10:01.999Z</time></trkpt><trkpt lat="43.25614890332285" lon="11.55328768185597"><ele>251.0</ele><time>2026-04-06T16:10:02.999Z</time></trkpt><trkpt lat="43.25627107637852" lon="11.553367868894435"><ele>252.0</ele><time>2026-04-06T16:10:03.999Z</time></trkpt><trkpt lat="43.25638585310572" lon="11.553445295593344"><ele>251.75</ele><time>2026-04-06T16:10:04.999Z</time></trkpt><trkpt lat="43.25649198507528" lon="11.553518904825273"><ele>251.5</ele><time>2026-04-06T16:10:05.999Z</time></trkpt><trkpt lat="43.25659340789661" lon="11.553590855697854"><ele>251.25</ele><time>2026-04-06T16:10:06.999Z</time></trkpt><trkpt lat="43.25669733331084" lon="11.553656229980058"><ele>251.0</ele><time>2026-04-06T16:10:07.999Z</time></trkpt><trkpt lat="43.256805609832426" lon="11.553701766713035"><ele>251.0</ele><time>2026-04-06T16:10:08.999Z</time></trkpt><trkpt lat="43.25693745725762" lon="11.553722393232214"><ele>251.0</ele><time>2026-04-06T16:10:09.999Z</time></trkpt><trkpt lat="43.2570751752442" lon="11.553711545340825"><ele>251.0</ele><time>2026-04-06T16:10:10.999Z</time></trkpt><trkpt lat="43.25720496674856" lon="11.553680943020936"><ele>251.0</ele><time>2026-04-06T16:10:11.999Z</time></trkpt><trkpt lat="43.25734213868576" lon="11.553663070907175"><ele>251.25</ele><time>2026-04-06T16:10:12.999Z</time></trkpt><trkpt lat="43.257481206923906" lon="11.553617344139555"><ele>251.5</ele><time>2026-04-06T16:10:13.999Z</time></trkpt><trkpt lat="43.25761731353505" lon="11.55355977088964"><ele>251.75</ele><time>2026-04-06T16:10:14.999Z</time></trkpt><trkpt lat="43.257741464761565" lon="11.553502095283863"><ele>252.0</ele><time>2026-04-06T16:10:15.999Z</time></trkpt><trkpt lat="43.25786361631561" lon="11.553438130394396"><ele>252.0</ele><time>2026-04-06T16:10:16.999Z</time></trkpt><trkpt lat="43.25797124062505" lon="11.55338212456221"><ele>252.0</ele><time>2026-04-06T16:10:17.999Z</time></trkpt><trkpt lat="43.258077461857695" lon="11.553336557966668"><ele>252.0</ele><time>2026-04-06T16:10:18.999Z</time></trkpt><trkpt lat="43.258197097916366" lon="11.553302307116718"><ele>252.0</ele><time>2026-04-06T16:10:19.999Z</time></trkpt><trkpt lat="43.258331581706706" lon="11.553271054210253"><ele>252.0</ele><time>2026-04-06T16:10:20.999Z</time></trkpt><trkpt lat="43.25845419702259" lon="11.553242736130713"><ele>252.0</ele><time>2026-04-06T16:10:21.999Z</time></trkpt><trkpt lat="43.2585679738285" lon="11.553216459293608"><ele>252.0</ele><time>2026-04-06T16:10:22.999Z</time></trkpt><trkpt lat="43.25867932402485" lon="11.553187116330436"><ele>252.0</ele><time>2026-04-06T16:10:23.999Z</time></trkpt><trkpt lat="43.25878981125165" lon="11.553150466056218"><ele>252.0</ele><time>2026-04-06T16:10:24.999Z</time></trkpt><trkpt lat="43.25889775286684" lon="11.553102431752672"><ele>252.0</ele><time>2026-04-06T16:10:25.999Z</time></trkpt><trkpt lat="43.25899320665438" lon="11.553045212736825"><ele>252.0</ele><time>2026-04-06T16:10:26.999Z</time></trkpt><trkpt lat="43.25908809637177" lon="11.552960714830597"><ele>252.0</ele><time>2026-04-06T16:10:27.999Z</time></trkpt><trkpt lat="43.259176214631836" lon="11.552869401155524"><ele>252.0</ele><time>2026-04-06T16:10:28.999Z</time></trkpt><trkpt lat="43.25926673669663" lon="11.552768575284519"><ele>250.5</ele><time>2026-04-06T16:10:29.999Z</time></trkpt><trkpt lat="43.25934987603252" lon="11.552662761959876"><ele>249.0</ele><time>2026-04-06T16:10:30.999Z</time></trkpt><trkpt lat="43.25942053623373" lon="11.55254546329317"><ele>247.5</ele><time>2026-04-06T16:10:31.999Z</time></trkpt><trkpt lat="43.259477097806446" lon="11.5524068408518"><ele>246.0</ele><time>2026-04-06T16:10:33Z</time></trkpt><trkpt lat="43.25952268288906" lon="11.552262463888846"><ele>246.0</ele><time>2026-04-06T16:10:34Z</time></trkpt><trkpt lat="43.259565639362755" lon="11.552109963349219"><ele>246.00000000000003</ele><time>2026-04-06T16:10:35Z</time></trkpt><trkpt lat="43.25959900779389" lon="11.551968110156416"><ele>246.00000000000003</ele><time>2026-04-06T16:10:36Z</time></trkpt><trkpt lat="43.259623367251386" lon="11.551856708955276"><ele>246.0</ele><time>2026-04-06T16:10:37Z</time></trkpt><trkpt lat="43.25964561282211" lon="11.551757583063345"><ele>246.0</ele><time>2026-04-06T16:10:38Z</time></trkpt><trkpt lat="43.259676824428816" lon="11.55162120959091"><ele>246.0</ele><time>2026-04-06T16:10:40Z</time></trkpt><trkpt lat="43.259717222237576" lon="11.551536781387695"><ele>246.0</ele><time>2026-04-06T16:10:43Z</time></trkpt><trkpt lat="43.25973400192725" lon="11.551394049930703"><ele>246.0</ele><time>2026-04-06T16:17:30.999Z</time></trkpt><trkpt lat="43.259725717114655" lon="11.551287601935911"><ele>246.0</ele><time>2026-04-06T16:17:32.999Z</time></trkpt><trkpt lat="43.25978841397529" lon="11.551196485058448"><ele>246.0</ele><time>2026-04-06T16:17:34.999Z</time></trkpt><trkpt lat="43.25983471405725" lon="11.551083782371515"><ele>246.0</ele><time>2026-04-06T16:17:36.999Z</time></trkpt><trkpt lat="43.259899524266785" lon="11.550948586280587"><ele>246.33333333333334</ele><time>2026-04-06T16:17:38.999Z</time></trkpt><trkpt lat="43.25997135807729" lon="11.550811842789678"><ele>246.66666666666669</ele><time>2026-04-06T16:17:40.999Z</time></trkpt><trkpt lat="43.26001372473032" lon="11.550731162512982"><ele>247.0</ele><time>2026-04-06T16:17:41.999Z</time></trkpt><trkpt lat="43.260056026815015" lon="11.550653375354594"><ele>247.33333333333334</ele><time>2026-04-06T16:17:42.999Z</time></trkpt><trkpt lat="43.26009102713549" lon="11.550563519538146"><ele>247.66666666666669</ele><time>2026-04-06T16:17:43.999Z</time></trkpt><trkpt lat="43.26013687622132" lon="11.550485741335315"><ele>248.0</ele><time>2026-04-06T16:17:44.999Z</time></trkpt><trkpt lat="43.26018661993492" lon="11.55041216716399"><ele>246.83333333333334</ele><time>2026-04-06T16:17:45.999Z</time></trkpt><trkpt lat="43.26023660680809" lon="11.550332092277696"><ele>245.66666666666669</ele><time>2026-04-06T16:17:46.999Z</time></trkpt><trkpt lat="43.26029259068202" lon="11.550251895287516"><ele>244.5</ele><time>2026-04-06T16:17:47.999Z</time></trkpt><trkpt lat="43.26035201909736" lon="11.550177336870535"><ele>243.33333333333331</ele><time>2026-04-06T16:17:48.999Z</time></trkpt><trkpt lat="43.26042392885878" lon="11.550110109754907"><ele>242.16666666666666</ele><time>2026-04-06T16:17:49.999Z</time></trkpt><trkpt lat="43.26050545259859" lon="11.5500481561044"><ele>241.0</ele><time>2026-04-06T16:17:50.999Z</time></trkpt><trkpt lat="43.26059291047949" lon="11.549993464926121"><ele>239.4</ele><time>2026-04-06T16:17:51.999Z</time></trkpt><trkpt lat="43.260694854262674" lon="11.549977970383027"><ele>237.8</ele><time>2026-04-06T16:17:52.999Z</time></trkpt><trkpt lat="43.26080176292421" lon="11.549947995719325"><ele>236.20000000000002</ele><time>2026-04-06T16:17:53.999Z</time></trkpt><trkpt lat="43.26091765350667" lon="11.549945082304674"><ele>234.60000000000002</ele><time>2026-04-06T16:17:54.999Z</time></trkpt><trkpt lat="43.26102692913596" lon="11.549957953457987"><ele>233.0</ele><time>2026-04-06T16:17:55.999Z</time></trkpt><trkpt lat="43.261158753793424" lon="11.54998951149573"><ele>233.0</ele><time>2026-04-06T16:17:56.999Z</time></trkpt><trkpt lat="43.26128183807806" lon="11.549998782293567"><ele>233.0</ele><time>2026-04-06T16:17:57.999Z</time></trkpt><trkpt lat="43.26139399384934" lon="11.54996987696125"><ele>233.0</ele><time>2026-04-06T16:17:58.999Z</time></trkpt><trkpt lat="43.26150335647234" lon="11.549976652176754"><ele>233.0</ele><time>2026-04-06T16:17:59.999Z</time></trkpt><trkpt lat="43.261615900365996" lon="11.549946890437964"><ele>233.5</ele><time>2026-04-06T16:18:00.999Z</time></trkpt><trkpt lat="43.26172961720661" lon="11.54989959566926"><ele>234.0</ele><time>2026-04-06T16:18:01.999Z</time></trkpt><trkpt lat="43.261829427134955" lon="11.549840596408567"><ele>234.5</ele><time>2026-04-06T16:18:02.999Z</time></trkpt><trkpt lat="43.2619257708946" lon="11.549767962011446"><ele>235.0</ele><time>2026-04-06T16:18:03.999Z</time></trkpt><trkpt lat="43.262026841935764" lon="11.549676797326041"><ele>235.0</ele><time>2026-04-06T16:18:04.999Z</time></trkpt><trkpt lat="43.262122031142155" lon="11.549576019015522"><ele>235.0</ele><time>2026-04-06T16:18:05.999Z</time></trkpt><trkpt lat="43.26221390161528" lon="11.549468991229553"><ele>235.0</ele><time>2026-04-06T16:18:06.999Z</time></trkpt><trkpt lat="43.262302151496684" lon="11.549359886252562"><ele>235.0</ele><time>2026-04-06T16:18:07.999Z</time></trkpt><trkpt lat="43.2623861563433" lon="11.549253459170833"><ele>237.75</ele><time>2026-04-06T16:18:08.999Z</time></trkpt><trkpt lat="43.262466513503185" lon="11.549148204258255"><ele>240.5</ele><time>2026-04-06T16:18:09.999Z</time></trkpt><trkpt lat="43.262540819471326" lon="11.549032678083098"><ele>243.25</ele><time>2026-04-06T16:18:10.999Z</time></trkpt><trkpt lat="43.26261321792962" lon="11.548901984157112"><ele>246.0</ele><time>2026-04-06T16:18:11.999Z</time></trkpt><trkpt lat="43.262678926704446" lon="11.548772912387639"><ele>248.0</ele><time>2026-04-06T16:18:12.999Z</time></trkpt><trkpt lat="43.262744119225985" lon="11.54864175634642"><ele>250.0</ele><time>2026-04-06T16:18:13.999Z</time></trkpt><trkpt lat="43.2628108737808" lon="11.548513998525095"><ele>252.0</ele><time>2026-04-06T16:18:14.999Z</time></trkpt><trkpt lat="43.262885742342036" lon="11.548387769142103"><ele>254.0</ele><time>2026-04-06T16:18:15.999Z</time></trkpt><trkpt lat="43.262953961135686" lon="11.5482701208424"><ele>254.0</ele><time>2026-04-06T16:18:16.999Z</time></trkpt><trkpt lat="43.26301854765138" lon="11.5481434785207"><ele>254.0</ele><time>2026-04-06T16:18:17.999Z</time></trkpt><trkpt lat="43.26307007681906" lon="11.547990258203283"><ele>254.0</ele><time>2026-04-06T16:18:18.999Z</time></trkpt><trkpt lat="43.26312338419182" lon="11.547840827811473"><ele>254.0</ele><time>2026-04-06T16:18:19.999Z</time></trkpt><trkpt lat="43.263179790727634" lon="11.547699163574908"><ele>256.0</ele><time>2026-04-06T16:18:20.999Z</time></trkpt><trkpt lat="43.2632371061501" lon="11.547573294691778"><ele>258.0</ele><time>2026-04-06T16:18:21.999Z</time></trkpt><trkpt lat="43.263301578125535" lon="11.54746550132852"><ele>260.0</ele><time>2026-04-06T16:18:22.999Z</time></trkpt><trkpt lat="43.26336561372153" lon="11.547369375860793"><ele>262.0</ele><time>2026-04-06T16:18:23.999Z</time></trkpt><trkpt lat="43.26343229225834" lon="11.547285100515092"><ele>264.0</ele><time>2026-04-06T16:18:24.999Z</time></trkpt><trkpt lat="43.26349791860163" lon="11.547214087697585"><ele>264.0</ele><time>2026-04-06T16:18:25.999Z</time></trkpt><trkpt lat="43.26356336995872" lon="11.547124790379431"><ele>264.0</ele><time>2026-04-06T16:18:26.999Z</time></trkpt><trkpt lat="43.26365724814684" lon="11.54703788661934"><ele>264.0</ele><time>2026-04-06T16:18:27.999Z</time></trkpt><trkpt lat="43.26376607384646" lon="11.54696514023942"><ele>264.0</ele><time>2026-04-06T16:18:28.999Z</time></trkpt><trkpt lat="43.26386439262789" lon="11.546874248974554"><ele>264.0</ele><time>2026-04-06T16:18:29.999Z</time></trkpt><trkpt lat="43.26395875046458" lon="11.546787019410115"><ele>264.0</ele><time>2026-04-06T16:18:30.999Z</time></trkpt><trkpt lat="43.26404600004725" lon="11.54670210090293"><ele>264.0</ele><time>2026-04-06T16:18:31.999Z</time></trkpt><trkpt lat="43.26411645757116" lon="11.546601662771547"><ele>264.0</ele><time>2026-04-06T16:18:32.999Z</time></trkpt><trkpt lat="43.264190594996705" lon="11.546518609224643"><ele>264.0</ele><time>2026-04-06T16:18:33.999Z</time></trkpt><trkpt lat="43.264272470032644" lon="11.546445291786442"><ele>264.0</ele><time>2026-04-06T16:18:34.999Z</time></trkpt><trkpt lat="43.26433143115097" lon="11.546355330783987"><ele>264.0</ele><time>2026-04-06T16:18:35.999Z</time></trkpt><trkpt lat="43.264383682383084" lon="11.54625236412217"><ele>264.0</ele><time>2026-04-06T16:18:36.999Z</time></trkpt><trkpt lat="43.26443447719373" lon="11.546133220162307"><ele>264.0</ele><time>2026-04-06T16:18:37.999Z</time></trkpt><trkpt lat="43.26447857178548" lon="11.545998810605735"><ele>264.0</ele><time>2026-04-06T16:18:38.999Z</time></trkpt><trkpt lat="43.264496484293936" lon="11.545852583049346"><ele>264.0</ele><time>2026-04-06T16:18:39.999Z</time></trkpt><trkpt lat="43.26452419434711" lon="11.545707752446353"><ele>266.0</ele><time>2026-04-06T16:18:40.999Z</time></trkpt><trkpt lat="43.26456568615417" lon="11.545571955566095"><ele>268.0</ele><time>2026-04-06T16:18:41.999Z</time></trkpt><trkpt lat="43.264586325478156" lon="11.54545566131739"><ele>270.0</ele><time>2026-04-06T16:18:42.999Z</time></trkpt><trkpt lat="43.264603039572016" lon="11.545354477186855"><ele>272.0</ele><time>2026-04-06T16:18:43.999Z</time></trkpt><trkpt lat="43.264617011534014" lon="11.545269893452426"><ele>274.0</ele><time>2026-04-06T16:18:44.999Z</time></trkpt><trkpt lat="43.26463922079382" lon="11.545135442622685"><ele>276.0</ele><time>2026-04-06T16:18:46.999Z</time></trkpt><trkpt lat="43.26465257306696" lon="11.545050669169617"><ele>276.2</ele><time>2026-04-06T16:19:30.999Z</time></trkpt><trkpt lat="43.26466711521447" lon="11.544948051828738"><ele>276.40000000000003</ele><time>2026-04-06T16:19:34.999Z</time></trkpt><trkpt lat="43.264680761465584" lon="11.544846312491918"><ele>276.6</ele><time>2026-04-06T16:19:36.999Z</time></trkpt><trkpt lat="43.26470985970622" lon="11.544707773720315"><ele>276.8</ele><time>2026-04-06T16:19:38.999Z</time></trkpt><trkpt lat="43.26475497350007" lon="11.544577669364466"><ele>277.0</ele><time>2026-04-06T16:19:40.999Z</time></trkpt><trkpt lat="43.264820293259596" lon="11.544442578618852"><ele>273.0</ele><time>2026-04-06T16:19:42.999Z</time></trkpt><trkpt lat="43.2648827159753" lon="11.544287500466552"><ele>269.0</ele><time>2026-04-06T16:19:44.999Z</time></trkpt><trkpt lat="43.264926911050395" lon="11.544218741855385"><ele>265.0</ele><time>2026-04-06T16:19:45.999Z</time></trkpt><trkpt lat="43.26496910163148" lon="11.544148775214515"><ele>261.0</ele><time>2026-04-06T16:19:46.999Z</time></trkpt><trkpt lat="43.26500516279378" lon="11.544070806401107"><ele>257.0</ele><time>2026-04-06T16:19:47.999Z</time></trkpt><trkpt lat="43.26503664051596" lon="11.543987932704663"><ele>253.0</ele><time>2026-04-06T16:19:48.999Z</time></trkpt><trkpt lat="43.26506692663552" lon="11.543902045249242"><ele>253.00000000000003</ele><time>2026-04-06T16:19:49.999Z</time></trkpt><trkpt lat="43.2651019180865" lon="11.543812312553856"><ele>253.0</ele><time>2026-04-06T16:19:51Z</time></trkpt><trkpt lat="43.265146609418075" lon="11.54373204365426"><ele>253.00000000000003</ele><time>2026-04-06T16:19:52Z</time></trkpt><trkpt lat="43.265176035329176" lon="11.543642667316476"><ele>253.00000000000003</ele><time>2026-04-06T16:19:53Z</time></trkpt><trkpt lat="43.26520362864392" lon="11.543550469910521"><ele>253.0</ele><time>2026-04-06T16:19:54Z</time></trkpt><trkpt lat="43.265227374430154" lon="11.543461866636983"><ele>253.00000000000003</ele><time>2026-04-06T16:19:55Z</time></trkpt><trkpt lat="43.26522768654556" lon="11.543363519601384"><ele>253.00000000000003</ele><time>2026-04-06T16:19:56Z</time></trkpt><trkpt lat="43.26523657316403" lon="11.5432754974688"><ele>251.49999999999997</ele><time>2026-04-06T16:19:57Z</time></trkpt><trkpt lat="43.26523812329585" lon="11.543175924760515"><ele>250.0</ele><time>2026-04-06T16:19:58Z</time></trkpt><trkpt lat="43.26523004713259" lon="11.543068270777287"><ele>248.5</ele><time>2026-04-06T16:19:59Z</time></trkpt><trkpt lat="43.26521879282292" lon="11.542961570670807"><ele>247.0</ele><time>2026-04-06T16:20:00Z</time></trkpt><trkpt lat="43.2652040296648" lon="11.542840799857824"><ele>245.49999999999997</ele><time>2026-04-06T16:20:01Z</time></trkpt><trkpt lat="43.265211167037926" lon="11.542693280552005"><ele>244.0</ele><time>2026-04-06T16:20:02Z</time></trkpt><trkpt lat="43.26521784593468" lon="11.542538457966987"><ele>242.25</ele><time>2026-04-06T16:20:03Z</time></trkpt><trkpt lat="43.26525073702399" lon="11.542387749157735"><ele>240.5</ele><time>2026-04-06T16:20:04Z</time></trkpt><trkpt lat="43.265301317233366" lon="11.542250212783175"><ele>238.75</ele><time>2026-04-06T16:20:05Z</time></trkpt><trkpt lat="43.26535864026334" lon="11.542087866780681"><ele>237.0</ele><time>2026-04-06T16:20:06Z</time></trkpt><trkpt lat="43.26539768464972" lon="11.541900985235587"><ele>237.25</ele><time>2026-04-06T16:20:07Z</time></trkpt><trkpt lat="43.26546290329136" lon="11.541730010905564"><ele>237.5</ele><time>2026-04-06T16:20:08Z</time></trkpt><trkpt lat="43.265501214909605" lon="11.541550915923827"><ele>237.75</ele><time>2026-04-06T16:20:09Z</time></trkpt><trkpt lat="43.26552600859183" lon="11.541363113650576"><ele>238.0</ele><time>2026-04-06T16:20:10Z</time></trkpt><trkpt lat="43.265546392034146" lon="11.541177612175098"><ele>238.0</ele><time>2026-04-06T16:20:11Z</time></trkpt><trkpt lat="43.26556014430715" lon="11.540986961494102"><ele>238.0</ele><time>2026-04-06T16:20:12Z</time></trkpt><trkpt lat="43.26557123909612" lon="11.54081615805461"><ele>238.0</ele><time>2026-04-06T16:20:13Z</time></trkpt><trkpt lat="43.265590533126506" lon="11.540692893414562"><ele>238.0</ele><time>2026-04-06T16:20:14Z</time></trkpt><trkpt lat="43.26562025371327" lon="11.540601504503558"><ele>238.0</ele><time>2026-04-06T16:20:15Z</time></trkpt><trkpt lat="43.26565413603079" lon="11.540521949977169"><ele>238.83333333333331</ele><time>2026-04-06T16:20:16Z</time></trkpt><trkpt lat="43.265700954160096" lon="11.540449221072478"><ele>239.66666666666666</ele><time>2026-04-06T16:20:17Z</time></trkpt><trkpt lat="43.265744664421206" lon="11.540355439767495"><ele>240.5</ele><time>2026-04-06T16:20:18Z</time></trkpt><trkpt lat="43.26580891175348" lon="11.540263591406653"><ele>241.33333333333331</ele><time>2026-04-06T16:20:19Z</time></trkpt><trkpt lat="43.26587245032602" lon="11.54017187538862"><ele>242.16666666666666</ele><time>2026-04-06T16:20:20Z</time></trkpt><trkpt lat="43.265934174145805" lon="11.540081834874256"><ele>243.0</ele><time>2026-04-06T16:20:21Z</time></trkpt><trkpt lat="43.26601531114133" lon="11.53999437054369"><ele>243.8</ele><time>2026-04-06T16:20:22Z</time></trkpt><trkpt lat="43.26608484654822" lon="11.539890825175556"><ele>244.60000000000002</ele><time>2026-04-06T16:20:23Z</time></trkpt><trkpt lat="43.26615566150309" lon="11.539784483472236"><ele>245.39999999999998</ele><time>2026-04-06T16:20:24Z</time></trkpt><trkpt lat="43.26621864680308" lon="11.539686818277904"><ele>246.2</ele><time>2026-04-06T16:20:25Z</time></trkpt><trkpt lat="43.26626720644552" lon="11.539573059848012"><ele>247.0</ele><time>2026-04-06T16:20:26Z</time></trkpt><trkpt lat="43.2663220568155" lon="11.53947085516751"><ele>248.0</ele><time>2026-04-06T16:20:27Z</time></trkpt><trkpt lat="43.266381934315696" lon="11.539345410033276"><ele>249.0</ele><time>2026-04-06T16:20:28Z</time></trkpt><trkpt lat="43.26645617055017" lon="11.539249791528958"><ele>250.0</ele><time>2026-04-06T16:20:29Z</time></trkpt><trkpt lat="43.26651519306751" lon="11.539156646559354"><ele>251.0</ele><time>2026-04-06T16:20:30Z</time></trkpt><trkpt lat="43.26657858875171" lon="11.539089542958965"><ele>252.0</ele><time>2026-04-06T16:20:31Z</time></trkpt><trkpt lat="43.2666463156722" lon="11.539047112730529"><ele>249.2</ele><time>2026-04-06T16:20:32Z</time></trkpt><trkpt lat="43.26672889584585" lon="11.539008544196252"><ele>246.39999999999998</ele><time>2026-04-06T16:20:33Z</time></trkpt><trkpt lat="43.26682263171212" lon="11.538936598520595"><ele>243.60000000000002</ele><time>2026-04-06T16:20:34Z</time></trkpt><trkpt lat="43.26692296888029" lon="11.538881102441527"><ele>240.8</ele><time>2026-04-06T16:20:35Z</time></trkpt><trkpt lat="43.2670287697708" lon="11.538822735364278"><ele>238.0</ele><time>2026-04-06T16:20:36Z</time></trkpt><trkpt lat="43.26713301722744" lon="11.538774096067433"><ele>237.0</ele><time>2026-04-06T16:20:37Z</time></trkpt><trkpt lat="43.26721722831276" lon="11.53869552898562"><ele>236.0</ele><time>2026-04-06T16:20:38Z</time></trkpt><trkpt lat="43.26731136127975" lon="11.538657500845796"><ele>235.0</ele><time>2026-04-06T16:20:39Z</time></trkpt><trkpt lat="43.26739394922553" lon="11.53860165447304"><ele>234.0</ele><time>2026-04-06T16:20:40Z</time></trkpt><trkpt lat="43.26748125343915" lon="11.538541470663134"><ele>233.0</ele><time>2026-04-06T16:20:41Z</time></trkpt><trkpt lat="43.26755869348703" lon="11.538463073098919"><ele>233.0</ele><time>2026-04-06T16:20:42Z</time></trkpt><trkpt lat="43.26764348538196" lon="11.538413280174712"><ele>233.0</ele><time>2026-04-06T16:20:43Z</time></trkpt><trkpt lat="43.2677135532118" lon="11.538359505618951"><ele>233.0</ele><time>2026-04-06T16:20:44Z</time></trkpt><trkpt lat="43.267795593665454" lon="11.53832374568014"><ele>233.0</ele><time>2026-04-06T16:20:45Z</time></trkpt><trkpt lat="43.267877718503726" lon="11.538265173495258"><ele>233.0</ele><time>2026-04-06T16:20:46Z</time></trkpt><trkpt lat="43.26796622825271" lon="11.538202047525848"><ele>233.0</ele><time>2026-04-06T16:20:47Z</time></trkpt><trkpt lat="43.26805210607308" lon="11.538139824614632"><ele>233.0</ele><time>2026-04-06T16:20:48Z</time></trkpt><trkpt lat="43.268135549094964" lon="11.538078244388613"><ele>233.0</ele><time>2026-04-06T16:20:49Z</time></trkpt><trkpt lat="43.26821994646608" lon="11.538015959877777"><ele>233.0</ele><time>2026-04-06T16:20:50Z</time></trkpt><trkpt lat="43.26830466647023" lon="11.53795343726292"><ele>233.0</ele><time>2026-04-06T16:20:51Z</time></trkpt><trkpt lat="43.26838826831765" lon="11.537891739833325"><ele>230.33333333333334</ele><time>2026-04-06T16:20:52Z</time></trkpt><trkpt lat="43.26846095306894" lon="11.53782629311671"><ele>227.66666666666669</ele><time>2026-04-06T16:20:53Z</time></trkpt><trkpt lat="43.26853448176352" lon="11.537765131762365"><ele>225.0</ele><time>2026-04-06T16:20:54Z</time></trkpt><trkpt lat="43.268614301940936" lon="11.537717712030107"><ele>222.33333333333331</ele><time>2026-04-06T16:20:55Z</time></trkpt><trkpt lat="43.26869540315236" lon="11.537694082122362"><ele>219.66666666666666</ele><time>2026-04-06T16:20:56Z</time></trkpt><trkpt lat="43.26877738794715" lon="11.537692027876526"><ele>217.0</ele><time>2026-04-06T16:20:57Z</time></trkpt><trkpt lat="43.26886494593774" lon="11.537715722757058"><ele>214.2</ele><time>2026-04-06T16:20:58Z</time></trkpt><trkpt lat="43.26895378737463" lon="11.537747852184262"><ele>211.39999999999998</ele><time>2026-04-06T16:20:59Z</time></trkpt><trkpt lat="43.26904744658702" lon="11.537782700526629"><ele>208.60000000000002</ele><time>2026-04-06T16:21:00Z</time></trkpt><trkpt lat="43.26913389278591" lon="11.53780922717223"><ele>205.8</ele><time>2026-04-06T16:21:01Z</time></trkpt><trkpt lat="43.269224840558834" lon="11.537823919999008"><ele>203.0</ele><time>2026-04-06T16:21:02Z</time></trkpt><trkpt lat="43.269320018459915" lon="11.537825816749312"><ele>203.0</ele><time>2026-04-06T16:21:03Z</time></trkpt><trkpt lat="43.26941065779718" lon="11.53781431352646"><ele>203.0</ele><time>2026-04-06T16:21:04Z</time></trkpt><trkpt lat="43.26949862357542" lon="11.537786268400353"><ele>203.0</ele><time>2026-04-06T16:21:05Z</time></trkpt><trkpt lat="43.26959680090819" lon="11.537768902494225"><ele>203.0</ele><time>2026-04-06T16:21:06Z</time></trkpt><trkpt lat="43.26970056760225" lon="11.537721118659446"><ele>203.0</ele><time>2026-04-06T16:21:07Z</time></trkpt><trkpt lat="43.26979330362289" lon="11.537641512449914"><ele>200.4</ele><time>2026-04-06T16:21:08Z</time></trkpt><trkpt lat="43.26989646509169" lon="11.537594360646658"><ele>197.8</ele><time>2026-04-06T16:21:09Z</time></trkpt><trkpt lat="43.269993178556334" lon="11.537559483024062"><ele>195.2</ele><time>2026-04-06T16:21:10Z</time></trkpt><trkpt lat="43.27009054427321" lon="11.537551708058558"><ele>192.6</ele><time>2026-04-06T16:21:11Z</time></trkpt><trkpt lat="43.27019071264498" lon="11.537568402780193"><ele>190.0</ele><time>2026-04-06T16:21:12Z</time></trkpt><trkpt lat="43.27029331290067" lon="11.53765431815902"><ele>190.0</ele><time>2026-04-06T16:21:13Z</time></trkpt><trkpt lat="43.270402152268304" lon="11.537690518612838"><ele>190.0</ele><time>2026-04-06T16:21:14Z</time></trkpt><trkpt lat="43.270504574706855" lon="11.537695828931804"><ele>190.0</ele><time>2026-04-06T16:21:15Z</time></trkpt><trkpt lat="43.27059604954615" lon="11.53771691800079"><ele>190.0</ele><time>2026-04-06T16:21:16Z</time></trkpt><trkpt lat="43.27068291431712" lon="11.537746548335342"><ele>190.0</ele><time>2026-04-06T16:21:17Z</time></trkpt><trkpt lat="43.27077194824388" lon="11.53779611523836"><ele>189.0</ele><time>2026-04-06T16:21:18Z</time></trkpt><trkpt lat="43.27086743368941" lon="11.537863265882725"><ele>188.0</ele><time>2026-04-06T16:21:19Z</time></trkpt><trkpt lat="43.27096674513452" lon="11.537943870240076"><ele>187.0</ele><time>2026-04-06T16:21:20Z</time></trkpt><trkpt lat="43.271049433130166" lon="11.538028195916567"><ele>186.0</ele><time>2026-04-06T16:21:21Z</time></trkpt><trkpt lat="43.271115573374885" lon="11.538122208932675"><ele>185.0</ele><time>2026-04-06T16:21:22Z</time></trkpt><trkpt lat="43.27118252795734" lon="11.538243930694"><ele>184.5</ele><time>2026-04-06T16:21:23Z</time></trkpt><trkpt lat="43.27125494300753" lon="11.538393705262916"><ele>184.0</ele><time>2026-04-06T16:21:24Z</time></trkpt><trkpt lat="43.27133012223778" lon="11.538566745711698"><ele>183.5</ele><time>2026-04-06T16:21:25Z</time></trkpt><trkpt lat="43.27140722650936" lon="11.538749268254996"><ele>183.0</ele><time>2026-04-06T16:21:26Z</time></trkpt><trkpt lat="43.27148650249785" lon="11.538935622140563"><ele>184.0</ele><time>2026-04-06T16:21:27Z</time></trkpt><trkpt lat="43.27156477564881" lon="11.539118234026484"><ele>185.0</ele><time>2026-04-06T16:21:28Z</time></trkpt><trkpt lat="43.27163959614137" lon="11.539296793274957"><ele>186.0</ele><time>2026-04-06T16:21:29Z</time></trkpt><trkpt lat="43.27170701812756" lon="11.539468261711086"><ele>187.0</ele><time>2026-04-06T16:21:30Z</time></trkpt><trkpt lat="43.271772444860034" lon="11.539631892424818"><ele>187.5</ele><time>2026-04-06T16:21:31Z</time></trkpt><trkpt lat="43.27183315874102" lon="11.539785847944886"><ele>188.0</ele><time>2026-04-06T16:21:32Z</time></trkpt><trkpt lat="43.27189863737449" lon="11.539949539726353"><ele>188.5</ele><time>2026-04-06T16:21:33Z</time></trkpt><trkpt lat="43.27196733409555" lon="11.540122003333334"><ele>189.0</ele><time>2026-04-06T16:21:34Z</time></trkpt><trkpt lat="43.272040192356734" lon="11.540305042139423"><ele>189.5</ele><time>2026-04-06T16:21:35Z</time></trkpt><trkpt lat="43.27210695953988" lon="11.540471406464434"><ele>190.0</ele><time>2026-04-06T16:21:36Z</time></trkpt><trkpt lat="43.27217415390282" lon="11.540637004806415"><ele>190.5</ele><time>2026-04-06T16:21:37Z</time></trkpt><trkpt lat="43.27224061499227" lon="11.540803509987253"><ele>191.0</ele><time>2026-04-06T16:21:38Z</time></trkpt><trkpt lat="43.272305324001955" lon="11.540976744022563"><ele>192.25</ele><time>2026-04-06T16:21:39Z</time></trkpt><trkpt lat="43.272363236836995" lon="11.54114906670927"><ele>193.5</ele><time>2026-04-06T16:21:40Z</time></trkpt><trkpt lat="43.272406051583495" lon="11.54131594841943"><ele>194.75</ele><time>2026-04-06T16:21:41Z</time></trkpt><trkpt lat="43.272440698524235" lon="11.541482230374653"><ele>196.0</ele><time>2026-04-06T16:21:42Z</time></trkpt><trkpt lat="43.2724618509002" lon="11.541635419622041"><ele>197.75</ele><time>2026-04-06T16:21:43Z</time></trkpt><trkpt lat="43.27248079983469" lon="11.54179444030376"><ele>199.5</ele><time>2026-04-06T16:21:44Z</time></trkpt><trkpt lat="43.27249463801621" lon="11.541961485349553"><ele>201.25</ele><time>2026-04-06T16:21:45Z</time></trkpt><trkpt lat="43.27250850387314" lon="11.54213278228832"><ele>203.0</ele><time>2026-04-06T16:21:46Z</time></trkpt><trkpt lat="43.2725244682079" lon="11.542289198501628"><ele>204.33333333333334</ele><time>2026-04-06T16:21:47Z</time></trkpt><trkpt lat="43.27254481120744" lon="11.542433251173414"><ele>205.66666666666669</ele><time>2026-04-06T16:21:48Z</time></trkpt><trkpt lat="43.27256434621304" lon="11.54255810221307"><ele>207.0</ele><time>2026-04-06T16:21:49Z</time></trkpt><trkpt lat="43.27258665706086" lon="11.542656765337684"><ele>208.33333333333331</ele><time>2026-04-06T16:21:50Z</time></trkpt><trkpt lat="43.272612017270156" lon="11.54275886746417"><ele>209.66666666666666</ele><time>2026-04-06T16:21:50.999Z</time></trkpt><trkpt lat="43.27264481737591" lon="11.542847671505944"><ele>211.0</ele><time>2026-04-06T16:21:51.999Z</time></trkpt><trkpt lat="43.272747934815655" lon="11.542942755350689"><ele>212.49999999999997</ele><time>2026-04-06T16:21:53.999Z</time></trkpt><trkpt lat="43.27282996299062" lon="11.54294670378965"><ele>214.0</ele><time>2026-04-06T16:21:54.999Z</time></trkpt><trkpt lat="43.2729247332397" lon="11.542927623393938"><ele>215.5</ele><time>2026-04-06T16:21:55.999Z</time></trkpt><trkpt lat="43.27302445232517" lon="11.542891072164785"><ele>217.0</ele><time>2026-04-06T16:21:57.001Z</time></trkpt><trkpt lat="43.27310682569791" lon="11.542913420428219"><ele>218.49999999999997</ele><time>2026-04-06T16:21:58.001Z</time></trkpt><trkpt lat="43.27317334314585" lon="11.542941965777786"><ele>220.0</ele><time>2026-04-06T16:21:59.001Z</time></trkpt><trkpt lat="43.27324914630931" lon="11.542990114543384"><ele>222.4</ele><time>2026-04-06T16:22:00.001Z</time></trkpt><trkpt lat="43.273344558220224" lon="11.54306933426962"><ele>224.8</ele><time>2026-04-06T16:22:01.001Z</time></trkpt><trkpt lat="43.273441812321" lon="11.543139724624314"><ele>227.2</ele><time>2026-04-06T16:22:02.001Z</time></trkpt><trkpt lat="43.27351683584825" lon="11.543214112385163"><ele>229.6</ele><time>2026-04-06T16:22:03.001Z</time></trkpt><trkpt lat="43.27355965284463" lon="11.543299868018044"><ele>232.0</ele><time>2026-04-06T16:22:04.001Z</time></trkpt><trkpt lat="43.27360872312849" lon="11.543356368919211"><ele>231.99999999999997</ele><time>2026-04-06T16:22:05.001Z</time></trkpt><trkpt lat="43.273629087796884" lon="11.543453830446133"><ele>232.0</ele><time>2026-04-06T16:22:06.001Z</time></trkpt><trkpt lat="43.273633290867295" lon="11.543564588731577"><ele>232.0</ele><time>2026-04-06T16:22:07.001Z</time></trkpt><trkpt lat="43.273616331059415" lon="11.543666152430259"><ele>232.0</ele><time>2026-04-06T16:22:08.001Z</time></trkpt><trkpt lat="43.27358620167614" lon="11.54376148492367"><ele>231.99999999999997</ele><time>2026-04-06T16:22:09.001Z</time></trkpt><trkpt lat="43.2735311685634" lon="11.543864031625093"><ele>232.0</ele><time>2026-04-06T16:22:10.001Z</time></trkpt><trkpt lat="43.27345917526858" lon="11.54397031558301"><ele>233.6</ele><time>2026-04-06T16:22:11.001Z</time></trkpt><trkpt lat="43.2733728559006" lon="11.544087774916145"><ele>235.2</ele><time>2026-04-06T16:22:12.001Z</time></trkpt><trkpt lat="43.27329722045179" lon="11.544199838488895"><ele>236.8</ele><time>2026-04-06T16:22:13Z</time></trkpt><trkpt lat="43.273247593369604" lon="11.544287924668435"><ele>238.4</ele><time>2026-04-06T16:22:14Z</time></trkpt><trkpt lat="43.27320657609812" lon="11.544383129942782"><ele>240.0</ele><time>2026-04-06T16:22:15Z</time></trkpt><trkpt lat="43.27318297268003" lon="11.544486276444287"><ele>241.0</ele><time>2026-04-06T16:22:16Z</time></trkpt><trkpt lat="43.273171617156706" lon="11.544605678223274"><ele>242.0</ele><time>2026-04-06T16:22:17Z</time></trkpt><trkpt lat="43.273170444967086" lon="11.544746768603012"><ele>243.0</ele><time>2026-04-06T16:22:18Z</time></trkpt><trkpt lat="43.27316807890913" lon="11.544896134349825"><ele>244.0</ele><time>2026-04-06T16:22:19Z</time></trkpt><trkpt lat="43.273161320777156" lon="11.545055434917762"><ele>245.0</ele><time>2026-04-06T16:22:20Z</time></trkpt><trkpt lat="43.27315264719946" lon="11.54522087634042"><ele>246.75</ele><time>2026-04-06T16:22:21Z</time></trkpt><trkpt lat="43.27314365219587" lon="11.545382665852516"><ele>248.5</ele><time>2026-04-06T16:22:22Z</time></trkpt><trkpt lat="43.27313181208098" lon="11.545538315502581"><ele>250.25</ele><time>2026-04-06T16:22:23Z</time></trkpt><trkpt lat="43.273141099361574" lon="11.545690268688785"><ele>252.0</ele><time>2026-04-06T16:22:24Z</time></trkpt><trkpt lat="43.273161441414175" lon="11.545854671888527"><ele>252.0</ele><time>2026-04-06T16:22:25Z</time></trkpt><trkpt lat="43.27318896755402" lon="11.546028294272503"><ele>252.0</ele><time>2026-04-06T16:22:26Z</time></trkpt><trkpt lat="43.2732277718571" lon="11.546194794604592"><ele>252.0</ele><time>2026-04-06T16:22:27Z</time></trkpt><trkpt lat="43.27327045200857" lon="11.546339967362353"><ele>252.0</ele><time>2026-04-06T16:22:28Z</time></trkpt><trkpt lat="43.27331733522963" lon="11.546485894674982"><ele>253.8</ele><time>2026-04-06T16:22:29Z</time></trkpt><trkpt lat="43.273369792510664" lon="11.546627872773302"><ele>255.6</ele><time>2026-04-06T16:22:30Z</time></trkpt><trkpt lat="43.27342310500478" lon="11.54674854641134"><ele>257.40000000000003</ele><time>2026-04-06T16:22:31Z</time></trkpt><trkpt lat="43.27347934918352" lon="11.546853635658277"><ele>259.2</ele><time>2026-04-06T16:22:32Z</time></trkpt><trkpt lat="43.2735489938138" lon="11.546946614278228"><ele>261.0</ele><time>2026-04-06T16:22:33Z</time></trkpt><trkpt lat="43.27363677803161" lon="11.547020450692175"><ele>262.75</ele><time>2026-04-06T16:22:34Z</time></trkpt><trkpt lat="43.27374147675985" lon="11.547080256256141"><ele>264.5</ele><time>2026-04-06T16:22:35Z</time></trkpt><trkpt lat="43.27384377040122" lon="11.547112718805623"><ele>266.25</ele><time>2026-04-06T16:22:36Z</time></trkpt><trkpt lat="43.27395793247782" lon="11.547114938932294"><ele>268.0</ele><time>2026-04-06T16:22:37Z</time></trkpt><trkpt lat="43.27407636564169" lon="11.547128843744057"><ele>270.2</ele><time>2026-04-06T16:22:38Z</time></trkpt><trkpt lat="43.27421038859814" lon="11.547131872520906"><ele>272.4</ele><time>2026-04-06T16:22:39Z</time></trkpt><trkpt lat="43.274320402381115" lon="11.547106490860951"><ele>274.59999999999997</ele><time>2026-04-06T16:22:40Z</time></trkpt><trkpt lat="43.27442205920202" lon="11.547069469896515"><ele>276.8</ele><time>2026-04-06T16:22:41Z</time></trkpt><trkpt lat="43.27450915058186" lon="11.547061782758146"><ele>279.0</ele><time>2026-04-06T16:22:42Z</time></trkpt><trkpt lat="43.27458821612391" lon="11.547098317265448"><ele>279.0</ele><time>2026-04-06T16:22:43Z</time></trkpt><trkpt lat="43.274672951242785" lon="11.547139065311047"><ele>279.0</ele><time>2026-04-06T16:22:44Z</time></trkpt><trkpt lat="43.274761183718546" lon="11.547207527457386"><ele>279.0</ele><time>2026-04-06T16:22:45Z</time></trkpt><trkpt lat="43.27487795889118" lon="11.547278484401762"><ele>279.0</ele><time>2026-04-06T16:22:46Z</time></trkpt><trkpt lat="43.27499580263616" lon="11.547383313273277"><ele>280.75</ele><time>2026-04-06T16:22:47Z</time></trkpt><trkpt lat="43.27511106734344" lon="11.547477803387466"><ele>282.5</ele><time>2026-04-06T16:22:48Z</time></trkpt><trkpt lat="43.275221607162294" lon="11.547574499341147"><ele>284.25</ele><time>2026-04-06T16:22:49Z</time></trkpt><trkpt lat="43.27533353227131" lon="11.54766991219922"><ele>286.0</ele><time>2026-04-06T16:22:50Z</time></trkpt><trkpt lat="43.27542709652278" lon="11.547752657751888"><ele>286.0</ele><time>2026-04-06T16:22:51Z</time></trkpt><trkpt lat="43.27552121976138" lon="11.547835526455978"><ele>286.0</ele><time>2026-04-06T16:22:52Z</time></trkpt><trkpt lat="43.27561816552789" lon="11.547911811115053"><ele>286.0</ele><time>2026-04-06T16:22:53Z</time></trkpt><trkpt lat="43.275721690250144" lon="11.547979373225093"><ele>286.0</ele><time>2026-04-06T16:22:54Z</time></trkpt><trkpt lat="43.27583679027627" lon="11.548033601985864"><ele>289.75</ele><time>2026-04-06T16:22:55Z</time></trkpt><trkpt lat="43.27596024062809" lon="11.548083744223854"><ele>293.5</ele><time>2026-04-06T16:22:56Z</time></trkpt><trkpt lat="43.27607760204333" lon="11.548131808256537"><ele>297.25</ele><time>2026-04-06T16:22:57Z</time></trkpt><trkpt lat="43.27618466636123" lon="11.548168618043334"><ele>301.0</ele><time>2026-04-06T16:22:58Z</time></trkpt><trkpt lat="43.27628182429677" lon="11.548200171475173"><ele>301.0</ele><time>2026-04-06T16:22:59Z</time></trkpt><trkpt lat="43.27636586977472" lon="11.548231308436714"><ele>301.0</ele><time>2026-04-06T16:23:00Z</time></trkpt><trkpt lat="43.27645434056195" lon="11.548268439891462"><ele>301.0</ele><time>2026-04-06T16:23:01Z</time></trkpt><trkpt lat="43.276557940650584" lon="11.548320758439953"><ele>301.0</ele><time>2026-04-06T16:23:02Z</time></trkpt><trkpt lat="43.27665917954215" lon="11.548383315212401"><ele>301.0</ele><time>2026-04-06T16:23:03Z</time></trkpt><trkpt lat="43.27675897160411" lon="11.548462780258381"><ele>301.5</ele><time>2026-04-06T16:23:04Z</time></trkpt><trkpt lat="43.2768566171898" lon="11.5485592449386"><ele>302.0</ele><time>2026-04-06T16:23:05Z</time></trkpt><trkpt lat="43.27695581922496" lon="11.548659127402583"><ele>302.5</ele><time>2026-04-06T16:23:06Z</time></trkpt><trkpt lat="43.27704602117882" lon="11.548752490406995"><ele>303.0</ele><time>2026-04-06T16:23:07Z</time></trkpt><trkpt lat="43.277134039595545" lon="11.548837526426441"><ele>303.0</ele><time>2026-04-06T16:23:08Z</time></trkpt><trkpt lat="43.27722022437962" lon="11.548913825709917"><ele>303.0</ele><time>2026-04-06T16:23:09Z</time></trkpt><trkpt lat="43.27730504880319" lon="11.548984733323586"><ele>303.0</ele><time>2026-04-06T16:23:10Z</time></trkpt><trkpt lat="43.277385867101586" lon="11.54904965361003"><ele>303.0</ele><time>2026-04-06T16:23:11Z</time></trkpt><trkpt lat="43.27746174474847" lon="11.54911329408526"><ele>303.0</ele><time>2026-04-06T16:23:12Z</time></trkpt><trkpt lat="43.27753529707719" lon="11.549178291639825"><ele>300.6666666666667</ele><time>2026-04-06T16:23:13Z</time></trkpt><trkpt lat="43.27760720598887" lon="11.54924211142039"><ele>298.3333333333333</ele><time>2026-04-06T16:23:14Z</time></trkpt><trkpt lat="43.277676954490765" lon="11.549299237093404"><ele>296.0</ele><time>2026-04-06T16:23:15Z</time></trkpt><trkpt lat="43.277748964364406" lon="11.549353678059555"><ele>293.66666666666663</ele><time>2026-04-06T16:23:16Z</time></trkpt><trkpt lat="43.277832352965326" lon="11.549415486402015"><ele>291.3333333333333</ele><time>2026-04-06T16:23:17Z</time></trkpt><trkpt lat="43.27793403467872" lon="11.549419212603869"><ele>289.0</ele><time>2026-04-06T16:23:18Z</time></trkpt><trkpt lat="43.27803017303571" lon="11.549434356426016"><ele>285.25</ele><time>2026-04-06T16:23:19Z</time></trkpt><trkpt lat="43.278135743400256" lon="11.549431361027354"><ele>281.5</ele><time>2026-04-06T16:23:20Z</time></trkpt><trkpt lat="43.27825653201548" lon="11.549428747981876"><ele>277.75</ele><time>2026-04-06T16:23:21Z</time></trkpt><trkpt lat="43.278369576373265" lon="11.549430283764902"><ele>274.0</ele><time>2026-04-06T16:23:22Z</time></trkpt><trkpt lat="43.27848083069574" lon="11.549431936436097"><ele>274.0</ele><time>2026-04-06T16:23:23Z</time></trkpt><trkpt lat="43.27858419648074" lon="11.54943655368947"><ele>274.0</ele><time>2026-04-06T16:23:24Z</time></trkpt><trkpt lat="43.27868241276431" lon="11.549441139513972"><ele>274.0</ele><time>2026-04-06T16:23:25Z</time></trkpt><trkpt lat="43.278776638437584" lon="11.549453196365375"><ele>274.0</ele><time>2026-04-06T16:23:26Z</time></trkpt><trkpt lat="43.278866064419645" lon="11.5494819882904"><ele>274.0</ele><time>2026-04-06T16:23:27Z</time></trkpt><trkpt lat="43.278952795277824" lon="11.549528252961363"><ele>273.59999999999997</ele><time>2026-04-06T16:23:28Z</time></trkpt><trkpt lat="43.2790476804305" lon="11.549591605011592"><ele>273.2</ele><time>2026-04-06T16:23:29Z</time></trkpt><trkpt lat="43.279155256440575" lon="11.549667010043482"><ele>272.79999999999995</ele><time>2026-04-06T16:23:30Z</time></trkpt><trkpt lat="43.27924870287393" lon="11.549738945462575"><ele>272.4</ele><time>2026-04-06T16:23:31Z</time></trkpt><trkpt lat="43.27933935409345" lon="11.54980908342761"><ele>272.0</ele><time>2026-04-06T16:23:32Z</time></trkpt><trkpt lat="43.27944106169181" lon="11.549857825764738"><ele>272.0</ele><time>2026-04-06T16:23:33Z</time></trkpt><trkpt lat="43.27954291583977" lon="11.549923084347787"><ele>272.0</ele><time>2026-04-06T16:23:34Z</time></trkpt><trkpt lat="43.27964525671045" lon="11.549943818232187"><ele>272.0</ele><time>2026-04-06T16:23:35Z</time></trkpt><trkpt lat="43.27974761484838" lon="11.549949487031073"><ele>272.0</ele><time>2026-04-06T16:23:36Z</time></trkpt><trkpt lat="43.279856155415416" lon="11.549943631926357"><ele>272.0</ele><time>2026-04-06T16:23:37Z</time></trkpt><trkpt lat="43.27996884554844" lon="11.549927105812985"><ele>271.25</ele><time>2026-04-06T16:23:38Z</time></trkpt><trkpt lat="43.28009008032647" lon="11.549884333025751"><ele>270.5</ele><time>2026-04-06T16:23:39Z</time></trkpt><trkpt lat="43.28020840685318" lon="11.549818906780496"><ele>269.75</ele><time>2026-04-06T16:23:40Z</time></trkpt><trkpt lat="43.280331705063695" lon="11.5497447490646"><ele>269.0</ele><time>2026-04-06T16:23:41Z</time></trkpt><trkpt lat="43.28045017619114" lon="11.549662872970575"><ele>269.0</ele><time>2026-04-06T16:23:42Z</time></trkpt><trkpt lat="43.28054508007286" lon="11.549590253802748"><ele>269.0</ele><time>2026-04-06T16:23:43Z</time></trkpt><trkpt lat="43.28063098638718" lon="11.549516375313623"><ele>269.0</ele><time>2026-04-06T16:23:44Z</time></trkpt><trkpt lat="43.28071515487974" lon="11.549409506248619"><ele>269.0</ele><time>2026-04-06T16:23:45Z</time></trkpt><trkpt lat="43.28077560310116" lon="11.549271537897221"><ele>269.0</ele><time>2026-04-06T16:23:46Z</time></trkpt><trkpt lat="43.28086490994652" lon="11.54914456542502"><ele>271.75</ele><time>2026-04-06T16:23:47Z</time></trkpt><trkpt lat="43.28093829226944" lon="11.549017934940181"><ele>274.5</ele><time>2026-04-06T16:23:48Z</time></trkpt><trkpt lat="43.28101608839826" lon="11.548905880426894"><ele>277.25</ele><time>2026-04-06T16:23:49Z</time></trkpt><trkpt lat="43.281080591976604" lon="11.548769438870163"><ele>280.0</ele><time>2026-04-06T16:23:50Z</time></trkpt><trkpt lat="43.28116491365655" lon="11.548678441566206"><ele>280.0</ele><time>2026-04-06T16:23:51Z</time></trkpt><trkpt lat="43.28125612619937" lon="11.548580429597212"><ele>280.0</ele><time>2026-04-06T16:23:52Z</time></trkpt><trkpt lat="43.281354831463595" lon="11.548486705500537"><ele>280.0</ele><time>2026-04-06T16:23:53Z</time></trkpt><trkpt lat="43.28145596055446" lon="11.548421052794314"><ele>280.0</ele><time>2026-04-06T16:23:54Z</time></trkpt><trkpt lat="43.28153764460307" lon="11.548330845722141"><ele>283.5</ele><time>2026-04-06T16:23:55Z</time></trkpt><trkpt lat="43.28161169339577" lon="11.548259003364775"><ele>287.0</ele><time>2026-04-06T16:23:56Z</time></trkpt><trkpt lat="43.281678312922864" lon="11.54820231695932"><ele>290.5</ele><time>2026-04-06T16:23:57Z</time></trkpt><trkpt lat="43.28174851217897" lon="11.548159630423054"><ele>294.0</ele><time>2026-04-06T16:23:58Z</time></trkpt><trkpt lat="43.281828059086614" lon="11.548139951625204"><ele>297.5</ele><time>2026-04-06T16:23:59Z</time></trkpt><trkpt lat="43.28190945887503" lon="11.54814249114301"><ele>301.0</ele><time>2026-04-06T16:24:00Z</time></trkpt><trkpt lat="43.28201656329202" lon="11.548135536364247"><ele>301.0</ele><time>2026-04-06T16:24:02Z</time></trkpt><trkpt lat="43.28208245337634" lon="11.54814673922042"><ele>301.0</ele><time>2026-04-06T16:24:24.001Z</time></trkpt><trkpt lat="43.28214563914267" lon="11.548148986574526"><ele>301.0</ele><time>2026-04-06T16:24:30.001Z</time></trkpt><trkpt lat="43.28221905224859" lon="11.548155542383979"><ele>301.0</ele><time>2026-04-06T16:24:32.001Z</time></trkpt><trkpt lat="43.28229833153626" lon="11.548157978438075"><ele>301.0</ele><time>2026-04-06T16:24:34Z</time></trkpt><trkpt lat="43.28240582202892" lon="11.548159343955104"><ele>301.0</ele><time>2026-04-06T16:24:36Z</time></trkpt><trkpt lat="43.28246985785557" lon="11.54816094744269"><ele>302.16666666666663</ele><time>2026-04-06T16:24:37Z</time></trkpt><trkpt lat="43.28253823231684" lon="11.548149537410278"><ele>303.3333333333333</ele><time>2026-04-06T16:24:38Z</time></trkpt><trkpt lat="43.28261428069403" lon="11.548162251131329"><ele>304.5</ele><time>2026-04-06T16:24:39Z</time></trkpt><trkpt lat="43.282698083859735" lon="11.548209570630036"><ele>305.6666666666667</ele><time>2026-04-06T16:24:40Z</time></trkpt><trkpt lat="43.282785250338506" lon="11.548249562462264"><ele>306.83333333333337</ele><time>2026-04-06T16:24:41Z</time></trkpt><trkpt lat="43.282875731486236" lon="11.548298400886477"><ele>308.0</ele><time>2026-04-06T16:24:42Z</time></trkpt><trkpt lat="43.282969651628086" lon="11.548333162948003"><ele>308.0</ele><time>2026-04-06T16:24:43Z</time></trkpt><trkpt lat="43.28306258954164" lon="11.54841203507259"><ele>308.0</ele><time>2026-04-06T16:24:44Z</time></trkpt><trkpt lat="43.28316424463377" lon="11.548496760829007"><ele>308.0</ele><time>2026-04-06T16:24:45Z</time></trkpt><trkpt lat="43.28325972502359" lon="11.548583515441543"><ele>308.0</ele><time>2026-04-06T16:24:46Z</time></trkpt><trkpt lat="43.28335574734373" lon="11.548652742979375"><ele>309.6</ele><time>2026-04-06T16:24:47Z</time></trkpt><trkpt lat="43.28345579661771" lon="11.54871521145173"><ele>311.20000000000005</ele><time>2026-04-06T16:24:48Z</time></trkpt><trkpt lat="43.28354919719502" lon="11.548773919994929"><ele>312.8</ele><time>2026-04-06T16:24:49Z</time></trkpt><trkpt lat="43.28364951668726" lon="11.548813641731265"><ele>314.40000000000003</ele><time>2026-04-06T16:24:50Z</time></trkpt><trkpt lat="43.283736255337374" lon="11.548839362834537"><ele>316.0</ele><time>2026-04-06T16:24:51Z</time></trkpt><trkpt lat="43.28382152598507" lon="11.548850530652116"><ele>316.0</ele><time>2026-04-06T16:24:52Z</time></trkpt><trkpt lat="43.28389943193876" lon="11.5488313602685"><ele>316.0</ele><time>2026-04-06T16:24:53Z</time></trkpt><trkpt lat="43.28397641149557" lon="11.548835616298387"><ele>316.0</ele><time>2026-04-06T16:24:54Z</time></trkpt><trkpt lat="43.28405169492361" lon="11.548823768217245"><ele>316.0</ele><time>2026-04-06T16:24:55Z</time></trkpt><trkpt lat="43.284134767049885" lon="11.548820871594753"><ele>316.0</ele><time>2026-04-06T16:24:56Z</time></trkpt><trkpt lat="43.28422762454228" lon="11.548770014246177"><ele>316.0</ele><time>2026-04-06T16:24:57Z</time></trkpt><trkpt lat="43.28430412831167" lon="11.548693137049717"><ele>310.75</ele><time>2026-04-06T16:24:58Z</time></trkpt><trkpt lat="43.28437093898072" lon="11.54858014580351"><ele>305.5</ele><time>2026-04-06T16:24:59Z</time></trkpt><trkpt lat="43.28443023103597" lon="11.548444436391705"><ele>300.25</ele><time>2026-04-06T16:25:00Z</time></trkpt><trkpt lat="43.28449165642067" lon="11.548293939488044"><ele>295.0</ele><time>2026-04-06T16:25:01Z</time></trkpt><trkpt lat="43.28455211931895" lon="11.548139469761706"><ele>295.0</ele><time>2026-04-06T16:25:02Z</time></trkpt><trkpt lat="43.28460359475017" lon="11.548002430795298"><ele>295.0</ele><time>2026-04-06T16:25:03Z</time></trkpt><trkpt lat="43.28465043084781" lon="11.547872137645577"><ele>295.0</ele><time>2026-04-06T16:25:04Z</time></trkpt><trkpt lat="43.284692232857495" lon="11.547742261961332"><ele>295.0</ele><time>2026-04-06T16:25:05Z</time></trkpt><trkpt lat="43.28472324284624" lon="11.54761117014685"><ele>295.0</ele><time>2026-04-06T16:25:06Z</time></trkpt><trkpt lat="43.28472153848399" lon="11.547461581869497"><ele>293.0</ele><time>2026-04-06T16:25:07Z</time></trkpt><trkpt lat="43.28473111164226" lon="11.54731379097525"><ele>291.0</ele><time>2026-04-06T16:25:08Z</time></trkpt><trkpt lat="43.28476153525976" lon="11.547192059363267"><ele>289.0</ele><time>2026-04-06T16:25:09Z</time></trkpt><trkpt lat="43.28478632130596" lon="11.547073131655976"><ele>287.0</ele><time>2026-04-06T16:25:10Z</time></trkpt><trkpt lat="43.28482022704268" lon="11.54695302138118"><ele>285.0</ele><time>2026-04-06T16:25:11Z</time></trkpt><trkpt lat="43.2848743389843" lon="11.546865706771168"><ele>290.0</ele><time>2026-04-06T16:25:12Z</time></trkpt><trkpt lat="43.28494240636011" lon="11.546771277288677"><ele>295.0</ele><time>2026-04-06T16:25:13Z</time></trkpt><trkpt lat="43.28500453860412" lon="11.54666496065805"><ele>300.0</ele><time>2026-04-06T16:25:14Z</time></trkpt><trkpt lat="43.28509883723149" lon="11.546589050745053"><ele>305.0</ele><time>2026-04-06T16:25:15Z</time></trkpt><trkpt lat="43.28520479762892" lon="11.54652585415415"><ele>310.0</ele><time>2026-04-06T16:25:16Z</time></trkpt><trkpt lat="43.285310355907576" lon="11.546469035067785"><ele>310.0</ele><time>2026-04-06T16:25:17Z</time></trkpt><trkpt lat="43.2854145533011" lon="11.546432182816007"><ele>310.0</ele><time>2026-04-06T16:25:18Z</time></trkpt><trkpt lat="43.28552175124879" lon="11.546385615646651"><ele>310.0</ele><time>2026-04-06T16:25:19Z</time></trkpt><trkpt lat="43.28561300972369" lon="11.54634650349748"><ele>310.0</ele><time>2026-04-06T16:25:20Z</time></trkpt><trkpt lat="43.28569927687113" lon="11.54629147415815"><ele>310.0</ele><time>2026-04-06T16:25:21Z</time></trkpt><trkpt lat="43.28578490593204" lon="11.546227827319353"><ele>310.66666666666663</ele><time>2026-04-06T16:25:22Z</time></trkpt><trkpt lat="43.285866795423495" lon="11.546151637966265"><ele>311.3333333333333</ele><time>2026-04-06T16:25:23Z</time></trkpt><trkpt lat="43.285948622298484" lon="11.546085107235852"><ele>312.0</ele><time>2026-04-06T16:25:24Z</time></trkpt><trkpt lat="43.286019073119576" lon="11.546018703343131"><ele>312.6666666666667</ele><time>2026-04-06T16:25:25Z</time></trkpt><trkpt lat="43.28608397447887" lon="11.545957986818994"><ele>313.33333333333337</ele><time>2026-04-06T16:25:26Z</time></trkpt><trkpt lat="43.28616052621604" lon="11.545912181003603"><ele>314.0</ele><time>2026-04-06T16:25:27Z</time></trkpt><trkpt lat="43.286241551431345" lon="11.545876386424057"><ele>314.0</ele><time>2026-04-06T16:25:28Z</time></trkpt><trkpt lat="43.28632191113534" lon="11.545862300121355"><ele>314.0</ele><time>2026-04-06T16:25:29Z</time></trkpt><trkpt lat="43.2864012955849" lon="11.545880633891372"><ele>314.0</ele><time>2026-04-06T16:25:30Z</time></trkpt><trkpt lat="43.28647829148542" lon="11.54591266866709"><ele>314.0</ele><time>2026-04-06T16:25:31Z</time></trkpt><trkpt lat="43.28655508191764" lon="11.545980606686102"><ele>314.0</ele><time>2026-04-06T16:25:32Z</time></trkpt><trkpt lat="43.286643168020156" lon="11.546063527146226"><ele>314.0</ele><time>2026-04-06T16:25:33Z</time></trkpt><trkpt lat="43.28671832701974" lon="11.546131663885152"><ele>313.6666666666667</ele><time>2026-04-06T16:25:34Z</time></trkpt><trkpt lat="43.28678366362803" lon="11.54617328588198"><ele>313.33333333333337</ele><time>2026-04-06T16:25:35Z</time></trkpt><trkpt lat="43.286862273267666" lon="11.54618632887117"><ele>313.0</ele><time>2026-04-06T16:25:36Z</time></trkpt><trkpt lat="43.28695089049319" lon="11.546181365712986"><ele>312.6666666666667</ele><time>2026-04-06T16:25:37Z</time></trkpt><trkpt lat="43.28703836956806" lon="11.546150547032537"><ele>312.3333333333333</ele><time>2026-04-06T16:25:38Z</time></trkpt><trkpt lat="43.287115939441" lon="11.546106896418586"><ele>312.0</ele><time>2026-04-06T16:25:39Z</time></trkpt><trkpt lat="43.28719091650754" lon="11.54605166081747"><ele>312.0</ele><time>2026-04-06T16:25:40Z</time></trkpt><trkpt lat="43.287241974165674" lon="11.54594845525655"><ele>312.0</ele><time>2026-04-06T16:25:41Z</time></trkpt><trkpt lat="43.28727814149998" lon="11.54581365416216"><ele>312.0</ele><time>2026-04-06T16:25:42Z</time></trkpt><trkpt lat="43.28731363202159" lon="11.545650746652445"><ele>312.0</ele><time>2026-04-06T16:25:43Z</time></trkpt><trkpt lat="43.2873396610998" lon="11.54548542443077"><ele>312.0</ele><time>2026-04-06T16:25:44Z</time></trkpt><trkpt lat="43.28736023568302" lon="11.545317896531351"><ele>309.25</ele><time>2026-04-06T16:25:45Z</time></trkpt><trkpt lat="43.287372423692524" lon="11.545154877421092"><ele>306.5</ele><time>2026-04-06T16:25:46Z</time></trkpt><trkpt lat="43.287381433083475" lon="11.544995324437936"><ele>303.75</ele><time>2026-04-06T16:25:47Z</time></trkpt><trkpt lat="43.28738822441342" lon="11.544845053048855"><ele>301.0</ele><time>2026-04-06T16:25:48Z</time></trkpt><trkpt lat="43.287411728481025" lon="11.54469092039379"><ele>300.5</ele><time>2026-04-06T16:25:49Z</time></trkpt><trkpt lat="43.28744807056601" lon="11.544528248756825"><ele>300.0</ele><time>2026-04-06T16:25:50Z</time></trkpt><trkpt lat="43.287489569567896" lon="11.544369296048618"><ele>299.5</ele><time>2026-04-06T16:25:51Z</time></trkpt><trkpt lat="43.2875360347589" lon="11.544226650437949"><ele>299.0</ele><time>2026-04-06T16:25:52Z</time></trkpt><trkpt lat="43.287563919877286" lon="11.544101666561744"><ele>299.0</ele><time>2026-04-06T16:25:53Z</time></trkpt><trkpt lat="43.28760280298068" lon="11.543994693195092"><ele>299.0</ele><time>2026-04-06T16:25:54Z</time></trkpt><trkpt lat="43.28762306761622" lon="11.543867882072115"><ele>299.0</ele><time>2026-04-06T16:25:55Z</time></trkpt><trkpt lat="43.28762919061926" lon="11.543714521758135"><ele>299.0</ele><time>2026-04-06T16:25:56Z</time></trkpt><trkpt lat="43.28761931153131" lon="11.543543184857134"><ele>299.0</ele><time>2026-04-06T16:25:57Z</time></trkpt><trkpt lat="43.28761904359729" lon="11.543357114829918"><ele>297.75</ele><time>2026-04-06T16:25:58Z</time></trkpt><trkpt lat="43.28766288567366" lon="11.543192011790376"><ele>296.5</ele><time>2026-04-06T16:25:59Z</time></trkpt><trkpt lat="43.2876992818487" lon="11.543039429623034"><ele>295.25</ele><time>2026-04-06T16:26:00Z</time></trkpt><trkpt lat="43.28773737016328" lon="11.542883607686656"><ele>294.0</ele><time>2026-04-06T16:26:01Z</time></trkpt><trkpt lat="43.28776513340144" lon="11.542735497508101"><ele>291.59999999999997</ele><time>2026-04-06T16:26:02Z</time></trkpt><trkpt lat="43.287803584718155" lon="11.542617601199016"><ele>289.2</ele><time>2026-04-06T16:26:03Z</time></trkpt><trkpt lat="43.28787412774993" lon="11.542513747660132"><ele>286.79999999999995</ele><time>2026-04-06T16:26:04Z</time></trkpt><trkpt lat="43.28794578643246" lon="11.542392797475621"><ele>284.4</ele><time>2026-04-06T16:26:05Z</time></trkpt><trkpt lat="43.28802443862773" lon="11.542253360625795"><ele>282.0</ele><time>2026-04-06T16:26:06Z</time></trkpt><trkpt lat="43.28809089585876" lon="11.542092820984053"><ele>287.0</ele><time>2026-04-06T16:26:07Z</time></trkpt><trkpt lat="43.288165918359866" lon="11.541933247390542"><ele>292.0</ele><time>2026-04-06T16:26:08Z</time></trkpt><trkpt lat="43.288215684752906" lon="11.54179500835849"><ele>297.0</ele><time>2026-04-06T16:26:09.001Z</time></trkpt><trkpt lat="43.28825431444752" lon="11.541666758075186"><ele>302.0</ele><time>2026-04-06T16:26:10.001Z</time></trkpt><trkpt lat="43.2883675010855" lon="11.5414790100949"><ele>302.0</ele><time>2026-04-06T16:26:12.001Z</time></trkpt><trkpt lat="43.2884263868434" lon="11.541385891003404"><ele>302.0</ele><time>2026-04-06T16:26:13.001Z</time></trkpt><trkpt lat="43.28851982986067" lon="11.541311476403896"><ele>302.0</ele><time>2026-04-06T16:26:14.001Z</time></trkpt><trkpt lat="43.288623549377036" lon="11.541285914796212"><ele>302.0</ele><time>2026-04-06T16:26:15.001Z</time></trkpt><trkpt lat="43.28870909670245" lon="11.541233284631529"><ele>302.0</ele><time>2026-04-06T16:26:16.001Z</time></trkpt><trkpt lat="43.288790206330106" lon="11.541216773412808"><ele>302.0</ele><time>2026-04-06T16:26:17.001Z</time></trkpt><trkpt lat="43.28886674667588" lon="11.541198542393676"><ele>302.0</ele><time>2026-04-06T16:26:18.001Z</time></trkpt><trkpt lat="43.2889368522656" lon="11.541178561743264"><ele>302.0</ele><time>2026-04-06T16:26:19.001Z</time></trkpt><trkpt lat="43.289066192035875" lon="11.541126309712315"><ele>302.0</ele><time>2026-04-06T16:26:21.001Z</time></trkpt><trkpt lat="43.289140305788045" lon="11.541100854997865"><ele>302.0</ele><time>2026-04-06T16:26:22.001Z</time></trkpt><trkpt lat="43.28923026463533" lon="11.541081583230188"><ele>302.0</ele><time>2026-04-06T16:26:23.001Z</time></trkpt><trkpt lat="43.289322855963924" lon="11.54108206211056"><ele>302.0</ele><time>2026-04-06T16:26:24.001Z</time></trkpt><trkpt lat="43.28941557144952" lon="11.541103541923682"><ele>302.0</ele><time>2026-04-06T16:26:25.001Z</time></trkpt><trkpt lat="43.28951242943776" lon="11.541171218949032"><ele>302.0</ele><time>2026-04-06T16:26:26.001Z</time></trkpt><trkpt lat="43.289615900612326" lon="11.541180528700771"><ele>302.0</ele><time>2026-04-06T16:26:27.001Z</time></trkpt><trkpt lat="43.289721230833806" lon="11.541214712524548"><ele>302.0</ele><time>2026-04-06T16:26:28.001Z</time></trkpt><trkpt lat="43.28982682472144" lon="11.541226543937107"><ele>302.0</ele><time>2026-04-06T16:26:29.001Z</time></trkpt><trkpt lat="43.28991790582559" lon="11.541220051115896"><ele>302.0</ele><time>2026-04-06T16:26:30.001Z</time></trkpt><trkpt lat="43.28999535146868" lon="11.541207431260814"><ele>302.0</ele><time>2026-04-06T16:26:31.001Z</time></trkpt><trkpt lat="43.290069909440874" lon="11.541192386446681"><ele>302.0</ele><time>2026-04-06T16:26:32.001Z</time></trkpt><trkpt lat="43.29015835894095" lon="11.541208092912168"><ele>302.0</ele><time>2026-04-06T16:26:33.001Z</time></trkpt><trkpt lat="43.2902417618028" lon="11.54118776844593"><ele>302.0</ele><time>2026-04-06T16:26:34.001Z</time></trkpt><trkpt lat="43.29033016925589" lon="11.541205926256033"><ele>302.0</ele><time>2026-04-06T16:26:35.001Z</time></trkpt><trkpt lat="43.29041751402313" lon="11.541254009625025"><ele>302.0</ele><time>2026-04-06T16:26:36.001Z</time></trkpt><trkpt lat="43.29050763892232" lon="11.541262113876964"><ele>302.0</ele><time>2026-04-06T16:26:37.001Z</time></trkpt><trkpt lat="43.29057770299093" lon="11.541300830697622"><ele>302.0</ele><time>2026-04-06T16:26:38.001Z</time></trkpt><trkpt lat="43.290640350797574" lon="11.541336326662794"><ele>302.0</ele><time>2026-04-06T16:26:39.001Z</time></trkpt><trkpt lat="43.29070555077908" lon="11.54136603036159"><ele>302.33333333333337</ele><time>2026-04-06T16:26:40.001Z</time></trkpt><trkpt lat="43.29077454301723" lon="11.54138220943426"><ele>302.6666666666667</ele><time>2026-04-06T16:26:41.001Z</time></trkpt><trkpt lat="43.29084657189738" lon="11.541392488152239"><ele>303.0</ele><time>2026-04-06T16:26:42.001Z</time></trkpt><trkpt lat="43.29091792964643" lon="11.541391593911984"><ele>303.3333333333333</ele><time>2026-04-06T16:26:43.001Z</time></trkpt><trkpt lat="43.29099343608446" lon="11.541371052457823"><ele>303.66666666666663</ele><time>2026-04-06T16:26:44.001Z</time></trkpt><trkpt lat="43.291132433212546" lon="11.541266999703717"><ele>304.0</ele><time>2026-04-06T16:26:46.001Z</time></trkpt><trkpt lat="43.29119528903393" lon="11.541200003611182"><ele>304.0</ele><time>2026-04-06T16:26:47Z</time></trkpt><trkpt lat="43.29126121124235" lon="11.541142337080702"><ele>304.0</ele><time>2026-04-06T16:26:48Z</time></trkpt><trkpt lat="43.29131354271958" lon="11.541054341785724"><ele>304.0</ele><time>2026-04-06T16:26:49Z</time></trkpt><trkpt lat="43.291355883800456" lon="11.540950433044927"><ele>304.0</ele><time>2026-04-06T16:26:50Z</time></trkpt><trkpt lat="43.29134804366504" lon="11.540811771298198"><ele>304.0</ele><time>2026-04-06T16:26:51Z</time></trkpt><trkpt lat="43.29132706475504" lon="11.540664154310432"><ele>304.0</ele><time>2026-04-06T16:26:52Z</time></trkpt><trkpt lat="43.29132624311252" lon="11.540505798727226"><ele>304.0</ele><time>2026-04-06T16:26:53Z</time></trkpt><trkpt lat="43.29131818194436" lon="11.540362221102272"><ele>304.0</ele><time>2026-04-06T16:26:54Z</time></trkpt><trkpt lat="43.2913257628665" lon="11.540236858601565"><ele>304.0</ele><time>2026-04-06T16:26:55Z</time></trkpt><trkpt lat="43.29134239756847" lon="11.540117725491706"><ele>304.0</ele><time>2026-04-06T16:26:56Z</time></trkpt><trkpt lat="43.29136941538824" lon="11.539994400887293"><ele>303.59999999999997</ele><time>2026-04-06T16:26:57Z</time></trkpt><trkpt lat="43.29141106234307" lon="11.539870808120375"><ele>303.2</ele><time>2026-04-06T16:26:58Z</time></trkpt><trkpt lat="43.2914608434955" lon="11.539731371942331"><ele>302.79999999999995</ele><time>2026-04-06T16:26:59Z</time></trkpt><trkpt lat="43.29151040603592" lon="11.539592548068313"><ele>302.4</ele><time>2026-04-06T16:27:00Z</time></trkpt><trkpt lat="43.29156205100374" lon="11.539451359887144"><ele>302.0</ele><time>2026-04-06T16:27:01Z</time></trkpt><trkpt lat="43.29161114819066" lon="11.539317751043185"><ele>305.0</ele><time>2026-04-06T16:27:02Z</time></trkpt><trkpt lat="43.291660466822734" lon="11.539190498635572"><ele>308.0</ele><time>2026-04-06T16:27:03Z</time></trkpt><trkpt lat="43.29170603731117" lon="11.539082701365484"><ele>311.0</ele><time>2026-04-06T16:27:04Z</time></trkpt><trkpt lat="43.291750157697464" lon="11.538988704129785"><ele>314.0</ele><time>2026-04-06T16:27:05Z</time></trkpt><trkpt lat="43.29179804819657" lon="11.538910373733843"><ele>317.0</ele><time>2026-04-06T16:27:06Z</time></trkpt><trkpt lat="43.2918996800335" lon="11.538803439462974"><ele>317.0</ele><time>2026-04-06T16:27:08Z</time></trkpt><trkpt lat="43.29198022144032" lon="11.538816676678753"><ele>317.0</ele><time>2026-04-06T16:27:09Z</time></trkpt><trkpt lat="43.29206701094227" lon="11.538821383319481"><ele>317.0</ele><time>2026-04-06T16:27:10Z</time></trkpt><trkpt lat="43.29214984919708" lon="11.538845613632077"><ele>317.0</ele><time>2026-04-06T16:27:11Z</time></trkpt><trkpt lat="43.29224925507336" lon="11.538884140454986"><ele>317.0</ele><time>2026-04-06T16:27:12Z</time></trkpt><trkpt lat="43.292354102877326" lon="11.538902146202425"><ele>317.0</ele><time>2026-04-06T16:27:13Z</time></trkpt><trkpt lat="43.292443876419945" lon="11.538920027819492"><ele>317.0</ele><time>2026-04-06T16:27:14Z</time></trkpt><trkpt lat="43.29253044681833" lon="11.538928280663226"><ele>317.0</ele><time>2026-04-06T16:27:15Z</time></trkpt><trkpt lat="43.2926086617967" lon="11.538926008804152"><ele>317.0</ele><time>2026-04-06T16:27:16Z</time></trkpt><trkpt lat="43.29268421128848" lon="11.53891046947542"><ele>317.0</ele><time>2026-04-06T16:27:17Z</time></trkpt><trkpt lat="43.29275028632047" lon="11.53886755196075"><ele>317.0</ele><time>2026-04-06T16:27:18Z</time></trkpt><trkpt lat="43.292834181735834" lon="11.538821890788984"><ele>315.75</ele><time>2026-04-06T16:27:19Z</time></trkpt><trkpt lat="43.29291436541439" lon="11.53870191627431"><ele>314.5</ele><time>2026-04-06T16:27:20Z</time></trkpt><trkpt lat="43.293014784858805" lon="11.538599084642112"><ele>313.25</ele><time>2026-04-06T16:27:21Z</time></trkpt><trkpt lat="43.29311742631587" lon="11.538501104984936"><ele>312.0</ele><time>2026-04-06T16:27:22Z</time></trkpt><trkpt lat="43.29322476260139" lon="11.538407745650824"><ele>312.0</ele><time>2026-04-06T16:27:23Z</time></trkpt><trkpt lat="43.29334272511024" lon="11.538330424611635"><ele>312.0</ele><time>2026-04-06T16:27:24Z</time></trkpt><trkpt lat="43.29345416524737" lon="11.538232637156794"><ele>312.0</ele><time>2026-04-06T16:27:25Z</time></trkpt><trkpt lat="43.29356531727122" lon="11.538131405656179"><ele>312.0</ele><time>2026-04-06T16:27:26Z</time></trkpt><trkpt lat="43.29367590702195" lon="11.538029680050101"><ele>312.0</ele><time>2026-04-06T16:27:27Z</time></trkpt><trkpt lat="43.2937834012798" lon="11.537932360215134"><ele>312.0</ele><time>2026-04-06T16:27:28Z</time></trkpt><trkpt lat="43.293901545553595" lon="11.537827271225973"><ele>312.0</ele><time>2026-04-06T16:27:29Z</time></trkpt><trkpt lat="43.294010229026185" lon="11.537716438957226"><ele>312.0</ele><time>2026-04-06T16:27:30Z</time></trkpt><trkpt lat="43.294123098645166" lon="11.537589455751146"><ele>312.25</ele><time>2026-04-06T16:27:31Z</time></trkpt><trkpt lat="43.29421976421126" lon="11.537442187189237"><ele>312.5</ele><time>2026-04-06T16:27:32Z</time></trkpt><trkpt lat="43.29431792254802" lon="11.537310772200927"><ele>312.75</ele><time>2026-04-06T16:27:33Z</time></trkpt><trkpt lat="43.29441994524055" lon="11.537216049568688"><ele>313.0</ele><time>2026-04-06T16:27:34Z</time></trkpt><trkpt lat="43.29450451143881" lon="11.537124528484268"><ele>313.0</ele><time>2026-04-06T16:27:35Z</time></trkpt><trkpt lat="43.294583594403" lon="11.537056515351638"><ele>313.0</ele><time>2026-04-06T16:27:36Z</time></trkpt><trkpt lat="43.29467484725119" lon="11.537000912120892"><ele>313.0</ele><time>2026-04-06T16:27:37Z</time></trkpt><trkpt lat="43.294758906007445" lon="11.536951887854277"><ele>313.0</ele><time>2026-04-06T16:27:38Z</time></trkpt><trkpt lat="43.29483881273176" lon="11.536905547272076"><ele>313.0</ele><time>2026-04-06T16:27:39Z</time></trkpt><trkpt lat="43.294914485364004" lon="11.536834046301491"><ele>312.0</ele><time>2026-04-06T16:27:40Z</time></trkpt><trkpt lat="43.294997446662435" lon="11.536800099712863"><ele>311.0</ele><time>2026-04-06T16:27:41Z</time></trkpt><trkpt lat="43.29508410360503" lon="11.536804146486897"><ele>310.0</ele><time>2026-04-06T16:27:42Z</time></trkpt><trkpt lat="43.29516510337348" lon="11.536774505474202"><ele>309.0</ele><time>2026-04-06T16:27:43Z</time></trkpt><trkpt lat="43.29524666026474" lon="11.536769183023901"><ele>308.0</ele><time>2026-04-06T16:27:44Z</time></trkpt><trkpt lat="43.29532783603966" lon="11.536739268324816"><ele>307.0</ele><time>2026-04-06T16:27:45Z</time></trkpt><trkpt lat="43.29540716796527" lon="11.53667611474566"><ele>307.0</ele><time>2026-04-06T16:27:46Z</time></trkpt><trkpt lat="43.29547298319779" lon="11.536593724321243"><ele>307.0</ele><time>2026-04-06T16:27:47Z</time></trkpt><trkpt lat="43.29552603752331" lon="11.536492050405693"><ele>307.0</ele><time>2026-04-06T16:27:48Z</time></trkpt><trkpt lat="43.295571337341045" lon="11.536371289574818"><ele>307.0</ele><time>2026-04-06T16:27:49Z</time></trkpt><trkpt lat="43.295633623028756" lon="11.53624345849904"><ele>307.0</ele><time>2026-04-06T16:27:50Z</time></trkpt><trkpt lat="43.29568158832283" lon="11.536106326334005"><ele>310.2</ele><time>2026-04-06T16:27:51Z</time></trkpt><trkpt lat="43.29572612640251" lon="11.535974119707909"><ele>313.4</ele><time>2026-04-06T16:27:52Z</time></trkpt><trkpt lat="43.29576696270575" lon="11.53584955658619"><ele>316.59999999999997</ele><time>2026-04-06T16:27:53Z</time></trkpt><trkpt lat="43.2957989354023" lon="11.535725517910112"><ele>319.79999999999995</ele><time>2026-04-06T16:27:54Z</time></trkpt><trkpt lat="43.29579666650334" lon="11.535585188052801"><ele>323.0</ele><time>2026-04-06T16:27:55Z</time></trkpt><trkpt lat="43.29580748594495" lon="11.535442038381685"><ele>323.79999999999995</ele><time>2026-04-06T16:27:56Z</time></trkpt><trkpt lat="43.29582149593075" lon="11.535300454412699"><ele>324.6</ele><time>2026-04-06T16:27:57Z</time></trkpt><trkpt lat="43.29583510471284" lon="11.535149306125717"><ele>325.4</ele><time>2026-04-06T16:27:58Z</time></trkpt><trkpt lat="43.29584744031944" lon="11.535024671325221"><ele>326.20000000000005</ele><time>2026-04-06T16:27:59Z</time></trkpt><trkpt lat="43.29584398877888" lon="11.53492801112856"><ele>327.0</ele><time>2026-04-06T16:28:00Z</time></trkpt><trkpt lat="43.2958330127253" lon="11.534820763160782"><ele>327.0</ele><time>2026-04-06T16:28:01Z</time></trkpt><trkpt lat="43.29580112463863" lon="11.534715024395688"><ele>327.0</ele><time>2026-04-06T16:28:02Z</time></trkpt><trkpt lat="43.29574480052032" lon="11.534633321308105"><ele>327.0</ele><time>2026-04-06T16:28:03Z</time></trkpt><trkpt lat="43.29567028116868" lon="11.534569388952649"><ele>327.0</ele><time>2026-04-06T16:28:04Z</time></trkpt><trkpt lat="43.2955736256362" lon="11.534506281222596"><ele>327.0</ele><time>2026-04-06T16:28:05Z</time></trkpt><trkpt lat="43.295484472026274" lon="11.534422886170663"><ele>327.6</ele><time>2026-04-06T16:28:06Z</time></trkpt><trkpt lat="43.29539204033007" lon="11.534375494173368"><ele>328.20000000000005</ele><time>2026-04-06T16:28:07Z</time></trkpt><trkpt lat="43.295300886712944" lon="11.53428848840703"><ele>328.8</ele><time>2026-04-06T16:28:08Z</time></trkpt><trkpt lat="43.29523821443611" lon="11.534178852199876"><ele>329.4</ele><time>2026-04-06T16:28:09Z</time></trkpt><trkpt lat="43.29517110041501" lon="11.534104093263288"><ele>330.0</ele><time>2026-04-06T16:28:10Z</time></trkpt><trkpt lat="43.295117249909126" lon="11.534013051409563"><ele>330.0</ele><time>2026-04-06T16:28:11Z</time></trkpt><trkpt lat="43.295048268136604" lon="11.533933662955093"><ele>330.0</ele><time>2026-04-06T16:28:12Z</time></trkpt><trkpt lat="43.29495411864633" lon="11.533865170560707"><ele>330.0</ele><time>2026-04-06T16:28:13Z</time></trkpt><trkpt lat="43.29485234690858" lon="11.533816258930475"><ele>330.0</ele><time>2026-04-06T16:28:14.001Z</time></trkpt><trkpt lat="43.29475225983908" lon="11.53377544355258"><ele>330.0</ele><time>2026-04-06T16:28:15.001Z</time></trkpt><trkpt lat="43.29466631481558" lon="11.533733952269811"><ele>328.8333333333333</ele><time>2026-04-06T16:28:16.001Z</time></trkpt><trkpt lat="43.29459886873874" lon="11.533680045391671"><ele>327.6666666666667</ele><time>2026-04-06T16:28:17.001Z</time></trkpt><trkpt lat="43.29453412225094" lon="11.533604282894403"><ele>326.5</ele><time>2026-04-06T16:28:18.001Z</time></trkpt><trkpt lat="43.29449417428983" lon="11.533514050585941"><ele>325.33333333333337</ele><time>2026-04-06T16:28:19.001Z</time></trkpt><trkpt lat="43.29447206223837" lon="11.533402377846928"><ele>324.1666666666667</ele><time>2026-04-06T16:28:20.001Z</time></trkpt><trkpt lat="43.29446644264271" lon="11.533273106282817"><ele>323.0</ele><time>2026-04-06T16:28:21.001Z</time></trkpt><trkpt lat="43.29448571720811" lon="11.533107979439958"><ele>323.0</ele><time>2026-04-06T16:28:22.001Z</time></trkpt><trkpt lat="43.294464721122615" lon="11.532946522631926"><ele>323.0</ele><time>2026-04-06T16:28:23.001Z</time></trkpt><trkpt lat="43.294460978788045" lon="11.532799539929485"><ele>323.0</ele><time>2026-04-06T16:28:24.001Z</time></trkpt><trkpt lat="43.2944670772265" lon="11.532658549061843"><ele>323.0</ele><time>2026-04-06T16:28:25.001Z</time></trkpt><trkpt lat="43.29448337951314" lon="11.532519740516477"><ele>323.0</ele><time>2026-04-06T16:28:26.001Z</time></trkpt><trkpt lat="43.294508360372056" lon="11.532388426844234"><ele>323.4</ele><time>2026-04-06T16:28:27.001Z</time></trkpt><trkpt lat="43.29454009976683" lon="11.532262038546282"><ele>323.79999999999995</ele><time>2026-04-06T16:28:28.001Z</time></trkpt><trkpt lat="43.29457796688626" lon="11.532135389847353"><ele>324.2</ele><time>2026-04-06T16:28:29.001Z</time></trkpt><trkpt lat="43.29461907944965" lon="11.531997744584913"><ele>324.6</ele><time>2026-04-06T16:28:30.001Z</time></trkpt><trkpt lat="43.29468468556051" lon="11.531874286833224"><ele>325.0</ele><time>2026-04-06T16:28:31.001Z</time></trkpt><trkpt lat="43.294748390495435" lon="11.531745749331119"><ele>324.0</ele><time>2026-04-06T16:28:32.001Z</time></trkpt><trkpt lat="43.29479291796844" lon="11.531619177341762"><ele>323.0</ele><time>2026-04-06T16:28:33.001Z</time></trkpt><trkpt lat="43.2948632596899" lon="11.531488578921122"><ele>322.0</ele><time>2026-04-06T16:28:34.001Z</time></trkpt><trkpt lat="43.294920967149224" lon="11.531377585910514"><ele>321.0</ele><time>2026-04-06T16:28:35.001Z</time></trkpt><trkpt lat="43.294983074694535" lon="11.531273583221235"><ele>320.0</ele><time>2026-04-06T16:28:36.001Z</time></trkpt><trkpt lat="43.2950436604983" lon="11.531161448197112"><ele>320.0</ele><time>2026-04-06T16:28:37.001Z</time></trkpt><trkpt lat="43.29512129062355" lon="11.531055187743764"><ele>320.0</ele><time>2026-04-06T16:28:38.001Z</time></trkpt><trkpt lat="43.29521714322941" lon="11.53095616884797"><ele>320.0</ele><time>2026-04-06T16:28:39.001Z</time></trkpt><trkpt lat="43.295319167149174" lon="11.530864005237834"><ele>320.0</ele><time>2026-04-06T16:28:40.001Z</time></trkpt><trkpt lat="43.29542363600259" lon="11.530781420264486"><ele>320.0</ele><time>2026-04-06T16:28:41.001Z</time></trkpt><trkpt lat="43.295521632404025" lon="11.530712071407043"><ele>320.0</ele><time>2026-04-06T16:28:42.001Z</time></trkpt><trkpt lat="43.29562510037311" lon="11.530651656406892"><ele>320.0</ele><time>2026-04-06T16:28:43.001Z</time></trkpt><trkpt lat="43.29573880122498" lon="11.530591566220433"><ele>320.0</ele><time>2026-04-06T16:28:44.001Z</time></trkpt><trkpt lat="43.29584862907683" lon="11.530538650753433"><ele>317.6</ele><time>2026-04-06T16:28:45.001Z</time></trkpt><trkpt lat="43.295951039645914" lon="11.530495787401456"><ele>315.2</ele><time>2026-04-06T16:28:46.001Z</time></trkpt><trkpt lat="43.296052144077976" lon="11.530455421200829"><ele>312.8</ele><time>2026-04-06T16:28:47.001Z</time></trkpt><trkpt lat="43.29615809101893" lon="11.530412049103367"><ele>310.4</ele><time>2026-04-06T16:28:48Z</time></trkpt><trkpt lat="43.29625506657017" lon="11.530371812259993"><ele>308.0</ele><time>2026-04-06T16:28:49Z</time></trkpt><trkpt lat="43.296345887770464" lon="11.530332773038886"><ele>305.6</ele><time>2026-04-06T16:28:50Z</time></trkpt><trkpt lat="43.29642241628318" lon="11.5302980670992"><ele>303.20000000000005</ele><time>2026-04-06T16:28:51Z</time></trkpt><trkpt lat="43.296542039271266" lon="11.53022813006706"><ele>300.8</ele><time>2026-04-06T16:28:53Z</time></trkpt><trkpt lat="43.296636526191094" lon="11.530138296176865"><ele>298.40000000000003</ele><time>2026-04-06T16:28:55Z</time></trkpt><trkpt lat="43.29666250991856" lon="11.530045830380882"><ele>296.0</ele><time>2026-04-06T16:28:56Z</time></trkpt><trkpt lat="43.296659040639916" lon="11.529952798719345"><ele>296.0</ele><time>2026-04-06T16:28:57Z</time></trkpt><trkpt lat="43.29661917993299" lon="11.529858703430502"><ele>296.0</ele><time>2026-04-06T16:28:58Z</time></trkpt><trkpt lat="43.29656358605208" lon="11.529778422219488"><ele>296.0</ele><time>2026-04-06T16:28:59Z</time></trkpt><trkpt lat="43.296460107491306" lon="11.529739166530963"><ele>296.0</ele><time>2026-04-06T16:29:00Z</time></trkpt><trkpt lat="43.296369420812795" lon="11.52969351838988"><ele>296.0</ele><time>2026-04-06T16:29:01Z</time></trkpt><trkpt lat="43.29626905400038" lon="11.529648875260415"><ele>295.6</ele><time>2026-04-06T16:29:02Z</time></trkpt><trkpt lat="43.296167337096" lon="11.529610581046109"><ele>295.20000000000005</ele><time>2026-04-06T16:29:03Z</time></trkpt><trkpt lat="43.29607126723716" lon="11.529597632489773"><ele>294.79999999999995</ele><time>2026-04-06T16:29:04Z</time></trkpt><trkpt lat="43.29597734334307" lon="11.529581953163506"><ele>294.4</ele><time>2026-04-06T16:29:05Z</time></trkpt><trkpt lat="43.29588018374756" lon="11.529542213772588"><ele>294.0</ele><time>2026-04-06T16:29:06Z</time></trkpt><trkpt lat="43.295787882573514" lon="11.529447424265305"><ele>294.0</ele><time>2026-04-06T16:29:07Z</time></trkpt><trkpt lat="43.295682675083896" lon="11.529382606080864"><ele>294.0</ele><time>2026-04-06T16:29:08Z</time></trkpt><trkpt lat="43.295598485525225" lon="11.529326075056622"><ele>294.0</ele><time>2026-04-06T16:29:09Z</time></trkpt><trkpt lat="43.295518878568615" lon="11.529290646082952"><ele>294.0</ele><time>2026-04-06T16:29:10Z</time></trkpt><trkpt lat="43.29544220162634" lon="11.529268398453336"><ele>294.0</ele><time>2026-04-06T16:29:11Z</time></trkpt><trkpt lat="43.295342276674546" lon="11.529186697275755"><ele>294.0</ele><time>2026-04-06T16:29:13Z</time></trkpt><trkpt lat="43.29529802926755" lon="11.52908241012997"><ele>294.0</ele><time>2026-04-06T16:29:15Z</time></trkpt><trkpt lat="43.29531173449911" lon="11.528997363473241"><ele>294.0</ele><time>2026-04-06T16:29:16Z</time></trkpt><trkpt lat="43.295353461384344" lon="11.528916551627734"><ele>294.0</ele><time>2026-04-06T16:29:17Z</time></trkpt><trkpt lat="43.295435482147134" lon="11.528874858861288"><ele>294.0</ele><time>2026-04-06T16:29:18Z</time></trkpt><trkpt lat="43.29551762359599" lon="11.528822209398648"><ele>294.0</ele><time>2026-04-06T16:29:19Z</time></trkpt><trkpt lat="43.295601916931545" lon="11.528762810201888"><ele>293.59999999999997</ele><time>2026-04-06T16:29:20Z</time></trkpt><trkpt lat="43.29569407713898" lon="11.528683574267871"><ele>293.2</ele><time>2026-04-06T16:29:21Z</time></trkpt><trkpt lat="43.295766236724624" lon="11.528588499536877"><ele>292.79999999999995</ele><time>2026-04-06T16:29:22Z</time></trkpt><trkpt lat="43.295825361388054" lon="11.52849998248922"><ele>292.4</ele><time>2026-04-06T16:29:23Z</time></trkpt><trkpt lat="43.295872933755746" lon="11.52838496095314"><ele>292.0</ele><time>2026-04-06T16:29:24Z</time></trkpt><trkpt lat="43.29591222357126" lon="11.528236883355575"><ele>292.0</ele><time>2026-04-06T16:29:25Z</time></trkpt><trkpt lat="43.29593795767542" lon="11.528066120155222"><ele>292.0</ele><time>2026-04-06T16:29:26Z</time></trkpt><trkpt lat="43.29595123681935" lon="11.527880889452915"><ele>292.0</ele><time>2026-04-06T16:29:27Z</time></trkpt><trkpt lat="43.29596379274134" lon="11.527713821444967"><ele>292.0</ele><time>2026-04-06T16:29:28Z</time></trkpt><trkpt lat="43.29599456885315" lon="11.527553354699482"><ele>292.0</ele><time>2026-04-06T16:29:29Z</time></trkpt><trkpt lat="43.29600389423728" lon="11.527395028192013"><ele>292.0</ele><time>2026-04-06T16:29:30Z</time></trkpt><trkpt lat="43.296045397858144" lon="11.527251268278793"><ele>292.0</ele><time>2026-04-06T16:29:31Z</time></trkpt><trkpt lat="43.296087117619365" lon="11.527114390696903"><ele>292.0</ele><time>2026-04-06T16:29:32Z</time></trkpt><trkpt lat="43.296129558660056" lon="11.526971207846856"><ele>292.0</ele><time>2026-04-06T16:29:33Z</time></trkpt><trkpt lat="43.29622268717779" lon="11.526841768082082"><ele>291.25</ele><time>2026-04-06T16:29:34Z</time></trkpt><trkpt lat="43.29630905493524" lon="11.526701138520538"><ele>290.5</ele><time>2026-04-06T16:29:35Z</time></trkpt><trkpt lat="43.296395415035214" lon="11.526560524910145"><ele>289.75</ele><time>2026-04-06T16:29:36Z</time></trkpt><trkpt lat="43.296468273599224" lon="11.526441894850834"><ele>289.0</ele><time>2026-04-06T16:29:37Z</time></trkpt><trkpt lat="43.29654034543416" lon="11.526335368667416"><ele>289.0</ele><time>2026-04-06T16:29:38Z</time></trkpt><trkpt lat="43.29661687081695" lon="11.52624906737892"><ele>289.0</ele><time>2026-04-06T16:29:39Z</time></trkpt><trkpt lat="43.29668761148505" lon="11.526180058740383"><ele>289.0</ele><time>2026-04-06T16:29:40Z</time></trkpt><trkpt lat="43.29674844282666" lon="11.526094656819973"><ele>289.0</ele><time>2026-04-06T16:29:41Z</time></trkpt><trkpt lat="43.29677374014388" lon="11.525977581030558"><ele>289.0</ele><time>2026-04-06T16:29:42Z</time></trkpt><trkpt lat="43.296801175128216" lon="11.525863695328859"><ele>289.0</ele><time>2026-04-06T16:29:43Z</time></trkpt><trkpt lat="43.29676880504368" lon="11.525717621263086"><ele>289.0</ele><time>2026-04-06T16:29:44Z</time></trkpt><trkpt lat="43.29674156019166" lon="11.525558480813743"><ele>289.0</ele><time>2026-04-06T16:29:45Z</time></trkpt><trkpt lat="43.29674882354748" lon="11.525405537259614"><ele>289.0</ele><time>2026-04-06T16:29:46Z</time></trkpt><trkpt lat="43.29677538334782" lon="11.525258957105187"><ele>289.0</ele><time>2026-04-06T16:29:47Z</time></trkpt><trkpt lat="43.296785465742964" lon="11.52510771809017"><ele>289.75</ele><time>2026-04-06T16:29:48Z</time></trkpt><trkpt lat="43.29678039469899" lon="11.524958646084276"><ele>290.5</ele><time>2026-04-06T16:29:49Z</time></trkpt><trkpt lat="43.296724297435226" lon="11.524821546710161"><ele>291.25</ele><time>2026-04-06T16:29:50Z</time></trkpt><trkpt lat="43.29665999674088" lon="11.524682361424166"><ele>292.0</ele><time>2026-04-06T16:29:51Z</time></trkpt><trkpt lat="43.29661445689417" lon="11.52452428731655"><ele>294.5</ele><time>2026-04-06T16:29:52Z</time></trkpt><trkpt lat="43.29658276940182" lon="11.524366923691348"><ele>297.0</ele><time>2026-04-06T16:29:53Z</time></trkpt><trkpt lat="43.296565503681634" lon="11.524203898193788"><ele>299.5</ele><time>2026-04-06T16:29:54Z</time></trkpt><trkpt lat="43.296541661390535" lon="11.52402416523662"><ele>302.0</ele><time>2026-04-06T16:29:55Z</time></trkpt><trkpt lat="43.2965011073599" lon="11.52384053848687"><ele>303.0</ele><time>2026-04-06T16:29:56Z</time></trkpt><trkpt lat="43.29647414323112" lon="11.523674446180879"><ele>304.0</ele><time>2026-04-06T16:29:57Z</time></trkpt><trkpt lat="43.29645231890676" lon="11.523543626844114"><ele>305.0</ele><time>2026-04-06T16:29:58Z</time></trkpt><trkpt lat="43.29643700204668" lon="11.523399703567476"><ele>306.0</ele><time>2026-04-06T16:29:59Z</time></trkpt><trkpt lat="43.29642757439654" lon="11.523235459387577"><ele>307.0</ele><time>2026-04-06T16:30:00Z</time></trkpt><trkpt lat="43.296417869277" lon="11.523062406115715"><ele>307.0</ele><time>2026-04-06T16:30:01Z</time></trkpt><trkpt lat="43.296435458153645" lon="11.522901405726795"><ele>307.0</ele><time>2026-04-06T16:30:02Z</time></trkpt><trkpt lat="43.29644329143879" lon="11.522774679510645"><ele>307.0</ele><time>2026-04-06T16:30:03Z</time></trkpt><trkpt lat="43.29646383911658" lon="11.522651262063956"><ele>307.0</ele><time>2026-04-06T16:30:04Z</time></trkpt><trkpt lat="43.29649300832601" lon="11.52251357062903"><ele>307.0</ele><time>2026-04-06T16:30:05Z</time></trkpt><trkpt lat="43.29656003234354" lon="11.522386647078921"><ele>306.8</ele><time>2026-04-06T16:30:06Z</time></trkpt><trkpt lat="43.29665177624512" lon="11.52226637918539"><ele>306.6</ele><time>2026-04-06T16:30:07Z</time></trkpt><trkpt lat="43.296682702003466" lon="11.522121831001394"><ele>306.40000000000003</ele><time>2026-04-06T16:30:08Z</time></trkpt><trkpt lat="43.296719429234045" lon="11.521990567024893"><ele>306.2</ele><time>2026-04-06T16:30:09Z</time></trkpt><trkpt lat="43.29673255105976" lon="11.52185462452795"><ele>306.0</ele><time>2026-04-06T16:30:10Z</time></trkpt><trkpt lat="43.296752811754565" lon="11.521754411079224"><ele>304.0</ele><time>2026-04-06T16:30:11Z</time></trkpt><trkpt lat="43.29676011562318" lon="11.521660006114512"><ele>302.0</ele><time>2026-04-06T16:30:12Z</time></trkpt><trkpt lat="43.296816661987286" lon="11.521583733046635"><ele>300.0</ele><time>2026-04-06T16:30:13Z</time></trkpt><trkpt lat="43.296906893817024" lon="11.521534045266373"><ele>298.0</ele><time>2026-04-06T16:30:14Z</time></trkpt><trkpt lat="43.297011150303405" lon="11.52147376038904"><ele>296.0</ele><time>2026-04-06T16:30:15Z</time></trkpt><trkpt lat="43.29712028085271" lon="11.521419066952888"><ele>296.0</ele><time>2026-04-06T16:30:16Z</time></trkpt><trkpt lat="43.297232958837" lon="11.521375638342034"><ele>296.0</ele><time>2026-04-06T16:30:17Z</time></trkpt><trkpt lat="43.29734198642997" lon="11.521331778291717"><ele>296.0</ele><time>2026-04-06T16:30:18Z</time></trkpt><trkpt lat="43.29744276095865" lon="11.521361223976557"><ele>296.0</ele><time>2026-04-06T16:30:19Z</time></trkpt><trkpt lat="43.297522041072796" lon="11.521364047263448"><ele>296.0</ele><time>2026-04-06T16:30:20.001Z</time></trkpt><trkpt lat="43.29758939908415" lon="11.521407134332012"><ele>297.33333333333337</ele><time>2026-04-06T16:30:21.001Z</time></trkpt><trkpt lat="43.29765474797197" lon="11.521461792965605"><ele>298.6666666666667</ele><time>2026-04-06T16:30:22.001Z</time></trkpt><trkpt lat="43.29771974111447" lon="11.521527196466028"><ele>300.0</ele><time>2026-04-06T16:30:23.001Z</time></trkpt><trkpt lat="43.29778734282528" lon="11.521596967677908"><ele>301.3333333333333</ele><time>2026-04-06T16:30:24.001Z</time></trkpt><trkpt lat="43.2978509153299" lon="11.521696925571238"><ele>302.66666666666663</ele><time>2026-04-06T16:30:25.001Z</time></trkpt><trkpt lat="43.297929774766715" lon="11.521760894407834"><ele>304.0</ele><time>2026-04-06T16:30:26.001Z</time></trkpt><trkpt lat="43.29799465670743" lon="11.521865799187472"><ele>304.0</ele><time>2026-04-06T16:30:27.001Z</time></trkpt><trkpt lat="43.29805270257213" lon="11.521981622594998"><ele>304.0</ele><time>2026-04-06T16:30:28.001Z</time></trkpt><trkpt lat="43.29809463473227" lon="11.52208522440663"><ele>304.0</ele><time>2026-04-06T16:30:29.001Z</time></trkpt><trkpt lat="43.29813486136865" lon="11.522175161523792"><ele>304.0</ele><time>2026-04-06T16:30:30.001Z</time></trkpt><trkpt lat="43.29818873036401" lon="11.522249157135686"><ele>304.0</ele><time>2026-04-06T16:30:31.001Z</time></trkpt><trkpt lat="43.29825938612003" lon="11.522299208343707"><ele>304.0</ele><time>2026-04-06T16:30:32.001Z</time></trkpt><trkpt lat="43.298335088572976" lon="11.522347389727672"><ele>304.16666666666663</ele><time>2026-04-06T16:30:33.001Z</time></trkpt><trkpt lat="43.29843393142852" lon="11.522327835680203"><ele>304.3333333333333</ele><time>2026-04-06T16:30:34.001Z</time></trkpt><trkpt lat="43.298527186786" lon="11.522257025659483"><ele>304.5</ele><time>2026-04-06T16:30:35.001Z</time></trkpt><trkpt lat="43.298605447627246" lon="11.522247359460762"><ele>304.6666666666667</ele><time>2026-04-06T16:30:36.001Z</time></trkpt><trkpt lat="43.29867793111083" lon="11.52226620261488"><ele>304.83333333333337</ele><time>2026-04-06T16:30:37.001Z</time></trkpt><trkpt lat="43.29874812269153" lon="11.522312646943764"><ele>305.0</ele><time>2026-04-06T16:30:38.001Z</time></trkpt><trkpt lat="43.29881485321037" lon="11.522415202126904"><ele>305.0</ele><time>2026-04-06T16:30:39.001Z</time></trkpt><trkpt lat="43.29889261854338" lon="11.522499165623614"><ele>305.0</ele><time>2026-04-06T16:30:40.001Z</time></trkpt><trkpt lat="43.298988860916765" lon="11.522522040511054"><ele>305.0</ele><time>2026-04-06T16:30:41.001Z</time></trkpt><trkpt lat="43.29908251471274" lon="11.522530979269606"><ele>305.0</ele><time>2026-04-06T16:30:42.001Z</time></trkpt><trkpt lat="43.29918756777012" lon="11.522524237792037"><ele>305.0</ele><time>2026-04-06T16:30:43.001Z</time></trkpt><trkpt lat="43.29928844519499" lon="11.522507704964987"><ele>303.6</ele><time>2026-04-06T16:30:44.001Z</time></trkpt><trkpt lat="43.29937970802767" lon="11.522503583984552"><ele>302.2</ele><time>2026-04-06T16:30:45.001Z</time></trkpt><trkpt lat="43.29946430159996" lon="11.522470835933804"><ele>300.8</ele><time>2026-04-06T16:30:46.001Z</time></trkpt><trkpt lat="43.29954839330125" lon="11.522411076162864"><ele>299.4</ele><time>2026-04-06T16:30:47.001Z</time></trkpt><trkpt lat="43.299630895566516" lon="11.522348181214687"><ele>298.0</ele><time>2026-04-06T16:30:48.001Z</time></trkpt><trkpt lat="43.2997108841431" lon="11.522295435413278"><ele>298.2</ele><time>2026-04-06T16:30:49.001Z</time></trkpt><trkpt lat="43.29980225503336" lon="11.522253568215593"><ele>298.4</ele><time>2026-04-06T16:30:50.001Z</time></trkpt><trkpt lat="43.29990643777467" lon="11.522240675112982"><ele>298.59999999999997</ele><time>2026-04-06T16:30:51.001Z</time></trkpt><trkpt lat="43.30002239074174" lon="11.522244949085833"><ele>298.8</ele><time>2026-04-06T16:30:52.001Z</time></trkpt><trkpt lat="43.300124672418555" lon="11.522261880351763"><ele>299.0</ele><time>2026-04-06T16:30:53Z</time></trkpt><trkpt lat="43.30020772080462" lon="11.5222844585995"><ele>299.0</ele><time>2026-04-06T16:30:54Z</time></trkpt><trkpt lat="43.300278204619886" lon="11.522304549165957"><ele>299.0</ele><time>2026-04-06T16:30:55Z</time></trkpt><trkpt lat="43.300360859784384" lon="11.522345445182491"><ele>299.0</ele><time>2026-04-06T16:30:56Z</time></trkpt><trkpt lat="43.30046681421197" lon="11.522399408351761"><ele>299.0</ele><time>2026-04-06T16:30:57Z</time></trkpt><trkpt lat="43.30058678440371" lon="11.52243316654798"><ele>299.0</ele><time>2026-04-06T16:30:58Z</time></trkpt><trkpt lat="43.30070679776353" lon="11.522476014818873"><ele>297.75</ele><time>2026-04-06T16:30:59Z</time></trkpt><trkpt lat="43.30082685496428" lon="11.522509423445465"><ele>296.5</ele><time>2026-04-06T16:31:00Z</time></trkpt><trkpt lat="43.300940479676605" lon="11.522568546806601"><ele>295.25</ele><time>2026-04-06T16:31:01Z</time></trkpt><trkpt lat="43.301044084061374" lon="11.522607830642459"><ele>294.0</ele><time>2026-04-06T16:31:02Z</time></trkpt><trkpt lat="43.301138124423446" lon="11.522652732419187"><ele>294.0</ele><time>2026-04-06T16:31:03Z</time></trkpt><trkpt lat="43.301237756681594" lon="11.522713198328903"><ele>294.0</ele><time>2026-04-06T16:31:04Z</time></trkpt><trkpt lat="43.301336505783475" lon="11.522776656380689"><ele>294.0</ele><time>2026-04-06T16:31:05Z</time></trkpt><trkpt lat="43.30143566006417" lon="11.522837791066154"><ele>294.0</ele><time>2026-04-06T16:31:06Z</time></trkpt><trkpt lat="43.301542208615956" lon="11.522881786618845"><ele>294.0</ele><time>2026-04-06T16:31:07Z</time></trkpt><trkpt lat="43.30167186138263" lon="11.522885010474777"><ele>297.8</ele><time>2026-04-06T16:31:08Z</time></trkpt><trkpt lat="43.301795423348906" lon="11.522923019333914"><ele>301.59999999999997</ele><time>2026-04-06T16:31:09Z</time></trkpt><trkpt lat="43.30190743469234" lon="11.522913526143721"><ele>305.4</ele><time>2026-04-06T16:31:10Z</time></trkpt><trkpt lat="43.30201518103083" lon="11.522925544808961"><ele>309.2</ele><time>2026-04-06T16:31:11Z</time></trkpt><trkpt lat="43.30211450350936" lon="11.522947608656114"><ele>313.0</ele><time>2026-04-06T16:31:12Z</time></trkpt><trkpt lat="43.30221602005834" lon="11.522931670374605"><ele>307.75</ele><time>2026-04-06T16:31:13Z</time></trkpt><trkpt lat="43.30232854274303" lon="11.522894899543424"><ele>302.5</ele><time>2026-04-06T16:31:14Z</time></trkpt><trkpt lat="43.30244533332384" lon="11.522832466589168"><ele>297.25</ele><time>2026-04-06T16:31:15Z</time></trkpt><trkpt lat="43.30256644170966" lon="11.522780301538349"><ele>292.0</ele><time>2026-04-06T16:31:16Z</time></trkpt><trkpt lat="43.302692810269576" lon="11.52273618871959"><ele>292.0</ele><time>2026-04-06T16:31:17Z</time></trkpt><trkpt lat="43.30281250910339" lon="11.522712400258824"><ele>292.0</ele><time>2026-04-06T16:31:18Z</time></trkpt><trkpt lat="43.30291664398214" lon="11.522699252762113"><ele>292.0</ele><time>2026-04-06T16:31:19Z</time></trkpt><trkpt lat="43.30300595152681" lon="11.52269420523448"><ele>292.0</ele><time>2026-04-06T16:31:20Z</time></trkpt><trkpt lat="43.303089808833704" lon="11.522694738486903"><ele>292.0</ele><time>2026-04-06T16:31:21Z</time></trkpt><trkpt lat="43.303180110805215" lon="11.52271034601631"><ele>291.4</ele><time>2026-04-06T16:31:22Z</time></trkpt><trkpt lat="43.30327827225668" lon="11.522730059647493"><ele>290.79999999999995</ele><time>2026-04-06T16:31:23Z</time></trkpt><trkpt lat="43.30336099559072" lon="11.522792908453795"><ele>290.2</ele><time>2026-04-06T16:31:24Z</time></trkpt><trkpt lat="43.30343468692386" lon="11.522875601567403"><ele>289.59999999999997</ele><time>2026-04-06T16:31:25Z</time></trkpt><trkpt lat="43.30350337272692" lon="11.522987688256892"><ele>289.0</ele><time>2026-04-06T16:31:26Z</time></trkpt><trkpt lat="43.303579415902576" lon="11.523122008347263"><ele>292.8</ele><time>2026-04-06T16:31:27Z</time></trkpt><trkpt lat="43.30365259277348" lon="11.52326096069683"><ele>296.59999999999997</ele><time>2026-04-06T16:31:28Z</time></trkpt><trkpt lat="43.303714584751994" lon="11.52338830855741"><ele>300.4</ele><time>2026-04-06T16:31:29Z</time></trkpt><trkpt lat="43.30377205922592" lon="11.523501479722208"><ele>304.2</ele><time>2026-04-06T16:31:30Z</time></trkpt><trkpt lat="43.30382939710089" lon="11.523604780889288"><ele>308.0</ele><time>2026-04-06T16:31:31Z</time></trkpt><trkpt lat="43.303893008420076" lon="11.52369633406139"><ele>305.2</ele><time>2026-04-06T16:31:32Z</time></trkpt><trkpt lat="43.303966771951565" lon="11.523779036827856"><ele>302.4</ele><time>2026-04-06T16:31:33Z</time></trkpt><trkpt lat="43.30404367516468" lon="11.52383053179403"><ele>299.59999999999997</ele><time>2026-04-06T16:31:34Z</time></trkpt><trkpt lat="43.30413073564518" lon="11.523876290154774"><ele>296.8</ele><time>2026-04-06T16:31:35Z</time></trkpt><trkpt lat="43.30423079610887" lon="11.523870898504322"><ele>294.0</ele><time>2026-04-06T16:31:36Z</time></trkpt><trkpt lat="43.30432962675793" lon="11.523823373999031"><ele>294.0</ele><time>2026-04-06T16:31:37Z</time></trkpt><trkpt lat="43.30440679446047" lon="11.523720994532502"><ele>294.0</ele><time>2026-04-06T16:31:38Z</time></trkpt><trkpt lat="43.30449864814631" lon="11.523620773871354"><ele>294.0</ele><time>2026-04-06T16:31:39Z</time></trkpt><trkpt lat="43.30458573339277" lon="11.523489559417998"><ele>294.0</ele><time>2026-04-06T16:31:40Z</time></trkpt><trkpt lat="43.30466783374468" lon="11.523362725328438"><ele>297.0</ele><time>2026-04-06T16:31:41Z</time></trkpt><trkpt lat="43.30475043594288" lon="11.523271236610658"><ele>300.0</ele><time>2026-04-06T16:31:42Z</time></trkpt><trkpt lat="43.30485048182577" lon="11.523201643965669"><ele>303.0</ele><time>2026-04-06T16:31:43Z</time></trkpt><trkpt lat="43.304963554591566" lon="11.523119281831063"><ele>306.0</ele><time>2026-04-06T16:31:44Z</time></trkpt><trkpt lat="43.30507153997336" lon="11.523047512345586"><ele>306.0</ele><time>2026-04-06T16:31:45Z</time></trkpt><trkpt lat="43.30518308275258" lon="11.522986136904338"><ele>306.0</ele><time>2026-04-06T16:31:46Z</time></trkpt><trkpt lat="43.3053002850131" lon="11.522928918396302"><ele>306.0</ele><time>2026-04-06T16:31:47Z</time></trkpt><trkpt lat="43.30540347483924" lon="11.522879506091614"><ele>306.0</ele><time>2026-04-06T16:31:48Z</time></trkpt><trkpt lat="43.30548858426556" lon="11.522843176551852"><ele>306.0</ele><time>2026-04-06T16:31:49Z</time></trkpt><trkpt lat="43.305578503097465" lon="11.522814427320947"><ele>307.6</ele><time>2026-04-06T16:31:50Z</time></trkpt><trkpt lat="43.305661362105624" lon="11.522799835768101"><ele>309.20000000000005</ele><time>2026-04-06T16:31:51Z</time></trkpt><trkpt lat="43.30574908668594" lon="11.522807896957582"><ele>310.79999999999995</ele><time>2026-04-06T16:31:52Z</time></trkpt><trkpt lat="43.30585047763556" lon="11.52284830638705"><ele>312.4</ele><time>2026-04-06T16:31:53Z</time></trkpt><trkpt lat="43.3059679551786" lon="11.522900705704222"><ele>314.0</ele><time>2026-04-06T16:31:54Z</time></trkpt><trkpt lat="43.30608541575467" lon="11.522953122004202"><ele>315.0</ele><time>2026-04-06T16:31:55Z</time></trkpt><trkpt lat="43.30620424183897" lon="11.522998431265906"><ele>316.0</ele><time>2026-04-06T16:31:56Z</time></trkpt><trkpt lat="43.30635161041462" lon="11.523004619231559"><ele>317.0</ele><time>2026-04-06T16:31:57Z</time></trkpt><trkpt lat="43.306508456124035" lon="11.52302647758869"><ele>318.0</ele><time>2026-04-06T16:31:58Z</time></trkpt><trkpt lat="43.30666190693726" lon="11.523067932265132"><ele>319.75</ele><time>2026-04-06T16:31:59Z</time></trkpt><trkpt lat="43.30681349781696" lon="11.523082889766602"><ele>321.5</ele><time>2026-04-06T16:32:00Z</time></trkpt><trkpt lat="43.30695631399545" lon="11.52309154012465"><ele>323.25</ele><time>2026-04-06T16:32:01Z</time></trkpt><trkpt lat="43.30708987023514" lon="11.523095898285284"><ele>325.0</ele><time>2026-04-06T16:32:02Z</time></trkpt><trkpt lat="43.30720815236147" lon="11.523098644663426"><ele>325.16666666666663</ele><time>2026-04-06T16:32:03Z</time></trkpt><trkpt lat="43.30730545602076" lon="11.523106238571632"><ele>325.3333333333333</ele><time>2026-04-06T16:32:04Z</time></trkpt><trkpt lat="43.30737852726039" lon="11.523127225454582"><ele>325.5</ele><time>2026-04-06T16:32:05Z</time></trkpt><trkpt lat="43.30743985094297" lon="11.523154930990394"><ele>325.6666666666667</ele><time>2026-04-06T16:32:06Z</time></trkpt><trkpt lat="43.30750026634153" lon="11.523202275548563"><ele>325.83333333333337</ele><time>2026-04-06T16:32:07Z</time></trkpt><trkpt lat="43.307561950967305" lon="11.523277706113237"><ele>326.0</ele><time>2026-04-06T16:32:08Z</time></trkpt><trkpt lat="43.30763616755651" lon="11.52337910939187"><ele>326.0</ele><time>2026-04-06T16:32:09Z</time></trkpt><trkpt lat="43.30774807463735" lon="11.523455542912142"><ele>326.0</ele><time>2026-04-06T16:32:10Z</time></trkpt><trkpt lat="43.307841445699076" lon="11.52354888010985"><ele>326.0</ele><time>2026-04-06T16:32:11Z</time></trkpt><trkpt lat="43.30794104895658" lon="11.523629802912735"><ele>326.0</ele><time>2026-04-06T16:32:12Z</time></trkpt><trkpt lat="43.3080281251127" lon="11.523701475721642"><ele>326.0</ele><time>2026-04-06T16:32:13Z</time></trkpt><trkpt lat="43.30811315337174" lon="11.523740424536518"><ele>326.0</ele><time>2026-04-06T16:32:14Z</time></trkpt><trkpt lat="43.308181061805385" lon="11.523800213460428"><ele>326.0</ele><time>2026-04-06T16:32:15Z</time></trkpt><trkpt lat="43.30825242611892" lon="11.523844588378541"><ele>326.0</ele><time>2026-04-06T16:32:16Z</time></trkpt><trkpt lat="43.3083185821923" lon="11.523892252754548"><ele>326.0</ele><time>2026-04-06T16:32:17Z</time></trkpt><trkpt lat="43.308370148813395" lon="11.523958880111874"><ele>326.0</ele><time>2026-04-06T16:32:18Z</time></trkpt><trkpt lat="43.30843966004303" lon="11.523998698663192"><ele>326.0</ele><time>2026-04-06T16:32:19Z</time></trkpt><trkpt lat="43.30849136783833" lon="11.524059308197003"><ele>326.0</ele><time>2026-04-06T16:32:20Z</time></trkpt><trkpt lat="43.308534336538024" lon="11.524126146917842"><ele>326.0</ele><time>2026-04-06T16:32:21Z</time></trkpt><trkpt lat="43.30860723270812" lon="11.524256663772064"><ele>326.0</ele><time>2026-04-06T16:32:23Z</time></trkpt><trkpt lat="43.308673020246154" lon="11.524366944517245"><ele>326.0</ele><time>2026-04-06T16:32:25Z</time></trkpt><trkpt lat="43.30873957926551" lon="11.524439307412097"><ele>326.0</ele><time>2026-04-06T16:32:27.001Z</time></trkpt><trkpt lat="43.30885007927021" lon="11.524331084197751"><ele>326.0</ele><time>2026-04-06T16:32:30.001Z</time></trkpt><trkpt lat="43.308882630239246" lon="11.524188421136422"><ele>326.0</ele><time>2026-04-06T16:32:32.001Z</time></trkpt><trkpt lat="43.30889854722955" lon="11.524039347160537"><ele>326.0</ele><time>2026-04-06T16:32:34.001Z</time></trkpt><trkpt lat="43.30891005246053" lon="11.52389265274118"><ele>326.0</ele><time>2026-04-06T16:32:36.001Z</time></trkpt><trkpt lat="43.308906435857246" lon="11.523796850084336"><ele>326.0</ele><time>2026-04-06T16:32:38.001Z</time></trkpt><trkpt lat="43.30889454819332" lon="11.523700627477812"><ele>326.20000000000005</ele><time>2026-04-06T16:32:40.001Z</time></trkpt><trkpt lat="43.30888748163221" lon="11.523596744233732"><ele>326.40000000000003</ele><time>2026-04-06T16:32:43.001Z</time></trkpt><trkpt lat="43.30885273485927" lon="11.523479982568546"><ele>326.6</ele><time>2026-04-06T16:34:22.999Z</time></trkpt><trkpt lat="43.30885832970975" lon="11.523354605648946"><ele>326.8</ele><time>2026-04-06T16:34:25.999Z</time></trkpt><trkpt lat="43.30890312466504" lon="11.52317985831429"><ele>327.0</ele><time>2026-04-06T16:34:27.999Z</time></trkpt><trkpt lat="43.30896523497022" lon="11.523092241613657"><ele>324.8</ele><time>2026-04-06T16:34:28.999Z</time></trkpt><trkpt lat="43.30902995381533" lon="11.523007013095302"><ele>322.6</ele><time>2026-04-06T16:34:29.999Z</time></trkpt><trkpt lat="43.309114233633515" lon="11.522920451422959"><ele>320.40000000000003</ele><time>2026-04-06T16:34:31.001Z</time></trkpt><trkpt lat="43.30921192299621" lon="11.522829641012311"><ele>318.20000000000005</ele><time>2026-04-06T16:34:32.001Z</time></trkpt><trkpt lat="43.309330421903354" lon="11.522743175876355"><ele>316.0</ele><time>2026-04-06T16:34:33.001Z</time></trkpt><trkpt lat="43.3094540019662" lon="11.522667063517469"><ele>314.5</ele><time>2026-04-06T16:34:34.001Z</time></trkpt><trkpt lat="43.30957159913823" lon="11.52256213007907"><ele>313.0</ele><time>2026-04-06T16:34:35.001Z</time></trkpt><trkpt lat="43.30968043648012" lon="11.52247021463036"><ele>311.5</ele><time>2026-04-06T16:34:36.001Z</time></trkpt><trkpt lat="43.309765719019154" lon="11.522369908276753"><ele>310.0</ele><time>2026-04-06T16:34:37.001Z</time></trkpt><trkpt lat="43.30983407361564" lon="11.522247771784503"><ele>309.25</ele><time>2026-04-06T16:34:38.001Z</time></trkpt><trkpt lat="43.30987628546664" lon="11.522083020032829"><ele>308.5</ele><time>2026-04-06T16:34:39.001Z</time></trkpt><trkpt lat="43.30989754240931" lon="11.521899111624945"><ele>307.75</ele><time>2026-04-06T16:34:40.001Z</time></trkpt><trkpt lat="43.30988948924449" lon="11.521711511944398"><ele>307.0</ele><time>2026-04-06T16:34:41.001Z</time></trkpt><trkpt lat="43.30983804040067" lon="11.521546725391826"><ele>306.3333333333333</ele><time>2026-04-06T16:34:42Z</time></trkpt><trkpt lat="43.30976603114519" lon="11.52135506231695"><ele>305.6666666666667</ele><time>2026-04-06T16:34:43Z</time></trkpt><trkpt lat="43.30971700708486" lon="11.521155615722419"><ele>305.0</ele><time>2026-04-06T16:34:44Z</time></trkpt><trkpt lat="43.30969265178239" lon="11.520931575757292"><ele>302.0</ele><time>2026-04-06T16:34:45Z</time></trkpt><trkpt lat="43.30968201825092" lon="11.520697317051624"><ele>299.0</ele><time>2026-04-06T16:34:46Z</time></trkpt><trkpt lat="43.30967166213336" lon="11.52049573799919"><ele>296.0</ele><time>2026-04-06T16:34:47Z</time></trkpt><trkpt lat="43.309659276075806" lon="11.520310244142413"><ele>296.0</ele><time>2026-04-06T16:34:48Z</time></trkpt><trkpt lat="43.30964627297925" lon="11.520133419568253"><ele>296.0</ele><time>2026-04-06T16:34:49Z</time></trkpt><trkpt lat="43.30963963843771" lon="11.5199642818984"><ele>296.0</ele><time>2026-04-06T16:34:50Z</time></trkpt><trkpt lat="43.30965284307837" lon="11.51980062221189"><ele>296.0</ele><time>2026-04-06T16:34:51Z</time></trkpt><trkpt lat="43.309701092541644" lon="11.519623735839373"><ele>296.0</ele><time>2026-04-06T16:34:52Z</time></trkpt><trkpt lat="43.30976938662" lon="11.51942797043223"><ele>296.0</ele><time>2026-04-06T16:34:53Z</time></trkpt><trkpt lat="43.309844597858444" lon="11.5192354125884"><ele>296.0</ele><time>2026-04-06T16:34:54Z</time></trkpt><trkpt lat="43.30990776572339" lon="11.519051453846926"><ele>296.0</ele><time>2026-04-06T16:34:55Z</time></trkpt><trkpt lat="43.30994091349162" lon="11.518871001779125"><ele>296.0</ele><time>2026-04-06T16:34:56Z</time></trkpt><trkpt lat="43.30994170095578" lon="11.51868628319768"><ele>296.0</ele><time>2026-04-06T16:34:57Z</time></trkpt><trkpt lat="43.309919495035935" lon="11.518488543257035"><ele>296.0</ele><time>2026-04-06T16:34:58Z</time></trkpt><trkpt lat="43.30987289932443" lon="11.51828566841496"><ele>295.6666666666667</ele><time>2026-04-06T16:34:59Z</time></trkpt><trkpt lat="43.30980676682082" lon="11.518084419835734"><ele>295.3333333333333</ele><time>2026-04-06T16:35:00Z</time></trkpt><trkpt lat="43.309728172746624" lon="11.517907667097333"><ele>295.0</ele><time>2026-04-06T16:35:01Z</time></trkpt><trkpt lat="43.30964230035904" lon="11.517753749113595"><ele>293.75</ele><time>2026-04-06T16:35:02Z</time></trkpt><trkpt lat="43.30953377891597" lon="11.517603668714449"><ele>292.5</ele><time>2026-04-06T16:35:03Z</time></trkpt><trkpt lat="43.309419631762616" lon="11.517472151022957"><ele>291.25</ele><time>2026-04-06T16:35:04Z</time></trkpt><trkpt lat="43.30932236086759" lon="11.517356653058167"><ele>290.0</ele><time>2026-04-06T16:35:05Z</time></trkpt><trkpt lat="43.309239329817984" lon="11.517226570904356"><ele>290.0</ele><time>2026-04-06T16:35:06Z</time></trkpt><trkpt lat="43.30917940953133" lon="11.517076459197028"><ele>290.0</ele><time>2026-04-06T16:35:07Z</time></trkpt><trkpt lat="43.30915191229642" lon="11.516918547042753"><ele>290.0</ele><time>2026-04-06T16:35:08Z</time></trkpt><trkpt lat="43.30917867956589" lon="11.516774600512274"><ele>290.0</ele><time>2026-04-06T16:35:09Z</time></trkpt><trkpt lat="43.309211121151776" lon="11.516657918459929"><ele>290.0</ele><time>2026-04-06T16:35:10Z</time></trkpt><trkpt lat="43.3092742081508" lon="11.516570808972466"><ele>291.0</ele><time>2026-04-06T16:35:11Z</time></trkpt><trkpt lat="43.30935180253026" lon="11.516465566611089"><ele>292.0</ele><time>2026-04-06T16:35:12Z</time></trkpt><trkpt lat="43.30943865406454" lon="11.51633733209442"><ele>293.0</ele><time>2026-04-06T16:35:13Z</time></trkpt><trkpt lat="43.309538145832086" lon="11.516209752701176"><ele>294.0</ele><time>2026-04-06T16:35:14Z</time></trkpt><trkpt lat="43.30964540975716" lon="11.516069300311269"><ele>292.75</ele><time>2026-04-06T16:35:15Z</time></trkpt><trkpt lat="43.30975591676938" lon="11.515925405659951"><ele>291.5</ele><time>2026-04-06T16:35:16Z</time></trkpt><trkpt lat="43.3098612657685" lon="11.515789975857906"><ele>290.25</ele><time>2026-04-06T16:35:17Z</time></trkpt><trkpt lat="43.309977947104315" lon="11.515677875123393"><ele>289.0</ele><time>2026-04-06T16:35:18Z</time></trkpt><trkpt lat="43.31009333125686" lon="11.515559391760975"><ele>289.0</ele><time>2026-04-06T16:35:19Z</time></trkpt><trkpt lat="43.31022072528849" lon="11.515462952647383"><ele>289.0</ele><time>2026-04-06T16:35:20Z</time></trkpt><trkpt lat="43.31036853240484" lon="11.515384498332752"><ele>289.0</ele><time>2026-04-06T16:35:21Z</time></trkpt><trkpt lat="43.31053074439648" lon="11.515297233372669"><ele>287.0</ele><time>2026-04-06T16:35:22Z</time></trkpt><trkpt lat="43.3107004757296" lon="11.515241634987403"><ele>285.0</ele><time>2026-04-06T16:35:23Z</time></trkpt><trkpt lat="43.31086188977245" lon="11.515194811019736"><ele>283.0</ele><time>2026-04-06T16:35:24Z</time></trkpt><trkpt lat="43.31102285910252" lon="11.515169744318472"><ele>283.0</ele><time>2026-04-06T16:35:25Z</time></trkpt><trkpt lat="43.311177901031186" lon="11.515157071935961"><ele>283.0</ele><time>2026-04-06T16:35:26Z</time></trkpt><trkpt lat="43.311334203765306" lon="11.51515211513052"><ele>283.0</ele><time>2026-04-06T16:35:27Z</time></trkpt><trkpt lat="43.31147982691488" lon="11.515156920645683"><ele>285.0</ele><time>2026-04-06T16:35:28Z</time></trkpt><trkpt lat="43.31161363869576" lon="11.515162774457066"><ele>287.0</ele><time>2026-04-06T16:35:29Z</time></trkpt><trkpt lat="43.31173835019283" lon="11.515159889040481"><ele>289.0</ele><time>2026-04-06T16:35:30Z</time></trkpt><trkpt lat="43.31185389385472" lon="11.515141234584323"><ele>291.0</ele><time>2026-04-06T16:35:31Z</time></trkpt><trkpt lat="43.31195665645282" lon="11.515085093887823"><ele>291.0</ele><time>2026-04-06T16:35:32Z</time></trkpt><trkpt lat="43.31204534696319" lon="11.514982856187773"><ele>291.0</ele><time>2026-04-06T16:35:33Z</time></trkpt><trkpt lat="43.3121264286831" lon="11.514845098571685"><ele>291.0</ele><time>2026-04-06T16:35:34Z</time></trkpt><trkpt lat="43.312196380741334" lon="11.514688773939774"><ele>291.0</ele><time>2026-04-06T16:35:35Z</time></trkpt><trkpt lat="43.312270438996435" lon="11.514566125507068"><ele>292.5</ele><time>2026-04-06T16:35:36Z</time></trkpt><trkpt lat="43.31231805048575" lon="11.514426388039361"><ele>294.0</ele><time>2026-04-06T16:35:37Z</time></trkpt><trkpt lat="43.31239470894761" lon="11.514300080650935"><ele>295.5</ele><time>2026-04-06T16:35:38Z</time></trkpt><trkpt lat="43.31249364218965" lon="11.514181194634576"><ele>297.0</ele><time>2026-04-06T16:35:39Z</time></trkpt><trkpt lat="43.31260626787959" lon="11.514074237048192"><ele>297.0</ele><time>2026-04-06T16:35:40Z</time></trkpt><trkpt lat="43.312724396906134" lon="11.513983680482692"><ele>297.0</ele><time>2026-04-06T16:35:41Z</time></trkpt><trkpt lat="43.3128445905079" lon="11.513902908240052"><ele>297.0</ele><time>2026-04-06T16:35:42Z</time></trkpt><trkpt lat="43.31296636010809" lon="11.513847635550077"><ele>297.0</ele><time>2026-04-06T16:35:43Z</time></trkpt><trkpt lat="43.31309451879698" lon="11.513826781585822"><ele>297.5</ele><time>2026-04-06T16:35:44Z</time></trkpt><trkpt lat="43.31322407694585" lon="11.513839266707912"><ele>298.0</ele><time>2026-04-06T16:35:45Z</time></trkpt><trkpt lat="43.3133585572595" lon="11.513885770056168"><ele>298.5</ele><time>2026-04-06T16:35:46Z</time></trkpt><trkpt lat="43.31347184516484" lon="11.513975929206891"><ele>299.0</ele><time>2026-04-06T16:35:47Z</time></trkpt><trkpt lat="43.313587469840115" lon="11.514036394601298"><ele>299.0</ele><time>2026-04-06T16:35:48Z</time></trkpt><trkpt lat="43.31369196509301" lon="11.514130637795722"><ele>299.0</ele><time>2026-04-06T16:35:49Z</time></trkpt><trkpt lat="43.313792473477974" lon="11.51422798191691"><ele>299.0</ele><time>2026-04-06T16:35:50Z</time></trkpt><trkpt lat="43.31388098963264" lon="11.514324535069067"><ele>299.0</ele><time>2026-04-06T16:35:51Z</time></trkpt><trkpt lat="43.31396109522582" lon="11.514428667054528"><ele>299.0</ele><time>2026-04-06T16:35:52Z</time></trkpt><trkpt lat="43.31403881518869" lon="11.514533314131661"><ele>299.0</ele><time>2026-04-06T16:35:53Z</time></trkpt><trkpt lat="43.314111878290134" lon="11.514614768821426"><ele>299.0</ele><time>2026-04-06T16:35:54Z</time></trkpt><trkpt lat="43.31419196701586" lon="11.514662451635148"><ele>299.0</ele><time>2026-04-06T16:35:55Z</time></trkpt><trkpt lat="43.31428253599362" lon="11.51469245720185"><ele>299.0</ele><time>2026-04-06T16:35:56Z</time></trkpt><trkpt lat="43.31438281979572" lon="11.514625321369321"><ele>299.25</ele><time>2026-04-06T16:35:57Z</time></trkpt><trkpt lat="43.314477049192035" lon="11.514544767658274"><ele>299.5</ele><time>2026-04-06T16:35:58Z</time></trkpt><trkpt lat="43.31456200524496" lon="11.51442970360657"><ele>299.75</ele><time>2026-04-06T16:35:59Z</time></trkpt><trkpt lat="43.31463585638087" lon="11.514293790142002"><ele>300.0</ele><time>2026-04-06T16:36:00Z</time></trkpt><trkpt lat="43.314694376888376" lon="11.514153314804151"><ele>300.8</ele><time>2026-04-06T16:36:01Z</time></trkpt><trkpt lat="43.31474794226438" lon="11.514034009779651"><ele>301.6</ele><time>2026-04-06T16:36:02Z</time></trkpt><trkpt lat="43.31482560564318" lon="11.513938619927352"><ele>302.4</ele><time>2026-04-06T16:36:03Z</time></trkpt><trkpt lat="43.314938690646805" lon="11.513917848583333"><ele>303.2</ele><time>2026-04-06T16:36:04Z</time></trkpt><trkpt lat="43.315043269665146" lon="11.51389537857754"><ele>304.0</ele><time>2026-04-06T16:36:05Z</time></trkpt><trkpt lat="43.3151561149133" lon="11.513873248250661"><ele>304.0</ele><time>2026-04-06T16:36:06Z</time></trkpt><trkpt lat="43.31525410879354" lon="11.51387893887362"><ele>304.0</ele><time>2026-04-06T16:36:07Z</time></trkpt><trkpt lat="43.31534058890675" lon="11.513883648090468"><ele>304.0</ele><time>2026-04-06T16:36:08Z</time></trkpt><trkpt lat="43.31541959443706" lon="11.513903192576636"><ele>304.0</ele><time>2026-04-06T16:36:09Z</time></trkpt><trkpt lat="43.31548536610751" lon="11.513955001159692"><ele>304.0</ele><time>2026-04-06T16:36:10Z</time></trkpt><trkpt lat="43.31552928645068" lon="11.5140414970016"><ele>304.0</ele><time>2026-04-06T16:36:11Z</time></trkpt><trkpt lat="43.315549267441334" lon="11.514168065437708"><ele>304.0</ele><time>2026-04-06T16:36:12Z</time></trkpt><trkpt lat="43.31556114633179" lon="11.51432251243784"><ele>304.0</ele><time>2026-04-06T16:36:13Z</time></trkpt><trkpt lat="43.31556704957987" lon="11.514482862664611"><ele>304.0</ele><time>2026-04-06T16:36:13.999Z</time></trkpt><trkpt lat="43.31558421552983" lon="11.514659415709207"><ele>304.0</ele><time>2026-04-06T16:36:14.999Z</time></trkpt><trkpt lat="43.31562684142448" lon="11.514833716639393"><ele>302.75</ele><time>2026-04-06T16:36:15.999Z</time></trkpt><trkpt lat="43.31569736379578" lon="11.514996373378265"><ele>301.5</ele><time>2026-04-06T16:36:16.999Z</time></trkpt><trkpt lat="43.31579937942408" lon="11.515138160486062"><ele>300.25</ele><time>2026-04-06T16:36:17.999Z</time></trkpt><trkpt lat="43.315917463743155" lon="11.51523748925282"><ele>299.0</ele><time>2026-04-06T16:36:18.999Z</time></trkpt><trkpt lat="43.316040519721824" lon="11.515302213988925"><ele>299.0</ele><time>2026-04-06T16:36:19.999Z</time></trkpt><trkpt lat="43.316178636381544" lon="11.515301940350641"><ele>299.0</ele><time>2026-04-06T16:36:20.999Z</time></trkpt><trkpt lat="43.31632562969495" lon="11.515267618884849"><ele>299.0</ele><time>2026-04-06T16:36:21.999Z</time></trkpt><trkpt lat="43.31648720949754" lon="11.515203305395865"><ele>299.33333333333337</ele><time>2026-04-06T16:36:22.999Z</time></trkpt><trkpt lat="43.31664729780421" lon="11.51513426756438"><ele>299.6666666666667</ele><time>2026-04-06T16:36:23.999Z</time></trkpt><trkpt lat="43.31680631697418" lon="11.515059726554792"><ele>300.0</ele><time>2026-04-06T16:36:24.999Z</time></trkpt><trkpt lat="43.316956609924745" lon="11.515001762886328"><ele>300.0</ele><time>2026-04-06T16:36:25.999Z</time></trkpt><trkpt lat="43.31709367590482" lon="11.514939804291155"><ele>300.0</ele><time>2026-04-06T16:36:26.999Z</time></trkpt><trkpt lat="43.3172163586153" lon="11.51489127229013"><ele>300.0</ele><time>2026-04-06T16:36:27.999Z</time></trkpt><trkpt lat="43.3173188599779" lon="11.514824911733959"><ele>300.0</ele><time>2026-04-06T16:36:28.999Z</time></trkpt><trkpt lat="43.31741298591047" lon="11.514752461235206"><ele>300.25</ele><time>2026-04-06T16:36:29.999Z</time></trkpt><trkpt lat="43.31749939713128" lon="11.514651061050618"><ele>300.5</ele><time>2026-04-06T16:36:30.999Z</time></trkpt><trkpt lat="43.31756952158399" lon="11.514509714535249"><ele>300.75</ele><time>2026-04-06T16:36:31.999Z</time></trkpt><trkpt lat="43.317625589135986" lon="11.514335880969645"><ele>301.0</ele><time>2026-04-06T16:36:32.999Z</time></trkpt><trkpt lat="43.3176697493827" lon="11.514144421289291"><ele>301.0</ele><time>2026-04-06T16:36:33.999Z</time></trkpt><trkpt lat="43.3177033467034" lon="11.513957789380752"><ele>301.0</ele><time>2026-04-06T16:36:34.999Z</time></trkpt><trkpt lat="43.31773503235049" lon="11.51379596081467"><ele>301.0</ele><time>2026-04-06T16:36:35.999Z</time></trkpt><trkpt lat="43.31778218358982" lon="11.513660380087659"><ele>301.0</ele><time>2026-04-06T16:36:37Z</time></trkpt><trkpt lat="43.31785280417811" lon="11.513550120595347"><ele>300.40000000000003</ele><time>2026-04-06T16:36:38Z</time></trkpt><trkpt lat="43.317945872519964" lon="11.51348491051432"><ele>299.8</ele><time>2026-04-06T16:36:39Z</time></trkpt><trkpt lat="43.3180407576573" lon="11.51344233419894"><ele>299.20000000000005</ele><time>2026-04-06T16:36:40Z</time></trkpt><trkpt lat="43.318139169968944" lon="11.513391482056424"><ele>298.6</ele><time>2026-04-06T16:36:41Z</time></trkpt><trkpt lat="43.31824570303893" lon="11.513376700892763"><ele>298.0</ele><time>2026-04-06T16:36:42Z</time></trkpt><trkpt lat="43.318355095322424" lon="11.513382876836141"><ele>298.0</ele><time>2026-04-06T16:36:43Z</time></trkpt><trkpt lat="43.31846475059247" lon="11.513409331366306"><ele>298.0</ele><time>2026-04-06T16:36:44Z</time></trkpt><trkpt lat="43.318568117709795" lon="11.51347408453387"><ele>298.0</ele><time>2026-04-06T16:36:45Z</time></trkpt><trkpt lat="43.318644717265656" lon="11.513564129272174"><ele>298.0</ele><time>2026-04-06T16:36:46Z</time></trkpt><trkpt lat="43.31870323149477" lon="11.513683022990348"><ele>298.0</ele><time>2026-04-06T16:36:47Z</time></trkpt><trkpt lat="43.31873881604524" lon="11.513824967130626"><ele>298.4</ele><time>2026-04-06T16:36:48Z</time></trkpt><trkpt lat="43.318746039850325" lon="11.513966881241636"><ele>298.8</ele><time>2026-04-06T16:36:49Z</time></trkpt><trkpt lat="43.318722174043174" lon="11.514110674332771"><ele>299.2</ele><time>2026-04-06T16:36:50Z</time></trkpt><trkpt lat="43.318684923439136" lon="11.514245193518287"><ele>299.6</ele><time>2026-04-06T16:36:51Z</time></trkpt><trkpt lat="43.31862469277282" lon="11.514365693201203"><ele>300.0</ele><time>2026-04-06T16:36:52Z</time></trkpt><trkpt lat="43.318548566611796" lon="11.514461615283308"><ele>300.0</ele><time>2026-04-06T16:36:53Z</time></trkpt><trkpt lat="43.318462854084615" lon="11.514541221456989"><ele>300.0</ele><time>2026-04-06T16:36:54Z</time></trkpt><trkpt lat="43.31838647788106" lon="11.514616635399824"><ele>300.0</ele><time>2026-04-06T16:36:55Z</time></trkpt><trkpt lat="43.31833810216982" lon="11.514697832614306"><ele>300.0</ele><time>2026-04-06T16:36:56Z</time></trkpt><trkpt lat="43.31830853876386" lon="11.514794804100523"><ele>300.0</ele><time>2026-04-06T16:36:57Z</time></trkpt><trkpt lat="43.31831676475428" lon="11.514900743521475"><ele>300.0</ele><time>2026-04-06T16:36:58Z</time></trkpt><trkpt lat="43.31835161207783" lon="11.5149894422468"><ele>299.6</ele><time>2026-04-06T16:36:59Z</time></trkpt><trkpt lat="43.31842149525688" lon="11.515026914219346"><ele>299.2</ele><time>2026-04-06T16:37:00Z</time></trkpt><trkpt lat="43.31848591241243" lon="11.515046929850856"><ele>298.8</ele><time>2026-04-06T16:37:01Z</time></trkpt><trkpt lat="43.31856382969776" lon="11.51494702804702"><ele>298.4</ele><time>2026-04-06T16:37:02Z</time></trkpt><trkpt lat="43.318626312316745" lon="11.514845363423206"><ele>298.0</ele><time>2026-04-06T16:37:03Z</time></trkpt><trkpt lat="43.31869176236689" lon="11.514714134489639"><ele>298.0</ele><time>2026-04-06T16:37:04Z</time></trkpt><trkpt lat="43.318761658533624" lon="11.514588423651675"><ele>298.0</ele><time>2026-04-06T16:37:05Z</time></trkpt><trkpt lat="43.318839951548405" lon="11.514473084313723"><ele>298.0</ele><time>2026-04-06T16:37:06Z</time></trkpt><trkpt lat="43.3189185030643" lon="11.514346472400677"><ele>298.0</ele><time>2026-04-06T16:37:07Z</time></trkpt><trkpt lat="43.318974927942584" lon="11.514207904028657"><ele>296.75</ele><time>2026-04-06T16:37:08Z</time></trkpt><trkpt lat="43.31900192247409" lon="11.514041126747069"><ele>295.5</ele><time>2026-04-06T16:37:09Z</time></trkpt><trkpt lat="43.31900735284997" lon="11.513857502213215"><ele>294.25</ele><time>2026-04-06T16:37:10Z</time></trkpt><trkpt lat="43.318989218736945" lon="11.51367638206208"><ele>293.0</ele><time>2026-04-06T16:37:11Z</time></trkpt><trkpt lat="43.318979164997636" lon="11.51351472364702"><ele>292.25</ele><time>2026-04-06T16:37:12Z</time></trkpt><trkpt lat="43.3189932610806" lon="11.513365126630974"><ele>291.5</ele><time>2026-04-06T16:37:13Z</time></trkpt><trkpt lat="43.31903655726762" lon="11.513220961547935"><ele>290.75</ele><time>2026-04-06T16:37:14Z</time></trkpt><trkpt lat="43.319096587779754" lon="11.513082558780757"><ele>290.0</ele><time>2026-04-06T16:37:15Z</time></trkpt><trkpt lat="43.31916944773665" lon="11.512945481501568"><ele>287.75</ele><time>2026-04-06T16:37:16Z</time></trkpt><trkpt lat="43.31923235211281" lon="11.512780013476728"><ele>285.5</ele><time>2026-04-06T16:37:17Z</time></trkpt><trkpt lat="43.31926171417818" lon="11.512584257639764"><ele>283.25</ele><time>2026-04-06T16:37:18Z</time></trkpt><trkpt lat="43.31925816196216" lon="11.512364042420167"><ele>281.0</ele><time>2026-04-06T16:37:19Z</time></trkpt><trkpt lat="43.31924277001036" lon="11.512116817030075"><ele>278.33333333333337</ele><time>2026-04-06T16:37:20Z</time></trkpt><trkpt lat="43.31921988163122" lon="11.511887580514236"><ele>275.6666666666667</ele><time>2026-04-06T16:37:21Z</time></trkpt><trkpt lat="43.31918978083767" lon="11.511678726723444"><ele>273.0</ele><time>2026-04-06T16:37:22Z</time></trkpt><trkpt lat="43.31915569954479" lon="11.511490396829625"><ele>273.0</ele><time>2026-04-06T16:37:23Z</time></trkpt><trkpt lat="43.319125691286665" lon="11.511310826458763"><ele>273.0</ele><time>2026-04-06T16:37:24Z</time></trkpt><trkpt lat="43.31912373329293" lon="11.511125163770604"><ele>273.0</ele><time>2026-04-06T16:37:25Z</time></trkpt><trkpt lat="43.31911094984376" lon="11.51093309676019"><ele>273.0</ele><time>2026-04-06T16:37:26Z</time></trkpt><trkpt lat="43.319137898613796" lon="11.510746304197145"><ele>270.75</ele><time>2026-04-06T16:37:27Z</time></trkpt><trkpt lat="43.319187098113616" lon="11.51057861976724"><ele>268.5</ele><time>2026-04-06T16:37:28Z</time></trkpt><trkpt lat="43.319285694964556" lon="11.510422633506604"><ele>266.25</ele><time>2026-04-06T16:37:29Z</time></trkpt><trkpt lat="43.31938934841639" lon="11.510250385137272"><ele>264.0</ele><time>2026-04-06T16:37:30Z</time></trkpt><trkpt lat="43.319488351798434" lon="11.510067785585315"><ele>261.5</ele><time>2026-04-06T16:37:31Z</time></trkpt><trkpt lat="43.319589856832486" lon="11.509911181182037"><ele>259.0</ele><time>2026-04-06T16:37:32Z</time></trkpt><trkpt lat="43.319676313479015" lon="11.509750663387504"><ele>256.5</ele><time>2026-04-06T16:37:33Z</time></trkpt><trkpt lat="43.31974144739377" lon="11.509578173666778"><ele>254.0</ele><time>2026-04-06T16:37:34Z</time></trkpt><trkpt lat="43.319785069591816" lon="11.509394197631478"><ele>252.25</ele><time>2026-04-06T16:37:35Z</time></trkpt><trkpt lat="43.31982018547528" lon="11.509209321809463"><ele>250.5</ele><time>2026-04-06T16:37:36Z</time></trkpt><trkpt lat="43.319847443126" lon="11.509019444456092"><ele>248.75</ele><time>2026-04-06T16:37:37Z</time></trkpt><trkpt lat="43.3198627675033" lon="11.50882712042688"><ele>247.0</ele><time>2026-04-06T16:37:38Z</time></trkpt><trkpt lat="43.3198641615262" lon="11.508631687163264"><ele>247.0</ele><time>2026-04-06T16:37:39Z</time></trkpt><trkpt lat="43.3198513456268" lon="11.508418477930638"><ele>247.0</ele><time>2026-04-06T16:37:40Z</time></trkpt><trkpt lat="43.31983122794913" lon="11.508202911821575"><ele>247.0</ele><time>2026-04-06T16:37:41Z</time></trkpt><trkpt lat="43.3198092270086" lon="11.507988688170341"><ele>246.33333333333331</ele><time>2026-04-06T16:37:42Z</time></trkpt><trkpt lat="43.31979016700406" lon="11.507779172770391"><ele>245.66666666666669</ele><time>2026-04-06T16:37:43Z</time></trkpt><trkpt lat="43.31976961319735" lon="11.50756922103561"><ele>245.0</ele><time>2026-04-06T16:37:44Z</time></trkpt><trkpt lat="43.319748310998015" lon="11.507362487993726"><ele>248.5</ele><time>2026-04-06T16:37:45Z</time></trkpt><trkpt lat="43.31972688221856" lon="11.507154105980023"><ele>252.0</ele><time>2026-04-06T16:37:46Z</time></trkpt><trkpt lat="43.31970856714818" lon="11.506955902913042"><ele>255.5</ele><time>2026-04-06T16:37:47Z</time></trkpt><trkpt lat="43.31969027703455" lon="11.506772609999901"><ele>259.0</ele><time>2026-04-06T16:37:48Z</time></trkpt><trkpt lat="43.319674748300685" lon="11.506605498297658"><ele>259.0</ele><time>2026-04-06T16:37:49Z</time></trkpt><trkpt lat="43.31966785237053" lon="11.506461760445418"><ele>259.0</ele><time>2026-04-06T16:37:50Z</time></trkpt><trkpt lat="43.319680267237764" lon="11.506335037240675"><ele>259.0</ele><time>2026-04-06T16:37:51Z</time></trkpt><trkpt lat="43.319719133973734" lon="11.506224837347034"><ele>259.0</ele><time>2026-04-06T16:37:52Z</time></trkpt><trkpt lat="43.319777327991" lon="11.506133730272104"><ele>259.0</ele><time>2026-04-06T16:37:53Z</time></trkpt><trkpt lat="43.31986416761217" lon="11.506056649933546"><ele>255.25</ele><time>2026-04-06T16:37:54Z</time></trkpt><trkpt lat="43.31997717511456" lon="11.50603253955608"><ele>251.5</ele><time>2026-04-06T16:37:55Z</time></trkpt><trkpt lat="43.32009404746801" lon="11.505986922785313"><ele>247.75</ele><time>2026-04-06T16:37:56Z</time></trkpt><trkpt lat="43.32021224997961" lon="11.50591834554711"><ele>244.0</ele><time>2026-04-06T16:37:57Z</time></trkpt><trkpt lat="43.32034451775561" lon="11.505892679804886"><ele>244.0</ele><time>2026-04-06T16:37:58Z</time></trkpt><trkpt lat="43.320475312951196" lon="11.505842700164647"><ele>244.0</ele><time>2026-04-06T16:37:59Z</time></trkpt><trkpt lat="43.32059647028003" lon="11.50577352864328"><ele>244.0</ele><time>2026-04-06T16:38:00Z</time></trkpt><trkpt lat="43.32070733799964" lon="11.505736926366172"><ele>244.0</ele><time>2026-04-06T16:38:01Z</time></trkpt><trkpt lat="43.320808792307545" lon="11.505700531559748"><ele>244.6</ele><time>2026-04-06T16:38:02Z</time></trkpt><trkpt lat="43.32089978125899" lon="11.505697399572638"><ele>245.2</ele><time>2026-04-06T16:38:03Z</time></trkpt><trkpt lat="43.320964434738094" lon="11.505687380066163"><ele>245.79999999999998</ele><time>2026-04-06T16:38:04Z</time></trkpt><trkpt lat="43.32105175527514" lon="11.505676886332301"><ele>246.39999999999998</ele><time>2026-04-06T16:38:06Z</time></trkpt><trkpt lat="43.321038323765094" lon="11.505403548589067"><ele>247.0</ele><time>2026-04-06T16:38:08Z</time></trkpt><trkpt lat="43.32099392401365" lon="11.505270554723772"><ele>247.25</ele><time>2026-04-06T16:38:09Z</time></trkpt><trkpt lat="43.32094781314979" lon="11.505134713354508"><ele>247.5</ele><time>2026-04-06T16:38:10Z</time></trkpt><trkpt lat="43.32089631625986" lon="11.504971232761793"><ele>247.75</ele><time>2026-04-06T16:38:11Z</time></trkpt><trkpt lat="43.32085064704939" lon="11.50481430495621"><ele>248.0</ele><time>2026-04-06T16:38:12Z</time></trkpt><trkpt lat="43.32079866810479" lon="11.504643979937477"><ele>247.25</ele><time>2026-04-06T16:38:13Z</time></trkpt><trkpt lat="43.320743109763896" lon="11.504467789449677"><ele>246.5</ele><time>2026-04-06T16:38:14Z</time></trkpt><trkpt lat="43.320685461081354" lon="11.504304772165842"><ele>245.75</ele><time>2026-04-06T16:38:15Z</time></trkpt><trkpt lat="43.320616700527545" lon="11.504167465761395"><ele>245.0</ele><time>2026-04-06T16:38:16Z</time></trkpt><trkpt lat="43.320532017998694" lon="11.504065662608673"><ele>244.2</ele><time>2026-04-06T16:38:17Z</time></trkpt><trkpt lat="43.32043696112183" lon="11.50400839613553"><ele>243.4</ele><time>2026-04-06T16:38:18Z</time></trkpt><trkpt lat="43.32032483107078" lon="11.504036078567987"><ele>242.60000000000002</ele><time>2026-04-06T16:38:18.999Z</time></trkpt><trkpt lat="43.32021208827191" lon="11.503989635271067"><ele>241.8</ele><time>2026-04-06T16:38:19.999Z</time></trkpt><trkpt lat="43.320101948728606" lon="11.50396639651893"><ele>241.0</ele><time>2026-04-06T16:38:20.999Z</time></trkpt><trkpt lat="43.31999883968665" lon="11.503903886069557"><ele>241.0</ele><time>2026-04-06T16:38:21.999Z</time></trkpt><trkpt lat="43.31989871893293" lon="11.503798941623634"><ele>241.0</ele><time>2026-04-06T16:38:22.999Z</time></trkpt><trkpt lat="43.31980663706691" lon="11.503661342019457"><ele>241.0</ele><time>2026-04-06T16:38:23.999Z</time></trkpt><trkpt lat="43.31971376179833" lon="11.503494650945228"><ele>241.0</ele><time>2026-04-06T16:38:24.999Z</time></trkpt><trkpt lat="43.31965999837159" lon="11.503238913271888"><ele>240.66666666666666</ele><time>2026-04-06T16:38:25.999Z</time></trkpt><trkpt lat="43.31958062798859" lon="11.50297946354874"><ele>240.33333333333331</ele><time>2026-04-06T16:38:26.999Z</time></trkpt><trkpt lat="43.31948045945922" lon="11.50268360842086"><ele>240.0</ele><time>2026-04-06T16:38:27.999Z</time></trkpt><trkpt lat="43.31936028603517" lon="11.502345439221132"><ele>240.5</ele><time>2026-04-06T16:38:28.999Z</time></trkpt><trkpt lat="43.31924637884378" lon="11.501995889460193"><ele>241.0</ele><time>2026-04-06T16:38:29.999Z</time></trkpt><trkpt lat="43.31913860064891" lon="11.501639074326766"><ele>241.5</ele><time>2026-04-06T16:38:30.999Z</time></trkpt><trkpt lat="43.31902402009265" lon="11.501230455548683"><ele>242.0</ele><time>2026-04-06T16:38:31.999Z</time></trkpt><trkpt lat="43.31891460373778" lon="11.500850765457507"><ele>240.5</ele><time>2026-04-06T16:38:32.999Z</time></trkpt><trkpt lat="43.31881670502448" lon="11.500496240360254"><ele>239.0</ele><time>2026-04-06T16:38:33.999Z</time></trkpt><trkpt lat="43.31875009779169" lon="11.500199020063183"><ele>239.0</ele><time>2026-04-06T16:38:34.999Z</time></trkpt><trkpt lat="43.31868649671266" lon="11.499855715600933"><ele>239.0</ele><time>2026-04-06T16:38:35.999Z</time></trkpt><trkpt lat="43.318623558579986" lon="11.499466288508339"><ele>239.0</ele><time>2026-04-06T16:38:36.999Z</time></trkpt><trkpt lat="43.31859039249872" lon="11.499118462962764"><ele>239.0</ele><time>2026-04-06T16:38:37.999Z</time></trkpt><trkpt lat="43.31856757670947" lon="11.498777108058395"><ele>240.0</ele><time>2026-04-06T16:38:38.999Z</time></trkpt><trkpt lat="43.318552164073004" lon="11.49844147783982"><ele>241.0</ele><time>2026-04-06T16:38:39.999Z</time></trkpt><trkpt lat="43.31854880755185" lon="11.498103997794841"><ele>240.0</ele><time>2026-04-06T16:38:40.999Z</time></trkpt><trkpt lat="43.31855596037675" lon="11.497764082977778"><ele>239.0</ele><time>2026-04-06T16:38:42Z</time></trkpt><trkpt lat="43.31857179771703" lon="11.497419421828335"><ele>238.5</ele><time>2026-04-06T16:38:43Z</time></trkpt><trkpt lat="43.318598545482395" lon="11.497053303472347"><ele>238.0</ele><time>2026-04-06T16:38:44Z</time></trkpt><trkpt lat="43.31864586898325" lon="11.496677363358934"><ele>238.0</ele><time>2026-04-06T16:38:45Z</time></trkpt><trkpt lat="43.31871254278537" lon="11.496308438391653"><ele>238.0</ele><time>2026-04-06T16:38:46Z</time></trkpt><trkpt lat="43.31879384929738" lon="11.49594277272193"><ele>238.0</ele><time>2026-04-06T16:38:47Z</time></trkpt><trkpt lat="43.31888724351157" lon="11.495582623792414"><ele>238.0</ele><time>2026-04-06T16:38:48Z</time></trkpt><trkpt lat="43.318989202510885" lon="11.495226174532581"><ele>239.0</ele><time>2026-04-06T16:38:49Z</time></trkpt><trkpt lat="43.31909175120794" lon="11.494869650784782"><ele>240.0</ele><time>2026-04-06T16:38:50Z</time></trkpt><trkpt lat="43.31919119306425" lon="11.494518333270724"><ele>237.5</ele><time>2026-04-06T16:38:51Z</time></trkpt><trkpt lat="43.31928837131606" lon="11.494175689246"><ele>235.0</ele><time>2026-04-06T16:38:52Z</time></trkpt><trkpt lat="43.319386145561374" lon="11.493824242079574"><ele>235.5</ele><time>2026-04-06T16:38:53Z</time></trkpt><trkpt lat="43.31948137646697" lon="11.493467004577665"><ele>236.0</ele><time>2026-04-06T16:38:54Z</time></trkpt><trkpt lat="43.3195686020897" lon="11.493102711252197"><ele>238.5</ele><time>2026-04-06T16:38:55Z</time></trkpt><trkpt lat="43.31964602694126" lon="11.492734872144835"><ele>241.0</ele><time>2026-04-06T16:38:56Z</time></trkpt><trkpt lat="43.31971097303168" lon="11.492357957632056"><ele>237.0</ele><time>2026-04-06T16:38:57Z</time></trkpt><trkpt lat="43.31976128351581" lon="11.491977593057715"><ele>233.0</ele><time>2026-04-06T16:38:57.999Z</time></trkpt><trkpt lat="43.319805919696094" lon="11.49159158251576"><ele>232.5</ele><time>2026-04-06T16:38:58.999Z</time></trkpt><trkpt lat="43.31983843229175" lon="11.49120043308256"><ele>232.0</ele><time>2026-04-06T16:38:59.999Z</time></trkpt><trkpt lat="43.3198526568894" lon="11.49081067523893"><ele>233.0</ele><time>2026-04-06T16:39:00.999Z</time></trkpt><trkpt lat="43.31985855746793" lon="11.490414997339279"><ele>234.0</ele><time>2026-04-06T16:39:01.999Z</time></trkpt><trkpt lat="43.31986103320281" lon="11.490021473623624"><ele>234.0</ele><time>2026-04-06T16:39:02.999Z</time></trkpt><trkpt lat="43.31986333572024" lon="11.489629720215722"><ele>234.0</ele><time>2026-04-06T16:39:03.999Z</time></trkpt><trkpt lat="43.319867193277844" lon="11.489239006539519"><ele>233.5</ele><time>2026-04-06T16:39:04.999Z</time></trkpt><trkpt lat="43.319873924625" lon="11.488843844987125"><ele>233.0</ele><time>2026-04-06T16:39:05.999Z</time></trkpt><trkpt lat="43.31987875293883" lon="11.488450107732175"><ele>232.0</ele><time>2026-04-06T16:39:06.999Z</time></trkpt><trkpt lat="43.31988143949506" lon="11.488057624489464"><ele>231.0</ele><time>2026-04-06T16:39:07.999Z</time></trkpt><trkpt lat="43.31988395337212" lon="11.487666771369167"><ele>231.0</ele><time>2026-04-06T16:39:08.999Z</time></trkpt><trkpt lat="43.31988536099132" lon="11.487272133402202"><ele>231.0</ele><time>2026-04-06T16:39:09.999Z</time></trkpt><trkpt lat="43.31988780451651" lon="11.486880342437738"><ele>230.5</ele><time>2026-04-06T16:39:10.999Z</time></trkpt><trkpt lat="43.31989003857593" lon="11.4864877585027"><ele>230.0</ele><time>2026-04-06T16:39:11.999Z</time></trkpt><trkpt lat="43.31989310214754" lon="11.486091406800533"><ele>230.0</ele><time>2026-04-06T16:39:12.999Z</time></trkpt><trkpt lat="43.319898660229825" lon="11.485696784934508"><ele>230.0</ele><time>2026-04-06T16:39:13.999Z</time></trkpt><trkpt lat="43.31990412271302" lon="11.485301516507029"><ele>229.5</ele><time>2026-04-06T16:39:14.999Z</time></trkpt><trkpt lat="43.319908530122454" lon="11.484902636151858"><ele>229.0</ele><time>2026-04-06T16:39:15.999Z</time></trkpt><trkpt lat="43.31991418346304" lon="11.484506187235043"><ele>229.0</ele><time>2026-04-06T16:39:16.999Z</time></trkpt><trkpt lat="43.31991800397674" lon="11.484107807579722"><ele>229.0</ele><time>2026-04-06T16:39:17.999Z</time></trkpt><trkpt lat="43.3199202095267" lon="11.483709429377562"><ele>228.0</ele><time>2026-04-06T16:39:18.999Z</time></trkpt><trkpt lat="43.31991967496625" lon="11.483311351191123"><ele>227.0</ele><time>2026-04-06T16:39:19.999Z</time></trkpt><trkpt lat="43.31991094353982" lon="11.482911149630812"><ele>226.0</ele><time>2026-04-06T16:39:20.999Z</time></trkpt><trkpt lat="43.319891608723474" lon="11.482509165804004"><ele>225.0</ele><time>2026-04-06T16:39:21.999Z</time></trkpt><trkpt lat="43.319858886709945" lon="11.482114279296662"><ele>225.0</ele><time>2026-04-06T16:39:22.999Z</time></trkpt><trkpt lat="43.31980905041542" lon="11.481717344727903"><ele>225.0</ele><time>2026-04-06T16:39:23.999Z</time></trkpt><trkpt lat="43.3197507101466" lon="11.48133050140096"><ele>231.5</ele><time>2026-04-06T16:39:24.999Z</time></trkpt><trkpt lat="43.31967018731987" lon="11.480947592225435"><ele>238.0</ele><time>2026-04-06T16:39:25.999Z</time></trkpt><trkpt lat="43.31957776274389" lon="11.480568243257837"><ele>235.5</ele><time>2026-04-06T16:39:26.999Z</time></trkpt><trkpt lat="43.31946500316101" lon="11.480202026339525"><ele>233.0</ele><time>2026-04-06T16:39:27.999Z</time></trkpt><trkpt lat="43.31933449806362" lon="11.479847716024219"><ele>231.0</ele><time>2026-04-06T16:39:28.999Z</time></trkpt><trkpt lat="43.319193393459216" lon="11.479501531690124"><ele>229.0</ele><time>2026-04-06T16:39:29.999Z</time></trkpt><trkpt lat="43.319036340301956" lon="11.479174292843052"><ele>230.5</ele><time>2026-04-06T16:39:30.999Z</time></trkpt><trkpt lat="43.31885935232929" lon="11.478860855326774"><ele>232.0</ele><time>2026-04-06T16:39:31.999Z</time></trkpt><trkpt lat="43.318663675892864" lon="11.478563573245632"><ele>228.0</ele><time>2026-04-06T16:39:32.999Z</time></trkpt><trkpt lat="43.318457888296486" lon="11.47828082591359"><ele>224.0</ele><time>2026-04-06T16:39:33.999Z</time></trkpt><trkpt lat="43.318239643739176" lon="11.478012611425731"><ele>223.5</ele><time>2026-04-06T16:39:34.999Z</time></trkpt><trkpt lat="43.31801124951928" lon="11.477760554743359"><ele>223.0</ele><time>2026-04-06T16:39:35.999Z</time></trkpt><trkpt lat="43.31776975291898" lon="11.477526761777177"><ele>223.0</ele><time>2026-04-06T16:39:36.999Z</time></trkpt><trkpt lat="43.31751259563478" lon="11.477323041928662"><ele>223.0</ele><time>2026-04-06T16:39:37.999Z</time></trkpt><trkpt lat="43.31724778440685" lon="11.477133792484645"><ele>226.5</ele><time>2026-04-06T16:39:38.999Z</time></trkpt><trkpt lat="43.31697430834471" lon="11.476964165854117"><ele>230.0</ele><time>2026-04-06T16:39:39.999Z</time></trkpt><trkpt lat="43.316700686630966" lon="11.476811947900957"><ele>230.0</ele><time>2026-04-06T16:39:40.999Z</time></trkpt><trkpt lat="43.31642174334821" lon="11.476670050404724"><ele>230.0</ele><time>2026-04-06T16:39:41.999Z</time></trkpt><trkpt lat="43.316144189067806" lon="11.47653408278666"><ele>227.0</ele><time>2026-04-06T16:39:42.999Z</time></trkpt><trkpt lat="43.3158656352951" lon="11.476402488467386"><ele>224.0</ele><time>2026-04-06T16:39:43.999Z</time></trkpt><trkpt lat="43.315586698993705" lon="11.476271981331038"><ele>226.0</ele><time>2026-04-06T16:39:44.999Z</time></trkpt><trkpt lat="43.31530913515179" lon="11.476142010725395"><ele>228.0</ele><time>2026-04-06T16:39:45.999Z</time></trkpt><trkpt lat="43.315028564345944" lon="11.475999674216919"><ele>228.0</ele><time>2026-04-06T16:39:46.999Z</time></trkpt><trkpt lat="43.31475186476179" lon="11.475851142056323"><ele>228.0</ele><time>2026-04-06T16:39:47.999Z</time></trkpt><trkpt lat="43.31447788711305" lon="11.47569561574185"><ele>225.5</ele><time>2026-04-06T16:39:48.999Z</time></trkpt><trkpt lat="43.31420820771448" lon="11.475523166344038"><ele>223.0</ele><time>2026-04-06T16:39:49.999Z</time></trkpt><trkpt lat="43.313942681326886" lon="11.475335573246063"><ele>218.0</ele><time>2026-04-06T16:39:50.999Z</time></trkpt><trkpt lat="43.31368500614615" lon="11.47513020056894"><ele>213.0</ele><time>2026-04-06T16:39:51.999Z</time></trkpt><trkpt lat="43.31343101643898" lon="11.474909005527344"><ele>213.0</ele><time>2026-04-06T16:39:52.999Z</time></trkpt><trkpt lat="43.3131828443783" lon="11.474670132210388"><ele>213.0</ele><time>2026-04-06T16:39:53.999Z</time></trkpt><trkpt lat="43.3129441126479" lon="11.47442092420543"><ele>212.5</ele><time>2026-04-06T16:39:54.999Z</time></trkpt><trkpt lat="43.31271333407014" lon="11.47415914268606"><ele>212.0</ele><time>2026-04-06T16:39:55.999Z</time></trkpt><trkpt lat="43.31249358309689" lon="11.473885403812996"><ele>212.0</ele><time>2026-04-06T16:39:56.999Z</time></trkpt><trkpt lat="43.312279214567525" lon="11.473598713976369"><ele>212.0</ele><time>2026-04-06T16:39:57.999Z</time></trkpt><trkpt lat="43.312077780480806" lon="11.47330110723514"><ele>212.0</ele><time>2026-04-06T16:39:58.999Z</time></trkpt><trkpt lat="43.31188319064547" lon="11.472991687958821"><ele>212.0</ele><time>2026-04-06T16:39:59.999Z</time></trkpt><trkpt lat="43.311698714980565" lon="11.472672366373947"><ele>208.5</ele><time>2026-04-06T16:40:00.999Z</time></trkpt><trkpt lat="43.31151968415636" lon="11.472347996823656"><ele>205.0</ele><time>2026-04-06T16:40:01.999Z</time></trkpt><trkpt lat="43.31134169647606" lon="11.472023062581897"><ele>204.0</ele><time>2026-04-06T16:40:02.999Z</time></trkpt><trkpt lat="43.31116203657414" lon="11.471695675379348"><ele>203.0</ele><time>2026-04-06T16:40:03.999Z</time></trkpt><trkpt lat="43.310983547432514" lon="11.47137977726214"><ele>202.5</ele><time>2026-04-06T16:40:04.999Z</time></trkpt><trkpt lat="43.310805383556044" lon="11.471056652159344"><ele>202.0</ele><time>2026-04-06T16:40:05.999Z</time></trkpt><trkpt lat="43.31062994153596" lon="11.470733372924048"><ele>202.0</ele><time>2026-04-06T16:40:06.999Z</time></trkpt><trkpt lat="43.31045907772003" lon="11.470407094309534"><ele>202.0</ele><time>2026-04-06T16:40:07.999Z</time></trkpt><trkpt lat="43.310296331689166" lon="11.470074305263724"><ele>202.0</ele><time>2026-04-06T16:40:08.999Z</time></trkpt><trkpt lat="43.310146798249676" lon="11.469726891468293"><ele>202.0</ele><time>2026-04-06T16:40:09.999Z</time></trkpt><trkpt lat="43.31001254396432" lon="11.46937247102426"><ele>202.0</ele><time>2026-04-06T16:40:10.999Z</time></trkpt><trkpt lat="43.309891322758084" lon="11.469006843987113"><ele>202.0</ele><time>2026-04-06T16:40:11.999Z</time></trkpt><trkpt lat="43.309781561361575" lon="11.46864421802621"><ele>200.5</ele><time>2026-04-06T16:40:12.999Z</time></trkpt><trkpt lat="43.3096811824892" lon="11.468270000200166"><ele>199.0</ele><time>2026-04-06T16:40:13.999Z</time></trkpt><trkpt lat="43.30959286296583" lon="11.467896014675526"><ele>199.0</ele><time>2026-04-06T16:40:14.999Z</time></trkpt><trkpt lat="43.30951952623039" lon="11.467518322211301"><ele>199.0</ele><time>2026-04-06T16:40:15.999Z</time></trkpt><trkpt lat="43.30945724607364" lon="11.46714039236964"><ele>199.0</ele><time>2026-04-06T16:40:16.999Z</time></trkpt><trkpt lat="43.30939935182426" lon="11.466761772462087"><ele>199.0</ele><time>2026-04-06T16:40:17.999Z</time></trkpt><trkpt lat="43.309341697450925" lon="11.466388628235814"><ele>199.0</ele><time>2026-04-06T16:40:18.999Z</time></trkpt><trkpt lat="43.30928339228745" lon="11.466013181751153"><ele>199.0</ele><time>2026-04-06T16:40:19.999Z</time></trkpt><trkpt lat="43.30922571709106" lon="11.465642239029938"><ele>199.0</ele><time>2026-04-06T16:40:20.999Z</time></trkpt><trkpt lat="43.30916759302752" lon="11.46526617915137"><ele>199.0</ele><time>2026-04-06T16:40:21.999Z</time></trkpt><trkpt lat="43.30910967430675" lon="11.464894576112508"><ele>199.0</ele><time>2026-04-06T16:40:22.999Z</time></trkpt><trkpt lat="43.30905204062086" lon="11.464523315331395"><ele>199.0</ele><time>2026-04-06T16:40:23.999Z</time></trkpt><trkpt lat="43.30899501774357" lon="11.464158121187142"><ele>199.0</ele><time>2026-04-06T16:40:24.998Z</time></trkpt><trkpt lat="43.30893959991644" lon="11.463791650198555"><ele>199.0</ele><time>2026-04-06T16:40:25.998Z</time></trkpt><trkpt lat="43.30888544283105" lon="11.463429997820429"><ele>198.5</ele><time>2026-04-06T16:40:26.998Z</time></trkpt><trkpt lat="43.3088299195548" lon="11.463067927480619"><ele>198.0</ele><time>2026-04-06T16:40:27.998Z</time></trkpt><trkpt lat="43.30877449115174" lon="11.462704589381001"><ele>197.5</ele><time>2026-04-06T16:40:28.998Z</time></trkpt><trkpt lat="43.308717090345255" lon="11.462338503291647"><ele>197.0</ele><time>2026-04-06T16:40:29.998Z</time></trkpt><trkpt lat="43.30865904284245" lon="11.461969997218473"><ele>196.5</ele><time>2026-04-06T16:40:30.998Z</time></trkpt><trkpt lat="43.30860217943256" lon="11.461604340225092"><ele>196.0</ele><time>2026-04-06T16:40:31.998Z</time></trkpt><trkpt lat="43.3085432222833" lon="11.461232594588248"><ele>196.0</ele><time>2026-04-06T16:40:32.998Z</time></trkpt><trkpt lat="43.3084845800814" lon="11.460862529391262"><ele>196.0</ele><time>2026-04-06T16:40:33.998Z</time></trkpt><trkpt lat="43.308425618212446" lon="11.460485875350084"><ele>195.5</ele><time>2026-04-06T16:40:34.998Z</time></trkpt><trkpt lat="43.30836767107025" lon="11.460109739186374"><ele>195.0</ele><time>2026-04-06T16:40:35.998Z</time></trkpt><trkpt lat="43.30830970575531" lon="11.459734283252002"><ele>195.0</ele><time>2026-04-06T16:40:36.998Z</time></trkpt><trkpt lat="43.308251946687946" lon="11.459356083984481"><ele>195.0</ele><time>2026-04-06T16:40:37.998Z</time></trkpt><trkpt lat="43.30819464154093" lon="11.458979325323128"><ele>195.0</ele><time>2026-04-06T16:40:38.998Z</time></trkpt><trkpt lat="43.308136675823214" lon="11.458602468194746"><ele>195.0</ele><time>2026-04-06T16:40:39.998Z</time></trkpt><trkpt lat="43.30807939220472" lon="11.458223079695834"><ele>195.0</ele><time>2026-04-06T16:40:40.998Z</time></trkpt><trkpt lat="43.30802119068112" lon="11.457845299676126"><ele>195.0</ele><time>2026-04-06T16:40:41.998Z</time></trkpt><trkpt lat="43.30796411856442" lon="11.457470019330005"><ele>195.0</ele><time>2026-04-06T16:40:42.998Z</time></trkpt><trkpt lat="43.30790674963976" lon="11.457086616316085"><ele>195.0</ele><time>2026-04-06T16:40:43.998Z</time></trkpt><trkpt lat="43.30785203197763" lon="11.4567092178795"><ele>195.0</ele><time>2026-04-06T16:40:44.998Z</time></trkpt><trkpt lat="43.30780123512428" lon="11.456328454427275"><ele>195.0</ele><time>2026-04-06T16:40:45.998Z</time></trkpt><trkpt lat="43.30775609966595" lon="11.455945157904031"><ele>195.0</ele><time>2026-04-06T16:40:46.998Z</time></trkpt><trkpt lat="43.3077179139263" lon="11.455567670432243"><ele>195.0</ele><time>2026-04-06T16:40:48Z</time></trkpt><trkpt lat="43.30768113003583" lon="11.455183240333747"><ele>195.5</ele><time>2026-04-06T16:40:49Z</time></trkpt><trkpt lat="43.30764898919959" lon="11.454802489668777"><ele>196.0</ele><time>2026-04-06T16:40:50Z</time></trkpt><trkpt lat="43.3076212063753" lon="11.454419864905445"><ele>196.0</ele><time>2026-04-06T16:40:51Z</time></trkpt><trkpt lat="43.30759104953437" lon="11.454034713657734"><ele>196.0</ele><time>2026-04-06T16:40:52Z</time></trkpt><trkpt lat="43.30756070450963" lon="11.453653247825345"><ele>196.5</ele><time>2026-04-06T16:40:53Z</time></trkpt><trkpt lat="43.30752997597647" lon="11.453269047587906"><ele>197.0</ele><time>2026-04-06T16:40:54Z</time></trkpt><trkpt lat="43.30750027530423" lon="11.452888498005724"><ele>197.0</ele><time>2026-04-06T16:40:55Z</time></trkpt><trkpt lat="43.307468335385586" lon="11.452503845322834"><ele>197.0</ele><time>2026-04-06T16:40:56Z</time></trkpt><trkpt lat="43.30743666715036" lon="11.452121811829652"><ele>197.5</ele><time>2026-04-06T16:40:57Z</time></trkpt><trkpt lat="43.30740666201481" lon="11.451739454115335"><ele>198.0</ele><time>2026-04-06T16:40:58Z</time></trkpt><trkpt lat="43.30737785905766" lon="11.451353947318287"><ele>199.0</ele><time>2026-04-06T16:40:59Z</time></trkpt><trkpt lat="43.307347520004484" lon="11.450971155700328"><ele>200.0</ele><time>2026-04-06T16:41:00Z</time></trkpt><trkpt lat="43.30731754375152" lon="11.450586201888878"><ele>200.0</ele><time>2026-04-06T16:41:01Z</time></trkpt><trkpt lat="43.30728777124693" lon="11.45020300168023"><ele>200.0</ele><time>2026-04-06T16:41:02Z</time></trkpt><trkpt lat="43.30726062114241" lon="11.449822550947259"><ele>197.5</ele><time>2026-04-06T16:41:03Z</time></trkpt><trkpt lat="43.30723132855377" lon="11.449432620580456"><ele>195.0</ele><time>2026-04-06T16:41:04Z</time></trkpt><trkpt lat="43.30720323422445" lon="11.449050254831427"><ele>194.5</ele><time>2026-04-06T16:41:05Z</time></trkpt><trkpt lat="43.30717286366678" lon="11.448663052895208"><ele>194.0</ele><time>2026-04-06T16:41:06Z</time></trkpt><trkpt lat="43.30714165430852" lon="11.44827807744235"><ele>194.0</ele><time>2026-04-06T16:41:07Z</time></trkpt><trkpt lat="43.30711046483539" lon="11.447892923504371"><ele>194.0</ele><time>2026-04-06T16:41:08Z</time></trkpt><trkpt lat="43.30707937137767" lon="11.447508300140846"><ele>194.5</ele><time>2026-04-06T16:41:09Z</time></trkpt><trkpt lat="43.307049538792484" lon="11.447123110885627"><ele>195.0</ele><time>2026-04-06T16:41:09.999Z</time></trkpt><trkpt lat="43.30701964626501" lon="11.446734800120732"><ele>195.0</ele><time>2026-04-06T16:41:10.999Z</time></trkpt><trkpt lat="43.30698961523012" lon="11.446347419500063"><ele>195.0</ele><time>2026-04-06T16:41:11.999Z</time></trkpt><trkpt lat="43.30695966972026" lon="11.445959227527911"><ele>195.0</ele><time>2026-04-06T16:41:12.999Z</time></trkpt><trkpt lat="43.306929681828905" lon="11.44556801030294"><ele>195.0</ele><time>2026-04-06T16:41:13.999Z</time></trkpt><trkpt lat="43.30689840848191" lon="11.44517757892282"><ele>195.0</ele><time>2026-04-06T16:41:14.999Z</time></trkpt><trkpt lat="43.30686714372755" lon="11.444786838626154"><ele>195.0</ele><time>2026-04-06T16:41:15.999Z</time></trkpt><trkpt lat="43.30683664968875" lon="11.444393674400201"><ele>195.0</ele><time>2026-04-06T16:41:16.999Z</time></trkpt><trkpt lat="43.30680482071082" lon="11.444003069751535"><ele>195.0</ele><time>2026-04-06T16:41:17.999Z</time></trkpt><trkpt lat="43.30677368239245" lon="11.443610290940184"><ele>195.0</ele><time>2026-04-06T16:41:18.999Z</time></trkpt><trkpt lat="43.30674340998592" lon="11.44321752128202"><ele>195.0</ele><time>2026-04-06T16:41:19.999Z</time></trkpt><trkpt lat="43.30671343744819" lon="11.442826114053686"><ele>196.0</ele><time>2026-04-06T16:41:20.999Z</time></trkpt><trkpt lat="43.30668222799927" lon="11.442431814977105"><ele>197.0</ele><time>2026-04-06T16:41:21.999Z</time></trkpt><trkpt lat="43.3066437694761" lon="11.442043105657595"><ele>197.0</ele><time>2026-04-06T16:41:22.999Z</time></trkpt><trkpt lat="43.306602716604594" lon="11.441650724152762"><ele>197.0</ele><time>2026-04-06T16:41:23.999Z</time></trkpt><trkpt lat="43.30656735038248" lon="11.44125955401805"><ele>195.0</ele><time>2026-04-06T16:41:24.999Z</time></trkpt><trkpt lat="43.3065369720477" lon="11.440870341283707"><ele>193.0</ele><time>2026-04-06T16:41:25.999Z</time></trkpt><trkpt lat="43.306510288722095" lon="11.44048125919696"><ele>192.5</ele><time>2026-04-06T16:41:26.999Z</time></trkpt><trkpt lat="43.30648129323586" lon="11.440092128307338"><ele>192.0</ele><time>2026-04-06T16:41:27.999Z</time></trkpt><trkpt lat="43.306448974543414" lon="11.439704914449234"><ele>192.0</ele><time>2026-04-06T16:41:28.999Z</time></trkpt><trkpt lat="43.30641738362997" lon="11.439320850747292"><ele>192.0</ele><time>2026-04-06T16:41:29.999Z</time></trkpt><trkpt lat="43.30638792792125" lon="11.438935185005818"><ele>191.0</ele><time>2026-04-06T16:41:30.999Z</time></trkpt><trkpt lat="43.3063592935856" lon="11.438549204305783"><ele>190.0</ele><time>2026-04-06T16:41:31.999Z</time></trkpt><trkpt lat="43.306331535710186" lon="11.438168521400454"><ele>190.5</ele><time>2026-04-06T16:41:32.999Z</time></trkpt><trkpt lat="43.30630344868251" lon="11.437789875075428"><ele>191.0</ele><time>2026-04-06T16:41:33.999Z</time></trkpt><trkpt lat="43.30627337494718" lon="11.43741395716087"><ele>191.5</ele><time>2026-04-06T16:41:34.999Z</time></trkpt><trkpt lat="43.30624307155352" lon="11.43703625583098"><ele>192.0</ele><time>2026-04-06T16:41:35.999Z</time></trkpt><trkpt lat="43.306213121568355" lon="11.436663941168453"><ele>192.0</ele><time>2026-04-06T16:41:36.999Z</time></trkpt><trkpt lat="43.30618346372037" lon="11.436286806850553"><ele>192.0</ele><time>2026-04-06T16:41:37.999Z</time></trkpt><trkpt lat="43.306154296755196" lon="11.435906969345538"><ele>192.0</ele><time>2026-04-06T16:41:38.999Z</time></trkpt><trkpt lat="43.306124251670944" lon="11.435527239212899"><ele>192.0</ele><time>2026-04-06T16:41:39.999Z</time></trkpt><trkpt lat="43.30609439161759" lon="11.43514853481965"><ele>193.0</ele><time>2026-04-06T16:41:40.999Z</time></trkpt><trkpt lat="43.3060642024299" lon="11.434768006828204"><ele>194.0</ele><time>2026-04-06T16:41:41.999Z</time></trkpt><trkpt lat="43.30603551070652" lon="11.434390575351886"><ele>195.0</ele><time>2026-04-06T16:41:42.999Z</time></trkpt><trkpt lat="43.306007608874474" lon="11.434011706663306"><ele>196.0</ele><time>2026-04-06T16:41:43.999Z</time></trkpt><trkpt lat="43.30598190363617" lon="11.43363745593751"><ele>197.0</ele><time>2026-04-06T16:41:44.999Z</time></trkpt><trkpt lat="43.305954020612404" lon="11.43325817312445"><ele>198.0</ele><time>2026-04-06T16:41:45.999Z</time></trkpt><trkpt lat="43.30592581924919" lon="11.432883736314736"><ele>199.5</ele><time>2026-04-06T16:41:46.999Z</time></trkpt><trkpt lat="43.30589775837716" lon="11.432503774829113"><ele>201.0</ele><time>2026-04-06T16:41:47.999Z</time></trkpt><trkpt lat="43.305872653648464" lon="11.43212453730447"><ele>203.5</ele><time>2026-04-06T16:41:48.999Z</time></trkpt><trkpt lat="43.30585040810342" lon="11.431745077273645"><ele>206.0</ele><time>2026-04-06T16:41:49.999Z</time></trkpt><trkpt lat="43.30583037846663" lon="11.431363653855403"><ele>205.5</ele><time>2026-04-06T16:41:50.999Z</time></trkpt><trkpt lat="43.30580824800232" lon="11.43098342379627"><ele>205.0</ele><time>2026-04-06T16:41:51.999Z</time></trkpt><trkpt lat="43.3057819154547" lon="11.430602588840484"><ele>204.0</ele><time>2026-04-06T16:41:52.999Z</time></trkpt><trkpt lat="43.30575346292863" lon="11.43022236851756"><ele>203.0</ele><time>2026-04-06T16:41:53.999Z</time></trkpt><trkpt lat="43.30572368250186" lon="11.429840246223392"><ele>202.0</ele><time>2026-04-06T16:41:54.999Z</time></trkpt><trkpt lat="43.30569337575399" lon="11.429458960331122"><ele>201.0</ele><time>2026-04-06T16:41:55.999Z</time></trkpt><trkpt lat="43.3056642705653" lon="11.429074798571136"><ele>199.0</ele><time>2026-04-06T16:41:56.999Z</time></trkpt><trkpt lat="43.30563667723026" lon="11.428689392349263"><ele>197.0</ele><time>2026-04-06T16:41:57.999Z</time></trkpt><trkpt lat="43.305609354284464" lon="11.428300045808886"><ele>195.5</ele><time>2026-04-06T16:41:58.999Z</time></trkpt><trkpt lat="43.305581299311676" lon="11.427915291842444"><ele>194.0</ele><time>2026-04-06T16:41:59.999Z</time></trkpt><trkpt lat="43.30554962795374" lon="11.427525695908564"><ele>197.0</ele><time>2026-04-06T16:42:00.999Z</time></trkpt><trkpt lat="43.305520534664005" lon="11.42713612114395"><ele>200.0</ele><time>2026-04-06T16:42:01.999Z</time></trkpt><trkpt lat="43.30548960598245" lon="11.42674594684317"><ele>200.0</ele><time>2026-04-06T16:42:02.999Z</time></trkpt><trkpt lat="43.305458556372216" lon="11.426355087102563"><ele>200.0</ele><time>2026-04-06T16:42:03.999Z</time></trkpt><trkpt lat="43.30542832729085" lon="11.42596364391208"><ele>197.5</ele><time>2026-04-06T16:42:04.999Z</time></trkpt><trkpt lat="43.30539922416014" lon="11.425571211299278"><ele>195.0</ele><time>2026-04-06T16:42:05.999Z</time></trkpt><trkpt lat="43.30536983917357" lon="11.425181583330177"><ele>193.0</ele><time>2026-04-06T16:42:06.999Z</time></trkpt><trkpt lat="43.30533918092609" lon="11.424787853343279"><ele>191.0</ele><time>2026-04-06T16:42:07.999Z</time></trkpt><trkpt lat="43.30530931348672" lon="11.424396888573346"><ele>191.0</ele><time>2026-04-06T16:42:08.999Z</time></trkpt><trkpt lat="43.305279157277326" lon="11.424014795734474"><ele>191.0</ele><time>2026-04-06T16:42:09.999Z</time></trkpt><trkpt lat="43.30524645973168" lon="11.4236425892875"><ele>190.5</ele><time>2026-04-06T16:42:10.999Z</time></trkpt><trkpt lat="43.30521047807917" lon="11.42327740688178"><ele>190.0</ele><time>2026-04-06T16:42:11.999Z</time></trkpt><trkpt lat="43.30517239272768" lon="11.422910968405956"><ele>189.5</ele><time>2026-04-06T16:42:12.999Z</time></trkpt><trkpt lat="43.305136858177654" lon="11.422543463029914"><ele>189.0</ele><time>2026-04-06T16:42:13.999Z</time></trkpt><trkpt lat="43.30510869780198" lon="11.422175216593368"><ele>188.0</ele><time>2026-04-06T16:42:14.999Z</time></trkpt><trkpt lat="43.305082408442125" lon="11.42181236935751"><ele>187.0</ele><time>2026-04-06T16:42:15.999Z</time></trkpt><trkpt lat="43.30505442016527" lon="11.42144795075015"><ele>187.0</ele><time>2026-04-06T16:42:16.999Z</time></trkpt><trkpt lat="43.30502596769889" lon="11.421082296256317"><ele>187.0</ele><time>2026-04-06T16:42:17.999Z</time></trkpt><trkpt lat="43.304998622535216" lon="11.420718990485861"><ele>187.5</ele><time>2026-04-06T16:42:18.999Z</time></trkpt><trkpt lat="43.30497198420531" lon="11.420351230578767"><ele>188.0</ele><time>2026-04-06T16:42:19.999Z</time></trkpt><trkpt lat="43.304943422484264" lon="11.419978122155747"><ele>187.0</ele><time>2026-04-06T16:42:20.999Z</time></trkpt><trkpt lat="43.30491035173812" lon="11.419593877830525"><ele>186.0</ele><time>2026-04-06T16:42:21.999Z</time></trkpt><trkpt lat="43.304866237972405" lon="11.419216790580231"><ele>186.0</ele><time>2026-04-06T16:42:22.999Z</time></trkpt><trkpt lat="43.304815209350615" lon="11.418841749963939"><ele>186.0</ele><time>2026-04-06T16:42:23.999Z</time></trkpt><trkpt lat="43.30475731094036" lon="11.41847075229284"><ele>186.0</ele><time>2026-04-06T16:42:24.999Z</time></trkpt><trkpt lat="43.30468965414416" lon="11.418100975011525"><ele>186.0</ele><time>2026-04-06T16:42:25.999Z</time></trkpt><trkpt lat="43.30461169644326" lon="11.417739339567518"><ele>185.5</ele><time>2026-04-06T16:42:26.999Z</time></trkpt><trkpt lat="43.30452644413068" lon="11.417378373247203"><ele>185.0</ele><time>2026-04-06T16:42:27.999Z</time></trkpt><trkpt lat="43.30443382892912" lon="11.417021201422187"><ele>185.0</ele><time>2026-04-06T16:42:28.999Z</time></trkpt><trkpt lat="43.304337639828304" lon="11.416664333405231"><ele>185.0</ele><time>2026-04-06T16:42:29.999Z</time></trkpt><trkpt lat="43.30423632963148" lon="11.416310855074274"><ele>185.0</ele><time>2026-04-06T16:42:30.999Z</time></trkpt><trkpt lat="43.30413283395804" lon="11.415951681950963"><ele>185.0</ele><time>2026-04-06T16:42:31.999Z</time></trkpt><trkpt lat="43.30403305509379" lon="11.41559518793193"><ele>185.0</ele><time>2026-04-06T16:42:32.999Z</time></trkpt><trkpt lat="43.30393516494598" lon="11.41523585261613"><ele>185.0</ele><time>2026-04-06T16:42:33.999Z</time></trkpt><trkpt lat="43.30383847303544" lon="11.41487769386202"><ele>185.0</ele><time>2026-04-06T16:42:34.999Z</time></trkpt><trkpt lat="43.30374131146503" lon="11.414525616744637"><ele>185.0</ele><time>2026-04-06T16:42:35.999Z</time></trkpt><trkpt lat="43.30364220041211" lon="11.414167159042085"><ele>185.5</ele><time>2026-04-06T16:42:36.999Z</time></trkpt><trkpt lat="43.30354326283098" lon="11.413810557514322"><ele>186.0</ele><time>2026-04-06T16:42:37.999Z</time></trkpt><trkpt lat="43.30344394208885" lon="11.413450245852504"><ele>186.0</ele><time>2026-04-06T16:42:38.999Z</time></trkpt><trkpt lat="43.303345114526806" lon="11.41309566000202"><ele>186.0</ele><time>2026-04-06T16:42:39.999Z</time></trkpt><trkpt lat="43.30324517532017" lon="11.412738507656575"><ele>185.0</ele><time>2026-04-06T16:42:40.999Z</time></trkpt><trkpt lat="43.30314498174521" lon="11.412379839616142"><ele>184.0</ele><time>2026-04-06T16:42:41.998Z</time></trkpt><trkpt lat="43.30304635597165" lon="11.412026379349127"><ele>183.5</ele><time>2026-04-06T16:42:42.998Z</time></trkpt><trkpt lat="43.30294570521252" lon="11.411662810373834"><ele>183.0</ele><time>2026-04-06T16:42:43.998Z</time></trkpt><trkpt lat="43.30284631450074" lon="11.411305390378917"><ele>183.0</ele><time>2026-04-06T16:42:44.998Z</time></trkpt><trkpt lat="43.30274625320462" lon="11.410946190336963"><ele>183.0</ele><time>2026-04-06T16:42:45.998Z</time></trkpt><trkpt lat="43.302645458243674" lon="11.410588708257613"><ele>183.0</ele><time>2026-04-06T16:42:46.998Z</time></trkpt><trkpt lat="43.30254562599461" lon="11.41022875789538"><ele>183.0</ele><time>2026-04-06T16:42:47.998Z</time></trkpt><trkpt lat="43.302445982634424" lon="11.409873677711378"><ele>183.0</ele><time>2026-04-06T16:42:48.998Z</time></trkpt><trkpt lat="43.30234618836541" lon="11.409519057096128"><ele>183.0</ele><time>2026-04-06T16:42:49.998Z</time></trkpt><trkpt lat="43.302246860864045" lon="11.409160715357372"><ele>182.5</ele><time>2026-04-06T16:42:50.998Z</time></trkpt><trkpt lat="43.302147484535475" lon="11.408805501333898"><ele>182.0</ele><time>2026-04-06T16:42:51.998Z</time></trkpt><trkpt lat="43.30204642736492" lon="11.408449567067295"><ele>182.0</ele><time>2026-04-06T16:42:52.998Z</time></trkpt><trkpt lat="43.301942005018745" lon="11.40809527541412"><ele>182.0</ele><time>2026-04-06T16:42:54Z</time></trkpt><trkpt lat="43.30183077526206" lon="11.40775005964247"><ele>182.5</ele><time>2026-04-06T16:42:55Z</time></trkpt><trkpt lat="43.301700684899565" lon="11.407409187835812"><ele>183.0</ele><time>2026-04-06T16:42:56Z</time></trkpt><trkpt lat="43.30156307401144" lon="11.407082004424769"><ele>183.5</ele><time>2026-04-06T16:42:57Z</time></trkpt><trkpt lat="43.30141771925316" lon="11.40675027178437"><ele>184.0</ele><time>2026-04-06T16:42:58Z</time></trkpt><trkpt lat="43.301263263073345" lon="11.40643076135927"><ele>184.5</ele><time>2026-04-06T16:42:59Z</time></trkpt><trkpt lat="43.301098138515364" lon="11.4061223401316"><ele>185.0</ele><time>2026-04-06T16:43:00Z</time></trkpt><trkpt lat="43.30092054750465" lon="11.405821734501341"><ele>185.0</ele><time>2026-04-06T16:43:01Z</time></trkpt><trkpt lat="43.3007397503465" lon="11.405531193072207"><ele>185.0</ele><time>2026-04-06T16:43:02Z</time></trkpt><trkpt lat="43.30055683665576" lon="11.405245715676323"><ele>183.0</ele><time>2026-04-06T16:43:03Z</time></trkpt><trkpt lat="43.300368181885446" lon="11.404957761582331"><ele>181.0</ele><time>2026-04-06T16:43:04Z</time></trkpt><trkpt lat="43.30018862456761" lon="11.404672628955499"><ele>182.5</ele><time>2026-04-06T16:43:05Z</time></trkpt><trkpt lat="43.300008468361725" lon="11.404383477903425"><ele>184.0</ele><time>2026-04-06T16:43:06Z</time></trkpt><trkpt lat="43.29983064448112" lon="11.404098018898717"><ele>183.5</ele><time>2026-04-06T16:43:07Z</time></trkpt><trkpt lat="43.29965216345652" lon="11.403812930542038"><ele>183.0</ele><time>2026-04-06T16:43:08Z</time></trkpt><trkpt lat="43.299473869522714" lon="11.403526558902493"><ele>183.0</ele><time>2026-04-06T16:43:09Z</time></trkpt><trkpt lat="43.29929323079088" lon="11.403240364667374"><ele>183.0</ele><time>2026-04-06T16:43:10Z</time></trkpt><trkpt lat="43.299112675591026" lon="11.402956501315087"><ele>183.0</ele><time>2026-04-06T16:43:11Z</time></trkpt><trkpt lat="43.29892866429973" lon="11.402670920372627"><ele>183.0</ele><time>2026-04-06T16:43:12Z</time></trkpt><trkpt lat="43.29874674842548" lon="11.40238945642985"><ele>187.0</ele><time>2026-04-06T16:43:13Z</time></trkpt><trkpt lat="43.298564394493866" lon="11.402109033516261"><ele>191.0</ele><time>2026-04-06T16:43:14Z</time></trkpt><trkpt lat="43.298381660957304" lon="11.4018245933114"><ele>191.0</ele><time>2026-04-06T16:43:15Z</time></trkpt><trkpt lat="43.29819764136478" lon="11.401532820781934"><ele>191.0</ele><time>2026-04-06T16:43:16Z</time></trkpt><trkpt lat="43.29801190368209" lon="11.401240244011584"><ele>190.5</ele><time>2026-04-06T16:43:17Z</time></trkpt><trkpt lat="43.297822454007786" lon="11.400944644165573"><ele>190.0</ele><time>2026-04-06T16:43:18Z</time></trkpt><trkpt lat="43.29763511738346" lon="11.400652615927033"><ele>192.5</ele><time>2026-04-06T16:43:19Z</time></trkpt><trkpt lat="43.2974447024625" lon="11.400356298641068"><ele>195.0</ele><time>2026-04-06T16:43:20Z</time></trkpt><trkpt lat="43.29725696685071" lon="11.400060221682217"><ele>196.0</ele><time>2026-04-06T16:43:21Z</time></trkpt><trkpt lat="43.29707255652013" lon="11.399766034305713"><ele>197.0</ele><time>2026-04-06T16:43:22Z</time></trkpt><trkpt lat="43.296883943827375" lon="11.39946850353638"><ele>197.5</ele><time>2026-04-06T16:43:23Z</time></trkpt><trkpt lat="43.29669693421338" lon="11.39917322387785"><ele>198.0</ele><time>2026-04-06T16:43:23.999Z</time></trkpt><trkpt lat="43.29651295443099" lon="11.398876800502153"><ele>195.5</ele><time>2026-04-06T16:43:24.999Z</time></trkpt><trkpt lat="43.29633746226447" lon="11.39856901241367"><ele>193.0</ele><time>2026-04-06T16:43:25.999Z</time></trkpt><trkpt lat="43.296179535604864" lon="11.39824524327575"><ele>195.0</ele><time>2026-04-06T16:43:26.999Z</time></trkpt><trkpt lat="43.29604938741014" lon="11.397903628208649"><ele>197.0</ele><time>2026-04-06T16:43:27.999Z</time></trkpt><trkpt lat="43.29594100991881" lon="11.39755086007217"><ele>197.0</ele><time>2026-04-06T16:43:28.999Z</time></trkpt><trkpt lat="43.29585530707004" lon="11.397190871212448"><ele>197.0</ele><time>2026-04-06T16:43:29.999Z</time></trkpt><trkpt lat="43.29578620257793" lon="11.396827118899958"><ele>197.5</ele><time>2026-04-06T16:43:30.999Z</time></trkpt><trkpt lat="43.2957438146255" lon="11.396457520295508"><ele>198.0</ele><time>2026-04-06T16:43:31.999Z</time></trkpt><trkpt lat="43.29572178546937" lon="11.396091210585633"><ele>198.0</ele><time>2026-04-06T16:43:32.999Z</time></trkpt><trkpt lat="43.295712754448815" lon="11.395723421627961"><ele>198.0</ele><time>2026-04-06T16:43:33.999Z</time></trkpt><trkpt lat="43.29571256478159" lon="11.395354019454482"><ele>196.5</ele><time>2026-04-06T16:43:34.999Z</time></trkpt><trkpt lat="43.29571442538974" lon="11.394988203300137"><ele>195.0</ele><time>2026-04-06T16:43:35.999Z</time></trkpt><trkpt lat="43.29571526896144" lon="11.394624676202685"><ele>195.0</ele><time>2026-04-06T16:43:36.999Z</time></trkpt><trkpt lat="43.295717523562104" lon="11.394254499742681"><ele>195.0</ele><time>2026-04-06T16:43:37.999Z</time></trkpt><trkpt lat="43.295724209486906" lon="11.393890227645576"><ele>195.5</ele><time>2026-04-06T16:43:38.999Z</time></trkpt><trkpt lat="43.295736192693795" lon="11.393523287141264"><ele>196.0</ele><time>2026-04-06T16:43:39.999Z</time></trkpt><trkpt lat="43.295753108195036" lon="11.393154389657319"><ele>195.5</ele><time>2026-04-06T16:43:40.999Z</time></trkpt><trkpt lat="43.29577853403476" lon="11.392791246709729"><ele>195.0</ele><time>2026-04-06T16:43:41.999Z</time></trkpt><trkpt lat="43.29581978254163" lon="11.39243397888368"><ele>195.0</ele><time>2026-04-06T16:43:42.999Z</time></trkpt><trkpt lat="43.29588566429547" lon="11.392087184448863"><ele>195.0</ele><time>2026-04-06T16:43:43.999Z</time></trkpt><trkpt lat="43.29597700431907" lon="11.391745316280693"><ele>195.0</ele><time>2026-04-06T16:43:44.999Z</time></trkpt><trkpt lat="43.29609774263291" lon="11.391406813877824"><ele>195.0</ele><time>2026-04-06T16:43:45.999Z</time></trkpt><trkpt lat="43.29623746657196" lon="11.39109163966559"><ele>197.5</ele><time>2026-04-06T16:43:46.999Z</time></trkpt><trkpt lat="43.296394132925634" lon="11.390788771068546"><ele>200.0</ele><time>2026-04-06T16:43:47.999Z</time></trkpt><trkpt lat="43.29656420963899" lon="11.390502182215943"><ele>202.5</ele><time>2026-04-06T16:43:48.999Z</time></trkpt><trkpt lat="43.296744739517294" lon="11.39022227605012"><ele>205.0</ele><time>2026-04-06T16:43:49.999Z</time></trkpt><trkpt lat="43.29693082680299" lon="11.3899481486716"><ele>204.5</ele><time>2026-04-06T16:43:50.999Z</time></trkpt><trkpt lat="43.297120558326995" lon="11.389662195633399"><ele>204.0</ele><time>2026-04-06T16:43:51.999Z</time></trkpt><trkpt lat="43.29731015150428" lon="11.389375169299125"><ele>202.5</ele><time>2026-04-06T16:43:52.999Z</time></trkpt><trkpt lat="43.29750230569682" lon="11.389085931123363"><ele>201.0</ele><time>2026-04-06T16:43:53.999Z</time></trkpt><trkpt lat="43.297692813827084" lon="11.388799157765947"><ele>198.5</ele><time>2026-04-06T16:43:54.999Z</time></trkpt><trkpt lat="43.29788487188852" lon="11.388516150122339"><ele>196.0</ele><time>2026-04-06T16:43:55.999Z</time></trkpt><trkpt lat="43.298078278630385" lon="11.388231445680054"><ele>192.0</ele><time>2026-04-06T16:43:56.999Z</time></trkpt><trkpt lat="43.298270035498284" lon="11.387949149559075"><ele>188.0</ele><time>2026-04-06T16:43:57.999Z</time></trkpt><trkpt lat="43.29845700322748" lon="11.387669451670494"><ele>188.0</ele><time>2026-04-06T16:43:58.999Z</time></trkpt><trkpt lat="43.298643323036494" lon="11.387389633947546"><ele>188.0</ele><time>2026-04-06T16:43:59.999Z</time></trkpt><trkpt lat="43.29882638822118" lon="11.387115020399346"><ele>186.0</ele><time>2026-04-06T16:44:00.999Z</time></trkpt><trkpt lat="43.29900420262499" lon="11.38684563322383"><ele>184.0</ele><time>2026-04-06T16:44:01.999Z</time></trkpt><trkpt lat="43.29918588634197" lon="11.386572160455028"><ele>183.5</ele><time>2026-04-06T16:44:02.999Z</time></trkpt><trkpt lat="43.29936078137938" lon="11.386311914499991"><ele>183.0</ele><time>2026-04-06T16:44:03.999Z</time></trkpt><trkpt lat="43.29953753355388" lon="11.38604829176736"><ele>183.0</ele><time>2026-04-06T16:44:04.999Z</time></trkpt><trkpt lat="43.29971391968684" lon="11.385793244415515"><ele>183.0</ele><time>2026-04-06T16:44:05.999Z</time></trkpt><trkpt lat="43.299887858797504" lon="11.385545165627953"><ele>185.0</ele><time>2026-04-06T16:44:06.999Z</time></trkpt><trkpt lat="43.30006294897336" lon="11.385295710137058"><ele>187.0</ele><time>2026-04-06T16:44:07.999Z</time></trkpt><trkpt lat="43.30023359215578" lon="11.385052720780337"><ele>187.0</ele><time>2026-04-06T16:44:08.999Z</time></trkpt><trkpt lat="43.30039730292637" lon="11.384810762399653"><ele>187.0</ele><time>2026-04-06T16:44:09.999Z</time></trkpt><trkpt lat="43.30055711701641" lon="11.384571482356213"><ele>187.5</ele><time>2026-04-06T16:44:10.999Z</time></trkpt><trkpt lat="43.30071640950796" lon="11.384332843251567"><ele>188.0</ele><time>2026-04-06T16:44:11.999Z</time></trkpt><trkpt lat="43.300878598910835" lon="11.384093755636139"><ele>188.0</ele><time>2026-04-06T16:44:12.999Z</time></trkpt><trkpt lat="43.30103381343759" lon="11.38385186031101"><ele>188.0</ele><time>2026-04-06T16:44:13.999Z</time></trkpt><trkpt lat="43.301172031438206" lon="11.383594109200876"><ele>189.0</ele><time>2026-04-06T16:44:14.999Z</time></trkpt><trkpt lat="43.30129238374097" lon="11.383316887278566"><ele>190.0</ele><time>2026-04-06T16:44:15.999Z</time></trkpt><trkpt lat="43.3013891294469" lon="11.38302594344444"><ele>192.0</ele><time>2026-04-06T16:44:16.999Z</time></trkpt><trkpt lat="43.30146283192636" lon="11.382741220354529"><ele>194.0</ele><time>2026-04-06T16:44:17.999Z</time></trkpt><trkpt lat="43.30152717159695" lon="11.382449048089518"><ele>196.0</ele><time>2026-04-06T16:44:18.999Z</time></trkpt><trkpt lat="43.30156189948123" lon="11.382166593853194"><ele>197.0</ele><time>2026-04-06T16:44:19.999Z</time></trkpt><trkpt lat="43.301581339732735" lon="11.381885496016679"><ele>198.0</ele><time>2026-04-06T16:44:20.999Z</time></trkpt><trkpt lat="43.30158042201958" lon="11.381613659413679"><ele>199.0</ele><time>2026-04-06T16:44:21.999Z</time></trkpt><trkpt lat="43.30157324511438" lon="11.381346268742229"><ele>199.33333333333331</ele><time>2026-04-06T16:44:22.999Z</time></trkpt><trkpt lat="43.301567293428086" lon="11.381085126568376"><ele>199.66666666666669</ele><time>2026-04-06T16:44:23.999Z</time></trkpt><trkpt lat="43.30156152625283" lon="11.380839891616528"><ele>200.0</ele><time>2026-04-06T16:44:24.999Z</time></trkpt><trkpt lat="43.30155453692802" lon="11.380608306241612"><ele>199.5</ele><time>2026-04-06T16:44:25.999Z</time></trkpt><trkpt lat="43.30154801862385" lon="11.380403327617392"><ele>199.0</ele><time>2026-04-06T16:44:26.999Z</time></trkpt><trkpt lat="43.301540009212204" lon="11.380203523526312"><ele>198.5</ele><time>2026-04-06T16:44:27.999Z</time></trkpt><trkpt lat="43.301537107699616" lon="11.380017449345777"><ele>198.0</ele><time>2026-04-06T16:44:28.999Z</time></trkpt><trkpt lat="43.30153988803777" lon="11.379848300274809"><ele>198.0</ele><time>2026-04-06T16:44:29.999Z</time></trkpt><trkpt lat="43.3015528941982" lon="11.379694277511911"><ele>198.0</ele><time>2026-04-06T16:44:30.999Z</time></trkpt><trkpt lat="43.3015871034955" lon="11.379544062033093"><ele>198.0</ele><time>2026-04-06T16:44:31.999Z</time></trkpt><trkpt lat="43.301646194863345" lon="11.379391554281929"><ele>198.0</ele><time>2026-04-06T16:44:32.999Z</time></trkpt><trkpt lat="43.30171861625737" lon="11.379245688856342"><ele>197.5</ele><time>2026-04-06T16:44:33.999Z</time></trkpt><trkpt lat="43.30180839461177" lon="11.37910573540546"><ele>197.0</ele><time>2026-04-06T16:44:34.999Z</time></trkpt><trkpt lat="43.30190587699848" lon="11.378969382955365"><ele>196.5</ele><time>2026-04-06T16:44:35.999Z</time></trkpt><trkpt lat="43.302001296270504" lon="11.378846752098232"><ele>196.0</ele><time>2026-04-06T16:44:36.999Z</time></trkpt><trkpt lat="43.30209431455921" lon="11.37872496657559"><ele>196.0</ele><time>2026-04-06T16:44:37.999Z</time></trkpt><trkpt lat="43.30217605394645" lon="11.378602584639841"><ele>196.0</ele><time>2026-04-06T16:44:38.999Z</time></trkpt><trkpt lat="43.302242852824364" lon="11.378469933586539"><ele>196.0</ele><time>2026-04-06T16:44:39.999Z</time></trkpt><trkpt lat="43.30229116308752" lon="11.378326994476454"><ele>196.0</ele><time>2026-04-06T16:44:40.999Z</time></trkpt><trkpt lat="43.30231517926323" lon="11.378172444897686"><ele>196.0</ele><time>2026-04-06T16:44:41.999Z</time></trkpt><trkpt lat="43.30232532250079" lon="11.378011649208768"><ele>196.0</ele><time>2026-04-06T16:44:42.999Z</time></trkpt><trkpt lat="43.302313610090344" lon="11.377856317678948"><ele>196.0</ele><time>2026-04-06T16:44:43.999Z</time></trkpt><trkpt lat="43.30227241784969" lon="11.37770827895462"><ele>196.0</ele><time>2026-04-06T16:44:44.999Z</time></trkpt><trkpt lat="43.30220762591971" lon="11.377562134778008"><ele>196.25</ele><time>2026-04-06T16:44:45.999Z</time></trkpt><trkpt lat="43.30212134896178" lon="11.377435630359647"><ele>196.5</ele><time>2026-04-06T16:44:46.999Z</time></trkpt><trkpt lat="43.302010207195735" lon="11.377318107403909"><ele>196.75</ele><time>2026-04-06T16:44:47.999Z</time></trkpt><trkpt lat="43.3018762785479" lon="11.377210544753934"><ele>197.0</ele><time>2026-04-06T16:44:48.999Z</time></trkpt><trkpt lat="43.30174315620234" lon="11.37710628393227"><ele>197.0</ele><time>2026-04-06T16:44:49.999Z</time></trkpt><trkpt lat="43.301610199050934" lon="11.37699832678074"><ele>197.0</ele><time>2026-04-06T16:44:50.999Z</time></trkpt><trkpt lat="43.301479240716304" lon="11.376892449789775"><ele>197.0</ele><time>2026-04-06T16:44:51.999Z</time></trkpt><trkpt lat="43.30135264700078" lon="11.376787465852157"><ele>197.25</ele><time>2026-04-06T16:44:52.999Z</time></trkpt><trkpt lat="43.30122631218857" lon="11.376684757560627"><ele>197.5</ele><time>2026-04-06T16:44:53.998Z</time></trkpt><trkpt lat="43.30109773314552" lon="11.376575056909822"><ele>197.75</ele><time>2026-04-06T16:44:54.998Z</time></trkpt><trkpt lat="43.30097114441807" lon="11.376462902184606"><ele>198.0</ele><time>2026-04-06T16:44:55.998Z</time></trkpt><trkpt lat="43.300843490582594" lon="11.376351952957693"><ele>198.0</ele><time>2026-04-06T16:44:56.998Z</time></trkpt><trkpt lat="43.30071654586619" lon="11.3762377255291"><ele>198.0</ele><time>2026-04-06T16:44:57.998Z</time></trkpt><trkpt lat="43.30059249506451" lon="11.376118938501303"><ele>198.0</ele><time>2026-04-06T16:44:58.998Z</time></trkpt><trkpt lat="43.30047262426472" lon="11.375995397630357"><ele>198.0</ele><time>2026-04-06T16:45:00Z</time></trkpt><trkpt lat="43.30035090553937" lon="11.375861609678715"><ele>198.0</ele><time>2026-04-06T16:45:01Z</time></trkpt><trkpt lat="43.30023273675176" lon="11.37571614824248"><ele>198.0</ele><time>2026-04-06T16:45:02Z</time></trkpt><trkpt lat="43.300121784655545" lon="11.375561710860557"><ele>197.33333333333331</ele><time>2026-04-06T16:45:03Z</time></trkpt><trkpt lat="43.30001258358007" lon="11.375402304121584"><ele>196.66666666666666</ele><time>2026-04-06T16:45:04Z</time></trkpt><trkpt lat="43.29989810750771" lon="11.37523064197821"><ele>196.0</ele><time>2026-04-06T16:45:05Z</time></trkpt><trkpt lat="43.29978643597692" lon="11.375054951889608"><ele>195.33333333333331</ele><time>2026-04-06T16:45:06Z</time></trkpt><trkpt lat="43.299680555057726" lon="11.374872831856138"><ele>194.66666666666669</ele><time>2026-04-06T16:45:07Z</time></trkpt><trkpt lat="43.299576789837616" lon="11.374675920665183"><ele>194.0</ele><time>2026-04-06T16:45:08Z</time></trkpt><trkpt lat="43.299476481369275" lon="11.374465699085334"><ele>195.33333333333334</ele><time>2026-04-06T16:45:09Z</time></trkpt><trkpt lat="43.299380394415685" lon="11.374249216922173"><ele>196.66666666666669</ele><time>2026-04-06T16:45:10Z</time></trkpt><trkpt lat="43.299292580953654" lon="11.374031233241789"><ele>198.0</ele><time>2026-04-06T16:45:11Z</time></trkpt><trkpt lat="43.29921492870984" lon="11.373814048936342"><ele>200.0</ele><time>2026-04-06T16:45:12Z</time></trkpt><trkpt lat="43.299140492115555" lon="11.373594897924425"><ele>202.0</ele><time>2026-04-06T16:45:13Z</time></trkpt><trkpt lat="43.29907397944171" lon="11.373368612289873"><ele>204.0</ele><time>2026-04-06T16:45:14Z</time></trkpt><trkpt lat="43.29901375408645" lon="11.373134668346497"><ele>205.66666666666669</ele><time>2026-04-06T16:45:15Z</time></trkpt><trkpt lat="43.2989573995733" lon="11.372880814096598"><ele>207.33333333333334</ele><time>2026-04-06T16:45:16Z</time></trkpt><trkpt lat="43.29890878551452" lon="11.372622612667621"><ele>209.0</ele><time>2026-04-06T16:45:17Z</time></trkpt><trkpt lat="43.29886433530449" lon="11.372356873610393"><ele>209.66666666666669</ele><time>2026-04-06T16:45:18Z</time></trkpt><trkpt lat="43.29883153413197" lon="11.3720832945722"><ele>210.33333333333331</ele><time>2026-04-06T16:45:19Z</time></trkpt><trkpt lat="43.298809779260274" lon="11.371812179066298"><ele>211.0</ele><time>2026-04-06T16:45:20Z</time></trkpt><trkpt lat="43.2987944477871" lon="11.37154414503002"><ele>211.66666666666666</ele><time>2026-04-06T16:45:21Z</time></trkpt><trkpt lat="43.298788841911154" lon="11.371283995231598"><ele>212.33333333333331</ele><time>2026-04-06T16:45:22Z</time></trkpt><trkpt lat="43.29879181440641" lon="11.37103612640318"><ele>213.0</ele><time>2026-04-06T16:45:23Z</time></trkpt><trkpt lat="43.29879856778216" lon="11.370795081538088"><ele>213.0</ele><time>2026-04-06T16:45:24Z</time></trkpt><trkpt lat="43.29880042816004" lon="11.370572015711998"><ele>213.0</ele><time>2026-04-06T16:45:25Z</time></trkpt><trkpt lat="43.29880365442917" lon="11.37035175543313"><ele>213.0</ele><time>2026-04-06T16:45:26Z</time></trkpt><trkpt lat="43.29880605750921" lon="11.370134390196412"><ele>216.0</ele><time>2026-04-06T16:45:27Z</time></trkpt><trkpt lat="43.29880898901466" lon="11.36991519623335"><ele>219.0</ele><time>2026-04-06T16:45:28Z</time></trkpt><trkpt lat="43.29881230584816" lon="11.369694357077535"><ele>222.0</ele><time>2026-04-06T16:45:28.999Z</time></trkpt><trkpt lat="43.29881604298114" lon="11.369487778753301"><ele>224.0</ele><time>2026-04-06T16:45:29.999Z</time></trkpt><trkpt lat="43.298818832705166" lon="11.36928097680378"><ele>226.0</ele><time>2026-04-06T16:45:30.999Z</time></trkpt><trkpt lat="43.29882194992138" lon="11.369086605935259"><ele>228.0</ele><time>2026-04-06T16:45:31.999Z</time></trkpt><trkpt lat="43.29882431068142" lon="11.368899318529525"><ele>230.0</ele><time>2026-04-06T16:45:32.999Z</time></trkpt><trkpt lat="43.298827504430925" lon="11.368710845855441"><ele>230.25</ele><time>2026-04-06T16:45:33.999Z</time></trkpt><trkpt lat="43.298829217137744" lon="11.368515714938376"><ele>230.5</ele><time>2026-04-06T16:45:34.999Z</time></trkpt><trkpt lat="43.298831414859585" lon="11.368313194276473"><ele>230.75</ele><time>2026-04-06T16:45:35.999Z</time></trkpt><trkpt lat="43.298836780474" lon="11.368128512919915"><ele>231.0</ele><time>2026-04-06T16:45:36.999Z</time></trkpt><trkpt lat="43.29884977514708" lon="11.367943281949247"><ele>231.0</ele><time>2026-04-06T16:45:37.999Z</time></trkpt><trkpt lat="43.29885888492392" lon="11.367778723286321"><ele>231.00000000000003</ele><time>2026-04-06T16:45:38.999Z</time></trkpt><trkpt lat="43.298862192696184" lon="11.367638483530552"><ele>231.00000000000003</ele><time>2026-04-06T16:45:39.999Z</time></trkpt><trkpt lat="43.2988577408371" lon="11.367496329258493"><ele>231.0</ele><time>2026-04-06T16:45:40.999Z</time></trkpt><trkpt lat="43.298861391927254" lon="11.367343578742275"><ele>231.0</ele><time>2026-04-06T16:45:41.999Z</time></trkpt><trkpt lat="43.29884762960108" lon="11.367180305752772"><ele>229.25</ele><time>2026-04-06T16:45:42.999Z</time></trkpt><trkpt lat="43.29885960214742" lon="11.367016107448922"><ele>227.5</ele><time>2026-04-06T16:45:43.999Z</time></trkpt><trkpt lat="43.29884951749962" lon="11.366833498234078"><ele>225.75</ele><time>2026-04-06T16:45:44.999Z</time></trkpt><trkpt lat="43.2988363910356" lon="11.366639073368438"><ele>224.0</ele><time>2026-04-06T16:45:45.999Z</time></trkpt><trkpt lat="43.29883201763714" lon="11.366433246677307"><ele>222.0</ele><time>2026-04-06T16:45:46.999Z</time></trkpt><trkpt lat="43.29881331127047" lon="11.366241722572854"><ele>220.0</ele><time>2026-04-06T16:45:47.999Z</time></trkpt><trkpt lat="43.29881694763181" lon="11.366062940262555"><ele>218.0</ele><time>2026-04-06T16:45:48.999Z</time></trkpt><trkpt lat="43.29881336186221" lon="11.365896195089391"><ele>216.0</ele><time>2026-04-06T16:45:49.999Z</time></trkpt><trkpt lat="43.29882368039848" lon="11.365707043040429"><ele>214.5</ele><time>2026-04-06T16:45:50.999Z</time></trkpt><trkpt lat="43.298834405077386" lon="11.365500044972576"><ele>213.0</ele><time>2026-04-06T16:45:51.999Z</time></trkpt><trkpt lat="43.29884830067933" lon="11.365294348700147"><ele>211.5</ele><time>2026-04-06T16:45:52.999Z</time></trkpt><trkpt lat="43.298861863958216" lon="11.36509696826381"><ele>210.0</ele><time>2026-04-06T16:45:53.999Z</time></trkpt><trkpt lat="43.29887888325343" lon="11.364906074029038"><ele>210.0</ele><time>2026-04-06T16:45:54.999Z</time></trkpt><trkpt lat="43.29889595903979" lon="11.36471574427412"><ele>210.0</ele><time>2026-04-06T16:45:55.999Z</time></trkpt><trkpt lat="43.298915650526205" lon="11.364528753857636"><ele>210.0</ele><time>2026-04-06T16:45:56.999Z</time></trkpt><trkpt lat="43.29893293096165" lon="11.364342155109734"><ele>210.0</ele><time>2026-04-06T16:45:57.999Z</time></trkpt><trkpt lat="43.298952859007365" lon="11.364162822447398"><ele>210.75</ele><time>2026-04-06T16:45:58.999Z</time></trkpt><trkpt lat="43.29897767706326" lon="11.363984993344936"><ele>211.5</ele><time>2026-04-06T16:45:59.999Z</time></trkpt><trkpt lat="43.29900598628144" lon="11.363804518332126"><ele>212.25</ele><time>2026-04-06T16:46:00.999Z</time></trkpt><trkpt lat="43.29903451363949" lon="11.363628439107794"><ele>213.0</ele><time>2026-04-06T16:46:01.999Z</time></trkpt><trkpt lat="43.299061902429735" lon="11.363458513622351"><ele>211.5</ele><time>2026-04-06T16:46:02.999Z</time></trkpt><trkpt lat="43.29908978626783" lon="11.363300734074427"><ele>210.0</ele><time>2026-04-06T16:46:03.999Z</time></trkpt><trkpt lat="43.29911782501993" lon="11.363153768654836"><ele>208.5</ele><time>2026-04-06T16:46:04.999Z</time></trkpt><trkpt lat="43.29914871971681" lon="11.363004039685048"><ele>207.0</ele><time>2026-04-06T16:46:05.999Z</time></trkpt><trkpt lat="43.29918162513253" lon="11.362846789354796"><ele>205.5</ele><time>2026-04-06T16:46:06.999Z</time></trkpt><trkpt lat="43.299217147994135" lon="11.362694846669356"><ele>204.0</ele><time>2026-04-06T16:46:07.999Z</time></trkpt><trkpt lat="43.29925328873673" lon="11.362537082708391"><ele>202.5</ele><time>2026-04-06T16:46:08.999Z</time></trkpt><trkpt lat="43.299291703713116" lon="11.362379567865943"><ele>201.0</ele><time>2026-04-06T16:46:09.999Z</time></trkpt><trkpt lat="43.29933092607221" lon="11.362225217159228"><ele>200.75</ele><time>2026-04-06T16:46:10.999Z</time></trkpt><trkpt lat="43.29937255819631" lon="11.362070552336125"><ele>200.5</ele><time>2026-04-06T16:46:11.999Z</time></trkpt><trkpt lat="43.299415188554256" lon="11.361915460722487"><ele>200.25</ele><time>2026-04-06T16:46:12.999Z</time></trkpt><trkpt lat="43.29945888058501" lon="11.361762150545971"><ele>200.0</ele><time>2026-04-06T16:46:13.999Z</time></trkpt><trkpt lat="43.29950363541861" lon="11.361607702886543"><ele>200.0</ele><time>2026-04-06T16:46:14.999Z</time></trkpt><trkpt lat="43.299550471086896" lon="11.361452569528831"><ele>200.0</ele><time>2026-04-06T16:46:15.999Z</time></trkpt><trkpt lat="43.29959625157166" lon="11.361301281348096"><ele>200.0</ele><time>2026-04-06T16:46:16.999Z</time></trkpt><trkpt lat="43.299641542245254" lon="11.361149082495643"><ele>200.0</ele><time>2026-04-06T16:46:17.999Z</time></trkpt><trkpt lat="43.29968858179245" lon="11.360995974750898"><ele>199.75</ele><time>2026-04-06T16:46:18.999Z</time></trkpt><trkpt lat="43.29973182877083" lon="11.360856242889916"><ele>199.5</ele><time>2026-04-06T16:46:19.999Z</time></trkpt><trkpt lat="43.29977579710279" lon="11.360716821958423"><ele>199.25</ele><time>2026-04-06T16:46:20.999Z</time></trkpt><trkpt lat="43.29982054695528" lon="11.360572607175028"><ele>199.0</ele><time>2026-04-06T16:46:21.999Z</time></trkpt><trkpt lat="43.299866287770975" lon="11.360422401133569"><ele>199.75</ele><time>2026-04-06T16:46:22.999Z</time></trkpt><trkpt lat="43.299914808220336" lon="11.360263228486058"><ele>200.5</ele><time>2026-04-06T16:46:23.999Z</time></trkpt><trkpt lat="43.299963621216996" lon="11.360101524053116"><ele>201.25</ele><time>2026-04-06T16:46:24.999Z</time></trkpt><trkpt lat="43.30001642373638" lon="11.359923499566637"><ele>202.0</ele><time>2026-04-06T16:46:25.999Z</time></trkpt><trkpt lat="43.30007311726008" lon="11.359732835576517"><ele>201.25</ele><time>2026-04-06T16:46:26.999Z</time></trkpt><trkpt lat="43.30013361527502" lon="11.359541342543293"><ele>200.5</ele><time>2026-04-06T16:46:27.999Z</time></trkpt><trkpt lat="43.30019183037193" lon="11.359358754676743"><ele>199.75</ele><time>2026-04-06T16:46:28.999Z</time></trkpt><trkpt lat="43.300250663034014" lon="11.359168900385242"><ele>199.0</ele><time>2026-04-06T16:46:29.999Z</time></trkpt><trkpt lat="43.30030740291976" lon="11.3589856336712"><ele>198.25</ele><time>2026-04-06T16:46:30.999Z</time></trkpt><trkpt lat="43.300363476580074" lon="11.358804802589294"><ele>197.5</ele><time>2026-04-06T16:46:31.999Z</time></trkpt><trkpt lat="43.30041951709157" lon="11.358616324959733"><ele>196.75</ele><time>2026-04-06T16:46:32.999Z</time></trkpt><trkpt lat="43.30047210559632" lon="11.358427265109592"><ele>196.0</ele><time>2026-04-06T16:46:33.999Z</time></trkpt><trkpt lat="43.30051828577262" lon="11.358231539793408"><ele>196.0</ele><time>2026-04-06T16:46:34.999Z</time></trkpt><trkpt lat="43.30055915193595" lon="11.35804631481213"><ele>196.0</ele><time>2026-04-06T16:46:35.999Z</time></trkpt><trkpt lat="43.30059832738086" lon="11.357849049075098"><ele>196.0</ele><time>2026-04-06T16:46:36.999Z</time></trkpt><trkpt lat="43.300632028060996" lon="11.357656664953067"><ele>196.0</ele><time>2026-04-06T16:46:37.999Z</time></trkpt><trkpt lat="43.30066217730665" lon="11.357467772770896"><ele>197.0</ele><time>2026-04-06T16:46:38.999Z</time></trkpt><trkpt lat="43.3006908676203" lon="11.357275276462406"><ele>198.0</ele><time>2026-04-06T16:46:39.999Z</time></trkpt><trkpt lat="43.30071489955406" lon="11.35708450431369"><ele>199.0</ele><time>2026-04-06T16:46:40.999Z</time></trkpt><trkpt lat="43.30073380518651" lon="11.356885240104308"><ele>200.0</ele><time>2026-04-06T16:46:41.999Z</time></trkpt><trkpt lat="43.30074835399819" lon="11.356684252291128"><ele>201.0</ele><time>2026-04-06T16:46:42.999Z</time></trkpt><trkpt lat="43.300761388670914" lon="11.356487543692152"><ele>202.0</ele><time>2026-04-06T16:46:43.999Z</time></trkpt><trkpt lat="43.30077386050586" lon="11.356293806740652"><ele>203.0</ele><time>2026-04-06T16:46:44.999Z</time></trkpt><trkpt lat="43.30078419558778" lon="11.356100936428284"><ele>204.0</ele><time>2026-04-06T16:46:45.999Z</time></trkpt><trkpt lat="43.300789471697776" lon="11.355902888820946"><ele>204.75</ele><time>2026-04-06T16:46:46.999Z</time></trkpt><trkpt lat="43.30078689123994" lon="11.355710388718451"><ele>205.5</ele><time>2026-04-06T16:46:47.999Z</time></trkpt><trkpt lat="43.300779591325195" lon="11.35554337860908"><ele>206.25</ele><time>2026-04-06T16:46:48.999Z</time></trkpt><trkpt lat="43.30077109512314" lon="11.355398240459973"><ele>207.0</ele><time>2026-04-06T16:46:49.999Z</time></trkpt><trkpt lat="43.30076298267429" lon="11.355256203002616"><ele>207.16666666666666</ele><time>2026-04-06T16:46:50.999Z</time></trkpt><trkpt lat="43.300753327018825" lon="11.355128589537495"><ele>207.33333333333331</ele><time>2026-04-06T16:46:51.999Z</time></trkpt><trkpt lat="43.30074168167726" lon="11.35500673995019"><ele>207.5</ele><time>2026-04-06T16:46:52.999Z</time></trkpt><trkpt lat="43.30072888188009" lon="11.35488411106602"><ele>207.66666666666666</ele><time>2026-04-06T16:46:53.999Z</time></trkpt><trkpt lat="43.30071409100485" lon="11.354764275236485"><ele>207.83333333333331</ele><time>2026-04-06T16:46:54.999Z</time></trkpt><trkpt lat="43.300698941443315" lon="11.354649465449214"><ele>208.0</ele><time>2026-04-06T16:46:55.999Z</time></trkpt><trkpt lat="43.30068406391201" lon="11.354534026966546"><ele>207.60000000000002</ele><time>2026-04-06T16:46:56.999Z</time></trkpt><trkpt lat="43.30066656400613" lon="11.354411161280252"><ele>207.20000000000002</ele><time>2026-04-06T16:46:57.998Z</time></trkpt><trkpt lat="43.30064553864504" lon="11.35428103650784"><ele>206.8</ele><time>2026-04-06T16:46:58.998Z</time></trkpt><trkpt lat="43.300624053228056" lon="11.354153463928842"><ele>206.4</ele><time>2026-04-06T16:46:59.998Z</time></trkpt><trkpt lat="43.30060257598912" lon="11.354029903067447"><ele>206.0</ele><time>2026-04-06T16:47:00.998Z</time></trkpt><trkpt lat="43.300582158183" lon="11.353910654231699"><ele>204.20000000000002</ele><time>2026-04-06T16:47:01.998Z</time></trkpt><trkpt lat="43.3005647903996" lon="11.35379445378414"><ele>202.4</ele><time>2026-04-06T16:47:02.998Z</time></trkpt><trkpt lat="43.30054563364812" lon="11.353676683142965"><ele>200.6</ele><time>2026-04-06T16:47:03.998Z</time></trkpt><trkpt lat="43.30052749290268" lon="11.353555723377687"><ele>198.8</ele><time>2026-04-06T16:47:05Z</time></trkpt><trkpt lat="43.30050627449351" lon="11.353422283747852"><ele>197.0</ele><time>2026-04-06T16:47:06Z</time></trkpt><trkpt lat="43.30048226718917" lon="11.353279937725183"><ele>197.0</ele><time>2026-04-06T16:47:07Z</time></trkpt><trkpt lat="43.300459463676866" lon="11.353129538916024"><ele>197.0</ele><time>2026-04-06T16:47:08Z</time></trkpt><trkpt lat="43.30043617069975" lon="11.35297873858885"><ele>197.0</ele><time>2026-04-06T16:47:09Z</time></trkpt><trkpt lat="43.30041448948152" lon="11.35284035924081"><ele>197.0</ele><time>2026-04-06T16:47:10Z</time></trkpt><trkpt lat="43.30039303741007" lon="11.352711321340415"><ele>197.0</ele><time>2026-04-06T16:47:11Z</time></trkpt><trkpt lat="43.30037261293872" lon="11.352585614625355"><ele>197.2</ele><time>2026-04-06T16:47:12Z</time></trkpt><trkpt lat="43.3003547120857" lon="11.352458723062385"><ele>197.39999999999998</ele><time>2026-04-06T16:47:13Z</time></trkpt><trkpt lat="43.30033471543622" lon="11.352326960636988"><ele>197.60000000000002</ele><time>2026-04-06T16:47:14Z</time></trkpt><trkpt lat="43.3003138752125" lon="11.352194365943694"><ele>197.8</ele><time>2026-04-06T16:47:15Z</time></trkpt><trkpt lat="43.300292918824276" lon="11.352050135445879"><ele>198.0</ele><time>2026-04-06T16:47:16Z</time></trkpt><trkpt lat="43.300268351522064" lon="11.351900020148236"><ele>198.5</ele><time>2026-04-06T16:47:17Z</time></trkpt><trkpt lat="43.30024413848502" lon="11.35175338956772"><ele>199.0</ele><time>2026-04-06T16:47:18Z</time></trkpt><trkpt lat="43.30021994615789" lon="11.351598189883067"><ele>199.5</ele><time>2026-04-06T16:47:19Z</time></trkpt><trkpt lat="43.30019287560208" lon="11.35142691752659"><ele>200.0</ele><time>2026-04-06T16:47:20Z</time></trkpt><trkpt lat="43.30016634418924" lon="11.351262447424633"><ele>200.5</ele><time>2026-04-06T16:47:21Z</time></trkpt><trkpt lat="43.30014104078074" lon="11.351094412335952"><ele>201.0</ele><time>2026-04-06T16:47:22Z</time></trkpt><trkpt lat="43.30011333759615" lon="11.3509180562492"><ele>201.5</ele><time>2026-04-06T16:47:23Z</time></trkpt><trkpt lat="43.3000841818338" lon="11.3507316896483"><ele>202.0</ele><time>2026-04-06T16:47:24Z</time></trkpt><trkpt lat="43.30005571423192" lon="11.350555965143785"><ele>203.5</ele><time>2026-04-06T16:47:25Z</time></trkpt><trkpt lat="43.300028268924585" lon="11.350378151455562"><ele>205.0</ele><time>2026-04-06T16:47:26Z</time></trkpt><trkpt lat="43.30000218725851" lon="11.350191150755418"><ele>206.5</ele><time>2026-04-06T16:47:27Z</time></trkpt><trkpt lat="43.29997431565582" lon="11.35000186072013"><ele>208.0</ele><time>2026-04-06T16:47:28Z</time></trkpt><trkpt lat="43.299943989401555" lon="11.349806884488364"><ele>208.75</ele><time>2026-04-06T16:47:29Z</time></trkpt><trkpt lat="43.299911834535706" lon="11.349615268394993"><ele>209.5</ele><time>2026-04-06T16:47:30Z</time></trkpt><trkpt lat="43.29988256542625" lon="11.349436103757464"><ele>210.25</ele><time>2026-04-06T16:47:31Z</time></trkpt><trkpt lat="43.29985371199253" lon="11.349257295912764"><ele>211.0</ele><time>2026-04-06T16:47:32Z</time></trkpt><trkpt lat="43.29982633278758" lon="11.34907537304268"><ele>211.0</ele><time>2026-04-06T16:47:33Z</time></trkpt><trkpt lat="43.29979796817837" lon="11.34888711099134"><ele>211.0</ele><time>2026-04-06T16:47:34Z</time></trkpt><trkpt lat="43.299767914049426" lon="11.348696601639157"><ele>211.0</ele><time>2026-04-06T16:47:35Z</time></trkpt><trkpt lat="43.29973862045844" lon="11.34851249318005"><ele>211.0</ele><time>2026-04-06T16:47:35.999Z</time></trkpt><trkpt lat="43.29970823835414" lon="11.348329371532808"><ele>209.5</ele><time>2026-04-06T16:47:36.999Z</time></trkpt><trkpt lat="43.29968224826575" lon="11.348154241337053"><ele>208.0</ele><time>2026-04-06T16:47:37.999Z</time></trkpt><trkpt lat="43.299654563551435" lon="11.347973080935473"><ele>206.5</ele><time>2026-04-06T16:47:38.999Z</time></trkpt><trkpt lat="43.29962612168554" lon="11.347789811168138"><ele>205.0</ele><time>2026-04-06T16:47:39.999Z</time></trkpt><trkpt lat="43.29959751226604" lon="11.347612586570069"><ele>205.0</ele><time>2026-04-06T16:47:40.999Z</time></trkpt><trkpt lat="43.29957079261928" lon="11.347444068792496"><ele>205.0</ele><time>2026-04-06T16:47:41.999Z</time></trkpt><trkpt lat="43.29954483523763" lon="11.34727556624255"><ele>205.0</ele><time>2026-04-06T16:47:42.999Z</time></trkpt><trkpt lat="43.29951818864698" lon="11.34711417415474"><ele>205.0</ele><time>2026-04-06T16:47:43.999Z</time></trkpt><trkpt lat="43.299489162986546" lon="11.346943828274807"><ele>205.0</ele><time>2026-04-06T16:47:44.999Z</time></trkpt><trkpt lat="43.299460755298774" lon="11.346764543977029"><ele>205.0</ele><time>2026-04-06T16:47:45.999Z</time></trkpt><trkpt lat="43.29943200076579" lon="11.346578746434846"><ele>205.0</ele><time>2026-04-06T16:47:46.999Z</time></trkpt><trkpt lat="43.29940423002413" lon="11.346395564258064"><ele>205.0</ele><time>2026-04-06T16:47:47.999Z</time></trkpt><trkpt lat="43.29937472042936" lon="11.346213468418927"><ele>206.25</ele><time>2026-04-06T16:47:48.999Z</time></trkpt><trkpt lat="43.29934630851277" lon="11.34603290042372"><ele>207.5</ele><time>2026-04-06T16:47:49.999Z</time></trkpt><trkpt lat="43.29931639956441" lon="11.345839780853051"><ele>208.75</ele><time>2026-04-06T16:47:50.999Z</time></trkpt><trkpt lat="43.299287888638524" lon="11.345649781785827"><ele>210.0</ele><time>2026-04-06T16:47:51.999Z</time></trkpt><trkpt lat="43.29926122519307" lon="11.345470034617199"><ele>210.25</ele><time>2026-04-06T16:47:52.999Z</time></trkpt><trkpt lat="43.29923270905787" lon="11.345283933866584"><ele>210.5</ele><time>2026-04-06T16:47:53.999Z</time></trkpt><trkpt lat="43.299199902888276" lon="11.34508026743474"><ele>210.75</ele><time>2026-04-06T16:47:54.999Z</time></trkpt><trkpt lat="43.29916637530811" lon="11.344880603039735"><ele>211.0</ele><time>2026-04-06T16:47:55.999Z</time></trkpt><trkpt lat="43.29913465497447" lon="11.3446806649104"><ele>211.0</ele><time>2026-04-06T16:47:56.999Z</time></trkpt><trkpt lat="43.2991019365037" lon="11.344472133072346"><ele>211.0</ele><time>2026-04-06T16:47:57.999Z</time></trkpt><trkpt lat="43.29907068735027" lon="11.344269959302258"><ele>211.0</ele><time>2026-04-06T16:47:58.999Z</time></trkpt><trkpt lat="43.29903494446167" lon="11.344058994206778"><ele>212.0</ele><time>2026-04-06T16:47:59.999Z</time></trkpt><trkpt lat="43.298997489213505" lon="11.343849365436784"><ele>213.0</ele><time>2026-04-06T16:48:00.999Z</time></trkpt><trkpt lat="43.29895545193484" lon="11.343637548616108"><ele>214.0</ele><time>2026-04-06T16:48:01.999Z</time></trkpt><trkpt lat="43.298916071231865" lon="11.343426005550807"><ele>214.0</ele><time>2026-04-06T16:48:02.999Z</time></trkpt><trkpt lat="43.298872302190205" lon="11.343219974736124"><ele>214.0</ele><time>2026-04-06T16:48:03.999Z</time></trkpt><trkpt lat="43.29882698491663" lon="11.343018917107312"><ele>214.0</ele><time>2026-04-06T16:48:04.999Z</time></trkpt><trkpt lat="43.2987801847326" lon="11.342816084328318"><ele>215.0</ele><time>2026-04-06T16:48:05.999Z</time></trkpt><trkpt lat="43.298729719094354" lon="11.342609438598858"><ele>216.0</ele><time>2026-04-06T16:48:06.999Z</time></trkpt><trkpt lat="43.2986751193401" lon="11.342404987123574"><ele>217.0</ele><time>2026-04-06T16:48:07.999Z</time></trkpt><trkpt lat="43.29861659568828" lon="11.342192573463036"><ele>219.33333333333331</ele><time>2026-04-06T16:48:08.999Z</time></trkpt><trkpt lat="43.29855438309299" lon="11.341977842281887"><ele>221.66666666666669</ele><time>2026-04-06T16:48:09.999Z</time></trkpt><trkpt lat="43.29848777029957" lon="11.341757937474867"><ele>224.0</ele><time>2026-04-06T16:48:10.999Z</time></trkpt><trkpt lat="43.29841764427902" lon="11.341543808228877"><ele>224.66666666666669</ele><time>2026-04-06T16:48:11.999Z</time></trkpt><trkpt lat="43.298346731613435" lon="11.34134378563663"><ele>225.33333333333331</ele><time>2026-04-06T16:48:12.999Z</time></trkpt><trkpt lat="43.29827469186319" lon="11.341140557182682"><ele>226.0</ele><time>2026-04-06T16:48:13.999Z</time></trkpt><trkpt lat="43.29820415771905" lon="11.340941478746249"><ele>226.0</ele><time>2026-04-06T16:48:14.999Z</time></trkpt><trkpt lat="43.298139454834505" lon="11.340753353684981"><ele>226.0</ele><time>2026-04-06T16:48:15.999Z</time></trkpt><trkpt lat="43.2980707402581" lon="11.340558775851996"><ele>226.0</ele><time>2026-04-06T16:48:16.999Z</time></trkpt><trkpt lat="43.297998283968475" lon="11.340353434592952"><ele>227.66666666666666</ele><time>2026-04-06T16:48:17.999Z</time></trkpt><trkpt lat="43.297927036099786" lon="11.340148358811748"><ele>229.33333333333331</ele><time>2026-04-06T16:48:18.999Z</time></trkpt><trkpt lat="43.29785430139932" lon="11.339943708758895"><ele>231.0</ele><time>2026-04-06T16:48:19.999Z</time></trkpt><trkpt lat="43.29777923924132" lon="11.339734081195333"><ele>233.0</ele><time>2026-04-06T16:48:20.999Z</time></trkpt><trkpt lat="43.29770343897654" lon="11.33952558126032"><ele>235.0</ele><time>2026-04-06T16:48:21.999Z</time></trkpt><trkpt lat="43.29762864702618" lon="11.33932665847552"><ele>237.0</ele><time>2026-04-06T16:48:22.999Z</time></trkpt><trkpt lat="43.297541265169336" lon="11.339128140660955"><ele>237.0</ele><time>2026-04-06T16:48:23.999Z</time></trkpt><trkpt lat="43.29745915460928" lon="11.338947057623205"><ele>237.0</ele><time>2026-04-06T16:48:24.999Z</time></trkpt><trkpt lat="43.2973917565864" lon="11.338773647713873"><ele>237.0</ele><time>2026-04-06T16:48:25.999Z</time></trkpt><trkpt lat="43.29730862641735" lon="11.33858045430711"><ele>235.0</ele><time>2026-04-06T16:48:26.999Z</time></trkpt><trkpt lat="43.297221130873794" lon="11.33839898674052"><ele>233.0</ele><time>2026-04-06T16:48:27.999Z</time></trkpt><trkpt lat="43.297118022264804" lon="11.33823232369859"><ele>231.0</ele><time>2026-04-06T16:48:28.999Z</time></trkpt><trkpt lat="43.297024904272604" lon="11.338046182194109"><ele>229.33333333333331</ele><time>2026-04-06T16:48:29.999Z</time></trkpt><trkpt lat="43.29694710708886" lon="11.337857049903416"><ele>227.66666666666666</ele><time>2026-04-06T16:48:30.999Z</time></trkpt><trkpt lat="43.29677492703069" lon="11.337739409694361"><ele>226.0</ele><time>2026-04-06T16:48:31.999Z</time></trkpt><trkpt lat="43.296783412775355" lon="11.337481721062654"><ele>226.0</ele><time>2026-04-06T16:48:32.999Z</time></trkpt><trkpt lat="43.29667977359501" lon="11.337307157514212"><ele>226.0</ele><time>2026-04-06T16:48:33.999Z</time></trkpt><trkpt lat="43.29657532350729" lon="11.337126675377025"><ele>226.0</ele><time>2026-04-06T16:48:34.999Z</time></trkpt><trkpt lat="43.29647957348036" lon="11.336937119278545"><ele>223.0</ele><time>2026-04-06T16:48:35.999Z</time></trkpt><trkpt lat="43.29639354993305" lon="11.33673270049901"><ele>220.0</ele><time>2026-04-06T16:48:36.999Z</time></trkpt><trkpt lat="43.29632426949403" lon="11.336519773683236"><ele>217.0</ele><time>2026-04-06T16:48:37.999Z</time></trkpt><trkpt lat="43.29625980536639" lon="11.336293330739755"><ele>216.0</ele><time>2026-04-06T16:48:38.999Z</time></trkpt><trkpt lat="43.296205927145" lon="11.336067024145441"><ele>215.0</ele><time>2026-04-06T16:48:39.999Z</time></trkpt><trkpt lat="43.29615930334436" lon="11.335835653062935"><ele>214.0</ele><time>2026-04-06T16:48:40.999Z</time></trkpt><trkpt lat="43.29612127033792" lon="11.33559234057385"><ele>213.66666666666666</ele><time>2026-04-06T16:48:41.999Z</time></trkpt><trkpt lat="43.29609413216372" lon="11.33533916576479"><ele>213.33333333333331</ele><time>2026-04-06T16:48:42.999Z</time></trkpt><trkpt lat="43.29608016483617" lon="11.335084252159007"><ele>213.0</ele><time>2026-04-06T16:48:43.999Z</time></trkpt><trkpt lat="43.29607184820126" lon="11.33482895965224"><ele>213.0</ele><time>2026-04-06T16:48:44.999Z</time></trkpt><trkpt lat="43.296075273961854" lon="11.334571722955278"><ele>213.0</ele><time>2026-04-06T16:48:45.999Z</time></trkpt><trkpt lat="43.296088887885375" lon="11.334308489729077"><ele>213.0</ele><time>2026-04-06T16:48:46.999Z</time></trkpt><trkpt lat="43.296114369684474" lon="11.334052528189293"><ele>212.66666666666669</ele><time>2026-04-06T16:48:47.999Z</time></trkpt><trkpt lat="43.29615538235126" lon="11.3337873232963"><ele>212.33333333333334</ele><time>2026-04-06T16:48:48.999Z</time></trkpt><trkpt lat="43.29620508429162" lon="11.33352279028135"><ele>212.0</ele><time>2026-04-06T16:48:49.999Z</time></trkpt><trkpt lat="43.29626916249069" lon="11.333260073029995"><ele>212.0</ele><time>2026-04-06T16:48:50.999Z</time></trkpt><trkpt lat="43.29634181568845" lon="11.333016027813954"><ele>212.0</ele><time>2026-04-06T16:48:51.999Z</time></trkpt><trkpt lat="43.296421829674905" lon="11.332763410480043"><ele>212.0</ele><time>2026-04-06T16:48:52.999Z</time></trkpt><trkpt lat="43.29650914100182" lon="11.332518911817223"><ele>213.33333333333334</ele><time>2026-04-06T16:48:53.999Z</time></trkpt><trkpt lat="43.296614392930096" lon="11.332276588900765"><ele>214.66666666666669</ele><time>2026-04-06T16:48:54.999Z</time></trkpt><trkpt lat="43.29672621857926" lon="11.332041567320525"><ele>216.0</ele><time>2026-04-06T16:48:55.999Z</time></trkpt><trkpt lat="43.29683754732007" lon="11.33180210795651"><ele>216.0</ele><time>2026-04-06T16:48:56.999Z</time></trkpt><trkpt lat="43.296953158615395" lon="11.331559723642847"><ele>216.0</ele><time>2026-04-06T16:48:57.999Z</time></trkpt><trkpt lat="43.29707413282746" lon="11.3313243964783"><ele>216.0</ele><time>2026-04-06T16:48:58.999Z</time></trkpt><trkpt lat="43.29720838431107" lon="11.33108285277659"><ele>216.33333333333331</ele><time>2026-04-06T16:48:59.999Z</time></trkpt><trkpt lat="43.29734226795533" lon="11.33084776075204"><ele>216.66666666666666</ele><time>2026-04-06T16:49:00.999Z</time></trkpt><trkpt lat="43.297478311607485" lon="11.330605290634201"><ele>217.0</ele><time>2026-04-06T16:49:01.999Z</time></trkpt><trkpt lat="43.29761365241126" lon="11.330353723832431"><ele>216.0</ele><time>2026-04-06T16:49:02.998Z</time></trkpt><trkpt lat="43.297752190947435" lon="11.33008941166266"><ele>215.0</ele><time>2026-04-06T16:49:03.998Z</time></trkpt><trkpt lat="43.297890647310105" lon="11.329827574434853"><ele>215.0</ele><time>2026-04-06T16:49:04.998Z</time></trkpt><trkpt lat="43.29802538617044" lon="11.32957864305208"><ele>215.0</ele><time>2026-04-06T16:49:05.998Z</time></trkpt><trkpt lat="43.29816372626761" lon="11.329328547650935"><ele>216.5</ele><time>2026-04-06T16:49:06.998Z</time></trkpt><trkpt lat="43.29830425525452" lon="11.32907235215674"><ele>218.0</ele><time>2026-04-06T16:49:07.998Z</time></trkpt><trkpt lat="43.298446155060276" lon="11.328806935811391"><ele>218.0</ele><time>2026-04-06T16:49:08.998Z</time></trkpt><trkpt lat="43.29859173315415" lon="11.32853557942383"><ele>218.0</ele><time>2026-04-06T16:49:10Z</time></trkpt><trkpt lat="43.29873922466873" lon="11.328263135209438"><ele>217.5</ele><time>2026-04-06T16:49:11Z</time></trkpt><trkpt lat="43.298893434276415" lon="11.327980524886176"><ele>217.0</ele><time>2026-04-06T16:49:12Z</time></trkpt><trkpt lat="43.299055631400094" lon="11.327689031542942"><ele>216.5</ele><time>2026-04-06T16:49:13Z</time></trkpt><trkpt lat="43.299220533979415" lon="11.327397228965848"><ele>216.0</ele><time>2026-04-06T16:49:14Z</time></trkpt><trkpt lat="43.299387002672994" lon="11.327103281774281"><ele>217.5</ele><time>2026-04-06T16:49:15Z</time></trkpt><trkpt lat="43.299549185770644" lon="11.326812650291622"><ele>219.0</ele><time>2026-04-06T16:49:16Z</time></trkpt><trkpt lat="43.29970464146487" lon="11.326530309792366"><ele>220.0</ele><time>2026-04-06T16:49:17Z</time></trkpt><trkpt lat="43.29986281861911" lon="11.326241622385947"><ele>221.0</ele><time>2026-04-06T16:49:18Z</time></trkpt><trkpt lat="43.30002210311692" lon="11.32595252324528"><ele>221.0</ele><time>2026-04-06T16:49:19Z</time></trkpt><trkpt lat="43.30018151397568" lon="11.32566297881256"><ele>221.0</ele><time>2026-04-06T16:49:20Z</time></trkpt><trkpt lat="43.300342884557324" lon="11.325369856939085"><ele>221.5</ele><time>2026-04-06T16:49:21Z</time></trkpt><trkpt lat="43.300512775487334" lon="11.325068281872143"><ele>222.0</ele><time>2026-04-06T16:49:22Z</time></trkpt><trkpt lat="43.30068599132914" lon="11.324763699451575"><ele>223.0</ele><time>2026-04-06T16:49:23Z</time></trkpt><trkpt lat="43.30085904019045" lon="11.324463644762705"><ele>224.0</ele><time>2026-04-06T16:49:24Z</time></trkpt><trkpt lat="43.301035357170925" lon="11.324165045340214"><ele>225.5</ele><time>2026-04-06T16:49:25Z</time></trkpt><trkpt lat="43.30121555713519" lon="11.3238687365799"><ele>227.0</ele><time>2026-04-06T16:49:26Z</time></trkpt><trkpt lat="43.30139554493546" lon="11.323579358748267"><ele>227.0</ele><time>2026-04-06T16:49:27Z</time></trkpt><trkpt lat="43.301581252589735" lon="11.323286944006766"><ele>227.0</ele><time>2026-04-06T16:49:28Z</time></trkpt><trkpt lat="43.30176564866545" lon="11.32300273005295"><ele>227.0</ele><time>2026-04-06T16:49:29Z</time></trkpt><trkpt lat="43.30195288239526" lon="11.322714070324944"><ele>227.0</ele><time>2026-04-06T16:49:30Z</time></trkpt><trkpt lat="43.30213863861763" lon="11.322430516367008"><ele>227.5</ele><time>2026-04-06T16:49:31Z</time></trkpt><trkpt lat="43.30232919253838" lon="11.322144318043799"><ele>228.0</ele><time>2026-04-06T16:49:32Z</time></trkpt><trkpt lat="43.302519667196826" lon="11.321859394702265"><ele>228.0</ele><time>2026-04-06T16:49:33Z</time></trkpt><trkpt lat="43.30270967980886" lon="11.321575281063378"><ele>228.0</ele><time>2026-04-06T16:49:34Z</time></trkpt><trkpt lat="43.3028990027833" lon="11.321289437387984"><ele>227.0</ele><time>2026-04-06T16:49:35Z</time></trkpt><trkpt lat="43.30308817411591" lon="11.321003040653645"><ele>226.0</ele><time>2026-04-06T16:49:36Z</time></trkpt><trkpt lat="43.303274928543615" lon="11.320720151991953"><ele>229.5</ele><time>2026-04-06T16:49:37Z</time></trkpt><trkpt lat="43.30346107602484" lon="11.320438198289208"><ele>233.0</ele><time>2026-04-06T16:49:38Z</time></trkpt><trkpt lat="43.30364373180517" lon="11.320160675720043"><ele>233.0</ele><time>2026-04-06T16:49:39Z</time></trkpt><trkpt lat="43.30382466432546" lon="11.319886884671794"><ele>233.0</ele><time>2026-04-06T16:49:40Z</time></trkpt><trkpt lat="43.304006776665666" lon="11.319612606872417"><ele>230.0</ele><time>2026-04-06T16:49:41Z</time></trkpt><trkpt lat="43.30418493732767" lon="11.31934266149552"><ele>227.0</ele><time>2026-04-06T16:49:42Z</time></trkpt><trkpt lat="43.304365987462745" lon="11.319070150019595"><ele>229.0</ele><time>2026-04-06T16:49:42.999Z</time></trkpt><trkpt lat="43.3045465795653" lon="11.318797695862179"><ele>231.0</ele><time>2026-04-06T16:49:43.999Z</time></trkpt><trkpt lat="43.304724001862695" lon="11.318528635250392"><ele>229.0</ele><time>2026-04-06T16:49:44.999Z</time></trkpt><trkpt lat="43.30490021069066" lon="11.318261231864279"><ele>227.0</ele><time>2026-04-06T16:49:45.999Z</time></trkpt><trkpt lat="43.30507564098204" lon="11.317996616230445"><ele>227.0</ele><time>2026-04-06T16:49:46.999Z</time></trkpt><trkpt lat="43.305250159751225" lon="11.317735147967142"><ele>227.0</ele><time>2026-04-06T16:49:47.999Z</time></trkpt><trkpt lat="43.305422083145814" lon="11.317474966728064"><ele>230.5</ele><time>2026-04-06T16:49:48.999Z</time></trkpt><trkpt lat="43.30559386459966" lon="11.317213555289953"><ele>234.0</ele><time>2026-04-06T16:49:49.999Z</time></trkpt><trkpt lat="43.30576425048415" lon="11.316957460327735"><ele>234.0</ele><time>2026-04-06T16:49:50.999Z</time></trkpt><trkpt lat="43.30593978617276" lon="11.316697838003579"><ele>234.0</ele><time>2026-04-06T16:49:51.999Z</time></trkpt><trkpt lat="43.306116868091586" lon="11.316442846659685"><ele>233.5</ele><time>2026-04-06T16:49:52.999Z</time></trkpt><trkpt lat="43.3063060424843" lon="11.31618463957702"><ele>233.0</ele><time>2026-04-06T16:49:53.999Z</time></trkpt><trkpt lat="43.30650495868601" lon="11.315932636279088"><ele>233.0</ele><time>2026-04-06T16:49:54.999Z</time></trkpt><trkpt lat="43.30671130929696" lon="11.31568318862064"><ele>233.0</ele><time>2026-04-06T16:49:55.999Z</time></trkpt><trkpt lat="43.306922292917356" lon="11.315441407151077"><ele>234.0</ele><time>2026-04-06T16:49:56.999Z</time></trkpt><trkpt lat="43.30713779142959" lon="11.315200664699072"><ele>235.0</ele><time>2026-04-06T16:49:57.999Z</time></trkpt><trkpt lat="43.307360914470834" lon="11.314966101088524"><ele>233.5</ele><time>2026-04-06T16:49:58.999Z</time></trkpt><trkpt lat="43.30759095110826" lon="11.31473746084008"><ele>232.0</ele><time>2026-04-06T16:49:59.999Z</time></trkpt><trkpt lat="43.30782499689431" lon="11.314517322124011"><ele>232.0</ele><time>2026-04-06T16:50:00.999Z</time></trkpt><trkpt lat="43.30806522338784" lon="11.314306146162966"><ele>232.0</ele><time>2026-04-06T16:50:01.999Z</time></trkpt><trkpt lat="43.308306190858495" lon="11.314101559818372"><ele>237.0</ele><time>2026-04-06T16:50:02.999Z</time></trkpt><trkpt lat="43.30855072312681" lon="11.313894304377156"><ele>242.0</ele><time>2026-04-06T16:50:03.999Z</time></trkpt><trkpt lat="43.308789357041036" lon="11.313691505678603"><ele>238.5</ele><time>2026-04-06T16:50:04.999Z</time></trkpt><trkpt lat="43.30902586080523" lon="11.313482289359857"><ele>235.0</ele><time>2026-04-06T16:50:05.999Z</time></trkpt><trkpt lat="43.309260390936224" lon="11.313271032024524"><ele>235.5</ele><time>2026-04-06T16:50:06.999Z</time></trkpt><trkpt lat="43.30949241880541" lon="11.313062218121008"><ele>236.0</ele><time>2026-04-06T16:50:07.999Z</time></trkpt><trkpt lat="43.30972599730338" lon="11.312853290317582"><ele>235.5</ele><time>2026-04-06T16:50:08.999Z</time></trkpt><trkpt lat="43.30995965317135" lon="11.312647287593173"><ele>235.0</ele><time>2026-04-06T16:50:09.999Z</time></trkpt><trkpt lat="43.31019306397209" lon="11.31244516919948"><ele>235.0</ele><time>2026-04-06T16:50:10.999Z</time></trkpt><trkpt lat="43.310425504042215" lon="11.31224276080155"><ele>235.0</ele><time>2026-04-06T16:50:11.999Z</time></trkpt><trkpt lat="43.310654178791246" lon="11.31204175636997"><ele>237.0</ele><time>2026-04-06T16:50:12.999Z</time></trkpt><trkpt lat="43.31087963855294" lon="11.311838537975675"><ele>239.0</ele><time>2026-04-06T16:50:13.999Z</time></trkpt><trkpt lat="43.31109986198755" lon="11.311640536636316"><ele>239.0</ele><time>2026-04-06T16:50:14.999Z</time></trkpt><trkpt lat="43.31131845111751" lon="11.31144562982251"><ele>239.0</ele><time>2026-04-06T16:50:15.999Z</time></trkpt><trkpt lat="43.311542828028585" lon="11.31123648767468"><ele>239.5</ele><time>2026-04-06T16:50:16.999Z</time></trkpt><trkpt lat="43.31174901874995" lon="11.311047660358298"><ele>240.0</ele><time>2026-04-06T16:50:17.999Z</time></trkpt><trkpt lat="43.31195563842344" lon="11.31084490035661"><ele>240.0</ele><time>2026-04-06T16:50:18.999Z</time></trkpt><trkpt lat="43.31215722327313" lon="11.310631914215678"><ele>240.0</ele><time>2026-04-06T16:50:19.999Z</time></trkpt><trkpt lat="43.312357363192326" lon="11.310408198362381"><ele>239.5</ele><time>2026-04-06T16:50:20.999Z</time></trkpt><trkpt lat="43.31255151900694" lon="11.310178558762205"><ele>239.0</ele><time>2026-04-06T16:50:21.999Z</time></trkpt><trkpt lat="43.31274350043512" lon="11.309945947619962"><ele>239.0</ele><time>2026-04-06T16:50:22.999Z</time></trkpt><trkpt lat="43.312930113849795" lon="11.309707798643124"><ele>239.0</ele><time>2026-04-06T16:50:23.999Z</time></trkpt><trkpt lat="43.31311982517839" lon="11.309459515047624"><ele>241.0</ele><time>2026-04-06T16:50:24.999Z</time></trkpt><trkpt lat="43.313307112946504" lon="11.309207948194496"><ele>243.0</ele><time>2026-04-06T16:50:25.999Z</time></trkpt><trkpt lat="43.3134912304869" lon="11.308950025827675"><ele>242.0</ele><time>2026-04-06T16:50:26.999Z</time></trkpt><trkpt lat="43.313667465633536" lon="11.308689022564014"><ele>241.0</ele><time>2026-04-06T16:50:27.999Z</time></trkpt><trkpt lat="43.31383538033632" lon="11.308421897003413"><ele>243.0</ele><time>2026-04-06T16:50:28.999Z</time></trkpt><trkpt lat="43.31400237555855" lon="11.30815439753849"><ele>245.0</ele><time>2026-04-06T16:50:29.999Z</time></trkpt><trkpt lat="43.31415989831215" lon="11.307891168012832"><ele>245.0</ele><time>2026-04-06T16:50:30.999Z</time></trkpt><trkpt lat="43.31430759172036" lon="11.307635312058041"><ele>245.0</ele><time>2026-04-06T16:50:31.999Z</time></trkpt><trkpt lat="43.31444913402501" lon="11.307379024624819"><ele>251.0</ele><time>2026-04-06T16:50:32.999Z</time></trkpt><trkpt lat="43.314586707810875" lon="11.307123094957133"><ele>257.0</ele><time>2026-04-06T16:50:33.999Z</time></trkpt><trkpt lat="43.31472573695405" lon="11.306858294104448"><ele>254.0</ele><time>2026-04-06T16:50:34.999Z</time></trkpt><trkpt lat="43.314858206257654" lon="11.306599448801506"><ele>251.0</ele><time>2026-04-06T16:50:35.999Z</time></trkpt><trkpt lat="43.3149928208293" lon="11.306336554490562"><ele>251.0</ele><time>2026-04-06T16:50:36.999Z</time></trkpt><trkpt lat="43.31512834380899" lon="11.306077881440851"><ele>251.0</ele><time>2026-04-06T16:50:37.999Z</time></trkpt><trkpt lat="43.315265651451384" lon="11.305817737063249"><ele>254.0</ele><time>2026-04-06T16:50:38.999Z</time></trkpt><trkpt lat="43.315404749448774" lon="11.30555168002186"><ele>257.0</ele><time>2026-04-06T16:50:39.999Z</time></trkpt><trkpt lat="43.315545177019615" lon="11.305284008401369"><ele>251.5</ele><time>2026-04-06T16:50:40.999Z</time></trkpt><trkpt lat="43.31568741636211" lon="11.305017321213247"><ele>246.0</ele><time>2026-04-06T16:50:41.999Z</time></trkpt><trkpt lat="43.31583357379847" lon="11.304751148172636"><ele>249.0</ele><time>2026-04-06T16:50:42.999Z</time></trkpt><trkpt lat="43.3159870272509" lon="11.304485464193773"><ele>252.0</ele><time>2026-04-06T16:50:43.999Z</time></trkpt><trkpt lat="43.316150450673334" lon="11.3042278666859"><ele>252.0</ele><time>2026-04-06T16:50:44.999Z</time></trkpt><trkpt lat="43.316320412213635" lon="11.303976696685195"><ele>252.0</ele><time>2026-04-06T16:50:45.999Z</time></trkpt><trkpt lat="43.31649580139663" lon="11.303730255121804"><ele>250.5</ele><time>2026-04-06T16:50:46.999Z</time></trkpt><trkpt lat="43.31667327861155" lon="11.30348849217451"><ele>249.0</ele><time>2026-04-06T16:50:47.999Z</time></trkpt><trkpt lat="43.31685862970564" lon="11.303249082937707"><ele>249.0</ele><time>2026-04-06T16:50:48.999Z</time></trkpt><trkpt lat="43.31705036707082" lon="11.30301469874524"><ele>249.0</ele><time>2026-04-06T16:50:49.999Z</time></trkpt><trkpt lat="43.31724983682135" lon="11.30278979843406"><ele>249.0</ele><time>2026-04-06T16:50:50.999Z</time></trkpt><trkpt lat="43.31745859144446" lon="11.302571160444865"><ele>249.0</ele><time>2026-04-06T16:50:51.999Z</time></trkpt><trkpt lat="43.31767312755328" lon="11.30235402829911"><ele>250.0</ele><time>2026-04-06T16:50:52.999Z</time></trkpt><trkpt lat="43.317890110539636" lon="11.30214123292569"><ele>251.0</ele><time>2026-04-06T16:50:53.999Z</time></trkpt><trkpt lat="43.318114638391144" lon="11.301937697791628"><ele>251.0</ele><time>2026-04-06T16:50:54.999Z</time></trkpt><trkpt lat="43.318351259863604" lon="11.301742066147087"><ele>251.0</ele><time>2026-04-06T16:50:55.999Z</time></trkpt><trkpt lat="43.318603499203" lon="11.301546405711777"><ele>254.5</ele><time>2026-04-06T16:50:56.999Z</time></trkpt><trkpt lat="43.318862963760054" lon="11.301364963274745"><ele>258.0</ele><time>2026-04-06T16:50:57.999Z</time></trkpt><trkpt lat="43.319124977006666" lon="11.301188081564037"><ele>258.0</ele><time>2026-04-06T16:50:58.999Z</time></trkpt><trkpt lat="43.31938493283966" lon="11.30100988427096"><ele>258.0</ele><time>2026-04-06T16:50:59.999Z</time></trkpt><trkpt lat="43.31964192950972" lon="11.300829620538263"><ele>257.5</ele><time>2026-04-06T16:51:00.999Z</time></trkpt><trkpt lat="43.31989523961094" lon="11.30064659898571"><ele>257.0</ele><time>2026-04-06T16:51:01.999Z</time></trkpt><trkpt lat="43.3201460595746" lon="11.300466490135053"><ele>257.0</ele><time>2026-04-06T16:51:02.999Z</time></trkpt><trkpt lat="43.32039463983055" lon="11.300291042748722"><ele>257.0</ele><time>2026-04-06T16:51:03.999Z</time></trkpt><trkpt lat="43.320649867696666" lon="11.300110438238"><ele>257.0</ele><time>2026-04-06T16:51:04.999Z</time></trkpt><trkpt lat="43.320901334393945" lon="11.299934201168416"><ele>257.0</ele><time>2026-04-06T16:51:05.999Z</time></trkpt><trkpt lat="43.32115656926333" lon="11.299754352314885"><ele>259.0</ele><time>2026-04-06T16:51:06.999Z</time></trkpt><trkpt lat="43.32141208637821" lon="11.299576861578243"><ele>261.0</ele><time>2026-04-06T16:51:07.999Z</time></trkpt><trkpt lat="43.32166710571458" lon="11.299395537443326"><ele>261.0</ele><time>2026-04-06T16:51:08.999Z</time></trkpt><trkpt lat="43.32192252978029" lon="11.299213865386463"><ele>261.0</ele><time>2026-04-06T16:51:09.999Z</time></trkpt><trkpt lat="43.32217844185695" lon="11.299033308763853"><ele>259.0</ele><time>2026-04-06T16:51:10.999Z</time></trkpt><trkpt lat="43.322433204043314" lon="11.298853590460112"><ele>257.0</ele><time>2026-04-06T16:51:11.998Z</time></trkpt><trkpt lat="43.32268929120894" lon="11.298672296330441"><ele>257.0</ele><time>2026-04-06T16:51:12.998Z</time></trkpt><trkpt lat="43.322944703022884" lon="11.298490727847415"><ele>257.0</ele><time>2026-04-06T16:51:13.998Z</time></trkpt><trkpt lat="43.32319921811227" lon="11.298313060849248"><ele>258.0</ele><time>2026-04-06T16:51:14.998Z</time></trkpt><trkpt lat="43.32345569588054" lon="11.298133420067272"><ele>259.0</ele><time>2026-04-06T16:51:16Z</time></trkpt><trkpt lat="43.323709601841315" lon="11.297955148056513"><ele>260.5</ele><time>2026-04-06T16:51:17Z</time></trkpt><trkpt lat="43.32396192853435" lon="11.297779749600684"><ele>262.0</ele><time>2026-04-06T16:51:18Z</time></trkpt><trkpt lat="43.32421685862778" lon="11.297602497997447"><ele>262.0</ele><time>2026-04-06T16:51:19Z</time></trkpt><trkpt lat="43.32447020118786" lon="11.297426280228795"><ele>262.0</ele><time>2026-04-06T16:51:20Z</time></trkpt><trkpt lat="43.32472222218694" lon="11.297248996213355"><ele>261.0</ele><time>2026-04-06T16:51:21Z</time></trkpt><trkpt lat="43.32497153336182" lon="11.297072431855499"><ele>260.0</ele><time>2026-04-06T16:51:22Z</time></trkpt><trkpt lat="43.3252213416007" lon="11.296896691404996"><ele>260.0</ele><time>2026-04-06T16:51:23Z</time></trkpt><trkpt lat="43.32547140111815" lon="11.29672050139227"><ele>260.0</ele><time>2026-04-06T16:51:24Z</time></trkpt><trkpt lat="43.32572152358148" lon="11.296543582923437"><ele>258.5</ele><time>2026-04-06T16:51:25Z</time></trkpt><trkpt lat="43.32596891041258" lon="11.296368885626267"><ele>257.0</ele><time>2026-04-06T16:51:26Z</time></trkpt><trkpt lat="43.32621716812249" lon="11.296191192662256"><ele>260.5</ele><time>2026-04-06T16:51:27Z</time></trkpt><trkpt lat="43.32646221278047" lon="11.296013370336135"><ele>264.0</ele><time>2026-04-06T16:51:28Z</time></trkpt><trkpt lat="43.32670748958336" lon="11.295830064497705"><ele>264.0</ele><time>2026-04-06T16:51:29Z</time></trkpt><trkpt lat="43.32695081599887" lon="11.295640205941831"><ele>264.0</ele><time>2026-04-06T16:51:30Z</time></trkpt><trkpt lat="43.32719015633944" lon="11.295445156889839"><ele>265.5</ele><time>2026-04-06T16:51:31Z</time></trkpt><trkpt lat="43.32742456226602" lon="11.29524462643196"><ele>267.0</ele><time>2026-04-06T16:51:32Z</time></trkpt><trkpt lat="43.327660997805594" lon="11.295037790941162"><ele>267.0</ele><time>2026-04-06T16:51:33Z</time></trkpt><trkpt lat="43.3278955118028" lon="11.294831947864141"><ele>267.0</ele><time>2026-04-06T16:51:34Z</time></trkpt><trkpt lat="43.328129978795204" lon="11.294628646684187"><ele>266.5</ele><time>2026-04-06T16:51:35Z</time></trkpt><trkpt lat="43.32836639785301" lon="11.294426022418843"><ele>266.0</ele><time>2026-04-06T16:51:36Z</time></trkpt><trkpt lat="43.32860352831831" lon="11.294222775487016"><ele>266.0</ele><time>2026-04-06T16:51:37Z</time></trkpt><trkpt lat="43.32884148035571" lon="11.29401788405443"><ele>266.0</ele><time>2026-04-06T16:51:38Z</time></trkpt><trkpt lat="43.329080341048765" lon="11.293805987068831"><ele>267.5</ele><time>2026-04-06T16:51:38.999Z</time></trkpt><trkpt lat="43.32931633583511" lon="11.293595147244526"><ele>269.0</ele><time>2026-04-06T16:51:39.999Z</time></trkpt><trkpt lat="43.32955388726637" lon="11.293383090131698"><ele>268.5</ele><time>2026-04-06T16:51:40.999Z</time></trkpt><trkpt lat="43.32979178462588" lon="11.293172894297259"><ele>268.0</ele><time>2026-04-06T16:51:41.999Z</time></trkpt><trkpt lat="43.33003006238667" lon="11.292967391681922"><ele>268.0</ele><time>2026-04-06T16:51:42.999Z</time></trkpt><trkpt lat="43.33027139968191" lon="11.292758938521766"><ele>268.0</ele><time>2026-04-06T16:51:43.999Z</time></trkpt><trkpt lat="43.330507523786444" lon="11.292556605992498"><ele>268.0</ele><time>2026-04-06T16:51:44.999Z</time></trkpt><trkpt lat="43.33075221924707" lon="11.292362410145016"><ele>268.0</ele><time>2026-04-06T16:51:45.999Z</time></trkpt><trkpt lat="43.33100216969476" lon="11.292194488915214"><ele>268.0</ele><time>2026-04-06T16:51:46.999Z</time></trkpt><trkpt lat="43.33125799339847" lon="11.292047146787827"><ele>268.0</ele><time>2026-04-06T16:51:47.999Z</time></trkpt><trkpt lat="43.33152166032116" lon="11.291913751292721"><ele>271.0</ele><time>2026-04-06T16:51:48.999Z</time></trkpt><trkpt lat="43.33178769200362" lon="11.291794971902714"><ele>274.0</ele><time>2026-04-06T16:51:49.999Z</time></trkpt><trkpt lat="43.332050432987714" lon="11.291693502324021"><ele>278.5</ele><time>2026-04-06T16:51:50.999Z</time></trkpt><trkpt lat="43.3323166023573" lon="11.291603891057548"><ele>283.0</ele><time>2026-04-06T16:51:51.999Z</time></trkpt><trkpt lat="43.33258471900442" lon="11.29153097297134"><ele>283.0</ele><time>2026-04-06T16:51:52.999Z</time></trkpt><trkpt lat="43.33285190934606" lon="11.291472255984258"><ele>283.0</ele><time>2026-04-06T16:51:53.999Z</time></trkpt><trkpt lat="43.333123327422825" lon="11.291430761481351"><ele>281.0</ele><time>2026-04-06T16:51:54.999Z</time></trkpt><trkpt lat="43.333399608080384" lon="11.291408293538925"><ele>279.0</ele><time>2026-04-06T16:51:55.999Z</time></trkpt><trkpt lat="43.333680584955964" lon="11.291400119448577"><ele>281.5</ele><time>2026-04-06T16:51:56.999Z</time></trkpt><trkpt lat="43.33396543149579" lon="11.291412149472647"><ele>284.0</ele><time>2026-04-06T16:51:57.999Z</time></trkpt><trkpt lat="43.33424658169998" lon="11.291452413261194"><ele>288.5</ele><time>2026-04-06T16:51:58.999Z</time></trkpt><trkpt lat="43.33452326031961" lon="11.29150723886964"><ele>293.0</ele><time>2026-04-06T16:51:59.999Z</time></trkpt><trkpt lat="43.33479467680081" lon="11.291572918867544"><ele>295.5</ele><time>2026-04-06T16:52:00.999Z</time></trkpt><trkpt lat="43.33506261179696" lon="11.291653394918976"><ele>298.0</ele><time>2026-04-06T16:52:01.999Z</time></trkpt><trkpt lat="43.33532674472005" lon="11.291752666802358"><ele>299.0</ele><time>2026-04-06T16:52:02.999Z</time></trkpt><trkpt lat="43.33559039051954" lon="11.29186961791318"><ele>300.0</ele><time>2026-04-06T16:52:03.999Z</time></trkpt><trkpt lat="43.33585516720279" lon="11.29200185786034"><ele>300.0</ele><time>2026-04-06T16:52:04.999Z</time></trkpt><trkpt lat="43.33612020522191" lon="11.292151198621571"><ele>300.0</ele><time>2026-04-06T16:52:05.999Z</time></trkpt><trkpt lat="43.33638002919371" lon="11.292304071500505"><ele>301.5</ele><time>2026-04-06T16:52:06.999Z</time></trkpt><trkpt lat="43.33663803697312" lon="11.292460405062302"><ele>303.0</ele><time>2026-04-06T16:52:07.999Z</time></trkpt><trkpt lat="43.33689489719257" lon="11.292610417579658"><ele>303.0</ele><time>2026-04-06T16:52:08.999Z</time></trkpt><trkpt lat="43.3371542445912" lon="11.292760718265507"><ele>303.0</ele><time>2026-04-06T16:52:09.999Z</time></trkpt><trkpt lat="43.33741202669842" lon="11.29291065360353"><ele>304.0</ele><time>2026-04-06T16:52:10.999Z</time></trkpt><trkpt lat="43.33766897364433" lon="11.293059652836755"><ele>305.0</ele><time>2026-04-06T16:52:11.999Z</time></trkpt><trkpt lat="43.337927274598634" lon="11.293207918552415"><ele>311.0</ele><time>2026-04-06T16:52:12.999Z</time></trkpt><trkpt lat="43.33818650158264" lon="11.293355659233303"><ele>317.0</ele><time>2026-04-06T16:52:13.999Z</time></trkpt><trkpt lat="43.338446997177776" lon="11.293505329058497"><ele>317.0</ele><time>2026-04-06T16:52:14.999Z</time></trkpt><trkpt lat="43.33870818408173" lon="11.293659431007901"><ele>317.0</ele><time>2026-04-06T16:52:15.999Z</time></trkpt><trkpt lat="43.33896989399853" lon="11.293813054274036"><ele>323.0</ele><time>2026-04-06T16:52:16.999Z</time></trkpt><trkpt lat="43.339233300836554" lon="11.293965492552205"><ele>329.0</ele><time>2026-04-06T16:52:17.999Z</time></trkpt><trkpt lat="43.339496690377864" lon="11.294116078390138"><ele>334.5</ele><time>2026-04-06T16:52:18.999Z</time></trkpt><trkpt lat="43.33976193780829" lon="11.294268038943411"><ele>340.0</ele><time>2026-04-06T16:52:19.999Z</time></trkpt><trkpt lat="43.34001686708538" lon="11.294426333838206"><ele>340.0</ele><time>2026-04-06T16:52:20.999Z</time></trkpt><trkpt lat="43.34026121868825" lon="11.294592915944671"><ele>340.0</ele><time>2026-04-06T16:52:21.999Z</time></trkpt><trkpt lat="43.34049675815086" lon="11.294769712890675"><ele>340.0</ele><time>2026-04-06T16:52:22.999Z</time></trkpt><trkpt lat="43.340732222648725" lon="11.294948630029285"><ele>340.0</ele><time>2026-04-06T16:52:23.999Z</time></trkpt><trkpt lat="43.34096512375075" lon="11.295128524639955"><ele>340.0</ele><time>2026-04-06T16:52:24.999Z</time></trkpt><trkpt lat="43.34132454349881" lon="11.295260139732186"><ele>340.0</ele><time>2026-04-06T16:52:25.999Z</time></trkpt><trkpt lat="43.341654634498575" lon="11.295440880036264"><ele>334.0</ele><time>2026-04-06T16:52:26.999Z</time></trkpt><trkpt lat="43.34193241800775" lon="11.295647690312645"><ele>328.0</ele><time>2026-04-06T16:52:27.999Z</time></trkpt><trkpt lat="43.34219225341719" lon="11.295884578917725"><ele>329.5</ele><time>2026-04-06T16:52:28.999Z</time></trkpt><trkpt lat="43.342446818938555" lon="11.296120287251968"><ele>331.0</ele><time>2026-04-06T16:52:29.999Z</time></trkpt><trkpt lat="43.3426968679491" lon="11.296358402066323"><ele>330.0</ele><time>2026-04-06T16:52:30.999Z</time></trkpt><trkpt lat="43.34294692344878" lon="11.296598722964863"><ele>329.0</ele><time>2026-04-06T16:52:31.999Z</time></trkpt><trkpt lat="43.3431875920549" lon="11.296835779316872"><ele>337.0</ele><time>2026-04-06T16:52:32.999Z</time></trkpt><trkpt lat="43.34342271802719" lon="11.297048279818089"><ele>345.0</ele><time>2026-04-06T16:52:33.999Z</time></trkpt><trkpt lat="43.34365593600916" lon="11.297247446081514"><ele>352.0</ele><time>2026-04-06T16:52:34.999Z</time></trkpt><trkpt lat="43.3438938328757" lon="11.297435540091307"><ele>359.0</ele><time>2026-04-06T16:52:35.999Z</time></trkpt><trkpt lat="43.34413527791725" lon="11.297623113863256"><ele>359.0</ele><time>2026-04-06T16:52:36.999Z</time></trkpt><trkpt lat="43.344375733707835" lon="11.297817221797073"><ele>359.0</ele><time>2026-04-06T16:52:37.999Z</time></trkpt><trkpt lat="43.344636186323605" lon="11.298021723280312"><ele>358.5</ele><time>2026-04-06T16:52:39.077Z</time></trkpt><trkpt lat="43.3448746937596" lon="11.298209840281011"><ele>358.0</ele><time>2026-04-06T16:52:40.07Z</time></trkpt><trkpt lat="43.345121448087305" lon="11.298404012120233"><ele>358.0</ele><time>2026-04-06T16:52:41.07Z</time></trkpt><trkpt lat="43.345370770749355" lon="11.29859934895963"><ele>358.0</ele><time>2026-04-06T16:52:42.068Z</time></trkpt><trkpt lat="43.346755230922916" lon="11.3002230240051"><ele>347.5</ele><time>2026-04-06T16:52:47.999Z</time></trkpt><trkpt lat="43.346982850690715" lon="11.300382055609361"><ele>337.0</ele><time>2026-04-06T16:52:48.999Z</time></trkpt><trkpt lat="43.34724041210993" lon="11.300569884949025"><ele>330.5</ele><time>2026-04-06T16:52:49.999Z</time></trkpt><trkpt lat="43.34751800595899" lon="11.300741062367642"><ele>324.0</ele><time>2026-04-06T16:52:50.999Z</time></trkpt><trkpt lat="43.347786253236805" lon="11.30089483681784"><ele>325.0</ele><time>2026-04-06T16:52:51.999Z</time></trkpt><trkpt lat="43.34805602379394" lon="11.301051492263234"><ele>326.0</ele><time>2026-04-06T16:52:52.999Z</time></trkpt><trkpt lat="43.34832517410469" lon="11.30120923678489"><ele>326.0</ele><time>2026-04-06T16:52:53.999Z</time></trkpt><trkpt lat="43.3485824168192" lon="11.301361985186551"><ele>326.0</ele><time>2026-04-06T16:52:54.999Z</time></trkpt><trkpt lat="43.348830490204854" lon="11.301504693781775"><ele>318.5</ele><time>2026-04-06T16:52:55.999Z</time></trkpt><trkpt lat="43.349079070066296" lon="11.301647038211627"><ele>311.0</ele><time>2026-04-06T16:52:56.999Z</time></trkpt><trkpt lat="43.349328895347" lon="11.301788934941586"><ele>311.0</ele><time>2026-04-06T16:52:57.999Z</time></trkpt><trkpt lat="43.34957615784237" lon="11.30192616994699"><ele>311.0</ele><time>2026-04-06T16:52:58.999Z</time></trkpt><trkpt lat="43.34982472521177" lon="11.302063610664248"><ele>313.0</ele><time>2026-04-06T16:52:59.999Z</time></trkpt><trkpt lat="43.35007090238473" lon="11.302204177357604"><ele>315.0</ele><time>2026-04-06T16:53:00.999Z</time></trkpt><trkpt lat="43.350315493881354" lon="11.302344631550213"><ele>313.0</ele><time>2026-04-06T16:53:01.999Z</time></trkpt><trkpt lat="43.35055728255095" lon="11.302485591234579"><ele>311.0</ele><time>2026-04-06T16:53:02.999Z</time></trkpt><trkpt lat="43.35080423948373" lon="11.30262663202971"><ele>311.0</ele><time>2026-04-06T16:53:03.999Z</time></trkpt><trkpt lat="43.35104549509092" lon="11.302764896810315"><ele>311.0</ele><time>2026-04-06T16:53:04.999Z</time></trkpt><trkpt lat="43.35129043992178" lon="11.302906632769043"><ele>308.0</ele><time>2026-04-06T16:53:05.999Z</time></trkpt><trkpt lat="43.35153463156936" lon="11.303048158782774"><ele>305.0</ele><time>2026-04-06T16:53:06.999Z</time></trkpt><trkpt lat="43.351781158751535" lon="11.303191614800507"><ele>302.0</ele><time>2026-04-06T16:53:07.999Z</time></trkpt><trkpt lat="43.35202954281266" lon="11.30333658643649"><ele>299.0</ele><time>2026-04-06T16:53:08.999Z</time></trkpt><trkpt lat="43.352280783360825" lon="11.303483336067178"><ele>299.0</ele><time>2026-04-06T16:53:09.999Z</time></trkpt><trkpt lat="43.35253348092449" lon="11.303627354159865"><ele>299.0</ele><time>2026-04-06T16:53:10.999Z</time></trkpt><trkpt lat="43.35278695184245" lon="11.303769564537223"><ele>296.5</ele><time>2026-04-06T16:53:11.999Z</time></trkpt><trkpt lat="43.35304332435521" lon="11.303914474403113"><ele>294.0</ele><time>2026-04-06T16:53:12.998Z</time></trkpt><trkpt lat="43.35329983777095" lon="11.304058346803007"><ele>294.0</ele><time>2026-04-06T16:53:13.998Z</time></trkpt><trkpt lat="43.35355555772387" lon="11.304202208636768"><ele>294.0</ele><time>2026-04-06T16:53:14.998Z</time></trkpt><trkpt lat="43.353810650740336" lon="11.304345363000918"><ele>292.0</ele><time>2026-04-06T16:53:15.998Z</time></trkpt><trkpt lat="43.354066832689135" lon="11.304483568796062"><ele>290.0</ele><time>2026-04-06T16:53:16.998Z</time></trkpt><trkpt lat="43.354325898691954" lon="11.304605117285115"><ele>290.0</ele><time>2026-04-06T16:53:17.998Z</time></trkpt><trkpt lat="43.35458740635454" lon="11.304710589017258"><ele>290.0</ele><time>2026-04-06T16:53:18.998Z</time></trkpt><trkpt lat="43.354854056877" lon="11.304803530349687"><ele>293.5</ele><time>2026-04-06T16:53:19.998Z</time></trkpt><trkpt lat="43.3551238093837" lon="11.30487564544433"><ele>297.0</ele><time>2026-04-06T16:53:20.998Z</time></trkpt><trkpt lat="43.35539941494631" lon="11.304932473235226"><ele>298.0</ele><time>2026-04-06T16:53:22Z</time></trkpt><trkpt lat="43.35567538438095" lon="11.30496540387123"><ele>299.0</ele><time>2026-04-06T16:53:23Z</time></trkpt><trkpt lat="43.35595170733753" lon="11.304991257059793"><ele>299.0</ele><time>2026-04-06T16:53:24Z</time></trkpt><trkpt lat="43.35622905521757" lon="11.30500563489274"><ele>299.0</ele><time>2026-04-06T16:53:25Z</time></trkpt><trkpt lat="43.35650285600284" lon="11.305001176473183"><ele>300.5</ele><time>2026-04-06T16:53:26Z</time></trkpt><trkpt lat="43.35677806323148" lon="11.304979358349508"><ele>302.0</ele><time>2026-04-06T16:53:27Z</time></trkpt><trkpt lat="43.35705391800883" lon="11.304940818707674"><ele>299.5</ele><time>2026-04-06T16:53:28Z</time></trkpt><trkpt lat="43.357332621053686" lon="11.304881945880703"><ele>297.0</ele><time>2026-04-06T16:53:29Z</time></trkpt><trkpt lat="43.35761392292434" lon="11.30481892720409"><ele>297.0</ele><time>2026-04-06T16:53:30Z</time></trkpt><trkpt lat="43.357893711641324" lon="11.304750144112262"><ele>297.0</ele><time>2026-04-06T16:53:31Z</time></trkpt><trkpt lat="43.35817993925651" lon="11.304678717745006"><ele>292.0</ele><time>2026-04-06T16:53:32Z</time></trkpt><trkpt lat="43.35846837276987" lon="11.304607862029673"><ele>287.0</ele><time>2026-04-06T16:53:33Z</time></trkpt><trkpt lat="43.3587542693979" lon="11.30454040970948"><ele>287.5</ele><time>2026-04-06T16:53:34Z</time></trkpt><trkpt lat="43.35903937580822" lon="11.304472015497351"><ele>288.0</ele><time>2026-04-06T16:53:35Z</time></trkpt><trkpt lat="43.3593252491558" lon="11.304402875486986"><ele>288.0</ele><time>2026-04-06T16:53:36Z</time></trkpt><trkpt lat="43.35961110579666" lon="11.304333158901509"><ele>288.0</ele><time>2026-04-06T16:53:37Z</time></trkpt><trkpt lat="43.359895076227886" lon="11.304264826004964"><ele>288.0</ele><time>2026-04-06T16:53:38Z</time></trkpt><trkpt lat="43.36018113464819" lon="11.304194123363251"><ele>288.0</ele><time>2026-04-06T16:53:39Z</time></trkpt><trkpt lat="43.36046466938898" lon="11.304123648406458"><ele>290.0</ele><time>2026-04-06T16:53:40Z</time></trkpt><trkpt lat="43.360747810608935" lon="11.304052197073085"><ele>292.0</ele><time>2026-04-06T16:53:41Z</time></trkpt><trkpt lat="43.36103131009207" lon="11.303983320345047"><ele>292.0</ele><time>2026-04-06T16:53:42Z</time></trkpt><trkpt lat="43.361314821465065" lon="11.303916163011477"><ele>292.0</ele><time>2026-04-06T16:53:43Z</time></trkpt><trkpt lat="43.361597680356596" lon="11.303849786004559"><ele>286.5</ele><time>2026-04-06T16:53:44Z</time></trkpt><trkpt lat="43.36187838275264" lon="11.303782753980176"><ele>281.0</ele><time>2026-04-06T16:53:45Z</time></trkpt><trkpt lat="43.362157799050344" lon="11.30371266288362"><ele>282.5</ele><time>2026-04-06T16:53:46Z</time></trkpt><trkpt lat="43.362437244089506" lon="11.30364313477906"><ele>284.0</ele><time>2026-04-06T16:53:47Z</time></trkpt><trkpt lat="43.36271725454658" lon="11.303566881451765"><ele>284.0</ele><time>2026-04-06T16:53:48Z</time></trkpt><trkpt lat="43.36299311524988" lon="11.303479153563949"><ele>284.0</ele><time>2026-04-06T16:53:49Z</time></trkpt><trkpt lat="43.36326682614426" lon="11.303371886372064"><ele>288.5</ele><time>2026-04-06T16:53:50Z</time></trkpt><trkpt lat="43.3635341256568" lon="11.303240630153105"><ele>293.0</ele><time>2026-04-06T16:53:51Z</time></trkpt><trkpt lat="43.36379575132682" lon="11.303097135356406"><ele>291.5</ele><time>2026-04-06T16:53:52Z</time></trkpt><trkpt lat="43.36405327354313" lon="11.302935227338983"><ele>290.0</ele><time>2026-04-06T16:53:53Z</time></trkpt><trkpt lat="43.364305509334685" lon="11.302761139320076"><ele>290.0</ele><time>2026-04-06T16:53:54Z</time></trkpt><trkpt lat="43.364552103508146" lon="11.302573708388792"><ele>290.0</ele><time>2026-04-06T16:53:54.999Z</time></trkpt><trkpt lat="43.364792637500585" lon="11.302367120923677"><ele>286.5</ele><time>2026-04-06T16:53:55.999Z</time></trkpt><trkpt lat="43.36502313095014" lon="11.302150931858481"><ele>283.0</ele><time>2026-04-06T16:53:56.999Z</time></trkpt><trkpt lat="43.36524881962332" lon="11.301915963128327"><ele>283.0</ele><time>2026-04-06T16:53:57.999Z</time></trkpt><trkpt lat="43.36546388023597" lon="11.301664520589267"><ele>283.0</ele><time>2026-04-06T16:53:58.999Z</time></trkpt><trkpt lat="43.36568446823755" lon="11.301427177748577"><ele>285.5</ele><time>2026-04-06T16:53:59.999Z</time></trkpt><trkpt lat="43.36585449629596" lon="11.301100933867383"><ele>288.0</ele><time>2026-04-06T16:54:00.999Z</time></trkpt><trkpt lat="43.36603203194658" lon="11.300797844937573"><ele>287.0</ele><time>2026-04-06T16:54:01.999Z</time></trkpt><trkpt lat="43.36620891843044" lon="11.300489767820777"><ele>286.0</ele><time>2026-04-06T16:54:02.999Z</time></trkpt><trkpt lat="43.36637642541765" lon="11.300175053455577"><ele>286.0</ele><time>2026-04-06T16:54:03.999Z</time></trkpt><trkpt lat="43.36653948062038" lon="11.299849817512586"><ele>286.0</ele><time>2026-04-06T16:54:04.999Z</time></trkpt><trkpt lat="43.366697011809784" lon="11.299521074419884"><ele>286.0</ele><time>2026-04-06T16:54:05.999Z</time></trkpt><trkpt lat="43.36684884801488" lon="11.299181247793648"><ele>286.0</ele><time>2026-04-06T16:54:06.999Z</time></trkpt><trkpt lat="43.36699205713282" lon="11.29883611396903"><ele>282.5</ele><time>2026-04-06T16:54:07.999Z</time></trkpt><trkpt lat="43.3671267467472" lon="11.298484068542495"><ele>279.0</ele><time>2026-04-06T16:54:08.999Z</time></trkpt><trkpt lat="43.367248670775616" lon="11.29812449214631"><ele>276.0</ele><time>2026-04-06T16:54:09.999Z</time></trkpt><trkpt lat="43.367356016708975" lon="11.297752664430163"><ele>273.0</ele><time>2026-04-06T16:54:10.999Z</time></trkpt><trkpt lat="43.36744082059296" lon="11.297365703164898"><ele>271.0</ele><time>2026-04-06T16:54:11.999Z</time></trkpt><trkpt lat="43.367506935346995" lon="11.29698093976133"><ele>269.0</ele><time>2026-04-06T16:54:12.999Z</time></trkpt><trkpt lat="43.367563371269526" lon="11.296591258089519"><ele>268.0</ele><time>2026-04-06T16:54:13.999Z</time></trkpt><trkpt lat="43.36762044370283" lon="11.296206800577634"><ele>267.0</ele><time>2026-04-06T16:54:14.999Z</time></trkpt><trkpt lat="43.36768408446653" lon="11.29582627867282"><ele>268.0</ele><time>2026-04-06T16:54:15.999Z</time></trkpt><trkpt lat="43.36775004248241" lon="11.295442400046696"><ele>269.0</ele><time>2026-04-06T16:54:16.999Z</time></trkpt><trkpt lat="43.36781152305873" lon="11.295065508443301"><ele>271.5</ele><time>2026-04-06T16:54:17.999Z</time></trkpt><trkpt lat="43.36787334461205" lon="11.294678997769337"><ele>274.0</ele><time>2026-04-06T16:54:18.999Z</time></trkpt><trkpt lat="43.367936880905205" lon="11.294298210695262"><ele>273.5</ele><time>2026-04-06T16:54:19.999Z</time></trkpt><trkpt lat="43.36800288090875" lon="11.293915420048611"><ele>273.0</ele><time>2026-04-06T16:54:20.999Z</time></trkpt><trkpt lat="43.36806817539825" lon="11.293535218811105"><ele>273.5</ele><time>2026-04-06T16:54:21.999Z</time></trkpt><trkpt lat="43.368128193761265" lon="11.293177890382983"><ele>274.0</ele><time>2026-04-06T16:54:22.999Z</time></trkpt><trkpt lat="43.36818486127703" lon="11.292833155656934"><ele>274.0</ele><time>2026-04-06T16:54:23.999Z</time></trkpt><trkpt lat="43.368246823642934" lon="11.292498017858327"><ele>274.0</ele><time>2026-04-06T16:54:24.999Z</time></trkpt><trkpt lat="43.368322084640305" lon="11.292169918481536"><ele>269.0</ele><time>2026-04-06T16:54:25.999Z</time></trkpt><trkpt lat="43.36841189577945" lon="11.291855034658601"><ele>264.0</ele><time>2026-04-06T16:54:26.999Z</time></trkpt><trkpt lat="43.36851452499649" lon="11.291546200395537"><ele>260.5</ele><time>2026-04-06T16:54:27.999Z</time></trkpt><trkpt lat="43.36863123720138" lon="11.291243606009603"><ele>257.0</ele><time>2026-04-06T16:54:28.999Z</time></trkpt><trkpt lat="43.36876207279051" lon="11.290932054760084"><ele>260.5</ele><time>2026-04-06T16:54:29.999Z</time></trkpt><trkpt lat="43.368898291974695" lon="11.290621188744678"><ele>264.0</ele><time>2026-04-06T16:54:30.999Z</time></trkpt><trkpt lat="43.36904254457691" lon="11.290310591452638"><ele>264.0</ele><time>2026-04-06T16:54:31.999Z</time></trkpt><trkpt lat="43.36920138751125" lon="11.290005382185969"><ele>264.0</ele><time>2026-04-06T16:54:32.999Z</time></trkpt><trkpt lat="43.36938057293829" lon="11.289699539440976"><ele>262.0</ele><time>2026-04-06T16:54:33.999Z</time></trkpt><trkpt lat="43.369571325150524" lon="11.289406038464834"><ele>260.0</ele><time>2026-04-06T16:54:34.999Z</time></trkpt><trkpt lat="43.36976963266126" lon="11.289129987888844"><ele>259.5</ele><time>2026-04-06T16:54:35.999Z</time></trkpt><trkpt lat="43.36997580868971" lon="11.288868691946295"><ele>259.0</ele><time>2026-04-06T16:54:36.999Z</time></trkpt><trkpt lat="43.370181736737344" lon="11.288625545311653"><ele>259.0</ele><time>2026-04-06T16:54:37.999Z</time></trkpt><trkpt lat="43.37039464669087" lon="11.288397685295271"><ele>259.0</ele><time>2026-04-06T16:54:38.999Z</time></trkpt><trkpt lat="43.370607240827916" lon="11.288191903512425"><ele>257.5</ele><time>2026-04-06T16:54:39.999Z</time></trkpt><trkpt lat="43.37082315340191" lon="11.288004810086539"><ele>256.0</ele><time>2026-04-06T16:54:40.999Z</time></trkpt><trkpt lat="43.371044010522056" lon="11.287833770723005"><ele>256.0</ele><time>2026-04-06T16:54:41.999Z</time></trkpt><trkpt lat="43.37126652612805" lon="11.287675435025363"><ele>256.0</ele><time>2026-04-06T16:54:42.999Z</time></trkpt><trkpt lat="43.371492638796894" lon="11.287531270189808"><ele>260.5</ele><time>2026-04-06T16:54:43.999Z</time></trkpt><trkpt lat="43.37172781769727" lon="11.287398430721455"><ele>265.0</ele><time>2026-04-06T16:54:44.999Z</time></trkpt><trkpt lat="43.37195546246355" lon="11.287286217112152"><ele>258.0</ele><time>2026-04-06T16:54:45.999Z</time></trkpt><trkpt lat="43.372183006953904" lon="11.287184544953316"><ele>251.0</ele><time>2026-04-06T16:54:46.999Z</time></trkpt><trkpt lat="43.37241067972428" lon="11.287091433567541"><ele>251.0</ele><time>2026-04-06T16:54:47.999Z</time></trkpt><trkpt lat="43.37264817090602" lon="11.287002904113956"><ele>251.0</ele><time>2026-04-06T16:54:48.999Z</time></trkpt><trkpt lat="43.37289177991925" lon="11.28692702626289"><ele>252.5</ele><time>2026-04-06T16:54:49.999Z</time></trkpt><trkpt lat="43.37313695624406" lon="11.286850834768277"><ele>254.0</ele><time>2026-04-06T16:54:50.999Z</time></trkpt><trkpt lat="43.37338657942342" lon="11.286772243718223"><ele>254.0</ele><time>2026-04-06T16:54:51.999Z</time></trkpt><trkpt lat="43.37363103631192" lon="11.286695391056275"><ele>254.0</ele><time>2026-04-06T16:54:52.999Z</time></trkpt><trkpt lat="43.373872575946" lon="11.28662069729933"><ele>255.0</ele><time>2026-04-06T16:54:53.999Z</time></trkpt><trkpt lat="43.374115563141444" lon="11.286545542413375"><ele>256.0</ele><time>2026-04-06T16:54:54.999Z</time></trkpt><trkpt lat="43.37436046095358" lon="11.286469285503145"><ele>253.0</ele><time>2026-04-06T16:54:55.999Z</time></trkpt><trkpt lat="43.37460644591243" lon="11.286394604428764"><ele>250.0</ele><time>2026-04-06T16:54:56.999Z</time></trkpt><trkpt lat="43.37485537375276" lon="11.286318288009372"><ele>250.0</ele><time>2026-04-06T16:54:57.999Z</time></trkpt><trkpt lat="43.37509806651331" lon="11.286246081163837"><ele>250.0</ele><time>2026-04-06T16:54:58.999Z</time></trkpt><trkpt lat="43.3753434229088" lon="11.286170815918167"><ele>250.5</ele><time>2026-04-06T16:54:59.999Z</time></trkpt><trkpt lat="43.37558972141732" lon="11.286096181614488"><ele>251.0</ele><time>2026-04-06T16:55:00.999Z</time></trkpt><trkpt lat="43.375841868862345" lon="11.28601942566902"><ele>251.0</ele><time>2026-04-06T16:55:01.999Z</time></trkpt><trkpt lat="43.37609753770536" lon="11.285942362592468"><ele>251.0</ele><time>2026-04-06T16:55:02.999Z</time></trkpt><trkpt lat="43.3763607820964" lon="11.285859406491536"><ele>252.0</ele><time>2026-04-06T16:55:03.999Z</time></trkpt><trkpt lat="43.37662565773683" lon="11.285774725787535"><ele>253.0</ele><time>2026-04-06T16:55:04.999Z</time></trkpt><trkpt lat="43.37689503804385" lon="11.285688070936668"><ele>253.0</ele><time>2026-04-06T16:55:05.999Z</time></trkpt><trkpt lat="43.37716391435212" lon="11.285603879884142"><ele>253.0</ele><time>2026-04-06T16:55:06.999Z</time></trkpt><trkpt lat="43.37743347931467" lon="11.285512557406026"><ele>244.5</ele><time>2026-04-06T16:55:07.999Z</time></trkpt><trkpt lat="43.37769805415729" lon="11.28539747280972"><ele>236.0</ele><time>2026-04-06T16:55:08.999Z</time></trkpt><trkpt lat="43.37795138413341" lon="11.285256483142605"><ele>238.5</ele><time>2026-04-06T16:55:09.999Z</time></trkpt><trkpt lat="43.37819384298752" lon="11.285096717994566"><ele>241.0</ele><time>2026-04-06T16:55:10.999Z</time></trkpt><trkpt lat="43.37843123144596" lon="11.284922892123799"><ele>239.0</ele><time>2026-04-06T16:55:11.999Z</time></trkpt><trkpt lat="43.37866051728242" lon="11.284726895595007"><ele>237.0</ele><time>2026-04-06T16:55:12.999Z</time></trkpt><trkpt lat="43.37888708705237" lon="11.284505922066181"><ele>241.5</ele><time>2026-04-06T16:55:13.999Z</time></trkpt><trkpt lat="43.37910277885107" lon="11.284265740285228"><ele>246.0</ele><time>2026-04-06T16:55:14.999Z</time></trkpt><trkpt lat="43.37930896732344" lon="11.284003879777423"><ele>247.0</ele><time>2026-04-06T16:55:15.999Z</time></trkpt><trkpt lat="43.37950109448122" lon="11.283719406648395"><ele>248.0</ele><time>2026-04-06T16:55:16.999Z</time></trkpt><trkpt lat="43.379690391666614" lon="11.283417675901275"><ele>248.0</ele><time>2026-04-06T16:55:17.999Z</time></trkpt><trkpt lat="43.37986871595787" lon="11.283098801180966"><ele>248.0</ele><time>2026-04-06T16:55:18.999Z</time></trkpt><trkpt lat="43.380031723521064" lon="11.282773474482841"><ele>245.0</ele><time>2026-04-06T16:55:19.999Z</time></trkpt><trkpt lat="43.38017846678338" lon="11.282448360523865"><ele>242.0</ele><time>2026-04-06T16:55:20.999Z</time></trkpt><trkpt lat="43.38033079184593" lon="11.282120066692158"><ele>243.5</ele><time>2026-04-06T16:55:21.999Z</time></trkpt><trkpt lat="43.38048919181409" lon="11.281793047051165"><ele>245.0</ele><time>2026-04-06T16:55:22.999Z</time></trkpt><trkpt lat="43.380649849745154" lon="11.281464919996003"><ele>241.0</ele><time>2026-04-06T16:55:23.999Z</time></trkpt><trkpt lat="43.38080374713624" lon="11.281148856579284"><ele>237.0</ele><time>2026-04-06T16:55:24.999Z</time></trkpt><trkpt lat="43.38095750716657" lon="11.280828424052263"><ele>235.0</ele><time>2026-04-06T16:55:25.999Z</time></trkpt><trkpt lat="43.38111413978518" lon="11.280507907976421"><ele>233.0</ele><time>2026-04-06T16:55:26.999Z</time></trkpt><trkpt lat="43.38127400417104" lon="11.2801825394599"><ele>238.5</ele><time>2026-04-06T16:55:28Z</time></trkpt><trkpt lat="43.3814314275413" lon="11.279862215706526"><ele>244.0</ele><time>2026-04-06T16:55:29Z</time></trkpt><trkpt lat="43.38158277485606" lon="11.279548476898196"><ele>244.0</ele><time>2026-04-06T16:55:30Z</time></trkpt><trkpt lat="43.38173261632043" lon="11.27924041987431"><ele>244.0</ele><time>2026-04-06T16:55:31Z</time></trkpt><trkpt lat="43.381883077416816" lon="11.278929727486611"><ele>239.0</ele><time>2026-04-06T16:55:32Z</time></trkpt><trkpt lat="43.38203168612387" lon="11.278622009184227"><ele>234.0</ele><time>2026-04-06T16:55:33Z</time></trkpt><trkpt lat="43.38218134720923" lon="11.27831366367093"><ele>235.5</ele><time>2026-04-06T16:55:34Z</time></trkpt><trkpt lat="43.382327863194554" lon="11.278016151914741"><ele>237.0</ele><time>2026-04-06T16:55:35Z</time></trkpt><trkpt lat="43.38247435267657" lon="11.27771723903886"><ele>237.0</ele><time>2026-04-06T16:55:36Z</time></trkpt><trkpt lat="43.38262014126997" lon="11.27741431124451"><ele>237.0</ele><time>2026-04-06T16:55:37Z</time></trkpt><trkpt lat="43.382764482050696" lon="11.277117261980012"><ele>234.5</ele><time>2026-04-06T16:55:38Z</time></trkpt><trkpt lat="43.38290159660535" lon="11.276833853254953"><ele>232.0</ele><time>2026-04-06T16:55:39Z</time></trkpt><trkpt lat="43.38304702611077" lon="11.276537623761284"><ele>232.5</ele><time>2026-04-06T16:55:40Z</time></trkpt><trkpt lat="43.383198122944165" lon="11.276244347682583"><ele>233.0</ele><time>2026-04-06T16:55:41Z</time></trkpt><trkpt lat="43.383361528047104" lon="11.275957397482555"><ele>233.0</ele><time>2026-04-06T16:55:42Z</time></trkpt><trkpt lat="43.383544064578004" lon="11.275674431898517"><ele>233.0</ele><time>2026-04-06T16:55:43Z</time></trkpt><trkpt lat="43.383737541391824" lon="11.275400777349741"><ele>233.5</ele><time>2026-04-06T16:55:44Z</time></trkpt><trkpt lat="43.38394198861568" lon="11.275128771721201"><ele>234.0</ele><time>2026-04-06T16:55:45Z</time></trkpt><trkpt lat="43.38415709544041" lon="11.274865915312194"><ele>230.5</ele><time>2026-04-06T16:55:46Z</time></trkpt><trkpt lat="43.384383565000014" lon="11.274615401776153"><ele>227.0</ele><time>2026-04-06T16:55:47Z</time></trkpt><trkpt lat="43.38462154444633" lon="11.274375935917217"><ele>228.0</ele><time>2026-04-06T16:55:48Z</time></trkpt><trkpt lat="43.38486559500385" lon="11.274148224725675"><ele>229.0</ele><time>2026-04-06T16:55:49Z</time></trkpt><trkpt lat="43.385125916972" lon="11.273932821234668"><ele>226.5</ele><time>2026-04-06T16:55:50Z</time></trkpt><trkpt lat="43.38540440673433" lon="11.273728815259739"><ele>224.0</ele><time>2026-04-06T16:55:51Z</time></trkpt><trkpt lat="43.385703225718906" lon="11.273529329326728"><ele>223.5</ele><time>2026-04-06T16:55:52Z</time></trkpt><trkpt lat="43.38600341776719" lon="11.273335508936388"><ele>223.0</ele><time>2026-04-06T16:55:53Z</time></trkpt><trkpt lat="43.38629657135775" lon="11.273141536931508"><ele>223.5</ele><time>2026-04-06T16:55:54Z</time></trkpt><trkpt lat="43.38657956978521" lon="11.27292595577829"><ele>224.0</ele><time>2026-04-06T16:55:55Z</time></trkpt><trkpt lat="43.38684933216882" lon="11.27268111892232"><ele>224.0</ele><time>2026-04-06T16:55:56Z</time></trkpt><trkpt lat="43.38710961519893" lon="11.272415638479377"><ele>224.0</ele><time>2026-04-06T16:55:57Z</time></trkpt><trkpt lat="43.387351541347904" lon="11.272133184003465"><ele>223.5</ele><time>2026-04-06T16:55:58Z</time></trkpt><trkpt lat="43.3875815317013" lon="11.271841505167828"><ele>223.0</ele><time>2026-04-06T16:55:59Z</time></trkpt><trkpt lat="43.38779691337783" lon="11.271544214305644"><ele>221.5</ele><time>2026-04-06T16:56:00Z</time></trkpt><trkpt lat="43.38799858498889" lon="11.271233968483147"><ele>220.0</ele><time>2026-04-06T16:56:01Z</time></trkpt><trkpt lat="43.38818519248779" lon="11.270917922992295"><ele>221.0</ele><time>2026-04-06T16:56:02Z</time></trkpt><trkpt lat="43.38835894712744" lon="11.27059109548573"><ele>222.0</ele><time>2026-04-06T16:56:03Z</time></trkpt><trkpt lat="43.38852314563274" lon="11.270257049249746"><ele>222.0</ele><time>2026-04-06T16:56:04Z</time></trkpt><trkpt lat="43.38866273969472" lon="11.26992757059924"><ele>222.0</ele><time>2026-04-06T16:56:05Z</time></trkpt><trkpt lat="43.388777074283794" lon="11.269618428508828"><ele>221.5</ele><time>2026-04-06T16:56:06Z</time></trkpt><trkpt lat="43.38888272373283" lon="11.26931457628857"><ele>221.0</ele><time>2026-04-06T16:56:07Z</time></trkpt><trkpt lat="43.38897364713408" lon="11.269019339712296"><ele>221.0</ele><time>2026-04-06T16:56:08Z</time></trkpt><trkpt lat="43.3890547466115" lon="11.26872252339601"><ele>221.0</ele><time>2026-04-06T16:56:09Z</time></trkpt><trkpt lat="43.389128200846834" lon="11.268425524196976"><ele>221.0</ele><time>2026-04-06T16:56:10Z</time></trkpt><trkpt lat="43.38919620021696" lon="11.268121391551851"><ele>221.0</ele><time>2026-04-06T16:56:11Z</time></trkpt><trkpt lat="43.38925618497928" lon="11.26781633090275"><ele>221.0</ele><time>2026-04-06T16:56:12Z</time></trkpt><trkpt lat="43.3893054800021" lon="11.267504639690959"><ele>221.0</ele><time>2026-04-06T16:56:13Z</time></trkpt><trkpt lat="43.38934561079268" lon="11.267187630035984"><ele>222.0</ele><time>2026-04-06T16:56:14Z</time></trkpt><trkpt lat="43.38938057013883" lon="11.2668752318332"><ele>223.0</ele><time>2026-04-06T16:56:14.999Z</time></trkpt><trkpt lat="43.38940763597544" lon="11.266555525641868"><ele>223.5</ele><time>2026-04-06T16:56:15.999Z</time></trkpt><trkpt lat="43.38943133367264" lon="11.266235060355156"><ele>224.0</ele><time>2026-04-06T16:56:16.999Z</time></trkpt><trkpt lat="43.38945219449745" lon="11.265912295784457"><ele>224.5</ele><time>2026-04-06T16:56:17.999Z</time></trkpt><trkpt lat="43.38947679113781" lon="11.265582138608691"><ele>225.0</ele><time>2026-04-06T16:56:18.999Z</time></trkpt><trkpt lat="43.38950337291772" lon="11.265244256141582"><ele>225.0</ele><time>2026-04-06T16:56:19.999Z</time></trkpt><trkpt lat="43.38952841600395" lon="11.264897120850595"><ele>225.0</ele><time>2026-04-06T16:56:20.999Z</time></trkpt><trkpt lat="43.3895522821151" lon="11.26454413528321"><ele>226.0</ele><time>2026-04-06T16:56:21.999Z</time></trkpt><trkpt lat="43.38957512394263" lon="11.26418720932685"><ele>227.0</ele><time>2026-04-06T16:56:22.999Z</time></trkpt><trkpt lat="43.38960099354541" lon="11.263830976404003"><ele>227.0</ele><time>2026-04-06T16:56:23.999Z</time></trkpt><trkpt lat="43.38962927958908" lon="11.263473005818863"><ele>227.0</ele><time>2026-04-06T16:56:24.999Z</time></trkpt><trkpt lat="43.3896547417715" lon="11.263119198161473"><ele>231.0</ele><time>2026-04-06T16:56:25.999Z</time></trkpt><trkpt lat="43.389680338532166" lon="11.262762768405757"><ele>235.0</ele><time>2026-04-06T16:56:26.999Z</time></trkpt><trkpt lat="43.389708622010694" lon="11.26240468572807"><ele>234.0</ele><time>2026-04-06T16:56:27.999Z</time></trkpt><trkpt lat="43.3897377278386" lon="11.26204542597408"><ele>233.0</ele><time>2026-04-06T16:56:28.999Z</time></trkpt><trkpt lat="43.38976461667506" lon="11.261686034000926"><ele>235.5</ele><time>2026-04-06T16:56:29.999Z</time></trkpt><trkpt lat="43.38978993303413" lon="11.261330620043523"><ele>238.0</ele><time>2026-04-06T16:56:30.999Z</time></trkpt><trkpt lat="43.38981467678563" lon="11.260975899802657"><ele>238.0</ele><time>2026-04-06T16:56:31.999Z</time></trkpt><trkpt lat="43.38984142230165" lon="11.26062498221891"><ele>238.0</ele><time>2026-04-06T16:56:32.999Z</time></trkpt><trkpt lat="43.38986916333362" lon="11.260271640254814"><ele>238.0</ele><time>2026-04-06T16:56:33.999Z</time></trkpt><trkpt lat="43.389896275651566" lon="11.259924686114928"><ele>238.0</ele><time>2026-04-06T16:56:34.999Z</time></trkpt><trkpt lat="43.389922468953394" lon="11.259569335484567"><ele>237.5</ele><time>2026-04-06T16:56:35.999Z</time></trkpt><trkpt lat="43.389947586376856" lon="11.259220564288507"><ele>237.0</ele><time>2026-04-06T16:56:36.999Z</time></trkpt><trkpt lat="43.3899721810136" lon="11.258878042019724"><ele>235.0</ele><time>2026-04-06T16:56:37.999Z</time></trkpt><trkpt lat="43.38999782419049" lon="11.258546914094138"><ele>233.0</ele><time>2026-04-06T16:56:38.999Z</time></trkpt><trkpt lat="43.39002355580174" lon="11.258224623929463"><ele>231.0</ele><time>2026-04-06T16:56:39.999Z</time></trkpt><trkpt lat="43.39004682331709" lon="11.25790575701508"><ele>229.0</ele><time>2026-04-06T16:56:40.999Z</time></trkpt><trkpt lat="43.3900689856448" lon="11.257590951970467"><ele>226.0</ele><time>2026-04-06T16:56:41.999Z</time></trkpt><trkpt lat="43.39009076783073" lon="11.257271311696737"><ele>223.0</ele><time>2026-04-06T16:56:42.999Z</time></trkpt><trkpt lat="43.39011393177783" lon="11.256948213878111"><ele>223.0</ele><time>2026-04-06T16:56:43.999Z</time></trkpt><trkpt lat="43.39013869132937" lon="11.256619805292848"><ele>223.0</ele><time>2026-04-06T16:56:44.999Z</time></trkpt><trkpt lat="43.39016487049628" lon="11.256285433571021"><ele>222.5</ele><time>2026-04-06T16:56:45.999Z</time></trkpt><trkpt lat="43.39019201400312" lon="11.255951212645048"><ele>222.0</ele><time>2026-04-06T16:56:46.999Z</time></trkpt><trkpt lat="43.390218320034414" lon="11.25561454283648"><ele>221.5</ele><time>2026-04-06T16:56:47.999Z</time></trkpt><trkpt lat="43.39024182486841" lon="11.255275443870554"><ele>221.0</ele><time>2026-04-06T16:56:48.999Z</time></trkpt><trkpt lat="43.39026592854151" lon="11.254931667077374"><ele>221.0</ele><time>2026-04-06T16:56:49.999Z</time></trkpt><trkpt lat="43.39029023762293" lon="11.254589558994851"><ele>221.0</ele><time>2026-04-06T16:56:50.999Z</time></trkpt><trkpt lat="43.39031433369259" lon="11.254237873420868"><ele>222.5</ele><time>2026-04-06T16:56:51.999Z</time></trkpt><trkpt lat="43.390339290620155" lon="11.253879509837782"><ele>224.0</ele><time>2026-04-06T16:56:52.999Z</time></trkpt><trkpt lat="43.39036468678119" lon="11.253519506366095"><ele>224.0</ele><time>2026-04-06T16:56:53.999Z</time></trkpt><trkpt lat="43.390391003279774" lon="11.253157065079314"><ele>224.0</ele><time>2026-04-06T16:56:54.999Z</time></trkpt><trkpt lat="43.39041767924316" lon="11.252791348364015"><ele>224.5</ele><time>2026-04-06T16:56:55.999Z</time></trkpt><trkpt lat="43.3904451719033" lon="11.252427080750556"><ele>225.0</ele><time>2026-04-06T16:56:56.999Z</time></trkpt><trkpt lat="43.39047158991111" lon="11.252064636848978"><ele>225.0</ele><time>2026-04-06T16:56:57.999Z</time></trkpt><trkpt lat="43.39049557938362" lon="11.251704988608079"><ele>225.0</ele><time>2026-04-06T16:56:58.999Z</time></trkpt><trkpt lat="43.39052207231849" lon="11.25134685036891"><ele>226.5</ele><time>2026-04-06T16:56:59.999Z</time></trkpt><trkpt lat="43.390550792628325" lon="11.250983974390298"><ele>228.0</ele><time>2026-04-06T16:57:00.999Z</time></trkpt><trkpt lat="43.39057762135922" lon="11.250619644113103"><ele>228.0</ele><time>2026-04-06T16:57:01.999Z</time></trkpt><trkpt lat="43.39060250949055" lon="11.250245813445096"><ele>228.0</ele><time>2026-04-06T16:57:02.999Z</time></trkpt><trkpt lat="43.39063003893621" lon="11.24986779267599"><ele>226.0</ele><time>2026-04-06T16:57:03.999Z</time></trkpt><trkpt lat="43.39066003819487" lon="11.249485160891913"><ele>224.0</ele><time>2026-04-06T16:57:04.999Z</time></trkpt><trkpt lat="43.390697271961045" lon="11.249104746721613"><ele>222.5</ele><time>2026-04-06T16:57:05.999Z</time></trkpt><trkpt lat="43.39075511086879" lon="11.248716425178658"><ele>221.0</ele><time>2026-04-06T16:57:06.999Z</time></trkpt><trkpt lat="43.39083613163234" lon="11.248326019840919"><ele>219.0</ele><time>2026-04-06T16:57:07.999Z</time></trkpt><trkpt lat="43.39094229629316" lon="11.247931080263731"><ele>217.0</ele><time>2026-04-06T16:57:08.999Z</time></trkpt><trkpt lat="43.39106618974882" lon="11.247552546097532"><ele>215.5</ele><time>2026-04-06T16:57:09.999Z</time></trkpt><trkpt lat="43.391205586097456" lon="11.247191735687071"><ele>214.0</ele><time>2026-04-06T16:57:10.999Z</time></trkpt><trkpt lat="43.39135520555376" lon="11.246856069944714"><ele>216.0</ele><time>2026-04-06T16:57:11.999Z</time></trkpt><trkpt lat="43.391503448426285" lon="11.246526372435799"><ele>218.0</ele><time>2026-04-06T16:57:12.999Z</time></trkpt><trkpt lat="43.39165045545487" lon="11.246194162435708"><ele>218.0</ele><time>2026-04-06T16:57:13.999Z</time></trkpt><trkpt lat="43.391791242577185" lon="11.245858565485317"><ele>218.0</ele><time>2026-04-06T16:57:14.999Z</time></trkpt><trkpt lat="43.39191121684593" lon="11.245527026278628"><ele>214.5</ele><time>2026-04-06T16:57:15.999Z</time></trkpt><trkpt lat="43.392014264471605" lon="11.245193718290766"><ele>211.0</ele><time>2026-04-06T16:57:16.999Z</time></trkpt><trkpt lat="43.39209507028332" lon="11.244848894805017"><ele>211.5</ele><time>2026-04-06T16:57:17.999Z</time></trkpt><trkpt lat="43.39216598832132" lon="11.244495381371728"><ele>212.0</ele><time>2026-04-06T16:57:18.999Z</time></trkpt><trkpt lat="43.392226800931255" lon="11.244144599984104"><ele>211.0</ele><time>2026-04-06T16:57:19.999Z</time></trkpt><trkpt lat="43.39227663663401" lon="11.243791828855825"><ele>210.0</ele><time>2026-04-06T16:57:20.999Z</time></trkpt><trkpt lat="43.39230205789337" lon="11.243433807224584"><ele>211.0</ele><time>2026-04-06T16:57:21.999Z</time></trkpt><trkpt lat="43.39231171744776" lon="11.24307501377478"><ele>212.0</ele><time>2026-04-06T16:57:22.999Z</time></trkpt><trkpt lat="43.39230326641003" lon="11.242714956765527"><ele>212.0</ele><time>2026-04-06T16:57:23.999Z</time></trkpt><trkpt lat="43.39228507489221" lon="11.24235623750112"><ele>212.0</ele><time>2026-04-06T16:57:24.999Z</time></trkpt><trkpt lat="43.39225342566179" lon="11.241992641823536"><ele>211.0</ele><time>2026-04-06T16:57:25.999Z</time></trkpt><trkpt lat="43.39221042006684" lon="11.241628124986047"><ele>210.0</ele><time>2026-04-06T16:57:26.999Z</time></trkpt><trkpt lat="43.392158002459375" lon="11.241254878052153"><ele>219.0</ele><time>2026-04-06T16:57:27.999Z</time></trkpt><trkpt lat="43.3921060498186" lon="11.240882109636114"><ele>228.0</ele><time>2026-04-06T16:57:28.999Z</time></trkpt><trkpt lat="43.392059262278075" lon="11.240512769464512"><ele>228.0</ele><time>2026-04-06T16:57:29.999Z</time></trkpt><trkpt lat="43.392016007388264" lon="11.240147159463497"><ele>228.0</ele><time>2026-04-06T16:57:30.999Z</time></trkpt><trkpt lat="43.39198005501815" lon="11.239780110014125"><ele>227.5</ele><time>2026-04-06T16:57:31.999Z</time></trkpt><trkpt lat="43.39196276570221" lon="11.23941045835796"><ele>227.0</ele><time>2026-04-06T16:57:32.999Z</time></trkpt><trkpt lat="43.39196305855953" lon="11.239040978676243"><ele>227.5</ele><time>2026-04-06T16:57:34Z</time></trkpt><trkpt lat="43.39197553878677" lon="11.238671888708433"><ele>228.0</ele><time>2026-04-06T16:57:35Z</time></trkpt><trkpt lat="43.392007155449384" lon="11.238297014490353"><ele>226.0</ele><time>2026-04-06T16:57:36Z</time></trkpt><trkpt lat="43.39204803767355" lon="11.237909825223932"><ele>224.0</ele><time>2026-04-06T16:57:37Z</time></trkpt><trkpt lat="43.39210020791804" lon="11.237514946567323"><ele>217.5</ele><time>2026-04-06T16:57:38Z</time></trkpt><trkpt lat="43.39217343388535" lon="11.237122594638187"><ele>211.0</ele><time>2026-04-06T16:57:39Z</time></trkpt><trkpt lat="43.39226278576497" lon="11.236744469035457"><ele>210.5</ele><time>2026-04-06T16:57:40Z</time></trkpt><trkpt lat="43.392366239147925" lon="11.236365073910157"><ele>210.0</ele><time>2026-04-06T16:57:41Z</time></trkpt><trkpt lat="43.392479439826765" lon="11.235988868408024"><ele>212.0</ele><time>2026-04-06T16:57:42Z</time></trkpt><trkpt lat="43.39260021274962" lon="11.235623492654478"><ele>214.0</ele><time>2026-04-06T16:57:43Z</time></trkpt><trkpt lat="43.39272310042288" lon="11.235262693453077"><ele>214.0</ele><time>2026-04-06T16:57:44Z</time></trkpt><trkpt lat="43.39284494188041" lon="11.234911565743854"><ele>214.0</ele><time>2026-04-06T16:57:45Z</time></trkpt><trkpt lat="43.39296392593528" lon="11.23456101792766"><ele>213.5</ele><time>2026-04-06T16:57:46Z</time></trkpt><trkpt lat="43.393079502371435" lon="11.234211827069178"><ele>213.0</ele><time>2026-04-06T16:57:47Z</time></trkpt><trkpt lat="43.39319282504479" lon="11.23386437661419"><ele>213.0</ele><time>2026-04-06T16:57:48Z</time></trkpt><trkpt lat="43.39330720835587" lon="11.23351851646508"><ele>213.0</ele><time>2026-04-06T16:57:49Z</time></trkpt><trkpt lat="43.393420180543636" lon="11.233174087392316"><ele>215.0</ele><time>2026-04-06T16:57:50Z</time></trkpt><trkpt lat="43.393536843261735" lon="11.23283007498745"><ele>217.0</ele><time>2026-04-06T16:57:51Z</time></trkpt><trkpt lat="43.39365470654576" lon="11.232487568079407"><ele>219.0</ele><time>2026-04-06T16:57:52Z</time></trkpt><trkpt lat="43.39377076998442" lon="11.232140117396526"><ele>221.0</ele><time>2026-04-06T16:57:53Z</time></trkpt><trkpt lat="43.39388619887466" lon="11.231790374572686"><ele>218.5</ele><time>2026-04-06T16:57:54Z</time></trkpt><trkpt lat="43.394003168132635" lon="11.231436452519409"><ele>216.0</ele><time>2026-04-06T16:57:55Z</time></trkpt><trkpt lat="43.39411960872804" lon="11.231080627787557"><ele>216.0</ele><time>2026-04-06T16:57:56Z</time></trkpt><trkpt lat="43.39422874551752" lon="11.230724177975908"><ele>216.0</ele><time>2026-04-06T16:57:57Z</time></trkpt><trkpt lat="43.394323507803975" lon="11.230357396619238"><ele>219.5</ele><time>2026-04-06T16:57:58Z</time></trkpt><trkpt lat="43.39439182383809" lon="11.229978577884165"><ele>223.0</ele><time>2026-04-06T16:57:59Z</time></trkpt><trkpt lat="43.394441712275494" lon="11.22959612312958"><ele>224.5</ele><time>2026-04-06T16:58:00Z</time></trkpt><trkpt lat="43.394474813466026" lon="11.229210534679526"><ele>226.0</ele><time>2026-04-06T16:58:01Z</time></trkpt><trkpt lat="43.39449657634678" lon="11.228839371908665"><ele>222.0</ele><time>2026-04-06T16:58:02Z</time></trkpt><trkpt lat="43.39449836592657" lon="11.228499534025147"><ele>218.0</ele><time>2026-04-06T16:58:03Z</time></trkpt><trkpt lat="43.39448854538371" lon="11.22816813102467"><ele>215.0</ele><time>2026-04-06T16:58:04Z</time></trkpt><trkpt lat="43.394462215641695" lon="11.227840531863402"><ele>212.0</ele><time>2026-04-06T16:58:05Z</time></trkpt><trkpt lat="43.39442518206277" lon="11.227508095322401"><ele>211.0</ele><time>2026-04-06T16:58:06Z</time></trkpt><trkpt lat="43.394384672011114" lon="11.227169425950848"><ele>210.0</ele><time>2026-04-06T16:58:07Z</time></trkpt><trkpt lat="43.39434229842595" lon="11.22682505136913"><ele>208.5</ele><time>2026-04-06T16:58:08Z</time></trkpt><trkpt lat="43.39430163440533" lon="11.226476029518746"><ele>207.0</ele><time>2026-04-06T16:58:09Z</time></trkpt><trkpt lat="43.394259376438015" lon="11.226119824482"><ele>207.0</ele><time>2026-04-06T16:58:10Z</time></trkpt><trkpt lat="43.39421760867126" lon="11.225758376307775"><ele>207.0</ele><time>2026-04-06T16:58:11Z</time></trkpt><trkpt lat="43.3941752773113" lon="11.225392261047459"><ele>207.0</ele><time>2026-04-06T16:58:12Z</time></trkpt><trkpt lat="43.39413322598612" lon="11.225031040631478"><ele>207.0</ele><time>2026-04-06T16:58:13Z</time></trkpt><trkpt lat="43.39409119848442" lon="11.224664210388266"><ele>207.0</ele><time>2026-04-06T16:58:14Z</time></trkpt><trkpt lat="43.394050241345674" lon="11.224296663049124"><ele>207.0</ele><time>2026-04-06T16:58:15Z</time></trkpt><trkpt lat="43.394009824204566" lon="11.223925548443026"><ele>206.0</ele><time>2026-04-06T16:58:16Z</time></trkpt><trkpt lat="43.393970192330826" lon="11.22356362566086"><ele>205.0</ele><time>2026-04-06T16:58:17Z</time></trkpt><trkpt lat="43.39392865457909" lon="11.22319851296561"><ele>204.0</ele><time>2026-04-06T16:58:18Z</time></trkpt><trkpt lat="43.39388578539121" lon="11.22282923301146"><ele>203.0</ele><time>2026-04-06T16:58:19Z</time></trkpt><trkpt lat="43.39384513413213" lon="11.222465039343763"><ele>212.5</ele><time>2026-04-06T16:58:20Z</time></trkpt><trkpt lat="43.39380926728472" lon="11.222095888304784"><ele>222.0</ele><time>2026-04-06T16:58:21Z</time></trkpt><trkpt lat="43.393777578500114" lon="11.221723883672723"><ele>220.5</ele><time>2026-04-06T16:58:22Z</time></trkpt><trkpt lat="43.3937560253061" lon="11.22133516367925"><ele>219.0</ele><time>2026-04-06T16:58:23Z</time></trkpt><trkpt lat="43.393747108161946" lon="11.22094575769239"><ele>214.5</ele><time>2026-04-06T16:58:24Z</time></trkpt><trkpt lat="43.393747410903686" lon="11.220556340840512"><ele>210.0</ele><time>2026-04-06T16:58:25Z</time></trkpt><trkpt lat="43.39375194194493" lon="11.2201679278679"><ele>207.0</ele><time>2026-04-06T16:58:26Z</time></trkpt><trkpt lat="43.393765506989524" lon="11.219771740776673"><ele>204.0</ele><time>2026-04-06T16:58:27Z</time></trkpt><trkpt lat="43.393786834773735" lon="11.219373540229558"><ele>203.0</ele><time>2026-04-06T16:58:28Z</time></trkpt><trkpt lat="43.393817342864786" lon="11.218965766368171"><ele>202.0</ele><time>2026-04-06T16:58:29Z</time></trkpt><trkpt lat="43.39385296901498" lon="11.218551377384404"><ele>199.5</ele><time>2026-04-06T16:58:29.999Z</time></trkpt><trkpt lat="43.39388934742601" lon="11.218135306188628"><ele>197.0</ele><time>2026-04-06T16:58:30.999Z</time></trkpt><trkpt lat="43.393925637468904" lon="11.217726058221162"><ele>196.5</ele><time>2026-04-06T16:58:31.999Z</time></trkpt><trkpt lat="43.39396085913662" lon="11.217310181997204"><ele>196.0</ele><time>2026-04-06T16:58:32.999Z</time></trkpt><trkpt lat="43.39399369662423" lon="11.216902140172394"><ele>196.0</ele><time>2026-04-06T16:58:33.999Z</time></trkpt><trkpt lat="43.39402755006078" lon="11.216494976511242"><ele>196.0</ele><time>2026-04-06T16:58:34.999Z</time></trkpt><trkpt lat="43.39405990575041" lon="11.216112861558768"><ele>196.5</ele><time>2026-04-06T16:58:35.999Z</time></trkpt><trkpt lat="43.39409075929716" lon="11.21574036128667"><ele>197.0</ele><time>2026-04-06T16:58:36.999Z</time></trkpt><trkpt lat="43.39412300351303" lon="11.215369892255058"><ele>197.5</ele><time>2026-04-06T16:58:37.999Z</time></trkpt><trkpt lat="43.39415487774001" lon="11.215003358057192"><ele>198.0</ele><time>2026-04-06T16:58:38.999Z</time></trkpt><trkpt lat="43.394183883171735" lon="11.214637746923255"><ele>197.0</ele><time>2026-04-06T16:58:39.999Z</time></trkpt><trkpt lat="43.394213878116354" lon="11.214270365075594"><ele>196.0</ele><time>2026-04-06T16:58:40.999Z</time></trkpt><trkpt lat="43.39424439950877" lon="11.213899313446321"><ele>196.0</ele><time>2026-04-06T16:58:41.999Z</time></trkpt><trkpt lat="43.39427651361425" lon="11.213525264059252"><ele>196.0</ele><time>2026-04-06T16:58:42.999Z</time></trkpt><trkpt lat="43.394309540856604" lon="11.213148474577256"><ele>196.0</ele><time>2026-04-06T16:58:43.999Z</time></trkpt><trkpt lat="43.394342523978494" lon="11.212767919240434"><ele>196.0</ele><time>2026-04-06T16:58:44.999Z</time></trkpt><trkpt lat="43.39437476857598" lon="11.21238101916464"><ele>195.0</ele><time>2026-04-06T16:58:45.999Z</time></trkpt><trkpt lat="43.394406350028255" lon="11.211993120887454"><ele>194.0</ele><time>2026-04-06T16:58:46.999Z</time></trkpt><trkpt lat="43.39443930613561" lon="11.21160740960684"><ele>194.0</ele><time>2026-04-06T16:58:47.999Z</time></trkpt><trkpt lat="43.39447213982887" lon="11.211223576087885"><ele>194.0</ele><time>2026-04-06T16:58:48.999Z</time></trkpt><trkpt lat="43.394502706488666" lon="11.210836031989391"><ele>195.0</ele><time>2026-04-06T16:58:49.999Z</time></trkpt><trkpt lat="43.39453563160303" lon="11.210448017122918"><ele>196.0</ele><time>2026-04-06T16:58:50.999Z</time></trkpt><trkpt lat="43.394570732368045" lon="11.210061567712332"><ele>197.5</ele><time>2026-04-06T16:58:51.999Z</time></trkpt><trkpt lat="43.39460558345453" lon="11.209665059847826"><ele>199.0</ele><time>2026-04-06T16:58:52.999Z</time></trkpt><trkpt lat="43.39463863743564" lon="11.209268828988401"><ele>198.5</ele><time>2026-04-06T16:58:53.999Z</time></trkpt><trkpt lat="43.39466964516739" lon="11.208877711002541"><ele>198.0</ele><time>2026-04-06T16:58:54.999Z</time></trkpt><trkpt lat="43.39470100489335" lon="11.208490715119494"><ele>203.0</ele><time>2026-04-06T16:58:55.999Z</time></trkpt><trkpt lat="43.39473105246587" lon="11.208104850437296"><ele>208.0</ele><time>2026-04-06T16:58:56.999Z</time></trkpt><trkpt lat="43.39476180173291" lon="11.207725978503275"><ele>208.0</ele><time>2026-04-06T16:58:57.999Z</time></trkpt><trkpt lat="43.39479487480165" lon="11.207345691251986"><ele>208.0</ele><time>2026-04-06T16:58:58.999Z</time></trkpt><trkpt lat="43.39482751241351" lon="11.206975415789495"><ele>209.0</ele><time>2026-04-06T16:58:59.999Z</time></trkpt><trkpt lat="43.394858453134866" lon="11.206622875460427"><ele>210.0</ele><time>2026-04-06T16:59:00.999Z</time></trkpt><trkpt lat="43.394887219211334" lon="11.206292808416386"><ele>211.5</ele><time>2026-04-06T16:59:01.999Z</time></trkpt><trkpt lat="43.39491812096086" lon="11.205956975347185"><ele>213.0</ele><time>2026-04-06T16:59:02.999Z</time></trkpt><trkpt lat="43.394947465562396" lon="11.205617177862752"><ele>213.0</ele><time>2026-04-06T16:59:03.999Z</time></trkpt><trkpt lat="43.394976464643904" lon="11.205272288733472"><ele>213.0</ele><time>2026-04-06T16:59:04.999Z</time></trkpt><trkpt lat="43.39501166561076" lon="11.204922278063501"><ele>214.5</ele><time>2026-04-06T16:59:05.999Z</time></trkpt><trkpt lat="43.39505631647066" lon="11.204578185287579"><ele>216.0</ele><time>2026-04-06T16:59:06.999Z</time></trkpt><trkpt lat="43.395115766053216" lon="11.204245747599646"><ele>216.0</ele><time>2026-04-06T16:59:07.999Z</time></trkpt><trkpt lat="43.395196684942796" lon="11.203919308036632"><ele>216.0</ele><time>2026-04-06T16:59:08.999Z</time></trkpt><trkpt lat="43.39529647188976" lon="11.203589250067745"><ele>216.0</ele><time>2026-04-06T16:59:09.999Z</time></trkpt><trkpt lat="43.395413637101015" lon="11.203246830200088"><ele>216.0</ele><time>2026-04-06T16:59:10.999Z</time></trkpt><trkpt lat="43.39554042852549" lon="11.202891629351269"><ele>216.0</ele><time>2026-04-06T16:59:11.999Z</time></trkpt><trkpt lat="43.39567537456466" lon="11.202540740264261"><ele>216.0</ele><time>2026-04-06T16:59:12.999Z</time></trkpt><trkpt lat="43.39582366012883" lon="11.202206702882798"><ele>215.5</ele><time>2026-04-06T16:59:13.999Z</time></trkpt><trkpt lat="43.3959842860206" lon="11.201873412825618"><ele>215.0</ele><time>2026-04-06T16:59:14.999Z</time></trkpt><trkpt lat="43.396149781666224" lon="11.201545260412624"><ele>214.5</ele><time>2026-04-06T16:59:15.999Z</time></trkpt><trkpt lat="43.396305777477444" lon="11.201225950172255"><ele>214.0</ele><time>2026-04-06T16:59:16.999Z</time></trkpt><trkpt lat="43.396452614816404" lon="11.200905359963278"><ele>215.5</ele><time>2026-04-06T16:59:17.999Z</time></trkpt><trkpt lat="43.396602735877906" lon="11.200582486098693"><ele>217.0</ele><time>2026-04-06T16:59:18.999Z</time></trkpt><trkpt lat="43.3967589319767" lon="11.200260986574563"><ele>217.0</ele><time>2026-04-06T16:59:19.999Z</time></trkpt><trkpt lat="43.39692218101011" lon="11.199926802277057"><ele>217.0</ele><time>2026-04-06T16:59:20.999Z</time></trkpt><trkpt lat="43.39709727820672" lon="11.199573931128503"><ele>218.5</ele><time>2026-04-06T16:59:21.999Z</time></trkpt><trkpt lat="43.3972817219162" lon="11.199202866983692"><ele>220.0</ele><time>2026-04-06T16:59:22.999Z</time></trkpt><trkpt lat="43.397473855940945" lon="11.198809813230776"><ele>216.5</ele><time>2026-04-06T16:59:23.999Z</time></trkpt><trkpt lat="43.39767188432483" lon="11.198399959463359"><ele>213.0</ele><time>2026-04-06T16:59:24.999Z</time></trkpt><trkpt lat="43.3978752782708" lon="11.19796169629587"><ele>212.5</ele><time>2026-04-06T16:59:25.999Z</time></trkpt><trkpt lat="43.39807094492909" lon="11.197512450118795"><ele>212.0</ele><time>2026-04-06T16:59:26.999Z</time></trkpt><trkpt lat="43.39826291793237" lon="11.197082080339326"><ele>210.5</ele><time>2026-04-06T16:59:27.999Z</time></trkpt><trkpt lat="43.39845397940183" lon="11.19669110022504"><ele>209.0</ele><time>2026-04-06T16:59:28.999Z</time></trkpt><trkpt lat="43.39862783604965" lon="11.196345485756204"><ele>209.0</ele><time>2026-04-06T16:59:29.999Z</time></trkpt><trkpt lat="43.39878533507028" lon="11.196033159048426"><ele>209.0</ele><time>2026-04-06T16:59:30.999Z</time></trkpt><trkpt lat="43.39893746096134" lon="11.19572946590738"><ele>209.5</ele><time>2026-04-06T16:59:31.999Z</time></trkpt><trkpt lat="43.39907847777727" lon="11.19543835581148"><ele>210.0</ele><time>2026-04-06T16:59:32.999Z</time></trkpt><trkpt lat="43.399210449224995" lon="11.195158138984482"><ele>210.0</ele><time>2026-04-06T16:59:33.999Z</time></trkpt><trkpt lat="43.39934743196672" lon="11.194876061497684"><ele>210.0</ele><time>2026-04-06T16:59:34.999Z</time></trkpt><trkpt lat="43.399468979983055" lon="11.194626070730406"><ele>210.0</ele><time>2026-04-06T16:59:35.999Z</time></trkpt><trkpt lat="43.399585135532895" lon="11.194391224564665"><ele>210.0</ele><time>2026-04-06T16:59:36.999Z</time></trkpt><trkpt lat="43.39969343294844" lon="11.19416372497771"><ele>210.0</ele><time>2026-04-06T16:59:37.999Z</time></trkpt><trkpt lat="43.399801343600885" lon="11.193934391636786"><ele>210.0</ele><time>2026-04-06T16:59:38.999Z</time></trkpt><trkpt lat="43.39991508775111" lon="11.193698405616988"><ele>210.0</ele><time>2026-04-06T16:59:40Z</time></trkpt><trkpt lat="43.4000348056699" lon="11.19345422514113"><ele>210.0</ele><time>2026-04-06T16:59:41Z</time></trkpt><trkpt lat="43.40015644013925" lon="11.193200729737114"><ele>209.5</ele><time>2026-04-06T16:59:42Z</time></trkpt><trkpt lat="43.40028918844069" lon="11.192920675864139"><ele>209.0</ele><time>2026-04-06T16:59:43Z</time></trkpt><trkpt lat="43.40042722568422" lon="11.192632780390712"><ele>209.0</ele><time>2026-04-06T16:59:44Z</time></trkpt><trkpt lat="43.40056497105427" lon="11.19234959372683"><ele>209.0</ele><time>2026-04-06T16:59:45Z</time></trkpt><trkpt lat="43.40070891144784" lon="11.192051784359302"><ele>209.5</ele><time>2026-04-06T16:59:46Z</time></trkpt><trkpt lat="43.40085632158873" lon="11.19174263982273"><ele>210.0</ele><time>2026-04-06T16:59:47Z</time></trkpt><trkpt lat="43.401011798227806" lon="11.191419607543661"><ele>210.0</ele><time>2026-04-06T16:59:48Z</time></trkpt><trkpt lat="43.401169156037966" lon="11.191094095380363"><ele>210.0</ele><time>2026-04-06T16:59:49Z</time></trkpt><trkpt lat="43.40132261914245" lon="11.19077642368061"><ele>209.5</ele><time>2026-04-06T16:59:50Z</time></trkpt><trkpt lat="43.40147904400456" lon="11.190454592212225"><ele>209.0</ele><time>2026-04-06T16:59:51Z</time></trkpt><trkpt lat="43.40163957890502" lon="11.19012440816992"><ele>209.0</ele><time>2026-04-06T16:59:52Z</time></trkpt><trkpt lat="43.401799082393204" lon="11.189796178860098"><ele>209.0</ele><time>2026-04-06T16:59:53Z</time></trkpt><trkpt lat="43.401961884464896" lon="11.1894576280334"><ele>209.0</ele><time>2026-04-06T16:59:54Z</time></trkpt><trkpt lat="43.40212347793134" lon="11.189124169694539"><ele>209.0</ele><time>2026-04-06T16:59:55Z</time></trkpt><trkpt lat="43.40228712759435" lon="11.188789713920062"><ele>209.5</ele><time>2026-04-06T16:59:56Z</time></trkpt><trkpt lat="43.402451431824844" lon="11.188454548997539"><ele>210.0</ele><time>2026-04-06T16:59:57Z</time></trkpt><trkpt lat="43.402615057841714" lon="11.188118021464046"><ele>210.0</ele><time>2026-04-06T16:59:58Z</time></trkpt><trkpt lat="43.402775408843915" lon="11.187786191558164"><ele>210.0</ele><time>2026-04-06T16:59:59Z</time></trkpt><trkpt lat="43.40293991660396" lon="11.187446031802267"><ele>211.0</ele><time>2026-04-06T17:00:00Z</time></trkpt><trkpt lat="43.403102466684054" lon="11.18711163760111"><ele>212.0</ele><time>2026-04-06T17:00:01Z</time></trkpt><trkpt lat="43.40326339033584" lon="11.186776586764601"><ele>212.5</ele><time>2026-04-06T17:00:02Z</time></trkpt><trkpt lat="43.403425802910604" lon="11.186440069077937"><ele>213.0</ele><time>2026-04-06T17:00:03Z</time></trkpt><trkpt lat="43.40358662872237" lon="11.18610331718268"><ele>213.0</ele><time>2026-04-06T17:00:04Z</time></trkpt><trkpt lat="43.40374824514649" lon="11.185767057159921"><ele>213.0</ele><time>2026-04-06T17:00:05Z</time></trkpt><trkpt lat="43.40391042914714" lon="11.185433206624372"><ele>213.5</ele><time>2026-04-06T17:00:06Z</time></trkpt><trkpt lat="43.40407401694974" lon="11.18509758479587"><ele>214.0</ele><time>2026-04-06T17:00:07Z</time></trkpt><trkpt lat="43.4042336506632" lon="11.184763013040497"><ele>215.5</ele><time>2026-04-06T17:00:08Z</time></trkpt><trkpt lat="43.40439686365918" lon="11.18442580427289"><ele>217.0</ele><time>2026-04-06T17:00:09Z</time></trkpt><trkpt lat="43.40455964370846" lon="11.184088819082389"><ele>218.0</ele><time>2026-04-06T17:00:10Z</time></trkpt><trkpt lat="43.40472297705466" lon="11.18374814157826"><ele>219.0</ele><time>2026-04-06T17:00:11Z</time></trkpt><trkpt lat="43.404887033178014" lon="11.183408680019976"><ele>220.5</ele><time>2026-04-06T17:00:12Z</time></trkpt><trkpt lat="43.4050535370551" lon="11.183065667433729"><ele>222.0</ele><time>2026-04-06T17:00:13Z</time></trkpt><trkpt lat="43.4052179109976" lon="11.182725280253202"><ele>222.0</ele><time>2026-04-06T17:00:14Z</time></trkpt><trkpt lat="43.405384614944744" lon="11.182384146868763"><ele>222.0</ele><time>2026-04-06T17:00:15Z</time></trkpt><trkpt lat="43.40555183654773" lon="11.182040505855138"><ele>222.5</ele><time>2026-04-06T17:00:16Z</time></trkpt><trkpt lat="43.405718731612374" lon="11.181698556068985"><ele>223.0</ele><time>2026-04-06T17:00:17Z</time></trkpt><trkpt lat="43.405885136768816" lon="11.181352080228873"><ele>223.0</ele><time>2026-04-06T17:00:18Z</time></trkpt><trkpt lat="43.40605043549747" lon="11.181005352350931"><ele>223.0</ele><time>2026-04-06T17:00:19Z</time></trkpt><trkpt lat="43.40621614225573" lon="11.180660111192786"><ele>222.0</ele><time>2026-04-06T17:00:20Z</time></trkpt><trkpt lat="43.406383146903934" lon="11.180311580796204"><ele>221.0</ele><time>2026-04-06T17:00:21Z</time></trkpt><trkpt lat="43.40655039454956" lon="11.179961634073555"><ele>219.5</ele><time>2026-04-06T17:00:22Z</time></trkpt><trkpt lat="43.406712125219514" lon="11.179605829252152"><ele>218.0</ele><time>2026-04-06T17:00:23Z</time></trkpt><trkpt lat="43.40685877430579" lon="11.179247696932176"><ele>217.0</ele><time>2026-04-06T17:00:24Z</time></trkpt><trkpt lat="43.406997901120285" lon="11.178889813405945"><ele>216.0</ele><time>2026-04-06T17:00:25Z</time></trkpt><trkpt lat="43.40713743095111" lon="11.17853671794193"><ele>219.0</ele><time>2026-04-06T17:00:26Z</time></trkpt><trkpt lat="43.40727079352011" lon="11.178181194991032"><ele>222.0</ele><time>2026-04-06T17:00:27Z</time></trkpt><trkpt lat="43.40739226961311" lon="11.177822002931538"><ele>222.0</ele><time>2026-04-06T17:00:28Z</time></trkpt><trkpt lat="43.40751092804563" lon="11.177459346128717"><ele>222.0</ele><time>2026-04-06T17:00:29Z</time></trkpt><trkpt lat="43.40762603952837" lon="11.17709153174789"><ele>220.5</ele><time>2026-04-06T17:00:30Z</time></trkpt><trkpt lat="43.40773210815061" lon="11.176722818753772"><ele>219.0</ele><time>2026-04-06T17:00:31Z</time></trkpt><trkpt lat="43.407838179234595" lon="11.176351794758727"><ele>218.0</ele><time>2026-04-06T17:00:32Z</time></trkpt><trkpt lat="43.40794432827784" lon="11.175983214829285"><ele>217.0</ele><time>2026-04-06T17:00:33Z</time></trkpt><trkpt lat="43.40805389555654" lon="11.175619213272523"><ele>222.0</ele><time>2026-04-06T17:00:34Z</time></trkpt><trkpt lat="43.40816428592975" lon="11.175253689274827"><ele>227.0</ele><time>2026-04-06T17:00:35Z</time></trkpt><trkpt lat="43.40827232946278" lon="11.17488916459986"><ele>226.0</ele><time>2026-04-06T17:00:36Z</time></trkpt><trkpt lat="43.40838069554896" lon="11.17451881237025"><ele>225.0</ele><time>2026-04-06T17:00:37Z</time></trkpt><trkpt lat="43.408488023286935" lon="11.174144149753698"><ele>224.0</ele><time>2026-04-06T17:00:38Z</time></trkpt><trkpt lat="43.4085938180395" lon="11.173778017855206"><ele>223.0</ele><time>2026-04-06T17:00:39Z</time></trkpt><trkpt lat="43.408699468376604" lon="11.173417898974408"><ele>223.0</ele><time>2026-04-06T17:00:40Z</time></trkpt><trkpt lat="43.4087980001104" lon="11.17306515367734"><ele>223.0</ele><time>2026-04-06T17:00:40.999Z</time></trkpt><trkpt lat="43.40889977942142" lon="11.172720817840712"><ele>223.0</ele><time>2026-04-06T17:00:41.999Z</time></trkpt><trkpt lat="43.40900218843995" lon="11.172376458427806"><ele>223.0</ele><time>2026-04-06T17:00:42.999Z</time></trkpt><trkpt lat="43.40910697848422" lon="11.172031723421094"><ele>223.5</ele><time>2026-04-06T17:00:43.999Z</time></trkpt><trkpt lat="43.409215348574506" lon="11.171688586301284"><ele>224.0</ele><time>2026-04-06T17:00:44.999Z</time></trkpt><trkpt lat="43.40932711601602" lon="11.171339006631195"><ele>224.0</ele><time>2026-04-06T17:00:45.999Z</time></trkpt><trkpt lat="43.40943934379238" lon="11.170987983884803"><ele>224.0</ele><time>2026-04-06T17:00:46.999Z</time></trkpt><trkpt lat="43.409547198472936" lon="11.170631093073808"><ele>224.0</ele><time>2026-04-06T17:00:47.999Z</time></trkpt><trkpt lat="43.409652378081915" lon="11.170266975894258"><ele>224.0</ele><time>2026-04-06T17:00:48.999Z</time></trkpt><trkpt lat="43.40975694928403" lon="11.1699072768471"><ele>224.0</ele><time>2026-04-06T17:00:49.999Z</time></trkpt><trkpt lat="43.40986075110972" lon="11.169551473886852"><ele>224.0</ele><time>2026-04-06T17:00:50.999Z</time></trkpt><trkpt lat="43.40996497030011" lon="11.16919663744432"><ele>224.5</ele><time>2026-04-06T17:00:51.999Z</time></trkpt><trkpt lat="43.410066117152844" lon="11.168847067559103"><ele>225.0</ele><time>2026-04-06T17:00:52.999Z</time></trkpt><trkpt lat="43.410167533406394" lon="11.168498319415011"><ele>226.0</ele><time>2026-04-06T17:00:53.999Z</time></trkpt><trkpt lat="43.41027017919863" lon="11.168150418494466"><ele>227.0</ele><time>2026-04-06T17:00:54.999Z</time></trkpt><trkpt lat="43.41037404549554" lon="11.167801844479268"><ele>227.0</ele><time>2026-04-06T17:00:55.999Z</time></trkpt><trkpt lat="43.410478559412326" lon="11.167453874429828"><ele>227.0</ele><time>2026-04-06T17:00:56.999Z</time></trkpt><trkpt lat="43.410587647311004" lon="11.167108629271139"><ele>227.0</ele><time>2026-04-06T17:00:57.999Z</time></trkpt><trkpt lat="43.41070389979127" lon="11.16677105665251"><ele>227.0</ele><time>2026-04-06T17:00:58.999Z</time></trkpt><trkpt lat="43.410828900806855" lon="11.166439901051946"><ele>227.0</ele><time>2026-04-06T17:00:59.999Z</time></trkpt><trkpt lat="43.41096668429461" lon="11.166111659385631"><ele>227.0</ele><time>2026-04-06T17:01:00.999Z</time></trkpt><trkpt lat="43.41111151020874" lon="11.165785676901946"><ele>227.0</ele><time>2026-04-06T17:01:01.999Z</time></trkpt><trkpt lat="43.41126334083363" lon="11.165457219736338"><ele>227.0</ele><time>2026-04-06T17:01:02.999Z</time></trkpt><trkpt lat="43.41142357683595" lon="11.165133463746196"><ele>226.5</ele><time>2026-04-06T17:01:03.999Z</time></trkpt><trkpt lat="43.411590793960144" lon="11.16481705711107"><ele>226.0</ele><time>2026-04-06T17:01:04.999Z</time></trkpt><trkpt lat="43.411766460308534" lon="11.164503771328162"><ele>226.0</ele><time>2026-04-06T17:01:05.999Z</time></trkpt><trkpt lat="43.411952473133226" lon="11.16419336431282"><ele>226.0</ele><time>2026-04-06T17:01:06.999Z</time></trkpt><trkpt lat="43.41213939424024" lon="11.163887686266634"><ele>225.5</ele><time>2026-04-06T17:01:07.999Z</time></trkpt><trkpt lat="43.412336701778386" lon="11.163586228968022"><ele>225.0</ele><time>2026-04-06T17:01:08.999Z</time></trkpt><trkpt lat="43.412541741069674" lon="11.163293788855603"><ele>226.0</ele><time>2026-04-06T17:01:09.999Z</time></trkpt><trkpt lat="43.41275120512211" lon="11.1630023065424"><ele>227.0</ele><time>2026-04-06T17:01:10.999Z</time></trkpt><trkpt lat="43.41295435311396" lon="11.162711436530003"><ele>226.5</ele><time>2026-04-06T17:01:11.999Z</time></trkpt><trkpt lat="43.41315573375832" lon="11.162418103807749"><ele>226.0</ele><time>2026-04-06T17:01:12.999Z</time></trkpt><trkpt lat="43.41335758027593" lon="11.162126339249431"><ele>227.0</ele><time>2026-04-06T17:01:13.999Z</time></trkpt><trkpt lat="43.4135593585515" lon="11.161834603943168"><ele>228.0</ele><time>2026-04-06T17:01:14.999Z</time></trkpt><trkpt lat="43.413759812896174" lon="11.161546927706214"><ele>229.5</ele><time>2026-04-06T17:01:15.999Z</time></trkpt><trkpt lat="43.413958487043445" lon="11.161259365839506"><ele>231.0</ele><time>2026-04-06T17:01:16.999Z</time></trkpt><trkpt lat="43.41415648632258" lon="11.160971054905277"><ele>230.0</ele><time>2026-04-06T17:01:17.999Z</time></trkpt><trkpt lat="43.41435458574114" lon="11.160685550881828"><ele>229.0</ele><time>2026-04-06T17:01:18.999Z</time></trkpt><trkpt lat="43.414554578469044" lon="11.160396617756437"><ele>229.0</ele><time>2026-04-06T17:01:19.999Z</time></trkpt><trkpt lat="43.414755939514016" lon="11.160108157825752"><ele>229.0</ele><time>2026-04-06T17:01:20.999Z</time></trkpt><trkpt lat="43.41495593606757" lon="11.15982168828734"><ele>229.5</ele><time>2026-04-06T17:01:21.999Z</time></trkpt><trkpt lat="43.41515490365102" lon="11.159534557024532"><ele>230.0</ele><time>2026-04-06T17:01:22.999Z</time></trkpt><trkpt lat="43.4153535162763" lon="11.159247628247716"><ele>230.5</ele><time>2026-04-06T17:01:23.999Z</time></trkpt><trkpt lat="43.41555137126085" lon="11.158961100893015"><ele>231.0</ele><time>2026-04-06T17:01:24.999Z</time></trkpt><trkpt lat="43.41575116050786" lon="11.158672173861609"><ele>231.0</ele><time>2026-04-06T17:01:25.999Z</time></trkpt><trkpt lat="43.41594987914305" lon="11.158384618728382"><ele>231.0</ele><time>2026-04-06T17:01:26.999Z</time></trkpt><trkpt lat="43.41614797246733" lon="11.158094853238932"><ele>231.5</ele><time>2026-04-06T17:01:27.999Z</time></trkpt><trkpt lat="43.416346690398235" lon="11.157811078939547"><ele>232.0</ele><time>2026-04-06T17:01:28.999Z</time></trkpt><trkpt lat="43.41654659091044" lon="11.157528209978377"><ele>233.0</ele><time>2026-04-06T17:01:29.999Z</time></trkpt><trkpt lat="43.41674645397593" lon="11.157240907777862"><ele>234.0</ele><time>2026-04-06T17:01:30.999Z</time></trkpt><trkpt lat="43.41694614672885" lon="11.156953725696972"><ele>234.0</ele><time>2026-04-06T17:01:31.999Z</time></trkpt><trkpt lat="43.41714494357208" lon="11.156665556366569"><ele>234.0</ele><time>2026-04-06T17:01:32.999Z</time></trkpt><trkpt lat="43.41734436615375" lon="11.156381758188296"><ele>233.0</ele><time>2026-04-06T17:01:33.999Z</time></trkpt><trkpt lat="43.41754494336402" lon="11.156089552079635"><ele>232.0</ele><time>2026-04-06T17:01:34.999Z</time></trkpt><trkpt lat="43.41774717144456" lon="11.15580170089632"><ele>232.0</ele><time>2026-04-06T17:01:35.999Z</time></trkpt><trkpt lat="43.417950154387306" lon="11.155522782904649"><ele>232.0</ele><time>2026-04-06T17:01:36.999Z</time></trkpt><trkpt lat="43.41815991569218" lon="11.155252122828331"><ele>230.5</ele><time>2026-04-06T17:01:37.999Z</time></trkpt><trkpt lat="43.4183689720187" lon="11.154975242825563"><ele>229.0</ele><time>2026-04-06T17:01:38.999Z</time></trkpt><trkpt lat="43.41857044911412" lon="11.154689421964095"><ele>228.5</ele><time>2026-04-06T17:01:39.999Z</time></trkpt><trkpt lat="43.418768157822974" lon="11.154393097241137"><ele>228.0</ele><time>2026-04-06T17:01:40.999Z</time></trkpt><trkpt lat="43.418966118652286" lon="11.154101226573927"><ele>225.0</ele><time>2026-04-06T17:01:41.999Z</time></trkpt><trkpt lat="43.41916821762724" lon="11.153807711368149"><ele>222.0</ele><time>2026-04-06T17:01:42.999Z</time></trkpt><trkpt lat="43.41936901866574" lon="11.153520112214263"><ele>222.0</ele><time>2026-04-06T17:01:43.999Z</time></trkpt><trkpt lat="43.41956982642023" lon="11.15322958953919"><ele>222.0</ele><time>2026-04-06T17:01:44.999Z</time></trkpt><trkpt lat="43.419769751476316" lon="11.152936175605678"><ele>219.0</ele><time>2026-04-06T17:01:46Z</time></trkpt><trkpt lat="43.41996929462794" lon="11.152650578110453"><ele>216.0</ele><time>2026-04-06T17:01:47Z</time></trkpt><trkpt lat="43.4201702500298" lon="11.152362023149495"><ele>216.0</ele><time>2026-04-06T17:01:48Z</time></trkpt><trkpt lat="43.420367981533815" lon="11.152077919855826"><ele>216.0</ele><time>2026-04-06T17:01:49Z</time></trkpt><trkpt lat="43.42056484821238" lon="11.15179367739825"><ele>212.0</ele><time>2026-04-06T17:01:50Z</time></trkpt><trkpt lat="43.420760498249116" lon="11.151511209603537"><ele>208.0</ele><time>2026-04-06T17:01:51Z</time></trkpt><trkpt lat="43.42095365616774" lon="11.151232763398893"><ele>208.0</ele><time>2026-04-06T17:01:52Z</time></trkpt><trkpt lat="43.421147677667996" lon="11.150955755978234"><ele>208.0</ele><time>2026-04-06T17:01:53Z</time></trkpt><trkpt lat="43.42134135968652" lon="11.150677444075688"><ele>204.0</ele><time>2026-04-06T17:01:54Z</time></trkpt><trkpt lat="43.42153226170282" lon="11.150399915703877"><ele>200.0</ele><time>2026-04-06T17:01:55Z</time></trkpt><trkpt lat="43.42172506479803" lon="11.15012257211284"><ele>199.5</ele><time>2026-04-06T17:01:56Z</time></trkpt><trkpt lat="43.42191907266361" lon="11.149840472701005"><ele>199.0</ele><time>2026-04-06T17:01:57Z</time></trkpt><trkpt lat="43.42211279790113" lon="11.149558589156774"><ele>194.0</ele><time>2026-04-06T17:01:58Z</time></trkpt><trkpt lat="43.422301771202065" lon="11.149271686134675"><ele>189.0</ele><time>2026-04-06T17:01:59Z</time></trkpt><trkpt lat="43.422487008538695" lon="11.148988458526274"><ele>189.0</ele><time>2026-04-06T17:02:00Z</time></trkpt><trkpt lat="43.4226669447598" lon="11.148717251767021"><ele>189.0</ele><time>2026-04-06T17:02:01Z</time></trkpt><trkpt lat="43.42284667038934" lon="11.148458756225834"><ele>184.5</ele><time>2026-04-06T17:02:02Z</time></trkpt><trkpt lat="43.423026593354614" lon="11.148196697737196"><ele>180.0</ele><time>2026-04-06T17:02:03Z</time></trkpt><trkpt lat="43.423210338977626" lon="11.14793278654059"><ele>180.0</ele><time>2026-04-06T17:02:04Z</time></trkpt><trkpt lat="43.42339504049262" lon="11.14766558178154"><ele>180.0</ele><time>2026-04-06T17:02:05Z</time></trkpt><trkpt lat="43.42358337720048" lon="11.14739080389482"><ele>180.5</ele><time>2026-04-06T17:02:06Z</time></trkpt><trkpt lat="43.42376731470439" lon="11.14712311079231"><ele>181.0</ele><time>2026-04-06T17:02:07Z</time></trkpt><trkpt lat="43.42395777951112" lon="11.146848886992322"><ele>178.0</ele><time>2026-04-06T17:02:08Z</time></trkpt><trkpt lat="43.42415191942838" lon="11.14657756987833"><ele>175.0</ele><time>2026-04-06T17:02:09Z</time></trkpt><trkpt lat="43.42435357037534" lon="11.146307515098457"><ele>175.0</ele><time>2026-04-06T17:02:10Z</time></trkpt><trkpt lat="43.42456298108338" lon="11.146048209913737"><ele>175.0</ele><time>2026-04-06T17:02:11Z</time></trkpt><trkpt lat="43.42478401936558" lon="11.145806639835792"><ele>172.5</ele><time>2026-04-06T17:02:12Z</time></trkpt><trkpt lat="43.425019311259454" lon="11.145592739555756"><ele>170.0</ele><time>2026-04-06T17:02:13Z</time></trkpt><trkpt lat="43.42525770858" lon="11.145398614888242"><ele>166.0</ele><time>2026-04-06T17:02:14Z</time></trkpt><trkpt lat="43.425503704125276" lon="11.145220239965306"><ele>162.0</ele><time>2026-04-06T17:02:15Z</time></trkpt><trkpt lat="43.425753095352526" lon="11.145051782816095"><ele>162.0</ele><time>2026-04-06T17:02:16Z</time></trkpt><trkpt lat="43.42601207627023" lon="11.144900837985782"><ele>162.0</ele><time>2026-04-06T17:02:17Z</time></trkpt><trkpt lat="43.42628104205724" lon="11.144773512062885"><ele>163.5</ele><time>2026-04-06T17:02:18Z</time></trkpt><trkpt lat="43.42656137681497" lon="11.144663530541807"><ele>165.0</ele><time>2026-04-06T17:02:19Z</time></trkpt><trkpt lat="43.4268533271131" lon="11.144568931365953"><ele>163.5</ele><time>2026-04-06T17:02:20Z</time></trkpt><trkpt lat="43.4271582096924" lon="11.144490080860265"><ele>162.0</ele><time>2026-04-06T17:02:21Z</time></trkpt><trkpt lat="43.42746681341405" lon="11.144441808326128"><ele>162.0</ele><time>2026-04-06T17:02:22Z</time></trkpt><trkpt lat="43.427766222159704" lon="11.144411080947698"><ele>162.0</ele><time>2026-04-06T17:02:23Z</time></trkpt><trkpt lat="43.42806176663392" lon="11.144398044467442"><ele>161.0</ele><time>2026-04-06T17:02:24Z</time></trkpt><trkpt lat="43.42835771481887" lon="11.144401169894097"><ele>160.0</ele><time>2026-04-06T17:02:25Z</time></trkpt><trkpt lat="43.428655713377346" lon="11.144416325988878"><ele>158.5</ele><time>2026-04-06T17:02:26Z</time></trkpt><trkpt lat="43.42895267012109" lon="11.14442378839945"><ele>157.0</ele><time>2026-04-06T17:02:27Z</time></trkpt><trkpt lat="43.42924361362234" lon="11.14442026010323"><ele>157.0</ele><time>2026-04-06T17:02:28Z</time></trkpt><trkpt lat="43.42953162000084" lon="11.144413915373216"><ele>157.0</ele><time>2026-04-06T17:02:29Z</time></trkpt><trkpt lat="43.42981680851281" lon="11.144408587596937"><ele>155.0</ele><time>2026-04-06T17:02:30Z</time></trkpt><trkpt lat="43.430100424275594" lon="11.144404506506195"><ele>153.0</ele><time>2026-04-06T17:02:31Z</time></trkpt><trkpt lat="43.43037827219319" lon="11.14439992568304"><ele>150.0</ele><time>2026-04-06T17:02:32Z</time></trkpt><trkpt lat="43.43066069240632" lon="11.144395098881585"><ele>147.0</ele><time>2026-04-06T17:02:33Z</time></trkpt><trkpt lat="43.43093621907421" lon="11.14439836566349"><ele>147.0</ele><time>2026-04-06T17:02:34Z</time></trkpt><trkpt lat="43.431213512694406" lon="11.144415257470001"><ele>147.0</ele><time>2026-04-06T17:02:35Z</time></trkpt><trkpt lat="43.43148833498212" lon="11.144453738947407"><ele>145.5</ele><time>2026-04-06T17:02:36Z</time></trkpt><trkpt lat="43.43176434011017" lon="11.144510304978532"><ele>144.0</ele><time>2026-04-06T17:02:37Z</time></trkpt><trkpt lat="43.432033068380484" lon="11.144601304910516"><ele>144.0</ele><time>2026-04-06T17:02:38Z</time></trkpt><trkpt lat="43.43229356875935" lon="11.14471621982186"><ele>144.0</ele><time>2026-04-06T17:02:39Z</time></trkpt><trkpt lat="43.432554486608375" lon="11.144853855164524"><ele>142.5</ele><time>2026-04-06T17:02:40Z</time></trkpt><trkpt lat="43.432814159590485" lon="11.144983037265417"><ele>141.0</ele><time>2026-04-06T17:02:41Z</time></trkpt><trkpt lat="43.43307460589366" lon="11.145115908551563"><ele>137.5</ele><time>2026-04-06T17:02:42Z</time></trkpt><trkpt lat="43.43333444678418" lon="11.145251543819203"><ele>134.0</ele><time>2026-04-06T17:02:43Z</time></trkpt><trkpt lat="43.433592269307574" lon="11.145386403666555"><ele>131.0</ele><time>2026-04-06T17:02:44Z</time></trkpt><trkpt lat="43.43385346499627" lon="11.145520208681578"><ele>128.0</ele><time>2026-04-06T17:02:45Z</time></trkpt><trkpt lat="43.434113415126305" lon="11.145651307273635"><ele>133.5</ele><time>2026-04-06T17:02:45.999Z</time></trkpt><trkpt lat="43.43437210389694" lon="11.145783854853288"><ele>139.0</ele><time>2026-04-06T17:02:46.999Z</time></trkpt><trkpt lat="43.43462849067488" lon="11.145917173167275"><ele>139.5</ele><time>2026-04-06T17:02:47.999Z</time></trkpt><trkpt lat="43.43488220747539" lon="11.14604887307124"><ele>140.0</ele><time>2026-04-06T17:02:48.999Z</time></trkpt><trkpt lat="43.4351408811391" lon="11.146179774873273"><ele>140.0</ele><time>2026-04-06T17:02:49.999Z</time></trkpt><trkpt lat="43.435391937715195" lon="11.146306299068144"><ele>140.0</ele><time>2026-04-06T17:02:50.999Z</time></trkpt><trkpt lat="43.43564535852644" lon="11.146435108540834"><ele>145.5</ele><time>2026-04-06T17:02:51.999Z</time></trkpt><trkpt lat="43.43590204057232" lon="11.146566306407971"><ele>151.0</ele><time>2026-04-06T17:02:52.999Z</time></trkpt><trkpt lat="43.43615484126532" lon="11.146694219461523"><ele>152.0</ele><time>2026-04-06T17:02:53.999Z</time></trkpt><trkpt lat="43.436405643387666" lon="11.14681940861318"><ele>153.0</ele><time>2026-04-06T17:02:54.999Z</time></trkpt><trkpt lat="43.436651097648344" lon="11.146943132075373"><ele>153.0</ele><time>2026-04-06T17:02:55.999Z</time></trkpt><trkpt lat="43.43689438195863" lon="11.147066581717711"><ele>153.0</ele><time>2026-04-06T17:02:56.999Z</time></trkpt><trkpt lat="43.43714101824498" lon="11.147203933917837"><ele>153.5</ele><time>2026-04-06T17:02:57.999Z</time></trkpt><trkpt lat="43.43737936806587" lon="11.147369082116839"><ele>154.0</ele><time>2026-04-06T17:02:58.999Z</time></trkpt><trkpt lat="43.4376128439643" lon="11.147561071062357"><ele>156.0</ele><time>2026-04-06T17:02:59.999Z</time></trkpt><trkpt lat="43.437833641169256" lon="11.147767571071396"><ele>158.0</ele><time>2026-04-06T17:03:00.999Z</time></trkpt><trkpt lat="43.438044701125506" lon="11.14800125051491"><ele>160.0</ele><time>2026-04-06T17:03:01.999Z</time></trkpt><trkpt lat="43.43825922440283" lon="11.148244853296312"><ele>162.0</ele><time>2026-04-06T17:03:02.999Z</time></trkpt><trkpt lat="43.43847245314851" lon="11.148489206089806"><ele>162.0</ele><time>2026-04-06T17:03:03.999Z</time></trkpt><trkpt lat="43.43868213039619" lon="11.148729990785052"><ele>162.0</ele><time>2026-04-06T17:03:04.999Z</time></trkpt><trkpt lat="43.43889361902724" lon="11.148956210800073"><ele>161.0</ele><time>2026-04-06T17:03:05.999Z</time></trkpt><trkpt lat="43.439130170276194" lon="11.149159593864045"><ele>160.0</ele><time>2026-04-06T17:03:06.999Z</time></trkpt><trkpt lat="43.43937471295438" lon="11.149341871189776"><ele>160.0</ele><time>2026-04-06T17:03:07.999Z</time></trkpt><trkpt lat="43.439626652469116" lon="11.149499906090684"><ele>160.0</ele><time>2026-04-06T17:03:08.999Z</time></trkpt><trkpt lat="43.4398796304414" lon="11.149628002383919"><ele>160.0</ele><time>2026-04-06T17:03:09.999Z</time></trkpt><trkpt lat="43.44012713611266" lon="11.149742546083857"><ele>160.0</ele><time>2026-04-06T17:03:10.999Z</time></trkpt><trkpt lat="43.44037585058043" lon="11.149840327057069"><ele>153.0</ele><time>2026-04-06T17:03:11.999Z</time></trkpt><trkpt lat="43.44062895260759" lon="11.14991168284086"><ele>146.0</ele><time>2026-04-06T17:03:12.999Z</time></trkpt><trkpt lat="43.44089085903637" lon="11.149966198835545"><ele>146.0</ele><time>2026-04-06T17:03:13.999Z</time></trkpt><trkpt lat="43.441153929808" lon="11.149999159033252"><ele>146.0</ele><time>2026-04-06T17:03:14.999Z</time></trkpt><trkpt lat="43.44141153757235" lon="11.150010608579919"><ele>144.5</ele><time>2026-04-06T17:03:15.999Z</time></trkpt><trkpt lat="43.44166981121402" lon="11.150008504395155"><ele>143.0</ele><time>2026-04-06T17:03:16.999Z</time></trkpt><trkpt lat="43.441924414418395" lon="11.1499914536945"><ele>140.0</ele><time>2026-04-06T17:03:17.999Z</time></trkpt><trkpt lat="43.44217165891393" lon="11.14998062161346"><ele>137.0</ele><time>2026-04-06T17:03:18.999Z</time></trkpt><trkpt lat="43.442423335993226" lon="11.149974501014778"><ele>137.0</ele><time>2026-04-06T17:03:19.999Z</time></trkpt><trkpt lat="43.44267533000606" lon="11.149973807007104"><ele>137.0</ele><time>2026-04-06T17:03:20.999Z</time></trkpt><trkpt lat="43.44292438039048" lon="11.149973852658759"><ele>134.5</ele><time>2026-04-06T17:03:21.999Z</time></trkpt><trkpt lat="43.443175531570176" lon="11.149970013386744"><ele>132.0</ele><time>2026-04-06T17:03:22.999Z</time></trkpt><trkpt lat="43.44342197001739" lon="11.149960132685072"><ele>132.0</ele><time>2026-04-06T17:03:23.999Z</time></trkpt><trkpt lat="43.443663224135214" lon="11.149952608418834"><ele>132.0</ele><time>2026-04-06T17:03:24.999Z</time></trkpt><trkpt lat="43.443906136746314" lon="11.149942453141064"><ele>130.0</ele><time>2026-04-06T17:03:25.999Z</time></trkpt><trkpt lat="43.44415366159491" lon="11.149935690686835"><ele>128.0</ele><time>2026-04-06T17:03:26.999Z</time></trkpt><trkpt lat="43.44440625439163" lon="11.149940660805584"><ele>127.0</ele><time>2026-04-06T17:03:27.999Z</time></trkpt><trkpt lat="43.44466350531623" lon="11.149963235144362"><ele>126.0</ele><time>2026-04-06T17:03:28.999Z</time></trkpt><trkpt lat="43.44491714809998" lon="11.150006573810241"><ele>126.0</ele><time>2026-04-06T17:03:29.999Z</time></trkpt><trkpt lat="43.44516800554497" lon="11.150072095466111"><ele>126.0</ele><time>2026-04-06T17:03:30.999Z</time></trkpt><trkpt lat="43.44541520323739" lon="11.150155954451686"><ele>127.5</ele><time>2026-04-06T17:03:31.999Z</time></trkpt><trkpt lat="43.44566406779131" lon="11.150265117465768"><ele>129.0</ele><time>2026-04-06T17:03:32.999Z</time></trkpt><trkpt lat="43.44590445056539" lon="11.150392980801952"><ele>129.0</ele><time>2026-04-06T17:03:33.999Z</time></trkpt><trkpt lat="43.44614598494957" lon="11.150539555570266"><ele>129.0</ele><time>2026-04-06T17:03:34.999Z</time></trkpt><trkpt lat="43.44638345795787" lon="11.15069979284616"><ele>125.0</ele><time>2026-04-06T17:03:35.999Z</time></trkpt><trkpt lat="43.44660808482074" lon="11.150873201240557"><ele>121.0</ele><time>2026-04-06T17:03:36.999Z</time></trkpt><trkpt lat="43.44681763491046" lon="11.151066738552935"><ele>121.0</ele><time>2026-04-06T17:03:37.999Z</time></trkpt><trkpt lat="43.4470132212515" lon="11.151276837018147"><ele>121.0</ele><time>2026-04-06T17:03:38.999Z</time></trkpt><trkpt lat="43.447204005082746" lon="11.151486696597683"><ele>119.0</ele><time>2026-04-06T17:03:39.999Z</time></trkpt><trkpt lat="43.44739511962066" lon="11.151694932295102"><ele>117.0</ele><time>2026-04-06T17:03:40.999Z</time></trkpt><trkpt lat="43.44758477615458" lon="11.151895971963835"><ele>117.0</ele><time>2026-04-06T17:03:41.999Z</time></trkpt><trkpt lat="43.4477737472305" lon="11.152095160647368"><ele>117.0</ele><time>2026-04-06T17:03:42.999Z</time></trkpt><trkpt lat="43.447964083655535" lon="11.152290749855679"><ele>115.5</ele><time>2026-04-06T17:03:43.999Z</time></trkpt><trkpt lat="43.44815782619475" lon="11.152477256267456"><ele>114.0</ele><time>2026-04-06T17:03:44.999Z</time></trkpt><trkpt lat="43.448352366684546" lon="11.15265817776767"><ele>114.0</ele><time>2026-04-06T17:03:45.999Z</time></trkpt><trkpt lat="43.448550778002584" lon="11.152830854295123"><ele>114.0</ele><time>2026-04-06T17:03:46.999Z</time></trkpt><trkpt lat="43.44875209830155" lon="11.152993815608012"><ele>113.0</ele><time>2026-04-06T17:03:47.999Z</time></trkpt><trkpt lat="43.44895472102065" lon="11.15314583536321"><ele>112.0</ele><time>2026-04-06T17:03:48.999Z</time></trkpt><trkpt lat="43.44916308446681" lon="11.153295217998679"><ele>116.5</ele><time>2026-04-06T17:03:49.999Z</time></trkpt><trkpt lat="43.44937245418871" lon="11.15343107841264"><ele>121.0</ele><time>2026-04-06T17:03:51Z</time></trkpt><trkpt lat="43.44958656355084" lon="11.153567622948838"><ele>122.5</ele><time>2026-04-06T17:03:52Z</time></trkpt><trkpt lat="43.44980593034822" lon="11.153698098803824"><ele>124.0</ele><time>2026-04-06T17:03:53Z</time></trkpt><trkpt lat="43.45002771881518" lon="11.1538190199185"><ele>124.0</ele><time>2026-04-06T17:03:54Z</time></trkpt><trkpt lat="43.45024966751646" lon="11.15393366438158"><ele>124.0</ele><time>2026-04-06T17:03:55Z</time></trkpt><trkpt lat="43.45047435101702" lon="11.154051508426644"><ele>122.5</ele><time>2026-04-06T17:03:56Z</time></trkpt><trkpt lat="43.45069731367561" lon="11.15416867206267"><ele>121.0</ele><time>2026-04-06T17:03:57Z</time></trkpt><trkpt lat="43.450920212451116" lon="11.154289313975685"><ele>121.0</ele><time>2026-04-06T17:03:58Z</time></trkpt><trkpt lat="43.451144915875716" lon="11.154408242466515"><ele>121.0</ele><time>2026-04-06T17:03:59Z</time></trkpt><trkpt lat="43.4513669575145" lon="11.154532057769886"><ele>116.0</ele><time>2026-04-06T17:04:00Z</time></trkpt><trkpt lat="43.45159049315155" lon="11.154656325629276"><ele>111.0</ele><time>2026-04-06T17:04:01Z</time></trkpt><trkpt lat="43.45181791797216" lon="11.154780176935525"><ele>111.0</ele><time>2026-04-06T17:04:02Z</time></trkpt><trkpt lat="43.452047566551215" lon="11.154906386541109"><ele>111.0</ele><time>2026-04-06T17:04:03Z</time></trkpt><trkpt lat="43.4522804831038" lon="11.155033501419522"><ele>111.0</ele><time>2026-04-06T17:04:04Z</time></trkpt><trkpt lat="43.45251539118555" lon="11.15517084574721"><ele>111.0</ele><time>2026-04-06T17:04:05Z</time></trkpt><trkpt lat="43.45274464282507" lon="11.155329983764819"><ele>111.0</ele><time>2026-04-06T17:04:06Z</time></trkpt><trkpt lat="43.452972578855494" lon="11.155515885542872"><ele>111.0</ele><time>2026-04-06T17:04:07Z</time></trkpt><trkpt lat="43.45319328769805" lon="11.155719919118633"><ele>111.0</ele><time>2026-04-06T17:04:08Z</time></trkpt><trkpt lat="43.45341172205686" lon="11.155937254185234"><ele>111.0</ele><time>2026-04-06T17:04:09Z</time></trkpt><trkpt lat="43.45362528623776" lon="11.156174522439716"><ele>110.5</ele><time>2026-04-06T17:04:10Z</time></trkpt><trkpt lat="43.45383040451821" lon="11.15642514964693"><ele>110.0</ele><time>2026-04-06T17:04:11Z</time></trkpt><trkpt lat="43.45402823964659" lon="11.1566881703921"><ele>110.0</ele><time>2026-04-06T17:04:12Z</time></trkpt><trkpt lat="43.45422464320565" lon="11.156962484290583"><ele>110.0</ele><time>2026-04-06T17:04:13Z</time></trkpt><trkpt lat="43.45442130828522" lon="11.157236227399505"><ele>109.0</ele><time>2026-04-06T17:04:14Z</time></trkpt><trkpt lat="43.454624532246335" lon="11.157516623737795"><ele>108.0</ele><time>2026-04-06T17:04:15Z</time></trkpt><trkpt lat="43.45482981691509" lon="11.15779708771742"><ele>108.0</ele><time>2026-04-06T17:04:16Z</time></trkpt><trkpt lat="43.45503607264465" lon="11.1580805015073"><ele>108.0</ele><time>2026-04-06T17:04:17Z</time></trkpt><trkpt lat="43.45524525318502" lon="11.158366052574962"><ele>108.5</ele><time>2026-04-06T17:04:18Z</time></trkpt><trkpt lat="43.455452919450366" lon="11.15865111988614"><ele>109.0</ele><time>2026-04-06T17:04:19Z</time></trkpt><trkpt lat="43.45566060445185" lon="11.158932142885503"><ele>111.0</ele><time>2026-04-06T17:04:20Z</time></trkpt><trkpt lat="43.45585964872679" lon="11.159204601578864"><ele>113.0</ele><time>2026-04-06T17:04:21Z</time></trkpt><trkpt lat="43.45605016767901" lon="11.159467531535814"><ele>113.0</ele><time>2026-04-06T17:04:22Z</time></trkpt><trkpt lat="43.45624097828231" lon="11.159728644801424"><ele>113.0</ele><time>2026-04-06T17:04:23Z</time></trkpt><trkpt lat="43.4564312752499" lon="11.159986706026114"><ele>111.0</ele><time>2026-04-06T17:04:24Z</time></trkpt><trkpt lat="43.45662149812673" lon="11.160246241140937"><ele>109.0</ele><time>2026-04-06T17:04:25Z</time></trkpt><trkpt lat="43.45680992283881" lon="11.160504733282293"><ele>109.5</ele><time>2026-04-06T17:04:26Z</time></trkpt><trkpt lat="43.45700052097833" lon="11.160764297641066"><ele>110.0</ele><time>2026-04-06T17:04:27Z</time></trkpt><trkpt lat="43.45719047360107" lon="11.161021900050319"><ele>109.5</ele><time>2026-04-06T17:04:28Z</time></trkpt><trkpt lat="43.45738325188879" lon="11.16128370338137"><ele>109.0</ele><time>2026-04-06T17:04:29Z</time></trkpt><trkpt lat="43.457579780429064" lon="11.16155011761398"><ele>109.0</ele><time>2026-04-06T17:04:30Z</time></trkpt><trkpt lat="43.45777622065423" lon="11.161815551497668"><ele>109.0</ele><time>2026-04-06T17:04:31Z</time></trkpt><trkpt lat="43.45797868635769" lon="11.162079175559414"><ele>107.0</ele><time>2026-04-06T17:04:32Z</time></trkpt><trkpt lat="43.458191668125856" lon="11.162322542114568"><ele>105.0</ele><time>2026-04-06T17:04:33Z</time></trkpt><trkpt lat="43.45842140427197" lon="11.162543652701897"><ele>104.5</ele><time>2026-04-06T17:04:34Z</time></trkpt><trkpt lat="43.458665782107126" lon="11.162743123466326"><ele>104.0</ele><time>2026-04-06T17:04:35Z</time></trkpt><trkpt lat="43.45891850376805" lon="11.16291989598051"><ele>106.0</ele><time>2026-04-06T17:04:36Z</time></trkpt><trkpt lat="43.45917981344631" lon="11.163084115307116"><ele>108.0</ele><time>2026-04-06T17:04:37Z</time></trkpt><trkpt lat="43.459445712446275" lon="11.163232555273371"><ele>107.5</ele><time>2026-04-06T17:04:38Z</time></trkpt><trkpt lat="43.45972722152329" lon="11.163357113309997"><ele>107.0</ele><time>2026-04-06T17:04:39Z</time></trkpt><trkpt lat="43.46001743779283" lon="11.163450529755217"><ele>107.0</ele><time>2026-04-06T17:04:40Z</time></trkpt><trkpt lat="43.46031571892103" lon="11.163517633216154"><ele>107.0</ele><time>2026-04-06T17:04:41Z</time></trkpt><trkpt lat="43.46061660361861" lon="11.163558281672932"><ele>108.0</ele><time>2026-04-06T17:04:42Z</time></trkpt><trkpt lat="43.46091330308854" lon="11.1635706395324"><ele>109.0</ele><time>2026-04-06T17:04:43Z</time></trkpt><trkpt lat="43.46120566060652" lon="11.163562333955138"><ele>107.5</ele><time>2026-04-06T17:04:44Z</time></trkpt><trkpt lat="43.46149460291495" lon="11.163532787826503"><ele>106.0</ele><time>2026-04-06T17:04:45Z</time></trkpt><trkpt lat="43.46178033808403" lon="11.163502253109431"><ele>106.0</ele><time>2026-04-06T17:04:46Z</time></trkpt><trkpt lat="43.46205627400372" lon="11.163479661333517"><ele>106.0</ele><time>2026-04-06T17:04:46.999Z</time></trkpt><trkpt lat="43.46231497843009" lon="11.16346124190599"><ele>107.5</ele><time>2026-04-06T17:04:47.999Z</time></trkpt><trkpt lat="43.46258125024442" lon="11.163439827417399"><ele>109.0</ele><time>2026-04-06T17:04:48.999Z</time></trkpt><trkpt lat="43.462844214286534" lon="11.163407620087222"><ele>109.0</ele><time>2026-04-06T17:04:49.999Z</time></trkpt><trkpt lat="43.46310744977871" lon="11.16334424426938"><ele>109.0</ele><time>2026-04-06T17:04:50.999Z</time></trkpt><trkpt lat="43.46336644154549" lon="11.16326680736441"><ele>108.0</ele><time>2026-04-06T17:04:51.999Z</time></trkpt><trkpt lat="43.46362366531045" lon="11.1631783741568"><ele>107.0</ele><time>2026-04-06T17:04:52.999Z</time></trkpt><trkpt lat="43.46387857783607" lon="11.163076530799687"><ele>107.0</ele><time>2026-04-06T17:04:53.999Z</time></trkpt><trkpt lat="43.464129603240146" lon="11.162959827500877"><ele>107.0</ele><time>2026-04-06T17:04:54.999Z</time></trkpt><trkpt lat="43.46438006605635" lon="11.162827426297302"><ele>107.5</ele><time>2026-04-06T17:04:55.999Z</time></trkpt><trkpt lat="43.464628443501326" lon="11.162681869127171"><ele>108.0</ele><time>2026-04-06T17:04:56.999Z</time></trkpt><trkpt lat="43.464872351591" lon="11.162517976336881"><ele>105.5</ele><time>2026-04-06T17:04:57.999Z</time></trkpt><trkpt lat="43.465107967193106" lon="11.162340615066265"><ele>103.0</ele><time>2026-04-06T17:04:58.999Z</time></trkpt><trkpt lat="43.46533967207678" lon="11.162148694742465"><ele>106.0</ele><time>2026-04-06T17:04:59.999Z</time></trkpt><trkpt lat="43.46556728344286" lon="11.161948490276567"><ele>109.0</ele><time>2026-04-06T17:05:00.999Z</time></trkpt><trkpt lat="43.46579203708028" lon="11.161728914090673"><ele>106.5</ele><time>2026-04-06T17:05:01.999Z</time></trkpt><trkpt lat="43.4660069589698" lon="11.161504646520763"><ele>104.0</ele><time>2026-04-06T17:05:02.999Z</time></trkpt><trkpt lat="43.466219514258334" lon="11.161263370804239"><ele>104.5</ele><time>2026-04-06T17:05:03.999Z</time></trkpt><trkpt lat="43.466422412318416" lon="11.160999223280438"><ele>105.0</ele><time>2026-04-06T17:05:04.999Z</time></trkpt><trkpt lat="43.46661742987241" lon="11.160713901845355"><ele>104.0</ele><time>2026-04-06T17:05:05.999Z</time></trkpt><trkpt lat="43.466799500470756" lon="11.16041341692219"><ele>103.0</ele><time>2026-04-06T17:05:06.999Z</time></trkpt><trkpt lat="43.46697731359489" lon="11.160104258509287"><ele>102.0</ele><time>2026-04-06T17:05:07.999Z</time></trkpt><trkpt lat="43.467150336723094" lon="11.159785597888382"><ele>101.0</ele><time>2026-04-06T17:05:08.999Z</time></trkpt><trkpt lat="43.467314301909205" lon="11.159457089029672"><ele>101.0</ele><time>2026-04-06T17:05:09.999Z</time></trkpt><trkpt lat="43.46746772487388" lon="11.159126875933357"><ele>101.0</ele><time>2026-04-06T17:05:10.999Z</time></trkpt><trkpt lat="43.4676081288777" lon="11.158813799497597"><ele>101.0</ele><time>2026-04-06T17:05:11.999Z</time></trkpt><trkpt lat="43.46774498919825" lon="11.158515607808814"><ele>101.0</ele><time>2026-04-06T17:05:12.999Z</time></trkpt><trkpt lat="43.46788237208399" lon="11.158227684116536"><ele>103.0</ele><time>2026-04-06T17:05:13.999Z</time></trkpt><trkpt lat="43.468018594358355" lon="11.157943194573361"><ele>105.0</ele><time>2026-04-06T17:05:14.999Z</time></trkpt><trkpt lat="43.468152065889605" lon="11.157658734548667"><ele>105.0</ele><time>2026-04-06T17:05:15.999Z</time></trkpt><trkpt lat="43.468286550842016" lon="11.157369793818958"><ele>105.0</ele><time>2026-04-06T17:05:16.999Z</time></trkpt><trkpt lat="43.46842160041443" lon="11.157081503981493"><ele>104.0</ele><time>2026-04-06T17:05:17.999Z</time></trkpt><trkpt lat="43.468557358519" lon="11.156795360373982"><ele>103.0</ele><time>2026-04-06T17:05:18.999Z</time></trkpt><trkpt lat="43.468701029312086" lon="11.156511554976477"><ele>103.0</ele><time>2026-04-06T17:05:19.999Z</time></trkpt><trkpt lat="43.4688561448189" lon="11.156236233897001"><ele>103.0</ele><time>2026-04-06T17:05:20.999Z</time></trkpt><trkpt lat="43.46902275379283" lon="11.155973975420505"><ele>103.0</ele><time>2026-04-06T17:05:21.999Z</time></trkpt><trkpt lat="43.46920635154855" lon="11.15571707838843"><ele>103.0</ele><time>2026-04-06T17:05:22.999Z</time></trkpt><trkpt lat="43.46940240494484" lon="11.155464613701106"><ele>103.0</ele><time>2026-04-06T17:05:23.999Z</time></trkpt><trkpt lat="43.46960557903066" lon="11.155219421028084"><ele>103.0</ele><time>2026-04-06T17:05:24.999Z</time></trkpt><trkpt lat="43.46981726570806" lon="11.154981659458455"><ele>103.5</ele><time>2026-04-06T17:05:25.999Z</time></trkpt><trkpt lat="43.47004661275987" lon="11.154746543017701"><ele>104.0</ele><time>2026-04-06T17:05:26.999Z</time></trkpt><trkpt lat="43.470291494451" lon="11.154517477238269"><ele>105.0</ele><time>2026-04-06T17:05:27.999Z</time></trkpt><trkpt lat="43.47054367655105" lon="11.154300908280712"><ele>106.0</ele><time>2026-04-06T17:05:28.999Z</time></trkpt><trkpt lat="43.470806034712325" lon="11.154099225768773"><ele>106.0</ele><time>2026-04-06T17:05:29.999Z</time></trkpt><trkpt lat="43.47107586143486" lon="11.153916909367156"><ele>106.0</ele><time>2026-04-06T17:05:30.999Z</time></trkpt><trkpt lat="43.47135075709454" lon="11.153753664954497"><ele>106.0</ele><time>2026-04-06T17:05:31.999Z</time></trkpt><trkpt lat="43.47162846103489" lon="11.153613431212046"><ele>106.0</ele><time>2026-04-06T17:05:32.999Z</time></trkpt><trkpt lat="43.471906772258514" lon="11.153483170364332"><ele>108.0</ele><time>2026-04-06T17:05:33.999Z</time></trkpt><trkpt lat="43.47218859339564" lon="11.153355421938684"><ele>110.0</ele><time>2026-04-06T17:05:34.999Z</time></trkpt><trkpt lat="43.4724695564005" lon="11.153227668186506"><ele>109.0</ele><time>2026-04-06T17:05:35.999Z</time></trkpt><trkpt lat="43.47274685135213" lon="11.153097353975246"><ele>108.0</ele><time>2026-04-06T17:05:36.999Z</time></trkpt><trkpt lat="43.47302608330222" lon="11.15296486664937"><ele>108.0</ele><time>2026-04-06T17:05:37.999Z</time></trkpt><trkpt lat="43.47330083790913" lon="11.152831444578567"><ele>108.0</ele><time>2026-04-06T17:05:38.999Z</time></trkpt><trkpt lat="43.47356467680957" lon="11.152707530199272"><ele>111.0</ele><time>2026-04-06T17:05:39.999Z</time></trkpt><trkpt lat="43.47381802201494" lon="11.15258370376346"><ele>114.0</ele><time>2026-04-06T17:05:40.999Z</time></trkpt><trkpt lat="43.47405875964987" lon="11.152468179740127"><ele>110.0</ele><time>2026-04-06T17:05:41.999Z</time></trkpt><trkpt lat="43.474295021138005" lon="11.152358176669162"><ele>106.0</ele><time>2026-04-06T17:05:42.999Z</time></trkpt><trkpt lat="43.47452354804912" lon="11.152262454894569"><ele>112.0</ele><time>2026-04-06T17:05:43.999Z</time></trkpt><trkpt lat="43.47474944613584" lon="11.152189218151644"><ele>118.0</ele><time>2026-04-06T17:05:44.999Z</time></trkpt><trkpt lat="43.47497351689022" lon="11.152134559547118"><ele>118.0</ele><time>2026-04-06T17:05:45.999Z</time></trkpt><trkpt lat="43.47520083985886" lon="11.152090458871166"><ele>118.0</ele><time>2026-04-06T17:05:46.999Z</time></trkpt><trkpt lat="43.475427394572634" lon="11.152045283059536"><ele>121.0</ele><time>2026-04-06T17:05:47.999Z</time></trkpt><trkpt lat="43.47565647982173" lon="11.151995792922524"><ele>124.0</ele><time>2026-04-06T17:05:48.999Z</time></trkpt><trkpt lat="43.47588246477765" lon="11.151923137468653"><ele>124.0</ele><time>2026-04-06T17:05:49.999Z</time></trkpt><trkpt lat="43.47610342210902" lon="11.151831042266764"><ele>124.0</ele><time>2026-04-06T17:05:50.999Z</time></trkpt><trkpt lat="43.47631307368511" lon="11.151718733445483"><ele>128.5</ele><time>2026-04-06T17:05:51.999Z</time></trkpt><trkpt lat="43.4765207559151" lon="11.151597180768029"><ele>133.0</ele><time>2026-04-06T17:05:52.999Z</time></trkpt><trkpt lat="43.47672946864935" lon="11.151474059150507"><ele>133.0</ele><time>2026-04-06T17:05:53.999Z</time></trkpt><trkpt lat="43.4769409514487" lon="11.151351264611693"><ele>133.0</ele><time>2026-04-06T17:05:54.999Z</time></trkpt><trkpt lat="43.477158160393415" lon="11.15122961187615"><ele>133.0</ele><time>2026-04-06T17:05:55.999Z</time></trkpt><trkpt lat="43.47737737858522" lon="11.151112154596246"><ele>133.0</ele><time>2026-04-06T17:05:57Z</time></trkpt><trkpt lat="43.47759322440982" lon="11.150991526260176"><ele>133.0</ele><time>2026-04-06T17:05:58Z</time></trkpt><trkpt lat="43.47781588117549" lon="11.15087118260837"><ele>133.0</ele><time>2026-04-06T17:05:59Z</time></trkpt><trkpt lat="43.4780351695178" lon="11.150745598663613"><ele>130.0</ele><time>2026-04-06T17:06:00Z</time></trkpt><trkpt lat="43.47825416865069" lon="11.150622736568465"><ele>127.0</ele><time>2026-04-06T17:06:01Z</time></trkpt><trkpt lat="43.47847538798159" lon="11.150500923171704"><ele>127.0</ele><time>2026-04-06T17:06:02Z</time></trkpt><trkpt lat="43.47869095165644" lon="11.150381538650327"><ele>127.0</ele><time>2026-04-06T17:06:03Z</time></trkpt><trkpt lat="43.47891344280743" lon="11.150261276877123"><ele>123.5</ele><time>2026-04-06T17:06:04Z</time></trkpt><trkpt lat="43.479133909997785" lon="11.150144091690265"><ele>120.0</ele><time>2026-04-06T17:06:05Z</time></trkpt><trkpt lat="43.479355891299825" lon="11.15003506531698"><ele>120.0</ele><time>2026-04-06T17:06:06Z</time></trkpt><trkpt lat="43.479582205646516" lon="11.149954222275676"><ele>120.0</ele><time>2026-04-06T17:06:07Z</time></trkpt><trkpt lat="43.47981019150098" lon="11.149892096783761"><ele>118.5</ele><time>2026-04-06T17:06:08Z</time></trkpt><trkpt lat="43.4800388047342" lon="11.14984759374012"><ele>117.0</ele><time>2026-04-06T17:06:09Z</time></trkpt><trkpt lat="43.48026803208193" lon="11.14982194433937"><ele>122.0</ele><time>2026-04-06T17:06:10Z</time></trkpt><trkpt lat="43.48049914064373" lon="11.149812754976834"><ele>127.0</ele><time>2026-04-06T17:06:11Z</time></trkpt><trkpt lat="43.48073208510268" lon="11.14981586165573"><ele>127.0</ele><time>2026-04-06T17:06:12Z</time></trkpt><trkpt lat="43.48096844200479" lon="11.149844137911204"><ele>127.0</ele><time>2026-04-06T17:06:13Z</time></trkpt><trkpt lat="43.481214254654375" lon="11.14988286601456"><ele>126.5</ele><time>2026-04-06T17:06:14Z</time></trkpt><trkpt lat="43.48145915312178" lon="11.149940224984917"><ele>126.0</ele><time>2026-04-06T17:06:15Z</time></trkpt><trkpt lat="43.48170626391822" lon="11.150019959045524"><ele>126.0</ele><time>2026-04-06T17:06:16Z</time></trkpt><trkpt lat="43.48195083987446" lon="11.150120966551718"><ele>126.0</ele><time>2026-04-06T17:06:17Z</time></trkpt><trkpt lat="43.482196008001644" lon="11.150241088500657"><ele>124.0</ele><time>2026-04-06T17:06:18Z</time></trkpt><trkpt lat="43.48243860787262" lon="11.150380076731631"><ele>122.0</ele><time>2026-04-06T17:06:19Z</time></trkpt><trkpt lat="43.482675391732805" lon="11.150542167394418"><ele>123.5</ele><time>2026-04-06T17:06:20Z</time></trkpt><trkpt lat="43.482906977880575" lon="11.150729718346735"><ele>125.0</ele><time>2026-04-06T17:06:21Z</time></trkpt><trkpt lat="43.4831300196347" lon="11.150936028727683"><ele>122.0</ele><time>2026-04-06T17:06:22Z</time></trkpt><trkpt lat="43.48334493061267" lon="11.151152358076079"><ele>119.0</ele><time>2026-04-06T17:06:23Z</time></trkpt><trkpt lat="43.483560522085156" lon="11.1513709312503"><ele>115.0</ele><time>2026-04-06T17:06:24Z</time></trkpt><trkpt lat="43.48378058621939" lon="11.151589827378288"><ele>111.0</ele><time>2026-04-06T17:06:25Z</time></trkpt><trkpt lat="43.483999401924386" lon="11.15180501976154"><ele>111.0</ele><time>2026-04-06T17:06:26Z</time></trkpt><trkpt lat="43.484209507093034" lon="11.152013697927096"><ele>111.0</ele><time>2026-04-06T17:06:27Z</time></trkpt><trkpt lat="43.4844147831442" lon="11.1522164504323"><ele>110.5</ele><time>2026-04-06T17:06:28Z</time></trkpt><trkpt lat="43.48461894812646" lon="11.152416322337624"><ele>110.0</ele><time>2026-04-06T17:06:29Z</time></trkpt><trkpt lat="43.48482036000767" lon="11.152612869848713"><ele>110.0</ele><time>2026-04-06T17:06:30Z</time></trkpt><trkpt lat="43.485024417697986" lon="11.152813766134024"><ele>110.0</ele><time>2026-04-06T17:06:31Z</time></trkpt><trkpt lat="43.48522477493685" lon="11.15302134864349"><ele>110.5</ele><time>2026-04-06T17:06:32Z</time></trkpt><trkpt lat="43.485418944781536" lon="11.153253410827135"><ele>111.0</ele><time>2026-04-06T17:06:33Z</time></trkpt><trkpt lat="43.485606873645146" lon="11.153511622174026"><ele>112.0</ele><time>2026-04-06T17:06:34Z</time></trkpt><trkpt lat="43.48578888042374" lon="11.153786593198765"><ele>113.0</ele><time>2026-04-06T17:06:35Z</time></trkpt><trkpt lat="43.4859621943341" lon="11.154076969312017"><ele>113.0</ele><time>2026-04-06T17:06:36Z</time></trkpt><trkpt lat="43.48612254723027" lon="11.154388128714492"><ele>113.0</ele><time>2026-04-06T17:06:37Z</time></trkpt><trkpt lat="43.48626956266735" lon="11.15472207180396"><ele>115.0</ele><time>2026-04-06T17:06:38Z</time></trkpt><trkpt lat="43.48640169779044" lon="11.155070082474204"><ele>117.0</ele><time>2026-04-06T17:06:39Z</time></trkpt><trkpt lat="43.48651573343529" lon="11.155437240416154"><ele>118.5</ele><time>2026-04-06T17:06:40Z</time></trkpt><trkpt lat="43.48661399825817" lon="11.155810798426387"><ele>120.0</ele><time>2026-04-06T17:06:41Z</time></trkpt><trkpt lat="43.48669534249497" lon="11.156192165519272"><ele>120.5</ele><time>2026-04-06T17:06:42Z</time></trkpt><trkpt lat="43.48676714472554" lon="11.156593433290768"><ele>121.0</ele><time>2026-04-06T17:06:43Z</time></trkpt><trkpt lat="43.48682243918294" lon="11.15699724916366"><ele>121.0</ele><time>2026-04-06T17:06:44Z</time></trkpt><trkpt lat="43.48687088740024" lon="11.157402661419821"><ele>121.0</ele><time>2026-04-06T17:06:45Z</time></trkpt><trkpt lat="43.48692186542916" lon="11.1578070229043"><ele>120.5</ele><time>2026-04-06T17:06:46Z</time></trkpt><trkpt lat="43.486977131579614" lon="11.158213084829706"><ele>120.0</ele><time>2026-04-06T17:06:47Z</time></trkpt><trkpt lat="43.48703238581761" lon="11.158621647429017"><ele>120.0</ele><time>2026-04-06T17:06:48Z</time></trkpt><trkpt lat="43.48708591224327" lon="11.159027195780011"><ele>120.0</ele><time>2026-04-06T17:06:49Z</time></trkpt><trkpt lat="43.48713943464058" lon="11.159439254894883"><ele>123.0</ele><time>2026-04-06T17:06:49.999Z</time></trkpt><trkpt lat="43.487193490507856" lon="11.159850618779823"><ele>126.0</ele><time>2026-04-06T17:06:50.999Z</time></trkpt><trkpt lat="43.48724776764394" lon="11.160262354628097"><ele>126.0</ele><time>2026-04-06T17:06:51.999Z</time></trkpt><trkpt lat="43.487303345556214" lon="11.16067629211712"><ele>126.0</ele><time>2026-04-06T17:06:52.999Z</time></trkpt><trkpt lat="43.48735812765474" lon="11.161093363674173"><ele>126.5</ele><time>2026-04-06T17:06:53.999Z</time></trkpt><trkpt lat="43.48741296386336" lon="11.161508654691842"><ele>127.0</ele><time>2026-04-06T17:06:54.999Z</time></trkpt><trkpt lat="43.487467011838746" lon="11.161922362094028"><ele>126.0</ele><time>2026-04-06T17:06:55.999Z</time></trkpt><trkpt lat="43.48752021332813" lon="11.162332431961936"><ele>125.0</ele><time>2026-04-06T17:06:56.999Z</time></trkpt><trkpt lat="43.48757424176362" lon="11.162742952449781"><ele>125.0</ele><time>2026-04-06T17:06:57.999Z</time></trkpt><trkpt lat="43.487628061470225" lon="11.163150149332152"><ele>125.0</ele><time>2026-04-06T17:06:58.999Z</time></trkpt><trkpt lat="43.48768131043114" lon="11.163558328348035"><ele>124.5</ele><time>2026-04-06T17:06:59.999Z</time></trkpt><trkpt lat="43.48773378181169" lon="11.163964809005378"><ele>124.0</ele><time>2026-04-06T17:07:00.999Z</time></trkpt><trkpt lat="43.48778802855818" lon="11.164369663912696"><ele>124.0</ele><time>2026-04-06T17:07:01.999Z</time></trkpt><trkpt lat="43.487840661858485" lon="11.164770805896298"><ele>124.0</ele><time>2026-04-06T17:07:02.999Z</time></trkpt><trkpt lat="43.48789365140469" lon="11.165169500589395"><ele>126.0</ele><time>2026-04-06T17:07:03.999Z</time></trkpt><trkpt lat="43.487945363278264" lon="11.165556613696284"><ele>128.0</ele><time>2026-04-06T17:07:04.999Z</time></trkpt><trkpt lat="43.48800171648872" lon="11.165940487139295"><ele>128.0</ele><time>2026-04-06T17:07:05.999Z</time></trkpt><trkpt lat="43.488064591647195" lon="11.166317484307834"><ele>128.0</ele><time>2026-04-06T17:07:06.999Z</time></trkpt><trkpt lat="43.48813452213672" lon="11.166691969663225"><ele>129.5</ele><time>2026-04-06T17:07:07.999Z</time></trkpt><trkpt lat="43.48820865970765" lon="11.16705941947211"><ele>131.0</ele><time>2026-04-06T17:07:08.999Z</time></trkpt><trkpt lat="43.48829009851495" lon="11.1674237645545"><ele>131.0</ele><time>2026-04-06T17:07:09.999Z</time></trkpt><trkpt lat="43.48837780301212" lon="11.167788205376796"><ele>131.0</ele><time>2026-04-06T17:07:10.999Z</time></trkpt><trkpt lat="43.48846690270348" lon="11.168149217068127"><ele>131.0</ele><time>2026-04-06T17:07:11.999Z</time></trkpt><trkpt lat="43.4885627664688" lon="11.168513571980215"><ele>131.0</ele><time>2026-04-06T17:07:12.999Z</time></trkpt><trkpt lat="43.48866333072871" lon="11.168872091930028"><ele>135.0</ele><time>2026-04-06T17:07:13.999Z</time></trkpt><trkpt lat="43.48877188647881" lon="11.169232510094158"><ele>139.0</ele><time>2026-04-06T17:07:14.999Z</time></trkpt><trkpt lat="43.48888574167299" lon="11.169586848832903"><ele>138.5</ele><time>2026-04-06T17:07:15.999Z</time></trkpt><trkpt lat="43.48900675700511" lon="11.169937453453601"><ele>138.0</ele><time>2026-04-06T17:07:16.999Z</time></trkpt><trkpt lat="43.48913442928097" lon="11.17028788246175"><ele>138.0</ele><time>2026-04-06T17:07:17.999Z</time></trkpt><trkpt lat="43.489265956563806" lon="11.170637458754799"><ele>138.0</ele><time>2026-04-06T17:07:18.999Z</time></trkpt><trkpt lat="43.489402424880105" lon="11.170988973250827"><ele>137.5</ele><time>2026-04-06T17:07:19.999Z</time></trkpt><trkpt lat="43.48954823359466" lon="11.171338017228527"><ele>137.0</ele><time>2026-04-06T17:07:20.999Z</time></trkpt><trkpt lat="43.48969992415569" lon="11.17168843235302"><ele>137.5</ele><time>2026-04-06T17:07:21.999Z</time></trkpt><trkpt lat="43.489858972599556" lon="11.172032480451527"><ele>138.0</ele><time>2026-04-06T17:07:22.999Z</time></trkpt><trkpt lat="43.49002497314449" lon="11.172375038753119"><ele>138.0</ele><time>2026-04-06T17:07:23.999Z</time></trkpt><trkpt lat="43.49019530466782" lon="11.172710837611218"><ele>138.0</ele><time>2026-04-06T17:07:24.999Z</time></trkpt><trkpt lat="43.49036908086689" lon="11.173047057032251"><ele>139.5</ele><time>2026-04-06T17:07:25.999Z</time></trkpt><trkpt lat="43.49054058618024" lon="11.173373996867138"><ele>141.0</ele><time>2026-04-06T17:07:26.999Z</time></trkpt><trkpt lat="43.490715623096875" lon="11.17370668727561"><ele>141.5</ele><time>2026-04-06T17:07:27.999Z</time></trkpt><trkpt lat="43.490886208939074" lon="11.174037056742549"><ele>142.0</ele><time>2026-04-06T17:07:28.999Z</time></trkpt><trkpt lat="43.49105305832174" lon="11.174364042435021"><ele>142.0</ele><time>2026-04-06T17:07:29.999Z</time></trkpt><trkpt lat="43.49121790619991" lon="11.174691629496646"><ele>142.0</ele><time>2026-04-06T17:07:30.999Z</time></trkpt><trkpt lat="43.4913843135669" lon="11.175015273341176"><ele>145.5</ele><time>2026-04-06T17:07:31.999Z</time></trkpt><trkpt lat="43.49154798293142" lon="11.175331386205228"><ele>149.0</ele><time>2026-04-06T17:07:32.999Z</time></trkpt><trkpt lat="43.49171284828781" lon="11.175649407673761"><ele>149.0</ele><time>2026-04-06T17:07:33.999Z</time></trkpt><trkpt lat="43.49187824317605" lon="11.175965595127066"><ele>149.0</ele><time>2026-04-06T17:07:34.999Z</time></trkpt><trkpt lat="43.49204181867336" lon="11.176277637849802"><ele>153.5</ele><time>2026-04-06T17:07:35.999Z</time></trkpt><trkpt lat="43.49221208357422" lon="11.176590441854685"><ele>158.0</ele><time>2026-04-06T17:07:36.999Z</time></trkpt><trkpt lat="43.49239560407706" lon="11.176899502350544"><ele>158.0</ele><time>2026-04-06T17:07:37.999Z</time></trkpt><trkpt lat="43.492602373497085" lon="11.177196882836743"><ele>158.0</ele><time>2026-04-06T17:07:38.999Z</time></trkpt><trkpt lat="43.49283004371136" lon="11.177475970186263"><ele>156.5</ele><time>2026-04-06T17:07:39.999Z</time></trkpt><trkpt lat="43.49307101209825" lon="11.177744115724767"><ele>155.0</ele><time>2026-04-06T17:07:40.999Z</time></trkpt><trkpt lat="43.49332575154232" lon="11.177994411115261"><ele>155.0</ele><time>2026-04-06T17:07:41.999Z</time></trkpt><trkpt lat="43.49359769103289" lon="11.178227186811029"><ele>155.0</ele><time>2026-04-06T17:07:42.999Z</time></trkpt><trkpt lat="43.49388168685716" lon="11.178443797163423"><ele>155.0</ele><time>2026-04-06T17:07:43.999Z</time></trkpt><trkpt lat="43.494178113429875" lon="11.178631562286194"><ele>155.0</ele><time>2026-04-06T17:07:44.999Z</time></trkpt><trkpt lat="43.494483833646875" lon="11.178798254654394"><ele>157.5</ele><time>2026-04-06T17:07:45.999Z</time></trkpt><trkpt lat="43.49479336735274" lon="11.178957793311467"><ele>160.0</ele><time>2026-04-06T17:07:46.999Z</time></trkpt><trkpt lat="43.49509830799544" lon="11.179115953271381"><ele>161.0</ele><time>2026-04-06T17:07:47.999Z</time></trkpt><trkpt lat="43.49539686320925" lon="11.179283631414856"><ele>162.0</ele><time>2026-04-06T17:07:48.999Z</time></trkpt><trkpt lat="43.49568292671841" lon="11.179465054250954"><ele>162.0</ele><time>2026-04-06T17:07:49.999Z</time></trkpt><trkpt lat="43.49595581692926" lon="11.179662336537486"><ele>162.0</ele><time>2026-04-06T17:07:50.999Z</time></trkpt><trkpt lat="43.49622605507958" lon="11.179875861430173"><ele>164.5</ele><time>2026-04-06T17:07:51.999Z</time></trkpt><trkpt lat="43.496487867247424" lon="11.180098927515948"><ele>167.0</ele><time>2026-04-06T17:07:52.999Z</time></trkpt><trkpt lat="43.496741966564734" lon="11.180332480004102"><ele>167.0</ele><time>2026-04-06T17:07:53.999Z</time></trkpt><trkpt lat="43.49698506357679" lon="11.18057607271972"><ele>167.0</ele><time>2026-04-06T17:07:54.999Z</time></trkpt><trkpt lat="43.49721790788217" lon="11.18082866336434"><ele>168.0</ele><time>2026-04-06T17:07:55.999Z</time></trkpt><trkpt lat="43.497445902540356" lon="11.181089389319853"><ele>169.0</ele><time>2026-04-06T17:07:56.999Z</time></trkpt><trkpt lat="43.497663415452315" lon="11.181364008146883"><ele>172.5</ele><time>2026-04-06T17:07:57.999Z</time></trkpt><trkpt lat="43.49787416019255" lon="11.18164889678797"><ele>176.0</ele><time>2026-04-06T17:07:58.999Z</time></trkpt><trkpt lat="43.49807631744671" lon="11.181946253667135"><ele>176.0</ele><time>2026-04-06T17:07:59.999Z</time></trkpt><trkpt lat="43.498269869366766" lon="11.18225094224897"><ele>176.0</ele><time>2026-04-06T17:08:00.999Z</time></trkpt><trkpt lat="43.49845735607422" lon="11.18256294252439"><ele>177.0</ele><time>2026-04-06T17:08:02Z</time></trkpt><trkpt lat="43.49863096571884" lon="11.182880627815848"><ele>178.0</ele><time>2026-04-06T17:08:03Z</time></trkpt><trkpt lat="43.49879478210339" lon="11.183200718403342"><ele>178.0</ele><time>2026-04-06T17:08:04Z</time></trkpt><trkpt lat="43.49896029857717" lon="11.183523535650698"><ele>178.0</ele><time>2026-04-06T17:08:05Z</time></trkpt><trkpt lat="43.499124478539095" lon="11.183842192460514"><ele>182.0</ele><time>2026-04-06T17:08:06Z</time></trkpt><trkpt lat="43.49928775175309" lon="11.184160558900858"><ele>186.0</ele><time>2026-04-06T17:08:07Z</time></trkpt><trkpt lat="43.49945025765999" lon="11.184474172834998"><ele>184.5</ele><time>2026-04-06T17:08:08Z</time></trkpt><trkpt lat="43.49961259594937" lon="11.184785098848412"><ele>183.0</ele><time>2026-04-06T17:08:09Z</time></trkpt><trkpt lat="43.49977454357284" lon="11.185095492170339"><ele>182.5</ele><time>2026-04-06T17:08:10Z</time></trkpt><trkpt lat="43.49993802968057" lon="11.185399581664171"><ele>182.0</ele><time>2026-04-06T17:08:11Z</time></trkpt><trkpt lat="43.50011304906469" lon="11.185691513209903"><ele>182.5</ele><time>2026-04-06T17:08:12Z</time></trkpt><trkpt lat="43.50029782090452" lon="11.18596554681668"><ele>183.0</ele><time>2026-04-06T17:08:13Z</time></trkpt><trkpt lat="43.50049501159593" lon="11.186209865732783"><ele>183.0</ele><time>2026-04-06T17:08:14Z</time></trkpt><trkpt lat="43.500695744884645" lon="11.186429475462791"><ele>183.0</ele><time>2026-04-06T17:08:15Z</time></trkpt><trkpt lat="43.50090093249573" lon="11.186637752073189"><ele>183.0</ele><time>2026-04-06T17:08:16Z</time></trkpt><trkpt lat="43.50111219098992" lon="11.186825012641277"><ele>183.0</ele><time>2026-04-06T17:08:17Z</time></trkpt><trkpt lat="43.50133562824123" lon="11.187001053692219"><ele>183.0</ele><time>2026-04-06T17:08:18Z</time></trkpt><trkpt lat="43.5015656511277" lon="11.187160950583012"><ele>183.0</ele><time>2026-04-06T17:08:19Z</time></trkpt><trkpt lat="43.50181053861368" lon="11.187306225031481"><ele>188.5</ele><time>2026-04-06T17:08:20Z</time></trkpt><trkpt lat="43.502060257398654" lon="11.187434855404199"><ele>194.0</ele><time>2026-04-06T17:08:21Z</time></trkpt><trkpt lat="43.50231389781832" lon="11.187553721968875"><ele>194.0</ele><time>2026-04-06T17:08:22Z</time></trkpt><trkpt lat="43.502569394284606" lon="11.187666016162797"><ele>194.0</ele><time>2026-04-06T17:08:23Z</time></trkpt><trkpt lat="43.502826542339974" lon="11.187780883721146"><ele>192.5</ele><time>2026-04-06T17:08:24Z</time></trkpt><trkpt lat="43.503083091503505" lon="11.187902241463265"><ele>191.0</ele><time>2026-04-06T17:08:25Z</time></trkpt><trkpt lat="43.503338112271535" lon="11.18802468290972"><ele>191.0</ele><time>2026-04-06T17:08:26Z</time></trkpt><trkpt lat="43.503591291005" lon="11.188145056783128"><ele>191.0</ele><time>2026-04-06T17:08:27Z</time></trkpt><trkpt lat="43.50384042549921" lon="11.188261437232084"><ele>194.0</ele><time>2026-04-06T17:08:28Z</time></trkpt><trkpt lat="43.504088315379555" lon="11.188378323565466"><ele>197.0</ele><time>2026-04-06T17:08:29Z</time></trkpt><trkpt lat="43.50433501298172" lon="11.188494748990472"><ele>197.0</ele><time>2026-04-06T17:08:30Z</time></trkpt><trkpt lat="43.504578375516" lon="11.188608795606259"><ele>197.0</ele><time>2026-04-06T17:08:31Z</time></trkpt><trkpt lat="43.50481756886352" lon="11.188718100605492"><ele>195.5</ele><time>2026-04-06T17:08:32Z</time></trkpt><trkpt lat="43.50505780124095" lon="11.188828516984087"><ele>194.0</ele><time>2026-04-06T17:08:33Z</time></trkpt><trkpt lat="43.505296717468276" lon="11.188938931944367"><ele>200.5</ele><time>2026-04-06T17:08:34Z</time></trkpt><trkpt lat="43.505543064374535" lon="11.189048420702248"><ele>207.0</ele><time>2026-04-06T17:08:35Z</time></trkpt><trkpt lat="43.50579998959881" lon="11.189150367630077"><ele>207.0</ele><time>2026-04-06T17:08:36Z</time></trkpt><trkpt lat="43.506067400732825" lon="11.189238641949201"><ele>207.0</ele><time>2026-04-06T17:08:37Z</time></trkpt><trkpt lat="43.50633639416213" lon="11.189319170734013"><ele>205.5</ele><time>2026-04-06T17:08:38Z</time></trkpt><trkpt lat="43.50660370299908" lon="11.189396050992526"><ele>204.0</ele><time>2026-04-06T17:08:39Z</time></trkpt><trkpt lat="43.506871225045096" lon="11.189472844961683"><ele>204.5</ele><time>2026-04-06T17:08:40Z</time></trkpt><trkpt lat="43.5071406152749" lon="11.189552209878483"><ele>205.0</ele><time>2026-04-06T17:08:41Z</time></trkpt><trkpt lat="43.50740800973797" lon="11.18963363027714"><ele>205.0</ele><time>2026-04-06T17:08:42Z</time></trkpt><trkpt lat="43.50767279310143" lon="11.189714366442853"><ele>205.0</ele><time>2026-04-06T17:08:43Z</time></trkpt><trkpt lat="43.50793466589285" lon="11.189791846758142"><ele>209.0</ele><time>2026-04-06T17:08:44Z</time></trkpt><trkpt lat="43.50819641620414" lon="11.189867732334344"><ele>213.0</ele><time>2026-04-06T17:08:45Z</time></trkpt><trkpt lat="43.508453724067685" lon="11.189944458895956"><ele>213.0</ele><time>2026-04-06T17:08:46Z</time></trkpt><trkpt lat="43.50870664079339" lon="11.190023368985015"><ele>213.0</ele><time>2026-04-06T17:08:47Z</time></trkpt><trkpt lat="43.50895805680636" lon="11.190101883511021"><ele>213.0</ele><time>2026-04-06T17:08:48Z</time></trkpt><trkpt lat="43.50920739679354" lon="11.190184247027391"><ele>213.0</ele><time>2026-04-06T17:08:49Z</time></trkpt><trkpt lat="43.50945611944132" lon="11.190279253687471"><ele>211.0</ele><time>2026-04-06T17:08:50Z</time></trkpt><trkpt lat="43.509712916407054" lon="11.190389001753774"><ele>209.0</ele><time>2026-04-06T17:08:51Z</time></trkpt><trkpt lat="43.50997091406411" lon="11.19051326571321"><ele>209.0</ele><time>2026-04-06T17:08:52Z</time></trkpt><trkpt lat="43.51022501022549" lon="11.19065121360258"><ele>209.0</ele><time>2026-04-06T17:08:53Z</time></trkpt><trkpt lat="43.51047639036029" lon="11.19080512574309"><ele>212.5</ele><time>2026-04-06T17:08:54Z</time></trkpt><trkpt lat="43.51071920200161" lon="11.19097169080369"><ele>216.0</ele><time>2026-04-06T17:08:55Z</time></trkpt><trkpt lat="43.5109544285815" lon="11.191150792684931"><ele>216.0</ele><time>2026-04-06T17:08:56Z</time></trkpt><trkpt lat="43.51117989039547" lon="11.191342129986172"><ele>216.0</ele><time>2026-04-06T17:08:57Z</time></trkpt><trkpt lat="43.51140083612044" lon="11.191541647527915"><ele>220.0</ele><time>2026-04-06T17:08:57.999Z</time></trkpt><trkpt lat="43.51161838493963" lon="11.19174724941605"><ele>224.0</ele><time>2026-04-06T17:08:58.999Z</time></trkpt><trkpt lat="43.51184059379593" lon="11.19195763748892"><ele>224.0</ele><time>2026-04-06T17:08:59.999Z</time></trkpt><trkpt lat="43.51206118684269" lon="11.192168388157556"><ele>224.0</ele><time>2026-04-06T17:09:00.999Z</time></trkpt><trkpt lat="43.51228522001651" lon="11.192407252096286"><ele>226.0</ele><time>2026-04-06T17:09:01.999Z</time></trkpt><trkpt lat="43.51249551868023" lon="11.192665513763918"><ele>228.0</ele><time>2026-04-06T17:09:02.999Z</time></trkpt><trkpt lat="43.512687354914966" lon="11.192942381255028"><ele>228.0</ele><time>2026-04-06T17:09:03.999Z</time></trkpt><trkpt lat="43.51286915841543" lon="11.19324014447858"><ele>228.0</ele><time>2026-04-06T17:09:04.999Z</time></trkpt><trkpt lat="43.513038696376135" lon="11.193558980344662"><ele>228.0</ele><time>2026-04-06T17:09:05.999Z</time></trkpt><trkpt lat="43.51318735402764" lon="11.193901164289661"><ele>228.0</ele><time>2026-04-06T17:09:06.999Z</time></trkpt><trkpt lat="43.51332677643164" lon="11.194243993757139"><ele>233.0</ele><time>2026-04-06T17:09:07.999Z</time></trkpt><trkpt lat="43.51346702583799" lon="11.194583808498628"><ele>238.0</ele><time>2026-04-06T17:09:08.999Z</time></trkpt><trkpt lat="43.513617022920904" lon="11.194908578560138"><ele>237.5</ele><time>2026-04-06T17:09:09.999Z</time></trkpt><trkpt lat="43.51378368688091" lon="11.195214765240454"><ele>237.0</ele><time>2026-04-06T17:09:10.999Z</time></trkpt><trkpt lat="43.5139755735332" lon="11.19549114622901"><ele>239.5</ele><time>2026-04-06T17:09:11.999Z</time></trkpt><trkpt lat="43.51417743469046" lon="11.195740019120883"><ele>242.0</ele><time>2026-04-06T17:09:12.999Z</time></trkpt><trkpt lat="43.51438839876765" lon="11.195974403904444"><ele>235.0</ele><time>2026-04-06T17:09:13.999Z</time></trkpt><trkpt lat="43.5146073829186" lon="11.196185477127585"><ele>228.0</ele><time>2026-04-06T17:09:14.999Z</time></trkpt><trkpt lat="43.51483509328232" lon="11.19636924039651"><ele>229.5</ele><time>2026-04-06T17:09:15.999Z</time></trkpt><trkpt lat="43.51507335959896" lon="11.196535050716792"><ele>231.0</ele><time>2026-04-06T17:09:16.999Z</time></trkpt><trkpt lat="43.51531868798512" lon="11.196687670689238"><ele>232.5</ele><time>2026-04-06T17:09:17.999Z</time></trkpt><trkpt lat="43.515567226061776" lon="11.196816734003145"><ele>234.0</ele><time>2026-04-06T17:09:18.999Z</time></trkpt><trkpt lat="43.51582540292193" lon="11.196917011003636"><ele>234.0</ele><time>2026-04-06T17:09:19.999Z</time></trkpt><trkpt lat="43.51609084174697" lon="11.196983953298275"><ele>234.0</ele><time>2026-04-06T17:09:20.999Z</time></trkpt><trkpt lat="43.516363210988125" lon="11.19702510102656"><ele>240.0</ele><time>2026-04-06T17:09:21.999Z</time></trkpt><trkpt lat="43.51664030281976" lon="11.197047703743182"><ele>246.0</ele><time>2026-04-06T17:09:22.999Z</time></trkpt><trkpt lat="43.51692581266821" lon="11.197065927769984"><ele>249.5</ele><time>2026-04-06T17:09:23.999Z</time></trkpt><trkpt lat="43.517211212940595" lon="11.197074317629985"><ele>253.0</ele><time>2026-04-06T17:09:24.999Z</time></trkpt><trkpt lat="43.51749473314881" lon="11.197080253742946"><ele>253.0</ele><time>2026-04-06T17:09:25.999Z</time></trkpt><trkpt lat="43.517765620884255" lon="11.197085990012706"><ele>253.0</ele><time>2026-04-06T17:09:26.999Z</time></trkpt><trkpt lat="43.5180133223079" lon="11.197094181303937"><ele>253.66666666666666</ele><time>2026-04-06T17:09:27.999Z</time></trkpt><trkpt lat="43.51823834202187" lon="11.19710542856644"><ele>254.33333333333331</ele><time>2026-04-06T17:09:28.999Z</time></trkpt><trkpt lat="43.51845207017116" lon="11.197118256335656"><ele>255.0</ele><time>2026-04-06T17:09:29.999Z</time></trkpt><trkpt lat="43.5186489600312" lon="11.19713693268045"><ele>255.33333333333331</ele><time>2026-04-06T17:09:30.999Z</time></trkpt><trkpt lat="43.518836491128326" lon="11.19716218561042"><ele>255.66666666666666</ele><time>2026-04-06T17:09:31.999Z</time></trkpt><trkpt lat="43.51901804028608" lon="11.197193352131109"><ele>256.0</ele><time>2026-04-06T17:09:32.999Z</time></trkpt><trkpt lat="43.51918746112125" lon="11.197230825824397"><ele>256.0</ele><time>2026-04-06T17:09:33.999Z</time></trkpt><trkpt lat="43.51934630625946" lon="11.197273415047773"><ele>256.0</ele><time>2026-04-06T17:09:34.999Z</time></trkpt><trkpt lat="43.51948852511552" lon="11.197314997167023"><ele>256.0</ele><time>2026-04-06T17:09:35.999Z</time></trkpt><trkpt lat="43.519623638514" lon="11.197358797925032"><ele>256.0</ele><time>2026-04-06T17:09:36.999Z</time></trkpt><trkpt lat="43.519751866580876" lon="11.197406272237924"><ele>258.75</ele><time>2026-04-06T17:09:37.999Z</time></trkpt><trkpt lat="43.51988398162456" lon="11.19745780408172"><ele>261.5</ele><time>2026-04-06T17:09:38.999Z</time></trkpt><trkpt lat="43.52002140945613" lon="11.197517509114205"><ele>264.25</ele><time>2026-04-06T17:09:39.999Z</time></trkpt><trkpt lat="43.52015939062647" lon="11.197584477033852"><ele>267.0</ele><time>2026-04-06T17:09:40.999Z</time></trkpt><trkpt lat="43.520289319615635" lon="11.197657246612062"><ele>266.0</ele><time>2026-04-06T17:09:41.999Z</time></trkpt><trkpt lat="43.52040639123108" lon="11.197725559116618"><ele>265.0</ele><time>2026-04-06T17:09:42.999Z</time></trkpt><trkpt lat="43.52051078090212" lon="11.197785595573745"><ele>264.0</ele><time>2026-04-06T17:09:43.999Z</time></trkpt><trkpt lat="43.52060532147719" lon="11.197837762549533"><ele>263.0</ele><time>2026-04-06T17:09:44.999Z</time></trkpt><trkpt lat="43.52069420235894" lon="11.19788882759854"><ele>262.0</ele><time>2026-04-06T17:09:45.999Z</time></trkpt><trkpt lat="43.52077924743627" lon="11.197940067422309"><ele>262.0</ele><time>2026-04-06T17:09:46.999Z</time></trkpt><trkpt lat="43.52085794053171" lon="11.197985284948192"><ele>262.0</ele><time>2026-04-06T17:09:47.999Z</time></trkpt><trkpt lat="43.520933047866095" lon="11.19803077008458"><ele>262.0</ele><time>2026-04-06T17:09:48.999Z</time></trkpt><trkpt lat="43.521005110123006" lon="11.198081976219017"><ele>262.0</ele><time>2026-04-06T17:09:49.999Z</time></trkpt><trkpt lat="43.52107847289981" lon="11.198136748425668"><ele>262.0</ele><time>2026-04-06T17:09:50.999Z</time></trkpt><trkpt lat="43.52114864107414" lon="11.198178742759715"><ele>262.0</ele><time>2026-04-06T17:09:51.999Z</time></trkpt><trkpt lat="43.521212665604786" lon="11.198214134471927"><ele>263.5</ele><time>2026-04-06T17:09:52.999Z</time></trkpt><trkpt lat="43.52127369514292" lon="11.19824549517323"><ele>265.0</ele><time>2026-04-06T17:09:53.999Z</time></trkpt><trkpt lat="43.52133806847824" lon="11.198278541208717"><ele>266.5</ele><time>2026-04-06T17:09:54.999Z</time></trkpt><trkpt lat="43.5214102146215" lon="11.19831812212807"><ele>268.0</ele><time>2026-04-06T17:09:55.999Z</time></trkpt><trkpt lat="43.521481907591436" lon="11.19835757687288"><ele>269.5</ele><time>2026-04-06T17:09:56.999Z</time></trkpt><trkpt lat="43.52154221619779" lon="11.198390087001302"><ele>271.0</ele><time>2026-04-06T17:09:57.999Z</time></trkpt><trkpt lat="43.52164114729306" lon="11.198440158115277"><ele>271.0</ele><time>2026-04-06T17:09:59.999Z</time></trkpt><trkpt lat="43.52175901576504" lon="11.198504768437758"><ele>271.0</ele><time>2026-04-06T17:10:01.999Z</time></trkpt><trkpt lat="43.52185598555433" lon="11.198552653732994"><ele>271.0</ele><time>2026-04-06T17:10:03.999Z</time></trkpt><trkpt lat="43.521953320351535" lon="11.198560163002453"><ele>271.0</ele><time>2026-04-06T17:10:08Z</time></trkpt><trkpt lat="43.522014728647825" lon="11.198592019953043"><ele>271.0</ele><time>2026-04-06T17:10:09Z</time></trkpt><trkpt lat="43.52210846777793" lon="11.198650293933502"><ele>270.40000000000003</ele><time>2026-04-06T17:10:11Z</time></trkpt><trkpt lat="43.52218636250777" lon="11.198688551142787"><ele>269.8</ele><time>2026-04-06T17:10:13Z</time></trkpt><trkpt lat="43.52226617776947" lon="11.198732518007379"><ele>269.20000000000005</ele><time>2026-04-06T17:10:16Z</time></trkpt><trkpt lat="43.522363819854135" lon="11.198782740435076"><ele>268.6</ele><time>2026-04-06T17:10:18Z</time></trkpt><trkpt lat="43.52246032060727" lon="11.198847551083576"><ele>268.0</ele><time>2026-04-06T17:10:20Z</time></trkpt><trkpt lat="43.52255913649751" lon="11.198893685172377"><ele>268.0</ele><time>2026-04-06T17:10:22Z</time></trkpt><trkpt lat="43.52267062240125" lon="11.198936237569894"><ele>268.0</ele><time>2026-04-06T17:10:24Z</time></trkpt><trkpt lat="43.52276300667055" lon="11.199007955288897"><ele>268.0</ele><time>2026-04-06T17:10:26Z</time></trkpt><trkpt lat="43.522842108869156" lon="11.199061939778527"><ele>268.0</ele><time>2026-04-06T17:10:28Z</time></trkpt><trkpt lat="43.522929901692834" lon="11.199129666777978"><ele>268.0</ele><time>2026-04-06T17:10:30Z</time></trkpt><trkpt lat="43.52304140284053" lon="11.199210595118684"><ele>268.66666666666663</ele><time>2026-04-06T17:10:32Z</time></trkpt><trkpt lat="43.52310876269289" lon="11.199262651283489"><ele>269.3333333333333</ele><time>2026-04-06T17:10:33Z</time></trkpt><trkpt lat="43.523165344235274" lon="11.199303066429911"><ele>270.0</ele><time>2026-04-06T17:10:34Z</time></trkpt><trkpt lat="43.52325307955027" lon="11.199365296356342"><ele>270.6666666666667</ele><time>2026-04-06T17:10:36Z</time></trkpt><trkpt lat="43.52335950712467" lon="11.199438554000656"><ele>271.33333333333337</ele><time>2026-04-06T17:10:38Z</time></trkpt><trkpt lat="43.5234324150956" lon="11.199488617611692"><ele>272.0</ele><time>2026-04-06T17:10:39Z</time></trkpt><trkpt lat="43.52350715113709" lon="11.199544904662195"><ele>272.0</ele><time>2026-04-06T17:10:40Z</time></trkpt><trkpt lat="43.5235758420698" lon="11.199599581304959"><ele>272.0</ele><time>2026-04-06T17:10:41Z</time></trkpt><trkpt lat="43.5236345668166" lon="11.199646768860637"><ele>272.0</ele><time>2026-04-06T17:10:42Z</time></trkpt><trkpt lat="43.5237281622209" lon="11.199730620369115"><ele>272.0</ele><time>2026-04-06T17:10:44Z</time></trkpt><trkpt lat="43.52378565237885" lon="11.19978727110323"><ele>272.0</ele><time>2026-04-06T17:10:45Z</time></trkpt><trkpt lat="43.523855739212905" lon="11.199853949359717"><ele>272.0</ele><time>2026-04-06T17:10:46Z</time></trkpt><trkpt lat="43.52393954393115" lon="11.199911267235759"><ele>273.2</ele><time>2026-04-06T17:10:47Z</time></trkpt><trkpt lat="43.52401586069576" lon="11.199967984905816"><ele>274.4</ele><time>2026-04-06T17:10:48Z</time></trkpt><trkpt lat="43.5240753928205" lon="11.200029672589896"><ele>275.6</ele><time>2026-04-06T17:10:49Z</time></trkpt><trkpt lat="43.5241515977202" lon="11.200115871060056"><ele>276.8</ele><time>2026-04-06T17:10:51Z</time></trkpt><trkpt lat="43.524224196726735" lon="11.200182627648136"><ele>278.0</ele><time>2026-04-06T17:10:54Z</time></trkpt><trkpt lat="43.52431552372821" lon="11.200266822343544"><ele>278.0</ele><time>2026-04-06T17:10:56Z</time></trkpt><trkpt lat="43.52437084174629" lon="11.200322156468987"><ele>278.0</ele><time>2026-04-06T17:10:57Z</time></trkpt><trkpt lat="43.52442531376589" lon="11.200381834802476"><ele>278.0</ele><time>2026-04-06T17:10:58Z</time></trkpt><trkpt lat="43.524481454257945" lon="11.200436921035182"><ele>278.0</ele><time>2026-04-06T17:10:59Z</time></trkpt><trkpt lat="43.52453781535486" lon="11.2004935403992"><ele>278.0</ele><time>2026-04-06T17:11:00Z</time></trkpt><trkpt lat="43.524593903692676" lon="11.200568689234867"><ele>278.0</ele><time>2026-04-06T17:11:01Z</time></trkpt><trkpt lat="43.524641779968306" lon="11.200648797903163"><ele>278.0</ele><time>2026-04-06T17:11:02Z</time></trkpt><trkpt lat="43.524685198409884" lon="11.200720241079303"><ele>278.6666666666667</ele><time>2026-04-06T17:11:03Z</time></trkpt><trkpt lat="43.52473435490049" lon="11.200776577210599"><ele>279.33333333333337</ele><time>2026-04-06T17:11:04Z</time></trkpt><trkpt lat="43.524793678288816" lon="11.200842129346432"><ele>280.0</ele><time>2026-04-06T17:11:05Z</time></trkpt><trkpt lat="43.52485934866248" lon="11.200913878138584"><ele>280.6666666666667</ele><time>2026-04-06T17:11:06Z</time></trkpt><trkpt lat="43.52492251201642" lon="11.200991082092768"><ele>281.3333333333333</ele><time>2026-04-06T17:11:07Z</time></trkpt><trkpt lat="43.52498231588479" lon="11.201066318076455"><ele>282.0</ele><time>2026-04-06T17:11:08Z</time></trkpt><trkpt lat="43.52506799486232" lon="11.201174613451746"><ele>282.0</ele><time>2026-04-06T17:11:09.999Z</time></trkpt><trkpt lat="43.525131931950334" lon="11.201258567115056"><ele>282.0</ele><time>2026-04-06T17:11:11.999Z</time></trkpt><trkpt lat="43.52520270500669" lon="11.201350732575898"><ele>282.0</ele><time>2026-04-06T17:11:13.999Z</time></trkpt><trkpt lat="43.52525684741767" lon="11.20142238517473"><ele>282.0</ele><time>2026-04-06T17:11:15.999Z</time></trkpt><trkpt lat="43.52532848932581" lon="11.201520474382702"><ele>282.0</ele><time>2026-04-06T17:11:17.999Z</time></trkpt><trkpt lat="43.5253845979061" lon="11.20159777776281"><ele>282.0</ele><time>2026-04-06T17:11:18.999Z</time></trkpt><trkpt lat="43.52545623977454" lon="11.201692212139605"><ele>283.5</ele><time>2026-04-06T17:11:19.999Z</time></trkpt><trkpt lat="43.52551028974048" lon="11.20177024539772"><ele>285.0</ele><time>2026-04-06T17:11:20.999Z</time></trkpt><trkpt lat="43.52555512780393" lon="11.20183708539493"><ele>286.5</ele><time>2026-04-06T17:11:21.999Z</time></trkpt><trkpt lat="43.52559948188562" lon="11.201906211734258"><ele>288.0</ele><time>2026-04-06T17:11:22.999Z</time></trkpt><trkpt lat="43.525648632150094" lon="11.20198014411186"><ele>289.5</ele><time>2026-04-06T17:11:23.999Z</time></trkpt><trkpt lat="43.525707844837264" lon="11.202065651110933"><ele>291.0</ele><time>2026-04-06T17:11:24.999Z</time></trkpt><trkpt lat="43.525766641036434" lon="11.202160933514888"><ele>291.0</ele><time>2026-04-06T17:11:25.999Z</time></trkpt><trkpt lat="43.52582833055141" lon="11.20226053396182"><ele>291.0</ele><time>2026-04-06T17:11:26.999Z</time></trkpt><trkpt lat="43.52588480104647" lon="11.202353727873481"><ele>291.0</ele><time>2026-04-06T17:11:27.999Z</time></trkpt><trkpt lat="43.52594213040066" lon="11.202447102758828"><ele>291.0</ele><time>2026-04-06T17:11:28.999Z</time></trkpt><trkpt lat="43.52599987486017" lon="11.202545595326049"><ele>291.0</ele><time>2026-04-06T17:11:29.999Z</time></trkpt><trkpt lat="43.526057616798674" lon="11.202646729831613"><ele>290.8</ele><time>2026-04-06T17:11:30.999Z</time></trkpt><trkpt lat="43.52611419309534" lon="11.202746634909174"><ele>290.6</ele><time>2026-04-06T17:11:31.999Z</time></trkpt><trkpt lat="43.52617146722631" lon="11.202850692984594"><ele>290.4</ele><time>2026-04-06T17:11:32.999Z</time></trkpt><trkpt lat="43.526227077537925" lon="11.202953980098668"><ele>290.2</ele><time>2026-04-06T17:11:33.999Z</time></trkpt><trkpt lat="43.52628028127928" lon="11.203053430741601"><ele>290.0</ele><time>2026-04-06T17:11:34.999Z</time></trkpt><trkpt lat="43.526334609880514" lon="11.203158283476123"><ele>289.83333333333337</ele><time>2026-04-06T17:11:35.999Z</time></trkpt><trkpt lat="43.52638663552422" lon="11.203262925240844"><ele>289.6666666666667</ele><time>2026-04-06T17:11:36.999Z</time></trkpt><trkpt lat="43.52643673312349" lon="11.203365230434828"><ele>289.5</ele><time>2026-04-06T17:11:37.999Z</time></trkpt><trkpt lat="43.52648052316579" lon="11.203456476087775"><ele>289.3333333333333</ele><time>2026-04-06T17:11:38.999Z</time></trkpt><trkpt lat="43.52652216751151" lon="11.203541090913504"><ele>289.16666666666663</ele><time>2026-04-06T17:11:39.999Z</time></trkpt><trkpt lat="43.52656498533226" lon="11.203629910367587"><ele>289.0</ele><time>2026-04-06T17:11:40.999Z</time></trkpt><trkpt lat="43.526610859462906" lon="11.203713219992498"><ele>289.0</ele><time>2026-04-06T17:11:41.999Z</time></trkpt><trkpt lat="43.526646386975855" lon="11.20381310655983"><ele>289.0</ele><time>2026-04-06T17:11:42.999Z</time></trkpt><trkpt lat="43.52667975421849" lon="11.203888115496525"><ele>289.0</ele><time>2026-04-06T17:11:43.999Z</time></trkpt><trkpt lat="43.5267307506221" lon="11.204001705901037"><ele>289.0</ele><time>2026-04-06T17:11:45.999Z</time></trkpt><trkpt lat="43.52676856013368" lon="11.204097154496417"><ele>289.0</ele><time>2026-04-06T17:11:47.999Z</time></trkpt><trkpt lat="43.52681684650824" lon="11.204207226769295"><ele>289.0</ele><time>2026-04-06T17:11:49.999Z</time></trkpt><trkpt lat="43.52685063223506" lon="11.204284941261673"><ele>289.59999999999997</ele><time>2026-04-06T17:11:50.999Z</time></trkpt><trkpt lat="43.52688757412042" lon="11.204377167414888"><ele>290.2</ele><time>2026-04-06T17:11:51.999Z</time></trkpt><trkpt lat="43.526931448515946" lon="11.204477733263808"><ele>290.79999999999995</ele><time>2026-04-06T17:11:52.999Z</time></trkpt><trkpt lat="43.52697404947274" lon="11.204580873572622"><ele>291.4</ele><time>2026-04-06T17:11:53.999Z</time></trkpt><trkpt lat="43.527027804982986" lon="11.204703294141346"><ele>292.0</ele><time>2026-04-06T17:11:54.999Z</time></trkpt><trkpt lat="43.52708750367645" lon="11.204822811156227"><ele>290.25</ele><time>2026-04-06T17:11:55.999Z</time></trkpt><trkpt lat="43.52715134623607" lon="11.20495225478522"><ele>288.5</ele><time>2026-04-06T17:11:56.999Z</time></trkpt><trkpt lat="43.52722204838341" lon="11.205104636532525"><ele>286.75</ele><time>2026-04-06T17:11:57.999Z</time></trkpt><trkpt lat="43.527294161923" lon="11.205264214766418"><ele>285.0</ele><time>2026-04-06T17:11:58.999Z</time></trkpt><trkpt lat="43.5273606936002" lon="11.2054269340092"><ele>285.0</ele><time>2026-04-06T17:11:59.999Z</time></trkpt><trkpt lat="43.52742986686001" lon="11.20559548702863"><ele>285.0</ele><time>2026-04-06T17:12:00.999Z</time></trkpt><trkpt lat="43.527505127069" lon="11.205774873271055"><ele>285.0</ele><time>2026-04-06T17:12:01.999Z</time></trkpt><trkpt lat="43.52758440532788" lon="11.205954490003847"><ele>285.0</ele><time>2026-04-06T17:12:02.999Z</time></trkpt><trkpt lat="43.527657175070225" lon="11.206119729028018"><ele>287.25</ele><time>2026-04-06T17:12:03.999Z</time></trkpt><trkpt lat="43.52772598094227" lon="11.206278943940674"><ele>289.5</ele><time>2026-04-06T17:12:04.999Z</time></trkpt><trkpt lat="43.52779462239313" lon="11.206435310981535"><ele>291.75</ele><time>2026-04-06T17:12:05.999Z</time></trkpt><trkpt lat="43.527858933276406" lon="11.20658303303024"><ele>294.0</ele><time>2026-04-06T17:12:06.999Z</time></trkpt><trkpt lat="43.52791652984694" lon="11.206718474600057"><ele>294.0</ele><time>2026-04-06T17:12:07.999Z</time></trkpt><trkpt lat="43.52796896742891" lon="11.206844137382156"><ele>294.0</ele><time>2026-04-06T17:12:08.999Z</time></trkpt><trkpt lat="43.528017371494094" lon="11.206959205697803"><ele>294.0</ele><time>2026-04-06T17:12:09.999Z</time></trkpt><trkpt lat="43.5280631126278" lon="11.207066246224645"><ele>294.0</ele><time>2026-04-06T17:12:10.999Z</time></trkpt><trkpt lat="43.52810648054993" lon="11.207159703849939"><ele>294.0</ele><time>2026-04-06T17:12:11.999Z</time></trkpt><trkpt lat="43.52814763363772" lon="11.20724735233026"><ele>294.0</ele><time>2026-04-06T17:12:12.999Z</time></trkpt><trkpt lat="43.52818969991377" lon="11.20733975443095"><ele>293.4</ele><time>2026-04-06T17:12:14Z</time></trkpt><trkpt lat="43.52823267216401" lon="11.207442586141935"><ele>292.79999999999995</ele><time>2026-04-06T17:12:15Z</time></trkpt><trkpt lat="43.52828111101657" lon="11.207555447845166"><ele>292.20000000000005</ele><time>2026-04-06T17:12:16Z</time></trkpt><trkpt lat="43.52833705985244" lon="11.207682141658319"><ele>291.6</ele><time>2026-04-06T17:12:17Z</time></trkpt><trkpt lat="43.52839895357752" lon="11.207824781339296"><ele>291.0</ele><time>2026-04-06T17:12:18Z</time></trkpt><trkpt lat="43.52847077113362" lon="11.207979531488839"><ele>291.0</ele><time>2026-04-06T17:12:19Z</time></trkpt><trkpt lat="43.528546318765656" lon="11.20813137550288"><ele>291.0</ele><time>2026-04-06T17:12:20Z</time></trkpt><trkpt lat="43.52862411874883" lon="11.208277960070566"><ele>291.0</ele><time>2026-04-06T17:12:21Z</time></trkpt><trkpt lat="43.528710395205195" lon="11.208431704557102"><ele>291.0</ele><time>2026-04-06T17:12:22Z</time></trkpt><trkpt lat="43.528806490567895" lon="11.208591149661046"><ele>292.0</ele><time>2026-04-06T17:12:23Z</time></trkpt><trkpt lat="43.52891311636452" lon="11.208758427909162"><ele>293.0</ele><time>2026-04-06T17:12:24Z</time></trkpt><trkpt lat="43.52902470702669" lon="11.208918271718762"><ele>294.0</ele><time>2026-04-06T17:12:25Z</time></trkpt><trkpt lat="43.52913676292227" lon="11.20907377060322"><ele>294.0</ele><time>2026-04-06T17:12:26Z</time></trkpt><trkpt lat="43.52924570701671" lon="11.209222915389791"><ele>294.0</ele><time>2026-04-06T17:12:27Z</time></trkpt><trkpt lat="43.52935010526398" lon="11.209368731332464"><ele>294.0</ele><time>2026-04-06T17:12:28Z</time></trkpt><trkpt lat="43.52945813470933" lon="11.209522055555672"><ele>292.6666666666667</ele><time>2026-04-06T17:12:29Z</time></trkpt><trkpt lat="43.52956716830099" lon="11.209681487200255"><ele>291.33333333333337</ele><time>2026-04-06T17:12:30Z</time></trkpt><trkpt lat="43.52967479685494" lon="11.209835263524651"><ele>290.0</ele><time>2026-04-06T17:12:31Z</time></trkpt><trkpt lat="43.52978012359616" lon="11.209989226811341"><ele>290.0</ele><time>2026-04-06T17:12:32Z</time></trkpt><trkpt lat="43.529879492260946" lon="11.210146028088317"><ele>290.0</ele><time>2026-04-06T17:12:33Z</time></trkpt><trkpt lat="43.529973416383825" lon="11.21030859460142"><ele>290.0</ele><time>2026-04-06T17:12:34Z</time></trkpt><trkpt lat="43.530064848717494" lon="11.21048156398132"><ele>290.0</ele><time>2026-04-06T17:12:35Z</time></trkpt><trkpt lat="43.53015117012009" lon="11.210652440191174"><ele>290.0</ele><time>2026-04-06T17:12:36Z</time></trkpt><trkpt lat="43.53023517480308" lon="11.210827982616657"><ele>290.0</ele><time>2026-04-06T17:12:37Z</time></trkpt><trkpt lat="43.530317053773814" lon="11.21101479843887"><ele>289.33333333333337</ele><time>2026-04-06T17:12:38Z</time></trkpt><trkpt lat="43.530395972600765" lon="11.211216534349166"><ele>288.6666666666667</ele><time>2026-04-06T17:12:39Z</time></trkpt><trkpt lat="43.53046840187942" lon="11.211425066350044"><ele>288.0</ele><time>2026-04-06T17:12:40Z</time></trkpt><trkpt lat="43.530537292919846" lon="11.211639399284637"><ele>288.0</ele><time>2026-04-06T17:12:41Z</time></trkpt><trkpt lat="43.530603174150535" lon="11.211858605673923"><ele>288.0</ele><time>2026-04-06T17:12:42Z</time></trkpt><trkpt lat="43.530669258159556" lon="11.212089567386007"><ele>288.0</ele><time>2026-04-06T17:12:43Z</time></trkpt><trkpt lat="43.53073729958568" lon="11.212328588277147"><ele>289.3333333333333</ele><time>2026-04-06T17:12:44Z</time></trkpt><trkpt lat="43.530809865147525" lon="11.212579944498263"><ele>290.66666666666663</ele><time>2026-04-06T17:12:45Z</time></trkpt><trkpt lat="43.530881441033664" lon="11.212828171125835"><ele>292.0</ele><time>2026-04-06T17:12:46Z</time></trkpt><trkpt lat="43.53095463804843" lon="11.213077990228127"><ele>292.3333333333333</ele><time>2026-04-06T17:12:47Z</time></trkpt><trkpt lat="43.53102912606581" lon="11.213327133192598"><ele>292.6666666666667</ele><time>2026-04-06T17:12:48Z</time></trkpt><trkpt lat="43.5311075397179" lon="11.213576126847125"><ele>293.0</ele><time>2026-04-06T17:12:49Z</time></trkpt><trkpt lat="43.53119238002228" lon="11.213823181111295"><ele>287.6666666666667</ele><time>2026-04-06T17:12:50Z</time></trkpt><trkpt lat="43.531283512563675" lon="11.21405344436825"><ele>282.3333333333333</ele><time>2026-04-06T17:12:51Z</time></trkpt><trkpt lat="43.5313836875986" lon="11.214272836112388"><ele>277.0</ele><time>2026-04-06T17:12:52Z</time></trkpt><trkpt lat="43.531493241809876" lon="11.214487234036937"><ele>277.0</ele><time>2026-04-06T17:12:53Z</time></trkpt><trkpt lat="43.531605477812576" lon="11.214692196299888"><ele>277.0</ele><time>2026-04-06T17:12:54Z</time></trkpt><trkpt lat="43.53171936547696" lon="11.214886726229459"><ele>277.0</ele><time>2026-04-06T17:12:55Z</time></trkpt><trkpt lat="43.531835389214905" lon="11.215073763348297"><ele>277.66666666666663</ele><time>2026-04-06T17:12:56Z</time></trkpt><trkpt lat="43.531955531944675" lon="11.215261406128613"><ele>278.3333333333333</ele><time>2026-04-06T17:12:57Z</time></trkpt><trkpt lat="43.53207454033485" lon="11.2154431235231"><ele>279.0</ele><time>2026-04-06T17:12:58Z</time></trkpt><trkpt lat="43.53219792310491" lon="11.215630914393756"><ele>285.3333333333333</ele><time>2026-04-06T17:12:59Z</time></trkpt><trkpt lat="43.53232239010601" lon="11.215823583315927"><ele>291.66666666666663</ele><time>2026-04-06T17:13:00Z</time></trkpt><trkpt lat="43.532448986806834" lon="11.216024487275245"><ele>298.0</ele><time>2026-04-06T17:13:01Z</time></trkpt><trkpt lat="43.53257968030116" lon="11.216229802132972"><ele>298.0</ele><time>2026-04-06T17:13:02Z</time></trkpt><trkpt lat="43.53271879055913" lon="11.216444644529714"><ele>298.0</ele><time>2026-04-06T17:13:03Z</time></trkpt><trkpt lat="43.53285836879293" lon="11.216660222853822"><ele>298.0</ele><time>2026-04-06T17:13:04Z</time></trkpt><trkpt lat="43.533000334490524" lon="11.216882163674997"><ele>301.5</ele><time>2026-04-06T17:13:05Z</time></trkpt><trkpt lat="43.53315282559996" lon="11.21712060577147"><ele>305.0</ele><time>2026-04-06T17:13:06Z</time></trkpt><trkpt lat="43.533319108842434" lon="11.217376044903313"><ele>305.0</ele><time>2026-04-06T17:13:07Z</time></trkpt><trkpt lat="43.53349371241151" lon="11.217641696140532"><ele>305.0</ele><time>2026-04-06T17:13:08Z</time></trkpt><trkpt lat="43.53366096987304" lon="11.217900059228459"><ele>307.5</ele><time>2026-04-06T17:13:09Z</time></trkpt><trkpt lat="43.53382983326411" lon="11.218155968115564"><ele>310.0</ele><time>2026-04-06T17:13:10Z</time></trkpt><trkpt lat="43.53400486791741" lon="11.218409647483929"><ele>310.0</ele><time>2026-04-06T17:13:11Z</time></trkpt><trkpt lat="43.53418832847814" lon="11.218653487436912"><ele>310.0</ele><time>2026-04-06T17:13:12Z</time></trkpt><trkpt lat="43.53438655116671" lon="11.218882125984383"><ele>312.5</ele><time>2026-04-06T17:13:13Z</time></trkpt><trkpt lat="43.53460047464719" lon="11.219107006017909"><ele>315.0</ele><time>2026-04-06T17:13:14Z</time></trkpt><trkpt lat="43.53484019427098" lon="11.219330223016232"><ele>315.0</ele><time>2026-04-06T17:13:15Z</time></trkpt><trkpt lat="43.53508970929679" lon="11.219545120118799"><ele>315.0</ele><time>2026-04-06T17:13:16Z</time></trkpt><trkpt lat="43.53535207888432" lon="11.219743981167648"><ele>316.5</ele><time>2026-04-06T17:13:17Z</time></trkpt><trkpt lat="43.53562272504743" lon="11.21992113605123"><ele>318.0</ele><time>2026-04-06T17:13:18Z</time></trkpt><trkpt lat="43.53590019698487" lon="11.220076677502933"><ele>318.0</ele><time>2026-04-06T17:13:19Z</time></trkpt><trkpt lat="43.53617789067051" lon="11.2202105146965"><ele>318.0</ele><time>2026-04-06T17:13:20Z</time></trkpt><trkpt lat="43.53645984168572" lon="11.220328048377546"><ele>320.0</ele><time>2026-04-06T17:13:20.999Z</time></trkpt><trkpt lat="43.53674443564254" lon="11.220425596475065"><ele>322.0</ele><time>2026-04-06T17:13:21.999Z</time></trkpt><trkpt lat="43.53702950434675" lon="11.220496294325889"><ele>320.0</ele><time>2026-04-06T17:13:22.999Z</time></trkpt><trkpt lat="43.53731858088303" lon="11.220542388264374"><ele>318.0</ele><time>2026-04-06T17:13:23.999Z</time></trkpt><trkpt lat="43.53760647767745" lon="11.220561891349625"><ele>315.0</ele><time>2026-04-06T17:13:24.999Z</time></trkpt><trkpt lat="43.53789821188084" lon="11.220564368141984"><ele>312.0</ele><time>2026-04-06T17:13:25.999Z</time></trkpt><trkpt lat="43.53818667380145" lon="11.220551471067122"><ele>312.0</ele><time>2026-04-06T17:13:26.999Z</time></trkpt><trkpt lat="43.53846174911157" lon="11.220520645988302"><ele>312.0</ele><time>2026-04-06T17:13:27.999Z</time></trkpt><trkpt lat="43.538728976650454" lon="11.220466804334773"><ele>311.5</ele><time>2026-04-06T17:13:28.999Z</time></trkpt><trkpt lat="43.538990468874935" lon="11.220394243991908"><ele>311.0</ele><time>2026-04-06T17:13:29.999Z</time></trkpt><trkpt lat="43.53925089991603" lon="11.220303245658732"><ele>311.0</ele><time>2026-04-06T17:13:30.999Z</time></trkpt><trkpt lat="43.53950895208596" lon="11.220197410353677"><ele>311.0</ele><time>2026-04-06T17:13:31.999Z</time></trkpt><trkpt lat="43.53976456444033" lon="11.220073759305487"><ele>310.0</ele><time>2026-04-06T17:13:32.999Z</time></trkpt><trkpt lat="43.540014494268945" lon="11.219933674782153"><ele>309.0</ele><time>2026-04-06T17:13:33.999Z</time></trkpt><trkpt lat="43.54025939084313" lon="11.21977198343831"><ele>309.0</ele><time>2026-04-06T17:13:34.999Z</time></trkpt><trkpt lat="43.540503532531936" lon="11.21959434109442"><ele>309.0</ele><time>2026-04-06T17:13:35.999Z</time></trkpt><trkpt lat="43.5407438784292" lon="11.219405227790265"><ele>309.0</ele><time>2026-04-06T17:13:36.999Z</time></trkpt><trkpt lat="43.54098031275185" lon="11.219188705057633"><ele>309.0</ele><time>2026-04-06T17:13:37.999Z</time></trkpt><trkpt lat="43.541213314626226" lon="11.218949904855434"><ele>306.0</ele><time>2026-04-06T17:13:38.999Z</time></trkpt><trkpt lat="43.541437064751086" lon="11.218683219656066"><ele>303.0</ele><time>2026-04-06T17:13:39.999Z</time></trkpt><trkpt lat="43.54165699529601" lon="11.218392932773375"><ele>303.0</ele><time>2026-04-06T17:13:40.999Z</time></trkpt><trkpt lat="43.541870873105886" lon="11.218085968196942"><ele>303.0</ele><time>2026-04-06T17:13:41.999Z</time></trkpt><trkpt lat="43.54207245514272" lon="11.217767105987406"><ele>303.0</ele><time>2026-04-06T17:13:42.999Z</time></trkpt><trkpt lat="43.54226902047018" lon="11.21743901340065"><ele>303.0</ele><time>2026-04-06T17:13:43.999Z</time></trkpt><trkpt lat="43.54246761247185" lon="11.21711373465309"><ele>299.0</ele><time>2026-04-06T17:13:44.999Z</time></trkpt><trkpt lat="43.54266978091851" lon="11.216791256196789"><ele>295.0</ele><time>2026-04-06T17:13:45.999Z</time></trkpt><trkpt lat="43.54287461478431" lon="11.216468949008037"><ele>293.5</ele><time>2026-04-06T17:13:46.999Z</time></trkpt><trkpt lat="43.543082379968375" lon="11.21614092657904"><ele>292.0</ele><time>2026-04-06T17:13:47.999Z</time></trkpt><trkpt lat="43.54329569294711" lon="11.215801432257008"><ele>290.5</ele><time>2026-04-06T17:13:48.999Z</time></trkpt><trkpt lat="43.54351710023855" lon="11.215454399782386"><ele>289.0</ele><time>2026-04-06T17:13:49.999Z</time></trkpt><trkpt lat="43.5437474052485" lon="11.215100902879742"><ele>292.5</ele><time>2026-04-06T17:13:50.999Z</time></trkpt><trkpt lat="43.543979917727775" lon="11.21474698355109"><ele>296.0</ele><time>2026-04-06T17:13:51.999Z</time></trkpt><trkpt lat="43.54421722080433" lon="11.214407839854179"><ele>296.0</ele><time>2026-04-06T17:13:52.999Z</time></trkpt><trkpt lat="43.544457070145896" lon="11.214072210900913"><ele>296.0</ele><time>2026-04-06T17:13:53.999Z</time></trkpt><trkpt lat="43.54469524999587" lon="11.213751621381896"><ele>296.0</ele><time>2026-04-06T17:13:54.999Z</time></trkpt><trkpt lat="43.544936895505714" lon="11.213433483961396"><ele>296.0</ele><time>2026-04-06T17:13:55.999Z</time></trkpt><trkpt lat="43.54518420644006" lon="11.213126683345683"><ele>295.0</ele><time>2026-04-06T17:13:56.999Z</time></trkpt><trkpt lat="43.54543624508341" lon="11.212825663620755"><ele>294.0</ele><time>2026-04-06T17:13:57.999Z</time></trkpt><trkpt lat="43.54568142074188" lon="11.212541616581584"><ele>291.0</ele><time>2026-04-06T17:13:58.999Z</time></trkpt><trkpt lat="43.54592292744946" lon="11.212265250942908"><ele>288.0</ele><time>2026-04-06T17:13:59.999Z</time></trkpt><trkpt lat="43.54616143010437" lon="11.211994089489572"><ele>291.0</ele><time>2026-04-06T17:14:00.999Z</time></trkpt><trkpt lat="43.54639213785764" lon="11.21173201357574"><ele>294.0</ele><time>2026-04-06T17:14:01.999Z</time></trkpt><trkpt lat="43.54662522597143" lon="11.211482039720044"><ele>294.0</ele><time>2026-04-06T17:14:02.999Z</time></trkpt><trkpt lat="43.54687232252118" lon="11.211256207397344"><ele>294.0</ele><time>2026-04-06T17:14:03.999Z</time></trkpt><trkpt lat="43.54712799598064" lon="11.211048996730426"><ele>301.0</ele><time>2026-04-06T17:14:04.999Z</time></trkpt><trkpt lat="43.547398048677984" lon="11.210866805572357"><ele>308.0</ele><time>2026-04-06T17:14:05.999Z</time></trkpt><trkpt lat="43.54767886591729" lon="11.210709906716453"><ele>305.5</ele><time>2026-04-06T17:14:06.999Z</time></trkpt><trkpt lat="43.547962863034336" lon="11.210571727659602"><ele>303.0</ele><time>2026-04-06T17:14:07.999Z</time></trkpt><trkpt lat="43.54825495555947" lon="11.21046678400897"><ele>303.0</ele><time>2026-04-06T17:14:08.999Z</time></trkpt><trkpt lat="43.548553084280655" lon="11.210387296880151"><ele>303.0</ele><time>2026-04-06T17:14:09.999Z</time></trkpt><trkpt lat="43.54886256386298" lon="11.21033184300982"><ele>307.0</ele><time>2026-04-06T17:14:10.999Z</time></trkpt><trkpt lat="43.549186320672135" lon="11.210305693925458"><ele>311.0</ele><time>2026-04-06T17:14:11.999Z</time></trkpt><trkpt lat="43.54951152333738" lon="11.210301051401094"><ele>310.5</ele><time>2026-04-06T17:14:12.999Z</time></trkpt><trkpt lat="43.549828704077306" lon="11.210302678939517"><ele>310.0</ele><time>2026-04-06T17:14:13.999Z</time></trkpt><trkpt lat="43.55014046351135" lon="11.210301940181322"><ele>305.0</ele><time>2026-04-06T17:14:14.999Z</time></trkpt><trkpt lat="43.55045325017184" lon="11.210296841512331"><ele>300.0</ele><time>2026-04-06T17:14:15.999Z</time></trkpt><trkpt lat="43.5507589932186" lon="11.210288626088088"><ele>300.0</ele><time>2026-04-06T17:14:16.999Z</time></trkpt><trkpt lat="43.55106446098682" lon="11.21028044479098"><ele>300.0</ele><time>2026-04-06T17:14:17.999Z</time></trkpt><trkpt lat="43.55136816432568" lon="11.210274196882922"><ele>303.0</ele><time>2026-04-06T17:14:18.999Z</time></trkpt><trkpt lat="43.55167122479776" lon="11.210269019261418"><ele>306.0</ele><time>2026-04-06T17:14:20Z</time></trkpt><trkpt lat="43.55197228178942" lon="11.21026324562844"><ele>310.0</ele><time>2026-04-06T17:14:21Z</time></trkpt><trkpt lat="43.55227352997448" lon="11.210258214281838"><ele>314.0</ele><time>2026-04-06T17:14:22Z</time></trkpt><trkpt lat="43.55257152249208" lon="11.210249666404366"><ele>314.5</ele><time>2026-04-06T17:14:23Z</time></trkpt><trkpt lat="43.5528785856288" lon="11.21024691695207"><ele>315.0</ele><time>2026-04-06T17:14:24Z</time></trkpt><trkpt lat="43.55317859381286" lon="11.21024228639891"><ele>315.0</ele><time>2026-04-06T17:14:25Z</time></trkpt><trkpt lat="43.55347921810934" lon="11.210238514367864"><ele>315.0</ele><time>2026-04-06T17:14:26Z</time></trkpt><trkpt lat="43.553777223796054" lon="11.210230282597283"><ele>316.5</ele><time>2026-04-06T17:14:27Z</time></trkpt><trkpt lat="43.55406338865314" lon="11.210224417960955"><ele>318.0</ele><time>2026-04-06T17:14:28Z</time></trkpt><trkpt lat="43.55434519470659" lon="11.21022726396474"><ele>315.0</ele><time>2026-04-06T17:14:29Z</time></trkpt><trkpt lat="43.554626701493994" lon="11.210249694825846"><ele>312.0</ele><time>2026-04-06T17:14:30Z</time></trkpt><trkpt lat="43.55491169837393" lon="11.210298696777768"><ele>312.0</ele><time>2026-04-06T17:14:31Z</time></trkpt><trkpt lat="43.555199954182136" lon="11.210380658401528"><ele>312.0</ele><time>2026-04-06T17:14:32Z</time></trkpt><trkpt lat="43.555492460085524" lon="11.21049840005276"><ele>312.5</ele><time>2026-04-06T17:14:33Z</time></trkpt><trkpt lat="43.555783933466486" lon="11.210639434001253"><ele>313.0</ele><time>2026-04-06T17:14:34Z</time></trkpt><trkpt lat="43.556070151887525" lon="11.210807097622734"><ele>305.5</ele><time>2026-04-06T17:14:35Z</time></trkpt><trkpt lat="43.55635087856733" lon="11.21100595124066"><ele>298.0</ele><time>2026-04-06T17:14:36Z</time></trkpt><trkpt lat="43.55661053352085" lon="11.211218897964843"><ele>298.0</ele><time>2026-04-06T17:14:37Z</time></trkpt><trkpt lat="43.55685153085351" lon="11.211432619184405"><ele>298.0</ele><time>2026-04-06T17:14:38Z</time></trkpt><trkpt lat="43.55708428637727" lon="11.21164062495388"><ele>292.5</ele><time>2026-04-06T17:14:39Z</time></trkpt><trkpt lat="43.55731979731932" lon="11.211836368090808"><ele>287.0</ele><time>2026-04-06T17:14:40Z</time></trkpt><trkpt lat="43.5575596405405" lon="11.212021036023057"><ele>287.0</ele><time>2026-04-06T17:14:41Z</time></trkpt><trkpt lat="43.557809884342994" lon="11.212189744432681"><ele>287.0</ele><time>2026-04-06T17:14:42Z</time></trkpt><trkpt lat="43.55807310331353" lon="11.21232939183586"><ele>287.5</ele><time>2026-04-06T17:14:43Z</time></trkpt><trkpt lat="43.55834628769385" lon="11.212445508890335"><ele>288.0</ele><time>2026-04-06T17:14:44Z</time></trkpt><trkpt lat="43.55862799662006" lon="11.212555496102318"><ele>288.0</ele><time>2026-04-06T17:14:45Z</time></trkpt><trkpt lat="43.55891785861184" lon="11.212638179048723"><ele>288.0</ele><time>2026-04-06T17:14:46Z</time></trkpt><trkpt lat="43.55921345427608" lon="11.21268880085411"><ele>288.0</ele><time>2026-04-06T17:14:47Z</time></trkpt><trkpt lat="43.55950809534989" lon="11.212727740341089"><ele>288.0</ele><time>2026-04-06T17:14:48Z</time></trkpt><trkpt lat="43.559791433432636" lon="11.212752701665236"><ele>287.0</ele><time>2026-04-06T17:14:49Z</time></trkpt><trkpt lat="43.5600730420133" lon="11.212787918701947"><ele>286.0</ele><time>2026-04-06T17:14:50Z</time></trkpt><trkpt lat="43.56035492030708" lon="11.212828290811732"><ele>282.0</ele><time>2026-04-06T17:14:51Z</time></trkpt><trkpt lat="43.56063457798864" lon="11.212866314131489"><ele>278.0</ele><time>2026-04-06T17:14:52Z</time></trkpt><trkpt lat="43.56091389558115" lon="11.212903177361053"><ele>278.0</ele><time>2026-04-06T17:14:53Z</time></trkpt><trkpt lat="43.56117622292837" lon="11.212940390532449"><ele>278.0</ele><time>2026-04-06T17:14:54Z</time></trkpt><trkpt lat="43.561432327665564" lon="11.212976118920853"><ele>277.0</ele><time>2026-04-06T17:14:55Z</time></trkpt><trkpt lat="43.56167445844116" lon="11.213009416822635"><ele>276.0</ele><time>2026-04-06T17:14:56Z</time></trkpt><trkpt lat="43.56191981137415" lon="11.213042075004063"><ele>276.0</ele><time>2026-04-06T17:14:57Z</time></trkpt><trkpt lat="43.56216049548355" lon="11.213073902621272"><ele>276.0</ele><time>2026-04-06T17:14:58Z</time></trkpt><trkpt lat="43.56239441684864" lon="11.213104332386212"><ele>276.0</ele><time>2026-04-06T17:14:59Z</time></trkpt><trkpt lat="43.562618032541565" lon="11.213132814452472"><ele>276.0</ele><time>2026-04-06T17:15:00Z</time></trkpt><trkpt lat="43.56283382864099" lon="11.213160816038682"><ele>276.0</ele><time>2026-04-06T17:15:01Z</time></trkpt><trkpt lat="43.56303631691921" lon="11.213186747867766"><ele>270.6666666666667</ele><time>2026-04-06T17:15:02Z</time></trkpt><trkpt lat="43.56323341261229" lon="11.213211811865476"><ele>265.33333333333337</ele><time>2026-04-06T17:15:03Z</time></trkpt><trkpt lat="43.563423802071135" lon="11.213236250023197"><ele>260.0</ele><time>2026-04-06T17:15:04Z</time></trkpt><trkpt lat="43.56360948454249" lon="11.213260983082572"><ele>262.0</ele><time>2026-04-06T17:15:05Z</time></trkpt><trkpt lat="43.56379030342417" lon="11.213284533633791"><ele>264.0</ele><time>2026-04-06T17:15:06Z</time></trkpt><trkpt lat="43.56396883040411" lon="11.213309738397651"><ele>266.0</ele><time>2026-04-06T17:15:07Z</time></trkpt><trkpt lat="43.56415153619782" lon="11.213329732149989"><ele>266.0</ele><time>2026-04-06T17:15:08Z</time></trkpt><trkpt lat="43.564336330087094" lon="11.213343303849815"><ele>266.0</ele><time>2026-04-06T17:15:09Z</time></trkpt><trkpt lat="43.56451442392043" lon="11.213342120205663"><ele>266.0</ele><time>2026-04-06T17:15:10Z</time></trkpt><trkpt lat="43.56468979973879" lon="11.213328158997372"><ele>267.0</ele><time>2026-04-06T17:15:11Z</time></trkpt><trkpt lat="43.56486037449359" lon="11.21330812157229"><ele>268.0</ele><time>2026-04-06T17:15:12Z</time></trkpt><trkpt lat="43.56502857036921" lon="11.213281893814901"><ele>269.0</ele><time>2026-04-06T17:15:13Z</time></trkpt><trkpt lat="43.56519549554349" lon="11.213245816388905"><ele>269.0</ele><time>2026-04-06T17:15:14Z</time></trkpt><trkpt lat="43.565361829371334" lon="11.213199544877732"><ele>269.0</ele><time>2026-04-06T17:15:15Z</time></trkpt><trkpt lat="43.5655247493585" lon="11.213145877428667"><ele>269.0</ele><time>2026-04-06T17:15:16Z</time></trkpt><trkpt lat="43.5656878823988" lon="11.213088258784554"><ele>271.0</ele><time>2026-04-06T17:15:17Z</time></trkpt><trkpt lat="43.5658478387667" lon="11.213020162674828"><ele>273.0</ele><time>2026-04-06T17:15:18Z</time></trkpt><trkpt lat="43.566005267233045" lon="11.212943741868338"><ele>275.0</ele><time>2026-04-06T17:15:19Z</time></trkpt><trkpt lat="43.56615316295089" lon="11.212866102825823"><ele>270.6666666666667</ele><time>2026-04-06T17:15:20Z</time></trkpt><trkpt lat="43.56629685175798" lon="11.212782984789882"><ele>266.3333333333333</ele><time>2026-04-06T17:15:21Z</time></trkpt><trkpt lat="43.56644316675895" lon="11.212687840354903"><ele>262.0</ele><time>2026-04-06T17:15:22Z</time></trkpt><trkpt lat="43.56658212030379" lon="11.212585753805504"><ele>262.0</ele><time>2026-04-06T17:15:23Z</time></trkpt><trkpt lat="43.56672345877647" lon="11.21247309207331"><ele>262.0</ele><time>2026-04-06T17:15:24Z</time></trkpt><trkpt lat="43.56686255711668" lon="11.212354461443523"><ele>262.0</ele><time>2026-04-06T17:15:25Z</time></trkpt><trkpt lat="43.56699314194237" lon="11.212234805709569"><ele>256.5</ele><time>2026-04-06T17:15:26Z</time></trkpt><trkpt lat="43.56710990078866" lon="11.212119888887502"><ele>251.0</ele><time>2026-04-06T17:15:26.999Z</time></trkpt><trkpt lat="43.56721611373092" lon="11.212014724426197"><ele>245.5</ele><time>2026-04-06T17:15:27.999Z</time></trkpt><trkpt lat="43.56731645762326" lon="11.211905922883203"><ele>240.0</ele><time>2026-04-06T17:15:28.999Z</time></trkpt><trkpt lat="43.56741153436252" lon="11.211797866473361"><ele>240.0</ele><time>2026-04-06T17:15:29.999Z</time></trkpt><trkpt lat="43.56750798531431" lon="11.211689908460517"><ele>240.0</ele><time>2026-04-06T17:15:30.999Z</time></trkpt><trkpt lat="43.56760228524369" lon="11.211585093416623"><ele>240.0</ele><time>2026-04-06T17:15:31.999Z</time></trkpt><trkpt lat="43.56769725110584" lon="11.211476406759251"><ele>240.0</ele><time>2026-04-06T17:15:32.999Z</time></trkpt><trkpt lat="43.567803533550126" lon="11.21135725495813"><ele>239.75</ele><time>2026-04-06T17:15:33.999Z</time></trkpt><trkpt lat="43.56791807512562" lon="11.211234635055865"><ele>239.5</ele><time>2026-04-06T17:15:34.999Z</time></trkpt><trkpt lat="43.56803232905803" lon="11.211109550798504"><ele>239.25</ele><time>2026-04-06T17:15:35.999Z</time></trkpt><trkpt lat="43.568151420166934" lon="11.210983846759994"><ele>239.0</ele><time>2026-04-06T17:15:36.999Z</time></trkpt><trkpt lat="43.56827330669806" lon="11.210855678330466"><ele>239.0</ele><time>2026-04-06T17:15:37.999Z</time></trkpt><trkpt lat="43.568406552375336" lon="11.210712274850524"><ele>239.0</ele><time>2026-04-06T17:15:38.999Z</time></trkpt><trkpt lat="43.56854245448178" lon="11.210564118280644"><ele>239.0</ele><time>2026-04-06T17:15:39.999Z</time></trkpt><trkpt lat="43.568680387258105" lon="11.210414811241703"><ele>238.33333333333334</ele><time>2026-04-06T17:15:40.999Z</time></trkpt><trkpt lat="43.56882139404972" lon="11.21025833160056"><ele>237.66666666666669</ele><time>2026-04-06T17:15:41.999Z</time></trkpt><trkpt lat="43.56896042267609" lon="11.210100494359374"><ele>237.0</ele><time>2026-04-06T17:15:42.999Z</time></trkpt><trkpt lat="43.56910603600628" lon="11.20993810845911"><ele>235.0</ele><time>2026-04-06T17:15:43.999Z</time></trkpt><trkpt lat="43.56925749194288" lon="11.209770026527819"><ele>233.0</ele><time>2026-04-06T17:15:44.999Z</time></trkpt><trkpt lat="43.56941868279306" lon="11.209593368310276"><ele>231.0</ele><time>2026-04-06T17:15:45.999Z</time></trkpt><trkpt lat="43.56958913089429" lon="11.209408920278383"><ele>231.0</ele><time>2026-04-06T17:15:46.999Z</time></trkpt><trkpt lat="43.56976114542469" lon="11.209219453118722"><ele>231.0</ele><time>2026-04-06T17:15:47.999Z</time></trkpt><trkpt lat="43.569934805662626" lon="11.209025087979954"><ele>231.0</ele><time>2026-04-06T17:15:48.999Z</time></trkpt><trkpt lat="43.57010313686639" lon="11.20883588267435"><ele>229.5</ele><time>2026-04-06T17:15:49.999Z</time></trkpt><trkpt lat="43.57027825962995" lon="11.208642853628458"><ele>228.0</ele><time>2026-04-06T17:15:50.999Z</time></trkpt><trkpt lat="43.5704556900909" lon="11.20844855250513"><ele>228.0</ele><time>2026-04-06T17:15:51.999Z</time></trkpt><trkpt lat="43.57064122446176" lon="11.208255933441219"><ele>228.0</ele><time>2026-04-06T17:15:52.999Z</time></trkpt><trkpt lat="43.57084276648575" lon="11.208081183589337"><ele>223.5</ele><time>2026-04-06T17:15:53.999Z</time></trkpt><trkpt lat="43.57105266018134" lon="11.207919417791183"><ele>219.0</ele><time>2026-04-06T17:15:54.999Z</time></trkpt><trkpt lat="43.57127303624463" lon="11.207772256387836"><ele>219.0</ele><time>2026-04-06T17:15:55.999Z</time></trkpt><trkpt lat="43.571499671034076" lon="11.20763492143311"><ele>219.0</ele><time>2026-04-06T17:15:56.999Z</time></trkpt><trkpt lat="43.571732908371104" lon="11.207505999978434"><ele>219.0</ele><time>2026-04-06T17:15:57.999Z</time></trkpt><trkpt lat="43.57197493277522" lon="11.207378648954483"><ele>219.0</ele><time>2026-04-06T17:15:58.999Z</time></trkpt><trkpt lat="43.57221205310196" lon="11.207247899306502"><ele>217.0</ele><time>2026-04-06T17:15:59.999Z</time></trkpt><trkpt lat="43.57245273740231" lon="11.207108279151445"><ele>215.0</ele><time>2026-04-06T17:16:00.999Z</time></trkpt><trkpt lat="43.572697113546745" lon="11.206969156437506"><ele>217.0</ele><time>2026-04-06T17:16:01.999Z</time></trkpt><trkpt lat="43.57294451570193" lon="11.206832790592175"><ele>219.0</ele><time>2026-04-06T17:16:02.999Z</time></trkpt><trkpt lat="43.57319453767733" lon="11.206695940171638"><ele>219.0</ele><time>2026-04-06T17:16:03.999Z</time></trkpt><trkpt lat="43.57344656158761" lon="11.20655486276959"><ele>219.0</ele><time>2026-04-06T17:16:04.999Z</time></trkpt><trkpt lat="43.57369980190393" lon="11.206410154004233"><ele>224.5</ele><time>2026-04-06T17:16:05.999Z</time></trkpt><trkpt lat="43.57395496076263" lon="11.20626450328907"><ele>230.0</ele><time>2026-04-06T17:16:06.999Z</time></trkpt><trkpt lat="43.574209532527846" lon="11.206120449013246"><ele>230.0</ele><time>2026-04-06T17:16:07.999Z</time></trkpt><trkpt lat="43.574452363710336" lon="11.205985592359337"><ele>230.0</ele><time>2026-04-06T17:16:08.999Z</time></trkpt><trkpt lat="43.574689839552335" lon="11.205854650585826"><ele>224.0</ele><time>2026-04-06T17:16:09.999Z</time></trkpt><trkpt lat="43.57492385269378" lon="11.205722087660488"><ele>218.0</ele><time>2026-04-06T17:16:10.999Z</time></trkpt><trkpt lat="43.57516018699963" lon="11.205586275514259"><ele>213.5</ele><time>2026-04-06T17:16:11.999Z</time></trkpt><trkpt lat="43.57540247538166" lon="11.205454233672599"><ele>209.0</ele><time>2026-04-06T17:16:12.999Z</time></trkpt><trkpt lat="43.57564719975677" lon="11.205322354501325"><ele>209.0</ele><time>2026-04-06T17:16:13.999Z</time></trkpt><trkpt lat="43.57589791040404" lon="11.205189620080102"><ele>209.0</ele><time>2026-04-06T17:16:14.999Z</time></trkpt><trkpt lat="43.576155550080415" lon="11.205059191543574"><ele>208.5</ele><time>2026-04-06T17:16:15.999Z</time></trkpt><trkpt lat="43.57641910420298" lon="11.20493303651183"><ele>208.0</ele><time>2026-04-06T17:16:16.999Z</time></trkpt><trkpt lat="43.576697236053434" lon="11.204805440897648"><ele>208.0</ele><time>2026-04-06T17:16:17.999Z</time></trkpt><trkpt lat="43.57698024468341" lon="11.204685409301891"><ele>208.0</ele><time>2026-04-06T17:16:18.999Z</time></trkpt><trkpt lat="43.577264283468885" lon="11.204574485977506"><ele>205.0</ele><time>2026-04-06T17:16:19.999Z</time></trkpt><trkpt lat="43.57754827719002" lon="11.204465569814097"><ele>202.0</ele><time>2026-04-06T17:16:20.999Z</time></trkpt><trkpt lat="43.577838395375636" lon="11.204359957019445"><ele>199.0</ele><time>2026-04-06T17:16:21.999Z</time></trkpt><trkpt lat="43.57812941596299" lon="11.204259223891778"><ele>196.0</ele><time>2026-04-06T17:16:22.999Z</time></trkpt><trkpt lat="43.57842591278576" lon="11.204165655849671"><ele>191.5</ele><time>2026-04-06T17:16:23.999Z</time></trkpt><trkpt lat="43.57872283424024" lon="11.204078461855374"><ele>187.0</ele><time>2026-04-06T17:16:24.999Z</time></trkpt><trkpt lat="43.57902235967061" lon="11.20399188753895"><ele>190.5</ele><time>2026-04-06T17:16:26Z</time></trkpt><trkpt lat="43.57931121349511" lon="11.203905522552315"><ele>194.0</ele><time>2026-04-06T17:16:27Z</time></trkpt><trkpt lat="43.579595650039785" lon="11.203819216522913"><ele>194.0</ele><time>2026-04-06T17:16:28Z</time></trkpt><trkpt lat="43.57987710419873" lon="11.203735983435218"><ele>194.0</ele><time>2026-04-06T17:16:29Z</time></trkpt><trkpt lat="43.580158152007215" lon="11.203652999451071"><ele>189.5</ele><time>2026-04-06T17:16:30Z</time></trkpt><trkpt lat="43.58043848520415" lon="11.20356947401847"><ele>185.0</ele><time>2026-04-06T17:16:31Z</time></trkpt><trkpt lat="43.58071781983352" lon="11.203484312240704"><ele>185.0</ele><time>2026-04-06T17:16:32Z</time></trkpt><trkpt lat="43.58099780217223" lon="11.203397321142177"><ele>185.0</ele><time>2026-04-06T17:16:33Z</time></trkpt><trkpt lat="43.58127752749264" lon="11.203312630620042"><ele>184.5</ele><time>2026-04-06T17:16:34Z</time></trkpt><trkpt lat="43.5815561088624" lon="11.203229719475576"><ele>184.0</ele><time>2026-04-06T17:16:35Z</time></trkpt><trkpt lat="43.581818919125475" lon="11.203148630001088"><ele>183.0</ele><time>2026-04-06T17:16:36Z</time></trkpt><trkpt lat="43.58207690665041" lon="11.203068411335202"><ele>182.0</ele><time>2026-04-06T17:16:37Z</time></trkpt><trkpt lat="43.5823390414064" lon="11.20298873198119"><ele>182.0</ele><time>2026-04-06T17:16:38Z</time></trkpt><trkpt lat="43.582609035340795" lon="11.202908622981578"><ele>182.0</ele><time>2026-04-06T17:16:39Z</time></trkpt><trkpt lat="43.5828837899883" lon="11.202826573871137"><ele>179.0</ele><time>2026-04-06T17:16:40Z</time></trkpt><trkpt lat="43.58315363452582" lon="11.202745292327474"><ele>176.0</ele><time>2026-04-06T17:16:41Z</time></trkpt><trkpt lat="43.58343013824149" lon="11.202661303479582"><ele>175.0</ele><time>2026-04-06T17:16:42Z</time></trkpt><trkpt lat="43.583701787190705" lon="11.20257672732058"><ele>174.0</ele><time>2026-04-06T17:16:43Z</time></trkpt><trkpt lat="43.58397798968285" lon="11.2024958609332"><ele>174.0</ele><time>2026-04-06T17:16:44Z</time></trkpt><trkpt lat="43.58425430240923" lon="11.202415157180498"><ele>174.0</ele><time>2026-04-06T17:16:45Z</time></trkpt><trkpt lat="43.58452699386105" lon="11.20233443953627"><ele>174.5</ele><time>2026-04-06T17:16:46Z</time></trkpt><trkpt lat="43.58480225214685" lon="11.202251360512555"><ele>175.0</ele><time>2026-04-06T17:16:47Z</time></trkpt><trkpt lat="43.58507588597978" lon="11.202169704560728"><ele>175.0</ele><time>2026-04-06T17:16:48Z</time></trkpt><trkpt lat="43.58535472224294" lon="11.202084084932004"><ele>175.0</ele><time>2026-04-06T17:16:49Z</time></trkpt><trkpt lat="43.585629183667564" lon="11.202001780191488"><ele>175.0</ele><time>2026-04-06T17:16:50Z</time></trkpt><trkpt lat="43.58589989724201" lon="11.201921234726356"><ele>175.0</ele><time>2026-04-06T17:16:51Z</time></trkpt><trkpt lat="43.586168596281" lon="11.201840957207077"><ele>172.5</ele><time>2026-04-06T17:16:52Z</time></trkpt><trkpt lat="43.586434930108624" lon="11.201759839721198"><ele>170.0</ele><time>2026-04-06T17:16:53Z</time></trkpt><trkpt lat="43.586706143448936" lon="11.201676781038197"><ele>170.0</ele><time>2026-04-06T17:16:54Z</time></trkpt><trkpt lat="43.58697356164261" lon="11.20159190950371"><ele>170.0</ele><time>2026-04-06T17:16:55Z</time></trkpt><trkpt lat="43.58724010044375" lon="11.201508614782245"><ele>169.5</ele><time>2026-04-06T17:16:56Z</time></trkpt><trkpt lat="43.58750430597579" lon="11.201425910747382"><ele>169.0</ele><time>2026-04-06T17:16:57Z</time></trkpt><trkpt lat="43.587762196775614" lon="11.20133678083994"><ele>167.0</ele><time>2026-04-06T17:16:58Z</time></trkpt><trkpt lat="43.58801596522367" lon="11.201236518612811"><ele>165.0</ele><time>2026-04-06T17:16:59Z</time></trkpt><trkpt lat="43.588265628213506" lon="11.201123194261582"><ele>165.0</ele><time>2026-04-06T17:17:00Z</time></trkpt><trkpt lat="43.58851158853041" lon="11.201005951148355"><ele>165.0</ele><time>2026-04-06T17:17:01Z</time></trkpt><trkpt lat="43.5887545364782" lon="11.200886064317865"><ele>165.0</ele><time>2026-04-06T17:17:02Z</time></trkpt><trkpt lat="43.58899765551243" lon="11.20076054830932"><ele>165.0</ele><time>2026-04-06T17:17:03Z</time></trkpt><trkpt lat="43.58923924822125" lon="11.200637280259976"><ele>165.0</ele><time>2026-04-06T17:17:04Z</time></trkpt><trkpt lat="43.58948801093041" lon="11.200514834202611"><ele>165.0</ele><time>2026-04-06T17:17:05Z</time></trkpt><trkpt lat="43.58973219396103" lon="11.200395017733435"><ele>163.0</ele><time>2026-04-06T17:17:06Z</time></trkpt><trkpt lat="43.589979582935754" lon="11.200270458302375"><ele>161.0</ele><time>2026-04-06T17:17:07Z</time></trkpt><trkpt lat="43.59022323722097" lon="11.200147256990865"><ele>160.5</ele><time>2026-04-06T17:17:08Z</time></trkpt><trkpt lat="43.59047207984561" lon="11.200021822300549"><ele>160.0</ele><time>2026-04-06T17:17:09Z</time></trkpt><trkpt lat="43.59071860283585" lon="11.19989884648914"><ele>160.5</ele><time>2026-04-06T17:17:10Z</time></trkpt><trkpt lat="43.59096731615903" lon="11.199772740303697"><ele>161.0</ele><time>2026-04-06T17:17:11Z</time></trkpt><trkpt lat="43.59121570136269" lon="11.199649714304737"><ele>161.0</ele><time>2026-04-06T17:17:12Z</time></trkpt><trkpt lat="43.591466410473224" lon="11.199527619372464"><ele>161.0</ele><time>2026-04-06T17:17:13Z</time></trkpt><trkpt lat="43.59171864291249" lon="11.199403247592022"><ele>161.0</ele><time>2026-04-06T17:17:14Z</time></trkpt><trkpt lat="43.591971962957295" lon="11.199276932915359"><ele>161.0</ele><time>2026-04-06T17:17:15Z</time></trkpt><trkpt lat="43.592226385263686" lon="11.1991486967518"><ele>161.0</ele><time>2026-04-06T17:17:16Z</time></trkpt><trkpt lat="43.592474576535324" lon="11.199019998475439"><ele>161.0</ele><time>2026-04-06T17:17:17Z</time></trkpt><trkpt lat="43.59272501736777" lon="11.198877167950926"><ele>162.0</ele><time>2026-04-06T17:17:18Z</time></trkpt><trkpt lat="43.59296813147899" lon="11.198725235707188"><ele>163.0</ele><time>2026-04-06T17:17:19Z</time></trkpt><trkpt lat="43.593190490048364" lon="11.1985687348588"><ele>163.0</ele><time>2026-04-06T17:17:20Z</time></trkpt><trkpt lat="43.59339179013819" lon="11.198412309716268"><ele>163.0</ele><time>2026-04-06T17:17:21Z</time></trkpt><trkpt lat="43.59359933000834" lon="11.19825079894991"><ele>162.66666666666669</ele><time>2026-04-06T17:17:22Z</time></trkpt><trkpt lat="43.59378650875344" lon="11.198093846285923"><ele>162.33333333333334</ele><time>2026-04-06T17:17:23Z</time></trkpt><trkpt lat="43.593968877782736" lon="11.197935666006646"><ele>162.0</ele><time>2026-04-06T17:17:24Z</time></trkpt><trkpt lat="43.594138192618274" lon="11.197779562499285"><ele>162.0</ele><time>2026-04-06T17:17:25Z</time></trkpt><trkpt lat="43.59430086245241" lon="11.19762455057603"><ele>162.0</ele><time>2026-04-06T17:17:26Z</time></trkpt><trkpt lat="43.59445661757891" lon="11.19747817785148"><ele>162.0</ele><time>2026-04-06T17:17:27Z</time></trkpt><trkpt lat="43.594618546618406" lon="11.197328362819054"><ele>161.33333333333334</ele><time>2026-04-06T17:17:28Z</time></trkpt><trkpt lat="43.59478029487261" lon="11.197178851038034"><ele>160.66666666666669</ele><time>2026-04-06T17:17:29Z</time></trkpt><trkpt lat="43.59494715034518" lon="11.19702513684572"><ele>160.0</ele><time>2026-04-06T17:17:30Z</time></trkpt><trkpt lat="43.59511876700755" lon="11.196868516486806"><ele>160.0</ele><time>2026-04-06T17:17:31Z</time></trkpt><trkpt lat="43.595295100096905" lon="11.196706505573074"><ele>160.0</ele><time>2026-04-06T17:17:32Z</time></trkpt><trkpt lat="43.5954826994138" lon="11.196534075962745"><ele>160.0</ele><time>2026-04-06T17:17:33Z</time></trkpt><trkpt lat="43.595678608753126" lon="11.196353585870218"><ele>160.5</ele><time>2026-04-06T17:17:34Z</time></trkpt><trkpt lat="43.59588396614474" lon="11.196165015975904"><ele>161.0</ele><time>2026-04-06T17:17:34.999Z</time></trkpt><trkpt lat="43.59609236093807" lon="11.195974566197831"><ele>162.0</ele><time>2026-04-06T17:17:35.999Z</time></trkpt><trkpt lat="43.59630016251737" lon="11.195783554880968"><ele>163.0</ele><time>2026-04-06T17:17:36.999Z</time></trkpt><trkpt lat="43.596506796491376" lon="11.195590170139937"><ele>163.0</ele><time>2026-04-06T17:17:37.999Z</time></trkpt><trkpt lat="43.59671415036574" lon="11.195400371984745"><ele>163.0</ele><time>2026-04-06T17:17:38.999Z</time></trkpt><trkpt lat="43.59692289003051" lon="11.195209615343302"><ele>159.0</ele><time>2026-04-06T17:17:39.999Z</time></trkpt><trkpt lat="43.59713075484062" lon="11.195023276699803"><ele>155.0</ele><time>2026-04-06T17:17:40.999Z</time></trkpt><trkpt lat="43.59733239156317" lon="11.194852708265314"><ele>156.5</ele><time>2026-04-06T17:17:41.999Z</time></trkpt><trkpt lat="43.597532187060864" lon="11.194695179176188"><ele>158.0</ele><time>2026-04-06T17:17:42.999Z</time></trkpt><trkpt lat="43.5977374596407" lon="11.194551195154583"><ele>155.5</ele><time>2026-04-06T17:17:43.999Z</time></trkpt><trkpt lat="43.597953354151144" lon="11.194411582688954"><ele>153.0</ele><time>2026-04-06T17:17:44.999Z</time></trkpt><trkpt lat="43.59817688414066" lon="11.194273690506705"><ele>153.0</ele><time>2026-04-06T17:17:45.999Z</time></trkpt><trkpt lat="43.598404855688244" lon="11.194136889336269"><ele>153.0</ele><time>2026-04-06T17:17:46.999Z</time></trkpt><trkpt lat="43.59864284014603" lon="11.19400177557594"><ele>152.0</ele><time>2026-04-06T17:17:47.999Z</time></trkpt><trkpt lat="43.59888630020858" lon="11.193878767832858"><ele>151.0</ele><time>2026-04-06T17:17:48.999Z</time></trkpt><trkpt lat="43.59912935556514" lon="11.193766985627295"><ele>151.0</ele><time>2026-04-06T17:17:49.999Z</time></trkpt><trkpt lat="43.599362424252746" lon="11.19366608647086"><ele>151.0</ele><time>2026-04-06T17:17:50.999Z</time></trkpt><trkpt lat="43.59958885477569" lon="11.19357093902642"><ele>151.5</ele><time>2026-04-06T17:17:51.999Z</time></trkpt><trkpt lat="43.599807250868665" lon="11.193481033102671"><ele>152.0</ele><time>2026-04-06T17:17:52.999Z</time></trkpt><trkpt lat="43.600021828055816" lon="11.19339691969633"><ele>152.0</ele><time>2026-04-06T17:17:53.999Z</time></trkpt><trkpt lat="43.600238971830606" lon="11.193309755802431"><ele>152.0</ele><time>2026-04-06T17:17:54.999Z</time></trkpt><trkpt lat="43.60045845818774" lon="11.193220937930409"><ele>152.0</ele><time>2026-04-06T17:17:55.999Z</time></trkpt><trkpt lat="43.600680647134524" lon="11.193131690407533"><ele>152.0</ele><time>2026-04-06T17:17:56.999Z</time></trkpt><trkpt lat="43.600904576781524" lon="11.193042046242837"><ele>152.0</ele><time>2026-04-06T17:17:57.999Z</time></trkpt><trkpt lat="43.60113367602832" lon="11.192954721672503"><ele>152.0</ele><time>2026-04-06T17:17:58.999Z</time></trkpt><trkpt lat="43.601367072355295" lon="11.19287352056696"><ele>151.5</ele><time>2026-04-06T17:17:59.999Z</time></trkpt><trkpt lat="43.60160571424135" lon="11.19278911889404"><ele>151.0</ele><time>2026-04-06T17:18:00.999Z</time></trkpt><trkpt lat="43.60184613788127" lon="11.192696222659524"><ele>150.0</ele><time>2026-04-06T17:18:01.999Z</time></trkpt><trkpt lat="43.60208170686366" lon="11.192596485460776"><ele>149.0</ele><time>2026-04-06T17:18:02.999Z</time></trkpt><trkpt lat="43.60231733457063" lon="11.192497070157726"><ele>149.0</ele><time>2026-04-06T17:18:03.999Z</time></trkpt><trkpt lat="43.602550507965404" lon="11.192400839230404"><ele>149.0</ele><time>2026-04-06T17:18:04.999Z</time></trkpt><trkpt lat="43.60278612044367" lon="11.192308488520107"><ele>150.0</ele><time>2026-04-06T17:18:05.999Z</time></trkpt><trkpt lat="43.60302182222871" lon="11.192216032263799"><ele>151.0</ele><time>2026-04-06T17:18:06.999Z</time></trkpt><trkpt lat="43.60326087423202" lon="11.19212098674232"><ele>151.0</ele><time>2026-04-06T17:18:07.999Z</time></trkpt><trkpt lat="43.60351181543542" lon="11.192023401261578"><ele>151.0</ele><time>2026-04-06T17:18:08.999Z</time></trkpt><trkpt lat="43.603770822558" lon="11.191921432220814"><ele>151.0</ele><time>2026-04-06T17:18:09.999Z</time></trkpt><trkpt lat="43.6040324265029" lon="11.191817374921953"><ele>151.0</ele><time>2026-04-06T17:18:10.999Z</time></trkpt><trkpt lat="43.604296699239676" lon="11.191725697641616"><ele>151.0</ele><time>2026-04-06T17:18:11.999Z</time></trkpt><trkpt lat="43.60456245150643" lon="11.191650968574058"><ele>151.0</ele><time>2026-04-06T17:18:12.999Z</time></trkpt><trkpt lat="43.604830274499925" lon="11.191588038770423"><ele>151.0</ele><time>2026-04-06T17:18:13.999Z</time></trkpt><trkpt lat="43.60510460885138" lon="11.191530199798008"><ele>151.0</ele><time>2026-04-06T17:18:14.999Z</time></trkpt><trkpt lat="43.60537891586877" lon="11.191479342687792"><ele>149.0</ele><time>2026-04-06T17:18:15.999Z</time></trkpt><trkpt lat="43.60565426325867" lon="11.191440025573648"><ele>147.0</ele><time>2026-04-06T17:18:16.999Z</time></trkpt><trkpt lat="43.60592713945328" lon="11.191407367630253"><ele>146.5</ele><time>2026-04-06T17:18:17.999Z</time></trkpt><trkpt lat="43.60619729320215" lon="11.19137725387831"><ele>146.0</ele><time>2026-04-06T17:18:18.999Z</time></trkpt><trkpt lat="43.60646441965304" lon="11.19134740753653"><ele>146.0</ele><time>2026-04-06T17:18:19.999Z</time></trkpt><trkpt lat="43.60672555138838" lon="11.191320597089637"><ele>146.0</ele><time>2026-04-06T17:18:20.999Z</time></trkpt><trkpt lat="43.60698426343108" lon="11.191292619393913"><ele>145.5</ele><time>2026-04-06T17:18:21.999Z</time></trkpt><trkpt lat="43.60724062327736" lon="11.191260698046902"><ele>145.0</ele><time>2026-04-06T17:18:22.999Z</time></trkpt><trkpt lat="43.607497919956" lon="11.191229141557141"><ele>145.0</ele><time>2026-04-06T17:18:23.999Z</time></trkpt><trkpt lat="43.607757286290415" lon="11.191198021580904"><ele>145.0</ele><time>2026-04-06T17:18:24.999Z</time></trkpt><trkpt lat="43.60801284259161" lon="11.191167358295463"><ele>146.0</ele><time>2026-04-06T17:18:25.999Z</time></trkpt><trkpt lat="43.60827184253586" lon="11.191135978155742"><ele>147.0</ele><time>2026-04-06T17:18:26.999Z</time></trkpt><trkpt lat="43.60853158325633" lon="11.191107845799328"><ele>147.0</ele><time>2026-04-06T17:18:27.999Z</time></trkpt><trkpt lat="43.60879497557394" lon="11.191081515918725"><ele>147.0</ele><time>2026-04-06T17:18:28.999Z</time></trkpt><trkpt lat="43.60905958149894" lon="11.191055355787773"><ele>147.0</ele><time>2026-04-06T17:18:29.999Z</time></trkpt><trkpt lat="43.60932699131675" lon="11.191023002653242"><ele>147.0</ele><time>2026-04-06T17:18:30.999Z</time></trkpt><trkpt lat="43.609593799453904" lon="11.19098969436741"><ele>145.5</ele><time>2026-04-06T17:18:32Z</time></trkpt><trkpt lat="43.60986180394958" lon="11.190957981793131"><ele>144.0</ele><time>2026-04-06T17:18:33Z</time></trkpt><trkpt lat="43.61012838243978" lon="11.190927365961343"><ele>143.5</ele><time>2026-04-06T17:18:34Z</time></trkpt><trkpt lat="43.61039104456446" lon="11.190898015697567"><ele>143.0</ele><time>2026-04-06T17:18:35Z</time></trkpt><trkpt lat="43.61065050492675" lon="11.19086732504918"><ele>143.0</ele><time>2026-04-06T17:18:36Z</time></trkpt><trkpt lat="43.61090523170318" lon="11.190835671515533"><ele>143.0</ele><time>2026-04-06T17:18:37Z</time></trkpt><trkpt lat="43.61116260319311" lon="11.190803816652942"><ele>143.5</ele><time>2026-04-06T17:18:38Z</time></trkpt><trkpt lat="43.61141309586225" lon="11.190772036717709"><ele>144.0</ele><time>2026-04-06T17:18:39Z</time></trkpt><trkpt lat="43.6116655569556" lon="11.190737398519895"><ele>144.0</ele><time>2026-04-06T17:18:40Z</time></trkpt><trkpt lat="43.61192139736871" lon="11.190693188035706"><ele>144.0</ele><time>2026-04-06T17:18:41Z</time></trkpt><trkpt lat="43.612173367664205" lon="11.190636212433242"><ele>143.5</ele><time>2026-04-06T17:18:42Z</time></trkpt><trkpt lat="43.61242499870716" lon="11.19056465532365"><ele>143.0</ele><time>2026-04-06T17:18:43Z</time></trkpt><trkpt lat="43.612675989191146" lon="11.190482533282529"><ele>143.5</ele><time>2026-04-06T17:18:44Z</time></trkpt><trkpt lat="43.6129268935259" lon="11.190391653456773"><ele>144.0</ele><time>2026-04-06T17:18:45Z</time></trkpt><trkpt lat="43.6131765623398" lon="11.190291838616504"><ele>144.0</ele><time>2026-04-06T17:18:46Z</time></trkpt><trkpt lat="43.6134232396163" lon="11.19018489777226"><ele>144.0</ele><time>2026-04-06T17:18:47Z</time></trkpt><trkpt lat="43.613664826898365" lon="11.190068630068154"><ele>144.0</ele><time>2026-04-06T17:18:48Z</time></trkpt><trkpt lat="43.61390741425048" lon="11.189939320543738"><ele>144.0</ele><time>2026-04-06T17:18:49Z</time></trkpt><trkpt lat="43.61414698487772" lon="11.189802442054484"><ele>142.5</ele><time>2026-04-06T17:18:50Z</time></trkpt><trkpt lat="43.614378649555164" lon="11.18966616290334"><ele>141.0</ele><time>2026-04-06T17:18:51Z</time></trkpt><trkpt lat="43.614599920155655" lon="11.189534861438963"><ele>141.0</ele><time>2026-04-06T17:18:52Z</time></trkpt><trkpt lat="43.614820185844025" lon="11.189405647478178"><ele>141.0</ele><time>2026-04-06T17:18:53Z</time></trkpt><trkpt lat="43.6150412703435" lon="11.18928023090317"><ele>141.0</ele><time>2026-04-06T17:18:54Z</time></trkpt><trkpt lat="43.61526581724357" lon="11.189154697940719"><ele>141.0</ele><time>2026-04-06T17:18:55Z</time></trkpt><trkpt lat="43.61548950754056" lon="11.18902622620938"><ele>141.5</ele><time>2026-04-06T17:18:56Z</time></trkpt><trkpt lat="43.61571586612349" lon="11.188893974717262"><ele>142.0</ele><time>2026-04-06T17:18:57Z</time></trkpt><trkpt lat="43.61594243860508" lon="11.18876293441214"><ele>143.0</ele><time>2026-04-06T17:18:58Z</time></trkpt><trkpt lat="43.616168765994104" lon="11.18862871238315"><ele>144.0</ele><time>2026-04-06T17:18:59Z</time></trkpt><trkpt lat="43.61639425409604" lon="11.188498913595406"><ele>144.0</ele><time>2026-04-06T17:19:00Z</time></trkpt><trkpt lat="43.61660714383698" lon="11.18837499431423"><ele>144.0</ele><time>2026-04-06T17:19:01Z</time></trkpt><trkpt lat="43.61680654981965" lon="11.188266083177208"><ele>144.0</ele><time>2026-04-06T17:19:02Z</time></trkpt><trkpt lat="43.617005857496835" lon="11.188157233056144"><ele>143.0</ele><time>2026-04-06T17:19:03Z</time></trkpt><trkpt lat="43.617212620265825" lon="11.188042057545275"><ele>142.0</ele><time>2026-04-06T17:19:04Z</time></trkpt><trkpt lat="43.61741995840927" lon="11.187926026850432"><ele>141.0</ele><time>2026-04-06T17:19:05Z</time></trkpt><trkpt lat="43.617629779616564" lon="11.187807273816457"><ele>140.5</ele><time>2026-04-06T17:19:06Z</time></trkpt><trkpt lat="43.61783707276485" lon="11.18768913063902"><ele>140.0</ele><time>2026-04-06T17:19:07Z</time></trkpt><trkpt lat="43.618045076668494" lon="11.187565580028375"><ele>140.0</ele><time>2026-04-06T17:19:08Z</time></trkpt><trkpt lat="43.61825468244922" lon="11.187438966299728"><ele>140.0</ele><time>2026-04-06T17:19:09Z</time></trkpt><trkpt lat="43.61846215681218" lon="11.18731788392582"><ele>139.0</ele><time>2026-04-06T17:19:10Z</time></trkpt><trkpt lat="43.61866614591211" lon="11.187198884827298"><ele>138.0</ele><time>2026-04-06T17:19:11Z</time></trkpt><trkpt lat="43.61887293055699" lon="11.187072607805437"><ele>137.0</ele><time>2026-04-06T17:19:12Z</time></trkpt><trkpt lat="43.6190864159627" lon="11.18693866056724"><ele>137.0</ele><time>2026-04-06T17:19:13Z</time></trkpt><trkpt lat="43.61930493295535" lon="11.186806333939435"><ele>137.0</ele><time>2026-04-06T17:19:14Z</time></trkpt><trkpt lat="43.61951961657206" lon="11.186681768071205"><ele>137.5</ele><time>2026-04-06T17:19:15Z</time></trkpt><trkpt lat="43.619729084137916" lon="11.186562224006687"><ele>138.0</ele><time>2026-04-06T17:19:16Z</time></trkpt><trkpt lat="43.61994667018947" lon="11.186435429109373"><ele>137.0</ele><time>2026-04-06T17:19:17Z</time></trkpt><trkpt lat="43.62015869832322" lon="11.18631007386324"><ele>136.0</ele><time>2026-04-06T17:19:18Z</time></trkpt><trkpt lat="43.62036995462809" lon="11.18618311048555"><ele>136.0</ele><time>2026-04-06T17:19:19Z</time></trkpt><trkpt lat="43.62058610963023" lon="11.186053767725406"><ele>136.0</ele><time>2026-04-06T17:19:20Z</time></trkpt><trkpt lat="43.620810840890385" lon="11.185925782390786"><ele>136.0</ele><time>2026-04-06T17:19:21Z</time></trkpt><trkpt lat="43.62104340666283" lon="11.185808160225232"><ele>136.0</ele><time>2026-04-06T17:19:22Z</time></trkpt><trkpt lat="43.62127712418194" lon="11.185691848591123"><ele>135.5</ele><time>2026-04-06T17:19:23Z</time></trkpt><trkpt lat="43.621499097423516" lon="11.185568035882905"><ele>135.0</ele><time>2026-04-06T17:19:24Z</time></trkpt><trkpt lat="43.6217123264075" lon="11.185443041445906"><ele>135.0</ele><time>2026-04-06T17:19:25Z</time></trkpt><trkpt lat="43.621923257475196" lon="11.18532123938156"><ele>135.0</ele><time>2026-04-06T17:19:26Z</time></trkpt><trkpt lat="43.62213327339019" lon="11.185196757842592"><ele>135.0</ele><time>2026-04-06T17:19:27Z</time></trkpt><trkpt lat="43.62233117380443" lon="11.185075160411879"><ele>135.0</ele><time>2026-04-06T17:19:28Z</time></trkpt><trkpt lat="43.62252772392876" lon="11.184957210288557"><ele>135.0</ele><time>2026-04-06T17:19:29Z</time></trkpt><trkpt lat="43.62273229730502" lon="11.184837395716457"><ele>135.66666666666666</ele><time>2026-04-06T17:19:30Z</time></trkpt><trkpt lat="43.62293534014757" lon="11.184720818507168"><ele>136.33333333333331</ele><time>2026-04-06T17:19:31Z</time></trkpt><trkpt lat="43.62313939133014" lon="11.18460285933292"><ele>137.0</ele><time>2026-04-06T17:19:32Z</time></trkpt><trkpt lat="43.623339300623876" lon="11.184490273497818"><ele>137.0</ele><time>2026-04-06T17:19:33Z</time></trkpt><trkpt lat="43.62353517280985" lon="11.184376535504985"><ele>137.0</ele><time>2026-04-06T17:19:34Z</time></trkpt><trkpt lat="43.62373059158629" lon="11.184263399182376"><ele>137.0</ele><time>2026-04-06T17:19:35Z</time></trkpt><trkpt lat="43.623929815503416" lon="11.184145645174443"><ele>136.66666666666666</ele><time>2026-04-06T17:19:36Z</time></trkpt><trkpt lat="43.624126274113145" lon="11.184032523152167"><ele>136.33333333333334</ele><time>2026-04-06T17:19:37Z</time></trkpt><trkpt lat="43.62431665124088" lon="11.18392889997494"><ele>136.0</ele><time>2026-04-06T17:19:38Z</time></trkpt><trkpt lat="43.624499640412786" lon="11.183843710506604"><ele>136.66666666666669</ele><time>2026-04-06T17:19:39Z</time></trkpt><trkpt lat="43.62467743592395" lon="11.183776106171585"><ele>137.33333333333334</ele><time>2026-04-06T17:19:40Z</time></trkpt><trkpt lat="43.624853283400405" lon="11.183713637166306"><ele>138.0</ele><time>2026-04-06T17:19:41Z</time></trkpt><trkpt lat="43.62502522631706" lon="11.183653660430315"><ele>138.0</ele><time>2026-04-06T17:19:42Z</time></trkpt><trkpt lat="43.62518748203805" lon="11.183597235005776"><ele>138.0</ele><time>2026-04-06T17:19:43Z</time></trkpt><trkpt lat="43.625339970599384" lon="11.183546450265052"><ele>138.0</ele><time>2026-04-06T17:19:44Z</time></trkpt><trkpt lat="43.62547546805525" lon="11.183505838774739"><ele>138.5</ele><time>2026-04-06T17:19:45Z</time></trkpt><trkpt lat="43.6256037386592" lon="11.183473565964515"><ele>139.0</ele><time>2026-04-06T17:19:46Z</time></trkpt><trkpt lat="43.625718577875794" lon="11.183463348675463"><ele>139.5</ele><time>2026-04-06T17:19:47Z</time></trkpt><trkpt lat="43.62582246740484" lon="11.18348667307638"><ele>140.0</ele><time>2026-04-06T17:19:48Z</time></trkpt><trkpt lat="43.62591009179053" lon="11.183551797196337"><ele>140.0</ele><time>2026-04-06T17:19:49Z</time></trkpt><trkpt lat="43.62597557699105" lon="11.183647453766875"><ele>140.0</ele><time>2026-04-06T17:19:49.999Z</time></trkpt><trkpt lat="43.6260097483829" lon="11.183761862450092"><ele>140.0</ele><time>2026-04-06T17:19:50.999Z</time></trkpt><trkpt lat="43.62602071582566" lon="11.183884001861696"><ele>140.0</ele><time>2026-04-06T17:19:51.999Z</time></trkpt><trkpt lat="43.62602004357975" lon="11.183989144902247"><ele>140.0</ele><time>2026-04-06T17:19:52.999Z</time></trkpt><trkpt lat="43.62605169488972" lon="11.18411305223534"><ele>140.0</ele><time>2026-04-06T17:19:54.999Z</time></trkpt><trkpt lat="43.62611755885173" lon="11.184221003884621"><ele>140.25</ele><time>2026-04-06T17:19:56.999Z</time></trkpt><trkpt lat="43.626253898688766" lon="11.18419003225887"><ele>140.5</ele><time>2026-04-06T17:19:57.999Z</time></trkpt><trkpt lat="43.62634784104799" lon="11.184149011650575"><ele>140.75</ele><time>2026-04-06T17:19:58.999Z</time></trkpt><trkpt lat="43.62644652245514" lon="11.184100387330876"><ele>141.0</ele><time>2026-04-06T17:19:59.999Z</time></trkpt><trkpt lat="43.62656229319188" lon="11.184057433540628"><ele>141.0</ele><time>2026-04-06T17:20:00.999Z</time></trkpt><trkpt lat="43.626685665830344" lon="11.184017603162717"><ele>141.0</ele><time>2026-04-06T17:20:01.999Z</time></trkpt><trkpt lat="43.62680673453219" lon="11.183974417029493"><ele>141.0</ele><time>2026-04-06T17:20:02.999Z</time></trkpt><trkpt lat="43.626940783785585" lon="11.183927610384242"><ele>141.0</ele><time>2026-04-06T17:20:03.999Z</time></trkpt><trkpt lat="43.62709149144749" lon="11.183871468002875"><ele>140.0</ele><time>2026-04-06T17:20:04.999Z</time></trkpt><trkpt lat="43.6272386516246" lon="11.183806457510757"><ele>139.0</ele><time>2026-04-06T17:20:05.999Z</time></trkpt><trkpt lat="43.62738742690667" lon="11.18372170352809"><ele>138.0</ele><time>2026-04-06T17:20:06.999Z</time></trkpt><trkpt lat="43.62753729026884" lon="11.183609390267417"><ele>138.0</ele><time>2026-04-06T17:20:07.999Z</time></trkpt><trkpt lat="43.62769173915145" lon="11.183468765924735"><ele>138.0</ele><time>2026-04-06T17:20:08.999Z</time></trkpt><trkpt lat="43.62782318412684" lon="11.183329237251524"><ele>138.0</ele><time>2026-04-06T17:20:09.999Z</time></trkpt><trkpt lat="43.62793349847542" lon="11.183193965144755"><ele>136.75</ele><time>2026-04-06T17:20:10.999Z</time></trkpt><trkpt lat="43.628031130028354" lon="11.183070326128345"><ele>135.5</ele><time>2026-04-06T17:20:11.999Z</time></trkpt><trkpt lat="43.628125576630126" lon="11.18294617817202"><ele>134.25</ele><time>2026-04-06T17:20:12.999Z</time></trkpt><trkpt lat="43.628202579400806" lon="11.182795843189782"><ele>133.0</ele><time>2026-04-06T17:20:13.999Z</time></trkpt><trkpt lat="43.6282881961087" lon="11.182690824192784"><ele>133.0</ele><time>2026-04-06T17:20:14.999Z</time></trkpt><trkpt lat="43.62836735809826" lon="11.182587911293757"><ele>133.0</ele><time>2026-04-06T17:20:15.999Z</time></trkpt><trkpt lat="43.628443763736655" lon="11.18247676813512"><ele>133.0</ele><time>2026-04-06T17:20:16.999Z</time></trkpt><trkpt lat="43.6285212857259" lon="11.18235949393716"><ele>133.0</ele><time>2026-04-06T17:20:17.999Z</time></trkpt><trkpt lat="43.62860281645429" lon="11.182256403789498"><ele>133.0</ele><time>2026-04-06T17:20:18.999Z</time></trkpt><trkpt lat="43.62869960743506" lon="11.182169111416796"><ele>132.25</ele><time>2026-04-06T17:20:19.999Z</time></trkpt><trkpt lat="43.62880333261458" lon="11.182104689837283"><ele>131.5</ele><time>2026-04-06T17:20:20.999Z</time></trkpt><trkpt lat="43.628919456929026" lon="11.182079501244198"><ele>130.75</ele><time>2026-04-06T17:20:21.999Z</time></trkpt><trkpt lat="43.629033204515586" lon="11.182051083132587"><ele>130.0</ele><time>2026-04-06T17:20:22.999Z</time></trkpt><trkpt lat="43.62914764349211" lon="11.182015960891922"><ele>130.0</ele><time>2026-04-06T17:20:23.999Z</time></trkpt><trkpt lat="43.629263943898195" lon="11.182006099570215"><ele>130.0</ele><time>2026-04-06T17:20:24.999Z</time></trkpt><trkpt lat="43.629375768904225" lon="11.181985688639296"><ele>130.0</ele><time>2026-04-06T17:20:25.999Z</time></trkpt><trkpt lat="43.62949050188918" lon="11.181960079656106"><ele>130.0</ele><time>2026-04-06T17:20:26.999Z</time></trkpt><trkpt lat="43.62960307247914" lon="11.18191454493821"><ele>130.5</ele><time>2026-04-06T17:20:27.999Z</time></trkpt><trkpt lat="43.629708818360676" lon="11.18184756555665"><ele>131.0</ele><time>2026-04-06T17:20:28.999Z</time></trkpt><trkpt lat="43.6298103800163" lon="11.181764201983503"><ele>131.5</ele><time>2026-04-06T17:20:29.999Z</time></trkpt><trkpt lat="43.629910036307265" lon="11.181688008678684"><ele>132.0</ele><time>2026-04-06T17:20:30.999Z</time></trkpt><trkpt lat="43.6300116402104" lon="11.18159650283029"><ele>131.25</ele><time>2026-04-06T17:20:31.999Z</time></trkpt><trkpt lat="43.630115090826635" lon="11.181512626242908"><ele>130.5</ele><time>2026-04-06T17:20:32.999Z</time></trkpt><trkpt lat="43.63022749472848" lon="11.181461522705666"><ele>129.75</ele><time>2026-04-06T17:20:33.999Z</time></trkpt><trkpt lat="43.63034077213219" lon="11.181414362592207"><ele>129.0</ele><time>2026-04-06T17:20:34.999Z</time></trkpt><trkpt lat="43.63045569577491" lon="11.181366377009175"><ele>128.75</ele><time>2026-04-06T17:20:35.999Z</time></trkpt><trkpt lat="43.63057269407435" lon="11.181321755408954"><ele>128.5</ele><time>2026-04-06T17:20:36.999Z</time></trkpt><trkpt lat="43.630693965246195" lon="11.181278403222265"><ele>128.25</ele><time>2026-04-06T17:20:38.001Z</time></trkpt><trkpt lat="43.63081280212832" lon="11.181237716786944"><ele>128.0</ele><time>2026-04-06T17:20:39.001Z</time></trkpt><trkpt lat="43.63092988465905" lon="11.181196178641212"><ele>128.0</ele><time>2026-04-06T17:20:40.001Z</time></trkpt><trkpt lat="43.63105165033139" lon="11.181153388116742"><ele>128.0</ele><time>2026-04-06T17:20:41.001Z</time></trkpt><trkpt lat="43.631174185256356" lon="11.181117106274534"><ele>128.0</ele><time>2026-04-06T17:20:42.001Z</time></trkpt><trkpt lat="43.6312927342103" lon="11.181064156644227"><ele>128.0</ele><time>2026-04-06T17:20:43.001Z</time></trkpt><trkpt lat="43.63140732385288" lon="11.180994271696417"><ele>128.0</ele><time>2026-04-06T17:20:44.001Z</time></trkpt><trkpt lat="43.63153581792147" lon="11.180911580881196"><ele>128.0</ele><time>2026-04-06T17:20:45.001Z</time></trkpt><trkpt lat="43.631671302158175" lon="11.180824760733739"><ele>128.0</ele><time>2026-04-06T17:20:46.001Z</time></trkpt><trkpt lat="43.63182583239615" lon="11.180727093432088"><ele>128.33333333333331</ele><time>2026-04-06T17:20:47.001Z</time></trkpt><trkpt lat="43.63200193765172" lon="11.180623392567945"><ele>128.66666666666666</ele><time>2026-04-06T17:20:48.001Z</time></trkpt><trkpt lat="43.63216828320959" lon="11.180533595139629"><ele>129.0</ele><time>2026-04-06T17:20:49.001Z</time></trkpt><trkpt lat="43.63234051581958" lon="11.180445712560708"><ele>129.0</ele><time>2026-04-06T17:20:50.001Z</time></trkpt><trkpt lat="43.632513270647195" lon="11.180355564705538"><ele>129.0</ele><time>2026-04-06T17:20:51.001Z</time></trkpt><trkpt lat="43.6326890648628" lon="11.180258633608693"><ele>129.0</ele><time>2026-04-06T17:20:52.001Z</time></trkpt><trkpt lat="43.63285775459353" lon="11.180165432904422"><ele>129.0</ele><time>2026-04-06T17:20:53.001Z</time></trkpt><trkpt lat="43.63302344574414" lon="11.180060564955598"><ele>129.0</ele><time>2026-04-06T17:20:54.001Z</time></trkpt><trkpt lat="43.63316970120015" lon="11.179929489173622"><ele>129.0</ele><time>2026-04-06T17:20:55.001Z</time></trkpt><trkpt lat="43.63331241052888" lon="11.179763932817146"><ele>129.0</ele><time>2026-04-06T17:20:56Z</time></trkpt><trkpt lat="43.63345346723779" lon="11.179597074997531"><ele>129.0</ele><time>2026-04-06T17:20:57Z</time></trkpt><trkpt lat="43.63358836220322" lon="11.179440893455745"><ele>129.0</ele><time>2026-04-06T17:20:58Z</time></trkpt><trkpt lat="43.633720321799565" lon="11.17929778602541"><ele>129.0</ele><time>2026-04-06T17:20:59Z</time></trkpt><trkpt lat="43.63386715205388" lon="11.179195830213226"><ele>129.0</ele><time>2026-04-06T17:21:00Z</time></trkpt><trkpt lat="43.634027748925895" lon="11.179094816878173"><ele>129.0</ele><time>2026-04-06T17:21:01Z</time></trkpt><trkpt lat="43.634193659138184" lon="11.178976581199857"><ele>129.0</ele><time>2026-04-06T17:21:02Z</time></trkpt><trkpt lat="43.6343627908762" lon="11.17887693161192"><ele>129.0</ele><time>2026-04-06T17:21:03Z</time></trkpt><trkpt lat="43.63452536952285" lon="11.17878478805181"><ele>129.0</ele><time>2026-04-06T17:21:04Z</time></trkpt><trkpt lat="43.63468795067186" lon="11.178718093047676"><ele>128.66666666666666</ele><time>2026-04-06T17:21:05Z</time></trkpt><trkpt lat="43.63486089546287" lon="11.178687357325865"><ele>128.33333333333331</ele><time>2026-04-06T17:21:06Z</time></trkpt><trkpt lat="43.63504543189285" lon="11.178687656610787"><ele>128.0</ele><time>2026-04-06T17:21:07Z</time></trkpt><trkpt lat="43.63523756122898" lon="11.17871241160334"><ele>128.66666666666666</ele><time>2026-04-06T17:21:08Z</time></trkpt><trkpt lat="43.63543091985341" lon="11.178755289940165"><ele>129.33333333333334</ele><time>2026-04-06T17:21:09Z</time></trkpt><trkpt lat="43.63564429875432" lon="11.178834201073128"><ele>130.0</ele><time>2026-04-06T17:21:10Z</time></trkpt><trkpt lat="43.63583607932111" lon="11.178914860513759"><ele>130.0</ele><time>2026-04-06T17:21:11Z</time></trkpt><trkpt lat="43.6360057515291" lon="11.178963428785123"><ele>130.0</ele><time>2026-04-06T17:21:12Z</time></trkpt><trkpt lat="43.63617869893441" lon="11.178969854026107"><ele>130.0</ele><time>2026-04-06T17:21:13Z</time></trkpt><trkpt lat="43.636356710349915" lon="11.17891698800265"><ele>132.33333333333334</ele><time>2026-04-06T17:21:14Z</time></trkpt><trkpt lat="43.636533117305945" lon="11.178812928224847"><ele>134.66666666666666</ele><time>2026-04-06T17:21:15Z</time></trkpt><trkpt lat="43.6367097697042" lon="11.178646983157234"><ele>137.0</ele><time>2026-04-06T17:21:16Z</time></trkpt><trkpt lat="43.63687205800885" lon="11.17846798244471"><ele>138.66666666666666</ele><time>2026-04-06T17:21:17Z</time></trkpt><trkpt lat="43.63702291471877" lon="11.178307042788628"><ele>140.33333333333334</ele><time>2026-04-06T17:21:18Z</time></trkpt><trkpt lat="43.63716759084594" lon="11.178141665612396"><ele>142.0</ele><time>2026-04-06T17:21:19Z</time></trkpt><trkpt lat="43.637303198674694" lon="11.17793973314885"><ele>142.0</ele><time>2026-04-06T17:21:20Z</time></trkpt><trkpt lat="43.637418130427584" lon="11.177705050359629"><ele>142.0</ele><time>2026-04-06T17:21:21Z</time></trkpt><trkpt lat="43.637502285556295" lon="11.177426267331223"><ele>142.0</ele><time>2026-04-06T17:21:22Z</time></trkpt><trkpt lat="43.63757878179939" lon="11.177155458706302"><ele>143.0</ele><time>2026-04-06T17:21:23Z</time></trkpt><trkpt lat="43.63769944907613" lon="11.176916935597779"><ele>144.0</ele><time>2026-04-06T17:21:24Z</time></trkpt><trkpt lat="43.63784694677268" lon="11.176684365335634"><ele>145.0</ele><time>2026-04-06T17:21:25Z</time></trkpt><trkpt lat="43.6380224443608" lon="11.176450082265456"><ele>145.0</ele><time>2026-04-06T17:21:26Z</time></trkpt><trkpt lat="43.63820060270473" lon="11.176242075703001"><ele>145.0</ele><time>2026-04-06T17:21:27Z</time></trkpt><trkpt lat="43.63837417438077" lon="11.176060040088323"><ele>145.0</ele><time>2026-04-06T17:21:28Z</time></trkpt><trkpt lat="43.63855942606424" lon="11.175909581450924"><ele>145.0</ele><time>2026-04-06T17:21:29Z</time></trkpt><trkpt lat="43.638739084404435" lon="11.175794463342472"><ele>145.0</ele><time>2026-04-06T17:21:30Z</time></trkpt><trkpt lat="43.63889777667406" lon="11.175704315078086"><ele>145.0</ele><time>2026-04-06T17:21:31Z</time></trkpt><trkpt lat="43.63904403836287" lon="11.175633348642604"><ele>145.0</ele><time>2026-04-06T17:21:32Z</time></trkpt><trkpt lat="43.639188477127625" lon="11.175605526700748"><ele>145.0</ele><time>2026-04-06T17:21:33Z</time></trkpt><trkpt lat="43.63934428083588" lon="11.175618351605989"><ele>145.66666666666669</ele><time>2026-04-06T17:21:34Z</time></trkpt><trkpt lat="43.6395060554479" lon="11.175654301743293"><ele>146.33333333333334</ele><time>2026-04-06T17:21:35Z</time></trkpt><trkpt lat="43.63964350488004" lon="11.175792520086858"><ele>147.0</ele><time>2026-04-06T17:21:36Z</time></trkpt><trkpt lat="43.639778323891974" lon="11.17595271915819"><ele>149.0</ele><time>2026-04-06T17:21:37Z</time></trkpt><trkpt lat="43.63993004129985" lon="11.176127276535162"><ele>151.0</ele><time>2026-04-06T17:21:38Z</time></trkpt><trkpt lat="43.64007728988881" lon="11.176322479283687"><ele>153.0</ele><time>2026-04-06T17:21:39Z</time></trkpt><trkpt lat="43.64021561865676" lon="11.176502707761717"><ele>155.25</ele><time>2026-04-06T17:21:40Z</time></trkpt><trkpt lat="43.6403387608814" lon="11.17665573812537"><ele>157.5</ele><time>2026-04-06T17:21:41Z</time></trkpt><trkpt lat="43.64045569970032" lon="11.17675796766654"><ele>159.75</ele><time>2026-04-06T17:21:42Z</time></trkpt><trkpt lat="43.64058051847978" lon="11.176806863439493"><ele>162.0</ele><time>2026-04-06T17:21:43Z</time></trkpt><trkpt lat="43.64070233402447" lon="11.176802521573633"><ele>162.0</ele><time>2026-04-06T17:21:44Z</time></trkpt><trkpt lat="43.6408175118439" lon="11.176742021717597"><ele>162.0</ele><time>2026-04-06T17:21:45Z</time></trkpt><trkpt lat="43.64090965450468" lon="11.17662783914154"><ele>162.0</ele><time>2026-04-06T17:21:46Z</time></trkpt><trkpt lat="43.640966663070444" lon="11.176460209107518"><ele>162.0</ele><time>2026-04-06T17:21:47Z</time></trkpt><trkpt lat="43.64098795278959" lon="11.176232571261751"><ele>162.0</ele><time>2026-04-06T17:21:48Z</time></trkpt><trkpt lat="43.640992328234645" lon="11.175964944319388"><ele>162.0</ele><time>2026-04-06T17:21:49Z</time></trkpt><trkpt lat="43.64099565480658" lon="11.175701650676729"><ele>162.0</ele><time>2026-04-06T17:21:50Z</time></trkpt><trkpt lat="43.64098311919939" lon="11.175464687236802"><ele>162.66666666666666</ele><time>2026-04-06T17:21:51Z</time></trkpt><trkpt lat="43.64092528023007" lon="11.175257338793644"><ele>163.33333333333331</ele><time>2026-04-06T17:21:52Z</time></trkpt><trkpt lat="43.640835419667624" lon="11.175073802067375"><ele>164.0</ele><time>2026-04-06T17:21:53Z</time></trkpt><trkpt lat="43.64076265925668" lon="11.174912358684542"><ele>163.6</ele><time>2026-04-06T17:21:54Z</time></trkpt><trkpt lat="43.640724744267615" lon="11.174775374367844"><ele>163.2</ele><time>2026-04-06T17:21:55Z</time></trkpt><trkpt lat="43.64071678275527" lon="11.174641661887716"><ele>162.79999999999998</ele><time>2026-04-06T17:21:56Z</time></trkpt><trkpt lat="43.64077595334442" lon="11.174533707554568"><ele>162.39999999999998</ele><time>2026-04-06T17:21:57Z</time></trkpt><trkpt lat="43.64082579721806" lon="11.174424020060979"><ele>162.0</ele><time>2026-04-06T17:21:58Z</time></trkpt><trkpt lat="43.64095157342178" lon="11.174379528151315"><ele>162.0</ele><time>2026-04-06T17:21:58.999Z</time></trkpt><trkpt lat="43.64110146991267" lon="11.174326771209161"><ele>162.0</ele><time>2026-04-06T17:21:59.999Z</time></trkpt><trkpt lat="43.64124555317953" lon="11.17427702727196"><ele>162.0</ele><time>2026-04-06T17:22:00.999Z</time></trkpt><trkpt lat="43.641362488931954" lon="11.174251219509907"><ele>162.0</ele><time>2026-04-06T17:22:01.999Z</time></trkpt><trkpt lat="43.641469922442724" lon="11.174248286206156"><ele>162.75</ele><time>2026-04-06T17:22:02.999Z</time></trkpt><trkpt lat="43.64158779492087" lon="11.174327064622933"><ele>163.5</ele><time>2026-04-06T17:22:03.999Z</time></trkpt><trkpt lat="43.641680413344204" lon="11.174489847791287"><ele>164.25</ele><time>2026-04-06T17:22:04.999Z</time></trkpt><trkpt lat="43.64177791769031" lon="11.174654319500624"><ele>165.0</ele><time>2026-04-06T17:22:05.999Z</time></trkpt><trkpt lat="43.64188977631401" lon="11.17484160421487"><ele>164.66666666666666</ele><time>2026-04-06T17:22:06.999Z</time></trkpt><trkpt lat="43.641991001172435" lon="11.175058991634678"><ele>164.33333333333331</ele><time>2026-04-06T17:22:07.999Z</time></trkpt><trkpt lat="43.642092313026076" lon="11.175267758702644"><ele>164.0</ele><time>2026-04-06T17:22:08.999Z</time></trkpt><trkpt lat="43.64219251471102" lon="11.175485150131543"><ele>167.66666666666666</ele><time>2026-04-06T17:22:09.999Z</time></trkpt><trkpt lat="43.64229278258849" lon="11.175734474601633"><ele>171.33333333333334</ele><time>2026-04-06T17:22:10.999Z</time></trkpt><trkpt lat="43.64238387690623" lon="11.17601272592308"><ele>175.0</ele><time>2026-04-06T17:22:11.999Z</time></trkpt><trkpt lat="43.64245004144094" lon="11.17630035185165"><ele>178.0</ele><time>2026-04-06T17:22:12.999Z</time></trkpt><trkpt lat="43.64249587356139" lon="11.1765878376462"><ele>181.0</ele><time>2026-04-06T17:22:13.999Z</time></trkpt><trkpt lat="43.64256280679406" lon="11.176865276866431"><ele>184.0</ele><time>2026-04-06T17:22:14.999Z</time></trkpt><trkpt lat="43.64267122425131" lon="11.177118163221209"><ele>183.0</ele><time>2026-04-06T17:22:15.999Z</time></trkpt><trkpt lat="43.64282323498376" lon="11.177369963679"><ele>182.0</ele><time>2026-04-06T17:22:16.999Z</time></trkpt><trkpt lat="43.64299022227421" lon="11.177605332662118"><ele>182.0</ele><time>2026-04-06T17:22:17.999Z</time></trkpt><trkpt lat="43.643157482755676" lon="11.17783989482822"><ele>182.0</ele><time>2026-04-06T17:22:18.999Z</time></trkpt><trkpt lat="43.64332409909434" lon="11.178098107700366"><ele>184.0</ele><time>2026-04-06T17:22:19.999Z</time></trkpt><trkpt lat="43.64349636320128" lon="11.178382165083033"><ele>186.0</ele><time>2026-04-06T17:22:20.999Z</time></trkpt><trkpt lat="43.643670056857054" lon="11.178662590867079"><ele>186.0</ele><time>2026-04-06T17:22:21.999Z</time></trkpt><trkpt lat="43.64385730147812" lon="11.17892226333691"><ele>186.0</ele><time>2026-04-06T17:22:22.999Z</time></trkpt><trkpt lat="43.64404513307927" lon="11.179172172582838"><ele>192.0</ele><time>2026-04-06T17:22:23.999Z</time></trkpt><trkpt lat="43.64422332052652" lon="11.1794111571286"><ele>198.0</ele><time>2026-04-06T17:22:24.999Z</time></trkpt><trkpt lat="43.64438537708594" lon="11.179632206670721"><ele>196.33333333333331</ele><time>2026-04-06T17:22:25.999Z</time></trkpt><trkpt lat="43.64454017777832" lon="11.179839112957762"><ele>194.66666666666666</ele><time>2026-04-06T17:22:26.999Z</time></trkpt><trkpt lat="43.644697489954076" lon="11.180018788301869"><ele>193.0</ele><time>2026-04-06T17:22:27.999Z</time></trkpt><trkpt lat="43.6448686240681" lon="11.180143452860696"><ele>194.0</ele><time>2026-04-06T17:22:28.999Z</time></trkpt><trkpt lat="43.64506139569475" lon="11.180232129197682"><ele>195.0</ele><time>2026-04-06T17:22:29.999Z</time></trkpt><trkpt lat="43.645245900247765" lon="11.180297781033335"><ele>196.0</ele><time>2026-04-06T17:22:30.999Z</time></trkpt><trkpt lat="43.645401919114676" lon="11.180379960534147"><ele>196.0</ele><time>2026-04-06T17:22:31.999Z</time></trkpt><trkpt lat="43.64553441239677" lon="11.180523885219989"><ele>196.0</ele><time>2026-04-06T17:22:32.999Z</time></trkpt><trkpt lat="43.64566865373521" lon="11.180702746085796"><ele>196.0</ele><time>2026-04-06T17:22:33.999Z</time></trkpt><trkpt lat="43.64583663492548" lon="11.18090380137661"><ele>199.0</ele><time>2026-04-06T17:22:34.999Z</time></trkpt><trkpt lat="43.646005099404775" lon="11.181113411782105"><ele>202.0</ele><time>2026-04-06T17:22:35.999Z</time></trkpt><trkpt lat="43.64620302895635" lon="11.18128842051196"><ele>202.0</ele><time>2026-04-06T17:22:36.999Z</time></trkpt><trkpt lat="43.64639597236785" lon="11.181460667735523"><ele>202.0</ele><time>2026-04-06T17:22:37.999Z</time></trkpt><trkpt lat="43.646552509705494" lon="11.181661049897023"><ele>202.0</ele><time>2026-04-06T17:22:38.999Z</time></trkpt><trkpt lat="43.64669241531466" lon="11.181875806730906"><ele>203.33333333333331</ele><time>2026-04-06T17:22:39.999Z</time></trkpt><trkpt lat="43.64683259985585" lon="11.18207652338398"><ele>204.66666666666669</ele><time>2026-04-06T17:22:40.999Z</time></trkpt><trkpt lat="43.64698873658054" lon="11.182233289397844"><ele>206.0</ele><time>2026-04-06T17:22:41.999Z</time></trkpt><trkpt lat="43.64717882010382" lon="11.182336559183648"><ele>212.33333333333334</ele><time>2026-04-06T17:22:42.999Z</time></trkpt><trkpt lat="43.6473718260194" lon="11.182422171281546"><ele>218.66666666666669</ele><time>2026-04-06T17:22:44.001Z</time></trkpt><trkpt lat="43.64753196022751" lon="11.18256579667399"><ele>225.0</ele><time>2026-04-06T17:22:45.001Z</time></trkpt><trkpt lat="43.64767400704732" lon="11.182719042163857"><ele>225.0</ele><time>2026-04-06T17:22:46.001Z</time></trkpt><trkpt lat="43.64778488090546" lon="11.182935361232339"><ele>225.0</ele><time>2026-04-06T17:22:47.001Z</time></trkpt><trkpt lat="43.64790271170884" lon="11.183195007802524"><ele>225.0</ele><time>2026-04-06T17:22:48.001Z</time></trkpt><trkpt lat="43.64804327778645" lon="11.18343472991963"><ele>224.0</ele><time>2026-04-06T17:22:49.001Z</time></trkpt><trkpt lat="43.648211599388866" lon="11.183651526859682"><ele>223.0</ele><time>2026-04-06T17:22:50.001Z</time></trkpt><trkpt lat="43.64835464847303" lon="11.183887096465169"><ele>220.66666666666666</ele><time>2026-04-06T17:22:51.001Z</time></trkpt><trkpt lat="43.64847722253749" lon="11.184139307436658"><ele>218.33333333333331</ele><time>2026-04-06T17:22:52.001Z</time></trkpt><trkpt lat="43.64857273551631" lon="11.184371341287315"><ele>216.0</ele><time>2026-04-06T17:22:53.001Z</time></trkpt><trkpt lat="43.64864270465122" lon="11.184589012727077"><ele>216.0</ele><time>2026-04-06T17:22:54.001Z</time></trkpt><trkpt lat="43.648652270099376" lon="11.184834277281661"><ele>216.0</ele><time>2026-04-06T17:22:55.001Z</time></trkpt><trkpt lat="43.648675170995375" lon="11.185074755690732"><ele>216.0</ele><time>2026-04-06T17:22:56.001Z</time></trkpt><trkpt lat="43.648721197535714" lon="11.18530981086775"><ele>219.66666666666669</ele><time>2026-04-06T17:22:57.001Z</time></trkpt><trkpt lat="43.6488366565834" lon="11.185535506480363"><ele>223.33333333333334</ele><time>2026-04-06T17:22:58.001Z</time></trkpt><trkpt lat="43.64896804037919" lon="11.185758992029058"><ele>227.0</ele><time>2026-04-06T17:22:59.001Z</time></trkpt><trkpt lat="43.649054659080605" lon="11.185982628205352"><ele>231.0</ele><time>2026-04-06T17:23:00.001Z</time></trkpt><trkpt lat="43.64911116488874" lon="11.18618354403644"><ele>235.0</ele><time>2026-04-06T17:23:01.001Z</time></trkpt><trkpt lat="43.64915897043887" lon="11.186397030500052"><ele>239.0</ele><time>2026-04-06T17:23:02.001Z</time></trkpt><trkpt lat="43.64916332703003" lon="11.18664115200434"><ele>241.66666666666669</ele><time>2026-04-06T17:23:03Z</time></trkpt><trkpt lat="43.64915641968974" lon="11.186902330525134"><ele>244.33333333333331</ele><time>2026-04-06T17:23:04Z</time></trkpt><trkpt lat="43.649151182400466" lon="11.187166147745817"><ele>247.0</ele><time>2026-04-06T17:23:05Z</time></trkpt><trkpt lat="43.64916317703303" lon="11.187419797316181"><ele>248.66666666666666</ele><time>2026-04-06T17:23:06Z</time></trkpt><trkpt lat="43.64921003843466" lon="11.187649908411322"><ele>250.33333333333331</ele><time>2026-04-06T17:23:07Z</time></trkpt><trkpt lat="43.649303335060445" lon="11.187856140710224"><ele>252.0</ele><time>2026-04-06T17:23:08Z</time></trkpt><trkpt lat="43.6494347743421" lon="11.188068011820885"><ele>249.66666666666669</ele><time>2026-04-06T17:23:09Z</time></trkpt><trkpt lat="43.649572893152026" lon="11.188281128625446"><ele>247.33333333333334</ele><time>2026-04-06T17:23:10Z</time></trkpt><trkpt lat="43.64968885814885" lon="11.188492725834955"><ele>245.0</ele><time>2026-04-06T17:23:11Z</time></trkpt><trkpt lat="43.6497768010446" lon="11.18869203043027"><ele>245.0</ele><time>2026-04-06T17:23:12Z</time></trkpt><trkpt lat="43.64985862445908" lon="11.188889334851407"><ele>245.0</ele><time>2026-04-06T17:23:13Z</time></trkpt><trkpt lat="43.64993322591249" lon="11.18906936913562"><ele>245.0</ele><time>2026-04-06T17:23:14Z</time></trkpt><trkpt lat="43.64999421608151" lon="11.18923039879832"><ele>245.0</ele><time>2026-04-06T17:23:15Z</time></trkpt><trkpt lat="43.65005941433661" lon="11.189400452642714"><ele>245.0</ele><time>2026-04-06T17:23:16Z</time></trkpt><trkpt lat="43.65013111478806" lon="11.189565362160227"><ele>245.0</ele><time>2026-04-06T17:23:17Z</time></trkpt><trkpt lat="43.650198757524194" lon="11.189733065889692"><ele>245.0</ele><time>2026-04-06T17:23:18Z</time></trkpt><trkpt lat="43.650260410774294" lon="11.189907918566124"><ele>245.0</ele><time>2026-04-06T17:23:19Z</time></trkpt><trkpt lat="43.650312382498136" lon="11.190092720716352"><ele>245.0</ele><time>2026-04-06T17:23:20Z</time></trkpt><trkpt lat="43.65034900244943" lon="11.190290998680807"><ele>245.0</ele><time>2026-04-06T17:23:21Z</time></trkpt><trkpt lat="43.650378605896584" lon="11.190490360469495"><ele>245.0</ele><time>2026-04-06T17:23:22Z</time></trkpt><trkpt lat="43.650409361664174" lon="11.190689346866764"><ele>245.0</ele><time>2026-04-06T17:23:23Z</time></trkpt><trkpt lat="43.65044296091581" lon="11.190875048402033"><ele>246.25</ele><time>2026-04-06T17:23:24Z</time></trkpt><trkpt lat="43.65047499171811" lon="11.191046066791046"><ele>247.5</ele><time>2026-04-06T17:23:25Z</time></trkpt><trkpt lat="43.65050867089069" lon="11.191210158547111"><ele>248.75</ele><time>2026-04-06T17:23:26Z</time></trkpt><trkpt lat="43.65056328420416" lon="11.191354495775217"><ele>250.0</ele><time>2026-04-06T17:23:27Z</time></trkpt><trkpt lat="43.650649510061115" lon="11.191464080477376"><ele>250.0</ele><time>2026-04-06T17:23:28Z</time></trkpt><trkpt lat="43.65075529855275" lon="11.191517734170212"><ele>250.0</ele><time>2026-04-06T17:23:29Z</time></trkpt><trkpt lat="43.650875551940445" lon="11.19151861790965"><ele>250.0</ele><time>2026-04-06T17:23:30Z</time></trkpt><trkpt lat="43.65099255703223" lon="11.191460216748045"><ele>250.0</ele><time>2026-04-06T17:23:31Z</time></trkpt><trkpt lat="43.65109963269994" lon="11.191353357871558"><ele>249.75</ele><time>2026-04-06T17:23:32Z</time></trkpt><trkpt lat="43.651198809812676" lon="11.191241077522905"><ele>249.5</ele><time>2026-04-06T17:23:33Z</time></trkpt><trkpt lat="43.65130974994209" lon="11.191171107864479"><ele>249.25</ele><time>2026-04-06T17:23:34Z</time></trkpt><trkpt lat="43.65143711091935" lon="11.191157531052292"><ele>249.0</ele><time>2026-04-06T17:23:35Z</time></trkpt><trkpt lat="43.65156259897514" lon="11.191199282691043"><ele>249.0</ele><time>2026-04-06T17:23:36Z</time></trkpt><trkpt lat="43.651681109065" lon="11.191286599238241"><ele>249.0</ele><time>2026-04-06T17:23:37Z</time></trkpt><trkpt lat="43.651776509097296" lon="11.191414608576345"><ele>249.0</ele><time>2026-04-06T17:23:38Z</time></trkpt><trkpt lat="43.651856822228766" lon="11.191569600094484"><ele>249.0</ele><time>2026-04-06T17:23:39Z</time></trkpt><trkpt lat="43.65193390575792" lon="11.191748016227068"><ele>250.25</ele><time>2026-04-06T17:23:40Z</time></trkpt><trkpt lat="43.65201019839138" lon="11.191921136096008"><ele>251.5</ele><time>2026-04-06T17:23:41Z</time></trkpt><trkpt lat="43.65208270679978" lon="11.192074958890519"><ele>252.75</ele><time>2026-04-06T17:23:42Z</time></trkpt><trkpt lat="43.65214969527415" lon="11.19221571030539"><ele>254.0</ele><time>2026-04-06T17:23:43Z</time></trkpt><trkpt lat="43.65221619750165" lon="11.192356162792107"><ele>257.5</ele><time>2026-04-06T17:23:44Z</time></trkpt><trkpt lat="43.65227952419571" lon="11.192498969174103"><ele>261.0</ele><time>2026-04-06T17:23:45Z</time></trkpt><trkpt lat="43.65234160832545" lon="11.192636912586291"><ele>264.5</ele><time>2026-04-06T17:23:46Z</time></trkpt><trkpt lat="43.652401273206216" lon="11.19276680174905"><ele>268.0</ele><time>2026-04-06T17:23:47Z</time></trkpt><trkpt lat="43.65247549502634" lon="11.19287423537839"><ele>268.0</ele><time>2026-04-06T17:23:48Z</time></trkpt><trkpt lat="43.65257221358291" lon="11.192952287253712"><ele>268.0</ele><time>2026-04-06T17:23:49Z</time></trkpt><trkpt lat="43.652687311427215" lon="11.192998868618174"><ele>268.0</ele><time>2026-04-06T17:23:50Z</time></trkpt><trkpt lat="43.652801012077454" lon="11.193005276428252"><ele>268.0</ele><time>2026-04-06T17:23:51Z</time></trkpt><trkpt lat="43.6529207049403" lon="11.192978080592265"><ele>266.5</ele><time>2026-04-06T17:23:52Z</time></trkpt><trkpt lat="43.65303560256255" lon="11.192908720422954"><ele>265.0</ele><time>2026-04-06T17:23:53Z</time></trkpt><trkpt lat="43.653139818462876" lon="11.192786249608947"><ele>263.5</ele><time>2026-04-06T17:23:54Z</time></trkpt><trkpt lat="43.65324238490114" lon="11.19263197170294"><ele>262.0</ele><time>2026-04-06T17:23:55Z</time></trkpt><trkpt lat="43.65333719798723" lon="11.19249787729355"><ele>262.0</ele><time>2026-04-06T17:23:56Z</time></trkpt><trkpt lat="43.653429382407445" lon="11.192385088519679"><ele>262.0</ele><time>2026-04-06T17:23:57Z</time></trkpt><trkpt lat="43.65351722664174" lon="11.192274216406165"><ele>262.0</ele><time>2026-04-06T17:23:58Z</time></trkpt><trkpt lat="43.653596992556416" lon="11.192147464788437"><ele>262.0</ele><time>2026-04-06T17:23:59Z</time></trkpt><trkpt lat="43.653647269570854" lon="11.19199293348651"><ele>264.5</ele><time>2026-04-06T17:24:00Z</time></trkpt><trkpt lat="43.65366720606992" lon="11.191823702706415"><ele>267.0</ele><time>2026-04-06T17:24:01Z</time></trkpt><trkpt lat="43.65364313257378" lon="11.191662036391985"><ele>269.5</ele><time>2026-04-06T17:24:02Z</time></trkpt><trkpt lat="43.65359829067126" lon="11.191503649294756"><ele>272.0</ele><time>2026-04-06T17:24:03Z</time></trkpt><trkpt lat="43.653522593029365" lon="11.191354860106385"><ele>272.0</ele><time>2026-04-06T17:24:04Z</time></trkpt><trkpt lat="43.65342887021133" lon="11.191217062859108"><ele>272.0</ele><time>2026-04-06T17:24:04.999Z</time></trkpt><trkpt lat="43.65332779347713" lon="11.19109092328402"><ele>272.0</ele><time>2026-04-06T17:24:05.999Z</time></trkpt><trkpt lat="43.653230119009876" lon="11.190955323419342"><ele>272.0</ele><time>2026-04-06T17:24:06.999Z</time></trkpt><trkpt lat="43.653139766673824" lon="11.190814154515577"><ele>272.0</ele><time>2026-04-06T17:24:07.999Z</time></trkpt><trkpt lat="43.65305887059339" lon="11.190674506482885"><ele>272.0</ele><time>2026-04-06T17:24:08.999Z</time></trkpt><trkpt lat="43.65299468015235" lon="11.19052148666431"><ele>272.0</ele><time>2026-04-06T17:24:09.999Z</time></trkpt><trkpt lat="43.6529551853282" lon="11.190351109412305"><ele>272.0</ele><time>2026-04-06T17:24:10.999Z</time></trkpt><trkpt lat="43.65295506517138" lon="11.190183336932913"><ele>273.8</ele><time>2026-04-06T17:24:11.999Z</time></trkpt><trkpt lat="43.652937901079106" lon="11.190029192451902"><ele>275.6</ele><time>2026-04-06T17:24:12.999Z</time></trkpt><trkpt lat="43.65293691427694" lon="11.189878200867616"><ele>277.40000000000003</ele><time>2026-04-06T17:24:13.999Z</time></trkpt><trkpt lat="43.6529386179152" lon="11.189732244674543"><ele>279.2</ele><time>2026-04-06T17:24:14.999Z</time></trkpt><trkpt lat="43.652938687734995" lon="11.189591383210363"><ele>281.0</ele><time>2026-04-06T17:24:15.999Z</time></trkpt><trkpt lat="43.65292157913609" lon="11.18945577121022"><ele>281.6</ele><time>2026-04-06T17:24:16.999Z</time></trkpt><trkpt lat="43.652882555611264" lon="11.18932948623231"><ele>282.20000000000005</ele><time>2026-04-06T17:24:17.999Z</time></trkpt><trkpt lat="43.652826787369264" lon="11.189219045524366"><ele>282.79999999999995</ele><time>2026-04-06T17:24:18.999Z</time></trkpt><trkpt lat="43.65275296928425" lon="11.189124625894117"><ele>283.4</ele><time>2026-04-06T17:24:19.999Z</time></trkpt><trkpt lat="43.65266398989375" lon="11.189048611762066"><ele>284.0</ele><time>2026-04-06T17:24:20.999Z</time></trkpt><trkpt lat="43.65256540825884" lon="11.188986731780366"><ele>284.0</ele><time>2026-04-06T17:24:21.999Z</time></trkpt><trkpt lat="43.65245483378641" lon="11.188935234555647"><ele>284.0</ele><time>2026-04-06T17:24:22.999Z</time></trkpt><trkpt lat="43.65234641452032" lon="11.188885998052934"><ele>284.0</ele><time>2026-04-06T17:24:23.999Z</time></trkpt><trkpt lat="43.65224975946937" lon="11.188843379891997"><ele>284.0</ele><time>2026-04-06T17:24:24.999Z</time></trkpt><trkpt lat="43.65216346367358" lon="11.188768802977565"><ele>284.0</ele><time>2026-04-06T17:24:25.999Z</time></trkpt><trkpt lat="43.652096240251204" lon="11.188646470501698"><ele>284.0</ele><time>2026-04-06T17:24:26.999Z</time></trkpt><trkpt lat="43.652056460645824" lon="11.188496860228236"><ele>284.0</ele><time>2026-04-06T17:24:27.999Z</time></trkpt><trkpt lat="43.65205232164359" lon="11.188346153079626"><ele>284.0</ele><time>2026-04-06T17:24:28.999Z</time></trkpt><trkpt lat="43.65207267457666" lon="11.188162941209528"><ele>284.0</ele><time>2026-04-06T17:24:29.999Z</time></trkpt><trkpt lat="43.6521015915377" lon="11.187985695266155"><ele>285.25</ele><time>2026-04-06T17:24:30.999Z</time></trkpt><trkpt lat="43.65213050581361" lon="11.187818398895859"><ele>286.5</ele><time>2026-04-06T17:24:31.999Z</time></trkpt><trkpt lat="43.65215951109208" lon="11.187666733171254"><ele>287.75</ele><time>2026-04-06T17:24:32.999Z</time></trkpt><trkpt lat="43.65218472909605" lon="11.18751925061415"><ele>289.0</ele><time>2026-04-06T17:24:33.999Z</time></trkpt><trkpt lat="43.65220921080117" lon="11.18737862237218"><ele>287.0</ele><time>2026-04-06T17:24:34.999Z</time></trkpt><trkpt lat="43.65224279488814" lon="11.187239314560246"><ele>285.0</ele><time>2026-04-06T17:24:35.999Z</time></trkpt><trkpt lat="43.65230150809762" lon="11.187127809947135"><ele>283.0</ele><time>2026-04-06T17:24:36.999Z</time></trkpt><trkpt lat="43.652371616697025" lon="11.187047021460256"><ele>281.0</ele><time>2026-04-06T17:24:37.999Z</time></trkpt><trkpt lat="43.65242733132161" lon="11.187004145909318"><ele>279.0</ele><time>2026-04-06T17:24:38.999Z</time></trkpt><trkpt lat="43.65249673213005" lon="11.187007681495379"><ele>277.0</ele><time>2026-04-06T17:24:41.999Z</time></trkpt><trkpt lat="43.65256983099523" lon="11.187005320629495"><ele>277.0</ele><time>2026-04-06T17:24:43.999Z</time></trkpt><trkpt lat="43.652634377951095" lon="11.187014919311155"><ele>277.0</ele><time>2026-04-06T17:24:44.999Z</time></trkpt><trkpt lat="43.65270059908088" lon="11.187039909496558"><ele>277.0</ele><time>2026-04-06T17:24:45.999Z</time></trkpt><trkpt lat="43.652775074747524" lon="11.187075051461605"><ele>277.0</ele><time>2026-04-06T17:24:46.999Z</time></trkpt><trkpt lat="43.65285142063462" lon="11.187114879550913"><ele>277.0</ele><time>2026-04-06T17:24:47.999Z</time></trkpt><trkpt lat="43.6529239318443" lon="11.187157925377715"><ele>277.0</ele><time>2026-04-06T17:24:49.001Z</time></trkpt><trkpt lat="43.652996883181565" lon="11.187201868606024"><ele>277.2</ele><time>2026-04-06T17:24:50.001Z</time></trkpt><trkpt lat="43.6530709471693" lon="11.187241018894719"><ele>277.4</ele><time>2026-04-06T17:24:51.001Z</time></trkpt><trkpt lat="43.6531460424146" lon="11.187275651504573"><ele>277.6</ele><time>2026-04-06T17:24:52.001Z</time></trkpt><trkpt lat="43.65322294977943" lon="11.187305592374807"><ele>277.8</ele><time>2026-04-06T17:24:53.001Z</time></trkpt><trkpt lat="43.653325870848775" lon="11.187334529393247"><ele>278.0</ele><time>2026-04-06T17:24:55.001Z</time></trkpt><trkpt lat="43.65345389376183" lon="11.187338890306405"><ele>278.0</ele><time>2026-04-06T17:24:57.001Z</time></trkpt><trkpt lat="43.65352697244152" lon="11.187330931135834"><ele>278.0</ele><time>2026-04-06T17:24:58.001Z</time></trkpt><trkpt lat="43.65361154912672" lon="11.187310179079125"><ele>278.0</ele><time>2026-04-06T17:24:59.001Z</time></trkpt><trkpt lat="43.65368854840147" lon="11.187278455448483"><ele>278.0</ele><time>2026-04-06T17:25:00.001Z</time></trkpt><trkpt lat="43.653749015894356" lon="11.187250974104602"><ele>278.0</ele><time>2026-04-06T17:25:01.001Z</time></trkpt><trkpt lat="43.653821905579164" lon="11.187217942402796"><ele>278.0</ele><time>2026-04-06T17:25:03.001Z</time></trkpt><trkpt lat="43.653909147381114" lon="11.18717863186456"><ele>279.5</ele><time>2026-04-06T17:25:05.001Z</time></trkpt><trkpt lat="43.653980319766546" lon="11.187146562093078"><ele>281.0</ele><time>2026-04-06T17:25:06.001Z</time></trkpt><trkpt lat="43.65405516355788" lon="11.187112838014047"><ele>282.5</ele><time>2026-04-06T17:25:07Z</time></trkpt><trkpt lat="43.65412719069548" lon="11.18708038309479"><ele>284.0</ele><time>2026-04-06T17:25:08Z</time></trkpt><trkpt lat="43.65419229395216" lon="11.187050588976415"><ele>285.5</ele><time>2026-04-06T17:25:09Z</time></trkpt><trkpt lat="43.6542986863168" lon="11.18700911653152"><ele>287.0</ele><time>2026-04-06T17:25:11Z</time></trkpt><trkpt lat="43.65440331750854" lon="11.186978775364329"><ele>289.0</ele><time>2026-04-06T17:25:13Z</time></trkpt><trkpt lat="43.65449811035995" lon="11.186968015929091"><ele>291.0</ele><time>2026-04-06T17:25:15Z</time></trkpt><trkpt lat="43.654586180379894" lon="11.186950755589082"><ele>293.0</ele><time>2026-04-06T17:25:17Z</time></trkpt><trkpt lat="43.65464832854482" lon="11.186986229754982"><ele>295.0</ele><time>2026-04-06T17:25:18Z</time></trkpt><trkpt lat="43.65472317825642" lon="11.186992847073917"><ele>297.0</ele><time>2026-04-06T17:25:19Z</time></trkpt><trkpt lat="43.65479498498168" lon="11.18703120401226"><ele>299.0</ele><time>2026-04-06T17:25:20Z</time></trkpt><trkpt lat="43.654901734434546" lon="11.187095327115609"><ele>299.0</ele><time>2026-04-06T17:25:22Z</time></trkpt><trkpt lat="43.65498972278812" lon="11.18713801828123"><ele>299.0</ele><time>2026-04-06T17:25:24Z</time></trkpt><trkpt lat="43.6550412310592" lon="11.187188264969718"><ele>299.0</ele><time>2026-04-06T17:25:25Z</time></trkpt><trkpt lat="43.65514506353011" lon="11.187252175440317"><ele>299.0</ele><time>2026-04-06T17:25:27Z</time></trkpt><trkpt lat="43.655244165661486" lon="11.187298603423761"><ele>299.0</ele><time>2026-04-06T17:25:29Z</time></trkpt><trkpt lat="43.655305536854875" lon="11.187345495018105"><ele>299.0</ele><time>2026-04-06T17:25:31Z</time></trkpt><trkpt lat="43.65537397381142" lon="11.187377829350343"><ele>299.6666666666667</ele><time>2026-04-06T17:25:36Z</time></trkpt><trkpt lat="43.65543503446486" lon="11.187422004811623"><ele>300.33333333333337</ele><time>2026-04-06T17:25:38Z</time></trkpt><trkpt lat="43.655499354787466" lon="11.187481055387137"><ele>301.0</ele><time>2026-04-06T17:25:41Z</time></trkpt><trkpt lat="43.65555223224524" lon="11.187559895452766"><ele>301.6666666666667</ele><time>2026-04-06T17:25:43Z</time></trkpt><trkpt lat="43.655662209026275" lon="11.187574746015207"><ele>302.3333333333333</ele><time>2026-04-06T17:25:45Z</time></trkpt><trkpt lat="43.65574305994717" lon="11.18752942249255"><ele>303.0</ele><time>2026-04-06T17:25:46Z</time></trkpt><trkpt lat="43.65581828702304" lon="11.187494015140558"><ele>303.0</ele><time>2026-04-06T17:25:47Z</time></trkpt><trkpt lat="43.65590000412525" lon="11.18747433002547"><ele>303.0</ele><time>2026-04-06T17:25:48Z</time></trkpt><trkpt lat="43.65599218664069" lon="11.187463111677868"><ele>303.0</ele><time>2026-04-06T17:25:49Z</time></trkpt><trkpt lat="43.65608026355684" lon="11.187467938094448"><ele>303.0</ele><time>2026-04-06T17:25:50Z</time></trkpt><trkpt lat="43.65616239753346" lon="11.187479381130478"><ele>303.0</ele><time>2026-04-06T17:25:51Z</time></trkpt><trkpt lat="43.65624628104957" lon="11.187499462952877"><ele>303.0</ele><time>2026-04-06T17:25:52Z</time></trkpt><trkpt lat="43.656327898729764" lon="11.187522516392688"><ele>303.6</ele><time>2026-04-06T17:25:53Z</time></trkpt><trkpt lat="43.656412970715174" lon="11.18754755549698"><ele>304.20000000000005</ele><time>2026-04-06T17:25:54Z</time></trkpt><trkpt lat="43.65650343695885" lon="11.187578997318088"><ele>304.8</ele><time>2026-04-06T17:25:55Z</time></trkpt><trkpt lat="43.65659922887362" lon="11.187616683994662"><ele>305.40000000000003</ele><time>2026-04-06T17:25:56Z</time></trkpt><trkpt lat="43.65670614362104" lon="11.187664437045939"><ele>306.0</ele><time>2026-04-06T17:25:57Z</time></trkpt><trkpt lat="43.65681230257181" lon="11.187739953319996"><ele>306.0</ele><time>2026-04-06T17:25:58Z</time></trkpt><trkpt lat="43.656919153328424" lon="11.187792980864169"><ele>306.0</ele><time>2026-04-06T17:25:59Z</time></trkpt><trkpt lat="43.65702942036698" lon="11.187825583083097"><ele>306.0</ele><time>2026-04-06T17:26:00Z</time></trkpt><trkpt lat="43.657124210337734" lon="11.187876142372382"><ele>306.0</ele><time>2026-04-06T17:26:01Z</time></trkpt><trkpt lat="43.6572156617484" lon="11.187922967494265"><ele>306.0</ele><time>2026-04-06T17:26:02Z</time></trkpt><trkpt lat="43.65730576751905" lon="11.187968837764675"><ele>306.5</ele><time>2026-04-06T17:26:03Z</time></trkpt><trkpt lat="43.65739542211401" lon="11.188013329850564"><ele>307.0</ele><time>2026-04-06T17:26:04Z</time></trkpt><trkpt lat="43.65748401560582" lon="11.188058288786799"><ele>307.5</ele><time>2026-04-06T17:26:05Z</time></trkpt><trkpt lat="43.65757234150345" lon="11.188102634962123"><ele>308.0</ele><time>2026-04-06T17:26:06Z</time></trkpt><trkpt lat="43.657649760374234" lon="11.188140861326355"><ele>308.5</ele><time>2026-04-06T17:26:07Z</time></trkpt><trkpt lat="43.657719826238285" lon="11.188175616087745"><ele>309.0</ele><time>2026-04-06T17:26:07.999Z</time></trkpt><trkpt lat="43.657784489727526" lon="11.188210071337677"><ele>308.3333333333333</ele><time>2026-04-06T17:26:08.999Z</time></trkpt><trkpt lat="43.657851612412216" lon="11.188245914881984"><ele>307.6666666666667</ele><time>2026-04-06T17:26:09.999Z</time></trkpt><trkpt lat="43.65792393608129" lon="11.188281419634825"><ele>307.0</ele><time>2026-04-06T17:26:10.999Z</time></trkpt><trkpt lat="43.65799917028902" lon="11.18831820271797"><ele>306.33333333333337</ele><time>2026-04-06T17:26:11.999Z</time></trkpt><trkpt lat="43.65807351474247" lon="11.188364938650825"><ele>305.6666666666667</ele><time>2026-04-06T17:26:12.999Z</time></trkpt><trkpt lat="43.65814162899276" lon="11.188430416733468"><ele>305.0</ele><time>2026-04-06T17:26:13.999Z</time></trkpt><trkpt lat="43.65820476129338" lon="11.188503121154058"><ele>305.0</ele><time>2026-04-06T17:26:14.999Z</time></trkpt><trkpt lat="43.65826571131299" lon="11.188572348560864"><ele>305.0</ele><time>2026-04-06T17:26:15.999Z</time></trkpt><trkpt lat="43.65832485777906" lon="11.188629437473473"><ele>305.0</ele><time>2026-04-06T17:26:16.999Z</time></trkpt><trkpt lat="43.658393665858306" lon="11.188687565703558"><ele>305.0</ele><time>2026-04-06T17:26:17.999Z</time></trkpt><trkpt lat="43.658467425565675" lon="11.188745900762987"><ele>305.0</ele><time>2026-04-06T17:26:18.999Z</time></trkpt><trkpt lat="43.658537492348415" lon="11.188811282712322"><ele>305.0</ele><time>2026-04-06T17:26:19.999Z</time></trkpt><trkpt lat="43.65861073804168" lon="11.18888265530438"><ele>304.6666666666667</ele><time>2026-04-06T17:26:20.999Z</time></trkpt><trkpt lat="43.658672432492544" lon="11.188947262747512"><ele>304.33333333333337</ele><time>2026-04-06T17:26:21.999Z</time></trkpt><trkpt lat="43.65872802482796" lon="11.18900813466766"><ele>304.0</ele><time>2026-04-06T17:26:22.999Z</time></trkpt><trkpt lat="43.658789963432405" lon="11.189082422592787"><ele>303.6666666666667</ele><time>2026-04-06T17:26:23.999Z</time></trkpt><trkpt lat="43.65886029898745" lon="11.189163791617915"><ele>303.3333333333333</ele><time>2026-04-06T17:26:24.999Z</time></trkpt><trkpt lat="43.65894775063013" lon="11.189238972745223"><ele>303.0</ele><time>2026-04-06T17:26:25.999Z</time></trkpt><trkpt lat="43.659043862003685" lon="11.189311852588162"><ele>303.0</ele><time>2026-04-06T17:26:26.999Z</time></trkpt><trkpt lat="43.65914637115989" lon="11.189370214961704"><ele>303.0</ele><time>2026-04-06T17:26:27.999Z</time></trkpt><trkpt lat="43.659245057627864" lon="11.189420349012462"><ele>303.0</ele><time>2026-04-06T17:26:28.999Z</time></trkpt><trkpt lat="43.6593411896147" lon="11.189470724781057"><ele>303.0</ele><time>2026-04-06T17:26:29.999Z</time></trkpt><trkpt lat="43.65943201383943" lon="11.189524628011847"><ele>303.0</ele><time>2026-04-06T17:26:30.999Z</time></trkpt><trkpt lat="43.6595280329093" lon="11.189591314240923"><ele>302.25</ele><time>2026-04-06T17:26:31.999Z</time></trkpt><trkpt lat="43.65962480643425" lon="11.189665696303798"><ele>301.5</ele><time>2026-04-06T17:26:32.999Z</time></trkpt><trkpt lat="43.659725304950854" lon="11.189750746725755"><ele>300.75</ele><time>2026-04-06T17:26:33.999Z</time></trkpt><trkpt lat="43.65982588600836" lon="11.189836625602474"><ele>300.0</ele><time>2026-04-06T17:26:34.999Z</time></trkpt><trkpt lat="43.659929646503414" lon="11.189922451889435"><ele>300.0</ele><time>2026-04-06T17:26:35.999Z</time></trkpt><trkpt lat="43.66003690295774" lon="11.19001154966837"><ele>300.0</ele><time>2026-04-06T17:26:36.999Z</time></trkpt><trkpt lat="43.66014204346913" lon="11.190100505954216"><ele>300.0</ele><time>2026-04-06T17:26:37.999Z</time></trkpt><trkpt lat="43.660250208032025" lon="11.190194192447558"><ele>300.0</ele><time>2026-04-06T17:26:38.999Z</time></trkpt><trkpt lat="43.6603586348089" lon="11.190283769847849"><ele>297.75</ele><time>2026-04-06T17:26:39.999Z</time></trkpt><trkpt lat="43.660470898111654" lon="11.190366959080423"><ele>295.5</ele><time>2026-04-06T17:26:40.999Z</time></trkpt><trkpt lat="43.660588056175065" lon="11.190436650530168"><ele>293.25</ele><time>2026-04-06T17:26:41.999Z</time></trkpt><trkpt lat="43.66071137268293" lon="11.190486541581318"><ele>291.0</ele><time>2026-04-06T17:26:42.999Z</time></trkpt><trkpt lat="43.660838853246005" lon="11.19051921807502"><ele>291.0</ele><time>2026-04-06T17:26:43.999Z</time></trkpt><trkpt lat="43.660969521792985" lon="11.190548198387397"><ele>291.0</ele><time>2026-04-06T17:26:44.999Z</time></trkpt><trkpt lat="43.66109966336289" lon="11.190576529452574"><ele>291.0</ele><time>2026-04-06T17:26:45.999Z</time></trkpt><trkpt lat="43.66122460527501" lon="11.190610195569098"><ele>291.0</ele><time>2026-04-06T17:26:46.999Z</time></trkpt><trkpt lat="43.66134314624915" lon="11.190642552343716"><ele>291.2</ele><time>2026-04-06T17:26:47.999Z</time></trkpt><trkpt lat="43.661460124791304" lon="11.190670976168507"><ele>291.40000000000003</ele><time>2026-04-06T17:26:48.999Z</time></trkpt><trkpt lat="43.66157290246966" lon="11.190697496501892"><ele>291.6</ele><time>2026-04-06T17:26:49.999Z</time></trkpt><trkpt lat="43.661673351969526" lon="11.190724954141334"><ele>291.8</ele><time>2026-04-06T17:26:50.999Z</time></trkpt><trkpt lat="43.66176893634509" lon="11.190768886782612"><ele>292.0</ele><time>2026-04-06T17:26:51.999Z</time></trkpt><trkpt lat="43.66185371382274" lon="11.190807593541145"><ele>292.0</ele><time>2026-04-06T17:26:52.999Z</time></trkpt><trkpt lat="43.66192841338768" lon="11.19085348879342"><ele>292.0</ele><time>2026-04-06T17:26:53.999Z</time></trkpt><trkpt lat="43.66199690438446" lon="11.190906654685621"><ele>292.0</ele><time>2026-04-06T17:26:55.001Z</time></trkpt><trkpt lat="43.66204795290777" lon="11.190981922748794"><ele>292.0</ele><time>2026-04-06T17:26:56.001Z</time></trkpt><trkpt lat="43.66207540776944" lon="11.19107688250585"><ele>292.0</ele><time>2026-04-06T17:26:57.001Z</time></trkpt><trkpt lat="43.662090441758096" lon="11.19118731505488"><ele>292.0</ele><time>2026-04-06T17:26:58.001Z</time></trkpt><trkpt lat="43.66212531961305" lon="11.191288398896411"><ele>290.6</ele><time>2026-04-06T17:26:59.001Z</time></trkpt><trkpt lat="43.66217073209169" lon="11.191360456048153"><ele>289.2</ele><time>2026-04-06T17:27:00.001Z</time></trkpt><trkpt lat="43.66228174485782" lon="11.191410202306791"><ele>287.8</ele><time>2026-04-06T17:27:02.001Z</time></trkpt><trkpt lat="43.662398957925774" lon="11.19130208179855"><ele>286.4</ele><time>2026-04-06T17:27:04.001Z</time></trkpt><trkpt lat="43.66246385603173" lon="11.191234027918373"><ele>285.0</ele><time>2026-04-06T17:27:05.001Z</time></trkpt><trkpt lat="43.66251302700805" lon="11.19116775655232"><ele>285.0</ele><time>2026-04-06T17:27:06.001Z</time></trkpt><trkpt lat="43.6626000244587" lon="11.191168894440702"><ele>285.0</ele><time>2026-04-06T17:27:07.001Z</time></trkpt><trkpt lat="43.66271254714137" lon="11.19120250137143"><ele>285.0</ele><time>2026-04-06T17:27:08.001Z</time></trkpt><trkpt lat="43.66283415289835" lon="11.191233970000985"><ele>285.0</ele><time>2026-04-06T17:27:09.001Z</time></trkpt><trkpt lat="43.66297444083359" lon="11.191249214656274"><ele>283.6666666666667</ele><time>2026-04-06T17:27:10.001Z</time></trkpt><trkpt lat="43.66315003235311" lon="11.191271938140599"><ele>282.33333333333337</ele><time>2026-04-06T17:27:11Z</time></trkpt><trkpt lat="43.66333965968294" lon="11.191322366864568"><ele>281.0</ele><time>2026-04-06T17:27:12Z</time></trkpt><trkpt lat="43.66352046641069" lon="11.191370642111071"><ele>281.33333333333337</ele><time>2026-04-06T17:27:13Z</time></trkpt><trkpt lat="43.66369547998808" lon="11.191444536324513"><ele>281.6666666666667</ele><time>2026-04-06T17:27:14Z</time></trkpt><trkpt lat="43.6638697118541" lon="11.191491141427067"><ele>282.0</ele><time>2026-04-06T17:27:15Z</time></trkpt><trkpt lat="43.66404889686421" lon="11.191609739804091"><ele>282.0</ele><time>2026-04-06T17:27:16Z</time></trkpt><trkpt lat="43.66422888758397" lon="11.191768521561988"><ele>282.0</ele><time>2026-04-06T17:27:17Z</time></trkpt><trkpt lat="43.66440310930445" lon="11.191921971174231"><ele>282.0</ele><time>2026-04-06T17:27:18Z</time></trkpt><trkpt lat="43.664567516272044" lon="11.19207871497241"><ele>282.0</ele><time>2026-04-06T17:27:19Z</time></trkpt><trkpt lat="43.66472597205499" lon="11.192267524175696"><ele>282.0</ele><time>2026-04-06T17:27:20Z</time></trkpt><trkpt lat="43.66488273325195" lon="11.192457498659776"><ele>282.0</ele><time>2026-04-06T17:27:21Z</time></trkpt><trkpt lat="43.66504133018305" lon="11.192641672379235"><ele>282.0</ele><time>2026-04-06T17:27:22Z</time></trkpt><trkpt lat="43.66519514316842" lon="11.19281480087919"><ele>282.0</ele><time>2026-04-06T17:27:23Z</time></trkpt><trkpt lat="43.66533422862741" lon="11.192980637296161"><ele>282.0</ele><time>2026-04-06T17:27:24Z</time></trkpt><trkpt lat="43.66545904465017" lon="11.19316736691523"><ele>283.6666666666667</ele><time>2026-04-06T17:27:25Z</time></trkpt><trkpt lat="43.66558820360066" lon="11.193372503443575"><ele>285.33333333333337</ele><time>2026-04-06T17:27:26Z</time></trkpt><trkpt lat="43.66572020882671" lon="11.19356330671197"><ele>287.0</ele><time>2026-04-06T17:27:27Z</time></trkpt><trkpt lat="43.6658580994097" lon="11.193743205615347"><ele>287.0</ele><time>2026-04-06T17:27:28Z</time></trkpt><trkpt lat="43.66599751922034" lon="11.193916395602178"><ele>287.0</ele><time>2026-04-06T17:27:29Z</time></trkpt><trkpt lat="43.666136156363805" lon="11.194092602537232"><ele>287.0</ele><time>2026-04-06T17:27:30Z</time></trkpt><trkpt lat="43.666261971809085" lon="11.19429575787356"><ele>284.6666666666667</ele><time>2026-04-06T17:27:31Z</time></trkpt><trkpt lat="43.66640337093188" lon="11.194467676436068"><ele>282.3333333333333</ele><time>2026-04-06T17:27:32Z</time></trkpt><trkpt lat="43.66654730087008" lon="11.19467256799337"><ele>280.0</ele><time>2026-04-06T17:27:33Z</time></trkpt><trkpt lat="43.66669183593047" lon="11.194866220230834"><ele>280.0</ele><time>2026-04-06T17:27:34Z</time></trkpt><trkpt lat="43.66684245728573" lon="11.195057319294783"><ele>280.0</ele><time>2026-04-06T17:27:35Z</time></trkpt><trkpt lat="43.666993605933456" lon="11.19524663029423"><ele>280.0</ele><time>2026-04-06T17:27:36Z</time></trkpt><trkpt lat="43.667140309336595" lon="11.195432563894437"><ele>278.0</ele><time>2026-04-06T17:27:37Z</time></trkpt><trkpt lat="43.667283361248394" lon="11.195624386875984"><ele>276.0</ele><time>2026-04-06T17:27:38Z</time></trkpt><trkpt lat="43.667458708786604" lon="11.195758085210864"><ele>274.0</ele><time>2026-04-06T17:27:39Z</time></trkpt><trkpt lat="43.66762851924102" lon="11.195892678155893"><ele>270.3333333333333</ele><time>2026-04-06T17:27:40Z</time></trkpt><trkpt lat="43.66780319278026" lon="11.196024735783876"><ele>266.6666666666667</ele><time>2026-04-06T17:27:41Z</time></trkpt><trkpt lat="43.667970446607626" lon="11.196160807135827"><ele>263.0</ele><time>2026-04-06T17:27:42Z</time></trkpt><trkpt lat="43.66813962212809" lon="11.196301474905043"><ele>263.0</ele><time>2026-04-06T17:27:43Z</time></trkpt><trkpt lat="43.66830494687133" lon="11.196434748726354"><ele>263.0</ele><time>2026-04-06T17:27:44Z</time></trkpt><trkpt lat="43.66846952504705" lon="11.196558343913308"><ele>263.0</ele><time>2026-04-06T17:27:45Z</time></trkpt><trkpt lat="43.668632170293975" lon="11.196664886342464"><ele>263.6666666666667</ele><time>2026-04-06T17:27:46Z</time></trkpt><trkpt lat="43.668787756255774" lon="11.19674122552874"><ele>264.3333333333333</ele><time>2026-04-06T17:27:47Z</time></trkpt><trkpt lat="43.66894420232606" lon="11.19678629368409"><ele>265.0</ele><time>2026-04-06T17:27:48Z</time></trkpt><trkpt lat="43.66910423909637" lon="11.196781265189458"><ele>265.0</ele><time>2026-04-06T17:27:49Z</time></trkpt><trkpt lat="43.66927703318012" lon="11.196745554024044"><ele>265.0</ele><time>2026-04-06T17:27:50Z</time></trkpt><trkpt lat="43.6694620649395" lon="11.196691772206332"><ele>265.0</ele><time>2026-04-06T17:27:51Z</time></trkpt><trkpt lat="43.66966014938487" lon="11.196643965825215"><ele>265.0</ele><time>2026-04-06T17:27:52Z</time></trkpt><trkpt lat="43.669861052291125" lon="11.196574323776815"><ele>265.0</ele><time>2026-04-06T17:27:53Z</time></trkpt><trkpt lat="43.67005642813321" lon="11.196486157834837"><ele>265.0</ele><time>2026-04-06T17:27:54Z</time></trkpt><trkpt lat="43.67024186816051" lon="11.196388745633172"><ele>264.3333333333333</ele><time>2026-04-06T17:27:55Z</time></trkpt><trkpt lat="43.67042701324147" lon="11.196291919836085"><ele>263.6666666666667</ele><time>2026-04-06T17:27:56Z</time></trkpt><trkpt lat="43.67059394585793" lon="11.196184755023207"><ele>263.0</ele><time>2026-04-06T17:27:57Z</time></trkpt><trkpt lat="43.67076230383362" lon="11.196104792622885"><ele>263.0</ele><time>2026-04-06T17:27:58Z</time></trkpt><trkpt lat="43.670923579840355" lon="11.196051776311824"><ele>263.0</ele><time>2026-04-06T17:27:59Z</time></trkpt><trkpt lat="43.67107517002899" lon="11.195976336567192"><ele>263.0</ele><time>2026-04-06T17:28:00Z</time></trkpt><trkpt lat="43.6712219319642" lon="11.195871246358287"><ele>262.6666666666667</ele><time>2026-04-06T17:28:01Z</time></trkpt><trkpt lat="43.6713446183372" lon="11.19573250560147"><ele>262.3333333333333</ele><time>2026-04-06T17:28:02Z</time></trkpt><trkpt lat="43.67147509674357" lon="11.195598421807842"><ele>262.0</ele><time>2026-04-06T17:28:03Z</time></trkpt><trkpt lat="43.67159707858468" lon="11.195459928678664"><ele>262.0</ele><time>2026-04-06T17:28:04Z</time></trkpt><trkpt lat="43.67172128467353" lon="11.195315854194616"><ele>262.0</ele><time>2026-04-06T17:28:05Z</time></trkpt><trkpt lat="43.671850932807054" lon="11.195188622154639"><ele>262.0</ele><time>2026-04-06T17:28:06Z</time></trkpt><trkpt lat="43.671972827207306" lon="11.19505189573288"><ele>262.75</ele><time>2026-04-06T17:28:07Z</time></trkpt><trkpt lat="43.672091286860955" lon="11.194944217194795"><ele>263.5</ele><time>2026-04-06T17:28:08Z</time></trkpt><trkpt lat="43.672231719957566" lon="11.194862643613883"><ele>264.25</ele><time>2026-04-06T17:28:09Z</time></trkpt><trkpt lat="43.672381972939554" lon="11.194809782429726"><ele>265.0</ele><time>2026-04-06T17:28:10Z</time></trkpt><trkpt lat="43.67254199766242" lon="11.194769899020484"><ele>265.0</ele><time>2026-04-06T17:28:10.999Z</time></trkpt><trkpt lat="43.67270064144509" lon="11.19473171476952"><ele>265.0</ele><time>2026-04-06T17:28:11.999Z</time></trkpt><trkpt lat="43.67285749176986" lon="11.194688425916393"><ele>265.0</ele><time>2026-04-06T17:28:12.999Z</time></trkpt><trkpt lat="43.67300646894975" lon="11.194620865893768"><ele>264.75</ele><time>2026-04-06T17:28:13.999Z</time></trkpt><trkpt lat="43.673155005449416" lon="11.194591666984527"><ele>264.5</ele><time>2026-04-06T17:28:14.999Z</time></trkpt><trkpt lat="43.6732977973949" lon="11.19452499426166"><ele>264.25</ele><time>2026-04-06T17:28:15.999Z</time></trkpt><trkpt lat="43.67343279136045" lon="11.194452646309811"><ele>264.0</ele><time>2026-04-06T17:28:16.999Z</time></trkpt><trkpt lat="43.673561779696335" lon="11.194384548102876"><ele>261.75</ele><time>2026-04-06T17:28:17.999Z</time></trkpt><trkpt lat="43.67369384417214" lon="11.194327426707728"><ele>259.5</ele><time>2026-04-06T17:28:18.999Z</time></trkpt><trkpt lat="43.673818246972594" lon="11.194262952451304"><ele>257.25</ele><time>2026-04-06T17:28:19.999Z</time></trkpt><trkpt lat="43.67394789936772" lon="11.1942302226065"><ele>255.0</ele><time>2026-04-06T17:28:20.999Z</time></trkpt><trkpt lat="43.674072951524494" lon="11.194213016761593"><ele>255.0</ele><time>2026-04-06T17:28:21.999Z</time></trkpt><trkpt lat="43.67418682030608" lon="11.194212403458149"><ele>255.0</ele><time>2026-04-06T17:28:22.999Z</time></trkpt><trkpt lat="43.674299561757294" lon="11.19422500679166"><ele>255.0</ele><time>2026-04-06T17:28:23.999Z</time></trkpt><trkpt lat="43.67440909462945" lon="11.194237462189609"><ele>255.0</ele><time>2026-04-06T17:28:24.999Z</time></trkpt><trkpt lat="43.67452045543779" lon="11.194243321355222"><ele>255.0</ele><time>2026-04-06T17:28:25.999Z</time></trkpt><trkpt lat="43.67463061334024" lon="11.194243085861292"><ele>253.8</ele><time>2026-04-06T17:28:26.999Z</time></trkpt><trkpt lat="43.674734926517075" lon="11.194238450183018"><ele>252.6</ele><time>2026-04-06T17:28:27.999Z</time></trkpt><trkpt lat="43.674842089284994" lon="11.194235834789177"><ele>251.39999999999998</ele><time>2026-04-06T17:28:28.999Z</time></trkpt><trkpt lat="43.674952200874245" lon="11.194230600267971"><ele>250.2</ele><time>2026-04-06T17:28:29.999Z</time></trkpt><trkpt lat="43.67506651880807" lon="11.194221805789715"><ele>249.0</ele><time>2026-04-06T17:28:30.999Z</time></trkpt><trkpt lat="43.67518174095756" lon="11.194212531979709"><ele>250.25</ele><time>2026-04-06T17:28:31.999Z</time></trkpt><trkpt lat="43.67529508338618" lon="11.19419845980283"><ele>251.5</ele><time>2026-04-06T17:28:32.999Z</time></trkpt><trkpt lat="43.67541081030209" lon="11.194182576648089"><ele>252.75</ele><time>2026-04-06T17:28:33.999Z</time></trkpt><trkpt lat="43.675528277525956" lon="11.19418202451036"><ele>254.0</ele><time>2026-04-06T17:28:34.999Z</time></trkpt><trkpt lat="43.675640118479464" lon="11.194129772802231"><ele>254.0</ele><time>2026-04-06T17:28:35.999Z</time></trkpt><trkpt lat="43.67575655425652" lon="11.194087568853703"><ele>254.0</ele><time>2026-04-06T17:28:36.999Z</time></trkpt><trkpt lat="43.675872147788795" lon="11.194027786271253"><ele>254.0</ele><time>2026-04-06T17:28:37.999Z</time></trkpt><trkpt lat="43.67599131795859" lon="11.19394931396854"><ele>254.0</ele><time>2026-04-06T17:28:38.999Z</time></trkpt><trkpt lat="43.67612022486901" lon="11.193890751722416"><ele>256.0</ele><time>2026-04-06T17:28:39.999Z</time></trkpt><trkpt lat="43.676247740975995" lon="11.19381216843109"><ele>258.0</ele><time>2026-04-06T17:28:40.999Z</time></trkpt><trkpt lat="43.67637345203245" lon="11.193731803456531"><ele>260.0</ele><time>2026-04-06T17:28:41.999Z</time></trkpt><trkpt lat="43.67649798257188" lon="11.193648300668295"><ele>262.0</ele><time>2026-04-06T17:28:42.999Z</time></trkpt><trkpt lat="43.67661476252581" lon="11.193569401820875"><ele>262.0</ele><time>2026-04-06T17:28:43.999Z</time></trkpt><trkpt lat="43.67672856660229" lon="11.193491865017043"><ele>262.0</ele><time>2026-04-06T17:28:44.999Z</time></trkpt><trkpt lat="43.67683075607887" lon="11.193422241466108"><ele>262.0</ele><time>2026-04-06T17:28:45.999Z</time></trkpt><trkpt lat="43.67692580959374" lon="11.193350401137915"><ele>262.0</ele><time>2026-04-06T17:28:46.999Z</time></trkpt><trkpt lat="43.677012716192436" lon="11.193243022141386"><ele>261.6</ele><time>2026-04-06T17:28:47.999Z</time></trkpt><trkpt lat="43.67710298940251" lon="11.193148156877536"><ele>261.2</ele><time>2026-04-06T17:28:48.999Z</time></trkpt><trkpt lat="43.67718359475609" lon="11.193048630682467"><ele>260.8</ele><time>2026-04-06T17:28:49.999Z</time></trkpt><trkpt lat="43.677261959733144" lon="11.192953628305709"><ele>260.4</ele><time>2026-04-06T17:28:50.999Z</time></trkpt><trkpt lat="43.67733918723032" lon="11.192865213770439"><ele>260.0</ele><time>2026-04-06T17:28:51.999Z</time></trkpt><trkpt lat="43.67744178667151" lon="11.192790148016496"><ele>260.0</ele><time>2026-04-06T17:28:52.999Z</time></trkpt><trkpt lat="43.677532544321" lon="11.192704665996333"><ele>260.0</ele><time>2026-04-06T17:28:53.999Z</time></trkpt><trkpt lat="43.67761950461594" lon="11.192629723410501"><ele>260.0</ele><time>2026-04-06T17:28:54.999Z</time></trkpt><trkpt lat="43.67770605801422" lon="11.19256849294674"><ele>260.0</ele><time>2026-04-06T17:28:55.999Z</time></trkpt><trkpt lat="43.677795401832775" lon="11.192517684419816"><ele>260.0</ele><time>2026-04-06T17:28:56.999Z</time></trkpt><trkpt lat="43.67787772142372" lon="11.19247508295653"><ele>260.1666666666667</ele><time>2026-04-06T17:28:57.999Z</time></trkpt><trkpt lat="43.677951218793844" lon="11.192439106084837"><ele>260.33333333333337</ele><time>2026-04-06T17:28:58.999Z</time></trkpt><trkpt lat="43.67801900753407" lon="11.192384998380291"><ele>260.5</ele><time>2026-04-06T17:28:59.999Z</time></trkpt><trkpt lat="43.678085257070094" lon="11.192354327265132"><ele>260.6666666666667</ele><time>2026-04-06T17:29:01.001Z</time></trkpt><trkpt lat="43.67819371978096" lon="11.192335590781724"><ele>260.8333333333333</ele><time>2026-04-06T17:29:03Z</time></trkpt><trkpt lat="43.67826194749046" lon="11.192314234136253"><ele>261.0</ele><time>2026-04-06T17:29:05.001Z</time></trkpt><trkpt lat="43.67835332788198" lon="11.192294190454465"><ele>261.0</ele><time>2026-04-06T17:29:09Z</time></trkpt><trkpt lat="43.67844067212347" lon="11.192285832246702"><ele>261.0</ele><time>2026-04-06T17:29:11.001Z</time></trkpt><trkpt lat="43.678545251210465" lon="11.192290492208786"><ele>261.0</ele><time>2026-04-06T17:29:13Z</time></trkpt><trkpt lat="43.67867058769105" lon="11.192287836135314"><ele>261.0</ele><time>2026-04-06T17:29:15Z</time></trkpt><trkpt lat="43.67874546947572" lon="11.19231977594102"><ele>261.0</ele><time>2026-04-06T17:29:16Z</time></trkpt><trkpt lat="43.67882933804477" lon="11.192322940737482"><ele>261.6666666666667</ele><time>2026-04-06T17:29:17Z</time></trkpt><trkpt lat="43.67891502251571" lon="11.192322615207395"><ele>262.3333333333333</ele><time>2026-04-06T17:29:18Z</time></trkpt><trkpt lat="43.6790062310983" lon="11.192319653890486"><ele>263.0</ele><time>2026-04-06T17:29:19Z</time></trkpt><trkpt lat="43.67910049909405" lon="11.192313155434489"><ele>263.66666666666663</ele><time>2026-04-06T17:29:20Z</time></trkpt><trkpt lat="43.67918771621496" lon="11.192305722300466"><ele>264.3333333333333</ele><time>2026-04-06T17:29:21Z</time></trkpt><trkpt lat="43.67926701783337" lon="11.19229991316531"><ele>265.0</ele><time>2026-04-06T17:29:22Z</time></trkpt><trkpt lat="43.67934562245301" lon="11.192298706522429"><ele>265.0</ele><time>2026-04-06T17:29:23Z</time></trkpt><trkpt lat="43.67942274446805" lon="11.192304287253464"><ele>265.0</ele><time>2026-04-06T17:29:24Z</time></trkpt><trkpt lat="43.67950602179472" lon="11.192326846033685"><ele>265.0</ele><time>2026-04-06T17:29:25Z</time></trkpt><trkpt lat="43.67958651967169" lon="11.192364068118422"><ele>265.0</ele><time>2026-04-06T17:29:26Z</time></trkpt><trkpt lat="43.679671203273074" lon="11.192421229307167"><ele>265.0</ele><time>2026-04-06T17:29:27Z</time></trkpt><trkpt lat="43.67975648844702" lon="11.192483424893803"><ele>265.0</ele><time>2026-04-06T17:29:28Z</time></trkpt><trkpt lat="43.67983450788413" lon="11.19254653895289"><ele>265.0</ele><time>2026-04-06T17:29:29Z</time></trkpt><trkpt lat="43.67991334900935" lon="11.192614498961012"><ele>265.0</ele><time>2026-04-06T17:29:30Z</time></trkpt><trkpt lat="43.6799935483689" lon="11.192684262796076"><ele>265.0</ele><time>2026-04-06T17:29:31Z</time></trkpt><trkpt lat="43.680067839916354" lon="11.19274888742096"><ele>265.0</ele><time>2026-04-06T17:29:32Z</time></trkpt><trkpt lat="43.68014718823545" lon="11.192798406055434"><ele>265.0</ele><time>2026-04-06T17:29:33Z</time></trkpt><trkpt lat="43.68021138621932" lon="11.19286315026526"><ele>265.0</ele><time>2026-04-06T17:29:34Z</time></trkpt><trkpt lat="43.68027758677167" lon="11.192929158602908"><ele>265.0</ele><time>2026-04-06T17:29:35Z</time></trkpt><trkpt lat="43.680343506324" lon="11.192998025692143"><ele>265.0</ele><time>2026-04-06T17:29:36Z</time></trkpt><trkpt lat="43.680396715401635" lon="11.193087996131545"><ele>265.0</ele><time>2026-04-06T17:29:37Z</time></trkpt><trkpt lat="43.680471793568735" lon="11.193149790462437"><ele>265.0</ele><time>2026-04-06T17:29:38Z</time></trkpt><trkpt lat="43.68052103110063" lon="11.193243164639934"><ele>265.0</ele><time>2026-04-06T17:29:39Z</time></trkpt><trkpt lat="43.6805879377191" lon="11.193306105479184"><ele>265.0</ele><time>2026-04-06T17:29:40Z</time></trkpt><trkpt lat="43.68064219022939" lon="11.193384515466631"><ele>265.6</ele><time>2026-04-06T17:29:41Z</time></trkpt><trkpt lat="43.680701438610086" lon="11.193462773647914"><ele>266.2</ele><time>2026-04-06T17:29:42Z</time></trkpt><trkpt lat="43.68073860284303" lon="11.19355207402138"><ele>266.8</ele><time>2026-04-06T17:29:43Z</time></trkpt><trkpt lat="43.680779082263086" lon="11.193623652120248"><ele>267.4</ele><time>2026-04-06T17:29:44Z</time></trkpt><trkpt lat="43.68098773909353" lon="11.193563345134978"><ele>268.0</ele><time>2026-04-06T17:29:46Z</time></trkpt><trkpt lat="43.68110193903054" lon="11.193528354057785"><ele>268.0</ele><time>2026-04-06T17:29:47Z</time></trkpt><trkpt lat="43.68121883115094" lon="11.193468397592577"><ele>268.0</ele><time>2026-04-06T17:29:48Z</time></trkpt><trkpt lat="43.68133263622401" lon="11.193408926847976"><ele>268.0</ele><time>2026-04-06T17:29:49Z</time></trkpt><trkpt lat="43.68145928262463" lon="11.193341949408817"><ele>268.0</ele><time>2026-04-06T17:29:50Z</time></trkpt><trkpt lat="43.681597838424054" lon="11.19326708681256"><ele>268.0</ele><time>2026-04-06T17:29:51Z</time></trkpt><trkpt lat="43.681743403457574" lon="11.193190371580036"><ele>268.0</ele><time>2026-04-06T17:29:52Z</time></trkpt><trkpt lat="43.68189270369135" lon="11.193112387313809"><ele>268.0</ele><time>2026-04-06T17:29:53Z</time></trkpt><trkpt lat="43.68203404888447" lon="11.193055233870396"><ele>269.3333333333333</ele><time>2026-04-06T17:29:54Z</time></trkpt><trkpt lat="43.68217361835641" lon="11.192997618979685"><ele>270.6666666666667</ele><time>2026-04-06T17:29:55Z</time></trkpt><trkpt lat="43.682327870370955" lon="11.19300249602567"><ele>272.0</ele><time>2026-04-06T17:29:56Z</time></trkpt><trkpt lat="43.682493560199326" lon="11.192995806846321"><ele>272.0</ele><time>2026-04-06T17:29:57Z</time></trkpt><trkpt lat="43.6826699076517" lon="11.192969830514652"><ele>272.0</ele><time>2026-04-06T17:29:58Z</time></trkpt><trkpt lat="43.68284255631916" lon="11.192922281446585"><ele>272.0</ele><time>2026-04-06T17:29:59Z</time></trkpt><trkpt lat="43.683012688085924" lon="11.192864004136602"><ele>271.0</ele><time>2026-04-06T17:30:00Z</time></trkpt><trkpt lat="43.68319420201903" lon="11.192800486602907"><ele>270.0</ele><time>2026-04-06T17:30:01Z</time></trkpt><trkpt lat="43.68337775424924" lon="11.192736255777426"><ele>269.0</ele><time>2026-04-06T17:30:02Z</time></trkpt><trkpt lat="43.683564794875" lon="11.19267080422019"><ele>266.6666666666667</ele><time>2026-04-06T17:30:03Z</time></trkpt><trkpt lat="43.683749058111275" lon="11.19260632455726"><ele>264.3333333333333</ele><time>2026-04-06T17:30:04Z</time></trkpt><trkpt lat="43.68393490348305" lon="11.192541829079332"><ele>262.0</ele><time>2026-04-06T17:30:05Z</time></trkpt><trkpt lat="43.684118084291335" lon="11.19247622112824"><ele>262.0</ele><time>2026-04-06T17:30:06Z</time></trkpt><trkpt lat="43.684294152338246" lon="11.19238912112061"><ele>262.0</ele><time>2026-04-06T17:30:07Z</time></trkpt><trkpt lat="43.684479804022885" lon="11.192323985194259"><ele>262.0</ele><time>2026-04-06T17:30:08Z</time></trkpt><trkpt lat="43.684659329292906" lon="11.19224967215037"><ele>260.66666666666663</ele><time>2026-04-06T17:30:09Z</time></trkpt><trkpt lat="43.684841131380786" lon="11.192161491679265"><ele>259.3333333333333</ele><time>2026-04-06T17:30:10Z</time></trkpt><trkpt lat="43.68502944644474" lon="11.19209856638791"><ele>258.0</ele><time>2026-04-06T17:30:11Z</time></trkpt><trkpt lat="43.68522166625312" lon="11.192012494327802"><ele>259.3333333333333</ele><time>2026-04-06T17:30:12Z</time></trkpt><trkpt lat="43.68540178421626" lon="11.191935454045765"><ele>260.66666666666663</ele><time>2026-04-06T17:30:13Z</time></trkpt><trkpt lat="43.685570365322754" lon="11.191863894736885"><ele>262.0</ele><time>2026-04-06T17:30:14Z</time></trkpt><trkpt lat="43.68571938467643" lon="11.191804865597566"><ele>262.0</ele><time>2026-04-06T17:30:14.999Z</time></trkpt><trkpt lat="43.6858653025507" lon="11.19174645595454"><ele>262.0</ele><time>2026-04-06T17:30:15.999Z</time></trkpt><trkpt lat="43.68599287362911" lon="11.191661546974812"><ele>262.0</ele><time>2026-04-06T17:30:16.999Z</time></trkpt><trkpt lat="43.68611352716698" lon="11.191579668423383"><ele>262.0</ele><time>2026-04-06T17:30:17.999Z</time></trkpt><trkpt lat="43.68621838352759" lon="11.191473789212761"><ele>261.75</ele><time>2026-04-06T17:30:18.999Z</time></trkpt><trkpt lat="43.68631552625061" lon="11.1913574194428"><ele>261.5</ele><time>2026-04-06T17:30:19.999Z</time></trkpt><trkpt lat="43.686374845223106" lon="11.19120893143154"><ele>261.25</ele><time>2026-04-06T17:30:20.999Z</time></trkpt><trkpt lat="43.68639173105057" lon="11.191034174229443"><ele>261.0</ele><time>2026-04-06T17:30:21.999Z</time></trkpt><trkpt lat="43.68640234939891" lon="11.190851220242772"><ele>261.3333333333333</ele><time>2026-04-06T17:30:22.999Z</time></trkpt><trkpt lat="43.68638515212966" lon="11.190652319655744"><ele>261.66666666666663</ele><time>2026-04-06T17:30:23.999Z</time></trkpt><trkpt lat="43.686369788782564" lon="11.190432867212321"><ele>262.0</ele><time>2026-04-06T17:30:24.999Z</time></trkpt><trkpt lat="43.68634691048851" lon="11.190197306793115"><ele>262.0</ele><time>2026-04-06T17:30:25.999Z</time></trkpt><trkpt lat="43.686324527066745" lon="11.189966841791769"><ele>262.0</ele><time>2026-04-06T17:30:26.999Z</time></trkpt><trkpt lat="43.68630085252403" lon="11.189719884571401"><ele>262.0</ele><time>2026-04-06T17:30:27.999Z</time></trkpt><trkpt lat="43.68626449622993" lon="11.189466183567154"><ele>262.0</ele><time>2026-04-06T17:30:28.999Z</time></trkpt><trkpt lat="43.686241433715715" lon="11.189202013299889"><ele>262.0</ele><time>2026-04-06T17:30:29.999Z</time></trkpt><trkpt lat="43.686215614952054" lon="11.188937518525469"><ele>262.0</ele><time>2026-04-06T17:30:30.999Z</time></trkpt><trkpt lat="43.68618886248548" lon="11.188669841615397"><ele>262.0</ele><time>2026-04-06T17:30:31.999Z</time></trkpt><trkpt lat="43.686161927205" lon="11.18838930350264"><ele>262.0</ele><time>2026-04-06T17:30:32.999Z</time></trkpt><trkpt lat="43.68613244217007" lon="11.188098358195584"><ele>262.0</ele><time>2026-04-06T17:30:33.999Z</time></trkpt><trkpt lat="43.68609992959763" lon="11.18779699396128"><ele>263.0</ele><time>2026-04-06T17:30:34.999Z</time></trkpt><trkpt lat="43.68608538165528" lon="11.187504847622176"><ele>264.0</ele><time>2026-04-06T17:30:35.999Z</time></trkpt><trkpt lat="43.686049561092794" lon="11.187212476336413"><ele>265.0</ele><time>2026-04-06T17:30:36.999Z</time></trkpt><trkpt lat="43.68601161172813" lon="11.186933797359412"><ele>265.0</ele><time>2026-04-06T17:30:37.999Z</time></trkpt><trkpt lat="43.685973480061705" lon="11.186666663290346"><ele>265.0</ele><time>2026-04-06T17:30:38.999Z</time></trkpt><trkpt lat="43.68593599595373" lon="11.186410165150575"><ele>265.0</ele><time>2026-04-06T17:30:39.999Z</time></trkpt><trkpt lat="43.68589882549035" lon="11.186165064989614"><ele>265.0</ele><time>2026-04-06T17:30:40.999Z</time></trkpt><trkpt lat="43.6858646489922" lon="11.185938423790049"><ele>265.0</ele><time>2026-04-06T17:30:41.999Z</time></trkpt><trkpt lat="43.685847148788326" lon="11.18573393617886"><ele>265.0</ele><time>2026-04-06T17:30:42.999Z</time></trkpt><trkpt lat="43.685833228094914" lon="11.185546662581405"><ele>265.66666666666663</ele><time>2026-04-06T17:30:43.999Z</time></trkpt><trkpt lat="43.68589957921495" lon="11.185373136426984"><ele>266.3333333333333</ele><time>2026-04-06T17:30:44.999Z</time></trkpt><trkpt lat="43.68598756177776" lon="11.185193511026727"><ele>267.0</ele><time>2026-04-06T17:30:45.999Z</time></trkpt><trkpt lat="43.68607508532443" lon="11.185009390183849"><ele>267.25</ele><time>2026-04-06T17:30:46.999Z</time></trkpt><trkpt lat="43.686168841107005" lon="11.184857600557262"><ele>267.5</ele><time>2026-04-06T17:30:47.999Z</time></trkpt><trkpt lat="43.686270284771055" lon="11.184752295875702"><ele>267.75</ele><time>2026-04-06T17:30:48.999Z</time></trkpt><trkpt lat="43.68638855086062" lon="11.184704443027263"><ele>268.0</ele><time>2026-04-06T17:30:49.999Z</time></trkpt><trkpt lat="43.6865220567063" lon="11.184705063314775"><ele>267.66666666666663</ele><time>2026-04-06T17:30:50.999Z</time></trkpt><trkpt lat="43.68667784497383" lon="11.184706671583644"><ele>267.3333333333333</ele><time>2026-04-06T17:30:51.999Z</time></trkpt><trkpt lat="43.68684362933147" lon="11.184695086444767"><ele>267.0</ele><time>2026-04-06T17:30:52.999Z</time></trkpt><trkpt lat="43.68701882058752" lon="11.184686789008223"><ele>267.0</ele><time>2026-04-06T17:30:53.999Z</time></trkpt><trkpt lat="43.68720146492658" lon="11.184667733022971"><ele>267.0</ele><time>2026-04-06T17:30:54.999Z</time></trkpt><trkpt lat="43.68737402065026" lon="11.184639138887446"><ele>267.0</ele><time>2026-04-06T17:30:55.999Z</time></trkpt><trkpt lat="43.68752719565336" lon="11.18459914705706"><ele>267.0</ele><time>2026-04-06T17:30:56.999Z</time></trkpt><trkpt lat="43.68766409515264" lon="11.184539843697381"><ele>267.0</ele><time>2026-04-06T17:30:57.999Z</time></trkpt><trkpt lat="43.687785780109415" lon="11.184445465477435"><ele>267.0</ele><time>2026-04-06T17:30:58.999Z</time></trkpt><trkpt lat="43.68788325979924" lon="11.184306171861152"><ele>267.0</ele><time>2026-04-06T17:30:59.999Z</time></trkpt><trkpt lat="43.68796490581311" lon="11.184134039784714"><ele>268.0</ele><time>2026-04-06T17:31:00.999Z</time></trkpt><trkpt lat="43.688018383125055" lon="11.183917893547502"><ele>269.0</ele><time>2026-04-06T17:31:01.999Z</time></trkpt><trkpt lat="43.68804338572037" lon="11.18367736621874"><ele>270.0</ele><time>2026-04-06T17:31:02.999Z</time></trkpt><trkpt lat="43.68807565744638" lon="11.1834374616112"><ele>270.0</ele><time>2026-04-06T17:31:03.999Z</time></trkpt><trkpt lat="43.68810791319995" lon="11.183238519754301"><ele>270.0</ele><time>2026-04-06T17:31:04.999Z</time></trkpt><trkpt lat="43.688158214990786" lon="11.183052032625257"><ele>270.0</ele><time>2026-04-06T17:31:06Z</time></trkpt><trkpt lat="43.688218184819426" lon="11.182878463442583"><ele>270.0</ele><time>2026-04-06T17:31:07Z</time></trkpt><trkpt lat="43.688293420235084" lon="11.182705705842329"><ele>270.0</ele><time>2026-04-06T17:31:08Z</time></trkpt><trkpt lat="43.68839191817852" lon="11.182513854340696"><ele>270.0</ele><time>2026-04-06T17:31:09Z</time></trkpt><trkpt lat="43.688503074023096" lon="11.182309496280219"><ele>270.0</ele><time>2026-04-06T17:31:10Z</time></trkpt><trkpt lat="43.68861537783074" lon="11.182107996546367"><ele>267.0</ele><time>2026-04-06T17:31:11Z</time></trkpt><trkpt lat="43.68872480631839" lon="11.181912237861615"><ele>264.0</ele><time>2026-04-06T17:31:12Z</time></trkpt><trkpt lat="43.6888301959796" lon="11.181738373137843"><ele>261.0</ele><time>2026-04-06T17:31:13Z</time></trkpt><trkpt lat="43.688938325827905" lon="11.18159050356375"><ele>260.3333333333333</ele><time>2026-04-06T17:31:14Z</time></trkpt><trkpt lat="43.68907226602364" lon="11.181502268193832"><ele>259.66666666666663</ele><time>2026-04-06T17:31:15Z</time></trkpt><trkpt lat="43.68922391462529" lon="11.181423874180599"><ele>259.0</ele><time>2026-04-06T17:31:16Z</time></trkpt><trkpt lat="43.68937994562956" lon="11.18134016618231"><ele>258.25</ele><time>2026-04-06T17:31:17Z</time></trkpt><trkpt lat="43.68952223137764" lon="11.181279497491248"><ele>257.5</ele><time>2026-04-06T17:31:18Z</time></trkpt><trkpt lat="43.689658652772216" lon="11.181236530573596"><ele>256.75</ele><time>2026-04-06T17:31:19Z</time></trkpt><trkpt lat="43.6897991389312" lon="11.181304480735808"><ele>256.0</ele><time>2026-04-06T17:31:20Z</time></trkpt><trkpt lat="43.689962455761915" lon="11.181321884928376"><ele>256.0</ele><time>2026-04-06T17:31:21Z</time></trkpt><trkpt lat="43.69012540228147" lon="11.181378947102937"><ele>256.0</ele><time>2026-04-06T17:31:22Z</time></trkpt><trkpt lat="43.69029025486569" lon="11.181430428326804"><ele>256.0</ele><time>2026-04-06T17:31:23Z</time></trkpt><trkpt lat="43.690448491729796" lon="11.181462395624584"><ele>254.5</ele><time>2026-04-06T17:31:24Z</time></trkpt><trkpt lat="43.690599394793416" lon="11.181492934602387"><ele>253.0</ele><time>2026-04-06T17:31:25Z</time></trkpt><trkpt lat="43.69074129934333" lon="11.181487208968768"><ele>251.5</ele><time>2026-04-06T17:31:26Z</time></trkpt><trkpt lat="43.690876526259075" lon="11.181515942372144"><ele>250.0</ele><time>2026-04-06T17:31:27Z</time></trkpt><trkpt lat="43.69101397102287" lon="11.181536787717988"><ele>246.0</ele><time>2026-04-06T17:31:28Z</time></trkpt><trkpt lat="43.69112212129344" lon="11.181669708595692"><ele>242.0</ele><time>2026-04-06T17:31:29Z</time></trkpt><trkpt lat="43.69124708700583" lon="11.181809897006508"><ele>238.0</ele><time>2026-04-06T17:31:30Z</time></trkpt><trkpt lat="43.69140060790696" lon="11.181983317016066"><ele>238.0</ele><time>2026-04-06T17:31:31Z</time></trkpt><trkpt lat="43.691568630943195" lon="11.182135448941082"><ele>238.0</ele><time>2026-04-06T17:31:32Z</time></trkpt><trkpt lat="43.69173916265423" lon="11.182268637200261"><ele>238.0</ele><time>2026-04-06T17:31:33Z</time></trkpt><trkpt lat="43.691933512216806" lon="11.182370950142243"><ele>239.33333333333331</ele><time>2026-04-06T17:31:34Z</time></trkpt><trkpt lat="43.69213128219634" lon="11.182486064510003"><ele>240.66666666666669</ele><time>2026-04-06T17:31:35Z</time></trkpt><trkpt lat="43.692327538309904" lon="11.182639258199032"><ele>242.0</ele><time>2026-04-06T17:31:36Z</time></trkpt><trkpt lat="43.69252123147204" lon="11.182818115020057"><ele>242.0</ele><time>2026-04-06T17:31:37Z</time></trkpt><trkpt lat="43.692709765237986" lon="11.182999101698424"><ele>242.0</ele><time>2026-04-06T17:31:38Z</time></trkpt><trkpt lat="43.69288618400496" lon="11.18317288721482"><ele>242.0</ele><time>2026-04-06T17:31:39Z</time></trkpt><trkpt lat="43.69305546312703" lon="11.183345930963007"><ele>241.66666666666669</ele><time>2026-04-06T17:31:40Z</time></trkpt><trkpt lat="43.69323669880939" lon="11.183499404677884"><ele>241.33333333333331</ele><time>2026-04-06T17:31:41Z</time></trkpt><trkpt lat="43.69338370437879" lon="11.183679734186848"><ele>241.0</ele><time>2026-04-06T17:31:42Z</time></trkpt><trkpt lat="43.69351780884705" lon="11.183862943591471"><ele>240.33333333333331</ele><time>2026-04-06T17:31:43Z</time></trkpt><trkpt lat="43.69364619336751" lon="11.184024061664246"><ele>239.66666666666669</ele><time>2026-04-06T17:31:44Z</time></trkpt><trkpt lat="43.693780728102425" lon="11.184162001429469"><ele>239.0</ele><time>2026-04-06T17:31:45Z</time></trkpt><trkpt lat="43.69391984478658" lon="11.184264174677766"><ele>239.0</ele><time>2026-04-06T17:31:46Z</time></trkpt><trkpt lat="43.694063457654934" lon="11.184324954096635"><ele>239.0</ele><time>2026-04-06T17:31:47Z</time></trkpt><trkpt lat="43.694217633715446" lon="11.184359156628604"><ele>239.0</ele><time>2026-04-06T17:31:48Z</time></trkpt><trkpt lat="43.69438325797584" lon="11.184348931191861"><ele>238.66666666666669</ele><time>2026-04-06T17:31:49Z</time></trkpt><trkpt lat="43.694551157646764" lon="11.184286512087624"><ele>238.33333333333331</ele><time>2026-04-06T17:31:50Z</time></trkpt><trkpt lat="43.69472719815395" lon="11.184215132156355"><ele>238.0</ele><time>2026-04-06T17:31:51Z</time></trkpt><trkpt lat="43.69490724718138" lon="11.184152451068968"><ele>238.0</ele><time>2026-04-06T17:31:52Z</time></trkpt><trkpt lat="43.69510060834501" lon="11.184091100611633"><ele>238.0</ele><time>2026-04-06T17:31:53Z</time></trkpt><trkpt lat="43.69530004344125" lon="11.18405986489201"><ele>238.0</ele><time>2026-04-06T17:31:54Z</time></trkpt><trkpt lat="43.69550477158134" lon="11.18402948385478"><ele>239.0</ele><time>2026-04-06T17:31:55Z</time></trkpt><trkpt lat="43.69571386815141" lon="11.184028337130307"><ele>240.0</ele><time>2026-04-06T17:31:56Z</time></trkpt><trkpt lat="43.69591724507055" lon="11.1840455028831"><ele>241.0</ele><time>2026-04-06T17:31:57Z</time></trkpt><trkpt lat="43.69611209733454" lon="11.18403266989212"><ele>241.33333333333331</ele><time>2026-04-06T17:31:58Z</time></trkpt><trkpt lat="43.69629290299984" lon="11.184023668648612"><ele>241.66666666666669</ele><time>2026-04-06T17:31:59Z</time></trkpt><trkpt lat="43.696456598171544" lon="11.18399518390049"><ele>242.0</ele><time>2026-04-06T17:32:00Z</time></trkpt><trkpt lat="43.69660833373348" lon="11.18399268766412"><ele>240.5</ele><time>2026-04-06T17:32:01Z</time></trkpt><trkpt lat="43.696751502210546" lon="11.183969876004149"><ele>239.0</ele><time>2026-04-06T17:32:02Z</time></trkpt><trkpt lat="43.696889579936" lon="11.18393982521884"><ele>237.5</ele><time>2026-04-06T17:32:03Z</time></trkpt><trkpt lat="43.69702311471489" lon="11.183952069756543"><ele>236.0</ele><time>2026-04-06T17:32:04Z</time></trkpt><trkpt lat="43.69714983162477" lon="11.184000582730864"><ele>236.5</ele><time>2026-04-06T17:32:05Z</time></trkpt><trkpt lat="43.697271600849405" lon="11.184004990308683"><ele>237.0</ele><time>2026-04-06T17:32:06Z</time></trkpt><trkpt lat="43.69738827708282" lon="11.184048851612923"><ele>237.5</ele><time>2026-04-06T17:32:07Z</time></trkpt><trkpt lat="43.69751416459579" lon="11.184075091428747"><ele>238.0</ele><time>2026-04-06T17:32:08Z</time></trkpt><trkpt lat="43.69764574846578" lon="11.1840943206909"><ele>238.25</ele><time>2026-04-06T17:32:09Z</time></trkpt><trkpt lat="43.697764276176954" lon="11.18416559054606"><ele>238.5</ele><time>2026-04-06T17:32:10Z</time></trkpt><trkpt lat="43.697883203086285" lon="11.184226211936284"><ele>238.75</ele><time>2026-04-06T17:32:11Z</time></trkpt><trkpt lat="43.69800498428253" lon="11.184275266347454"><ele>239.0</ele><time>2026-04-06T17:32:12Z</time></trkpt><trkpt lat="43.69811466028542" lon="11.184345939217973"><ele>239.0</ele><time>2026-04-06T17:32:13Z</time></trkpt><trkpt lat="43.698220410255054" lon="11.18442113777523"><ele>239.0</ele><time>2026-04-06T17:32:14Z</time></trkpt><trkpt lat="43.6983185145076" lon="11.184505693228342"><ele>239.0</ele><time>2026-04-06T17:32:15Z</time></trkpt><trkpt lat="43.69840372723799" lon="11.184616891068927"><ele>239.0</ele><time>2026-04-06T17:32:16Z</time></trkpt><trkpt lat="43.6984782702315" lon="11.184749064616183"><ele>238.75</ele><time>2026-04-06T17:32:17Z</time></trkpt><trkpt lat="43.69855445021329" lon="11.184890002346812"><ele>238.5</ele><time>2026-04-06T17:32:18Z</time></trkpt><trkpt lat="43.69864242184745" lon="11.18501158009139"><ele>238.25</ele><time>2026-04-06T17:32:19Z</time></trkpt><trkpt lat="43.698751624385665" lon="11.185099262886043"><ele>238.0</ele><time>2026-04-06T17:32:19.999Z</time></trkpt><trkpt lat="43.698879233188556" lon="11.185124669506804"><ele>237.0</ele><time>2026-04-06T17:32:20.999Z</time></trkpt><trkpt lat="43.69902066658127" lon="11.18512681702214"><ele>236.0</ele><time>2026-04-06T17:32:21.999Z</time></trkpt><trkpt lat="43.69914798121227" lon="11.185049059862552"><ele>235.0</ele><time>2026-04-06T17:32:22.999Z</time></trkpt><trkpt lat="43.69926508178347" lon="11.185002245042288"><ele>234.0</ele><time>2026-04-06T17:32:23.999Z</time></trkpt><trkpt lat="43.6993730181581" lon="11.184956955018842"><ele>234.0</ele><time>2026-04-06T17:32:24.999Z</time></trkpt><trkpt lat="43.699471179551516" lon="11.184923444958187"><ele>233.99999999999997</ele><time>2026-04-06T17:32:25.999Z</time></trkpt><trkpt lat="43.699572085767706" lon="11.184907954567883"><ele>233.99999999999997</ele><time>2026-04-06T17:32:26.999Z</time></trkpt><trkpt lat="43.69968713150761" lon="11.18490951683015"><ele>234.0</ele><time>2026-04-06T17:32:27.999Z</time></trkpt><trkpt lat="43.699803641140825" lon="11.184918477183947"><ele>234.0</ele><time>2026-04-06T17:32:28.999Z</time></trkpt><trkpt lat="43.699920983626036" lon="11.18493268733152"><ele>234.0</ele><time>2026-04-06T17:32:29.999Z</time></trkpt><trkpt lat="43.70004540805286" lon="11.184950285375953"><ele>233.99999999999997</ele><time>2026-04-06T17:32:30.999Z</time></trkpt><trkpt lat="43.70015988736827" lon="11.184966476783947"><ele>233.99999999999997</ele><time>2026-04-06T17:32:31.999Z</time></trkpt><trkpt lat="43.70026727073883" lon="11.184985034517513"><ele>234.0</ele><time>2026-04-06T17:32:32.999Z</time></trkpt><trkpt lat="43.70036584492397" lon="11.185011848146988"><ele>234.0</ele><time>2026-04-06T17:32:33.999Z</time></trkpt><trkpt lat="43.70047120207597" lon="11.18502961747361"><ele>233.75</ele><time>2026-04-06T17:32:34.999Z</time></trkpt><trkpt lat="43.70057613354938" lon="11.185076508281073"><ele>233.5</ele><time>2026-04-06T17:32:35.999Z</time></trkpt><trkpt lat="43.70068577691158" lon="11.185127259344695"><ele>233.25</ele><time>2026-04-06T17:32:36.999Z</time></trkpt><trkpt lat="43.70079266045667" lon="11.185185313466839"><ele>233.0</ele><time>2026-04-06T17:32:37.999Z</time></trkpt><trkpt lat="43.70090128667904" lon="11.185252375756992"><ele>233.0</ele><time>2026-04-06T17:32:38.999Z</time></trkpt><trkpt lat="43.70101106792257" lon="11.185318730022908"><ele>233.0</ele><time>2026-04-06T17:32:39.999Z</time></trkpt><trkpt lat="43.70111164955083" lon="11.185407176983798"><ele>233.0</ele><time>2026-04-06T17:32:40.999Z</time></trkpt><trkpt lat="43.70122182913332" lon="11.185456337259462"><ele>233.0</ele><time>2026-04-06T17:32:41.999Z</time></trkpt><trkpt lat="43.70132448878791" lon="11.185525561706504"><ele>233.25</ele><time>2026-04-06T17:32:42.999Z</time></trkpt><trkpt lat="43.70142397166499" lon="11.185597203714298"><ele>233.5</ele><time>2026-04-06T17:32:43.999Z</time></trkpt><trkpt lat="43.70152965490676" lon="11.185658031595425"><ele>233.75</ele><time>2026-04-06T17:32:44.999Z</time></trkpt><trkpt lat="43.70163740389226" lon="11.18573090161992"><ele>234.0</ele><time>2026-04-06T17:32:45.999Z</time></trkpt><trkpt lat="43.70174623759176" lon="11.185800469730724"><ele>234.0</ele><time>2026-04-06T17:32:46.999Z</time></trkpt><trkpt lat="43.701850554756824" lon="11.185858708422327"><ele>234.0</ele><time>2026-04-06T17:32:47.999Z</time></trkpt><trkpt lat="43.701965609951884" lon="11.185898471031113"><ele>234.0</ele><time>2026-04-06T17:32:48.999Z</time></trkpt><trkpt lat="43.70208739039202" lon="11.185912205631086"><ele>234.0</ele><time>2026-04-06T17:32:49.999Z</time></trkpt><trkpt lat="43.70221915367397" lon="11.185901584283224"><ele>233.5</ele><time>2026-04-06T17:32:50.999Z</time></trkpt><trkpt lat="43.70234831914418" lon="11.18589824153951"><ele>233.0</ele><time>2026-04-06T17:32:51.999Z</time></trkpt><trkpt lat="43.702464787946994" lon="11.185857287394548"><ele>232.5</ele><time>2026-04-06T17:32:52.999Z</time></trkpt><trkpt lat="43.70257539167329" lon="11.185812668277404"><ele>232.0</ele><time>2026-04-06T17:32:53.999Z</time></trkpt><trkpt lat="43.7026782822536" lon="11.1857435693295"><ele>232.39999999999998</ele><time>2026-04-06T17:32:54.999Z</time></trkpt><trkpt lat="43.70278642674883" lon="11.185713871582017"><ele>232.79999999999998</ele><time>2026-04-06T17:32:55.999Z</time></trkpt><trkpt lat="43.70289906390479" lon="11.185692828206257"><ele>233.2</ele><time>2026-04-06T17:32:56.999Z</time></trkpt><trkpt lat="43.703002754062545" lon="11.18568407106717"><ele>233.6</ele><time>2026-04-06T17:32:57.999Z</time></trkpt><trkpt lat="43.7031081404222" lon="11.185700364210915"><ele>234.0</ele><time>2026-04-06T17:32:58.999Z</time></trkpt><trkpt lat="43.703198150421336" lon="11.185701050225145"><ele>234.0</ele><time>2026-04-06T17:32:59.999Z</time></trkpt><trkpt lat="43.70327398557711" lon="11.185702691319674"><ele>234.0</ele><time>2026-04-06T17:33:00.999Z</time></trkpt><trkpt lat="43.7033504793159" lon="11.185682276372129"><ele>234.0</ele><time>2026-04-06T17:33:01.999Z</time></trkpt><trkpt lat="43.70342885539026" lon="11.185685762795021"><ele>234.0</ele><time>2026-04-06T17:33:02.999Z</time></trkpt><trkpt lat="43.70351679915057" lon="11.185713255761296"><ele>234.0</ele><time>2026-04-06T17:33:03.999Z</time></trkpt><trkpt lat="43.703612739942216" lon="11.185718502041622"><ele>234.0</ele><time>2026-04-06T17:33:04.999Z</time></trkpt><trkpt lat="43.70371238070518" lon="11.185723950648478"><ele>234.0</ele><time>2026-04-06T17:33:05.999Z</time></trkpt><trkpt lat="43.70380385311145" lon="11.18572895258204"><ele>233.99999999999997</ele><time>2026-04-06T17:33:06.999Z</time></trkpt><trkpt lat="43.70389636079064" lon="11.185711206300192"><ele>233.99999999999997</ele><time>2026-04-06T17:33:07.999Z</time></trkpt><trkpt lat="43.70398585732917" lon="11.18571794082721"><ele>234.0</ele><time>2026-04-06T17:33:08.999Z</time></trkpt><trkpt lat="43.704076094075006" lon="11.185721320400877"><ele>234.0</ele><time>2026-04-06T17:33:09.999Z</time></trkpt><trkpt lat="43.70416448499852" lon="11.185726034087308"><ele>234.0</ele><time>2026-04-06T17:33:10.999Z</time></trkpt><trkpt lat="43.70424148473765" lon="11.185756788429645"><ele>234.0</ele><time>2026-04-06T17:33:12Z</time></trkpt><trkpt lat="43.70432484981118" lon="11.185770813140909"><ele>234.0</ele><time>2026-04-06T17:33:13Z</time></trkpt><trkpt lat="43.7044150382647" lon="11.185793037040503"><ele>234.0</ele><time>2026-04-06T17:33:14Z</time></trkpt><trkpt lat="43.70450076963039" lon="11.185817120905291"><ele>234.0</ele><time>2026-04-06T17:33:15Z</time></trkpt><trkpt lat="43.70457763932954" lon="11.185820317395605"><ele>234.0</ele><time>2026-04-06T17:33:16Z</time></trkpt><trkpt lat="43.704643237821195" lon="11.185839584954339"><ele>233.6</ele><time>2026-04-06T17:33:17Z</time></trkpt><trkpt lat="43.70473961497871" lon="11.185877096723212"><ele>233.2</ele><time>2026-04-06T17:33:19Z</time></trkpt><trkpt lat="43.70481676692352" lon="11.185896786577011"><ele>232.79999999999998</ele><time>2026-04-06T17:33:21Z</time></trkpt><trkpt lat="43.70488818347213" lon="11.185904268684617"><ele>232.39999999999998</ele><time>2026-04-06T17:33:23Z</time></trkpt><trkpt lat="43.70499290544577" lon="11.18591242592202"><ele>232.0</ele><time>2026-04-06T17:33:25Z</time></trkpt><trkpt lat="43.705073133064516" lon="11.186006733420408"><ele>232.0</ele><time>2026-04-06T17:33:26Z</time></trkpt><trkpt lat="43.705168564824525" lon="11.18607577436901"><ele>232.0</ele><time>2026-04-06T17:33:27Z</time></trkpt><trkpt lat="43.70526481387451" lon="11.186129118529431"><ele>232.0</ele><time>2026-04-06T17:33:28Z</time></trkpt><trkpt lat="43.70536919080376" lon="11.186178087750143"><ele>232.0</ele><time>2026-04-06T17:33:29Z</time></trkpt><trkpt lat="43.70549462577758" lon="11.186220994071231"><ele>232.66666666666666</ele><time>2026-04-06T17:33:30Z</time></trkpt><trkpt lat="43.705644044181206" lon="11.186263871644504"><ele>233.33333333333331</ele><time>2026-04-06T17:33:31Z</time></trkpt><trkpt lat="43.70580267019719" lon="11.186320407118627"><ele>234.0</ele><time>2026-04-06T17:33:32Z</time></trkpt><trkpt lat="43.705994364649825" lon="11.186296737339527"><ele>233.0</ele><time>2026-04-06T17:33:33Z</time></trkpt><trkpt lat="43.70617466410371" lon="11.186330249038583"><ele>232.0</ele><time>2026-04-06T17:33:34Z</time></trkpt><trkpt lat="43.706346200362056" lon="11.186379785161936"><ele>231.0</ele><time>2026-04-06T17:33:35Z</time></trkpt><trkpt lat="43.70651020034051" lon="11.186454950464704"><ele>229.66666666666669</ele><time>2026-04-06T17:33:36Z</time></trkpt><trkpt lat="43.70666405519345" lon="11.186561168784191"><ele>228.33333333333334</ele><time>2026-04-06T17:33:37Z</time></trkpt><trkpt lat="43.706814626306645" lon="11.186702827558198"><ele>227.0</ele><time>2026-04-06T17:33:38Z</time></trkpt><trkpt lat="43.70698870806867" lon="11.186812969974953"><ele>225.66666666666669</ele><time>2026-04-06T17:33:39Z</time></trkpt><trkpt lat="43.707180090946636" lon="11.186885252448075"><ele>224.33333333333331</ele><time>2026-04-06T17:33:40Z</time></trkpt><trkpt lat="43.70738422603287" lon="11.186919083407824"><ele>223.0</ele><time>2026-04-06T17:33:41Z</time></trkpt><trkpt lat="43.70758698861811" lon="11.186953522728444"><ele>221.0</ele><time>2026-04-06T17:33:42Z</time></trkpt><trkpt lat="43.70777084226699" lon="11.186990105286608"><ele>219.0</ele><time>2026-04-06T17:33:43Z</time></trkpt><trkpt lat="43.70794341576881" lon="11.187030456362342"><ele>217.0</ele><time>2026-04-06T17:33:44Z</time></trkpt><trkpt lat="43.708112792668835" lon="11.187070332070395"><ele>217.0</ele><time>2026-04-06T17:33:45Z</time></trkpt><trkpt lat="43.708278589466396" lon="11.187120530675417"><ele>217.0</ele><time>2026-04-06T17:33:46Z</time></trkpt><trkpt lat="43.70843909137479" lon="11.187196126523704"><ele>217.0</ele><time>2026-04-06T17:33:47Z</time></trkpt><trkpt lat="43.70858389114371" lon="11.187357486393704"><ele>215.66666666666666</ele><time>2026-04-06T17:33:48Z</time></trkpt><trkpt lat="43.708755888735745" lon="11.187525677968194"><ele>214.33333333333331</ele><time>2026-04-06T17:33:49Z</time></trkpt><trkpt lat="43.708947720006364" lon="11.187684858039711"><ele>213.0</ele><time>2026-04-06T17:33:50Z</time></trkpt><trkpt lat="43.709125683558185" lon="11.18786090212693"><ele>213.0</ele><time>2026-04-06T17:33:51Z</time></trkpt><trkpt lat="43.7093000571282" lon="11.188031850429113"><ele>213.0</ele><time>2026-04-06T17:33:52Z</time></trkpt><trkpt lat="43.70946961862419" lon="11.188209198191242"><ele>213.0</ele><time>2026-04-06T17:33:53Z</time></trkpt><trkpt lat="43.70966172802436" lon="11.18836978341315"><ele>213.0</ele><time>2026-04-06T17:33:54Z</time></trkpt><trkpt lat="43.709843765892856" lon="11.188513138011055"><ele>213.0</ele><time>2026-04-06T17:33:55Z</time></trkpt><trkpt lat="43.71000659322114" lon="11.188613670568289"><ele>213.0</ele><time>2026-04-06T17:33:56Z</time></trkpt><trkpt lat="43.71013619434646" lon="11.188740977722384"><ele>211.66666666666669</ele><time>2026-04-06T17:33:57Z</time></trkpt><trkpt lat="43.71028074152405" lon="11.188815340416163"><ele>210.33333333333334</ele><time>2026-04-06T17:33:58Z</time></trkpt><trkpt lat="43.71043230178758" lon="11.188908198618646"><ele>209.0</ele><time>2026-04-06T17:33:59Z</time></trkpt><trkpt lat="43.71060669497175" lon="11.188971787708056"><ele>210.66666666666669</ele><time>2026-04-06T17:34:00Z</time></trkpt><trkpt lat="43.71077168494084" lon="11.189049287956427"><ele>212.33333333333331</ele><time>2026-04-06T17:34:01Z</time></trkpt><trkpt lat="43.710946871692975" lon="11.189107107298819"><ele>214.0</ele><time>2026-04-06T17:34:02Z</time></trkpt><trkpt lat="43.71113668997939" lon="11.189144070759413"><ele>214.66666666666666</ele><time>2026-04-06T17:34:03Z</time></trkpt><trkpt lat="43.71131930752054" lon="11.189188823886196"><ele>215.33333333333331</ele><time>2026-04-06T17:34:04Z</time></trkpt><trkpt lat="43.711511675210836" lon="11.189197456139524"><ele>216.0</ele><time>2026-04-06T17:34:05Z</time></trkpt><trkpt lat="43.71169752411108" lon="11.189174836865664"><ele>216.0</ele><time>2026-04-06T17:34:06Z</time></trkpt><trkpt lat="43.71187304274191" lon="11.189178391805177"><ele>216.0</ele><time>2026-04-06T17:34:07Z</time></trkpt><trkpt lat="43.712032187945304" lon="11.189158745027157"><ele>216.0</ele><time>2026-04-06T17:34:08Z</time></trkpt><trkpt lat="43.712184640130715" lon="11.189115172755368"><ele>216.66666666666669</ele><time>2026-04-06T17:34:09Z</time></trkpt><trkpt lat="43.71231726136537" lon="11.189066706690564"><ele>217.33333333333334</ele><time>2026-04-06T17:34:10Z</time></trkpt><trkpt lat="43.712444974386585" lon="11.18893340557704"><ele>218.0</ele><time>2026-04-06T17:34:11Z</time></trkpt><trkpt lat="43.71253776828204" lon="11.188748404887722"><ele>217.0</ele><time>2026-04-06T17:34:12Z</time></trkpt><trkpt lat="43.71261289995" lon="11.188550764479837"><ele>216.0</ele><time>2026-04-06T17:34:13Z</time></trkpt><trkpt lat="43.712649449021" lon="11.188351182692937"><ele>215.0</ele><time>2026-04-06T17:34:14Z</time></trkpt><trkpt lat="43.71269736700347" lon="11.188180324385412"><ele>214.0</ele><time>2026-04-06T17:34:15Z</time></trkpt><trkpt lat="43.71275140209062" lon="11.188020892529558"><ele>213.75</ele><time>2026-04-06T17:34:16Z</time></trkpt><trkpt lat="43.71282160186457" lon="11.187884543146787"><ele>213.5</ele><time>2026-04-06T17:34:17Z</time></trkpt><trkpt lat="43.71291404928907" lon="11.187753122986187"><ele>213.25</ele><time>2026-04-06T17:34:18Z</time></trkpt><trkpt lat="43.713026476517534" lon="11.187639081929744"><ele>213.0</ele><time>2026-04-06T17:34:19Z</time></trkpt><trkpt lat="43.71314847905432" lon="11.187559861517615"><ele>213.0</ele><time>2026-04-06T17:34:20Z</time></trkpt><trkpt lat="43.71327952730253" lon="11.187503513484144"><ele>213.0</ele><time>2026-04-06T17:34:21Z</time></trkpt><trkpt lat="43.71342356838817" lon="11.187459398837374"><ele>213.0</ele><time>2026-04-06T17:34:22Z</time></trkpt><trkpt lat="43.71357314049739" lon="11.187418916548848"><ele>213.0</ele><time>2026-04-06T17:34:23Z</time></trkpt><trkpt lat="43.7137191937745" lon="11.18738876013148"><ele>212.0</ele><time>2026-04-06T17:34:24Z</time></trkpt><trkpt lat="43.71385897210068" lon="11.187378403899697"><ele>211.0</ele><time>2026-04-06T17:34:25Z</time></trkpt><trkpt lat="43.71399890775333" lon="11.187376353978262"><ele>210.0</ele><time>2026-04-06T17:34:25.999Z</time></trkpt><trkpt lat="43.71413577374999" lon="11.187376353981533"><ele>209.0</ele><time>2026-04-06T17:34:26.999Z</time></trkpt><trkpt lat="43.71426507858116" lon="11.187381163227572"><ele>209.0</ele><time>2026-04-06T17:34:27.999Z</time></trkpt><trkpt lat="43.714393985110405" lon="11.18740221957359"><ele>209.0</ele><time>2026-04-06T17:34:28.999Z</time></trkpt><trkpt lat="43.71452661930038" lon="11.187465993899572"><ele>209.0</ele><time>2026-04-06T17:34:29.999Z</time></trkpt><trkpt lat="43.71466488249846" lon="11.18757867875812"><ele>209.0</ele><time>2026-04-06T17:34:30.999Z</time></trkpt><trkpt lat="43.71481256969977" lon="11.187701089340136"><ele>204.0</ele><time>2026-04-06T17:34:31.999Z</time></trkpt><trkpt lat="43.71495637452743" lon="11.18780199432433"><ele>199.0</ele><time>2026-04-06T17:34:32.999Z</time></trkpt><trkpt lat="43.71509141070301" lon="11.187913232059644"><ele>194.0</ele><time>2026-04-06T17:34:33.999Z</time></trkpt><trkpt lat="43.715224597172615" lon="11.188023895625937"><ele>193.0</ele><time>2026-04-06T17:34:34.999Z</time></trkpt><trkpt lat="43.71534550898359" lon="11.188150327488959"><ele>192.0</ele><time>2026-04-06T17:34:35.999Z</time></trkpt><trkpt lat="43.71548364058184" lon="11.188242117359271"><ele>191.0</ele><time>2026-04-06T17:34:36.999Z</time></trkpt><trkpt lat="43.71560987140712" lon="11.188354965825011"><ele>191.0</ele><time>2026-04-06T17:34:37.999Z</time></trkpt><trkpt lat="43.71572847613713" lon="11.188474599281017"><ele>191.0</ele><time>2026-04-06T17:34:38.999Z</time></trkpt><trkpt lat="43.71583167057077" lon="11.18861898914447"><ele>191.0</ele><time>2026-04-06T17:34:39.999Z</time></trkpt><trkpt lat="43.71592360349362" lon="11.188779410939889"><ele>191.0</ele><time>2026-04-06T17:34:40.999Z</time></trkpt><trkpt lat="43.71601028933091" lon="11.18893408463481"><ele>188.0</ele><time>2026-04-06T17:34:41.999Z</time></trkpt><trkpt lat="43.716112985117185" lon="11.18907901316304"><ele>185.0</ele><time>2026-04-06T17:34:42.999Z</time></trkpt><trkpt lat="43.71622212638475" lon="11.189200021307588"><ele>182.0</ele><time>2026-04-06T17:34:43.999Z</time></trkpt><trkpt lat="43.71631948818514" lon="11.189300262057898"><ele>179.0</ele><time>2026-04-06T17:34:44.999Z</time></trkpt><trkpt lat="43.71638695314498" lon="11.189426591349374"><ele>179.0</ele><time>2026-04-06T17:34:45.999Z</time></trkpt><trkpt lat="43.71642937305241" lon="11.189593645315012"><ele>179.0</ele><time>2026-04-06T17:34:46.999Z</time></trkpt><trkpt lat="43.71645336862941" lon="11.189780268763066"><ele>179.0</ele><time>2026-04-06T17:34:47.999Z</time></trkpt><trkpt lat="43.71646596530022" lon="11.18996707649869"><ele>179.0</ele><time>2026-04-06T17:34:48.999Z</time></trkpt><trkpt lat="43.71647367365636" lon="11.19016532896342"><ele>179.0</ele><time>2026-04-06T17:34:49.999Z</time></trkpt><trkpt lat="43.71647805298991" lon="11.190368649084949"><ele>179.0</ele><time>2026-04-06T17:34:50.999Z</time></trkpt><trkpt lat="43.71647255795434" lon="11.190556350726698"><ele>179.0</ele><time>2026-04-06T17:34:51.999Z</time></trkpt><trkpt lat="43.716447604502015" lon="11.19073912340682"><ele>179.0</ele><time>2026-04-06T17:34:52.999Z</time></trkpt><trkpt lat="43.71639385628975" lon="11.190924288926244"><ele>179.0</ele><time>2026-04-06T17:34:53.999Z</time></trkpt><trkpt lat="43.71632772551986" lon="11.191103555542275"><ele>179.0</ele><time>2026-04-06T17:34:54.999Z</time></trkpt><trkpt lat="43.71626282535399" lon="11.191265593631305"><ele>179.0</ele><time>2026-04-06T17:34:55.999Z</time></trkpt><trkpt lat="43.716204111384044" lon="11.191411227232487"><ele>179.0</ele><time>2026-04-06T17:34:56.999Z</time></trkpt><trkpt lat="43.71616952276295" lon="11.191574396338261"><ele>179.0</ele><time>2026-04-06T17:34:57.999Z</time></trkpt><trkpt lat="43.716187644839806" lon="11.191762039707706"><ele>179.0</ele><time>2026-04-06T17:34:58.999Z</time></trkpt><trkpt lat="43.71624311553871" lon="11.19194724614621"><ele>179.0</ele><time>2026-04-06T17:34:59.999Z</time></trkpt><trkpt lat="43.716335734268355" lon="11.192106481208372"><ele>179.0</ele><time>2026-04-06T17:35:00.999Z</time></trkpt><trkpt lat="43.71643322421189" lon="11.192260343564492"><ele>178.0</ele><time>2026-04-06T17:35:01.999Z</time></trkpt><trkpt lat="43.71653749307099" lon="11.192417009334584"><ele>177.0</ele><time>2026-04-06T17:35:02.999Z</time></trkpt><trkpt lat="43.71663644401165" lon="11.192576508519537"><ele>176.0</ele><time>2026-04-06T17:35:03.999Z</time></trkpt><trkpt lat="43.71673963365122" lon="11.192737522157108"><ele>176.0</ele><time>2026-04-06T17:35:04.999Z</time></trkpt><trkpt lat="43.716840436356605" lon="11.192877186522182"><ele>176.0</ele><time>2026-04-06T17:35:05.999Z</time></trkpt><trkpt lat="43.71695210492624" lon="11.193016414387285"><ele>176.0</ele><time>2026-04-06T17:35:06.999Z</time></trkpt><trkpt lat="43.717057278148964" lon="11.19313616879011"><ele>176.0</ele><time>2026-04-06T17:35:07.999Z</time></trkpt><trkpt lat="43.71716056127673" lon="11.193247372523123"><ele>177.33333333333331</ele><time>2026-04-06T17:35:08.999Z</time></trkpt><trkpt lat="43.71729726006756" lon="11.193363016721465"><ele>178.66666666666666</ele><time>2026-04-06T17:35:09.999Z</time></trkpt><trkpt lat="43.71746832809293" lon="11.19351723393987"><ele>180.0</ele><time>2026-04-06T17:35:10.999Z</time></trkpt><trkpt lat="43.71765576529346" lon="11.193649927727892"><ele>181.0</ele><time>2026-04-06T17:35:11.999Z</time></trkpt><trkpt lat="43.71782979647478" lon="11.193771020371111"><ele>182.0</ele><time>2026-04-06T17:35:12.999Z</time></trkpt><trkpt lat="43.71798658148587" lon="11.193858211404898"><ele>183.0</ele><time>2026-04-06T17:35:13.999Z</time></trkpt><trkpt lat="43.71812067992846" lon="11.19395469651717"><ele>182.5</ele><time>2026-04-06T17:35:14.999Z</time></trkpt><trkpt lat="43.71824168027112" lon="11.194041599587223"><ele>182.0</ele><time>2026-04-06T17:35:15.999Z</time></trkpt><trkpt lat="43.718356187102174" lon="11.194117820846728"><ele>181.5</ele><time>2026-04-06T17:35:16.999Z</time></trkpt><trkpt lat="43.718463998157624" lon="11.194163366982648"><ele>181.0</ele><time>2026-04-06T17:35:18Z</time></trkpt><trkpt lat="43.7185660095575" lon="11.194193954066934"><ele>180.75</ele><time>2026-04-06T17:35:19Z</time></trkpt><trkpt lat="43.718665184209755" lon="11.194104695980403"><ele>180.5</ele><time>2026-04-06T17:35:20Z</time></trkpt><trkpt lat="43.71876930353416" lon="11.194002851572497"><ele>180.25</ele><time>2026-04-06T17:35:21Z</time></trkpt><trkpt lat="43.718922496053594" lon="11.19389961110151"><ele>180.0</ele><time>2026-04-06T17:35:22Z</time></trkpt><trkpt lat="43.71908619392149" lon="11.193763521296834"><ele>180.0</ele><time>2026-04-06T17:35:23Z</time></trkpt><trkpt lat="43.719249623762266" lon="11.193627654643477"><ele>180.0</ele><time>2026-04-06T17:35:24Z</time></trkpt><trkpt lat="43.71938951146615" lon="11.193512620628983"><ele>180.0</ele><time>2026-04-06T17:35:25Z</time></trkpt><trkpt lat="43.71952241348861" lon="11.193407424925121"><ele>179.5</ele><time>2026-04-06T17:35:26Z</time></trkpt><trkpt lat="43.71964765727037" lon="11.193308290982078"><ele>179.0</ele><time>2026-04-06T17:35:27Z</time></trkpt><trkpt lat="43.719771515077824" lon="11.1932081157949"><ele>178.5</ele><time>2026-04-06T17:35:28Z</time></trkpt><trkpt lat="43.71989155263987" lon="11.193107695283995"><ele>178.0</ele><time>2026-04-06T17:35:29Z</time></trkpt><trkpt lat="43.72000143808458" lon="11.193014701615006"><ele>178.0</ele><time>2026-04-06T17:35:30Z</time></trkpt><trkpt lat="43.72010553259386" lon="11.192928801743806"><ele>178.0</ele><time>2026-04-06T17:35:31Z</time></trkpt><trkpt lat="43.72020551810724" lon="11.192854842263252"><ele>178.0</ele><time>2026-04-06T17:35:32Z</time></trkpt><trkpt lat="43.720305344745796" lon="11.192795247760653"><ele>178.0</ele><time>2026-04-06T17:35:33Z</time></trkpt><trkpt lat="43.72039994906238" lon="11.19275892997491"><ele>178.0</ele><time>2026-04-06T17:35:34Z</time></trkpt><trkpt lat="43.72049325712865" lon="11.192734443132286"><ele>179.2</ele><time>2026-04-06T17:35:35Z</time></trkpt><trkpt lat="43.72057577615092" lon="11.192803015370185"><ele>180.4</ele><time>2026-04-06T17:35:36Z</time></trkpt><trkpt lat="43.720664941732466" lon="11.19284245693726"><ele>181.6</ele><time>2026-04-06T17:35:37Z</time></trkpt><trkpt lat="43.7207312967677" lon="11.192946354181574"><ele>182.79999999999998</ele><time>2026-04-06T17:35:38Z</time></trkpt><trkpt lat="43.72077429778692" lon="11.193074509148806"><ele>184.0</ele><time>2026-04-06T17:35:39Z</time></trkpt><trkpt lat="43.72079900232094" lon="11.19322669644266"><ele>184.0</ele><time>2026-04-06T17:35:40Z</time></trkpt><trkpt lat="43.72078823734489" lon="11.193393780695004"><ele>184.0</ele><time>2026-04-06T17:35:41Z</time></trkpt><trkpt lat="43.72075373292859" lon="11.193564448421881"><ele>184.0</ele><time>2026-04-06T17:35:42Z</time></trkpt><trkpt lat="43.720696202301696" lon="11.193744330508874"><ele>184.0</ele><time>2026-04-06T17:35:43Z</time></trkpt><trkpt lat="43.72063352517447" lon="11.193917186678053"><ele>182.5</ele><time>2026-04-06T17:35:44Z</time></trkpt><trkpt lat="43.72057373499139" lon="11.194087462356052"><ele>181.0</ele><time>2026-04-06T17:35:45Z</time></trkpt><trkpt lat="43.7205203697627" lon="11.194258944881437"><ele>179.5</ele><time>2026-04-06T17:35:46Z</time></trkpt><trkpt lat="43.72047746345572" lon="11.194435781936296"><ele>178.0</ele><time>2026-04-06T17:35:47Z</time></trkpt><trkpt lat="43.720449056415255" lon="11.194629800161326"><ele>178.0</ele><time>2026-04-06T17:35:48Z</time></trkpt><trkpt lat="43.720442625835666" lon="11.194827583586537"><ele>178.0</ele><time>2026-04-06T17:35:49Z</time></trkpt><trkpt lat="43.72045806483922" lon="11.19502550854126"><ele>178.0</ele><time>2026-04-06T17:35:50Z</time></trkpt><trkpt lat="43.72048583715709" lon="11.195239618409673"><ele>178.0</ele><time>2026-04-06T17:35:51Z</time></trkpt><trkpt lat="43.720526920784295" lon="11.19543882762302"><ele>177.0</ele><time>2026-04-06T17:35:52Z</time></trkpt><trkpt lat="43.72056996992301" lon="11.195641590375995"><ele>176.0</ele><time>2026-04-06T17:35:53Z</time></trkpt><trkpt lat="43.720617123673236" lon="11.195849387283568"><ele>175.0</ele><time>2026-04-06T17:35:54Z</time></trkpt><trkpt lat="43.72066368787323" lon="11.196064481143882"><ele>175.0</ele><time>2026-04-06T17:35:55Z</time></trkpt><trkpt lat="43.72071225643197" lon="11.196273692098336"><ele>175.0</ele><time>2026-04-06T17:35:56Z</time></trkpt><trkpt lat="43.72076430368738" lon="11.196494039216946"><ele>175.0</ele><time>2026-04-06T17:35:57Z</time></trkpt><trkpt lat="43.720809214076695" lon="11.19673358478263"><ele>176.5</ele><time>2026-04-06T17:35:58Z</time></trkpt><trkpt lat="43.72087058797702" lon="11.19701847965833"><ele>178.0</ele><time>2026-04-06T17:35:59Z</time></trkpt><trkpt lat="43.72094267841596" lon="11.197350181317477"><ele>179.5</ele><time>2026-04-06T17:36:00Z</time></trkpt><trkpt lat="43.72101669761103" lon="11.1976726157838"><ele>181.0</ele><time>2026-04-06T17:36:01Z</time></trkpt><trkpt lat="43.72107758324197" lon="11.197965205081607"><ele>178.66666666666669</ele><time>2026-04-06T17:36:02Z</time></trkpt><trkpt lat="43.721133886148884" lon="11.198224632314226"><ele>176.33333333333334</ele><time>2026-04-06T17:36:03Z</time></trkpt><trkpt lat="43.72118217248921" lon="11.198461907179109"><ele>174.0</ele><time>2026-04-06T17:36:04Z</time></trkpt><trkpt lat="43.72122910878085" lon="11.198680798521377"><ele>174.0</ele><time>2026-04-06T17:36:05Z</time></trkpt><trkpt lat="43.721295623742904" lon="11.19887039466104"><ele>174.0</ele><time>2026-04-06T17:36:06Z</time></trkpt><trkpt lat="43.72138979926086" lon="11.199022076634147"><ele>174.0</ele><time>2026-04-06T17:36:07Z</time></trkpt><trkpt lat="43.7215127188577" lon="11.199157915832016"><ele>173.33333333333334</ele><time>2026-04-06T17:36:08Z</time></trkpt><trkpt lat="43.72166615763025" lon="11.19925599740252"><ele>172.66666666666669</ele><time>2026-04-06T17:36:09Z</time></trkpt><trkpt lat="43.7218431690926" lon="11.199306724324899"><ele>172.0</ele><time>2026-04-06T17:36:10Z</time></trkpt><trkpt lat="43.72204481950648" lon="11.199312914538329"><ele>171.33333333333334</ele><time>2026-04-06T17:36:11Z</time></trkpt><trkpt lat="43.72224446253609" lon="11.199306839786729"><ele>170.66666666666666</ele><time>2026-04-06T17:36:12Z</time></trkpt><trkpt lat="43.7224409074113" lon="11.199309944982476"><ele>170.0</ele><time>2026-04-06T17:36:13Z</time></trkpt><trkpt lat="43.722637144925045" lon="11.199306337585393"><ele>172.0</ele><time>2026-04-06T17:36:14Z</time></trkpt><trkpt lat="43.72283895302587" lon="11.19926017759958"><ele>174.0</ele><time>2026-04-06T17:36:15Z</time></trkpt><trkpt lat="43.723046011469876" lon="11.19916242324623"><ele>176.0</ele><time>2026-04-06T17:36:16Z</time></trkpt><trkpt lat="43.723256261200056" lon="11.199035563090295"><ele>175.66666666666666</ele><time>2026-04-06T17:36:17Z</time></trkpt><trkpt lat="43.723431070941004" lon="11.198922196271187"><ele>175.33333333333334</ele><time>2026-04-06T17:36:18Z</time></trkpt><trkpt lat="43.72359282995179" lon="11.198863775661136"><ele>175.0</ele><time>2026-04-06T17:36:19Z</time></trkpt><trkpt lat="43.72375011597148" lon="11.1988113108462"><ele>177.66666666666669</ele><time>2026-04-06T17:36:20Z</time></trkpt><trkpt lat="43.723928886186116" lon="11.198783327575281"><ele>180.33333333333334</ele><time>2026-04-06T17:36:21Z</time></trkpt><trkpt lat="43.72412561185032" lon="11.198760011261623"><ele>183.0</ele><time>2026-04-06T17:36:22Z</time></trkpt><trkpt lat="43.72431359220671" lon="11.198748613612251"><ele>184.66666666666666</ele><time>2026-04-06T17:36:23Z</time></trkpt><trkpt lat="43.72447569065911" lon="11.198773460323556"><ele>186.33333333333331</ele><time>2026-04-06T17:36:24Z</time></trkpt><trkpt lat="43.72461975653725" lon="11.198864993617095"><ele>188.0</ele><time>2026-04-06T17:36:25Z</time></trkpt><trkpt lat="43.72474019483533" lon="11.199019893770073"><ele>186.33333333333331</ele><time>2026-04-06T17:36:26Z</time></trkpt><trkpt lat="43.72488406730424" lon="11.19920052071638"><ele>184.66666666666666</ele><time>2026-04-06T17:36:27Z</time></trkpt><trkpt lat="43.72506106967083" lon="11.199374189504463"><ele>183.0</ele><time>2026-04-06T17:36:28Z</time></trkpt><trkpt lat="43.7252533628393" lon="11.199587518332802"><ele>183.0</ele><time>2026-04-06T17:36:29Z</time></trkpt><trkpt lat="43.72545240469672" lon="11.199802818100695"><ele>183.0</ele><time>2026-04-06T17:36:30Z</time></trkpt><trkpt lat="43.725639221002965" lon="11.200005546395905"><ele>181.66666666666666</ele><time>2026-04-06T17:36:31Z</time></trkpt><trkpt lat="43.725803396241645" lon="11.200181973283511"><ele>180.33333333333331</ele><time>2026-04-06T17:36:32Z</time></trkpt><trkpt lat="43.72596715264269" lon="11.20034277753215"><ele>179.0</ele><time>2026-04-06T17:36:33Z</time></trkpt><trkpt lat="43.72613710293604" lon="11.20047901625056"><ele>179.0</ele><time>2026-04-06T17:36:33.999Z</time></trkpt><trkpt lat="43.72631426237965" lon="11.200574364322959"><ele>179.0</ele><time>2026-04-06T17:36:34.999Z</time></trkpt><trkpt lat="43.72648442426173" lon="11.200640984806569"><ele>179.0</ele><time>2026-04-06T17:36:35.999Z</time></trkpt><trkpt lat="43.72663385301472" lon="11.20074148065781"><ele>179.0</ele><time>2026-04-06T17:36:36.999Z</time></trkpt><trkpt lat="43.7267789287903" lon="11.200856576690581"><ele>179.0</ele><time>2026-04-06T17:36:37.999Z</time></trkpt><trkpt lat="43.726932122348586" lon="11.200990024113118"><ele>179.0</ele><time>2026-04-06T17:36:38.999Z</time></trkpt><trkpt lat="43.727100467920145" lon="11.201134958508405"><ele>179.0</ele><time>2026-04-06T17:36:39.999Z</time></trkpt><trkpt lat="43.72725966600993" lon="11.201306235003356"><ele>179.0</ele><time>2026-04-06T17:36:40.999Z</time></trkpt><trkpt lat="43.7274168067143" lon="11.201493960012106"><ele>179.0</ele><time>2026-04-06T17:36:41.999Z</time></trkpt><trkpt lat="43.727574798094274" lon="11.201691210795536"><ele>172.66666666666666</ele><time>2026-04-06T17:36:42.999Z</time></trkpt><trkpt lat="43.727730271302526" lon="11.201896066975463"><ele>166.33333333333334</ele><time>2026-04-06T17:36:43.999Z</time></trkpt><trkpt lat="43.727886422848194" lon="11.20209067377278"><ele>160.0</ele><time>2026-04-06T17:36:44.999Z</time></trkpt><trkpt lat="43.728049114363905" lon="11.202276752160058"><ele>160.66666666666669</ele><time>2026-04-06T17:36:45.999Z</time></trkpt><trkpt lat="43.72821880992772" lon="11.202454630459112"><ele>161.33333333333334</ele><time>2026-04-06T17:36:46.999Z</time></trkpt><trkpt lat="43.72838894679056" lon="11.202627442759665"><ele>162.0</ele><time>2026-04-06T17:36:47.999Z</time></trkpt><trkpt lat="43.72855332936551" lon="11.202785773078448"><ele>160.66666666666666</ele><time>2026-04-06T17:36:48.999Z</time></trkpt><trkpt lat="43.728716599115096" lon="11.202937715381163"><ele>159.33333333333331</ele><time>2026-04-06T17:36:49.999Z</time></trkpt><trkpt lat="43.7288738473526" lon="11.203096899799306"><ele>158.0</ele><time>2026-04-06T17:36:50.999Z</time></trkpt><trkpt lat="43.72900975824807" lon="11.20326380833149"><ele>161.0</ele><time>2026-04-06T17:36:51.999Z</time></trkpt><trkpt lat="43.7291188847557" lon="11.203428951657013"><ele>164.0</ele><time>2026-04-06T17:36:52.999Z</time></trkpt><trkpt lat="43.72922134275877" lon="11.203585553525196"><ele>167.0</ele><time>2026-04-06T17:36:53.999Z</time></trkpt><trkpt lat="43.7293173367682" lon="11.203730359264824"><ele>166.0</ele><time>2026-04-06T17:36:54.999Z</time></trkpt><trkpt lat="43.72940386894099" lon="11.203864225818165"><ele>165.0</ele><time>2026-04-06T17:36:55.999Z</time></trkpt><trkpt lat="43.729478271240716" lon="11.203984292774807"><ele>164.0</ele><time>2026-04-06T17:36:56.999Z</time></trkpt><trkpt lat="43.72955334673899" lon="11.204075822661606"><ele>163.0</ele><time>2026-04-06T17:36:57.999Z</time></trkpt><trkpt lat="43.7295967750312" lon="11.20415335541572"><ele>162.0</ele><time>2026-04-06T17:36:58.999Z</time></trkpt><trkpt lat="43.72981397586134" lon="11.204021389896306"><ele>162.0</ele><time>2026-04-06T17:37:00.999Z</time></trkpt><trkpt lat="43.72994751716508" lon="11.203956210319314"><ele>162.0</ele><time>2026-04-06T17:37:01.999Z</time></trkpt><trkpt lat="43.73008293085672" lon="11.203884421193786"><ele>162.0</ele><time>2026-04-06T17:37:02.999Z</time></trkpt><trkpt lat="43.73021791614264" lon="11.203813776501304"><ele>162.0</ele><time>2026-04-06T17:37:03.998Z</time></trkpt><trkpt lat="43.73035932060473" lon="11.203755636359078"><ele>161.33333333333334</ele><time>2026-04-06T17:37:04.998Z</time></trkpt><trkpt lat="43.730524903830535" lon="11.203733644922497"><ele>160.66666666666669</ele><time>2026-04-06T17:37:05.998Z</time></trkpt><trkpt lat="43.73071734848377" lon="11.203728908917652"><ele>160.0</ele><time>2026-04-06T17:37:06.998Z</time></trkpt><trkpt lat="43.7309099614285" lon="11.203729001655734"><ele>159.0</ele><time>2026-04-06T17:37:07.998Z</time></trkpt><trkpt lat="43.7310890417085" lon="11.20372072755937"><ele>158.0</ele><time>2026-04-06T17:37:08.998Z</time></trkpt><trkpt lat="43.73125567462276" lon="11.203678817381489"><ele>157.0</ele><time>2026-04-06T17:37:09.998Z</time></trkpt><trkpt lat="43.73141559549068" lon="11.203648352951019"><ele>157.0</ele><time>2026-04-06T17:37:10.998Z</time></trkpt><trkpt lat="43.73156680599929" lon="11.20362066842028"><ele>157.0</ele><time>2026-04-06T17:37:11.998Z</time></trkpt><trkpt lat="43.73170668726735" lon="11.203616897491216"><ele>157.0</ele><time>2026-04-06T17:37:12.998Z</time></trkpt><trkpt lat="43.73182366849112" lon="11.203623823853954"><ele>157.0</ele><time>2026-04-06T17:37:13.998Z</time></trkpt><trkpt lat="43.73192873443418" lon="11.203610902470547"><ele>158.0</ele><time>2026-04-06T17:37:14.998Z</time></trkpt><trkpt lat="43.73202816287665" lon="11.203578666354758"><ele>159.0</ele><time>2026-04-06T17:37:15.998Z</time></trkpt><trkpt lat="43.73211264977613" lon="11.203460901367746"><ele>160.0</ele><time>2026-04-06T17:37:16.998Z</time></trkpt><trkpt lat="43.73213931978528" lon="11.203269211319103"><ele>161.0</ele><time>2026-04-06T17:37:17.998Z</time></trkpt><trkpt lat="43.7321660352081" lon="11.203058631235324"><ele>161.0</ele><time>2026-04-06T17:37:18.998Z</time></trkpt><trkpt lat="43.732217298881295" lon="11.202832854411525"><ele>161.0</ele><time>2026-04-06T17:37:19.998Z</time></trkpt><trkpt lat="43.73226065805556" lon="11.202609731833176"><ele>161.0</ele><time>2026-04-06T17:37:20.998Z</time></trkpt><trkpt lat="43.73230541019064" lon="11.20238697764547"><ele>160.0</ele><time>2026-04-06T17:37:21.998Z</time></trkpt><trkpt lat="43.73235027009685" lon="11.202160678002437"><ele>159.0</ele><time>2026-04-06T17:37:22.998Z</time></trkpt><trkpt lat="43.73237672973192" lon="11.201951066042561"><ele>158.0</ele><time>2026-04-06T17:37:23.999Z</time></trkpt><trkpt lat="43.73242466970975" lon="11.201779151962576"><ele>158.0</ele><time>2026-04-06T17:37:25Z</time></trkpt><trkpt lat="43.73241758875473" lon="11.201610927287588"><ele>158.0</ele><time>2026-04-06T17:37:25.999Z</time></trkpt><trkpt lat="43.732411544526556" lon="11.201434506583714"><ele>158.0</ele><time>2026-04-06T17:37:26.999Z</time></trkpt><trkpt lat="43.73235455924111" lon="11.201226672472824"><ele>158.0</ele><time>2026-04-06T17:37:28Z</time></trkpt><trkpt lat="43.73230657804607" lon="11.200985216430734"><ele>156.66666666666666</ele><time>2026-04-06T17:37:28.999Z</time></trkpt><trkpt lat="43.73225924016971" lon="11.200728858162744"><ele>155.33333333333334</ele><time>2026-04-06T17:37:29.999Z</time></trkpt><trkpt lat="43.73221217223049" lon="11.20046740622176"><ele>154.0</ele><time>2026-04-06T17:37:31Z</time></trkpt><trkpt lat="43.732167846624534" lon="11.200221496487869"><ele>151.0</ele><time>2026-04-06T17:37:31.999Z</time></trkpt><trkpt lat="43.73212050520817" lon="11.199973635115194"><ele>148.0</ele><time>2026-04-06T17:37:32.999Z</time></trkpt><trkpt lat="43.73209353685904" lon="11.199734762432971"><ele>145.0</ele><time>2026-04-06T17:37:34Z</time></trkpt><trkpt lat="43.732053137603046" lon="11.199507718204822"><ele>142.75</ele><time>2026-04-06T17:37:34.999Z</time></trkpt><trkpt lat="43.73202115594225" lon="11.199296342091763"><ele>140.5</ele><time>2026-04-06T17:37:36Z</time></trkpt><trkpt lat="43.732013003578494" lon="11.199096627829322"><ele>138.25</ele><time>2026-04-06T17:37:37Z</time></trkpt><trkpt lat="43.732039387774904" lon="11.198895749163537"><ele>136.0</ele><time>2026-04-06T17:37:37.999Z</time></trkpt><trkpt lat="43.732099298962765" lon="11.198681086969405"><ele>135.0</ele><time>2026-04-06T17:37:38.999Z</time></trkpt><trkpt lat="43.73217655186267" lon="11.198448350176385"><ele>134.0</ele><time>2026-04-06T17:37:39.999Z</time></trkpt><trkpt lat="43.73225855950415" lon="11.1982050745783"><ele>133.0</ele><time>2026-04-06T17:37:40.999Z</time></trkpt><trkpt lat="43.73234150506748" lon="11.197987846035868"><ele>132.0</ele><time>2026-04-06T17:37:41.999Z</time></trkpt><trkpt lat="43.73243217687952" lon="11.197804722990085"><ele>131.0</ele><time>2026-04-06T17:37:42.999Z</time></trkpt><trkpt lat="43.7325306739252" lon="11.197629625532004"><ele>130.0</ele><time>2026-04-06T17:37:43.999Z</time></trkpt><trkpt lat="43.73267554797157" lon="11.197505431223545"><ele>129.0</ele><time>2026-04-06T17:37:44.999Z</time></trkpt><trkpt lat="43.73279037852614" lon="11.197350756612837"><ele>128.0</ele><time>2026-04-06T17:37:45.999Z</time></trkpt><trkpt lat="43.73289234688086" lon="11.19720848087468"><ele>127.0</ele><time>2026-04-06T17:37:46.999Z</time></trkpt><trkpt lat="43.732964362781814" lon="11.19704804166724"><ele>126.0</ele><time>2026-04-06T17:37:47.999Z</time></trkpt><trkpt lat="43.7329979384094" lon="11.196870408580146"><ele>124.66666666666666</ele><time>2026-04-06T17:37:48.999Z</time></trkpt><trkpt lat="43.73299258805942" lon="11.196670090149492"><ele>123.33333333333333</ele><time>2026-04-06T17:37:49.999Z</time></trkpt><trkpt lat="43.73296113742111" lon="11.19645345958009"><ele>122.0</ele><time>2026-04-06T17:37:50.999Z</time></trkpt><trkpt lat="43.732908049532334" lon="11.196222901305429"><ele>121.33333333333333</ele><time>2026-04-06T17:37:51.999Z</time></trkpt><trkpt lat="43.73286019196918" lon="11.195973109654082"><ele>120.66666666666666</ele><time>2026-04-06T17:37:52.999Z</time></trkpt><trkpt lat="43.73281149106157" lon="11.195732950850577"><ele>120.0</ele><time>2026-04-06T17:37:53.999Z</time></trkpt><trkpt lat="43.732794015029356" lon="11.195514705199091"><ele>120.0</ele><time>2026-04-06T17:37:54.999Z</time></trkpt><trkpt lat="43.732779870868825" lon="11.195312040154128"><ele>120.0</ele><time>2026-04-06T17:37:55.999Z</time></trkpt><trkpt lat="43.732811430265734" lon="11.195140219085026"><ele>120.0</ele><time>2026-04-06T17:37:56.999Z</time></trkpt><trkpt lat="43.732866616156414" lon="11.194992208691758"><ele>120.0</ele><time>2026-04-06T17:37:57.999Z</time></trkpt><trkpt lat="43.73295511845934" lon="11.194854452234285"><ele>123.0</ele><time>2026-04-06T17:37:58.999Z</time></trkpt><trkpt lat="43.733070485197004" lon="11.194736533572144"><ele>126.0</ele><time>2026-04-06T17:37:59.999Z</time></trkpt><trkpt lat="43.73321282844881" lon="11.19461664754421"><ele>129.0</ele><time>2026-04-06T17:38:00.999Z</time></trkpt><trkpt lat="43.73336999473862" lon="11.194481232207398"><ele>129.0</ele><time>2026-04-06T17:38:01.999Z</time></trkpt><trkpt lat="43.73353385763623" lon="11.19433729179841"><ele>129.0</ele><time>2026-04-06T17:38:02.999Z</time></trkpt><trkpt lat="43.733697995320775" lon="11.194194832213421"><ele>129.0</ele><time>2026-04-06T17:38:03.999Z</time></trkpt><trkpt lat="43.73384296950154" lon="11.194053275510212"><ele>128.33333333333334</ele><time>2026-04-06T17:38:04.999Z</time></trkpt><trkpt lat="43.734007848062454" lon="11.193972953728707"><ele>127.66666666666667</ele><time>2026-04-06T17:38:05.999Z</time></trkpt><trkpt lat="43.73416309636449" lon="11.193887391494837"><ele>127.0</ele><time>2026-04-06T17:38:06.999Z</time></trkpt><trkpt lat="43.734320539153316" lon="11.19382478460649"><ele>125.33333333333334</ele><time>2026-04-06T17:38:07.999Z</time></trkpt><trkpt lat="43.73448287791249" lon="11.193765800961266"><ele>123.66666666666666</ele><time>2026-04-06T17:38:08.999Z</time></trkpt><trkpt lat="43.734638557286665" lon="11.193711273670615"><ele>122.0</ele><time>2026-04-06T17:38:09.999Z</time></trkpt><trkpt lat="43.734792771713245" lon="11.193657681780511"><ele>122.0</ele><time>2026-04-06T17:38:10.999Z</time></trkpt><trkpt lat="43.734937782276894" lon="11.193611541642912"><ele>122.0</ele><time>2026-04-06T17:38:11.999Z</time></trkpt><trkpt lat="43.73508176985216" lon="11.19356267170995"><ele>122.0</ele><time>2026-04-06T17:38:12.999Z</time></trkpt><trkpt lat="43.73522031744685" lon="11.19349408913521"><ele>122.0</ele><time>2026-04-06T17:38:13.999Z</time></trkpt><trkpt lat="43.73535948424621" lon="11.193444893080152"><ele>121.25</ele><time>2026-04-06T17:38:14.999Z</time></trkpt><trkpt lat="43.735488093107925" lon="11.193374643756357"><ele>120.5</ele><time>2026-04-06T17:38:15.999Z</time></trkpt><trkpt lat="43.73559595234444" lon="11.193278157419202"><ele>119.75</ele><time>2026-04-06T17:38:16.999Z</time></trkpt><trkpt lat="43.73566702262722" lon="11.19315805452716"><ele>119.0</ele><time>2026-04-06T17:38:17.999Z</time></trkpt><trkpt lat="43.73572232287933" lon="11.193008229887162"><ele>119.0</ele><time>2026-04-06T17:38:18.999Z</time></trkpt><trkpt lat="43.735786000532" lon="11.192863538999855"><ele>119.0</ele><time>2026-04-06T17:38:19.999Z</time></trkpt><trkpt lat="43.735847062074875" lon="11.192745584403271"><ele>119.0</ele><time>2026-04-06T17:38:20.999Z</time></trkpt><trkpt lat="43.73593203357889" lon="11.192673544211146"><ele>119.0</ele><time>2026-04-06T17:38:21.999Z</time></trkpt><trkpt lat="43.736050888495285" lon="11.192595967255032"><ele>117.75</ele><time>2026-04-06T17:38:22.999Z</time></trkpt><trkpt lat="43.73618288111458" lon="11.192515423571107"><ele>116.5</ele><time>2026-04-06T17:38:23.999Z</time></trkpt><trkpt lat="43.736314014780405" lon="11.192434739724687"><ele>115.25</ele><time>2026-04-06T17:38:24.999Z</time></trkpt><trkpt lat="43.736437844920665" lon="11.192357345765732"><ele>114.0</ele><time>2026-04-06T17:38:25.999Z</time></trkpt><trkpt lat="43.73655934658751" lon="11.192281407329043"><ele>113.0</ele><time>2026-04-06T17:38:26.999Z</time></trkpt><trkpt lat="43.73668074504421" lon="11.192205533293777"><ele>112.0</ele><time>2026-04-06T17:38:27.999Z</time></trkpt><trkpt lat="43.73680418245651" lon="11.192127556645074"><ele>111.0</ele><time>2026-04-06T17:38:28.999Z</time></trkpt><trkpt lat="43.736927957847605" lon="11.192048420231933"><ele>110.0</ele><time>2026-04-06T17:38:29.999Z</time></trkpt><trkpt lat="43.73705543144388" lon="11.191965444416859"><ele>109.0</ele><time>2026-04-06T17:38:30.999Z</time></trkpt><trkpt lat="43.73718084155933" lon="11.191881641632317"><ele>108.0</ele><time>2026-04-06T17:38:31.999Z</time></trkpt><trkpt lat="43.73729607360374" lon="11.191780250004506"><ele>107.0</ele><time>2026-04-06T17:38:32.999Z</time></trkpt><trkpt lat="43.73741257300489" lon="11.191703080575403"><ele>106.0</ele><time>2026-04-06T17:38:33.999Z</time></trkpt><trkpt lat="43.73752634743918" lon="11.19162931212348"><ele>106.0</ele><time>2026-04-06T17:38:34.999Z</time></trkpt><trkpt lat="43.737649073901686" lon="11.191569692025656"><ele>106.0</ele><time>2026-04-06T17:38:35.999Z</time></trkpt><trkpt lat="43.73777244399804" lon="11.191487054908112"><ele>106.0</ele><time>2026-04-06T17:38:36.999Z</time></trkpt><trkpt lat="43.737902801014116" lon="11.191398152198081"><ele>106.0</ele><time>2026-04-06T17:38:37.999Z</time></trkpt><trkpt lat="43.73803213854084" lon="11.191299736926963"><ele>104.75</ele><time>2026-04-06T17:38:38.999Z</time></trkpt><trkpt lat="43.73815085527225" lon="11.191172978693956"><ele>103.5</ele><time>2026-04-06T17:38:39.999Z</time></trkpt><trkpt lat="43.73824625732204" lon="11.191022366493335"><ele>102.25</ele><time>2026-04-06T17:38:40.999Z</time></trkpt><trkpt lat="43.738342783166786" lon="11.190886677636593"><ele>101.0</ele><time>2026-04-06T17:38:41.998Z</time></trkpt><trkpt lat="43.73844241615047" lon="11.190766825593961"><ele>99.75</ele><time>2026-04-06T17:38:42.998Z</time></trkpt><trkpt lat="43.73852578592032" lon="11.19063345598766"><ele>98.5</ele><time>2026-04-06T17:38:43.998Z</time></trkpt><trkpt lat="43.738605260677794" lon="11.190500385835982"><ele>97.25</ele><time>2026-04-06T17:38:44.998Z</time></trkpt><trkpt lat="43.73867005682994" lon="11.19035440270537"><ele>96.0</ele><time>2026-04-06T17:38:45.998Z</time></trkpt><trkpt lat="43.738758639609756" lon="11.190225613321134"><ele>95.5</ele><time>2026-04-06T17:38:46.998Z</time></trkpt><trkpt lat="43.7388414534296" lon="11.190079258989622"><ele>95.0</ele><time>2026-04-06T17:38:47.998Z</time></trkpt><trkpt lat="43.738924538518646" lon="11.18993617568815"><ele>94.5</ele><time>2026-04-06T17:38:48.998Z</time></trkpt><trkpt lat="43.73899416168483" lon="11.189785129007616"><ele>94.0</ele><time>2026-04-06T17:38:49.998Z</time></trkpt><trkpt lat="43.73907301570768" lon="11.189648052364701"><ele>93.0</ele><time>2026-04-06T17:38:50.998Z</time></trkpt><trkpt lat="43.73915612096083" lon="11.18950738324222"><ele>92.0</ele><time>2026-04-06T17:38:51.998Z</time></trkpt><trkpt lat="43.73924504325743" lon="11.18936383554445"><ele>91.0</ele><time>2026-04-06T17:38:52.998Z</time></trkpt><trkpt lat="43.73931013218376" lon="11.18918684412956"><ele>90.0</ele><time>2026-04-06T17:38:53.998Z</time></trkpt><trkpt lat="43.73938315559638" lon="11.189026018885816"><ele>87.75</ele><time>2026-04-06T17:38:54.998Z</time></trkpt><trkpt lat="43.739465751123866" lon="11.188882731791917"><ele>85.5</ele><time>2026-04-06T17:38:55.998Z</time></trkpt><trkpt lat="43.7395260915219" lon="11.188748667914394"><ele>83.25</ele><time>2026-04-06T17:38:56.998Z</time></trkpt><trkpt lat="43.73957150339322" lon="11.188604401679338"><ele>81.0</ele><time>2026-04-06T17:38:57.998Z</time></trkpt><trkpt lat="43.7396365967847" lon="11.18847661540509"><ele>81.0</ele><time>2026-04-06T17:38:58.998Z</time></trkpt><trkpt lat="43.739693481636955" lon="11.188345582486125"><ele>81.0</ele><time>2026-04-06T17:38:59.998Z</time></trkpt><trkpt lat="43.739748343462125" lon="11.188215668198561"><ele>81.0</ele><time>2026-04-06T17:39:00.998Z</time></trkpt><trkpt lat="43.73980907711373" lon="11.188084278051281"><ele>81.0</ele><time>2026-04-06T17:39:01.998Z</time></trkpt><trkpt lat="43.73987901251565" lon="11.187937361436019"><ele>81.0</ele><time>2026-04-06T17:39:02.998Z</time></trkpt><trkpt lat="43.73994912521482" lon="11.18777654339549"><ele>81.0</ele><time>2026-04-06T17:39:03.998Z</time></trkpt><trkpt lat="43.74003063447207" lon="11.187622807894462"><ele>81.0</ele><time>2026-04-06T17:39:04.998Z</time></trkpt><trkpt lat="43.74008483706568" lon="11.187456865261485"><ele>81.0</ele><time>2026-04-06T17:39:05.998Z</time></trkpt><trkpt lat="43.74015657903316" lon="11.187306425811814"><ele>78.5</ele><time>2026-04-06T17:39:06.998Z</time></trkpt><trkpt lat="43.74022874163523" lon="11.187150497858049"><ele>76.0</ele><time>2026-04-06T17:39:07.998Z</time></trkpt><trkpt lat="43.740295218472994" lon="11.186986164127042"><ele>73.5</ele><time>2026-04-06T17:39:08.998Z</time></trkpt><trkpt lat="43.740358477097544" lon="11.186816120000834"><ele>71.0</ele><time>2026-04-06T17:39:09.998Z</time></trkpt><trkpt lat="43.740417403103045" lon="11.186655043538712"><ele>70.0</ele><time>2026-04-06T17:39:10.998Z</time></trkpt><trkpt lat="43.7404739626897" lon="11.186501369104562"><ele>69.0</ele><time>2026-04-06T17:39:11.998Z</time></trkpt><trkpt lat="43.74053337212892" lon="11.186349399095828"><ele>68.0</ele><time>2026-04-06T17:39:12.998Z</time></trkpt><trkpt lat="43.74059719002934" lon="11.186192031690421"><ele>67.0</ele><time>2026-04-06T17:39:13.998Z</time></trkpt><trkpt lat="43.74066788345317" lon="11.186028264137159"><ele>67.0</ele><time>2026-04-06T17:39:14.998Z</time></trkpt><trkpt lat="43.740750220444134" lon="11.18587277349763"><ele>67.0</ele><time>2026-04-06T17:39:15.998Z</time></trkpt><trkpt lat="43.74085536272423" lon="11.185749145162854"><ele>67.0</ele><time>2026-04-06T17:39:16.998Z</time></trkpt><trkpt lat="43.74094115921239" lon="11.1856121816064"><ele>67.0</ele><time>2026-04-06T17:39:17.998Z</time></trkpt><trkpt lat="43.74100685658219" lon="11.18546910282176"><ele>64.5</ele><time>2026-04-06T17:39:18.998Z</time></trkpt><trkpt lat="43.74107207606519" lon="11.185339522536134"><ele>62.0</ele><time>2026-04-06T17:39:19.998Z</time></trkpt><trkpt lat="43.741124769693585" lon="11.18518779323564"><ele>59.5</ele><time>2026-04-06T17:39:20.998Z</time></trkpt><trkpt lat="43.741155588941744" lon="11.185010316284417"><ele>57.0</ele><time>2026-04-06T17:39:21.998Z</time></trkpt><trkpt lat="43.74117646645571" lon="11.18482189304895"><ele>56.75</ele><time>2026-04-06T17:39:22.998Z</time></trkpt><trkpt lat="43.741215335581046" lon="11.184655318467543"><ele>56.5</ele><time>2026-04-06T17:39:23.998Z</time></trkpt><trkpt lat="43.74123933960203" lon="11.184492656317657"><ele>56.25</ele><time>2026-04-06T17:39:24.998Z</time></trkpt><trkpt lat="43.74124486973839" lon="11.184323405189065"><ele>56.0</ele><time>2026-04-06T17:39:25.998Z</time></trkpt><trkpt lat="43.74127108805366" lon="11.184181563152219"><ele>56.0</ele><time>2026-04-06T17:39:26.998Z</time></trkpt><trkpt lat="43.74130035774701" lon="11.184062436324778"><ele>55.99999999999999</ele><time>2026-04-06T17:39:27.998Z</time></trkpt><trkpt lat="43.74135980901303" lon="11.183972193477366"><ele>55.99999999999999</ele><time>2026-04-06T17:39:29Z</time></trkpt><trkpt lat="43.74144752818431" lon="11.183894721710486"><ele>56.0</ele><time>2026-04-06T17:39:30Z</time></trkpt><trkpt lat="43.741565721351705" lon="11.183845261394513"><ele>56.0</ele><time>2026-04-06T17:39:31Z</time></trkpt><trkpt lat="43.7416895149118" lon="11.183742048971624"><ele>55.75</ele><time>2026-04-06T17:39:32Z</time></trkpt><trkpt lat="43.741815723361015" lon="11.183658348913774"><ele>55.5</ele><time>2026-04-06T17:39:33Z</time></trkpt><trkpt lat="43.741934009403174" lon="11.18357633211628"><ele>55.25</ele><time>2026-04-06T17:39:34Z</time></trkpt><trkpt lat="43.74204773436478" lon="11.183493606310135"><ele>55.0</ele><time>2026-04-06T17:39:35Z</time></trkpt><trkpt lat="43.742163004693424" lon="11.18340074047239"><ele>54.75</ele><time>2026-04-06T17:39:36Z</time></trkpt><trkpt lat="43.742263911507656" lon="11.183257213693269"><ele>54.5</ele><time>2026-04-06T17:39:37Z</time></trkpt><trkpt lat="43.74235421346746" lon="11.18309604003537"><ele>54.25</ele><time>2026-04-06T17:39:38Z</time></trkpt><trkpt lat="43.74244265044303" lon="11.182928390318295"><ele>54.0</ele><time>2026-04-06T17:39:39Z</time></trkpt><trkpt lat="43.74255516754491" lon="11.182777045527809"><ele>54.0</ele><time>2026-04-06T17:39:40Z</time></trkpt><trkpt lat="43.742653196033785" lon="11.182601866829097"><ele>54.0</ele><time>2026-04-06T17:39:41Z</time></trkpt><trkpt lat="43.74277109477838" lon="11.182473726698868"><ele>54.0</ele><time>2026-04-06T17:39:42Z</time></trkpt><trkpt lat="43.74288960260902" lon="11.182362042916626"><ele>54.0</ele><time>2026-04-06T17:39:43Z</time></trkpt><trkpt lat="43.74300983831969" lon="11.182259952351584"><ele>54.0</ele><time>2026-04-06T17:39:44Z</time></trkpt><trkpt lat="43.743118633142615" lon="11.182148187980376"><ele>54.0</ele><time>2026-04-06T17:39:45Z</time></trkpt><trkpt lat="43.743206367397896" lon="11.182026056879915"><ele>54.0</ele><time>2026-04-06T17:39:45.999Z</time></trkpt><trkpt lat="43.74327364066442" lon="11.181890178090576"><ele>54.0</ele><time>2026-04-06T17:39:46.999Z</time></trkpt><trkpt lat="43.74331684847208" lon="11.181754153440327"><ele>54.00000000000001</ele><time>2026-04-06T17:39:47.999Z</time></trkpt><trkpt lat="43.743348475196896" lon="11.181635308195972"><ele>54.00000000000001</ele><time>2026-04-06T17:39:48.999Z</time></trkpt><trkpt lat="43.743399563157034" lon="11.181548763835748"><ele>54.0</ele><time>2026-04-06T17:39:49.999Z</time></trkpt><trkpt lat="43.74344566761789" lon="11.181477531027285"><ele>54.0</ele><time>2026-04-06T17:39:50.999Z</time></trkpt><trkpt lat="43.74362347949327" lon="11.181542421543124"><ele>54.0</ele><time>2026-04-06T17:39:52.999Z</time></trkpt><trkpt lat="43.74370854331062" lon="11.18161451810289"><ele>54.00000000000001</ele><time>2026-04-06T17:39:53.999Z</time></trkpt><trkpt lat="43.7437965792523" lon="11.181693633050935"><ele>54.00000000000001</ele><time>2026-04-06T17:39:54.999Z</time></trkpt><trkpt lat="43.74388613891811" lon="11.181762401303972"><ele>54.0</ele><time>2026-04-06T17:39:55.999Z</time></trkpt><trkpt lat="43.7439841344695" lon="11.18182463628493"><ele>54.0</ele><time>2026-04-06T17:39:56.999Z</time></trkpt><trkpt lat="43.74409380061403" lon="11.18185086650119"><ele>54.0</ele><time>2026-04-06T17:39:57.999Z</time></trkpt><trkpt lat="43.74421777140289" lon="11.181838438650756"><ele>54.0</ele><time>2026-04-06T17:39:58.999Z</time></trkpt><trkpt lat="43.74434796417505" lon="11.181784364906212"><ele>54.0</ele><time>2026-04-06T17:39:59.999Z</time></trkpt><trkpt lat="43.744474228278854" lon="11.181722068115393"><ele>54.0</ele><time>2026-04-06T17:40:00.999Z</time></trkpt><trkpt lat="43.74458857908649" lon="11.181664559967825"><ele>54.0</ele><time>2026-04-06T17:40:01.999Z</time></trkpt><trkpt lat="43.744695651453675" lon="11.18160884005768"><ele>54.0</ele><time>2026-04-06T17:40:02.999Z</time></trkpt><trkpt lat="43.744809971693584" lon="11.181555447588774"><ele>54.0</ele><time>2026-04-06T17:40:03.999Z</time></trkpt><trkpt lat="43.74492838073219" lon="11.181490385921295"><ele>54.0</ele><time>2026-04-06T17:40:04.999Z</time></trkpt><trkpt lat="43.745052838142335" lon="11.181424478883008"><ele>54.0</ele><time>2026-04-06T17:40:05.999Z</time></trkpt><trkpt lat="43.74517892834241" lon="11.18135467534879"><ele>54.0</ele><time>2026-04-06T17:40:06.999Z</time></trkpt><trkpt lat="43.74530401492963" lon="11.181273930672539"><ele>54.0</ele><time>2026-04-06T17:40:07.999Z</time></trkpt><trkpt lat="43.74542490276403" lon="11.181189399711757"><ele>54.0</ele><time>2026-04-06T17:40:08.999Z</time></trkpt><trkpt lat="43.745539683395" lon="11.18110736315595"><ele>53.75</ele><time>2026-04-06T17:40:09.999Z</time></trkpt><trkpt lat="43.745658252217986" lon="11.18105311076576"><ele>53.5</ele><time>2026-04-06T17:40:10.999Z</time></trkpt><trkpt lat="43.7457714364779" lon="11.180977043256693"><ele>53.25</ele><time>2026-04-06T17:40:11.999Z</time></trkpt><trkpt lat="43.74584564359544" lon="11.180859078655063"><ele>53.0</ele><time>2026-04-06T17:40:12.999Z</time></trkpt><trkpt lat="43.745928232527284" lon="11.180772461815346"><ele>53.00000000000001</ele><time>2026-04-06T17:40:13.999Z</time></trkpt><trkpt lat="43.74600530165411" lon="11.180694599301914"><ele>53.0</ele><time>2026-04-06T17:40:14.999Z</time></trkpt><trkpt lat="43.746084372348456" lon="11.180616984399919"><ele>53.0</ele><time>2026-04-06T17:40:15.999Z</time></trkpt><trkpt lat="43.746159009160245" lon="11.18054395706704"><ele>53.0</ele><time>2026-04-06T17:40:16.999Z</time></trkpt><trkpt lat="43.74622226102075" lon="11.18047810383113"><ele>53.00000000000001</ele><time>2026-04-06T17:40:17.999Z</time></trkpt><trkpt lat="43.746293559250496" lon="11.180420869989879"><ele>53.0</ele><time>2026-04-06T17:40:19.999Z</time></trkpt><trkpt lat="43.74634533543808" lon="11.180352939883344"><ele>52.599999999999994</ele><time>2026-04-06T17:40:26.999Z</time></trkpt><trkpt lat="43.74642668114246" lon="11.180449836645675"><ele>52.199999999999996</ele><time>2026-04-06T17:40:27.999Z</time></trkpt><trkpt lat="43.74647691453756" lon="11.180532688180302"><ele>51.8</ele><time>2026-04-06T17:40:28.999Z</time></trkpt><trkpt lat="43.74653182952431" lon="11.180629736551978"><ele>51.4</ele><time>2026-04-06T17:40:29.999Z</time></trkpt><trkpt lat="43.74659016870761" lon="11.180725503176724"><ele>51.0</ele><time>2026-04-06T17:40:30.999Z</time></trkpt><trkpt lat="43.74665033484554" lon="11.180813892515465"><ele>51.0</ele><time>2026-04-06T17:40:31.999Z</time></trkpt><trkpt lat="43.74671944602069" lon="11.180907318815688"><ele>51.0</ele><time>2026-04-06T17:40:32.999Z</time></trkpt><trkpt lat="43.74680860384191" lon="11.181018060838072"><ele>51.0</ele><time>2026-04-06T17:40:33.999Z</time></trkpt><trkpt lat="43.7468714983241" lon="11.181092298176846"><ele>51.0</ele><time>2026-04-06T17:40:34.999Z</time></trkpt><trkpt lat="43.746947986742065" lon="11.181204043114505"><ele>51.0</ele><time>2026-04-06T17:40:35.999Z</time></trkpt><trkpt lat="43.74702407334919" lon="11.181309408881887"><ele>51.0</ele><time>2026-04-06T17:40:36.999Z</time></trkpt><trkpt lat="43.74710252347129" lon="11.181419133466022"><ele>51.0</ele><time>2026-04-06T17:40:37.999Z</time></trkpt><trkpt lat="43.74717835573138" lon="11.181521083972198"><ele>51.0</ele><time>2026-04-06T17:40:38.999Z</time></trkpt><trkpt lat="43.747254222087975" lon="11.18162943193945"><ele>51.0</ele><time>2026-04-06T17:40:39.999Z</time></trkpt><trkpt lat="43.747330761160974" lon="11.181738207276428"><ele>51.0</ele><time>2026-04-06T17:40:40.999Z</time></trkpt><trkpt lat="43.747413061983124" lon="11.181847326577874"><ele>51.0</ele><time>2026-04-06T17:40:41.999Z</time></trkpt><trkpt lat="43.747507595260984" lon="11.181955279199604"><ele>51.0</ele><time>2026-04-06T17:40:42.999Z</time></trkpt><trkpt lat="43.74759917609987" lon="11.182046616418228"><ele>51.0</ele><time>2026-04-06T17:40:43.999Z</time></trkpt><trkpt lat="43.747688719949906" lon="11.182116604742943"><ele>51.0</ele><time>2026-04-06T17:40:44.999Z</time></trkpt><trkpt lat="43.74779680054469" lon="11.182193401399168"><ele>51.0</ele><time>2026-04-06T17:40:45.999Z</time></trkpt><trkpt lat="43.74790228629689" lon="11.182275112357777"><ele>51.0</ele><time>2026-04-06T17:40:46.999Z</time></trkpt><trkpt lat="43.74799838493169" lon="11.18236618381349"><ele>51.0</ele><time>2026-04-06T17:40:47.999Z</time></trkpt><trkpt lat="43.74809377609214" lon="11.182451099516479"><ele>51.0</ele><time>2026-04-06T17:40:48.998Z</time></trkpt><trkpt lat="43.74819465449754" lon="11.182537792128297"><ele>50.75</ele><time>2026-04-06T17:40:49.998Z</time></trkpt><trkpt lat="43.74830081849124" lon="11.182630639797544"><ele>50.5</ele><time>2026-04-06T17:40:50.998Z</time></trkpt><trkpt lat="43.748408336837485" lon="11.182708681537738"><ele>50.25</ele><time>2026-04-06T17:40:51.998Z</time></trkpt><trkpt lat="43.748512297748796" lon="11.182798260513964"><ele>50.0</ele><time>2026-04-06T17:40:52.998Z</time></trkpt><trkpt lat="43.7486120047492" lon="11.182885117702986"><ele>50.0</ele><time>2026-04-06T17:40:53.998Z</time></trkpt><trkpt lat="43.748709746864975" lon="11.182969649853224"><ele>50.0</ele><time>2026-04-06T17:40:54.998Z</time></trkpt><trkpt lat="43.74880556854332" lon="11.183052303810797"><ele>50.0</ele><time>2026-04-06T17:40:55.998Z</time></trkpt><trkpt lat="43.74889850259325" lon="11.183153546365135"><ele>50.0</ele><time>2026-04-06T17:40:56.998Z</time></trkpt><trkpt lat="43.74898603926106" lon="11.183266981508472"><ele>49.8</ele><time>2026-04-06T17:40:57.998Z</time></trkpt><trkpt lat="43.749069466856376" lon="11.183378298484788"><ele>49.6</ele><time>2026-04-06T17:40:58.998Z</time></trkpt><trkpt lat="43.74914707072977" lon="11.183483948182154"><ele>49.400000000000006</ele><time>2026-04-06T17:40:59.998Z</time></trkpt><trkpt lat="43.74922132329831" lon="11.183592201912807"><ele>49.2</ele><time>2026-04-06T17:41:00.998Z</time></trkpt><trkpt lat="43.74929537887852" lon="11.18369857124515"><ele>49.0</ele><time>2026-04-06T17:41:01.998Z</time></trkpt><trkpt lat="43.7493718747469" lon="11.183796544719213"><ele>49.0</ele><time>2026-04-06T17:41:02.998Z</time></trkpt><trkpt lat="43.74944198767526" lon="11.183901656614639"><ele>49.0</ele><time>2026-04-06T17:41:03.998Z</time></trkpt><trkpt lat="43.74951648306853" lon="11.18400915749667"><ele>49.0</ele><time>2026-04-06T17:41:04.998Z</time></trkpt><trkpt lat="43.74959382692864" lon="11.184113222250103"><ele>49.0</ele><time>2026-04-06T17:41:05.998Z</time></trkpt><trkpt lat="43.74966887582481" lon="11.184220065401142"><ele>49.0</ele><time>2026-04-06T17:41:06.998Z</time></trkpt><trkpt lat="43.74974201237093" lon="11.184333277044276"><ele>49.0</ele><time>2026-04-06T17:41:07.998Z</time></trkpt><trkpt lat="43.749819101642565" lon="11.184440942950012"><ele>49.0</ele><time>2026-04-06T17:41:08.998Z</time></trkpt><trkpt lat="43.74989199301223" lon="11.184551888503758"><ele>49.0</ele><time>2026-04-06T17:41:09.998Z</time></trkpt><trkpt lat="43.74997119758829" lon="11.184673122502435"><ele>49.0</ele><time>2026-04-06T17:41:10.998Z</time></trkpt><trkpt lat="43.750042341282445" lon="11.184780254233257"><ele>49.0</ele><time>2026-04-06T17:41:11.998Z</time></trkpt><trkpt lat="43.75010841973016" lon="11.184882045663075"><ele>49.0</ele><time>2026-04-06T17:41:12.998Z</time></trkpt><trkpt lat="43.75016790090562" lon="11.184984899661126"><ele>49.0</ele><time>2026-04-06T17:41:13.998Z</time></trkpt><trkpt lat="43.750223504824305" lon="11.185083499937457"><ele>49.0</ele><time>2026-04-06T17:41:14.998Z</time></trkpt><trkpt lat="43.75028469800637" lon="11.185187855754338"><ele>49.0</ele><time>2026-04-06T17:41:15.998Z</time></trkpt><trkpt lat="43.75034779474586" lon="11.185295646534184"><ele>49.0</ele><time>2026-04-06T17:41:16.998Z</time></trkpt><trkpt lat="43.75041887447341" lon="11.185413210446132"><ele>48.75</ele><time>2026-04-06T17:41:17.998Z</time></trkpt><trkpt lat="43.750499379145204" lon="11.185538518698602"><ele>48.5</ele><time>2026-04-06T17:41:18.998Z</time></trkpt><trkpt lat="43.750585572921786" lon="11.185656690022288"><ele>48.25</ele><time>2026-04-06T17:41:19.998Z</time></trkpt><trkpt lat="43.75067368062895" lon="11.185770115824303"><ele>48.0</ele><time>2026-04-06T17:41:20.998Z</time></trkpt><trkpt lat="43.75075406888175" lon="11.185870426491212"><ele>48.0</ele><time>2026-04-06T17:41:21.998Z</time></trkpt><trkpt lat="43.7508256077341" lon="11.185962572836772"><ele>48.0</ele><time>2026-04-06T17:41:22.998Z</time></trkpt><trkpt lat="43.75089770259774" lon="11.186053216862186"><ele>48.0</ele><time>2026-04-06T17:41:23.998Z</time></trkpt><trkpt lat="43.75097150512396" lon="11.186147296640515"><ele>48.0</ele><time>2026-04-06T17:41:24.998Z</time></trkpt><trkpt lat="43.75104584540502" lon="11.186245428728142"><ele>48.0</ele><time>2026-04-06T17:41:25.998Z</time></trkpt><trkpt lat="43.75111663140487" lon="11.186345052649918"><ele>47.8</ele><time>2026-04-06T17:41:26.998Z</time></trkpt><trkpt lat="43.75118608502256" lon="11.18644165949063"><ele>47.599999999999994</ele><time>2026-04-06T17:41:27.998Z</time></trkpt><trkpt lat="43.75125650706319" lon="11.186535107297223"><ele>47.400000000000006</ele><time>2026-04-06T17:41:28.998Z</time></trkpt><trkpt lat="43.75132185408015" lon="11.186628014142018"><ele>47.2</ele><time>2026-04-06T17:41:29.998Z</time></trkpt><trkpt lat="43.751381456027104" lon="11.18671895689705"><ele>47.0</ele><time>2026-04-06T17:41:30.998Z</time></trkpt><trkpt lat="43.75144896486222" lon="11.186808147912945"><ele>46.8</ele><time>2026-04-06T17:41:31.998Z</time></trkpt><trkpt lat="43.75151718164404" lon="11.18690638398469"><ele>46.6</ele><time>2026-04-06T17:41:32.998Z</time></trkpt><trkpt lat="43.75159334262554" lon="11.187010284699848"><ele>46.4</ele><time>2026-04-06T17:41:33.998Z</time></trkpt><trkpt lat="43.75167002115324" lon="11.187115488235507"><ele>46.199999999999996</ele><time>2026-04-06T17:41:35Z</time></trkpt><trkpt lat="43.75174197884429" lon="11.187214823753868"><ele>46.0</ele><time>2026-04-06T17:41:36Z</time></trkpt><trkpt lat="43.75181204396168" lon="11.187309099059728"><ele>46.16666666666667</ele><time>2026-04-06T17:41:37Z</time></trkpt><trkpt lat="43.751882203969785" lon="11.18739425580114"><ele>46.333333333333336</ele><time>2026-04-06T17:41:38Z</time></trkpt><trkpt lat="43.751952252335784" lon="11.187472306372786"><ele>46.5</ele><time>2026-04-06T17:41:39Z</time></trkpt><trkpt lat="43.75201825537091" lon="11.187539412714592"><ele>46.666666666666664</ele><time>2026-04-06T17:41:40Z</time></trkpt><trkpt lat="43.75208853845983" lon="11.187612197582515"><ele>46.83333333333333</ele><time>2026-04-06T17:41:41Z</time></trkpt><trkpt lat="43.75215155325386" lon="11.187683945794973"><ele>47.0</ele><time>2026-04-06T17:41:42Z</time></trkpt><trkpt lat="43.75220992543424" lon="11.187762922144755"><ele>47.0</ele><time>2026-04-06T17:41:43Z</time></trkpt><trkpt lat="43.75226425542423" lon="11.187846585779303"><ele>47.0</ele><time>2026-04-06T17:41:44Z</time></trkpt><trkpt lat="43.75231729104389" lon="11.187930673533545"><ele>47.0</ele><time>2026-04-06T17:41:45Z</time></trkpt><trkpt lat="43.752367767860484" lon="11.1880181747343"><ele>47.0</ele><time>2026-04-06T17:41:46Z</time></trkpt><trkpt lat="43.75241478313049" lon="11.1881031393739"><ele>47.0</ele><time>2026-04-06T17:41:47Z</time></trkpt><trkpt lat="43.75245887672189" lon="11.188187275307332"><ele>47.0</ele><time>2026-04-06T17:41:48Z</time></trkpt><trkpt lat="43.75250016934226" lon="11.188275173664042"><ele>47.0</ele><time>2026-04-06T17:41:49Z</time></trkpt><trkpt lat="43.7525439317382" lon="11.188367161919915"><ele>47.0</ele><time>2026-04-06T17:41:50Z</time></trkpt><trkpt lat="43.752592197945354" lon="11.188454666555698"><ele>47.0</ele><time>2026-04-06T17:41:51Z</time></trkpt><trkpt lat="43.75263807394626" lon="11.188538892038537"><ele>47.0</ele><time>2026-04-06T17:41:52Z</time></trkpt><trkpt lat="43.75268057153672" lon="11.18862248016706"><ele>47.0</ele><time>2026-04-06T17:41:52.999Z</time></trkpt><trkpt lat="43.75272252009957" lon="11.188699768649611"><ele>47.0</ele><time>2026-04-06T17:41:53.999Z</time></trkpt><trkpt lat="43.75276220807415" lon="11.188772857773694"><ele>47.0</ele><time>2026-04-06T17:41:54.999Z</time></trkpt><trkpt lat="43.75279979072218" lon="11.188844670493614"><ele>47.0</ele><time>2026-04-06T17:41:55.999Z</time></trkpt><trkpt lat="43.75283959566636" lon="11.188918984316924"><ele>47.0</ele><time>2026-04-06T17:41:56.999Z</time></trkpt><trkpt lat="43.75288240736551" lon="11.188998608581967"><ele>47.0</ele><time>2026-04-06T17:41:57.999Z</time></trkpt><trkpt lat="43.752928164946844" lon="11.18909148522161"><ele>47.0</ele><time>2026-04-06T17:41:58.999Z</time></trkpt><trkpt lat="43.75298169601958" lon="11.189194039763763"><ele>47.0</ele><time>2026-04-06T17:41:59.999Z</time></trkpt><trkpt lat="43.753020829407795" lon="11.189306017271766"><ele>47.0</ele><time>2026-04-06T17:42:00.999Z</time></trkpt><trkpt lat="43.7530783456082" lon="11.189387157377867"><ele>47.285714285714285</ele><time>2026-04-06T17:42:01.999Z</time></trkpt><trkpt lat="43.75312423661612" lon="11.18947104774097"><ele>47.57142857142857</ele><time>2026-04-06T17:42:02.999Z</time></trkpt><trkpt lat="43.753167266200876" lon="11.18955831436787"><ele>47.85714285714286</ele><time>2026-04-06T17:42:03.999Z</time></trkpt><trkpt lat="43.753209838245304" lon="11.189641705310652"><ele>48.14285714285714</ele><time>2026-04-06T17:42:04.999Z</time></trkpt><trkpt lat="43.7532501756974" lon="11.18972396370573"><ele>48.42857142857143</ele><time>2026-04-06T17:42:05.999Z</time></trkpt><trkpt lat="43.753290236139065" lon="11.189804133333473"><ele>48.714285714285715</ele><time>2026-04-06T17:42:06.999Z</time></trkpt><trkpt lat="43.75332874833423" lon="11.18988766883103"><ele>49.0</ele><time>2026-04-06T17:42:07.999Z</time></trkpt><trkpt lat="43.75336178720394" lon="11.189981964060587"><ele>49.0</ele><time>2026-04-06T17:42:08.999Z</time></trkpt><trkpt lat="43.75341004833926" lon="11.19007577623387"><ele>49.0</ele><time>2026-04-06T17:42:09.999Z</time></trkpt><trkpt lat="43.75346623413775" lon="11.190150258331443"><ele>49.0</ele><time>2026-04-06T17:42:10.999Z</time></trkpt><trkpt lat="43.75350698864695" lon="11.19023395416722"><ele>49.0</ele><time>2026-04-06T17:42:11.999Z</time></trkpt><trkpt lat="43.753544287352085" lon="11.19030994075554"><ele>49.0</ele><time>2026-04-06T17:42:12.999Z</time></trkpt><trkpt lat="43.753582956863944" lon="11.190386819029436"><ele>49.0</ele><time>2026-04-06T17:42:13.999Z</time></trkpt><trkpt lat="43.753619651456084" lon="11.190466773375217"><ele>49.0</ele><time>2026-04-06T17:42:14.999Z</time></trkpt><trkpt lat="43.75365544359134" lon="11.190539313768301"><ele>48.83333333333333</ele><time>2026-04-06T17:42:15.999Z</time></trkpt><trkpt lat="43.75371562466049" lon="11.190664704258564"><ele>48.666666666666664</ele><time>2026-04-06T17:42:17.999Z</time></trkpt><trkpt lat="43.753754714921605" lon="11.190735182239441"><ele>48.5</ele><time>2026-04-06T17:42:18.999Z</time></trkpt><trkpt lat="43.753802887003935" lon="11.190822074354402"><ele>48.33333333333333</ele><time>2026-04-06T17:42:19.999Z</time></trkpt><trkpt lat="43.75385292522096" lon="11.190926144554934"><ele>48.166666666666664</ele><time>2026-04-06T17:42:20.999Z</time></trkpt><trkpt lat="43.75390459713078" lon="11.191042854000333"><ele>48.0</ele><time>2026-04-06T17:42:21.999Z</time></trkpt><trkpt lat="43.75393246849233" lon="11.191182379607788"><ele>48.0</ele><time>2026-04-06T17:42:22.999Z</time></trkpt><trkpt lat="43.75396212137971" lon="11.191320913946214"><ele>48.0</ele><time>2026-04-06T17:42:23.999Z</time></trkpt><trkpt lat="43.75400249227945" lon="11.191448660666527"><ele>48.0</ele><time>2026-04-06T17:42:24.999Z</time></trkpt><trkpt lat="43.75402721129838" lon="11.191576466604847"><ele>48.0</ele><time>2026-04-06T17:42:25.999Z</time></trkpt><trkpt lat="43.7540517817799" lon="11.191681242227913"><ele>48.0</ele><time>2026-04-06T17:42:26.999Z</time></trkpt><trkpt lat="43.75407629235376" lon="11.191776623511172"><ele>48.0</ele><time>2026-04-06T17:42:27.999Z</time></trkpt><trkpt lat="43.75409946718509" lon="11.191858758195963"><ele>48.0</ele><time>2026-04-06T17:42:28.999Z</time></trkpt><trkpt lat="43.754141494274435" lon="11.192016077067057"><ele>48.0</ele><time>2026-04-06T17:42:30.999Z</time></trkpt><trkpt lat="43.754170864209684" lon="11.19218848207978"><ele>48.0</ele><time>2026-04-06T17:42:32.999Z</time></trkpt><trkpt lat="43.754195696627264" lon="11.19228487078173"><ele>48.0</ele><time>2026-04-06T17:42:33.999Z</time></trkpt><trkpt lat="43.75423210144189" lon="11.192369245956009"><ele>48.0</ele><time>2026-04-06T17:42:34.999Z</time></trkpt><trkpt lat="43.754272124113925" lon="11.19253453619081"><ele>48.0</ele><time>2026-04-06T17:42:36.999Z</time></trkpt><trkpt lat="43.754307342757" lon="11.192622163209114"><ele>48.0</ele><time>2026-04-06T17:42:37.999Z</time></trkpt><trkpt lat="43.754344147773" lon="11.192704450954098"><ele>48.0</ele><time>2026-04-06T17:42:38.999Z</time></trkpt><trkpt lat="43.75438060065545" lon="11.192795801959187"><ele>48.0</ele><time>2026-04-06T17:42:39.999Z</time></trkpt><trkpt lat="43.75441732441373" lon="11.192887074969489"><ele>48.0</ele><time>2026-04-06T17:42:40.999Z</time></trkpt><trkpt lat="43.75445753643739" lon="11.192979188077238"><ele>47.666666666666664</ele><time>2026-04-06T17:42:41.999Z</time></trkpt><trkpt lat="43.754500436718196" lon="11.193079885984137"><ele>47.333333333333336</ele><time>2026-04-06T17:42:42.999Z</time></trkpt><trkpt lat="43.75454147839727" lon="11.193177127933009"><ele>47.0</ele><time>2026-04-06T17:42:43.999Z</time></trkpt><trkpt lat="43.754587730804985" lon="11.193273087746991"><ele>46.66666666666667</ele><time>2026-04-06T17:42:44.999Z</time></trkpt><trkpt lat="43.75462479819834" lon="11.193364301102148"><ele>46.333333333333336</ele><time>2026-04-06T17:42:45.999Z</time></trkpt><trkpt lat="43.75466595465729" lon="11.193447539728737"><ele>46.0</ele><time>2026-04-06T17:42:46.999Z</time></trkpt><trkpt lat="43.75470972562009" lon="11.19353645961633"><ele>45.833333333333336</ele><time>2026-04-06T17:42:47.999Z</time></trkpt><trkpt lat="43.75475391001819" lon="11.193625681904914"><ele>45.66666666666667</ele><time>2026-04-06T17:42:48.999Z</time></trkpt><trkpt lat="43.75479956985951" lon="11.193716805763366"><ele>45.5</ele><time>2026-04-06T17:42:49.999Z</time></trkpt><trkpt lat="43.75483944779701" lon="11.19379952306665"><ele>45.333333333333336</ele><time>2026-04-06T17:42:50.999Z</time></trkpt><trkpt lat="43.75487876586587" lon="11.193880414205381"><ele>45.166666666666664</ele><time>2026-04-06T17:42:51.999Z</time></trkpt><trkpt lat="43.754920560590584" lon="11.193963951219503"><ele>45.0</ele><time>2026-04-06T17:42:52.999Z</time></trkpt><trkpt lat="43.75496865053923" lon="11.194064552762597"><ele>45.0</ele><time>2026-04-06T17:42:53.999Z</time></trkpt><trkpt lat="43.75502040028777" lon="11.1941712400746"><ele>45.0</ele><time>2026-04-06T17:42:54.999Z</time></trkpt><trkpt lat="43.755068747493375" lon="11.194272302240599"><ele>45.0</ele><time>2026-04-06T17:42:55.999Z</time></trkpt><trkpt lat="43.75512732053959" lon="11.194373093932555"><ele>45.0</ele><time>2026-04-06T17:42:56.998Z</time></trkpt><trkpt lat="43.755185850207354" lon="11.19448259860138"><ele>45.0</ele><time>2026-04-06T17:42:57.998Z</time></trkpt><trkpt lat="43.755246897273096" lon="11.194599245599465"><ele>45.0</ele><time>2026-04-06T17:42:58.998Z</time></trkpt><trkpt lat="43.75530618578872" lon="11.194721153921103"><ele>45.0</ele><time>2026-04-06T17:42:59.998Z</time></trkpt><trkpt lat="43.755366968448065" lon="11.1948405947047"><ele>45.0</ele><time>2026-04-06T17:43:00.998Z</time></trkpt><trkpt lat="43.75542765812384" lon="11.1949571751703"><ele>45.0</ele><time>2026-04-06T17:43:01.998Z</time></trkpt><trkpt lat="43.755479947372336" lon="11.195069227178728"><ele>45.0</ele><time>2026-04-06T17:43:02.998Z</time></trkpt><trkpt lat="43.7555298420595" lon="11.195184335811653"><ele>45.0</ele><time>2026-04-06T17:43:03.998Z</time></trkpt><trkpt lat="43.755575589884444" lon="11.195302830359582"><ele>45.0</ele><time>2026-04-06T17:43:04.998Z</time></trkpt><trkpt lat="43.755618571861625" lon="11.195425829429142"><ele>45.0</ele><time>2026-04-06T17:43:05.998Z</time></trkpt><trkpt lat="43.75566155250397" lon="11.195549174768216"><ele>45.0</ele><time>2026-04-06T17:43:06.998Z</time></trkpt><trkpt lat="43.75570307505216" lon="11.19567318112209"><ele>45.0</ele><time>2026-04-06T17:43:07.998Z</time></trkpt><trkpt lat="43.75574123836478" lon="11.195797274726717"><ele>45.0</ele><time>2026-04-06T17:43:08.998Z</time></trkpt><trkpt lat="43.75577696585627" lon="11.195913269936414"><ele>45.0</ele><time>2026-04-06T17:43:09.998Z</time></trkpt><trkpt lat="43.755810505365865" lon="11.196019932161247"><ele>45.0</ele><time>2026-04-06T17:43:10.998Z</time></trkpt><trkpt lat="43.75584649762606" lon="11.196130645033957"><ele>45.0</ele><time>2026-04-06T17:43:11.998Z</time></trkpt><trkpt lat="43.755880569464196" lon="11.196238689803511"><ele>45.0</ele><time>2026-04-06T17:43:12.998Z</time></trkpt><trkpt lat="43.75591396819806" lon="11.19634943011757"><ele>45.0</ele><time>2026-04-06T17:43:13.998Z</time></trkpt><trkpt lat="43.75594952233839" lon="11.196462086789909"><ele>45.0</ele><time>2026-04-06T17:43:14.998Z</time></trkpt><trkpt lat="43.75598969389074" lon="11.196576865415961"><ele>45.0</ele><time>2026-04-06T17:43:15.998Z</time></trkpt><trkpt lat="43.75603099935775" lon="11.1966907020552"><ele>45.0</ele><time>2026-04-06T17:43:16.998Z</time></trkpt><trkpt lat="43.75607067041658" lon="11.196810465728671"><ele>45.0</ele><time>2026-04-06T17:43:17.998Z</time></trkpt><trkpt lat="43.75611144618198" lon="11.196928916328707"><ele>45.0</ele><time>2026-04-06T17:43:18.998Z</time></trkpt><trkpt lat="43.75615742401685" lon="11.197044390268577"><ele>45.0</ele><time>2026-04-06T17:43:19.998Z</time></trkpt><trkpt lat="43.75620681744593" lon="11.19716067648114"><ele>45.0</ele><time>2026-04-06T17:43:20.998Z</time></trkpt><trkpt lat="43.75625604924638" lon="11.197277466545833"><ele>45.0</ele><time>2026-04-06T17:43:21.998Z</time></trkpt><trkpt lat="43.75630767549535" lon="11.197396060078907"><ele>45.0</ele><time>2026-04-06T17:43:22.998Z</time></trkpt><trkpt lat="43.75636134569106" lon="11.197515555740026"><ele>45.0</ele><time>2026-04-06T17:43:23.998Z</time></trkpt><trkpt lat="43.75641774041234" lon="11.197630097045161"><ele>45.8</ele><time>2026-04-06T17:43:24.998Z</time></trkpt><trkpt lat="43.75647973342081" lon="11.197743238523403"><ele>46.6</ele><time>2026-04-06T17:43:25.998Z</time></trkpt><trkpt lat="43.75654444563108" lon="11.197857108030549"><ele>47.400000000000006</ele><time>2026-04-06T17:43:26.998Z</time></trkpt><trkpt lat="43.75660370649308" lon="11.197963736097702"><ele>48.2</ele><time>2026-04-06T17:43:27.998Z</time></trkpt><trkpt lat="43.756655304847044" lon="11.198058169063776"><ele>49.0</ele><time>2026-04-06T17:43:28.998Z</time></trkpt><trkpt lat="43.75670469569502" lon="11.198146227231831"><ele>48.83333333333333</ele><time>2026-04-06T17:43:29.998Z</time></trkpt><trkpt lat="43.75675847439834" lon="11.198235770140105"><ele>48.666666666666664</ele><time>2026-04-06T17:43:30.998Z</time></trkpt><trkpt lat="43.756808316958434" lon="11.198322308589685"><ele>48.5</ele><time>2026-04-06T17:43:31.998Z</time></trkpt><trkpt lat="43.75686174098855" lon="11.198408916114191"><ele>48.33333333333333</ele><time>2026-04-06T17:43:32.998Z</time></trkpt><trkpt lat="43.75691803812818" lon="11.198504095140004"><ele>48.166666666666664</ele><time>2026-04-06T17:43:33.998Z</time></trkpt><trkpt lat="43.75697596186994" lon="11.198624584802866"><ele>48.0</ele><time>2026-04-06T17:43:34.998Z</time></trkpt><trkpt lat="43.757033746191155" lon="11.19876581563141"><ele>48.0</ele><time>2026-04-06T17:43:35.998Z</time></trkpt><trkpt lat="43.75709576752849" lon="11.198924559411758"><ele>48.0</ele><time>2026-04-06T17:43:36.998Z</time></trkpt><trkpt lat="43.75716138547009" lon="11.199092509697726"><ele>48.0</ele><time>2026-04-06T17:43:37.998Z</time></trkpt><trkpt lat="43.75722942223353" lon="11.199265605616139"><ele>48.0</ele><time>2026-04-06T17:43:38.998Z</time></trkpt><trkpt lat="43.757302593710925" lon="11.19943719461305"><ele>47.75</ele><time>2026-04-06T17:43:39.998Z</time></trkpt><trkpt lat="43.75738156884005" lon="11.199603990418739"><ele>47.5</ele><time>2026-04-06T17:43:41Z</time></trkpt><trkpt lat="43.75745997727774" lon="11.199769691403931"><ele>47.25</ele><time>2026-04-06T17:43:42Z</time></trkpt><trkpt lat="43.75753413362309" lon="11.199925836121635"><ele>47.0</ele><time>2026-04-06T17:43:43Z</time></trkpt><trkpt lat="43.7576033249486" lon="11.200072775196945"><ele>46.75</ele><time>2026-04-06T17:43:44Z</time></trkpt><trkpt lat="43.75767292229548" lon="11.200214311933596"><ele>46.5</ele><time>2026-04-06T17:43:45Z</time></trkpt><trkpt lat="43.75773989677244" lon="11.200356270258212"><ele>46.25</ele><time>2026-04-06T17:43:46Z</time></trkpt><trkpt lat="43.757808219230334" lon="11.200504198227616"><ele>46.0</ele><time>2026-04-06T17:43:47Z</time></trkpt><trkpt lat="43.75788006249478" lon="11.200660210345179"><ele>46.5</ele><time>2026-04-06T17:43:48Z</time></trkpt><trkpt lat="43.757951010306606" lon="11.200813849469567"><ele>47.0</ele><time>2026-04-06T17:43:49Z</time></trkpt><trkpt lat="43.758020020087685" lon="11.200957392277664"><ele>47.5</ele><time>2026-04-06T17:43:50Z</time></trkpt><trkpt lat="43.75808905607862" lon="11.20110099146527"><ele>48.0</ele><time>2026-04-06T17:43:51Z</time></trkpt><trkpt lat="43.75815779527366" lon="11.20125118620724"><ele>48.0</ele><time>2026-04-06T17:43:52Z</time></trkpt><trkpt lat="43.75822970587119" lon="11.201409641786311"><ele>48.0</ele><time>2026-04-06T17:43:53Z</time></trkpt><trkpt lat="43.758301349918476" lon="11.201567333560806"><ele>48.0</ele><time>2026-04-06T17:43:54Z</time></trkpt><trkpt lat="43.758369976945325" lon="11.20171368360903"><ele>48.0</ele><time>2026-04-06T17:43:55Z</time></trkpt><trkpt lat="43.758433519005386" lon="11.201851793407165"><ele>48.0</ele><time>2026-04-06T17:43:56Z</time></trkpt><trkpt lat="43.75849035534188" lon="11.201981045168472"><ele>48.0</ele><time>2026-04-06T17:43:57Z</time></trkpt><trkpt lat="43.75854817779626" lon="11.202108848784258"><ele>48.0</ele><time>2026-04-06T17:43:58Z</time></trkpt><trkpt lat="43.758601315522554" lon="11.202224795670622"><ele>48.0</ele><time>2026-04-06T17:43:59Z</time></trkpt><trkpt lat="43.758652122325984" lon="11.202330472929514"><ele>48.0</ele><time>2026-04-06T17:43:59.999Z</time></trkpt><trkpt lat="43.7587010725698" lon="11.202432523923784"><ele>47.833333333333336</ele><time>2026-04-06T17:44:00.999Z</time></trkpt><trkpt lat="43.75874482546418" lon="11.202525271178649"><ele>47.666666666666664</ele><time>2026-04-06T17:44:01.999Z</time></trkpt><trkpt lat="43.758782872880495" lon="11.202613868951556"><ele>47.5</ele><time>2026-04-06T17:44:02.999Z</time></trkpt><trkpt lat="43.75882181733216" lon="11.202706516015624"><ele>47.33333333333333</ele><time>2026-04-06T17:44:03.999Z</time></trkpt><trkpt lat="43.758859666844096" lon="11.20279158736783"><ele>47.166666666666664</ele><time>2026-04-06T17:44:04.999Z</time></trkpt><trkpt lat="43.75891762498989" lon="11.202935511090258"><ele>47.0</ele><time>2026-04-06T17:44:06.999Z</time></trkpt><trkpt lat="43.75893198619013" lon="11.2031111251274"><ele>47.0</ele><time>2026-04-06T17:44:08.999Z</time></trkpt><trkpt lat="43.75895464136998" lon="11.20321192612911"><ele>47.0</ele><time>2026-04-06T17:44:09.999Z</time></trkpt><trkpt lat="43.759007445311596" lon="11.203300548758577"><ele>47.0</ele><time>2026-04-06T17:44:10.999Z</time></trkpt><trkpt lat="43.75907623241253" lon="11.203357816271655"><ele>47.0</ele><time>2026-04-06T17:44:11.999Z</time></trkpt><trkpt lat="43.75914607419598" lon="11.203414718047659"><ele>47.0</ele><time>2026-04-06T17:44:12.999Z</time></trkpt><trkpt lat="43.75921311643719" lon="11.203486308866289"><ele>47.0</ele><time>2026-04-06T17:44:13.999Z</time></trkpt><trkpt lat="43.759271752795954" lon="11.203576054365822"><ele>47.0</ele><time>2026-04-06T17:44:14.999Z</time></trkpt><trkpt lat="43.75933200085932" lon="11.203672989831725"><ele>47.0</ele><time>2026-04-06T17:44:15.999Z</time></trkpt><trkpt lat="43.759393083840244" lon="11.203784536546685"><ele>47.0</ele><time>2026-04-06T17:44:16.999Z</time></trkpt><trkpt lat="43.75945821061281" lon="11.203902010088795"><ele>47.0</ele><time>2026-04-06T17:44:17.999Z</time></trkpt><trkpt lat="43.75952667779786" lon="11.204023068781929"><ele>47.0</ele><time>2026-04-06T17:44:18.999Z</time></trkpt><trkpt lat="43.75959969490822" lon="11.204145285404993"><ele>46.25</ele><time>2026-04-06T17:44:19.999Z</time></trkpt><trkpt lat="43.75967282197311" lon="11.204266892156255"><ele>45.5</ele><time>2026-04-06T17:44:20.999Z</time></trkpt><trkpt lat="43.75974688119962" lon="11.204388173666176"><ele>44.75</ele><time>2026-04-06T17:44:21.999Z</time></trkpt><trkpt lat="43.759820010611655" lon="11.204511390590095"><ele>44.0</ele><time>2026-04-06T17:44:22.999Z</time></trkpt><trkpt lat="43.75989614526239" lon="11.204636533086475"><ele>44.0</ele><time>2026-04-06T17:44:23.999Z</time></trkpt><trkpt lat="43.75997672848188" lon="11.20477216977019"><ele>44.0</ele><time>2026-04-06T17:44:24.999Z</time></trkpt><trkpt lat="43.76006054201743" lon="11.204911573818844"><ele>44.0</ele><time>2026-04-06T17:44:25.999Z</time></trkpt><trkpt lat="43.760161306397414" lon="11.205032613658753"><ele>44.0</ele><time>2026-04-06T17:44:26.999Z</time></trkpt><trkpt lat="43.760259260165434" lon="11.205158234949458"><ele>43.75</ele><time>2026-04-06T17:44:27.999Z</time></trkpt><trkpt lat="43.76036238366274" lon="11.205283565993017"><ele>43.5</ele><time>2026-04-06T17:44:28.999Z</time></trkpt><trkpt lat="43.76046704207945" lon="11.205406775266752"><ele>43.25</ele><time>2026-04-06T17:44:29.999Z</time></trkpt><trkpt lat="43.76058132870302" lon="11.205548898024276"><ele>43.0</ele><time>2026-04-06T17:44:30.999Z</time></trkpt><trkpt lat="43.760692555218995" lon="11.205713755987608"><ele>43.0</ele><time>2026-04-06T17:44:31.999Z</time></trkpt><trkpt lat="43.76080993539408" lon="11.205872051399941"><ele>43.0</ele><time>2026-04-06T17:44:32.999Z</time></trkpt><trkpt lat="43.760925448708974" lon="11.206033629042322"><ele>43.0</ele><time>2026-04-06T17:44:33.999Z</time></trkpt><trkpt lat="43.761048853033415" lon="11.206176059056634"><ele>42.75</ele><time>2026-04-06T17:44:34.999Z</time></trkpt><trkpt lat="43.76115881861884" lon="11.20633168365869"><ele>42.5</ele><time>2026-04-06T17:44:35.999Z</time></trkpt><trkpt lat="43.76126816087154" lon="11.206463858390482"><ele>42.25</ele><time>2026-04-06T17:44:36.999Z</time></trkpt><trkpt lat="43.761389739333865" lon="11.206577581487705"><ele>42.0</ele><time>2026-04-06T17:44:37.999Z</time></trkpt><trkpt lat="43.76152133564647" lon="11.206658484036074"><ele>42.0</ele><time>2026-04-06T17:44:38.999Z</time></trkpt><trkpt lat="43.761653621727" lon="11.20673260881015"><ele>42.0</ele><time>2026-04-06T17:44:39.999Z</time></trkpt><trkpt lat="43.76177556674683" lon="11.20680510847324"><ele>42.0</ele><time>2026-04-06T17:44:40.999Z</time></trkpt><trkpt lat="43.7618906379914" lon="11.206876994738497"><ele>42.0</ele><time>2026-04-06T17:44:41.999Z</time></trkpt><trkpt lat="43.76200762470765" lon="11.206948877089083"><ele>42.0</ele><time>2026-04-06T17:44:42.999Z</time></trkpt><trkpt lat="43.76212132221335" lon="11.207023489069105"><ele>42.0</ele><time>2026-04-06T17:44:43.999Z</time></trkpt><trkpt lat="43.762223501968585" lon="11.20709417674373"><ele>42.0</ele><time>2026-04-06T17:44:44.999Z</time></trkpt><trkpt lat="43.76231684409775" lon="11.207162743929096"><ele>42.0</ele><time>2026-04-06T17:44:45.999Z</time></trkpt><trkpt lat="43.762396854955114" lon="11.207227434618881"><ele>42.0</ele><time>2026-04-06T17:44:46.999Z</time></trkpt><trkpt lat="43.76246942865179" lon="11.207286424586368"><ele>42.2</ele><time>2026-04-06T17:44:47.999Z</time></trkpt><trkpt lat="43.76254584218866" lon="11.207350212203723"><ele>42.400000000000006</ele><time>2026-04-06T17:44:48.999Z</time></trkpt><trkpt lat="43.76263114067511" lon="11.207421572046826"><ele>42.599999999999994</ele><time>2026-04-06T17:44:49.999Z</time></trkpt><trkpt lat="43.76271947885317" lon="11.20749763868236"><ele>42.8</ele><time>2026-04-06T17:44:50.999Z</time></trkpt><trkpt lat="43.762806724862756" lon="11.207579831106624"><ele>43.0</ele><time>2026-04-06T17:44:51.999Z</time></trkpt><trkpt lat="43.76289258612348" lon="11.207652709445"><ele>43.0</ele><time>2026-04-06T17:44:52.999Z</time></trkpt><trkpt lat="43.76298093267968" lon="11.207732518964908"><ele>43.0</ele><time>2026-04-06T17:44:53.999Z</time></trkpt><trkpt lat="43.76307240409869" lon="11.20781485203187"><ele>43.0</ele><time>2026-04-06T17:44:54.999Z</time></trkpt><trkpt lat="43.76316735336039" lon="11.20789442176763"><ele>43.0</ele><time>2026-04-06T17:44:55.999Z</time></trkpt><trkpt lat="43.76326183321258" lon="11.207982160368767"><ele>43.0</ele><time>2026-04-06T17:44:56.999Z</time></trkpt><trkpt lat="43.763354509443516" lon="11.208076141956123"><ele>43.0</ele><time>2026-04-06T17:44:57.999Z</time></trkpt><trkpt lat="43.76344383544479" lon="11.208170870490022"><ele>43.0</ele><time>2026-04-06T17:44:58.999Z</time></trkpt><trkpt lat="43.76353382127221" lon="11.20827160671171"><ele>43.0</ele><time>2026-04-06T17:44:59.999Z</time></trkpt><trkpt lat="43.76361510274522" lon="11.208373514145395"><ele>43.0</ele><time>2026-04-06T17:45:00.999Z</time></trkpt><trkpt lat="43.76368804373912" lon="11.208473136075648"><ele>43.0</ele><time>2026-04-06T17:45:01.999Z</time></trkpt><trkpt lat="43.76375643887618" lon="11.208572472844041"><ele>42.8</ele><time>2026-04-06T17:45:02.999Z</time></trkpt><trkpt lat="43.76382178978196" lon="11.208660182026833"><ele>42.599999999999994</ele><time>2026-04-06T17:45:03.998Z</time></trkpt><trkpt lat="43.7638821513106" lon="11.208750800280985"><ele>42.400000000000006</ele><time>2026-04-06T17:45:04.998Z</time></trkpt><trkpt lat="43.763943117209365" lon="11.208840400706231"><ele>42.2</ele><time>2026-04-06T17:45:05.998Z</time></trkpt><trkpt lat="43.764001636584425" lon="11.208926849850977"><ele>42.0</ele><time>2026-04-06T17:45:06.998Z</time></trkpt><trkpt lat="43.76406663031679" lon="11.209025228428247"><ele>42.0</ele><time>2026-04-06T17:45:07.998Z</time></trkpt><trkpt lat="43.76412520998622" lon="11.209119161418176"><ele>42.0</ele><time>2026-04-06T17:45:08.998Z</time></trkpt><trkpt lat="43.764176632717664" lon="11.209207053814762"><ele>42.0</ele><time>2026-04-06T17:45:09.998Z</time></trkpt><trkpt lat="43.76421736664739" lon="11.209286627245227"><ele>42.0</ele><time>2026-04-06T17:45:10.998Z</time></trkpt><trkpt lat="43.76426179283055" lon="11.209369951480072"><ele>42.0</ele><time>2026-04-06T17:45:11.998Z</time></trkpt><trkpt lat="43.76431268978241" lon="11.209459432632311"><ele>42.0</ele><time>2026-04-06T17:45:12.998Z</time></trkpt><trkpt lat="43.76436220494143" lon="11.209559145624075"><ele>42.0</ele><time>2026-04-06T17:45:13.998Z</time></trkpt><trkpt lat="43.764412738951606" lon="11.209659395862076"><ele>42.0</ele><time>2026-04-06T17:45:14.998Z</time></trkpt><trkpt lat="43.76446383317835" lon="11.20975378329663"><ele>42.0</ele><time>2026-04-06T17:45:15.998Z</time></trkpt><trkpt lat="43.76451205542333" lon="11.209853211741773"><ele>42.0</ele><time>2026-04-06T17:45:16.998Z</time></trkpt><trkpt lat="43.76455932919099" lon="11.209955522644417"><ele>42.0</ele><time>2026-04-06T17:45:17.998Z</time></trkpt><trkpt lat="43.76463120021006" lon="11.210060709903752"><ele>42.2</ele><time>2026-04-06T17:45:18.998Z</time></trkpt><trkpt lat="43.76470714838023" lon="11.210166334437925"><ele>42.400000000000006</ele><time>2026-04-06T17:45:19.998Z</time></trkpt><trkpt lat="43.76476216316307" lon="11.21026034667687"><ele>42.599999999999994</ele><time>2026-04-06T17:45:21.998Z</time></trkpt><trkpt lat="43.764826669711276" lon="11.210331249036578"><ele>42.8</ele><time>2026-04-06T17:45:22.998Z</time></trkpt><trkpt lat="43.764910519081646" lon="11.21042721228068"><ele>43.0</ele><time>2026-04-06T17:45:23.998Z</time></trkpt><trkpt lat="43.7649997969377" lon="11.210537750284404"><ele>42.75</ele><time>2026-04-06T17:45:24.998Z</time></trkpt><trkpt lat="43.765102634665155" lon="11.210666387861743"><ele>42.5</ele><time>2026-04-06T17:45:25.998Z</time></trkpt><trkpt lat="43.765204580735656" lon="11.210797433446999"><ele>42.25</ele><time>2026-04-06T17:45:26.998Z</time></trkpt><trkpt lat="43.76531200866356" lon="11.210934551429492"><ele>42.0</ele><time>2026-04-06T17:45:27.998Z</time></trkpt><trkpt lat="43.76541689818398" lon="11.211074528869048"><ele>42.0</ele><time>2026-04-06T17:45:28.998Z</time></trkpt><trkpt lat="43.765512202167656" lon="11.211219056107574"><ele>42.0</ele><time>2026-04-06T17:45:29.998Z</time></trkpt><trkpt lat="43.76560336140511" lon="11.211381467791286"><ele>42.0</ele><time>2026-04-06T17:45:30.998Z</time></trkpt><trkpt lat="43.765679517562646" lon="11.211547438058597"><ele>42.0</ele><time>2026-04-06T17:45:31.998Z</time></trkpt><trkpt lat="43.765736078958426" lon="11.211700907410542"><ele>42.400000000000006</ele><time>2026-04-06T17:45:32.998Z</time></trkpt><trkpt lat="43.765782877367094" lon="11.211840704644118"><ele>42.800000000000004</ele><time>2026-04-06T17:45:33.998Z</time></trkpt><trkpt lat="43.76582433041047" lon="11.211970140759172"><ele>43.2</ele><time>2026-04-06T17:45:34.998Z</time></trkpt><trkpt lat="43.76585878866705" lon="11.212089361177958"><ele>43.6</ele><time>2026-04-06T17:45:35.998Z</time></trkpt><trkpt lat="43.76588738371344" lon="11.212196715181642"><ele>44.0</ele><time>2026-04-06T17:45:36.998Z</time></trkpt><trkpt lat="43.76591388963673" lon="11.212297351599686"><ele>44.0</ele><time>2026-04-06T17:45:37.998Z</time></trkpt><trkpt lat="43.765940301767905" lon="11.21239240352389"><ele>44.0</ele><time>2026-04-06T17:45:38.998Z</time></trkpt><trkpt lat="43.765963904109306" lon="11.212487762111943"><ele>44.0</ele><time>2026-04-06T17:45:39.998Z</time></trkpt><trkpt lat="43.76598703474549" lon="11.212578758661733"><ele>44.0</ele><time>2026-04-06T17:45:40.998Z</time></trkpt><trkpt lat="43.76601024038994" lon="11.212669625807939"><ele>44.0</ele><time>2026-04-06T17:45:41.998Z</time></trkpt><trkpt lat="43.766044359703194" lon="11.212803951599293"><ele>44.0</ele><time>2026-04-06T17:45:43.998Z</time></trkpt><trkpt lat="43.76610184027592" lon="11.21285841779913"><ele>44.0</ele><time>2026-04-06T17:45:48Z</time></trkpt><trkpt lat="43.76614683530806" lon="11.212937751112417"><ele>44.0</ele><time>2026-04-06T17:46:00Z</time></trkpt><trkpt lat="43.766094835554085" lon="11.213087650663955"><ele>44.0</ele><time>2026-04-06T17:46:01Z</time></trkpt><trkpt lat="43.76605699715564" lon="11.213195005517246"><ele>44.0</ele><time>2026-04-06T17:46:02Z</time></trkpt><trkpt lat="43.76600359144277" lon="11.213322536015244"><ele>44.0</ele><time>2026-04-06T17:46:03Z</time></trkpt><trkpt lat="43.7659425023633" lon="11.213471390986642"><ele>43.75</ele><time>2026-04-06T17:46:04Z</time></trkpt><trkpt lat="43.765882411656655" lon="11.213632577552128"><ele>43.5</ele><time>2026-04-06T17:46:05Z</time></trkpt><trkpt lat="43.76581542287024" lon="11.213804162218121"><ele>43.25</ele><time>2026-04-06T17:46:06Z</time></trkpt><trkpt lat="43.765748807554445" lon="11.213974328290009"><ele>43.0</ele><time>2026-04-06T17:46:06.999Z</time></trkpt><trkpt lat="43.76568310217058" lon="11.214147180574402"><ele>42.75</ele><time>2026-04-06T17:46:07.999Z</time></trkpt><trkpt lat="43.76562179426348" lon="11.21432155083114"><ele>42.5</ele><time>2026-04-06T17:46:08.999Z</time></trkpt><trkpt lat="43.765560103871934" lon="11.214494284425646"><ele>42.25</ele><time>2026-04-06T17:46:09.999Z</time></trkpt><trkpt lat="43.765492672443166" lon="11.214669445451053"><ele>42.0</ele><time>2026-04-06T17:46:10.999Z</time></trkpt><trkpt lat="43.76542411865759" lon="11.214844436433353"><ele>42.5</ele><time>2026-04-06T17:46:11.999Z</time></trkpt><trkpt lat="43.765359864352334" lon="11.215009976246124"><ele>43.0</ele><time>2026-04-06T17:46:12.999Z</time></trkpt><trkpt lat="43.76529887510855" lon="11.215172527299815"><ele>43.5</ele><time>2026-04-06T17:46:13.999Z</time></trkpt><trkpt lat="43.765235929360884" lon="11.215340700933066"><ele>44.0</ele><time>2026-04-06T17:46:14.999Z</time></trkpt><trkpt lat="43.76517783458794" lon="11.215513033622452"><ele>44.5</ele><time>2026-04-06T17:46:15.999Z</time></trkpt><trkpt lat="43.76512479077482" lon="11.215689209827074"><ele>45.0</ele><time>2026-04-06T17:46:16.999Z</time></trkpt><trkpt lat="43.76506768139412" lon="11.215861437676576"><ele>45.5</ele><time>2026-04-06T17:46:17.999Z</time></trkpt><trkpt lat="43.76499707110827" lon="11.216034661962283"><ele>46.0</ele><time>2026-04-06T17:46:18.999Z</time></trkpt><trkpt lat="43.76492216672229" lon="11.216207876110948"><ele>46.0</ele><time>2026-04-06T17:46:19.999Z</time></trkpt><trkpt lat="43.76485537131675" lon="11.216385290425643"><ele>46.0</ele><time>2026-04-06T17:46:20.999Z</time></trkpt><trkpt lat="43.764788615839414" lon="11.216556072977541"><ele>46.0</ele><time>2026-04-06T17:46:21.999Z</time></trkpt><trkpt lat="43.76472538300653" lon="11.216720334727219"><ele>46.0</ele><time>2026-04-06T17:46:22.999Z</time></trkpt><trkpt lat="43.764659303742455" lon="11.216889106507482"><ele>46.25</ele><time>2026-04-06T17:46:23.999Z</time></trkpt><trkpt lat="43.7645918621858" lon="11.217058741051432"><ele>46.5</ele><time>2026-04-06T17:46:24.999Z</time></trkpt><trkpt lat="43.76452663492129" lon="11.217221982512346"><ele>46.75</ele><time>2026-04-06T17:46:25.999Z</time></trkpt><trkpt lat="43.76445433885414" lon="11.21739769394929"><ele>47.0</ele><time>2026-04-06T17:46:26.999Z</time></trkpt><trkpt lat="43.76437900254091" lon="11.217584012649754"><ele>47.0</ele><time>2026-04-06T17:46:27.999Z</time></trkpt><trkpt lat="43.76430899317267" lon="11.217766201733358"><ele>47.0</ele><time>2026-04-06T17:46:28.999Z</time></trkpt><trkpt lat="43.76424729571914" lon="11.217927927627233"><ele>47.0</ele><time>2026-04-06T17:46:29.999Z</time></trkpt><trkpt lat="43.76418805618365" lon="11.218071320789605"><ele>47.0</ele><time>2026-04-06T17:46:30.999Z</time></trkpt><trkpt lat="43.764127043928596" lon="11.218202728713107"><ele>47.2</ele><time>2026-04-06T17:46:31.999Z</time></trkpt><trkpt lat="43.76406582834494" lon="11.218318923476488"><ele>47.400000000000006</ele><time>2026-04-06T17:46:32.999Z</time></trkpt><trkpt lat="43.76401938576145" lon="11.218418061435539"><ele>47.599999999999994</ele><time>2026-04-06T17:46:33.999Z</time></trkpt><trkpt lat="43.76399706418183" lon="11.21851465773945"><ele>47.8</ele><time>2026-04-06T17:46:34.999Z</time></trkpt><trkpt lat="43.7639701881875" lon="11.218617028200258"><ele>48.0</ele><time>2026-04-06T17:46:36.999Z</time></trkpt><trkpt lat="43.76405892923617" lon="11.218855974132017"><ele>48.0</ele><time>2026-04-06T17:46:37.999Z</time></trkpt><trkpt lat="43.76411959576442" lon="11.218939340683155"><ele>48.0</ele><time>2026-04-06T17:46:38.999Z</time></trkpt><trkpt lat="43.76429462541247" lon="11.21893023609815"><ele>48.0</ele><time>2026-04-06T17:46:39.999Z</time></trkpt><trkpt lat="43.764379449705245" lon="11.219013163574632"><ele>48.0</ele><time>2026-04-06T17:46:40.999Z</time></trkpt><trkpt lat="43.764479542352184" lon="11.219105600375539"><ele>48.25</ele><time>2026-04-06T17:46:41.999Z</time></trkpt><trkpt lat="43.764587476551014" lon="11.219208492862947"><ele>48.5</ele><time>2026-04-06T17:46:42.999Z</time></trkpt><trkpt lat="43.76469126517064" lon="11.21931516130126"><ele>48.75</ele><time>2026-04-06T17:46:43.999Z</time></trkpt><trkpt lat="43.76479145332254" lon="11.219421624967742"><ele>49.0</ele><time>2026-04-06T17:46:44.999Z</time></trkpt><trkpt lat="43.764892065105954" lon="11.219509304875974"><ele>49.0</ele><time>2026-04-06T17:46:45.999Z</time></trkpt><trkpt lat="43.764998480673306" lon="11.21957769853639"><ele>49.0</ele><time>2026-04-06T17:46:46.999Z</time></trkpt><trkpt lat="43.765115772318374" lon="11.219632207759247"><ele>49.0</ele><time>2026-04-06T17:46:47.999Z</time></trkpt><trkpt lat="43.765228766348216" lon="11.219668009781138"><ele>49.0</ele><time>2026-04-06T17:46:48.999Z</time></trkpt><trkpt lat="43.76532877794057" lon="11.219714591444951"><ele>49.0</ele><time>2026-04-06T17:46:49.999Z</time></trkpt><trkpt lat="43.76543343725837" lon="11.219773073971915"><ele>49.0</ele><time>2026-04-06T17:46:50.999Z</time></trkpt><trkpt lat="43.76554225230919" lon="11.219850183583493"><ele>49.0</ele><time>2026-04-06T17:46:51.999Z</time></trkpt><trkpt lat="43.76564605444376" lon="11.219942661010053"><ele>49.0</ele><time>2026-04-06T17:46:52.999Z</time></trkpt><trkpt lat="43.765747024445474" lon="11.22001619137417"><ele>49.0</ele><time>2026-04-06T17:46:53.999Z</time></trkpt><trkpt lat="43.765830184549245" lon="11.220093776036443"><ele>49.0</ele><time>2026-04-06T17:46:54.999Z</time></trkpt><trkpt lat="43.765917482261194" lon="11.220175427041328"><ele>49.0</ele><time>2026-04-06T17:46:55.999Z</time></trkpt><trkpt lat="43.766000742360674" lon="11.220247854503397"><ele>49.0</ele><time>2026-04-06T17:46:56.999Z</time></trkpt><trkpt lat="43.766085673741614" lon="11.220324996701267"><ele>49.0</ele><time>2026-04-06T17:46:57.999Z</time></trkpt><trkpt lat="43.766172680448506" lon="11.220402204170393"><ele>49.0</ele><time>2026-04-06T17:46:58.999Z</time></trkpt><trkpt lat="43.76625831067012" lon="11.220477970276601"><ele>49.0</ele><time>2026-04-06T17:46:59.999Z</time></trkpt><trkpt lat="43.766354173732196" lon="11.220563598816687"><ele>49.0</ele><time>2026-04-06T17:47:00.999Z</time></trkpt><trkpt lat="43.766452784674264" lon="11.220637509936788"><ele>49.0</ele><time>2026-04-06T17:47:01.999Z</time></trkpt><trkpt lat="43.76655899018921" lon="11.220708424618019"><ele>49.0</ele><time>2026-04-06T17:47:02.999Z</time></trkpt><trkpt lat="43.766658590350005" lon="11.220783217292402"><ele>48.83333333333333</ele><time>2026-04-06T17:47:03.999Z</time></trkpt><trkpt lat="43.766744180955406" lon="11.220847904604817"><ele>48.666666666666664</ele><time>2026-04-06T17:47:04.999Z</time></trkpt><trkpt lat="43.76682238853025" lon="11.220906510249678"><ele>48.5</ele><time>2026-04-06T17:47:05.999Z</time></trkpt><trkpt lat="43.76689777710435" lon="11.220964981282687"><ele>48.33333333333333</ele><time>2026-04-06T17:47:06.999Z</time></trkpt><trkpt lat="43.76697124167704" lon="11.221020965199253"><ele>48.166666666666664</ele><time>2026-04-06T17:47:07.999Z</time></trkpt><trkpt lat="43.7670481743462" lon="11.221083168081059"><ele>48.0</ele><time>2026-04-06T17:47:08.999Z</time></trkpt><trkpt lat="43.76712961998962" lon="11.221150783019205"><ele>47.833333333333336</ele><time>2026-04-06T17:47:09.999Z</time></trkpt><trkpt lat="43.7672141595327" lon="11.221223234893644"><ele>47.666666666666664</ele><time>2026-04-06T17:47:10.998Z</time></trkpt><trkpt lat="43.76729262070092" lon="11.221284045251554"><ele>47.5</ele><time>2026-04-06T17:47:11.998Z</time></trkpt><trkpt lat="43.76736451734942" lon="11.221341220335258"><ele>47.33333333333333</ele><time>2026-04-06T17:47:12.998Z</time></trkpt><trkpt lat="43.76742402544103" lon="11.221398756014853"><ele>47.166666666666664</ele><time>2026-04-06T17:47:13.998Z</time></trkpt><trkpt lat="43.76747878278145" lon="11.221458503130437"><ele>47.0</ele><time>2026-04-06T17:47:14.998Z</time></trkpt><trkpt lat="43.767554991067996" lon="11.22153836817365"><ele>46.8</ele><time>2026-04-06T17:47:16.998Z</time></trkpt><trkpt lat="43.76761569413605" lon="11.22159448595375"><ele>46.6</ele><time>2026-04-06T17:47:18.998Z</time></trkpt><trkpt lat="43.767669090698114" lon="11.221657255141045"><ele>46.4</ele><time>2026-04-06T17:47:26.998Z</time></trkpt><trkpt lat="43.76773530509669" lon="11.221730586403819"><ele>46.199999999999996</ele><time>2026-04-06T17:47:28.998Z</time></trkpt><trkpt lat="43.767839451985715" lon="11.22158332766882"><ele>46.0</ele><time>2026-04-06T17:47:30.998Z</time></trkpt><trkpt lat="43.76786805083072" lon="11.221474533396087"><ele>45.8</ele><time>2026-04-06T17:47:31.998Z</time></trkpt><trkpt lat="43.767884001700814" lon="11.22137584841187"><ele>45.599999999999994</ele><time>2026-04-06T17:47:32.998Z</time></trkpt><trkpt lat="43.76791345218811" lon="11.221253771326554"><ele>45.4</ele><time>2026-04-06T17:47:33.998Z</time></trkpt><trkpt lat="43.76794271334042" lon="11.221111475354567"><ele>45.2</ele><time>2026-04-06T17:47:34.998Z</time></trkpt><trkpt lat="43.767972167245716" lon="11.220969013276214"><ele>45.0</ele><time>2026-04-06T17:47:35.998Z</time></trkpt><trkpt lat="43.768003798895975" lon="11.22082566425405"><ele>45.0</ele><time>2026-04-06T17:47:36.998Z</time></trkpt><trkpt lat="43.768037430766825" lon="11.220670949995023"><ele>45.0</ele><time>2026-04-06T17:47:37.998Z</time></trkpt><trkpt lat="43.76807484471916" lon="11.220511795047479"><ele>45.0</ele><time>2026-04-06T17:47:38.998Z</time></trkpt><trkpt lat="43.76810889385448" lon="11.22035149883287"><ele>45.0</ele><time>2026-04-06T17:47:39.998Z</time></trkpt><trkpt lat="43.76813702542628" lon="11.22021156935076"><ele>45.333333333333336</ele><time>2026-04-06T17:47:40.998Z</time></trkpt><trkpt lat="43.768162762082945" lon="11.220092489891462"><ele>45.666666666666664</ele><time>2026-04-06T17:47:41.998Z</time></trkpt><trkpt lat="43.76818465847597" lon="11.219980990345592"><ele>46.0</ele><time>2026-04-06T17:47:42.998Z</time></trkpt><trkpt lat="43.76821161919744" lon="11.219871194279571"><ele>46.33333333333333</ele><time>2026-04-06T17:47:43.998Z</time></trkpt><trkpt lat="43.768249552805095" lon="11.219762970639575"><ele>46.666666666666664</ele><time>2026-04-06T17:47:44.998Z</time></trkpt><trkpt lat="43.76827051385631" lon="11.219655247477084"><ele>47.0</ele><time>2026-04-06T17:47:45.998Z</time></trkpt><trkpt lat="43.76827246101936" lon="11.219517901805943"><ele>47.0</ele><time>2026-04-06T17:47:46.998Z</time></trkpt><trkpt lat="43.76830324697138" lon="11.219366224674545"><ele>47.0</ele><time>2026-04-06T17:47:47.998Z</time></trkpt><trkpt lat="43.76834886566579" lon="11.219206091392273"><ele>47.0</ele><time>2026-04-06T17:47:48.998Z</time></trkpt><trkpt lat="43.7683728101193" lon="11.219054955799116"><ele>47.0</ele><time>2026-04-06T17:47:49.998Z</time></trkpt><trkpt lat="43.76839730581586" lon="11.218926714753746"><ele>47.0</ele><time>2026-04-06T17:47:50.998Z</time></trkpt><trkpt lat="43.76842036393448" lon="11.218816108535611"><ele>47.0</ele><time>2026-04-06T17:47:52Z</time></trkpt><trkpt lat="43.76844317612898" lon="11.218689041531423"><ele>47.0</ele><time>2026-04-06T17:47:54Z</time></trkpt><trkpt lat="43.76856760943058" lon="11.218708482330625"><ele>47.0</ele><time>2026-04-06T17:47:55Z</time></trkpt><trkpt lat="43.76864137315616" lon="11.21873343642091"><ele>47.0</ele><time>2026-04-06T17:47:56Z</time></trkpt><trkpt lat="43.768721818179884" lon="11.218768129576189"><ele>47.0</ele><time>2026-04-06T17:47:57Z</time></trkpt><trkpt lat="43.76880145269696" lon="11.218807793502071"><ele>47.0</ele><time>2026-04-06T17:47:58Z</time></trkpt><trkpt lat="43.76888939716587" lon="11.218863155344845"><ele>47.0</ele><time>2026-04-06T17:47:59Z</time></trkpt><trkpt lat="43.76897566589834" lon="11.218941796927215"><ele>47.0</ele><time>2026-04-06T17:48:00Z</time></trkpt><trkpt lat="43.76905850295214" lon="11.219040869455185"><ele>47.0</ele><time>2026-04-06T17:48:01Z</time></trkpt><trkpt lat="43.76913310813221" lon="11.219146450523452"><ele>47.0</ele><time>2026-04-06T17:48:02Z</time></trkpt><trkpt lat="43.76921080814293" lon="11.219240509083415"><ele>47.0</ele><time>2026-04-06T17:48:03Z</time></trkpt><trkpt lat="43.76928464692254" lon="11.219331593303089"><ele>47.0</ele><time>2026-04-06T17:48:04Z</time></trkpt><trkpt lat="43.769348797597026" lon="11.219416240185694"><ele>47.0</ele><time>2026-04-06T17:48:05Z</time></trkpt><trkpt lat="43.76939779886189" lon="11.21949757191718"><ele>47.0</ele><time>2026-04-06T17:48:06Z</time></trkpt><trkpt lat="43.76944793885968" lon="11.21955131178897"><ele>47.0</ele><time>2026-04-06T17:48:07Z</time></trkpt><trkpt lat="43.76951180470771" lon="11.219591985809087"><ele>47.0</ele><time>2026-04-06T17:48:08Z</time></trkpt><trkpt lat="43.769576377575206" lon="11.219614816023604"><ele>47.0</ele><time>2026-04-06T17:48:09Z</time></trkpt><trkpt lat="43.76962310752316" lon="11.219735848286886"><ele>47.0</ele><time>2026-04-06T17:48:11Z</time></trkpt><trkpt lat="43.769606788023545" lon="11.219821300471352"><ele>47.0</ele><time>2026-04-06T17:48:12Z</time></trkpt><trkpt lat="43.76958811921189" lon="11.219967084484903"><ele>47.0</ele><time>2026-04-06T17:48:14Z</time></trkpt><trkpt lat="43.76955903325201" lon="11.220088012607262"><ele>47.0</ele><time>2026-04-06T17:48:15.999Z</time></trkpt><trkpt lat="43.76949535276426" lon="11.220172740817635"><ele>47.0</ele><time>2026-04-06T17:48:17.999Z</time></trkpt><trkpt lat="43.769452663570966" lon="11.220266450178794"><ele>47.0</ele><time>2026-04-06T17:48:19.999Z</time></trkpt><trkpt lat="43.76940774924057" lon="11.220338280644013"><ele>47.0</ele><time>2026-04-06T17:48:21.999Z</time></trkpt></trkseg></trk></gpx>